<?xml version='1.0' encoding='UTF-8'?><gpx version="1.1" creator="JPX - https://github.com/jenetics/jpx" xmlns="http://www.topografix.com/GPX/1/1"><trk><trkseg><trkpt lat="43.995767162083204" lon="12.513165658201103"><ele>102.0</ele><time>2026-05-01T12:09:19.977Z</time></trkpt><trkpt lat="43.99575447841609" lon="12.513047948010623"><ele>102.0</ele><time>2026-05-01T12:09:20.977Z</time></trkpt><trkpt lat="43.995741351382854" lon="12.512939027608676"><ele>102.0</ele><time>2026-05-01T12:09:21.977Z</time></trkpt><trkpt lat="43.99573204635814" lon="12.512832363755576"><ele>102.0</ele><time>2026-05-01T12:09:22.977Z</time></trkpt><trkpt lat="43.99572335101843" lon="12.512730969403469"><ele>102.0</ele><time>2026-05-01T12:09:23.977Z</time></trkpt><trkpt lat="43.99571214166267" lon="12.512632503149282"><ele>102.0</ele><time>2026-05-01T12:09:24.977Z</time></trkpt><trkpt lat="43.99569816075449" lon="12.512540875281074"><ele>101.19999999999999</ele><time>2026-05-01T12:09:25.977Z</time></trkpt><trkpt lat="43.99567112781295" lon="12.512453210064185"><ele>100.4</ele><time>2026-05-01T12:09:26.977Z</time></trkpt><trkpt lat="43.99563817255034" lon="12.512363047151062"><ele>99.6</ele><time>2026-05-01T12:09:27.977Z</time></trkpt><trkpt lat="43.995589581608485" lon="12.512258301107542"><ele>98.80000000000001</ele><time>2026-05-01T12:09:28.977Z</time></trkpt><trkpt lat="43.995510732317165" lon="12.512154024631233"><ele>98.0</ele><time>2026-05-01T12:09:29.977Z</time></trkpt><trkpt lat="43.99541525664198" lon="12.512054406290357"><ele>97.0</ele><time>2026-05-01T12:09:30.977Z</time></trkpt><trkpt lat="43.99531923093025" lon="12.511965731720222"><ele>96.0</ele><time>2026-05-01T12:09:31.977Z</time></trkpt><trkpt lat="43.9952219736219" lon="12.511881004074098"><ele>95.0</ele><time>2026-05-01T12:09:32.977Z</time></trkpt><trkpt lat="43.9951360716685" lon="12.511791273201425"><ele>94.0</ele><time>2026-05-01T12:09:33.977Z</time></trkpt><trkpt lat="43.9950608937442" lon="12.511675578460263"><ele>92.4</ele><time>2026-05-01T12:09:34.977Z</time></trkpt><trkpt lat="43.99500139135983" lon="12.511543189045996"><ele>90.80000000000001</ele><time>2026-05-01T12:09:35.977Z</time></trkpt><trkpt lat="43.9949460982565" lon="12.511416161600028"><ele>89.19999999999999</ele><time>2026-05-01T12:09:36.977Z</time></trkpt><trkpt lat="43.99489404663174" lon="12.511286129966045"><ele>87.6</ele><time>2026-05-01T12:09:37.977Z</time></trkpt><trkpt lat="43.99483464767111" lon="12.511156193941828"><ele>86.0</ele><time>2026-05-01T12:09:38.977Z</time></trkpt><trkpt lat="43.9947764742138" lon="12.511023631658832"><ele>84.0</ele><time>2026-05-01T12:09:39.977Z</time></trkpt><trkpt lat="43.99471255416445" lon="12.51090581611331"><ele>82.0</ele><time>2026-05-01T12:09:40.977Z</time></trkpt><trkpt lat="43.99462722112826" lon="12.510813052153113"><ele>80.0</ele><time>2026-05-01T12:09:41.977Z</time></trkpt><trkpt lat="43.9945177498151" lon="12.510755740164283"><ele>78.0</ele><time>2026-05-01T12:09:42.977Z</time></trkpt><trkpt lat="43.994405982944734" lon="12.510735898792133"><ele>76.0</ele><time>2026-05-01T12:09:43.977Z</time></trkpt><trkpt lat="43.99429458196068" lon="12.510734496015273"><ele>76.0</ele><time>2026-05-01T12:09:44.977Z</time></trkpt><trkpt lat="43.994180421043474" lon="12.510726907530318"><ele>76.0</ele><time>2026-05-01T12:09:45.977Z</time></trkpt><trkpt lat="43.99406279019186" lon="12.510717895609842"><ele>76.0</ele><time>2026-05-01T12:09:46.977Z</time></trkpt><trkpt lat="43.993941356600025" lon="12.510675927856814"><ele>76.0</ele><time>2026-05-01T12:09:47.977Z</time></trkpt><trkpt lat="43.99382141777534" lon="12.51066115116354"><ele>74.75</ele><time>2026-05-01T12:09:48.977Z</time></trkpt><trkpt lat="43.99369940575559" lon="12.510648713559947"><ele>73.5</ele><time>2026-05-01T12:09:49.977Z</time></trkpt><trkpt lat="43.99358022806235" lon="12.510627633872238"><ele>72.25</ele><time>2026-05-01T12:09:50.977Z</time></trkpt><trkpt lat="43.99346084707243" lon="12.510610004103704"><ele>71.0</ele><time>2026-05-01T12:09:51.977Z</time></trkpt><trkpt lat="43.9933425547648" lon="12.510590081645658"><ele>70.0</ele><time>2026-05-01T12:09:52.977Z</time></trkpt><trkpt lat="43.99322505414087" lon="12.510560360320508"><ele>69.0</ele><time>2026-05-01T12:09:53.977Z</time></trkpt><trkpt lat="43.99311123223476" lon="12.510522345243356"><ele>68.0</ele><time>2026-05-01T12:09:54.977Z</time></trkpt><trkpt lat="43.9930113418111" lon="12.510484747118438"><ele>67.0</ele><time>2026-05-01T12:09:55.977Z</time></trkpt><trkpt lat="43.99293430014948" lon="12.510429708099132"><ele>66.0</ele><time>2026-05-01T12:09:56.977Z</time></trkpt><trkpt lat="43.992876858263784" lon="12.510383731288647"><ele>64.75</ele><time>2026-05-01T12:09:57.977Z</time></trkpt><trkpt lat="43.99282096086686" lon="12.510307440933197"><ele>63.5</ele><time>2026-05-01T12:09:59.977Z</time></trkpt><trkpt lat="43.99279787141607" lon="12.51016080743754"><ele>62.25</ele><time>2026-05-01T12:10:01.977Z</time></trkpt><trkpt lat="43.992789733354535" lon="12.510001139086368"><ele>61.0</ele><time>2026-05-01T12:10:02.977Z</time></trkpt><trkpt lat="43.99279943295641" lon="12.509794395524356"><ele>63.0</ele><time>2026-05-01T12:10:03.977Z</time></trkpt><trkpt lat="43.99281086619697" lon="12.509551629455858"><ele>65.0</ele><time>2026-05-01T12:10:04.977Z</time></trkpt><trkpt lat="43.99281900683832" lon="12.509282626871679"><ele>67.0</ele><time>2026-05-01T12:10:05.977Z</time></trkpt><trkpt lat="43.99281058409149" lon="12.509019184227787"><ele>67.0</ele><time>2026-05-01T12:10:06.977Z</time></trkpt><trkpt lat="43.992782411641" lon="12.508788495704684"><ele>67.0</ele><time>2026-05-01T12:10:07.977Z</time></trkpt><trkpt lat="43.9927399002603" lon="12.50857002767536"><ele>67.0</ele><time>2026-05-01T12:10:08.977Z</time></trkpt><trkpt lat="43.99269271719827" lon="12.50836196372104"><ele>64.66666666666666</ele><time>2026-05-01T12:10:09.977Z</time></trkpt><trkpt lat="43.99264063702569" lon="12.508159403524733"><ele>62.33333333333333</ele><time>2026-05-01T12:10:10.977Z</time></trkpt><trkpt lat="43.992557414214154" lon="12.507966264203214"><ele>60.0</ele><time>2026-05-01T12:10:11.977Z</time></trkpt><trkpt lat="43.99248509756913" lon="12.507768573978717"><ele>60.0</ele><time>2026-05-01T12:10:12.977Z</time></trkpt><trkpt lat="43.99242807883729" lon="12.507567557356317"><ele>60.0</ele><time>2026-05-01T12:10:13.977Z</time></trkpt><trkpt lat="43.992334021433564" lon="12.507381696837175"><ele>60.0</ele><time>2026-05-01T12:10:14.977Z</time></trkpt><trkpt lat="43.99226399952443" lon="12.50718314631316"><ele>58.66666666666667</ele><time>2026-05-01T12:10:15.977Z</time></trkpt><trkpt lat="43.9921972512137" lon="12.50698221147682"><ele>57.333333333333336</ele><time>2026-05-01T12:10:16.977Z</time></trkpt><trkpt lat="43.99212732355905" lon="12.506778420328853"><ele>56.0</ele><time>2026-05-01T12:10:17.977Z</time></trkpt><trkpt lat="43.99206019114634" lon="12.506582930734535"><ele>56.0</ele><time>2026-05-01T12:10:18.977Z</time></trkpt><trkpt lat="43.99199927584956" lon="12.506393066014637"><ele>56.0</ele><time>2026-05-01T12:10:19.977Z</time></trkpt><trkpt lat="43.991929124312854" lon="12.506202980104657"><ele>56.0</ele><time>2026-05-01T12:10:20.977Z</time></trkpt><trkpt lat="43.99186259544441" lon="12.506011265196504"><ele>55.66666666666667</ele><time>2026-05-01T12:10:21.977Z</time></trkpt><trkpt lat="43.99179284762422" lon="12.505819294095039"><ele>55.33333333333333</ele><time>2026-05-01T12:10:22.977Z</time></trkpt><trkpt lat="43.99172470721683" lon="12.50562703495772"><ele>55.0</ele><time>2026-05-01T12:10:23.977Z</time></trkpt><trkpt lat="43.99165194717788" lon="12.505434425495947"><ele>54.666666666666664</ele><time>2026-05-01T12:10:24.977Z</time></trkpt><trkpt lat="43.99158256576205" lon="12.505245926980429"><ele>54.33333333333333</ele><time>2026-05-01T12:10:25.977Z</time></trkpt><trkpt lat="43.99151507106755" lon="12.505053866538681"><ele>54.0</ele><time>2026-05-01T12:10:26.977Z</time></trkpt><trkpt lat="43.99144915903606" lon="12.50486237878896"><ele>54.0</ele><time>2026-05-01T12:10:27.977Z</time></trkpt><trkpt lat="43.99137568131892" lon="12.504676600385832"><ele>54.0</ele><time>2026-05-01T12:10:28.977Z</time></trkpt><trkpt lat="43.99130318396264" lon="12.504496554572532"><ele>54.0</ele><time>2026-05-01T12:10:29.977Z</time></trkpt><trkpt lat="43.99122514664714" lon="12.504324724322778"><ele>54.0</ele><time>2026-05-01T12:10:30.977Z</time></trkpt><trkpt lat="43.99114688243937" lon="12.504155651946748"><ele>54.0</ele><time>2026-05-01T12:10:31.977Z</time></trkpt><trkpt lat="43.991069042614065" lon="12.503989412135047"><ele>54.0</ele><time>2026-05-01T12:10:32.977Z</time></trkpt><trkpt lat="43.99098964906697" lon="12.503826224842387"><ele>54.0</ele><time>2026-05-01T12:10:33.977Z</time></trkpt><trkpt lat="43.990911286514276" lon="12.50366061378564"><ele>54.0</ele><time>2026-05-01T12:10:34.977Z</time></trkpt><trkpt lat="43.990825448102434" lon="12.503488207782869"><ele>54.66666666666667</ele><time>2026-05-01T12:10:35.977Z</time></trkpt><trkpt lat="43.99072767536864" lon="12.503312609504457"><ele>55.333333333333336</ele><time>2026-05-01T12:10:36.977Z</time></trkpt><trkpt lat="43.990627265024536" lon="12.503135677178541"><ele>56.0</ele><time>2026-05-01T12:10:37.977Z</time></trkpt><trkpt lat="43.99051631281733" lon="12.502962700904797"><ele>55.66666666666667</ele><time>2026-05-01T12:10:38.977Z</time></trkpt><trkpt lat="43.99040296696008" lon="12.50278911777627"><ele>55.33333333333333</ele><time>2026-05-01T12:10:39.977Z</time></trkpt><trkpt lat="43.99029709700017" lon="12.50260675708778"><ele>55.0</ele><time>2026-05-01T12:10:40.977Z</time></trkpt><trkpt lat="43.990183804112014" lon="12.502422009509594"><ele>55.0</ele><time>2026-05-01T12:10:41.977Z</time></trkpt><trkpt lat="43.990069622298954" lon="12.502241889454638"><ele>55.0</ele><time>2026-05-01T12:10:42.977Z</time></trkpt><trkpt lat="43.989957765461845" lon="12.502064984937888"><ele>55.0</ele><time>2026-05-01T12:10:43.977Z</time></trkpt><trkpt lat="43.98984293947319" lon="12.501886098068383"><ele>56.666666666666664</ele><time>2026-05-01T12:10:44.977Z</time></trkpt><trkpt lat="43.98973467042116" lon="12.50170717195493"><ele>58.33333333333333</ele><time>2026-05-01T12:10:45.977Z</time></trkpt><trkpt lat="43.98963184016294" lon="12.501527837056088"><ele>60.0</ele><time>2026-05-01T12:10:46.977Z</time></trkpt><trkpt lat="43.989531984996695" lon="12.501341881514476"><ele>60.0</ele><time>2026-05-01T12:10:47.977Z</time></trkpt><trkpt lat="43.989423406434575" lon="12.501170277390072"><ele>60.0</ele><time>2026-05-01T12:10:48.977Z</time></trkpt><trkpt lat="43.98934055343098" lon="12.500972167059052"><ele>60.0</ele><time>2026-05-01T12:10:49.977Z</time></trkpt><trkpt lat="43.989246652093875" lon="12.500781151134328"><ele>61.0</ele><time>2026-05-01T12:10:50.977Z</time></trkpt><trkpt lat="43.989160820308804" lon="12.500581320004065"><ele>62.0</ele><time>2026-05-01T12:10:51.977Z</time></trkpt><trkpt lat="43.98908119364979" lon="12.500374691959559"><ele>63.0</ele><time>2026-05-01T12:10:52.977Z</time></trkpt><trkpt lat="43.98900533945491" lon="12.500168110852021"><ele>63.0</ele><time>2026-05-01T12:10:53.977Z</time></trkpt><trkpt lat="43.9889334484909" lon="12.499958480315641"><ele>63.0</ele><time>2026-05-01T12:10:54.977Z</time></trkpt><trkpt lat="43.988860876781985" lon="12.499744734165427"><ele>63.0</ele><time>2026-05-01T12:10:55.977Z</time></trkpt><trkpt lat="43.98878965577596" lon="12.499531282993843"><ele>63.0</ele><time>2026-05-01T12:10:56.977Z</time></trkpt><trkpt lat="43.988717864293534" lon="12.499319435526308"><ele>63.0</ele><time>2026-05-01T12:10:57.977Z</time></trkpt><trkpt lat="43.98864614889478" lon="12.499102951444963"><ele>63.0</ele><time>2026-05-01T12:10:58.977Z</time></trkpt><trkpt lat="43.98857528116332" lon="12.49888782246882"><ele>62.33333333333333</ele><time>2026-05-01T12:10:59.977Z</time></trkpt><trkpt lat="43.98850599391136" lon="12.49868051818962"><ele>61.666666666666664</ele><time>2026-05-01T12:11:00.977Z</time></trkpt><trkpt lat="43.98843846136658" lon="12.498465069015282"><ele>61.0</ele><time>2026-05-01T12:11:01.977Z</time></trkpt><trkpt lat="43.98836582316603" lon="12.498246670189063"><ele>62.33333333333333</ele><time>2026-05-01T12:11:02.977Z</time></trkpt><trkpt lat="43.98829662625896" lon="12.498034427251303"><ele>63.66666666666667</ele><time>2026-05-01T12:11:03.977Z</time></trkpt><trkpt lat="43.98823230938001" lon="12.497830957195784"><ele>65.0</ele><time>2026-05-01T12:11:04.977Z</time></trkpt><trkpt lat="43.9881625810222" lon="12.497632556782053"><ele>65.0</ele><time>2026-05-01T12:11:05.975Z</time></trkpt><trkpt lat="43.988088304887874" lon="12.497440518328135"><ele>65.0</ele><time>2026-05-01T12:11:06.975Z</time></trkpt><trkpt lat="43.988007040945654" lon="12.497253316369363"><ele>65.0</ele><time>2026-05-01T12:11:07.975Z</time></trkpt><trkpt lat="43.98791195373298" lon="12.49708198511646"><ele>65.0</ele><time>2026-05-01T12:11:08.974Z</time></trkpt><trkpt lat="43.987804738163334" lon="12.496915388663531"><ele>65.0</ele><time>2026-05-01T12:11:09.974Z</time></trkpt><trkpt lat="43.98769377027" lon="12.496755665411976"><ele>65.0</ele><time>2026-05-01T12:11:10.974Z</time></trkpt><trkpt lat="43.98756290195298" lon="12.496626077121283"><ele>66.0</ele><time>2026-05-01T12:11:11.975Z</time></trkpt><trkpt lat="43.98744970155028" lon="12.496463201805938"><ele>67.0</ele><time>2026-05-01T12:11:12.975Z</time></trkpt><trkpt lat="43.98732446678217" lon="12.496324544032904"><ele>68.0</ele><time>2026-05-01T12:11:13.975Z</time></trkpt><trkpt lat="43.987200702715974" lon="12.496184386811553"><ele>68.66666666666667</ele><time>2026-05-01T12:11:14.974Z</time></trkpt><trkpt lat="43.987079110526345" lon="12.496045636465778"><ele>69.33333333333333</ele><time>2026-05-01T12:11:15.974Z</time></trkpt><trkpt lat="43.98695602509495" lon="12.495898974336598"><ele>70.0</ele><time>2026-05-01T12:11:16.974Z</time></trkpt><trkpt lat="43.98683330275786" lon="12.495754115862352"><ele>70.0</ele><time>2026-05-01T12:11:17.975Z</time></trkpt><trkpt lat="43.98670853776787" lon="12.49561055105322"><ele>70.0</ele><time>2026-05-01T12:11:18.975Z</time></trkpt><trkpt lat="43.986578045954374" lon="12.49545623743749"><ele>70.0</ele><time>2026-05-01T12:11:19.975Z</time></trkpt><trkpt lat="43.986445663391095" lon="12.495301703262014"><ele>70.33333333333333</ele><time>2026-05-01T12:11:20.975Z</time></trkpt><trkpt lat="43.98631517832097" lon="12.495149637931311"><ele>70.66666666666667</ele><time>2026-05-01T12:11:21.975Z</time></trkpt><trkpt lat="43.986186691451806" lon="12.49499417023447"><ele>71.0</ele><time>2026-05-01T12:11:22.975Z</time></trkpt><trkpt lat="43.986056898329" lon="12.494838470036871"><ele>71.0</ele><time>2026-05-01T12:11:23.975Z</time></trkpt><trkpt lat="43.985931029880774" lon="12.494684657772765"><ele>71.0</ele><time>2026-05-01T12:11:24.975Z</time></trkpt><trkpt lat="43.985804864506086" lon="12.494534458791188"><ele>71.0</ele><time>2026-05-01T12:11:25.975Z</time></trkpt><trkpt lat="43.98567704848837" lon="12.494380574510975"><ele>72.33333333333334</ele><time>2026-05-01T12:11:26.975Z</time></trkpt><trkpt lat="43.98555377170264" lon="12.494229790470902"><ele>73.66666666666667</ele><time>2026-05-01T12:11:27.975Z</time></trkpt><trkpt lat="43.98541670557609" lon="12.494100207898587"><ele>75.0</ele><time>2026-05-01T12:11:28.975Z</time></trkpt><trkpt lat="43.985291363336316" lon="12.493948621713972"><ele>75.0</ele><time>2026-05-01T12:11:29.975Z</time></trkpt><trkpt lat="43.9851671758295" lon="12.493800399770855"><ele>75.0</ele><time>2026-05-01T12:11:30.975Z</time></trkpt><trkpt lat="43.985039761068045" lon="12.4936569810185"><ele>75.0</ele><time>2026-05-01T12:11:31.975Z</time></trkpt><trkpt lat="43.98491878854608" lon="12.493508870178351"><ele>75.66666666666667</ele><time>2026-05-01T12:11:32.975Z</time></trkpt><trkpt lat="43.984793082235754" lon="12.49336304333472"><ele>76.33333333333334</ele><time>2026-05-01T12:11:33.975Z</time></trkpt><trkpt lat="43.984671098259575" lon="12.493219373850145"><ele>77.0</ele><time>2026-05-01T12:11:34.975Z</time></trkpt><trkpt lat="43.98454808685428" lon="12.493070179497881"><ele>77.0</ele><time>2026-05-01T12:11:35.975Z</time></trkpt><trkpt lat="43.98441929751974" lon="12.49292286540207"><ele>77.0</ele><time>2026-05-01T12:11:36.975Z</time></trkpt><trkpt lat="43.98429507486203" lon="12.492768287805731"><ele>77.0</ele><time>2026-05-01T12:11:37.975Z</time></trkpt><trkpt lat="43.9841665756475" lon="12.492623224831314"><ele>77.66666666666667</ele><time>2026-05-01T12:11:38.975Z</time></trkpt><trkpt lat="43.98404544457157" lon="12.492469991927438"><ele>78.33333333333333</ele><time>2026-05-01T12:11:39.975Z</time></trkpt><trkpt lat="43.983921044981145" lon="12.492316105193805"><ele>79.0</ele><time>2026-05-01T12:11:40.975Z</time></trkpt><trkpt lat="43.983797591307955" lon="12.492168789299777"><ele>80.66666666666666</ele><time>2026-05-01T12:11:41.975Z</time></trkpt><trkpt lat="43.98367805353547" lon="12.49201841058338"><ele>82.33333333333333</ele><time>2026-05-01T12:11:42.975Z</time></trkpt><trkpt lat="43.983546040881684" lon="12.49189374386027"><ele>84.0</ele><time>2026-05-01T12:11:43.975Z</time></trkpt><trkpt lat="43.98343764727754" lon="12.491759572961"><ele>83.25</ele><time>2026-05-01T12:11:44.975Z</time></trkpt><trkpt lat="43.983332970358674" lon="12.491626537656298"><ele>82.5</ele><time>2026-05-01T12:11:45.975Z</time></trkpt><trkpt lat="43.98323234911727" lon="12.491508117745342"><ele>81.75</ele><time>2026-05-01T12:11:46.975Z</time></trkpt><trkpt lat="43.98313352693109" lon="12.491393662221029"><ele>81.0</ele><time>2026-05-01T12:11:47.975Z</time></trkpt><trkpt lat="43.98304427458453" lon="12.491287122401161"><ele>81.4</ele><time>2026-05-01T12:11:48.975Z</time></trkpt><trkpt lat="43.982965008357546" lon="12.491182199744987"><ele>81.8</ele><time>2026-05-01T12:11:49.975Z</time></trkpt><trkpt lat="43.98298153575425" lon="12.490990232986544"><ele>82.2</ele><time>2026-05-01T12:11:51.975Z</time></trkpt><trkpt lat="43.982935977595126" lon="12.49088688545537"><ele>82.60000000000001</ele><time>2026-05-01T12:11:52.975Z</time></trkpt><trkpt lat="43.98291774060696" lon="12.490795235671115"><ele>83.0</ele><time>2026-05-01T12:11:53.975Z</time></trkpt><trkpt lat="43.98287455031665" lon="12.490648678613901"><ele>83.0</ele><time>2026-05-01T12:11:55.975Z</time></trkpt><trkpt lat="43.98276869021085" lon="12.490577468717717"><ele>83.0</ele><time>2026-05-01T12:11:57.975Z</time></trkpt><trkpt lat="43.98269173817706" lon="12.490535927654008"><ele>83.0</ele><time>2026-05-01T12:11:58.975Z</time></trkpt><trkpt lat="43.982629323774084" lon="12.490506090390836"><ele>83.0</ele><time>2026-05-01T12:12:00.975Z</time></trkpt><trkpt lat="43.98252883281681" lon="12.490550025298798"><ele>83.0</ele><time>2026-05-01T12:12:01.975Z</time></trkpt><trkpt lat="43.98268406203117" lon="12.490688898314295"><ele>83.0</ele><time>2026-05-01T12:12:06.975Z</time></trkpt><trkpt lat="43.98274453113701" lon="12.490755536113625"><ele>83.0</ele><time>2026-05-01T12:12:09.975Z</time></trkpt><trkpt lat="43.98281148797212" lon="12.490814624645548"><ele>83.0</ele><time>2026-05-01T12:12:13.974Z</time></trkpt><trkpt lat="43.98287116628537" lon="12.49086040672184"><ele>83.0</ele><time>2026-05-01T12:12:17.974Z</time></trkpt><trkpt lat="43.98293514348418" lon="12.490906131823891"><ele>83.0</ele><time>2026-05-01T12:12:21.974Z</time></trkpt><trkpt lat="43.98302686000185" lon="12.490971681289944"><ele>83.0</ele><time>2026-05-01T12:12:30.974Z</time></trkpt><trkpt lat="43.98297063300063" lon="12.490931496351331"><ele>83.0</ele><time>2026-05-01T12:12:39.974Z</time></trkpt><trkpt lat="43.9829136916659" lon="12.490890800003"><ele>83.0</ele><time>2026-05-01T12:12:56.974Z</time></trkpt><trkpt lat="43.98304555491964" lon="12.490990986291154"><ele>83.0</ele><time>2026-05-01T12:13:35.972Z</time></trkpt><trkpt lat="43.98298720335544" lon="12.490943339060166"><ele>83.0</ele><time>2026-05-01T12:15:12.972Z</time></trkpt><trkpt lat="43.98291502952146" lon="12.490891756242402"><ele>83.0</ele><time>2026-05-01T12:15:14.972Z</time></trkpt><trkpt lat="43.982811916343564" lon="12.490814708852097"><ele>83.0</ele><time>2026-05-01T12:15:16.972Z</time></trkpt><trkpt lat="43.98275410940536" lon="12.490764979669775"><ele>83.0</ele><time>2026-05-01T12:15:17.971Z</time></trkpt><trkpt lat="43.982655088899584" lon="12.490670283742558"><ele>83.0</ele><time>2026-05-01T12:15:19.972Z</time></trkpt><trkpt lat="43.98259974236226" lon="12.490599855427067"><ele>83.0</ele><time>2026-05-01T12:15:24.972Z</time></trkpt><trkpt lat="43.98251387457753" lon="12.490580060274247"><ele>83.0</ele><time>2026-05-01T12:15:26.971Z</time></trkpt><trkpt lat="43.98240053773582" lon="12.49050761627011"><ele>84.0</ele><time>2026-05-01T12:15:28.971Z</time></trkpt><trkpt lat="43.98227640838639" lon="12.490418700062213"><ele>85.0</ele><time>2026-05-01T12:15:30.971Z</time></trkpt><trkpt lat="43.98221807933507" lon="12.490372218859246"><ele>86.0</ele><time>2026-05-01T12:15:31.971Z</time></trkpt><trkpt lat="43.98215247497404" lon="12.490331947622659"><ele>87.0</ele><time>2026-05-01T12:15:32.971Z</time></trkpt><trkpt lat="43.98208906710121" lon="12.490263725031909"><ele>88.0</ele><time>2026-05-01T12:15:33.971Z</time></trkpt><trkpt lat="43.98202210534043" lon="12.490213471554176"><ele>89.0</ele><time>2026-05-01T12:15:34.971Z</time></trkpt><trkpt lat="43.981957188020445" lon="12.490167460882745"><ele>89.0</ele><time>2026-05-01T12:15:35.971Z</time></trkpt><trkpt lat="43.981888402210714" lon="12.490119808851519"><ele>89.0</ele><time>2026-05-01T12:15:36.971Z</time></trkpt><trkpt lat="43.98174764927981" lon="12.490081186921161"><ele>89.0</ele><time>2026-05-01T12:15:37.971Z</time></trkpt><trkpt lat="43.98167314492274" lon="12.490023619911572"><ele>89.0</ele><time>2026-05-01T12:15:38.971Z</time></trkpt><trkpt lat="43.98158796192005" lon="12.489949142576124"><ele>89.0</ele><time>2026-05-01T12:15:39.971Z</time></trkpt><trkpt lat="43.98149926634374" lon="12.489880972434554"><ele>89.0</ele><time>2026-05-01T12:15:40.971Z</time></trkpt><trkpt lat="43.98141813753052" lon="12.48982003946043"><ele>89.0</ele><time>2026-05-01T12:15:41.971Z</time></trkpt><trkpt lat="43.9813303139242" lon="12.489790115250022"><ele>89.0</ele><time>2026-05-01T12:15:42.971Z</time></trkpt><trkpt lat="43.981261216475794" lon="12.489734833366507"><ele>89.0</ele><time>2026-05-01T12:15:43.971Z</time></trkpt><trkpt lat="43.98119657879147" lon="12.489683119398787"><ele>89.0</ele><time>2026-05-01T12:15:44.971Z</time></trkpt><trkpt lat="43.98113627724522" lon="12.489634874729946"><ele>89.0</ele><time>2026-05-01T12:15:45.971Z</time></trkpt><trkpt lat="43.981049647907135" lon="12.48956605123931"><ele>89.0</ele><time>2026-05-01T12:15:47.971Z</time></trkpt><trkpt lat="43.98105221651961" lon="12.489450530524543"><ele>89.0</ele><time>2026-05-01T12:15:49.971Z</time></trkpt><trkpt lat="43.98111130222917" lon="12.4893327921361"><ele>89.0</ele><time>2026-05-01T12:15:51.971Z</time></trkpt><trkpt lat="43.98115551698202" lon="12.489246071624764"><ele>89.0</ele><time>2026-05-01T12:15:52.971Z</time></trkpt><trkpt lat="43.98120408481037" lon="12.489150190888921"><ele>89.0</ele><time>2026-05-01T12:15:53.971Z</time></trkpt><trkpt lat="43.98125188957354" lon="12.48904593349011"><ele>89.0</ele><time>2026-05-01T12:15:54.971Z</time></trkpt><trkpt lat="43.98130462302869" lon="12.48893670362038"><ele>89.0</ele><time>2026-05-01T12:15:55.971Z</time></trkpt><trkpt lat="43.98135241009899" lon="12.488839428235213"><ele>89.0</ele><time>2026-05-01T12:15:56.971Z</time></trkpt><trkpt lat="43.9813991501944" lon="12.488747412346976"><ele>89.0</ele><time>2026-05-01T12:15:57.971Z</time></trkpt><trkpt lat="43.981449515217875" lon="12.48865404381998"><ele>89.0</ele><time>2026-05-01T12:15:58.971Z</time></trkpt><trkpt lat="43.98149438675921" lon="12.488562395948753"><ele>89.0</ele><time>2026-05-01T12:15:59.971Z</time></trkpt><trkpt lat="43.98153528322893" lon="12.488461088283275"><ele>89.0</ele><time>2026-05-01T12:16:00.971Z</time></trkpt><trkpt lat="43.98155745340813" lon="12.488351335481845"><ele>89.33333333333334</ele><time>2026-05-01T12:16:01.971Z</time></trkpt><trkpt lat="43.98155186487261" lon="12.488233710141934"><ele>89.66666666666667</ele><time>2026-05-01T12:16:02.971Z</time></trkpt><trkpt lat="43.981532832862584" lon="12.488123082791992"><ele>90.0</ele><time>2026-05-01T12:16:03.971Z</time></trkpt><trkpt lat="43.98149161204797" lon="12.488017805561885"><ele>90.33333333333333</ele><time>2026-05-01T12:16:04.971Z</time></trkpt><trkpt lat="43.98144925961946" lon="12.487906253197295"><ele>90.66666666666666</ele><time>2026-05-01T12:16:05.971Z</time></trkpt><trkpt lat="43.98139327609803" lon="12.487810556545883"><ele>91.0</ele><time>2026-05-01T12:16:06.971Z</time></trkpt><trkpt lat="43.98132133909618" lon="12.487685873506083"><ele>91.0</ele><time>2026-05-01T12:16:07.971Z</time></trkpt><trkpt lat="43.981241874526624" lon="12.487540905997733"><ele>91.0</ele><time>2026-05-01T12:16:08.971Z</time></trkpt><trkpt lat="43.98116302153905" lon="12.48739467347173"><ele>91.0</ele><time>2026-05-01T12:16:09.971Z</time></trkpt><trkpt lat="43.98108143854084" lon="12.487250042111883"><ele>91.0</ele><time>2026-05-01T12:16:10.971Z</time></trkpt><trkpt lat="43.9810021202666" lon="12.48710888288918"><ele>90.75</ele><time>2026-05-01T12:16:11.971Z</time></trkpt><trkpt lat="43.98091935552771" lon="12.486961587755319"><ele>90.5</ele><time>2026-05-01T12:16:12.971Z</time></trkpt><trkpt lat="43.980838432957675" lon="12.486817467784933"><ele>90.25</ele><time>2026-05-01T12:16:13.971Z</time></trkpt><trkpt lat="43.9807592730535" lon="12.486676508940661"><ele>90.0</ele><time>2026-05-01T12:16:14.971Z</time></trkpt><trkpt lat="43.98068166590274" lon="12.486537487786329"><ele>93.25</ele><time>2026-05-01T12:16:15.971Z</time></trkpt><trkpt lat="43.98060403920985" lon="12.486396192599207"><ele>96.5</ele><time>2026-05-01T12:16:16.971Z</time></trkpt><trkpt lat="43.9805285892632" lon="12.486255611762454"><ele>99.75</ele><time>2026-05-01T12:16:17.971Z</time></trkpt><trkpt lat="43.98046980326896" lon="12.48610255156273"><ele>103.0</ele><time>2026-05-01T12:16:18.971Z</time></trkpt><trkpt lat="43.980408012493754" lon="12.485959320110563"><ele>103.0</ele><time>2026-05-01T12:16:19.971Z</time></trkpt><trkpt lat="43.98033575380257" lon="12.48581265013075"><ele>103.0</ele><time>2026-05-01T12:16:20.971Z</time></trkpt><trkpt lat="43.98029107425116" lon="12.485653773579344"><ele>103.0</ele><time>2026-05-01T12:16:21.971Z</time></trkpt><trkpt lat="43.98024824416452" lon="12.485494823910924"><ele>103.0</ele><time>2026-05-01T12:16:22.971Z</time></trkpt><trkpt lat="43.98020447765518" lon="12.48532455517854"><ele>101.5</ele><time>2026-05-01T12:16:23.971Z</time></trkpt><trkpt lat="43.9801515773553" lon="12.485150413920119"><ele>100.0</ele><time>2026-05-01T12:16:24.971Z</time></trkpt><trkpt lat="43.980100814335586" lon="12.484972981657368"><ele>98.5</ele><time>2026-05-01T12:16:25.971Z</time></trkpt><trkpt lat="43.98003967200638" lon="12.484805473019316"><ele>97.0</ele><time>2026-05-01T12:16:26.971Z</time></trkpt><trkpt lat="43.979966086095956" lon="12.484654937013635"><ele>98.75</ele><time>2026-05-01T12:16:27.971Z</time></trkpt><trkpt lat="43.97988208568068" lon="12.484513854476972"><ele>100.5</ele><time>2026-05-01T12:16:28.971Z</time></trkpt><trkpt lat="43.97978995744318" lon="12.48438138334802"><ele>102.25</ele><time>2026-05-01T12:16:29.971Z</time></trkpt><trkpt lat="43.97969814792384" lon="12.48424771006485"><ele>104.0</ele><time>2026-05-01T12:16:30.971Z</time></trkpt><trkpt lat="43.979609023795945" lon="12.484112772334388"><ele>104.0</ele><time>2026-05-01T12:16:31.971Z</time></trkpt><trkpt lat="43.979521565628296" lon="12.483974974189675"><ele>104.0</ele><time>2026-05-01T12:16:32.971Z</time></trkpt><trkpt lat="43.979431255544085" lon="12.48383722441447"><ele>104.0</ele><time>2026-05-01T12:16:33.971Z</time></trkpt><trkpt lat="43.97933970084775" lon="12.483694406642497"><ele>104.0</ele><time>2026-05-01T12:16:34.971Z</time></trkpt><trkpt lat="43.97924800217952" lon="12.483552011523697"><ele>106.5</ele><time>2026-05-01T12:16:35.971Z</time></trkpt><trkpt lat="43.979153642821885" lon="12.483401339136964"><ele>109.0</ele><time>2026-05-01T12:16:36.971Z</time></trkpt><trkpt lat="43.97905544353121" lon="12.483238520182336"><ele>111.5</ele><time>2026-05-01T12:16:37.971Z</time></trkpt><trkpt lat="43.97896462174753" lon="12.483081668685163"><ele>114.0</ele><time>2026-05-01T12:16:38.971Z</time></trkpt><trkpt lat="43.978894440565306" lon="12.482917902115117"><ele>115.0</ele><time>2026-05-01T12:16:39.971Z</time></trkpt><trkpt lat="43.978863278915306" lon="12.482734429095304"><ele>116.0</ele><time>2026-05-01T12:16:40.971Z</time></trkpt><trkpt lat="43.97882498074053" lon="12.482546750617614"><ele>117.0</ele><time>2026-05-01T12:16:41.971Z</time></trkpt><trkpt lat="43.97877461735925" lon="12.482357872803963"><ele>118.0</ele><time>2026-05-01T12:16:42.971Z</time></trkpt><trkpt lat="43.9787443353655" lon="12.482179515622958"><ele>118.80000000000001</ele><time>2026-05-01T12:16:43.971Z</time></trkpt><trkpt lat="43.9787187673386" lon="12.482041518777654"><ele>119.60000000000001</ele><time>2026-05-01T12:16:44.971Z</time></trkpt><trkpt lat="43.97869452650252" lon="12.48191733899582"><ele>120.39999999999999</ele><time>2026-05-01T12:16:45.971Z</time></trkpt><trkpt lat="43.978710178849965" lon="12.481778082385535"><ele>121.19999999999999</ele><time>2026-05-01T12:16:46.971Z</time></trkpt><trkpt lat="43.978687888348105" lon="12.481639635779588"><ele>122.0</ele><time>2026-05-01T12:16:47.971Z</time></trkpt><trkpt lat="43.97863976471169" lon="12.481510248085002"><ele>122.0</ele><time>2026-05-01T12:16:48.971Z</time></trkpt><trkpt lat="43.97857230086066" lon="12.481342091450411"><ele>122.0</ele><time>2026-05-01T12:16:49.971Z</time></trkpt><trkpt lat="43.97843929003354" lon="12.481181793662952"><ele>122.0</ele><time>2026-05-01T12:16:50.971Z</time></trkpt><trkpt lat="43.97837121256747" lon="12.480978908071792"><ele>123.5</ele><time>2026-05-01T12:16:51.971Z</time></trkpt><trkpt lat="43.97832170145764" lon="12.480777872972602"><ele>125.0</ele><time>2026-05-01T12:16:52.971Z</time></trkpt><trkpt lat="43.97828773371089" lon="12.480583027139073"><ele>126.5</ele><time>2026-05-01T12:16:53.971Z</time></trkpt><trkpt lat="43.97825897707012" lon="12.480392586467556"><ele>128.0</ele><time>2026-05-01T12:16:54.971Z</time></trkpt><trkpt lat="43.978234519541545" lon="12.480213604316738"><ele>128.0</ele><time>2026-05-01T12:16:55.971Z</time></trkpt><trkpt lat="43.978210942131156" lon="12.480033622803306"><ele>128.0</ele><time>2026-05-01T12:16:56.971Z</time></trkpt><trkpt lat="43.978186251836746" lon="12.479851420392949"><ele>128.0</ele><time>2026-05-01T12:16:57.971Z</time></trkpt><trkpt lat="43.9781613438733" lon="12.479673051989378"><ele>128.0</ele><time>2026-05-01T12:16:58.971Z</time></trkpt><trkpt lat="43.97813773633833" lon="12.479495036098536"><ele>129.25</ele><time>2026-05-01T12:16:59.971Z</time></trkpt><trkpt lat="43.97811641024142" lon="12.479315237871822"><ele>130.5</ele><time>2026-05-01T12:17:00.971Z</time></trkpt><trkpt lat="43.97809153503351" lon="12.479138766999933"><ele>131.75</ele><time>2026-05-01T12:17:01.971Z</time></trkpt><trkpt lat="43.97806895113653" lon="12.478965224136637"><ele>133.0</ele><time>2026-05-01T12:17:02.971Z</time></trkpt><trkpt lat="43.978042499191226" lon="12.478797340730637"><ele>134.5</ele><time>2026-05-01T12:17:03.971Z</time></trkpt><trkpt lat="43.978024695826484" lon="12.478626473580098"><ele>136.0</ele><time>2026-05-01T12:17:04.971Z</time></trkpt><trkpt lat="43.97800201842266" lon="12.478457377829942"><ele>137.5</ele><time>2026-05-01T12:17:05.971Z</time></trkpt><trkpt lat="43.977973682655744" lon="12.478296424465192"><ele>139.0</ele><time>2026-05-01T12:17:06.971Z</time></trkpt><trkpt lat="43.977949506363935" lon="12.478140724915786"><ele>139.0</ele><time>2026-05-01T12:17:07.971Z</time></trkpt><trkpt lat="43.97792965158848" lon="12.478005423539376"><ele>139.0</ele><time>2026-05-01T12:17:08.971Z</time></trkpt><trkpt lat="43.977911494204506" lon="12.477880550958965"><ele>139.0</ele><time>2026-05-01T12:17:09.971Z</time></trkpt><trkpt lat="43.977887687285396" lon="12.477764359581085"><ele>139.0</ele><time>2026-05-01T12:17:10.971Z</time></trkpt><trkpt lat="43.97785686150999" lon="12.477625791814482"><ele>139.0</ele><time>2026-05-01T12:17:11.971Z</time></trkpt><trkpt lat="43.97781873910098" lon="12.47749141812486"><ele>139.0</ele><time>2026-05-01T12:17:12.971Z</time></trkpt><trkpt lat="43.97776778206387" lon="12.477360732447822"><ele>139.0</ele><time>2026-05-01T12:17:13.971Z</time></trkpt><trkpt lat="43.97776841481304" lon="12.477198292258175"><ele>139.0</ele><time>2026-05-01T12:17:14.971Z</time></trkpt><trkpt lat="43.977757464284906" lon="12.477048578653166"><ele>139.0</ele><time>2026-05-01T12:17:15.971Z</time></trkpt><trkpt lat="43.97773703084105" lon="12.476880148137036"><ele>139.5</ele><time>2026-05-01T12:17:16.971Z</time></trkpt><trkpt lat="43.9777094024886" lon="12.47671148089349"><ele>140.0</ele><time>2026-05-01T12:17:17.971Z</time></trkpt><trkpt lat="43.97767907175813" lon="12.476529220154921"><ele>140.5</ele><time>2026-05-01T12:17:18.971Z</time></trkpt><trkpt lat="43.97765069539781" lon="12.476332326294948"><ele>141.0</ele><time>2026-05-01T12:17:19.971Z</time></trkpt><trkpt lat="43.97762250237845" lon="12.476138639583437"><ele>141.5</ele><time>2026-05-01T12:17:20.971Z</time></trkpt><trkpt lat="43.97759088116289" lon="12.475962650827894"><ele>142.0</ele><time>2026-05-01T12:17:21.971Z</time></trkpt><trkpt lat="43.97755362060885" lon="12.47579422948318"><ele>142.5</ele><time>2026-05-01T12:17:22.971Z</time></trkpt><trkpt lat="43.97750754899656" lon="12.47564098596147"><ele>143.0</ele><time>2026-05-01T12:17:23.971Z</time></trkpt><trkpt lat="43.97743259643086" lon="12.475486745906629"><ele>146.25</ele><time>2026-05-01T12:17:24.971Z</time></trkpt><trkpt lat="43.977309819776664" lon="12.4753652758291"><ele>149.5</ele><time>2026-05-01T12:17:25.971Z</time></trkpt><trkpt lat="43.977214323926376" lon="12.475207920259635"><ele>152.75</ele><time>2026-05-01T12:17:26.97Z</time></trkpt><trkpt lat="43.977102126381936" lon="12.475072290422897"><ele>156.0</ele><time>2026-05-01T12:17:27.97Z</time></trkpt><trkpt lat="43.97699524257685" lon="12.474935550951512"><ele>156.0</ele><time>2026-05-01T12:17:28.97Z</time></trkpt><trkpt lat="43.97689262197071" lon="12.474801801544299"><ele>156.0</ele><time>2026-05-01T12:17:29.97Z</time></trkpt><trkpt lat="43.976786799637885" lon="12.474668355325077"><ele>156.0</ele><time>2026-05-01T12:17:30.97Z</time></trkpt><trkpt lat="43.97668003646367" lon="12.474533483724413"><ele>156.0</ele><time>2026-05-01T12:17:31.97Z</time></trkpt><trkpt lat="43.97658630539946" lon="12.474404759195838"><ele>158.4</ele><time>2026-05-01T12:17:32.97Z</time></trkpt><trkpt lat="43.976504658580865" lon="12.474286290512811"><ele>160.8</ele><time>2026-05-01T12:17:33.97Z</time></trkpt><trkpt lat="43.976436720683395" lon="12.474192508868395"><ele>163.20000000000002</ele><time>2026-05-01T12:17:34.97Z</time></trkpt><trkpt lat="43.9763663288014" lon="12.47410020893287"><ele>165.6</ele><time>2026-05-01T12:17:35.97Z</time></trkpt><trkpt lat="43.97629540476971" lon="12.474010896917703"><ele>168.0</ele><time>2026-05-01T12:17:36.971Z</time></trkpt><trkpt lat="43.976225675586434" lon="12.473916815964884"><ele>168.0</ele><time>2026-05-01T12:17:37.971Z</time></trkpt><trkpt lat="43.97615298761198" lon="12.473820981113722"><ele>168.0</ele><time>2026-05-01T12:17:38.971Z</time></trkpt><trkpt lat="43.97607515021992" lon="12.47372039996515"><ele>168.0</ele><time>2026-05-01T12:17:39.971Z</time></trkpt><trkpt lat="43.97599551057602" lon="12.473621701136961"><ele>168.0</ele><time>2026-05-01T12:17:40.971Z</time></trkpt><trkpt lat="43.97591255505575" lon="12.473525095906629"><ele>168.0</ele><time>2026-05-01T12:17:41.971Z</time></trkpt><trkpt lat="43.97582748579288" lon="12.473426407860412"><ele>171.75</ele><time>2026-05-01T12:17:42.971Z</time></trkpt><trkpt lat="43.97574249430677" lon="12.473320384715306"><ele>175.5</ele><time>2026-05-01T12:17:43.971Z</time></trkpt><trkpt lat="43.97565341949822" lon="12.473207590352244"><ele>179.25</ele><time>2026-05-01T12:17:44.971Z</time></trkpt><trkpt lat="43.97554902412968" lon="12.47311362985294"><ele>183.0</ele><time>2026-05-01T12:17:45.971Z</time></trkpt><trkpt lat="43.975451383313505" lon="12.473004520326981"><ele>183.0</ele><time>2026-05-01T12:17:46.971Z</time></trkpt><trkpt lat="43.975358392500006" lon="12.472876288075998"><ele>183.0</ele><time>2026-05-01T12:17:47.971Z</time></trkpt><trkpt lat="43.97524614588128" lon="12.472757986149114"><ele>183.0</ele><time>2026-05-01T12:17:48.971Z</time></trkpt><trkpt lat="43.97510448700028" lon="12.472629103018733"><ele>183.0</ele><time>2026-05-01T12:17:49.971Z</time></trkpt><trkpt lat="43.9749658622514" lon="12.472471720548622"><ele>184.0</ele><time>2026-05-01T12:17:50.971Z</time></trkpt><trkpt lat="43.974835070073375" lon="12.472313514481646"><ele>185.0</ele><time>2026-05-01T12:17:51.971Z</time></trkpt><trkpt lat="43.974731481454256" lon="12.472145874526037"><ele>186.0</ele><time>2026-05-01T12:17:52.971Z</time></trkpt><trkpt lat="43.974645527904364" lon="12.471959699958138"><ele>187.66666666666666</ele><time>2026-05-01T12:17:53.971Z</time></trkpt><trkpt lat="43.97457612549583" lon="12.471751343505613"><ele>189.33333333333331</ele><time>2026-05-01T12:17:54.971Z</time></trkpt><trkpt lat="43.974527863900995" lon="12.471540919787927"><ele>191.0</ele><time>2026-05-01T12:17:55.971Z</time></trkpt><trkpt lat="43.97449253455741" lon="12.471333400874219"><ele>191.25</ele><time>2026-05-01T12:17:56.971Z</time></trkpt><trkpt lat="43.9744779763559" lon="12.471119368250905"><ele>191.5</ele><time>2026-05-01T12:17:57.971Z</time></trkpt><trkpt lat="43.97448497705042" lon="12.47092266775618"><ele>191.75</ele><time>2026-05-01T12:17:58.971Z</time></trkpt><trkpt lat="43.974481808687294" lon="12.470721255041953"><ele>192.0</ele><time>2026-05-01T12:17:59.971Z</time></trkpt><trkpt lat="43.974468654285886" lon="12.470515360845628"><ele>192.0</ele><time>2026-05-01T12:18:00.971Z</time></trkpt><trkpt lat="43.97445431414125" lon="12.470312062247375"><ele>192.0</ele><time>2026-05-01T12:18:01.971Z</time></trkpt><trkpt lat="43.97444395719188" lon="12.470115456136183"><ele>192.0</ele><time>2026-05-01T12:18:02.971Z</time></trkpt><trkpt lat="43.97443241243796" lon="12.469922571286062"><ele>192.0</ele><time>2026-05-01T12:18:03.971Z</time></trkpt><trkpt lat="43.9744216748532" lon="12.469727123401299"><ele>192.75</ele><time>2026-05-01T12:18:04.971Z</time></trkpt><trkpt lat="43.97440917811533" lon="12.469531924375291"><ele>193.5</ele><time>2026-05-01T12:18:05.971Z</time></trkpt><trkpt lat="43.97439852928931" lon="12.469333014253813"><ele>194.25</ele><time>2026-05-01T12:18:06.971Z</time></trkpt><trkpt lat="43.97438976601216" lon="12.469135686876397"><ele>195.0</ele><time>2026-05-01T12:18:07.97Z</time></trkpt><trkpt lat="43.974378203656585" lon="12.468933652638842"><ele>196.66666666666669</ele><time>2026-05-01T12:18:08.97Z</time></trkpt><trkpt lat="43.974364813381584" lon="12.46872724179496"><ele>198.33333333333334</ele><time>2026-05-01T12:18:09.97Z</time></trkpt><trkpt lat="43.97435562229955" lon="12.46851671345274"><ele>200.0</ele><time>2026-05-01T12:18:10.97Z</time></trkpt><trkpt lat="43.974344001723026" lon="12.468294741266414"><ele>200.0</ele><time>2026-05-01T12:18:11.97Z</time></trkpt><trkpt lat="43.97433496096041" lon="12.468082052364007"><ele>200.0</ele><time>2026-05-01T12:18:12.97Z</time></trkpt><trkpt lat="43.97432342719739" lon="12.467870515951908"><ele>200.0</ele><time>2026-05-01T12:18:13.97Z</time></trkpt><trkpt lat="43.974310572431506" lon="12.467657222053724"><ele>201.33333333333334</ele><time>2026-05-01T12:18:14.97Z</time></trkpt><trkpt lat="43.9742995532293" lon="12.467443346589501"><ele>202.66666666666669</ele><time>2026-05-01T12:18:15.97Z</time></trkpt><trkpt lat="43.97428922865049" lon="12.467234379561058"><ele>204.0</ele><time>2026-05-01T12:18:16.97Z</time></trkpt><trkpt lat="43.97427762692828" lon="12.467025160287367"><ele>206.5</ele><time>2026-05-01T12:18:17.97Z</time></trkpt><trkpt lat="43.974270354644055" lon="12.466819058259684"><ele>209.0</ele><time>2026-05-01T12:18:18.97Z</time></trkpt><trkpt lat="43.97426877975818" lon="12.466611294788155"><ele>211.5</ele><time>2026-05-01T12:18:19.97Z</time></trkpt><trkpt lat="43.97425972202036" lon="12.466410565229724"><ele>214.0</ele><time>2026-05-01T12:18:20.97Z</time></trkpt><trkpt lat="43.974253447232606" lon="12.466205516072563"><ele>215.0</ele><time>2026-05-01T12:18:21.97Z</time></trkpt><trkpt lat="43.974242119394304" lon="12.46600660552964"><ele>216.0</ele><time>2026-05-01T12:18:22.97Z</time></trkpt><trkpt lat="43.97423994096627" lon="12.465804878009576"><ele>217.0</ele><time>2026-05-01T12:18:23.97Z</time></trkpt><trkpt lat="43.974212682570155" lon="12.465602952644417"><ele>218.0</ele><time>2026-05-01T12:18:24.97Z</time></trkpt><trkpt lat="43.97420109700525" lon="12.465408519453904"><ele>218.75</ele><time>2026-05-01T12:18:25.97Z</time></trkpt><trkpt lat="43.974190235584594" lon="12.46521545363933"><ele>219.5</ele><time>2026-05-01T12:18:26.97Z</time></trkpt><trkpt lat="43.974181119890105" lon="12.465029822632184"><ele>220.25</ele><time>2026-05-01T12:18:27.97Z</time></trkpt><trkpt lat="43.97418691631768" lon="12.464848810223229"><ele>221.0</ele><time>2026-05-01T12:18:28.97Z</time></trkpt><trkpt lat="43.974180494840695" lon="12.46467429578307"><ele>222.0</ele><time>2026-05-01T12:18:29.97Z</time></trkpt><trkpt lat="43.97419520669827" lon="12.464526359223331"><ele>223.00000000000003</ele><time>2026-05-01T12:18:30.97Z</time></trkpt><trkpt lat="43.97422619232888" lon="12.464404441450583"><ele>224.00000000000003</ele><time>2026-05-01T12:18:31.97Z</time></trkpt><trkpt lat="43.97431157540317" lon="12.464339739955433"><ele>225.0</ele><time>2026-05-01T12:18:32.97Z</time></trkpt><trkpt lat="43.974393289966365" lon="12.46425311760874"><ele>226.0</ele><time>2026-05-01T12:18:33.97Z</time></trkpt><trkpt lat="43.97447881621274" lon="12.46415880094248"><ele>226.0</ele><time>2026-05-01T12:18:34.97Z</time></trkpt><trkpt lat="43.97457533430145" lon="12.464078688068504"><ele>226.00000000000003</ele><time>2026-05-01T12:18:35.97Z</time></trkpt><trkpt lat="43.97466620136597" lon="12.463991756901573"><ele>226.00000000000003</ele><time>2026-05-01T12:18:36.97Z</time></trkpt><trkpt lat="43.97474648681266" lon="12.463910985277002"><ele>226.0</ele><time>2026-05-01T12:18:37.97Z</time></trkpt><trkpt lat="43.974818670991645" lon="12.463830325040648"><ele>226.0</ele><time>2026-05-01T12:18:38.97Z</time></trkpt><trkpt lat="43.974898084638376" lon="12.463743432876052"><ele>226.20000000000002</ele><time>2026-05-01T12:18:39.97Z</time></trkpt><trkpt lat="43.974980053968416" lon="12.46364162343344"><ele>226.40000000000003</ele><time>2026-05-01T12:18:40.97Z</time></trkpt><trkpt lat="43.97506987182149" lon="12.46354201988561"><ele>226.6</ele><time>2026-05-01T12:18:41.97Z</time></trkpt><trkpt lat="43.975153874620844" lon="12.463444378568285"><ele>226.8</ele><time>2026-05-01T12:18:42.97Z</time></trkpt><trkpt lat="43.97523161517252" lon="12.463355391537837"><ele>227.0</ele><time>2026-05-01T12:18:43.97Z</time></trkpt><trkpt lat="43.975300447661596" lon="12.463277402984243"><ele>225.6</ele><time>2026-05-01T12:18:44.97Z</time></trkpt><trkpt lat="43.975351066212525" lon="12.463207670126048"><ele>224.2</ele><time>2026-05-01T12:18:45.97Z</time></trkpt><trkpt lat="43.975399661463385" lon="12.463143544849668"><ele>222.8</ele><time>2026-05-01T12:18:47.97Z</time></trkpt><trkpt lat="43.97529426404384" lon="12.462984788573117"><ele>221.4</ele><time>2026-05-01T12:18:50.97Z</time></trkpt><trkpt lat="43.97522311616189" lon="12.46295369162679"><ele>220.0</ele><time>2026-05-01T12:18:51.97Z</time></trkpt><trkpt lat="43.97512548368327" lon="12.46293570803079"><ele>219.75</ele><time>2026-05-01T12:18:52.97Z</time></trkpt><trkpt lat="43.97501544198579" lon="12.462904740957528"><ele>219.5</ele><time>2026-05-01T12:18:53.97Z</time></trkpt><trkpt lat="43.97487816076509" lon="12.462867729214855"><ele>219.25</ele><time>2026-05-01T12:18:54.97Z</time></trkpt><trkpt lat="43.974736176283336" lon="12.462801171382525"><ele>219.0</ele><time>2026-05-01T12:18:55.97Z</time></trkpt><trkpt lat="43.97460968726903" lon="12.462706056508862"><ele>219.0</ele><time>2026-05-01T12:18:56.97Z</time></trkpt><trkpt lat="43.97448899445303" lon="12.462565308354538"><ele>219.0</ele><time>2026-05-01T12:18:57.97Z</time></trkpt><trkpt lat="43.97438771271768" lon="12.462380004084308"><ele>219.0</ele><time>2026-05-01T12:18:58.97Z</time></trkpt><trkpt lat="43.97429238443786" lon="12.46215467532769"><ele>217.66666666666669</ele><time>2026-05-01T12:18:59.97Z</time></trkpt><trkpt lat="43.974192807227226" lon="12.461907303087951"><ele>216.33333333333334</ele><time>2026-05-01T12:19:00.97Z</time></trkpt><trkpt lat="43.97407914084961" lon="12.461661659109481"><ele>215.0</ele><time>2026-05-01T12:19:01.97Z</time></trkpt><trkpt lat="43.97397498024781" lon="12.46141901090739"><ele>213.66666666666669</ele><time>2026-05-01T12:19:02.97Z</time></trkpt><trkpt lat="43.97387111368446" lon="12.46119479926204"><ele>212.33333333333331</ele><time>2026-05-01T12:19:03.97Z</time></trkpt><trkpt lat="43.97376147449491" lon="12.460964310811535"><ele>211.0</ele><time>2026-05-01T12:19:04.97Z</time></trkpt><trkpt lat="43.97365199235768" lon="12.460715763938605"><ele>211.0</ele><time>2026-05-01T12:19:05.97Z</time></trkpt><trkpt lat="43.9735411833129" lon="12.460466644492602"><ele>211.0</ele><time>2026-05-01T12:19:06.97Z</time></trkpt><trkpt lat="43.97344642756309" lon="12.46023341698115"><ele>211.0</ele><time>2026-05-01T12:19:07.97Z</time></trkpt><trkpt lat="43.97335843078307" lon="12.46000671544223"><ele>211.0</ele><time>2026-05-01T12:19:08.97Z</time></trkpt><trkpt lat="43.9732694944518" lon="12.459774094641134"><ele>211.0</ele><time>2026-05-01T12:19:09.97Z</time></trkpt><trkpt lat="43.97317945182397" lon="12.459548264379707"><ele>211.0</ele><time>2026-05-01T12:19:10.97Z</time></trkpt><trkpt lat="43.9730926231028" lon="12.459313479902168"><ele>211.0</ele><time>2026-05-01T12:19:11.97Z</time></trkpt><trkpt lat="43.97301329379985" lon="12.459073121773383"><ele>211.0</ele><time>2026-05-01T12:19:12.97Z</time></trkpt><trkpt lat="43.97294328232687" lon="12.458839256133999"><ele>211.0</ele><time>2026-05-01T12:19:13.97Z</time></trkpt><trkpt lat="43.97288285414045" lon="12.458599513690185"><ele>211.33333333333331</ele><time>2026-05-01T12:19:14.97Z</time></trkpt><trkpt lat="43.972830256510576" lon="12.458351455529158"><ele>211.66666666666669</ele><time>2026-05-01T12:19:15.97Z</time></trkpt><trkpt lat="43.97277765997116" lon="12.458107312179102"><ele>212.0</ele><time>2026-05-01T12:19:16.97Z</time></trkpt><trkpt lat="43.97272812834851" lon="12.457865849978297"><ele>212.0</ele><time>2026-05-01T12:19:17.97Z</time></trkpt><trkpt lat="43.9726904290896" lon="12.457624954472255"><ele>212.0</ele><time>2026-05-01T12:19:18.97Z</time></trkpt><trkpt lat="43.972674604677444" lon="12.457404992741035"><ele>212.0</ele><time>2026-05-01T12:19:19.97Z</time></trkpt><trkpt lat="43.97269011365965" lon="12.457197765831191"><ele>214.33333333333334</ele><time>2026-05-01T12:19:20.97Z</time></trkpt><trkpt lat="43.97272558384511" lon="12.45698668030138"><ele>216.66666666666669</ele><time>2026-05-01T12:19:21.97Z</time></trkpt><trkpt lat="43.97277244350851" lon="12.456771128392546"><ele>219.0</ele><time>2026-05-01T12:19:22.97Z</time></trkpt><trkpt lat="43.972818555961865" lon="12.456554146581004"><ele>219.0</ele><time>2026-05-01T12:19:23.97Z</time></trkpt><trkpt lat="43.97285683715123" lon="12.45634638614883"><ele>219.0</ele><time>2026-05-01T12:19:24.97Z</time></trkpt><trkpt lat="43.97288075037967" lon="12.456147992015207"><ele>219.0</ele><time>2026-05-01T12:19:25.97Z</time></trkpt><trkpt lat="43.97288186046967" lon="12.455952991299961"><ele>219.0</ele><time>2026-05-01T12:19:26.97Z</time></trkpt><trkpt lat="43.97284287033857" lon="12.455771636790287"><ele>219.5</ele><time>2026-05-01T12:19:27.97Z</time></trkpt><trkpt lat="43.972781121273435" lon="12.455597418660314"><ele>220.0</ele><time>2026-05-01T12:19:28.97Z</time></trkpt><trkpt lat="43.97272230778961" lon="12.455445517201579"><ele>220.5</ele><time>2026-05-01T12:19:29.97Z</time></trkpt><trkpt lat="43.97266761404484" lon="12.455304077580207"><ele>221.0</ele><time>2026-05-01T12:19:30.97Z</time></trkpt><trkpt lat="43.97261329738757" lon="12.455174328382341"><ele>219.5</ele><time>2026-05-01T12:19:31.97Z</time></trkpt><trkpt lat="43.97256570558841" lon="12.455050009497668"><ele>218.0</ele><time>2026-05-01T12:19:32.97Z</time></trkpt><trkpt lat="43.97252430986773" lon="12.454931899690223"><ele>216.5</ele><time>2026-05-01T12:19:33.97Z</time></trkpt><trkpt lat="43.97248914379701" lon="12.454817567747734"><ele>215.0</ele><time>2026-05-01T12:19:34.97Z</time></trkpt><trkpt lat="43.97244335612316" lon="12.454550948080541"><ele>215.50000000000003</ele><time>2026-05-01T12:19:36.97Z</time></trkpt><trkpt lat="43.972439894038935" lon="12.454436796664204"><ele>216.0</ele><time>2026-05-01T12:19:37.97Z</time></trkpt><trkpt lat="43.97245236213033" lon="12.454337745053211"><ele>216.5</ele><time>2026-05-01T12:19:38.969Z</time></trkpt><trkpt lat="43.97247211293291" lon="12.454235963976263"><ele>217.0</ele><time>2026-05-01T12:19:39.969Z</time></trkpt><trkpt lat="43.97250231787692" lon="12.454126202129833"><ele>217.50000000000003</ele><time>2026-05-01T12:19:40.969Z</time></trkpt><trkpt lat="43.9725434978758" lon="12.454020123572535"><ele>218.0</ele><time>2026-05-01T12:19:41.97Z</time></trkpt><trkpt lat="43.972642862572336" lon="12.453805828984263"><ele>219.4</ele><time>2026-05-01T12:19:43.97Z</time></trkpt><trkpt lat="43.97268837991515" lon="12.453683619339891"><ele>220.8</ele><time>2026-05-01T12:19:44.97Z</time></trkpt><trkpt lat="43.972728160090895" lon="12.453553231408195"><ele>222.2</ele><time>2026-05-01T12:19:45.97Z</time></trkpt><trkpt lat="43.972764822686266" lon="12.453420299859017"><ele>223.6</ele><time>2026-05-01T12:19:46.97Z</time></trkpt><trkpt lat="43.97279522298138" lon="12.453280073571028"><ele>225.0</ele><time>2026-05-01T12:19:47.97Z</time></trkpt><trkpt lat="43.972797197789674" lon="12.453138727998246"><ele>225.0</ele><time>2026-05-01T12:19:48.97Z</time></trkpt><trkpt lat="43.97276781528927" lon="12.453002465463925"><ele>225.0</ele><time>2026-05-01T12:19:49.97Z</time></trkpt><trkpt lat="43.972714680663" lon="12.452882870418408"><ele>225.0</ele><time>2026-05-01T12:19:50.97Z</time></trkpt><trkpt lat="43.97265058195938" lon="12.45277767909801"><ele>225.0</ele><time>2026-05-01T12:19:51.97Z</time></trkpt><trkpt lat="43.972557120581605" lon="12.452696323732987"><ele>225.0</ele><time>2026-05-01T12:19:52.97Z</time></trkpt><trkpt lat="43.97245073288747" lon="12.452643458605687"><ele>227.4</ele><time>2026-05-01T12:19:53.97Z</time></trkpt><trkpt lat="43.97235594673236" lon="12.45258843473316"><ele>229.8</ele><time>2026-05-01T12:19:54.97Z</time></trkpt><trkpt lat="43.97225779642596" lon="12.452539690200519"><ele>232.2</ele><time>2026-05-01T12:19:55.97Z</time></trkpt><trkpt lat="43.97215754862759" lon="12.452494407459394"><ele>234.6</ele><time>2026-05-01T12:19:56.97Z</time></trkpt><trkpt lat="43.97206188731246" lon="12.452453580066093"><ele>237.0</ele><time>2026-05-01T12:19:57.97Z</time></trkpt><trkpt lat="43.97198153768322" lon="12.452413445214196"><ele>237.0</ele><time>2026-05-01T12:19:58.97Z</time></trkpt><trkpt lat="43.971915059641994" lon="12.45236643209877"><ele>237.0</ele><time>2026-05-01T12:19:59.97Z</time></trkpt><trkpt lat="43.97186370865605" lon="12.452255722660452"><ele>237.0</ele><time>2026-05-01T12:20:01.97Z</time></trkpt><trkpt lat="43.97193529508357" lon="12.452141259724542"><ele>237.0</ele><time>2026-05-01T12:20:03.97Z</time></trkpt><trkpt lat="43.97205213831368" lon="12.452121909275428"><ele>237.0</ele><time>2026-05-01T12:20:05.97Z</time></trkpt><trkpt lat="43.97213706310733" lon="12.452124817640556"><ele>237.0</ele><time>2026-05-01T12:20:06.97Z</time></trkpt><trkpt lat="43.972225875147494" lon="12.452131930983278"><ele>237.0</ele><time>2026-05-01T12:20:07.97Z</time></trkpt><trkpt lat="43.972322329491014" lon="12.452128277005475"><ele>237.0</ele><time>2026-05-01T12:20:08.97Z</time></trkpt><trkpt lat="43.9724293670427" lon="12.452120276932364"><ele>237.0</ele><time>2026-05-01T12:20:09.97Z</time></trkpt><trkpt lat="43.97253283369372" lon="12.452108719061512"><ele>237.0</ele><time>2026-05-01T12:20:10.97Z</time></trkpt><trkpt lat="43.97263896560831" lon="12.452100212153352"><ele>234.0</ele><time>2026-05-01T12:20:11.97Z</time></trkpt><trkpt lat="43.97274373676334" lon="12.452094008915507"><ele>231.0</ele><time>2026-05-01T12:20:12.97Z</time></trkpt><trkpt lat="43.972844906118226" lon="12.452093381407618"><ele>228.0</ele><time>2026-05-01T12:20:13.969Z</time></trkpt><trkpt lat="43.972946930792546" lon="12.452089369359687"><ele>225.0</ele><time>2026-05-01T12:20:14.969Z</time></trkpt><trkpt lat="43.97304244036143" lon="12.4520843703282"><ele>222.0</ele><time>2026-05-01T12:20:15.969Z</time></trkpt><trkpt lat="43.97313455620874" lon="12.452078125112834"><ele>222.0</ele><time>2026-05-01T12:20:16.969Z</time></trkpt><trkpt lat="43.973238433085086" lon="12.45207456663206"><ele>222.0</ele><time>2026-05-01T12:20:17.969Z</time></trkpt><trkpt lat="43.97334446674985" lon="12.452085595976714"><ele>222.0</ele><time>2026-05-01T12:20:18.969Z</time></trkpt><trkpt lat="43.973452177019816" lon="12.45212202454809"><ele>222.0</ele><time>2026-05-01T12:20:19.969Z</time></trkpt><trkpt lat="43.9735711266885" lon="12.452195478942437"><ele>221.25</ele><time>2026-05-01T12:20:20.969Z</time></trkpt><trkpt lat="43.973689653125184" lon="12.452276981253359"><ele>220.5</ele><time>2026-05-01T12:20:21.969Z</time></trkpt><trkpt lat="43.973809110696706" lon="12.452355091820797"><ele>219.75</ele><time>2026-05-01T12:20:22.969Z</time></trkpt><trkpt lat="43.9739368799136" lon="12.452415684696758"><ele>219.0</ele><time>2026-05-01T12:20:23.969Z</time></trkpt><trkpt lat="43.97406749968619" lon="12.452458734835044"><ele>217.25</ele><time>2026-05-01T12:20:24.969Z</time></trkpt><trkpt lat="43.974208315579986" lon="12.452461883583394"><ele>215.5</ele><time>2026-05-01T12:20:25.969Z</time></trkpt><trkpt lat="43.97434729293067" lon="12.452446062072616"><ele>213.75</ele><time>2026-05-01T12:20:26.969Z</time></trkpt><trkpt lat="43.974476830141064" lon="12.452432916989423"><ele>212.0</ele><time>2026-05-01T12:20:27.969Z</time></trkpt><trkpt lat="43.97460297149755" lon="12.452418031915231"><ele>212.0</ele><time>2026-05-01T12:20:28.969Z</time></trkpt><trkpt lat="43.97472566846316" lon="12.452406092923093"><ele>212.0</ele><time>2026-05-01T12:20:29.969Z</time></trkpt><trkpt lat="43.97484268347532" lon="12.452398924469719"><ele>212.0</ele><time>2026-05-01T12:20:30.969Z</time></trkpt><trkpt lat="43.974957906373376" lon="12.452394992242688"><ele>212.0</ele><time>2026-05-01T12:20:31.969Z</time></trkpt><trkpt lat="43.97506760430023" lon="12.452390516210018"><ele>211.25</ele><time>2026-05-01T12:20:32.969Z</time></trkpt><trkpt lat="43.975177430500175" lon="12.452381102318911"><ele>210.5</ele><time>2026-05-01T12:20:33.969Z</time></trkpt><trkpt lat="43.9752876063658" lon="12.452359547794092"><ele>209.75</ele><time>2026-05-01T12:20:34.969Z</time></trkpt><trkpt lat="43.97539833529509" lon="12.452318478024386"><ele>209.0</ele><time>2026-05-01T12:20:35.969Z</time></trkpt><trkpt lat="43.97550151389809" lon="12.452244551902014"><ele>209.0</ele><time>2026-05-01T12:20:36.969Z</time></trkpt><trkpt lat="43.97560003145089" lon="12.452143846995186"><ele>209.0</ele><time>2026-05-01T12:20:37.969Z</time></trkpt><trkpt lat="43.975703471897475" lon="12.452031909430913"><ele>209.0</ele><time>2026-05-01T12:20:38.969Z</time></trkpt><trkpt lat="43.97579851645377" lon="12.45192816341422"><ele>209.0</ele><time>2026-05-01T12:20:39.969Z</time></trkpt><trkpt lat="43.97588941224732" lon="12.451824808638884"><ele>208.75</ele><time>2026-05-01T12:20:40.969Z</time></trkpt><trkpt lat="43.97598272169651" lon="12.45171849514123"><ele>208.5</ele><time>2026-05-01T12:20:41.969Z</time></trkpt><trkpt lat="43.97609585975885" lon="12.451629042183434"><ele>208.25</ele><time>2026-05-01T12:20:42.969Z</time></trkpt><trkpt lat="43.97618621897807" lon="12.451516725830327"><ele>208.0</ele><time>2026-05-01T12:20:43.969Z</time></trkpt><trkpt lat="43.9762791529291" lon="12.451408199378507"><ele>208.0</ele><time>2026-05-01T12:20:44.969Z</time></trkpt><trkpt lat="43.97637123121326" lon="12.451296919619804"><ele>208.0</ele><time>2026-05-01T12:20:45.969Z</time></trkpt><trkpt lat="43.976466361358305" lon="12.451169651356821"><ele>208.0</ele><time>2026-05-01T12:20:46.969Z</time></trkpt><trkpt lat="43.976567887057065" lon="12.451033617905042"><ele>208.0</ele><time>2026-05-01T12:20:47.969Z</time></trkpt><trkpt lat="43.976678500876524" lon="12.450894801662002"><ele>207.0</ele><time>2026-05-01T12:20:48.969Z</time></trkpt><trkpt lat="43.9767836422931" lon="12.450762958036206"><ele>206.0</ele><time>2026-05-01T12:20:49.969Z</time></trkpt><trkpt lat="43.97688432480376" lon="12.45063360939379"><ele>205.0</ele><time>2026-05-01T12:20:50.969Z</time></trkpt><trkpt lat="43.97698250041492" lon="12.450495681316038"><ele>204.0</ele><time>2026-05-01T12:20:51.969Z</time></trkpt><trkpt lat="43.97708274078999" lon="12.450365467507991"><ele>204.0</ele><time>2026-05-01T12:20:52.969Z</time></trkpt><trkpt lat="43.977182200390686" lon="12.450238869174559"><ele>204.0</ele><time>2026-05-01T12:20:53.969Z</time></trkpt><trkpt lat="43.97729505483266" lon="12.450119853729637"><ele>204.0</ele><time>2026-05-01T12:20:54.969Z</time></trkpt><trkpt lat="43.977400222701704" lon="12.450002455908267"><ele>204.0</ele><time>2026-05-01T12:20:55.969Z</time></trkpt><trkpt lat="43.977502400406316" lon="12.44988767506309"><ele>203.5</ele><time>2026-05-01T12:20:56.969Z</time></trkpt><trkpt lat="43.97759934420982" lon="12.4497733025343"><ele>203.0</ele><time>2026-05-01T12:20:57.969Z</time></trkpt><trkpt lat="43.977702517799436" lon="12.449660077575354"><ele>202.5</ele><time>2026-05-01T12:20:58.969Z</time></trkpt><trkpt lat="43.97779915736339" lon="12.449549073331491"><ele>202.0</ele><time>2026-05-01T12:20:59.969Z</time></trkpt><trkpt lat="43.9778928839007" lon="12.449444260501176"><ele>203.25</ele><time>2026-05-01T12:21:00.969Z</time></trkpt><trkpt lat="43.97798179651746" lon="12.449332255226695"><ele>204.5</ele><time>2026-05-01T12:21:01.969Z</time></trkpt><trkpt lat="43.97806030493127" lon="12.449202412677238"><ele>205.75</ele><time>2026-05-01T12:21:02.969Z</time></trkpt><trkpt lat="43.97812335163991" lon="12.449032525330185"><ele>207.0</ele><time>2026-05-01T12:21:03.969Z</time></trkpt><trkpt lat="43.978176287584446" lon="12.448806467921237"><ele>207.66666666666669</ele><time>2026-05-01T12:21:04.969Z</time></trkpt><trkpt lat="43.97826134979195" lon="12.448569283765321"><ele>208.33333333333334</ele><time>2026-05-01T12:21:05.969Z</time></trkpt><trkpt lat="43.978331856384" lon="12.448311285749682"><ele>209.0</ele><time>2026-05-01T12:21:06.969Z</time></trkpt><trkpt lat="43.978417850626094" lon="12.448041176890127"><ele>208.0</ele><time>2026-05-01T12:21:07.969Z</time></trkpt><trkpt lat="43.97849957434807" lon="12.44776817903306"><ele>207.0</ele><time>2026-05-01T12:21:08.969Z</time></trkpt><trkpt lat="43.9785767549244" lon="12.44750000190909"><ele>206.0</ele><time>2026-05-01T12:21:09.969Z</time></trkpt><trkpt lat="43.97864784408505" lon="12.447237793023504"><ele>207.66666666666669</ele><time>2026-05-01T12:21:10.969Z</time></trkpt><trkpt lat="43.97872811162827" lon="12.446986075369"><ele>209.33333333333331</ele><time>2026-05-01T12:21:11.969Z</time></trkpt><trkpt lat="43.97881135679091" lon="12.446735825610011"><ele>211.0</ele><time>2026-05-01T12:21:12.969Z</time></trkpt><trkpt lat="43.978899722724755" lon="12.44648705588791"><ele>212.66666666666666</ele><time>2026-05-01T12:21:13.969Z</time></trkpt><trkpt lat="43.9789871516544" lon="12.44624037521591"><ele>214.33333333333331</ele><time>2026-05-01T12:21:14.969Z</time></trkpt><trkpt lat="43.979079680193365" lon="12.445995157815538"><ele>216.0</ele><time>2026-05-01T12:21:15.969Z</time></trkpt><trkpt lat="43.97916677140528" lon="12.445756210656121"><ele>215.0</ele><time>2026-05-01T12:21:16.969Z</time></trkpt><trkpt lat="43.97924450530511" lon="12.445514165494112"><ele>214.0</ele><time>2026-05-01T12:21:17.969Z</time></trkpt><trkpt lat="43.97932247200548" lon="12.445282832110546"><ele>213.0</ele><time>2026-05-01T12:21:18.969Z</time></trkpt><trkpt lat="43.97939373219782" lon="12.445057243223404"><ele>213.0</ele><time>2026-05-01T12:21:19.969Z</time></trkpt><trkpt lat="43.97947456479" lon="12.444841427952761"><ele>213.0</ele><time>2026-05-01T12:21:20.969Z</time></trkpt><trkpt lat="43.97955017501931" lon="12.444624969109574"><ele>213.0</ele><time>2026-05-01T12:21:21.969Z</time></trkpt><trkpt lat="43.97962353070279" lon="12.444409307641498"><ele>215.33333333333331</ele><time>2026-05-01T12:21:22.969Z</time></trkpt><trkpt lat="43.979694437201175" lon="12.44419630267494"><ele>217.66666666666666</ele><time>2026-05-01T12:21:23.969Z</time></trkpt><trkpt lat="43.979772643818556" lon="12.443986983823484"><ele>220.0</ele><time>2026-05-01T12:21:24.969Z</time></trkpt><trkpt lat="43.97985367026395" lon="12.443779385266742"><ele>221.66666666666666</ele><time>2026-05-01T12:21:25.969Z</time></trkpt><trkpt lat="43.97993231291021" lon="12.443579128347713"><ele>223.33333333333331</ele><time>2026-05-01T12:21:26.969Z</time></trkpt><trkpt lat="43.980011722424585" lon="12.443389280772061"><ele>225.0</ele><time>2026-05-01T12:21:27.969Z</time></trkpt><trkpt lat="43.98009647529756" lon="12.443222022866623"><ele>225.0</ele><time>2026-05-01T12:21:28.969Z</time></trkpt><trkpt lat="43.98021912861082" lon="12.44311230219183"><ele>225.0</ele><time>2026-05-01T12:21:29.969Z</time></trkpt><trkpt lat="43.98034747068471" lon="12.442993302470787"><ele>225.0</ele><time>2026-05-01T12:21:30.969Z</time></trkpt><trkpt lat="43.98048403329839" lon="12.442861319330758"><ele>225.66666666666669</ele><time>2026-05-01T12:21:31.969Z</time></trkpt><trkpt lat="43.98062959102061" lon="12.4427150177783"><ele>226.33333333333334</ele><time>2026-05-01T12:21:32.969Z</time></trkpt><trkpt lat="43.98078601450776" lon="12.442590362974636"><ele>227.0</ele><time>2026-05-01T12:21:33.969Z</time></trkpt><trkpt lat="43.98093983289864" lon="12.442472294058716"><ele>227.0</ele><time>2026-05-01T12:21:34.969Z</time></trkpt><trkpt lat="43.98108112874674" lon="12.442357557476782"><ele>227.0</ele><time>2026-05-01T12:21:35.968Z</time></trkpt><trkpt lat="43.98120150392203" lon="12.442256451723347"><ele>227.0</ele><time>2026-05-01T12:21:36.967Z</time></trkpt><trkpt lat="43.98131424783" lon="12.442157442802266"><ele>227.0</ele><time>2026-05-01T12:21:37.967Z</time></trkpt><trkpt lat="43.98141313392656" lon="12.4420457297643"><ele>227.75</ele><time>2026-05-01T12:21:38.967Z</time></trkpt><trkpt lat="43.98149676820948" lon="12.441887572799986"><ele>228.5</ele><time>2026-05-01T12:21:39.967Z</time></trkpt><trkpt lat="43.98156325605909" lon="12.441703329554795"><ele>229.25</ele><time>2026-05-01T12:21:40.967Z</time></trkpt><trkpt lat="43.98161444807909" lon="12.441492851936285"><ele>230.0</ele><time>2026-05-01T12:21:41.967Z</time></trkpt><trkpt lat="43.98166184618325" lon="12.441272579173296"><ele>225.33333333333334</ele><time>2026-05-01T12:21:42.967Z</time></trkpt><trkpt lat="43.98172467172709" lon="12.441047978608305"><ele>220.66666666666669</ele><time>2026-05-01T12:21:43.967Z</time></trkpt><trkpt lat="43.98179323691501" lon="12.440810588683657"><ele>216.0</ele><time>2026-05-01T12:21:44.967Z</time></trkpt><trkpt lat="43.981856927107884" lon="12.440578889608528"><ele>218.33333333333331</ele><time>2026-05-01T12:21:45.967Z</time></trkpt><trkpt lat="43.981918907194995" lon="12.440344145660813"><ele>220.66666666666666</ele><time>2026-05-01T12:21:46.967Z</time></trkpt><trkpt lat="43.981979924233514" lon="12.44010738224253"><ele>223.0</ele><time>2026-05-01T12:21:47.967Z</time></trkpt><trkpt lat="43.98204324312567" lon="12.439878223936493"><ele>223.0</ele><time>2026-05-01T12:21:48.967Z</time></trkpt><trkpt lat="43.98210338444647" lon="12.439657337326462"><ele>223.0</ele><time>2026-05-01T12:21:49.967Z</time></trkpt><trkpt lat="43.982147395254394" lon="12.439449426772"><ele>223.0</ele><time>2026-05-01T12:21:50.967Z</time></trkpt><trkpt lat="43.98218038369217" lon="12.43923849494722"><ele>224.66666666666666</ele><time>2026-05-01T12:21:51.967Z</time></trkpt><trkpt lat="43.98219114793913" lon="12.439016519016668"><ele>226.33333333333331</ele><time>2026-05-01T12:21:52.967Z</time></trkpt><trkpt lat="43.9821875569156" lon="12.43878768332129"><ele>228.0</ele><time>2026-05-01T12:21:53.967Z</time></trkpt><trkpt lat="43.98217004101925" lon="12.438553981848093"><ele>229.33333333333331</ele><time>2026-05-01T12:21:54.967Z</time></trkpt><trkpt lat="43.9821423703411" lon="12.438323343183697"><ele>230.66666666666666</ele><time>2026-05-01T12:21:55.967Z</time></trkpt><trkpt lat="43.982120096962326" lon="12.438090423762727"><ele>232.0</ele><time>2026-05-01T12:21:56.967Z</time></trkpt><trkpt lat="43.98210052472252" lon="12.437854984819229"><ele>233.33333333333331</ele><time>2026-05-01T12:21:57.967Z</time></trkpt><trkpt lat="43.9820845338361" lon="12.437625643093595"><ele>234.66666666666669</ele><time>2026-05-01T12:21:58.967Z</time></trkpt><trkpt lat="43.982050707680216" lon="12.437401288179853"><ele>236.0</ele><time>2026-05-01T12:21:59.967Z</time></trkpt><trkpt lat="43.98200382139853" lon="12.437179324523397"><ele>237.0</ele><time>2026-05-01T12:22:00.967Z</time></trkpt><trkpt lat="43.98195475480744" lon="12.436955905346473"><ele>238.0</ele><time>2026-05-01T12:22:01.967Z</time></trkpt><trkpt lat="43.98190205571613" lon="12.436739945295015"><ele>239.0</ele><time>2026-05-01T12:22:02.967Z</time></trkpt><trkpt lat="43.98184567547192" lon="12.436526608383842"><ele>239.0</ele><time>2026-05-01T12:22:03.967Z</time></trkpt><trkpt lat="43.98177769748651" lon="12.436324745108013"><ele>239.0</ele><time>2026-05-01T12:22:04.967Z</time></trkpt><trkpt lat="43.981709572627445" lon="12.436120722603713"><ele>239.0</ele><time>2026-05-01T12:22:05.967Z</time></trkpt><trkpt lat="43.981636579224784" lon="12.435928187002554"><ele>239.25</ele><time>2026-05-01T12:22:06.967Z</time></trkpt><trkpt lat="43.981570211313894" lon="12.435749977737718"><ele>239.5</ele><time>2026-05-01T12:22:07.967Z</time></trkpt><trkpt lat="43.98151158737169" lon="12.43558542799274"><ele>239.75</ele><time>2026-05-01T12:22:08.967Z</time></trkpt><trkpt lat="43.981469281925904" lon="12.43542853407293"><ele>240.0</ele><time>2026-05-01T12:22:09.967Z</time></trkpt><trkpt lat="43.981439986213495" lon="12.435268630073438"><ele>240.5</ele><time>2026-05-01T12:22:10.967Z</time></trkpt><trkpt lat="43.98145409098294" lon="12.435086866162397"><ele>241.0</ele><time>2026-05-01T12:22:11.967Z</time></trkpt><trkpt lat="43.98146000181337" lon="12.43488574774019"><ele>241.5</ele><time>2026-05-01T12:22:12.967Z</time></trkpt><trkpt lat="43.981488570259074" lon="12.43468152324296"><ele>242.0</ele><time>2026-05-01T12:22:13.967Z</time></trkpt><trkpt lat="43.98150812951605" lon="12.434470007647619"><ele>240.0</ele><time>2026-05-01T12:22:14.967Z</time></trkpt><trkpt lat="43.98152330361067" lon="12.434256286236126"><ele>238.0</ele><time>2026-05-01T12:22:15.967Z</time></trkpt><trkpt lat="43.98153969892417" lon="12.434035488355619"><ele>236.0</ele><time>2026-05-01T12:22:16.967Z</time></trkpt><trkpt lat="43.981565643138396" lon="12.433810439062398"><ele>235.66666666666669</ele><time>2026-05-01T12:22:17.967Z</time></trkpt><trkpt lat="43.98158816377899" lon="12.433583787867846"><ele>235.33333333333331</ele><time>2026-05-01T12:22:18.967Z</time></trkpt><trkpt lat="43.98161169347649" lon="12.433361275672594"><ele>235.0</ele><time>2026-05-01T12:22:19.967Z</time></trkpt><trkpt lat="43.98162532713528" lon="12.433155557423467"><ele>235.25</ele><time>2026-05-01T12:22:20.967Z</time></trkpt><trkpt lat="43.981634106009615" lon="12.432960279676893"><ele>235.5</ele><time>2026-05-01T12:22:21.967Z</time></trkpt><trkpt lat="43.98164744964592" lon="12.432771256450797"><ele>235.75</ele><time>2026-05-01T12:22:22.967Z</time></trkpt><trkpt lat="43.981666203423444" lon="12.43259345853812"><ele>236.0</ele><time>2026-05-01T12:22:23.967Z</time></trkpt><trkpt lat="43.98168211317395" lon="12.432429007105782"><ele>234.60000000000002</ele><time>2026-05-01T12:22:24.967Z</time></trkpt><trkpt lat="43.981695018844086" lon="12.432279237418665"><ele>233.20000000000002</ele><time>2026-05-01T12:22:25.967Z</time></trkpt><trkpt lat="43.98170752846067" lon="12.43214116101345"><ele>231.79999999999998</ele><time>2026-05-01T12:22:26.967Z</time></trkpt><trkpt lat="43.981718867082165" lon="12.432004958337085"><ele>230.39999999999998</ele><time>2026-05-01T12:22:27.967Z</time></trkpt><trkpt lat="43.98172814531391" lon="12.431862891698273"><ele>229.0</ele><time>2026-05-01T12:22:28.967Z</time></trkpt><trkpt lat="43.981735739158985" lon="12.431714649730825"><ele>229.0</ele><time>2026-05-01T12:22:29.967Z</time></trkpt><trkpt lat="43.98173360659903" lon="12.43156201271607"><ele>228.99999999999997</ele><time>2026-05-01T12:22:30.967Z</time></trkpt><trkpt lat="43.98173346981713" lon="12.431411163221341"><ele>228.99999999999997</ele><time>2026-05-01T12:22:31.967Z</time></trkpt><trkpt lat="43.981724519128946" lon="12.431255188519394"><ele>229.0</ele><time>2026-05-01T12:22:32.967Z</time></trkpt><trkpt lat="43.98170333369474" lon="12.431109769472702"><ele>229.0</ele><time>2026-05-01T12:22:33.967Z</time></trkpt><trkpt lat="43.98166440757592" lon="12.43097666814448"><ele>231.79999999999998</ele><time>2026-05-01T12:22:34.967Z</time></trkpt><trkpt lat="43.98160829176588" lon="12.43085534623947"><ele>234.59999999999997</ele><time>2026-05-01T12:22:35.967Z</time></trkpt><trkpt lat="43.981536917217824" lon="12.430748488756207"><ele>237.4</ele><time>2026-05-01T12:22:36.967Z</time></trkpt><trkpt lat="43.9814552525349" lon="12.430648128334035"><ele>240.2</ele><time>2026-05-01T12:22:37.967Z</time></trkpt><trkpt lat="43.98138059710328" lon="12.430546663000044"><ele>243.0</ele><time>2026-05-01T12:22:38.967Z</time></trkpt><trkpt lat="43.9812995501352" lon="12.430454778909365"><ele>243.0</ele><time>2026-05-01T12:22:39.967Z</time></trkpt><trkpt lat="43.98121503535318" lon="12.430351937563557"><ele>243.0</ele><time>2026-05-01T12:22:40.967Z</time></trkpt><trkpt lat="43.981141365644156" lon="12.430239198169529"><ele>243.0</ele><time>2026-05-01T12:22:41.967Z</time></trkpt><trkpt lat="43.9810639949656" lon="12.430127176124794"><ele>243.0</ele><time>2026-05-01T12:22:42.967Z</time></trkpt><trkpt lat="43.98098883610441" lon="12.430024278788643"><ele>243.0</ele><time>2026-05-01T12:22:43.967Z</time></trkpt><trkpt lat="43.98091441967754" lon="12.429923604084221"><ele>244.60000000000002</ele><time>2026-05-01T12:22:44.967Z</time></trkpt><trkpt lat="43.98083374514337" lon="12.429835364264536"><ele>246.20000000000002</ele><time>2026-05-01T12:22:45.967Z</time></trkpt><trkpt lat="43.980751833879694" lon="12.429747538016402"><ele>247.8</ele><time>2026-05-01T12:22:46.967Z</time></trkpt><trkpt lat="43.98066627955547" lon="12.42967755694236"><ele>249.4</ele><time>2026-05-01T12:22:47.967Z</time></trkpt><trkpt lat="43.98057105872099" lon="12.429624956115767"><ele>251.0</ele><time>2026-05-01T12:22:48.967Z</time></trkpt><trkpt lat="43.980459943698" lon="12.429608011490807"><ele>253.20000000000002</ele><time>2026-05-01T12:22:49.967Z</time></trkpt><trkpt lat="43.98035172470338" lon="12.429575550160578"><ele>255.40000000000003</ele><time>2026-05-01T12:22:50.967Z</time></trkpt><trkpt lat="43.98024469374327" lon="12.429598391095496"><ele>257.6</ele><time>2026-05-01T12:22:51.967Z</time></trkpt><trkpt lat="43.98014270608067" lon="12.42960645606789"><ele>259.8</ele><time>2026-05-01T12:22:52.967Z</time></trkpt><trkpt lat="43.980038895549136" lon="12.429628745327513"><ele>262.0</ele><time>2026-05-01T12:22:53.967Z</time></trkpt><trkpt lat="43.979922492089614" lon="12.42962563069356"><ele>259.4</ele><time>2026-05-01T12:22:54.967Z</time></trkpt><trkpt lat="43.97980867732014" lon="12.429651771880526"><ele>256.79999999999995</ele><time>2026-05-01T12:22:55.967Z</time></trkpt><trkpt lat="43.97969713261224" lon="12.429675178504995"><ele>254.2</ele><time>2026-05-01T12:22:56.967Z</time></trkpt><trkpt lat="43.979595108215534" lon="12.429703335006206"><ele>251.6</ele><time>2026-05-01T12:22:57.967Z</time></trkpt><trkpt lat="43.97950573032444" lon="12.429741349673975"><ele>249.0</ele><time>2026-05-01T12:22:58.967Z</time></trkpt><trkpt lat="43.97942423982418" lon="12.429784017422316"><ele>249.0</ele><time>2026-05-01T12:22:59.967Z</time></trkpt><trkpt lat="43.979339968674786" lon="12.429818887251075"><ele>249.0</ele><time>2026-05-01T12:23:00.967Z</time></trkpt><trkpt lat="43.97925351358997" lon="12.429835737375655"><ele>249.0</ele><time>2026-05-01T12:23:01.967Z</time></trkpt><trkpt lat="43.97916757178933" lon="12.429834661910077"><ele>249.0</ele><time>2026-05-01T12:23:02.967Z</time></trkpt><trkpt lat="43.97909248650834" lon="12.429777067182723"><ele>249.0</ele><time>2026-05-01T12:23:03.967Z</time></trkpt><trkpt lat="43.97900880276111" lon="12.42973598504509"><ele>249.0</ele><time>2026-05-01T12:23:04.967Z</time></trkpt><trkpt lat="43.97894326010399" lon="12.429640294692998"><ele>254.5</ele><time>2026-05-01T12:23:05.967Z</time></trkpt><trkpt lat="43.97888713824826" lon="12.429532839256906"><ele>260.0</ele><time>2026-05-01T12:23:06.967Z</time></trkpt><trkpt lat="43.97882811392017" lon="12.429392154293181"><ele>265.5</ele><time>2026-05-01T12:23:07.967Z</time></trkpt><trkpt lat="43.97876577986575" lon="12.429235691564376"><ele>271.0</ele><time>2026-05-01T12:23:08.967Z</time></trkpt><trkpt lat="43.97870577025132" lon="12.42909212187023"><ele>271.0</ele><time>2026-05-01T12:23:09.967Z</time></trkpt><trkpt lat="43.978645441068956" lon="12.428949991551075"><ele>271.0</ele><time>2026-05-01T12:23:10.967Z</time></trkpt><trkpt lat="43.9785887817954" lon="12.428819235865662"><ele>271.0</ele><time>2026-05-01T12:23:11.967Z</time></trkpt><trkpt lat="43.9785397831233" lon="12.428706322787708"><ele>271.0</ele><time>2026-05-01T12:23:12.967Z</time></trkpt><trkpt lat="43.97849923959706" lon="12.428606754997487"><ele>271.0</ele><time>2026-05-01T12:23:13.967Z</time></trkpt><trkpt lat="43.97845735420281" lon="12.428521191241199"><ele>270.66666666666663</ele><time>2026-05-01T12:23:14.967Z</time></trkpt><trkpt lat="43.97842209225999" lon="12.428436260005157"><ele>270.3333333333333</ele><time>2026-05-01T12:23:15.967Z</time></trkpt><trkpt lat="43.978389788656195" lon="12.428347707097352"><ele>270.0</ele><time>2026-05-01T12:23:16.967Z</time></trkpt><trkpt lat="43.97837608345537" lon="12.428194049477833"><ele>269.6666666666667</ele><time>2026-05-01T12:23:18.967Z</time></trkpt><trkpt lat="43.978357250040176" lon="12.428053724391853"><ele>269.33333333333337</ele><time>2026-05-01T12:23:20.967Z</time></trkpt><trkpt lat="43.978306831798854" lon="12.427994868952478"><ele>269.0</ele><time>2026-05-01T12:23:21.967Z</time></trkpt><trkpt lat="43.978233216426524" lon="12.427950715209038"><ele>273.0</ele><time>2026-05-01T12:23:22.967Z</time></trkpt><trkpt lat="43.97813577102404" lon="12.427901007844044"><ele>277.0</ele><time>2026-05-01T12:23:23.967Z</time></trkpt><trkpt lat="43.97802456797996" lon="12.427837003193417"><ele>281.0</ele><time>2026-05-01T12:23:24.967Z</time></trkpt><trkpt lat="43.977894081538345" lon="12.427807435582976"><ele>285.0</ele><time>2026-05-01T12:23:25.967Z</time></trkpt><trkpt lat="43.977771267442925" lon="12.427782070338043"><ele>285.0</ele><time>2026-05-01T12:23:26.967Z</time></trkpt><trkpt lat="43.97766063658895" lon="12.427768923576744"><ele>285.0</ele><time>2026-05-01T12:23:27.967Z</time></trkpt><trkpt lat="43.97754716945205" lon="12.42775761419716"><ele>285.0</ele><time>2026-05-01T12:23:28.967Z</time></trkpt><trkpt lat="43.977441450943026" lon="12.427741101953155"><ele>285.0</ele><time>2026-05-01T12:23:29.967Z</time></trkpt><trkpt lat="43.9773489304508" lon="12.427713574740816"><ele>285.0</ele><time>2026-05-01T12:23:30.967Z</time></trkpt><trkpt lat="43.977251534755524" lon="12.427681597675218"><ele>282.0</ele><time>2026-05-01T12:23:31.967Z</time></trkpt><trkpt lat="43.977147221019955" lon="12.427688310968762"><ele>279.0</ele><time>2026-05-01T12:23:32.967Z</time></trkpt><trkpt lat="43.97701219953329" lon="12.42778117207391"><ele>276.0</ele><time>2026-05-01T12:23:33.967Z</time></trkpt><trkpt lat="43.976894639285206" lon="12.427868002279332"><ele>273.0</ele><time>2026-05-01T12:23:34.967Z</time></trkpt><trkpt lat="43.97678643884991" lon="12.427931575927806"><ele>273.25</ele><time>2026-05-01T12:23:35.967Z</time></trkpt><trkpt lat="43.976665185463546" lon="12.427953472546386"><ele>273.5</ele><time>2026-05-01T12:23:36.967Z</time></trkpt><trkpt lat="43.97654749801286" lon="12.427975545924834"><ele>273.75</ele><time>2026-05-01T12:23:37.967Z</time></trkpt><trkpt lat="43.976428521644856" lon="12.427981623937047"><ele>274.0</ele><time>2026-05-01T12:23:38.967Z</time></trkpt><trkpt lat="43.97631855994004" lon="12.427947126058294"><ele>274.0</ele><time>2026-05-01T12:23:39.967Z</time></trkpt><trkpt lat="43.97621745875031" lon="12.427870324912762"><ele>274.0</ele><time>2026-05-01T12:23:40.967Z</time></trkpt><trkpt lat="43.976104390761336" lon="12.42775352029057"><ele>274.0</ele><time>2026-05-01T12:23:41.966Z</time></trkpt><trkpt lat="43.97598711411837" lon="12.427615238539413"><ele>274.0</ele><time>2026-05-01T12:23:42.965Z</time></trkpt><trkpt lat="43.975876884931836" lon="12.427504775251483"><ele>271.4</ele><time>2026-05-01T12:23:43.965Z</time></trkpt><trkpt lat="43.97578268354167" lon="12.427388484225686"><ele>268.79999999999995</ele><time>2026-05-01T12:23:44.966Z</time></trkpt><trkpt lat="43.97570896659126" lon="12.427270620807422"><ele>266.20000000000005</ele><time>2026-05-01T12:23:45.965Z</time></trkpt><trkpt lat="43.975646661953895" lon="12.427159929438007"><ele>263.6</ele><time>2026-05-01T12:23:46.965Z</time></trkpt><trkpt lat="43.975603481144645" lon="12.427049017381519"><ele>261.0</ele><time>2026-05-01T12:23:47.965Z</time></trkpt><trkpt lat="43.97558696034496" lon="12.426877410001806"><ele>261.0</ele><time>2026-05-01T12:23:48.966Z</time></trkpt><trkpt lat="43.97558582506392" lon="12.42669120077822"><ele>261.0</ele><time>2026-05-01T12:23:49.966Z</time></trkpt><trkpt lat="43.975584662138964" lon="12.42650800071179"><ele>261.0</ele><time>2026-05-01T12:23:50.965Z</time></trkpt><trkpt lat="43.97554606968449" lon="12.426320512335213"><ele>261.0</ele><time>2026-05-01T12:23:51.965Z</time></trkpt><trkpt lat="43.975462910581406" lon="12.426164717626072"><ele>260.75</ele><time>2026-05-01T12:23:52.965Z</time></trkpt><trkpt lat="43.97537139319264" lon="12.426029108461996"><ele>260.5</ele><time>2026-05-01T12:23:53.965Z</time></trkpt><trkpt lat="43.975264221906144" lon="12.425905358918268"><ele>260.25</ele><time>2026-05-01T12:23:54.965Z</time></trkpt><trkpt lat="43.97516328062433" lon="12.425769227495685"><ele>260.0</ele><time>2026-05-01T12:23:55.965Z</time></trkpt><trkpt lat="43.97508684891376" lon="12.425604734197764"><ele>260.75</ele><time>2026-05-01T12:23:56.965Z</time></trkpt><trkpt lat="43.975041766247195" lon="12.425412580183682"><ele>261.5</ele><time>2026-05-01T12:23:57.965Z</time></trkpt><trkpt lat="43.97503291163115" lon="12.42520920057667"><ele>262.25</ele><time>2026-05-01T12:23:58.965Z</time></trkpt><trkpt lat="43.97502723484325" lon="12.42500200022389"><ele>263.0</ele><time>2026-05-01T12:23:59.965Z</time></trkpt><trkpt lat="43.97500902133515" lon="12.424797765905934"><ele>252.0</ele><time>2026-05-01T12:24:00.965Z</time></trkpt><trkpt lat="43.9749737653501" lon="12.424599380999823"><ele>241.0</ele><time>2026-05-01T12:24:01.965Z</time></trkpt><trkpt lat="43.97492158673168" lon="12.42439783793165"><ele>230.0</ele><time>2026-05-01T12:24:02.965Z</time></trkpt><trkpt lat="43.974862620488864" lon="12.424200118642553"><ele>230.0</ele><time>2026-05-01T12:24:03.965Z</time></trkpt><trkpt lat="43.97477777969027" lon="12.424017608271669"><ele>230.0</ele><time>2026-05-01T12:24:04.965Z</time></trkpt><trkpt lat="43.97469355308357" lon="12.4238266219696"><ele>230.0</ele><time>2026-05-01T12:24:05.965Z</time></trkpt><trkpt lat="43.974614652350915" lon="12.423641794746686"><ele>228.5</ele><time>2026-05-01T12:24:06.965Z</time></trkpt><trkpt lat="43.97455024757126" lon="12.423475421152423"><ele>227.0</ele><time>2026-05-01T12:24:07.965Z</time></trkpt><trkpt lat="43.97448432472934" lon="12.423322419891202"><ele>225.5</ele><time>2026-05-01T12:24:08.965Z</time></trkpt><trkpt lat="43.97442227555174" lon="12.423206698582975"><ele>224.0</ele><time>2026-05-01T12:24:09.965Z</time></trkpt><trkpt lat="43.97434655423512" lon="12.423131931982882"><ele>224.00000000000003</ele><time>2026-05-01T12:24:10.965Z</time></trkpt><trkpt lat="43.97428033445015" lon="12.423092440748652"><ele>224.0</ele><time>2026-05-01T12:24:11.965Z</time></trkpt><trkpt lat="43.97421309214552" lon="12.423064733800494"><ele>224.0</ele><time>2026-05-01T12:24:13.965Z</time></trkpt><trkpt lat="43.974138111756865" lon="12.423245573447455"><ele>224.0</ele><time>2026-05-01T12:24:19.965Z</time></trkpt><trkpt lat="43.97413890899638" lon="12.423341731381068"><ele>224.00000000000003</ele><time>2026-05-01T12:24:20.965Z</time></trkpt><trkpt lat="43.97413592222973" lon="12.423454299594885"><ele>224.0</ele><time>2026-05-01T12:24:21.965Z</time></trkpt><trkpt lat="43.97412539261704" lon="12.423572085663737"><ele>220.6</ele><time>2026-05-01T12:24:22.965Z</time></trkpt><trkpt lat="43.97409009348786" lon="12.423671564802401"><ele>217.2</ele><time>2026-05-01T12:24:23.965Z</time></trkpt><trkpt lat="43.97403918314812" lon="12.423759679860613"><ele>213.79999999999998</ele><time>2026-05-01T12:24:24.965Z</time></trkpt><trkpt lat="43.973954327149514" lon="12.42380915078257"><ele>210.39999999999998</ele><time>2026-05-01T12:24:25.965Z</time></trkpt><trkpt lat="43.97386380236672" lon="12.423810564342732"><ele>207.0</ele><time>2026-05-01T12:24:26.965Z</time></trkpt><trkpt lat="43.97375584219237" lon="12.423733091273162"><ele>207.0</ele><time>2026-05-01T12:24:27.965Z</time></trkpt><trkpt lat="43.973640364503865" lon="12.423656999351758"><ele>207.0</ele><time>2026-05-01T12:24:28.965Z</time></trkpt><trkpt lat="43.97352560585033" lon="12.42359343082019"><ele>207.0</ele><time>2026-05-01T12:24:29.965Z</time></trkpt><trkpt lat="43.973436885089285" lon="12.42353115684252"><ele>207.0</ele><time>2026-05-01T12:24:30.965Z</time></trkpt><trkpt lat="43.97335004533827" lon="12.423486200492414"><ele>207.0</ele><time>2026-05-01T12:24:31.965Z</time></trkpt><trkpt lat="43.973265648085814" lon="12.423493262748384"><ele>205.39999999999998</ele><time>2026-05-01T12:24:32.965Z</time></trkpt><trkpt lat="43.97319396456089" lon="12.423561914930861"><ele>203.79999999999998</ele><time>2026-05-01T12:24:33.965Z</time></trkpt><trkpt lat="43.97313898148658" lon="12.42366786733809"><ele>202.2</ele><time>2026-05-01T12:24:34.965Z</time></trkpt><trkpt lat="43.97310433420552" lon="12.423824395834274"><ele>200.6</ele><time>2026-05-01T12:24:35.965Z</time></trkpt><trkpt lat="43.973070535899424" lon="12.423974776928356"><ele>199.0</ele><time>2026-05-01T12:24:36.965Z</time></trkpt><trkpt lat="43.97302704314289" lon="12.424087273086297"><ele>199.0</ele><time>2026-05-01T12:24:37.965Z</time></trkpt><trkpt lat="43.97295841293847" lon="12.42415435890833"><ele>199.0</ele><time>2026-05-01T12:24:38.965Z</time></trkpt><trkpt lat="43.97289206541622" lon="12.424166842473538"><ele>199.0</ele><time>2026-05-01T12:24:39.965Z</time></trkpt><trkpt lat="43.97283330190584" lon="12.424106164963392"><ele>199.0</ele><time>2026-05-01T12:24:40.965Z</time></trkpt><trkpt lat="43.972790628431156" lon="12.423875051979081"><ele>199.0</ele><time>2026-05-01T12:24:42.965Z</time></trkpt><trkpt lat="43.97277581969643" lon="12.423719830139559"><ele>198.66666666666666</ele><time>2026-05-01T12:24:43.965Z</time></trkpt><trkpt lat="43.97278106180337" lon="12.423540917935487"><ele>198.33333333333331</ele><time>2026-05-01T12:24:44.965Z</time></trkpt><trkpt lat="43.97275791702569" lon="12.423335244397425"><ele>198.0</ele><time>2026-05-01T12:24:45.965Z</time></trkpt><trkpt lat="43.97269944129394" lon="12.423096620738951"><ele>196.0</ele><time>2026-05-01T12:24:46.965Z</time></trkpt><trkpt lat="43.972621652597944" lon="12.422891559534587"><ele>194.0</ele><time>2026-05-01T12:24:47.965Z</time></trkpt><trkpt lat="43.97255966740248" lon="12.422685421776642"><ele>192.0</ele><time>2026-05-01T12:24:48.965Z</time></trkpt><trkpt lat="43.97253885223201" lon="12.422518133609259"><ele>192.0</ele><time>2026-05-01T12:24:49.965Z</time></trkpt><trkpt lat="43.97253129799111" lon="12.422369487508936"><ele>192.0</ele><time>2026-05-01T12:24:50.965Z</time></trkpt><trkpt lat="43.972559480368275" lon="12.422226149892834"><ele>192.0</ele><time>2026-05-01T12:24:51.965Z</time></trkpt><trkpt lat="43.97264803420126" lon="12.422115259586826"><ele>192.0</ele><time>2026-05-01T12:24:52.965Z</time></trkpt><trkpt lat="43.97270738854472" lon="12.421953882739645"><ele>191.25</ele><time>2026-05-01T12:24:53.965Z</time></trkpt><trkpt lat="43.972761367134716" lon="12.42181140487681"><ele>190.5</ele><time>2026-05-01T12:24:54.965Z</time></trkpt><trkpt lat="43.972746420327326" lon="12.421663812681523"><ele>189.75</ele><time>2026-05-01T12:24:55.965Z</time></trkpt><trkpt lat="43.97268488390353" lon="12.421530332049247"><ele>189.0</ele><time>2026-05-01T12:24:56.965Z</time></trkpt><trkpt lat="43.97259302464058" lon="12.421434376722805"><ele>186.75</ele><time>2026-05-01T12:24:57.965Z</time></trkpt><trkpt lat="43.97247762661645" lon="12.421351203773487"><ele>184.5</ele><time>2026-05-01T12:24:58.965Z</time></trkpt><trkpt lat="43.97232739354069" lon="12.421280008729088"><ele>182.25</ele><time>2026-05-01T12:24:59.965Z</time></trkpt><trkpt lat="43.97217127736" lon="12.421240304973475"><ele>180.0</ele><time>2026-05-01T12:25:00.965Z</time></trkpt><trkpt lat="43.9720481043431" lon="12.421196691538775"><ele>179.5</ele><time>2026-05-01T12:25:01.965Z</time></trkpt><trkpt lat="43.97195363544431" lon="12.421141612561417"><ele>179.0</ele><time>2026-05-01T12:25:02.965Z</time></trkpt><trkpt lat="43.97190458955856" lon="12.421047298705252"><ele>178.5</ele><time>2026-05-01T12:25:03.965Z</time></trkpt><trkpt lat="43.97191842962399" lon="12.420917906351518"><ele>178.0</ele><time>2026-05-01T12:25:04.965Z</time></trkpt><trkpt lat="43.97195155582002" lon="12.420840427153713"><ele>177.5</ele><time>2026-05-01T12:25:05.965Z</time></trkpt><trkpt lat="43.97201551583975" lon="12.420756113560854"><ele>177.0</ele><time>2026-05-01T12:25:06.965Z</time></trkpt><trkpt lat="43.97209972912784" lon="12.420540310101982"><ele>176.0</ele><time>2026-05-01T12:25:07.965Z</time></trkpt><trkpt lat="43.97218471005779" lon="12.420301818418263"><ele>175.0</ele><time>2026-05-01T12:25:08.965Z</time></trkpt><trkpt lat="43.97222969292732" lon="12.420105941809902"><ele>174.0</ele><time>2026-05-01T12:25:09.965Z</time></trkpt><trkpt lat="43.97228250595802" lon="12.419932696228242"><ele>174.0</ele><time>2026-05-01T12:25:10.965Z</time></trkpt><trkpt lat="43.97232853099339" lon="12.41978102046205"><ele>174.0</ele><time>2026-05-01T12:25:11.965Z</time></trkpt><trkpt lat="43.9723354630415" lon="12.419648007230911"><ele>174.0</ele><time>2026-05-01T12:25:12.965Z</time></trkpt><trkpt lat="43.97229484201714" lon="12.41953678899023"><ele>174.0</ele><time>2026-05-01T12:25:13.965Z</time></trkpt><trkpt lat="43.97221898447756" lon="12.419451280962818"><ele>174.0</ele><time>2026-05-01T12:25:14.965Z</time></trkpt><trkpt lat="43.9721090437691" lon="12.419421403158175"><ele>173.6</ele><time>2026-05-01T12:25:15.965Z</time></trkpt><trkpt lat="43.97198396757814" lon="12.419430876000352"><ele>173.2</ele><time>2026-05-01T12:25:16.965Z</time></trkpt><trkpt lat="43.97187817860872" lon="12.419468163115196"><ele>172.79999999999998</ele><time>2026-05-01T12:25:17.965Z</time></trkpt><trkpt lat="43.971797930853356" lon="12.419414493235198"><ele>172.39999999999998</ele><time>2026-05-01T12:25:18.965Z</time></trkpt><trkpt lat="43.971745336483764" lon="12.419316421042911"><ele>172.0</ele><time>2026-05-01T12:25:19.965Z</time></trkpt><trkpt lat="43.97170675217808" lon="12.419194289560023"><ele>172.0</ele><time>2026-05-01T12:25:20.965Z</time></trkpt><trkpt lat="43.971703470609484" lon="12.418993264100484"><ele>172.0</ele><time>2026-05-01T12:25:21.965Z</time></trkpt><trkpt lat="43.971722030630644" lon="12.418792480226276"><ele>172.0</ele><time>2026-05-01T12:25:22.965Z</time></trkpt><trkpt lat="43.97175963659989" lon="12.418619221205894"><ele>172.0</ele><time>2026-05-01T12:25:23.965Z</time></trkpt><trkpt lat="43.97183555928596" lon="12.418472850242267"><ele>170.0</ele><time>2026-05-01T12:25:24.965Z</time></trkpt><trkpt lat="43.971940470854925" lon="12.418289312739416"><ele>168.0</ele><time>2026-05-01T12:25:25.965Z</time></trkpt><trkpt lat="43.972055029955804" lon="12.41811157462492"><ele>166.0</ele><time>2026-05-01T12:25:26.965Z</time></trkpt><trkpt lat="43.97216116609565" lon="12.417949833608917"><ele>165.33333333333334</ele><time>2026-05-01T12:25:27.965Z</time></trkpt><trkpt lat="43.97227060143222" lon="12.417816299651482"><ele>164.66666666666666</ele><time>2026-05-01T12:25:28.965Z</time></trkpt><trkpt lat="43.9723889259054" lon="12.417689093280325"><ele>164.0</ele><time>2026-05-01T12:25:29.965Z</time></trkpt><trkpt lat="43.9725233034225" lon="12.417531915747364"><ele>164.0</ele><time>2026-05-01T12:25:30.965Z</time></trkpt><trkpt lat="43.97261221322699" lon="12.417347230638681"><ele>164.0</ele><time>2026-05-01T12:25:31.965Z</time></trkpt><trkpt lat="43.972687096261936" lon="12.417151213370293"><ele>164.0</ele><time>2026-05-01T12:25:32.965Z</time></trkpt><trkpt lat="43.972747675986405" lon="12.416936477531262"><ele>163.33333333333331</ele><time>2026-05-01T12:25:33.965Z</time></trkpt><trkpt lat="43.97280301209459" lon="12.416718946190477"><ele>162.66666666666666</ele><time>2026-05-01T12:25:34.965Z</time></trkpt><trkpt lat="43.972832064712165" lon="12.416496591340763"><ele>162.0</ele><time>2026-05-01T12:25:35.965Z</time></trkpt><trkpt lat="43.97284883265821" lon="12.416280063324251"><ele>161.66666666666666</ele><time>2026-05-01T12:25:36.965Z</time></trkpt><trkpt lat="43.97287576407059" lon="12.41607261770573"><ele>161.33333333333331</ele><time>2026-05-01T12:25:37.965Z</time></trkpt><trkpt lat="43.97289897368573" lon="12.415862703644846"><ele>161.0</ele><time>2026-05-01T12:25:38.965Z</time></trkpt><trkpt lat="43.97290069053373" lon="12.415653418538904"><ele>160.33333333333331</ele><time>2026-05-01T12:25:39.965Z</time></trkpt><trkpt lat="43.97287601167471" lon="12.415431686684277"><ele>159.66666666666666</ele><time>2026-05-01T12:25:40.965Z</time></trkpt><trkpt lat="43.972853989923955" lon="12.415201184426804"><ele>159.0</ele><time>2026-05-01T12:25:41.965Z</time></trkpt><trkpt lat="43.97282348629289" lon="12.41495806018236"><ele>159.0</ele><time>2026-05-01T12:25:42.965Z</time></trkpt><trkpt lat="43.972797539715316" lon="12.414721699082138"><ele>159.0</ele><time>2026-05-01T12:25:43.965Z</time></trkpt><trkpt lat="43.97276987452464" lon="12.414488557106349"><ele>159.0</ele><time>2026-05-01T12:25:44.965Z</time></trkpt><trkpt lat="43.97274153763119" lon="12.414261644344558"><ele>157.33333333333334</ele><time>2026-05-01T12:25:45.965Z</time></trkpt><trkpt lat="43.9727211660842" lon="12.414043199288368"><ele>155.66666666666669</ele><time>2026-05-01T12:25:46.965Z</time></trkpt><trkpt lat="43.972720813772874" lon="12.413820510518383"><ele>154.0</ele><time>2026-05-01T12:25:47.964Z</time></trkpt><trkpt lat="43.972729031774584" lon="12.41361579300735"><ele>151.25</ele><time>2026-05-01T12:25:48.964Z</time></trkpt><trkpt lat="43.97275798576487" lon="12.41342346177309"><ele>148.5</ele><time>2026-05-01T12:25:49.964Z</time></trkpt><trkpt lat="43.972771503706944" lon="12.413225280871302"><ele>145.75</ele><time>2026-05-01T12:25:50.964Z</time></trkpt><trkpt lat="43.972834171727555" lon="12.413066474060457"><ele>143.0</ele><time>2026-05-01T12:25:51.964Z</time></trkpt><trkpt lat="43.97286760516151" lon="12.412916400420853"><ele>141.83333333333331</ele><time>2026-05-01T12:25:52.964Z</time></trkpt><trkpt lat="43.97291629492083" lon="12.412811826465228"><ele>140.66666666666666</ele><time>2026-05-01T12:25:53.964Z</time></trkpt><trkpt lat="43.9729468118814" lon="12.412715952533357"><ele>139.5</ele><time>2026-05-01T12:25:54.964Z</time></trkpt><trkpt lat="43.97292899204929" lon="12.41261451181934"><ele>138.33333333333334</ele><time>2026-05-01T12:25:55.964Z</time></trkpt><trkpt lat="43.97287074209404" lon="12.412545541640517"><ele>137.16666666666669</ele><time>2026-05-01T12:25:56.964Z</time></trkpt><trkpt lat="43.972788828682134" lon="12.412532060081107"><ele>136.0</ele><time>2026-05-01T12:25:57.964Z</time></trkpt><trkpt lat="43.97271059245131" lon="12.412568744779275"><ele>136.0</ele><time>2026-05-01T12:25:58.964Z</time></trkpt><trkpt lat="43.97261912155108" lon="12.412626262186997"><ele>136.0</ele><time>2026-05-01T12:25:59.964Z</time></trkpt><trkpt lat="43.97253310766917" lon="12.412690239784832"><ele>136.0</ele><time>2026-05-01T12:26:00.964Z</time></trkpt><trkpt lat="43.972456603777836" lon="12.412751619944636"><ele>136.0</ele><time>2026-05-01T12:26:01.964Z</time></trkpt><trkpt lat="43.97237502076548" lon="12.412791893722499"><ele>136.0</ele><time>2026-05-01T12:26:02.964Z</time></trkpt><trkpt lat="43.97229253373142" lon="12.412770280282796"><ele>134.0</ele><time>2026-05-01T12:26:03.964Z</time></trkpt><trkpt lat="43.97223378704224" lon="12.412676222593182"><ele>132.0</ele><time>2026-05-01T12:26:04.964Z</time></trkpt><trkpt lat="43.97223989511638" lon="12.412532846782053"><ele>130.0</ele><time>2026-05-01T12:26:05.964Z</time></trkpt><trkpt lat="43.97227280609275" lon="12.412421208576706"><ele>128.0</ele><time>2026-05-01T12:26:06.964Z</time></trkpt><trkpt lat="43.97233457200493" lon="12.41232349795641"><ele>126.0</ele><time>2026-05-01T12:26:07.964Z</time></trkpt><trkpt lat="43.972400700215516" lon="12.412234778218398"><ele>126.33333333333333</ele><time>2026-05-01T12:26:08.964Z</time></trkpt><trkpt lat="43.972457576787185" lon="12.412146110360554"><ele>126.66666666666666</ele><time>2026-05-01T12:26:09.964Z</time></trkpt><trkpt lat="43.97252249385111" lon="12.412075000498627"><ele>127.0</ele><time>2026-05-01T12:26:10.964Z</time></trkpt><trkpt lat="43.972586524708746" lon="12.412016370953136"><ele>127.33333333333333</ele><time>2026-05-01T12:26:11.964Z</time></trkpt><trkpt lat="43.972656946412854" lon="12.411964400209063"><ele>127.66666666666666</ele><time>2026-05-01T12:26:12.964Z</time></trkpt><trkpt lat="43.972726504744735" lon="12.411911730029393"><ele>128.0</ele><time>2026-05-01T12:26:13.964Z</time></trkpt><trkpt lat="43.97276272127579" lon="12.41182556852404"><ele>128.0</ele><time>2026-05-01T12:26:14.964Z</time></trkpt><trkpt lat="43.97273723900324" lon="12.411716974713054"><ele>128.0</ele><time>2026-05-01T12:26:15.964Z</time></trkpt><trkpt lat="43.9726912830442" lon="12.41162253911791"><ele>128.0</ele><time>2026-05-01T12:26:16.964Z</time></trkpt><trkpt lat="43.97259288802534" lon="12.411591308847093"><ele>128.0</ele><time>2026-05-01T12:26:17.964Z</time></trkpt><trkpt lat="43.972503301258904" lon="12.411609826067966"><ele>128.0</ele><time>2026-05-01T12:26:18.964Z</time></trkpt><trkpt lat="43.97240769550457" lon="12.41166358967144"><ele>126.25</ele><time>2026-05-01T12:26:19.964Z</time></trkpt><trkpt lat="43.97228630604538" lon="12.411755802797547"><ele>124.5</ele><time>2026-05-01T12:26:20.964Z</time></trkpt><trkpt lat="43.972155759328" lon="12.411839343545013"><ele>122.75</ele><time>2026-05-01T12:26:21.964Z</time></trkpt><trkpt lat="43.97203241772442" lon="12.41191401215826"><ele>121.0</ele><time>2026-05-01T12:26:22.964Z</time></trkpt><trkpt lat="43.971909619027635" lon="12.411983954264377"><ele>121.0</ele><time>2026-05-01T12:26:23.964Z</time></trkpt><trkpt lat="43.97177854717042" lon="12.4120256708748"><ele>121.0</ele><time>2026-05-01T12:26:24.964Z</time></trkpt><trkpt lat="43.9716512672976" lon="12.41209095351785"><ele>121.0</ele><time>2026-05-01T12:26:25.964Z</time></trkpt><trkpt lat="43.97151890151495" lon="12.41210362302448"><ele>121.0</ele><time>2026-05-01T12:26:26.964Z</time></trkpt><trkpt lat="43.97137828623156" lon="12.412155342928246"><ele>119.66666666666667</ele><time>2026-05-01T12:26:27.964Z</time></trkpt><trkpt lat="43.97120484040832" lon="12.412213509082397"><ele>118.33333333333334</ele><time>2026-05-01T12:26:28.964Z</time></trkpt><trkpt lat="43.97100630197655" lon="12.412261296234957"><ele>117.0</ele><time>2026-05-01T12:26:29.964Z</time></trkpt><trkpt lat="43.97079622322093" lon="12.412286623393154"><ele>116.33333333333334</ele><time>2026-05-01T12:26:30.964Z</time></trkpt><trkpt lat="43.97057425555338" lon="12.412291191874496"><ele>115.66666666666667</ele><time>2026-05-01T12:26:31.964Z</time></trkpt><trkpt lat="43.9703518662555" lon="12.412286962324616"><ele>115.0</ele><time>2026-05-01T12:26:32.964Z</time></trkpt><trkpt lat="43.9701417078724" lon="12.412264157926309"><ele>114.66666666666667</ele><time>2026-05-01T12:26:33.964Z</time></trkpt><trkpt lat="43.969946194059865" lon="12.412209052251814"><ele>114.33333333333334</ele><time>2026-05-01T12:26:34.964Z</time></trkpt><trkpt lat="43.969757141939155" lon="12.412142380148202"><ele>114.0</ele><time>2026-05-01T12:26:35.964Z</time></trkpt><trkpt lat="43.969572153472114" lon="12.412063570853782"><ele>114.0</ele><time>2026-05-01T12:26:36.964Z</time></trkpt><trkpt lat="43.96938875139294" lon="12.411976867528447"><ele>114.0</ele><time>2026-05-01T12:26:37.964Z</time></trkpt><trkpt lat="43.969215424929054" lon="12.411866863623946"><ele>114.0</ele><time>2026-05-01T12:26:38.964Z</time></trkpt><trkpt lat="43.969051949208115" lon="12.411746152558514"><ele>114.0</ele><time>2026-05-01T12:26:39.964Z</time></trkpt><trkpt lat="43.96889080088891" lon="12.411618718181222"><ele>114.0</ele><time>2026-05-01T12:26:40.964Z</time></trkpt><trkpt lat="43.96873938380928" lon="12.41147390000691"><ele>114.0</ele><time>2026-05-01T12:26:41.964Z</time></trkpt><trkpt lat="43.96858509027851" lon="12.411314631423792"><ele>114.0</ele><time>2026-05-01T12:26:42.964Z</time></trkpt><trkpt lat="43.96844827373741" lon="12.411145305722355"><ele>114.0</ele><time>2026-05-01T12:26:43.964Z</time></trkpt><trkpt lat="43.96832085634082" lon="12.410957531264193"><ele>114.0</ele><time>2026-05-01T12:26:44.964Z</time></trkpt><trkpt lat="43.96819453982648" lon="12.41076905291338"><ele>114.0</ele><time>2026-05-01T12:26:45.964Z</time></trkpt><trkpt lat="43.968074282009844" lon="12.410575744556843"><ele>114.0</ele><time>2026-05-01T12:26:46.964Z</time></trkpt><trkpt lat="43.96798820569673" lon="12.410352722241386"><ele>114.0</ele><time>2026-05-01T12:26:47.964Z</time></trkpt><trkpt lat="43.96788484610294" lon="12.410130948836423"><ele>114.0</ele><time>2026-05-01T12:26:48.964Z</time></trkpt><trkpt lat="43.9677834123619" lon="12.409917908952812"><ele>114.0</ele><time>2026-05-01T12:26:49.964Z</time></trkpt><trkpt lat="43.967691606431494" lon="12.40969803126056"><ele>114.0</ele><time>2026-05-01T12:26:50.964Z</time></trkpt><trkpt lat="43.96759954757752" lon="12.409483971915275"><ele>115.0</ele><time>2026-05-01T12:26:51.964Z</time></trkpt><trkpt lat="43.96750089334803" lon="12.409269683814006"><ele>116.0</ele><time>2026-05-01T12:26:52.964Z</time></trkpt><trkpt lat="43.96740250366812" lon="12.409056017168382"><ele>117.0</ele><time>2026-05-01T12:26:53.964Z</time></trkpt><trkpt lat="43.96730429724338" lon="12.408842651678311"><ele>117.0</ele><time>2026-05-01T12:26:54.964Z</time></trkpt><trkpt lat="43.967202965363406" lon="12.408627344234098"><ele>117.0</ele><time>2026-05-01T12:26:55.964Z</time></trkpt><trkpt lat="43.967105183658305" lon="12.40840228373484"><ele>117.0</ele><time>2026-05-01T12:26:56.964Z</time></trkpt><trkpt lat="43.967011037573045" lon="12.408179057040668"><ele>116.66666666666666</ele><time>2026-05-01T12:26:57.964Z</time></trkpt><trkpt lat="43.96691159124682" lon="12.407959071766395"><ele>116.33333333333333</ele><time>2026-05-01T12:26:58.964Z</time></trkpt><trkpt lat="43.96681259729403" lon="12.407745570584689"><ele>116.0</ele><time>2026-05-01T12:26:59.964Z</time></trkpt><trkpt lat="43.96671857451031" lon="12.407527215993388"><ele>117.0</ele><time>2026-05-01T12:27:00.964Z</time></trkpt><trkpt lat="43.96661970949634" lon="12.407308225896811"><ele>118.0</ele><time>2026-05-01T12:27:01.964Z</time></trkpt><trkpt lat="43.96651641265736" lon="12.407091129560596"><ele>119.0</ele><time>2026-05-01T12:27:02.964Z</time></trkpt><trkpt lat="43.96641590347474" lon="12.406877923394982"><ele>119.0</ele><time>2026-05-01T12:27:03.964Z</time></trkpt><trkpt lat="43.966312295960535" lon="12.406667558536926"><ele>119.0</ele><time>2026-05-01T12:27:04.964Z</time></trkpt><trkpt lat="43.96620167089499" lon="12.40646137044492"><ele>119.0</ele><time>2026-05-01T12:27:05.964Z</time></trkpt><trkpt lat="43.966085256683215" lon="12.406264270582518"><ele>118.66666666666666</ele><time>2026-05-01T12:27:06.964Z</time></trkpt><trkpt lat="43.96596532842542" lon="12.406072132930458"><ele>118.33333333333334</ele><time>2026-05-01T12:27:07.964Z</time></trkpt><trkpt lat="43.96584137338138" lon="12.405878804319293"><ele>118.0</ele><time>2026-05-01T12:27:08.964Z</time></trkpt><trkpt lat="43.96571550979022" lon="12.405690318840318"><ele>118.66666666666667</ele><time>2026-05-01T12:27:09.964Z</time></trkpt><trkpt lat="43.96558493499758" lon="12.4055084858589"><ele>119.33333333333334</ele><time>2026-05-01T12:27:10.964Z</time></trkpt><trkpt lat="43.965454498429565" lon="12.405330405805497"><ele>120.0</ele><time>2026-05-01T12:27:11.964Z</time></trkpt><trkpt lat="43.96531586601143" lon="12.405147395798313"><ele>120.0</ele><time>2026-05-01T12:27:12.964Z</time></trkpt><trkpt lat="43.9651795030985" lon="12.40497238202407"><ele>120.0</ele><time>2026-05-01T12:27:13.964Z</time></trkpt><trkpt lat="43.96503940251365" lon="12.404794875992676"><ele>120.0</ele><time>2026-05-01T12:27:14.964Z</time></trkpt><trkpt lat="43.964904084890655" lon="12.404605935234363"><ele>120.33333333333334</ele><time>2026-05-01T12:27:15.964Z</time></trkpt><trkpt lat="43.964773965117196" lon="12.404418852225794"><ele>120.66666666666667</ele><time>2026-05-01T12:27:16.964Z</time></trkpt><trkpt lat="43.96464450647902" lon="12.404234565323979"><ele>121.0</ele><time>2026-05-01T12:27:17.964Z</time></trkpt><trkpt lat="43.96451310957224" lon="12.404052048054114"><ele>121.0</ele><time>2026-05-01T12:27:18.964Z</time></trkpt><trkpt lat="43.964377027686126" lon="12.403873683789481"><ele>121.0</ele><time>2026-05-01T12:27:19.964Z</time></trkpt><trkpt lat="43.96424422238093" lon="12.403696152921734"><ele>121.0</ele><time>2026-05-01T12:27:20.964Z</time></trkpt><trkpt lat="43.964110233501856" lon="12.403517421659767"><ele>123.66666666666667</ele><time>2026-05-01T12:27:21.964Z</time></trkpt><trkpt lat="43.963968490791004" lon="12.40335584628386"><ele>126.33333333333334</ele><time>2026-05-01T12:27:22.964Z</time></trkpt><trkpt lat="43.963815999015424" lon="12.403198468284698"><ele>129.0</ele><time>2026-05-01T12:27:23.964Z</time></trkpt><trkpt lat="43.963662093819735" lon="12.403049318427108"><ele>129.0</ele><time>2026-05-01T12:27:24.964Z</time></trkpt><trkpt lat="43.96350669960459" lon="12.402909110706787"><ele>129.0</ele><time>2026-05-01T12:27:25.964Z</time></trkpt><trkpt lat="43.96334433350373" lon="12.40277050711576"><ele>129.0</ele><time>2026-05-01T12:27:26.964Z</time></trkpt><trkpt lat="43.96317547379495" lon="12.4026568026071"><ele>129.0</ele><time>2026-05-01T12:27:27.964Z</time></trkpt><trkpt lat="43.963005931850475" lon="12.402548422091892"><ele>129.0</ele><time>2026-05-01T12:27:28.964Z</time></trkpt><trkpt lat="43.96283572843355" lon="12.402441608432593"><ele>129.0</ele><time>2026-05-01T12:27:29.964Z</time></trkpt><trkpt lat="43.962665894107545" lon="12.40233734539054"><ele>129.0</ele><time>2026-05-01T12:27:30.964Z</time></trkpt><trkpt lat="43.96249037859638" lon="12.402243195669186"><ele>129.0</ele><time>2026-05-01T12:27:31.964Z</time></trkpt><trkpt lat="43.962327529185785" lon="12.402152093474898"><ele>129.0</ele><time>2026-05-01T12:27:32.964Z</time></trkpt><trkpt lat="43.96217271703298" lon="12.402063370447763"><ele>129.0</ele><time>2026-05-01T12:27:33.964Z</time></trkpt><trkpt lat="43.96202349103127" lon="12.401971550458574"><ele>129.0</ele><time>2026-05-01T12:27:34.964Z</time></trkpt><trkpt lat="43.96188680890107" lon="12.401887718457036"><ele>129.0</ele><time>2026-05-01T12:27:35.964Z</time></trkpt><trkpt lat="43.961757801800225" lon="12.40181086584143"><ele>129.5</ele><time>2026-05-01T12:27:36.964Z</time></trkpt><trkpt lat="43.96164205887308" lon="12.40173446253894"><ele>130.0</ele><time>2026-05-01T12:27:37.964Z</time></trkpt><trkpt lat="43.961529674948125" lon="12.401645439147535"><ele>130.5</ele><time>2026-05-01T12:27:38.964Z</time></trkpt><trkpt lat="43.96141221787387" lon="12.401518005736072"><ele>131.0</ele><time>2026-05-01T12:27:39.964Z</time></trkpt><trkpt lat="43.961263831225445" lon="12.40140391242961"><ele>130.33333333333331</ele><time>2026-05-01T12:27:40.964Z</time></trkpt><trkpt lat="43.96111621050072" lon="12.401287086329173"><ele>129.66666666666666</ele><time>2026-05-01T12:27:41.964Z</time></trkpt><trkpt lat="43.96098081560577" lon="12.401131025186618"><ele>129.0</ele><time>2026-05-01T12:27:42.964Z</time></trkpt><trkpt lat="43.96084743394843" lon="12.400941114782366"><ele>129.0</ele><time>2026-05-01T12:27:43.964Z</time></trkpt><trkpt lat="43.960713694453695" lon="12.400746683607728"><ele>129.0</ele><time>2026-05-01T12:27:44.964Z</time></trkpt><trkpt lat="43.96058425086526" lon="12.400528217003085"><ele>129.0</ele><time>2026-05-01T12:27:45.964Z</time></trkpt><trkpt lat="43.96046658235814" lon="12.400311723518334"><ele>127.66666666666666</ele><time>2026-05-01T12:27:46.964Z</time></trkpt><trkpt lat="43.960339772448826" lon="12.4001084568675"><ele>126.33333333333333</ele><time>2026-05-01T12:27:47.964Z</time></trkpt><trkpt lat="43.96024098886925" lon="12.399892637943584"><ele>125.0</ele><time>2026-05-01T12:27:48.964Z</time></trkpt><trkpt lat="43.960131051895736" lon="12.399680679480788"><ele>125.0</ele><time>2026-05-01T12:27:49.964Z</time></trkpt><trkpt lat="43.960015730864484" lon="12.399472053016853"><ele>125.0</ele><time>2026-05-01T12:27:50.964Z</time></trkpt><trkpt lat="43.959904009804745" lon="12.399263897625099"><ele>125.0</ele><time>2026-05-01T12:27:51.964Z</time></trkpt><trkpt lat="43.959797947160816" lon="12.399061482212481"><ele>125.0</ele><time>2026-05-01T12:27:52.964Z</time></trkpt><trkpt lat="43.95969447375113" lon="12.398853563138777"><ele>125.0</ele><time>2026-05-01T12:27:53.964Z</time></trkpt><trkpt lat="43.9595923162515" lon="12.398645870755702"><ele>125.0</ele><time>2026-05-01T12:27:54.963Z</time></trkpt><trkpt lat="43.95948768720319" lon="12.398440534893403"><ele>127.33333333333333</ele><time>2026-05-01T12:27:55.963Z</time></trkpt><trkpt lat="43.95938608648646" lon="12.398238906748958"><ele>129.66666666666666</ele><time>2026-05-01T12:27:56.963Z</time></trkpt><trkpt lat="43.95928480620157" lon="12.398037963721348"><ele>132.0</ele><time>2026-05-01T12:27:57.964Z</time></trkpt><trkpt lat="43.95919124033302" lon="12.397827350661895"><ele>133.66666666666666</ele><time>2026-05-01T12:27:58.964Z</time></trkpt><trkpt lat="43.95910341580086" lon="12.39761026649151"><ele>135.33333333333331</ele><time>2026-05-01T12:27:59.963Z</time></trkpt><trkpt lat="43.95901895178523" lon="12.397390902383105"><ele>137.0</ele><time>2026-05-01T12:28:00.963Z</time></trkpt><trkpt lat="43.95893120655057" lon="12.397172096472108"><ele>134.66666666666666</ele><time>2026-05-01T12:28:01.963Z</time></trkpt><trkpt lat="43.958843779143564" lon="12.396953104973079"><ele>132.33333333333334</ele><time>2026-05-01T12:28:02.963Z</time></trkpt><trkpt lat="43.958759817946124" lon="12.396732939041163"><ele>130.0</ele><time>2026-05-01T12:28:03.963Z</time></trkpt><trkpt lat="43.95867580773096" lon="12.396510176540852"><ele>129.0</ele><time>2026-05-01T12:28:04.963Z</time></trkpt><trkpt lat="43.95859823356191" lon="12.396286326024082"><ele>128.0</ele><time>2026-05-01T12:28:05.963Z</time></trkpt><trkpt lat="43.95851663535691" lon="12.396059070350297"><ele>127.0</ele><time>2026-05-01T12:28:06.963Z</time></trkpt><trkpt lat="43.95843630741806" lon="12.395830247856635"><ele>128.66666666666669</ele><time>2026-05-01T12:28:07.963Z</time></trkpt><trkpt lat="43.958355930031395" lon="12.395603958443536"><ele>130.33333333333334</ele><time>2026-05-01T12:28:08.963Z</time></trkpt><trkpt lat="43.958273260369126" lon="12.395377944599758"><ele>132.0</ele><time>2026-05-01T12:28:09.963Z</time></trkpt><trkpt lat="43.95818968205293" lon="12.395149639232132"><ele>132.0</ele><time>2026-05-01T12:28:10.963Z</time></trkpt><trkpt lat="43.95810949591727" lon="12.394917427582065"><ele>132.0</ele><time>2026-05-01T12:28:11.963Z</time></trkpt><trkpt lat="43.95802929992593" lon="12.394685120023771"><ele>132.0</ele><time>2026-05-01T12:28:12.963Z</time></trkpt><trkpt lat="43.957948765721184" lon="12.394455008843355"><ele>130.66666666666666</ele><time>2026-05-01T12:28:13.963Z</time></trkpt><trkpt lat="43.957857201975955" lon="12.394226677097068"><ele>129.33333333333331</ele><time>2026-05-01T12:28:14.963Z</time></trkpt><trkpt lat="43.957773479528015" lon="12.393992332252893"><ele>128.0</ele><time>2026-05-01T12:28:15.963Z</time></trkpt><trkpt lat="43.95769261489496" lon="12.393755603050552"><ele>127.66666666666666</ele><time>2026-05-01T12:28:16.963Z</time></trkpt><trkpt lat="43.957613971744834" lon="12.393518529708127"><ele>127.33333333333334</ele><time>2026-05-01T12:28:17.963Z</time></trkpt><trkpt lat="43.95752916202185" lon="12.39328352401548"><ele>127.0</ele><time>2026-05-01T12:28:18.963Z</time></trkpt><trkpt lat="43.95744378199175" lon="12.393047073886066"><ele>128.33333333333334</ele><time>2026-05-01T12:28:19.963Z</time></trkpt><trkpt lat="43.957355863492765" lon="12.392807810300827"><ele>129.66666666666666</ele><time>2026-05-01T12:28:20.963Z</time></trkpt><trkpt lat="43.95726961842946" lon="12.392566701579797"><ele>131.0</ele><time>2026-05-01T12:28:21.963Z</time></trkpt><trkpt lat="43.95719417021214" lon="12.39231428120256"><ele>130.66666666666666</ele><time>2026-05-01T12:28:22.963Z</time></trkpt><trkpt lat="43.957129914171105" lon="12.392061389766294"><ele>130.33333333333334</ele><time>2026-05-01T12:28:23.963Z</time></trkpt><trkpt lat="43.95707540697841" lon="12.391802280171714"><ele>130.0</ele><time>2026-05-01T12:28:24.963Z</time></trkpt><trkpt lat="43.957032989836755" lon="12.391534384879531"><ele>130.0</ele><time>2026-05-01T12:28:25.963Z</time></trkpt><trkpt lat="43.95700115699958" lon="12.391264064536966"><ele>130.0</ele><time>2026-05-01T12:28:26.963Z</time></trkpt><trkpt lat="43.956987148720685" lon="12.390991680028545"><ele>130.0</ele><time>2026-05-01T12:28:27.963Z</time></trkpt><trkpt lat="43.956988077568546" lon="12.390720236521949"><ele>130.33333333333334</ele><time>2026-05-01T12:28:28.963Z</time></trkpt><trkpt lat="43.95699438648149" lon="12.390447353768435"><ele>130.66666666666666</ele><time>2026-05-01T12:28:29.963Z</time></trkpt><trkpt lat="43.95700486829744" lon="12.390176561456766"><ele>131.0</ele><time>2026-05-01T12:28:30.963Z</time></trkpt><trkpt lat="43.95702603643151" lon="12.389909497005828"><ele>130.66666666666666</ele><time>2026-05-01T12:28:31.963Z</time></trkpt><trkpt lat="43.95705920058501" lon="12.38964339163022"><ele>130.33333333333334</ele><time>2026-05-01T12:28:32.963Z</time></trkpt><trkpt lat="43.9570984699471" lon="12.389383197828197"><ele>130.0</ele><time>2026-05-01T12:28:33.963Z</time></trkpt><trkpt lat="43.95715207522402" lon="12.389129950412267"><ele>130.0</ele><time>2026-05-01T12:28:34.963Z</time></trkpt><trkpt lat="43.95721557545663" lon="12.388885669934321"><ele>130.0</ele><time>2026-05-01T12:28:35.963Z</time></trkpt><trkpt lat="43.95727906317098" lon="12.388638516606145"><ele>130.0</ele><time>2026-05-01T12:28:36.963Z</time></trkpt><trkpt lat="43.95734908166851" lon="12.388379942110056"><ele>129.66666666666669</ele><time>2026-05-01T12:28:37.963Z</time></trkpt><trkpt lat="43.95742090783901" lon="12.388104805746027"><ele>129.33333333333334</ele><time>2026-05-01T12:28:38.963Z</time></trkpt><trkpt lat="43.95750003372131" lon="12.387823464136853"><ele>129.0</ele><time>2026-05-01T12:28:39.963Z</time></trkpt><trkpt lat="43.95757893222084" lon="12.387520964472541"><ele>129.0</ele><time>2026-05-01T12:28:40.963Z</time></trkpt><trkpt lat="43.95766451364849" lon="12.387197254247077"><ele>129.0</ele><time>2026-05-01T12:28:41.963Z</time></trkpt><trkpt lat="43.95774503977759" lon="12.386868405001282"><ele>130.66666666666666</ele><time>2026-05-01T12:28:42.963Z</time></trkpt><trkpt lat="43.95782115870449" lon="12.386572365277848"><ele>132.33333333333331</ele><time>2026-05-01T12:28:43.963Z</time></trkpt><trkpt lat="43.95787600655385" lon="12.386295539727765"><ele>134.0</ele><time>2026-05-01T12:28:44.963Z</time></trkpt><trkpt lat="43.95790225704208" lon="12.386026696764894"><ele>134.33333333333331</ele><time>2026-05-01T12:28:45.963Z</time></trkpt><trkpt lat="43.95790993684103" lon="12.385744019438453"><ele>134.66666666666666</ele><time>2026-05-01T12:28:46.963Z</time></trkpt><trkpt lat="43.95789476905598" lon="12.385446406312354"><ele>135.0</ele><time>2026-05-01T12:28:47.963Z</time></trkpt><trkpt lat="43.957874520440974" lon="12.38515913391526"><ele>134.66666666666666</ele><time>2026-05-01T12:28:48.963Z</time></trkpt><trkpt lat="43.95783852452425" lon="12.384890893802515"><ele>134.33333333333331</ele><time>2026-05-01T12:28:49.963Z</time></trkpt><trkpt lat="43.95779183069526" lon="12.384645597810241"><ele>134.0</ele><time>2026-05-01T12:28:50.963Z</time></trkpt><trkpt lat="43.957725572625904" lon="12.384412182640103"><ele>134.0</ele><time>2026-05-01T12:28:51.963Z</time></trkpt><trkpt lat="43.957646269155525" lon="12.384184279752686"><ele>134.0</ele><time>2026-05-01T12:28:52.963Z</time></trkpt><trkpt lat="43.95755901190873" lon="12.383955854813118"><ele>134.0</ele><time>2026-05-01T12:28:53.963Z</time></trkpt><trkpt lat="43.95746091142686" lon="12.383721165063907"><ele>136.0</ele><time>2026-05-01T12:28:54.963Z</time></trkpt><trkpt lat="43.957361485698335" lon="12.383479628428248"><ele>138.0</ele><time>2026-05-01T12:28:55.963Z</time></trkpt><trkpt lat="43.95725924611569" lon="12.383234661098884"><ele>140.0</ele><time>2026-05-01T12:28:56.963Z</time></trkpt><trkpt lat="43.95713961967784" lon="12.382974807766045"><ele>140.0</ele><time>2026-05-01T12:28:57.963Z</time></trkpt><trkpt lat="43.95702734643911" lon="12.382682923171416"><ele>140.0</ele><time>2026-05-01T12:28:58.963Z</time></trkpt><trkpt lat="43.95689471808528" lon="12.382367068854908"><ele>138.0</ele><time>2026-05-01T12:28:59.963Z</time></trkpt><trkpt lat="43.956759767746995" lon="12.382033855557246"><ele>136.0</ele><time>2026-05-01T12:29:00.963Z</time></trkpt><trkpt lat="43.956614348476776" lon="12.381698320685786"><ele>141.5</ele><time>2026-05-01T12:29:01.963Z</time></trkpt><trkpt lat="43.95647607892878" lon="12.381370855472957"><ele>147.0</ele><time>2026-05-01T12:29:02.963Z</time></trkpt><trkpt lat="43.956352532122466" lon="12.381069663214705"><ele>147.0</ele><time>2026-05-01T12:29:03.963Z</time></trkpt><trkpt lat="43.956244713940706" lon="12.380792187739178"><ele>147.0</ele><time>2026-05-01T12:29:04.963Z</time></trkpt><trkpt lat="43.95613404803967" lon="12.380531721374318"><ele>147.0</ele><time>2026-05-01T12:29:05.963Z</time></trkpt><trkpt lat="43.956040910391216" lon="12.380302475608595"><ele>148.5</ele><time>2026-05-01T12:29:06.963Z</time></trkpt><trkpt lat="43.95596994056344" lon="12.380132068817206"><ele>150.0</ele><time>2026-05-01T12:29:07.963Z</time></trkpt><trkpt lat="43.955916860408436" lon="12.37997431068501"><ele>151.5</ele><time>2026-05-01T12:29:08.963Z</time></trkpt><trkpt lat="43.95586561365235" lon="12.379820348352228"><ele>153.0</ele><time>2026-05-01T12:29:09.963Z</time></trkpt><trkpt lat="43.95583349094544" lon="12.379664130329429"><ele>153.0</ele><time>2026-05-01T12:29:10.963Z</time></trkpt><trkpt lat="43.95580854594404" lon="12.379513104432728"><ele>153.0</ele><time>2026-05-01T12:29:11.963Z</time></trkpt><trkpt lat="43.95578756647396" lon="12.37936203955715"><ele>153.0</ele><time>2026-05-01T12:29:12.963Z</time></trkpt><trkpt lat="43.955768348332555" lon="12.379225459450465"><ele>153.0</ele><time>2026-05-01T12:29:13.963Z</time></trkpt><trkpt lat="43.95575927225084" lon="12.37913730106963"><ele>153.0</ele><time>2026-05-01T12:29:14.963Z</time></trkpt><trkpt lat="43.95574514028801" lon="12.379046558619017"><ele>153.0</ele><time>2026-05-01T12:29:16.963Z</time></trkpt><trkpt lat="43.955733365212396" lon="12.378876954695313"><ele>153.0</ele><time>2026-05-01T12:29:18.963Z</time></trkpt><trkpt lat="43.95573452778815" lon="12.378752242262474"><ele>153.0</ele><time>2026-05-01T12:29:19.963Z</time></trkpt><trkpt lat="43.95573465208611" lon="12.37861919360066"><ele>153.0</ele><time>2026-05-01T12:29:20.963Z</time></trkpt><trkpt lat="43.9557264220029" lon="12.378480098265241"><ele>153.0</ele><time>2026-05-01T12:29:21.963Z</time></trkpt><trkpt lat="43.95573032987793" lon="12.378321820721855"><ele>152.5</ele><time>2026-05-01T12:29:22.963Z</time></trkpt><trkpt lat="43.955730041111444" lon="12.378145324426738"><ele>152.0</ele><time>2026-05-01T12:29:23.963Z</time></trkpt><trkpt lat="43.95572206307151" lon="12.377979741322898"><ele>151.5</ele><time>2026-05-01T12:29:24.963Z</time></trkpt><trkpt lat="43.95567045361079" lon="12.377841605621242"><ele>151.0</ele><time>2026-05-01T12:29:25.963Z</time></trkpt><trkpt lat="43.95561012608589" lon="12.377686211979261"><ele>149.66666666666669</ele><time>2026-05-01T12:29:26.963Z</time></trkpt><trkpt lat="43.95554057607679" lon="12.377506280489305"><ele>148.33333333333334</ele><time>2026-05-01T12:29:27.963Z</time></trkpt><trkpt lat="43.9554615850838" lon="12.377284966813301"><ele>147.0</ele><time>2026-05-01T12:29:28.963Z</time></trkpt><trkpt lat="43.955376254462884" lon="12.377059569406631"><ele>145.25</ele><time>2026-05-01T12:29:29.963Z</time></trkpt><trkpt lat="43.955292514029736" lon="12.37686340338412"><ele>143.5</ele><time>2026-05-01T12:29:30.963Z</time></trkpt><trkpt lat="43.955217036733096" lon="12.376678453138318"><ele>141.75</ele><time>2026-05-01T12:29:31.963Z</time></trkpt><trkpt lat="43.9551693827128" lon="12.376510960431268"><ele>140.0</ele><time>2026-05-01T12:29:32.963Z</time></trkpt><trkpt lat="43.95515291088081" lon="12.376370226359771"><ele>139.75</ele><time>2026-05-01T12:29:33.963Z</time></trkpt><trkpt lat="43.955147081558" lon="12.3762240809905"><ele>139.5</ele><time>2026-05-01T12:29:34.963Z</time></trkpt><trkpt lat="43.95514195841191" lon="12.376052035461354"><ele>139.25</ele><time>2026-05-01T12:29:35.963Z</time></trkpt><trkpt lat="43.95515069154165" lon="12.375867422928712"><ele>139.0</ele><time>2026-05-01T12:29:36.963Z</time></trkpt><trkpt lat="43.95514885033795" lon="12.375675942224408"><ele>138.25</ele><time>2026-05-01T12:29:37.963Z</time></trkpt><trkpt lat="43.95514601202813" lon="12.375485940946678"><ele>137.5</ele><time>2026-05-01T12:29:38.963Z</time></trkpt><trkpt lat="43.955146620944795" lon="12.375302149045448"><ele>136.75</ele><time>2026-05-01T12:29:39.963Z</time></trkpt><trkpt lat="43.95514149742403" lon="12.375129472436068"><ele>136.0</ele><time>2026-05-01T12:29:40.963Z</time></trkpt><trkpt lat="43.95513830310164" lon="12.374966226108848"><ele>136.0</ele><time>2026-05-01T12:29:41.963Z</time></trkpt><trkpt lat="43.955135155329394" lon="12.374812159772745"><ele>136.0</ele><time>2026-05-01T12:29:42.963Z</time></trkpt><trkpt lat="43.95508889307847" lon="12.374675301239204"><ele>136.0</ele><time>2026-05-01T12:29:43.963Z</time></trkpt><trkpt lat="43.955038541294805" lon="12.37454872015606"><ele>136.0</ele><time>2026-05-01T12:29:44.963Z</time></trkpt><trkpt lat="43.95497650443212" lon="12.374403049446183"><ele>136.0</ele><time>2026-05-01T12:29:45.963Z</time></trkpt><trkpt lat="43.954915948861846" lon="12.37426041159372"><ele>140.25</ele><time>2026-05-01T12:29:46.963Z</time></trkpt><trkpt lat="43.95485353298517" lon="12.374114552243338"><ele>144.5</ele><time>2026-05-01T12:29:47.963Z</time></trkpt><trkpt lat="43.95479206492423" lon="12.373973800814317"><ele>148.75</ele><time>2026-05-01T12:29:48.963Z</time></trkpt><trkpt lat="43.95474184007787" lon="12.373819062988792"><ele>153.0</ele><time>2026-05-01T12:29:49.963Z</time></trkpt><trkpt lat="43.95467417870028" lon="12.37367355887711"><ele>153.0</ele><time>2026-05-01T12:29:50.963Z</time></trkpt><trkpt lat="43.954604758868875" lon="12.373527476344332"><ele>153.0</ele><time>2026-05-01T12:29:51.963Z</time></trkpt><trkpt lat="43.95453642990104" lon="12.373392093751272"><ele>153.0</ele><time>2026-05-01T12:29:52.963Z</time></trkpt><trkpt lat="43.95446823980023" lon="12.373240356233252"><ele>153.0</ele><time>2026-05-01T12:29:53.963Z</time></trkpt><trkpt lat="43.95440951532488" lon="12.373089937640058"><ele>152.5</ele><time>2026-05-01T12:29:54.963Z</time></trkpt><trkpt lat="43.95434483057096" lon="12.3729492569909"><ele>152.0</ele><time>2026-05-01T12:29:55.963Z</time></trkpt><trkpt lat="43.95427368304091" lon="12.372806406746014"><ele>151.5</ele><time>2026-05-01T12:29:56.963Z</time></trkpt><trkpt lat="43.95420241626575" lon="12.372654492964967"><ele>151.0</ele><time>2026-05-01T12:29:57.963Z</time></trkpt><trkpt lat="43.95413629909692" lon="12.372511484304246"><ele>153.0</ele><time>2026-05-01T12:29:58.963Z</time></trkpt><trkpt lat="43.95407328556463" lon="12.372369738393694"><ele>155.0</ele><time>2026-05-01T12:29:59.963Z</time></trkpt><trkpt lat="43.95400262486378" lon="12.372230264534565"><ele>157.0</ele><time>2026-05-01T12:30:00.963Z</time></trkpt><trkpt lat="43.953941533684144" lon="12.372096860604303"><ele>159.0</ele><time>2026-05-01T12:30:01.963Z</time></trkpt><trkpt lat="43.95388148814953" lon="12.371957382985983"><ele>159.0</ele><time>2026-05-01T12:30:02.963Z</time></trkpt><trkpt lat="43.95380358815822" lon="12.371811236199102"><ele>159.0</ele><time>2026-05-01T12:30:03.962Z</time></trkpt><trkpt lat="43.953738314543344" lon="12.371685175425574"><ele>159.0</ele><time>2026-05-01T12:30:04.962Z</time></trkpt><trkpt lat="43.95368163128545" lon="12.371547004827518"><ele>159.0</ele><time>2026-05-01T12:30:05.962Z</time></trkpt><trkpt lat="43.95361907649862" lon="12.371416192988415"><ele>158.75</ele><time>2026-05-01T12:30:06.962Z</time></trkpt><trkpt lat="43.95355001695905" lon="12.371283898863723"><ele>158.5</ele><time>2026-05-01T12:30:07.962Z</time></trkpt><trkpt lat="43.95348737842531" lon="12.371145836206127"><ele>158.25</ele><time>2026-05-01T12:30:08.962Z</time></trkpt><trkpt lat="43.95342197531" lon="12.370997130579827"><ele>158.0</ele><time>2026-05-01T12:30:09.962Z</time></trkpt><trkpt lat="43.9533526310115" lon="12.370852188038198"><ele>159.0</ele><time>2026-05-01T12:30:10.962Z</time></trkpt><trkpt lat="43.95328898464399" lon="12.370705150912068"><ele>160.0</ele><time>2026-05-01T12:30:11.962Z</time></trkpt><trkpt lat="43.95320658521894" lon="12.3705620703697"><ele>161.0</ele><time>2026-05-01T12:30:12.962Z</time></trkpt><trkpt lat="43.95313131794416" lon="12.370409906079367"><ele>162.0</ele><time>2026-05-01T12:30:13.962Z</time></trkpt><trkpt lat="43.953057806830486" lon="12.370257315029995"><ele>162.0</ele><time>2026-05-01T12:30:14.962Z</time></trkpt><trkpt lat="43.95298791565543" lon="12.370100276796215"><ele>162.0</ele><time>2026-05-01T12:30:15.962Z</time></trkpt><trkpt lat="43.9529277781167" lon="12.369945314699452"><ele>162.0</ele><time>2026-05-01T12:30:16.962Z</time></trkpt><trkpt lat="43.952861983227386" lon="12.369789869551294"><ele>162.0</ele><time>2026-05-01T12:30:17.962Z</time></trkpt><trkpt lat="43.952795297146935" lon="12.369637797530059"><ele>161.5</ele><time>2026-05-01T12:30:18.962Z</time></trkpt><trkpt lat="43.95272229765822" lon="12.36948563111619"><ele>161.0</ele><time>2026-05-01T12:30:19.962Z</time></trkpt><trkpt lat="43.95265051729946" lon="12.36933821280151"><ele>160.5</ele><time>2026-05-01T12:30:20.962Z</time></trkpt><trkpt lat="43.9525881745456" lon="12.3691987441836"><ele>160.0</ele><time>2026-05-01T12:30:21.962Z</time></trkpt><trkpt lat="43.95253407461467" lon="12.369073898831045"><ele>160.83333333333334</ele><time>2026-05-01T12:30:22.962Z</time></trkpt><trkpt lat="43.95248148421406" lon="12.368964217174407"><ele>161.66666666666669</ele><time>2026-05-01T12:30:23.962Z</time></trkpt><trkpt lat="43.952414130591535" lon="12.368876884867111"><ele>162.5</ele><time>2026-05-01T12:30:24.962Z</time></trkpt><trkpt lat="43.952345892402505" lon="12.368804279675944"><ele>163.33333333333334</ele><time>2026-05-01T12:30:25.962Z</time></trkpt><trkpt lat="43.952271239954015" lon="12.368751926674747"><ele>164.16666666666666</ele><time>2026-05-01T12:30:26.962Z</time></trkpt><trkpt lat="43.95220106359533" lon="12.368708189410436"><ele>165.0</ele><time>2026-05-01T12:30:27.962Z</time></trkpt><trkpt lat="43.95213047919093" lon="12.368679958185753"><ele>165.0</ele><time>2026-05-01T12:30:28.962Z</time></trkpt><trkpt lat="43.952029452707656" lon="12.368664182686791"><ele>165.0</ele><time>2026-05-01T12:30:30.962Z</time></trkpt><trkpt lat="43.95197952434263" lon="12.368586731671114"><ele>165.0</ele><time>2026-05-01T12:30:35.962Z</time></trkpt><trkpt lat="43.951884558396415" lon="12.368423506930888"><ele>165.0</ele><time>2026-05-01T12:30:37.962Z</time></trkpt><trkpt lat="43.95179425840976" lon="12.368310783656142"><ele>165.0</ele><time>2026-05-01T12:30:38.962Z</time></trkpt><trkpt lat="43.95169085382491" lon="12.36817973526096"><ele>166.0</ele><time>2026-05-01T12:30:39.962Z</time></trkpt><trkpt lat="43.95156746291743" lon="12.368043018207391"><ele>167.0</ele><time>2026-05-01T12:30:40.962Z</time></trkpt><trkpt lat="43.951423103500105" lon="12.36787138976277"><ele>168.0</ele><time>2026-05-01T12:30:41.962Z</time></trkpt><trkpt lat="43.951274251784405" lon="12.367705226485416"><ele>166.33333333333334</ele><time>2026-05-01T12:30:42.962Z</time></trkpt><trkpt lat="43.95113665672788" lon="12.367545902554756"><ele>164.66666666666669</ele><time>2026-05-01T12:30:43.962Z</time></trkpt><trkpt lat="43.950997169369835" lon="12.367384656021265"><ele>163.0</ele><time>2026-05-01T12:30:44.962Z</time></trkpt><trkpt lat="43.95085874904611" lon="12.367225871513957"><ele>161.0</ele><time>2026-05-01T12:30:45.962Z</time></trkpt><trkpt lat="43.95071634351395" lon="12.367068112939132"><ele>159.0</ele><time>2026-05-01T12:30:46.962Z</time></trkpt><trkpt lat="43.95056730882782" lon="12.366907842054136"><ele>157.0</ele><time>2026-05-01T12:30:47.962Z</time></trkpt><trkpt lat="43.95042520537469" lon="12.366742767027466"><ele>157.0</ele><time>2026-05-01T12:30:48.962Z</time></trkpt><trkpt lat="43.95028340002637" lon="12.366579844077116"><ele>157.0</ele><time>2026-05-01T12:30:49.962Z</time></trkpt><trkpt lat="43.95014499716054" lon="12.36641405549712"><ele>157.0</ele><time>2026-05-01T12:30:50.962Z</time></trkpt><trkpt lat="43.95000611116287" lon="12.366259481406628"><ele>160.33333333333334</ele><time>2026-05-01T12:30:51.962Z</time></trkpt><trkpt lat="43.94986620463387" lon="12.3661055521886"><ele>163.66666666666666</ele><time>2026-05-01T12:30:52.962Z</time></trkpt><trkpt lat="43.94972838338587" lon="12.365945422951327"><ele>167.0</ele><time>2026-05-01T12:30:53.962Z</time></trkpt><trkpt lat="43.949585318472685" lon="12.365774336221778"><ele>167.0</ele><time>2026-05-01T12:30:54.962Z</time></trkpt><trkpt lat="43.949449336390494" lon="12.365590000396715"><ele>167.0</ele><time>2026-05-01T12:30:55.962Z</time></trkpt><trkpt lat="43.94938102704559" lon="12.365507186576604"><ele>167.0</ele><time>2026-05-01T12:30:56.962Z</time></trkpt><trkpt lat="43.94925375588083" lon="12.365331497809265"><ele>167.0</ele><time>2026-05-01T12:30:57.962Z</time></trkpt><trkpt lat="43.94912925837339" lon="12.365148529068621"><ele>167.0</ele><time>2026-05-01T12:30:58.962Z</time></trkpt><trkpt lat="43.94901348502761" lon="12.36495413874807"><ele>167.0</ele><time>2026-05-01T12:30:59.962Z</time></trkpt><trkpt lat="43.948919661727764" lon="12.364727202659397"><ele>165.0</ele><time>2026-05-01T12:31:00.962Z</time></trkpt><trkpt lat="43.94882272786093" lon="12.36450205161343"><ele>163.0</ele><time>2026-05-01T12:31:01.962Z</time></trkpt><trkpt lat="43.94873163271215" lon="12.364269485854058"><ele>161.0</ele><time>2026-05-01T12:31:02.962Z</time></trkpt><trkpt lat="43.94863976439258" lon="12.364028494439657"><ele>161.0</ele><time>2026-05-01T12:31:03.962Z</time></trkpt><trkpt lat="43.94854855487651" lon="12.363787874784416"><ele>161.0</ele><time>2026-05-01T12:31:04.962Z</time></trkpt><trkpt lat="43.9484571206185" lon="12.363544248995435"><ele>161.0</ele><time>2026-05-01T12:31:05.962Z</time></trkpt><trkpt lat="43.94836905158266" lon="12.363290964317088"><ele>161.66666666666666</ele><time>2026-05-01T12:31:06.962Z</time></trkpt><trkpt lat="43.94826734530895" lon="12.363038639500067"><ele>162.33333333333334</ele><time>2026-05-01T12:31:07.962Z</time></trkpt><trkpt lat="43.948152948492506" lon="12.362790807823465"><ele>163.0</ele><time>2026-05-01T12:31:08.962Z</time></trkpt><trkpt lat="43.94801858700628" lon="12.362548645684987"><ele>163.0</ele><time>2026-05-01T12:31:09.962Z</time></trkpt><trkpt lat="43.94786674163168" lon="12.362326703072998"><ele>163.0</ele><time>2026-05-01T12:31:10.962Z</time></trkpt><trkpt lat="43.947709205255535" lon="12.362132097219305"><ele>163.0</ele><time>2026-05-01T12:31:11.962Z</time></trkpt><trkpt lat="43.94754864656069" lon="12.361958291127708"><ele>163.0</ele><time>2026-05-01T12:31:12.962Z</time></trkpt><trkpt lat="43.94738737718642" lon="12.361797808192318"><ele>163.0</ele><time>2026-05-01T12:31:13.962Z</time></trkpt><trkpt lat="43.94722555159965" lon="12.361639339479655"><ele>163.0</ele><time>2026-05-01T12:31:14.962Z</time></trkpt><trkpt lat="43.94706481686691" lon="12.361488826468298"><ele>162.33333333333334</ele><time>2026-05-01T12:31:15.962Z</time></trkpt><trkpt lat="43.94690550136294" lon="12.3613270321233"><ele>161.66666666666666</ele><time>2026-05-01T12:31:16.962Z</time></trkpt><trkpt lat="43.94674283513855" lon="12.361162445489946"><ele>161.0</ele><time>2026-05-01T12:31:17.962Z</time></trkpt><trkpt lat="43.94656469968405" lon="12.361009318820706"><ele>161.0</ele><time>2026-05-01T12:31:18.962Z</time></trkpt><trkpt lat="43.94636056323256" lon="12.360876846562903"><ele>161.0</ele><time>2026-05-01T12:31:19.962Z</time></trkpt><trkpt lat="43.94614296931608" lon="12.360727375448665"><ele>161.0</ele><time>2026-05-01T12:31:20.962Z</time></trkpt><trkpt lat="43.94593358918156" lon="12.36057032593631"><ele>161.0</ele><time>2026-05-01T12:31:21.962Z</time></trkpt><trkpt lat="43.94573556302234" lon="12.360411742771829"><ele>160.66666666666666</ele><time>2026-05-01T12:31:22.962Z</time></trkpt><trkpt lat="43.94554899326756" lon="12.360263996894851"><ele>160.33333333333334</ele><time>2026-05-01T12:31:23.962Z</time></trkpt><trkpt lat="43.945384325262346" lon="12.360094723846252"><ele>160.0</ele><time>2026-05-01T12:31:24.962Z</time></trkpt><trkpt lat="43.94524145282945" lon="12.359889353995067"><ele>160.0</ele><time>2026-05-01T12:31:25.962Z</time></trkpt><trkpt lat="43.9450899105892" lon="12.359647859683728"><ele>160.0</ele><time>2026-05-01T12:31:26.962Z</time></trkpt><trkpt lat="43.94494339805208" lon="12.359382551810906"><ele>160.0</ele><time>2026-05-01T12:31:27.962Z</time></trkpt><trkpt lat="43.944773015941685" lon="12.359109216048013"><ele>160.0</ele><time>2026-05-01T12:31:28.962Z</time></trkpt><trkpt lat="43.94458116434717" lon="12.358811360704443"><ele>159.0</ele><time>2026-05-01T12:31:29.962Z</time></trkpt><trkpt lat="43.94438658912143" lon="12.35850253479822"><ele>158.0</ele><time>2026-05-01T12:31:30.962Z</time></trkpt><trkpt lat="43.94419351434113" lon="12.358187202488402"><ele>159.0</ele><time>2026-05-01T12:31:31.962Z</time></trkpt><trkpt lat="43.94400612349095" lon="12.357884265754262"><ele>160.0</ele><time>2026-05-01T12:31:32.962Z</time></trkpt><trkpt lat="43.94383406699689" lon="12.357602491834072"><ele>160.0</ele><time>2026-05-01T12:31:33.962Z</time></trkpt><trkpt lat="43.943674867051904" lon="12.357330298331906"><ele>160.0</ele><time>2026-05-01T12:31:34.962Z</time></trkpt><trkpt lat="43.94351437961726" lon="12.357068926360547"><ele>161.0</ele><time>2026-05-01T12:31:35.962Z</time></trkpt><trkpt lat="43.943349648877835" lon="12.356815938817828"><ele>162.0</ele><time>2026-05-01T12:31:36.962Z</time></trkpt><trkpt lat="43.94316840084507" lon="12.35657316018635"><ele>161.5</ele><time>2026-05-01T12:31:37.962Z</time></trkpt><trkpt lat="43.94295837170875" lon="12.356351031607879"><ele>161.0</ele><time>2026-05-01T12:31:38.962Z</time></trkpt><trkpt lat="43.94274187458272" lon="12.356132224876712"><ele>160.5</ele><time>2026-05-01T12:31:39.962Z</time></trkpt><trkpt lat="43.94251143883183" lon="12.355936960753867"><ele>160.0</ele><time>2026-05-01T12:31:40.962Z</time></trkpt><trkpt lat="43.942276787899296" lon="12.35574018814331"><ele>160.0</ele><time>2026-05-01T12:31:41.962Z</time></trkpt><trkpt lat="43.942048727658204" lon="12.355539543968998"><ele>160.0</ele><time>2026-05-01T12:31:42.962Z</time></trkpt><trkpt lat="43.941826620204" lon="12.355339418106457"><ele>161.5</ele><time>2026-05-01T12:31:43.962Z</time></trkpt><trkpt lat="43.941607879128405" lon="12.355137045188371"><ele>163.0</ele><time>2026-05-01T12:31:44.962Z</time></trkpt><trkpt lat="43.94138489542465" lon="12.354927022060508"><ele>163.0</ele><time>2026-05-01T12:31:45.962Z</time></trkpt><trkpt lat="43.94115367400857" lon="12.354718301100482"><ele>163.0</ele><time>2026-05-01T12:31:46.962Z</time></trkpt><trkpt lat="43.94092426904348" lon="12.354509449946706"><ele>163.0</ele><time>2026-05-01T12:31:47.962Z</time></trkpt><trkpt lat="43.94069680959693" lon="12.35430308439472"><ele>163.0</ele><time>2026-05-01T12:31:48.962Z</time></trkpt><trkpt lat="43.94046505980028" lon="12.354095831764035"><ele>163.0</ele><time>2026-05-01T12:31:49.962Z</time></trkpt><trkpt lat="43.94024235450637" lon="12.35389788150391"><ele>163.0</ele><time>2026-05-01T12:31:50.962Z</time></trkpt><trkpt lat="43.94004088640557" lon="12.353708970636493"><ele>164.0</ele><time>2026-05-01T12:31:51.962Z</time></trkpt><trkpt lat="43.939850735567354" lon="12.353537359859335"><ele>165.0</ele><time>2026-05-01T12:31:52.962Z</time></trkpt><trkpt lat="43.93966657364823" lon="12.353363977722168"><ele>166.0</ele><time>2026-05-01T12:31:53.962Z</time></trkpt><trkpt lat="43.93948844906547" lon="12.353154899350553"><ele>164.5</ele><time>2026-05-01T12:31:54.962Z</time></trkpt><trkpt lat="43.93930455867726" lon="12.352906349031928"><ele>163.0</ele><time>2026-05-01T12:31:55.962Z</time></trkpt><trkpt lat="43.939117357195336" lon="12.352628228071461"><ele>165.0</ele><time>2026-05-01T12:31:56.962Z</time></trkpt><trkpt lat="43.938922414496396" lon="12.35234613833914"><ele>167.0</ele><time>2026-05-01T12:31:57.962Z</time></trkpt><trkpt lat="43.93874204902329" lon="12.352068532069781"><ele>167.0</ele><time>2026-05-01T12:31:58.962Z</time></trkpt><trkpt lat="43.93857446696762" lon="12.351822135751043"><ele>167.0</ele><time>2026-05-01T12:31:59.962Z</time></trkpt><trkpt lat="43.93843445258956" lon="12.351615008395026"><ele>167.0</ele><time>2026-05-01T12:32:00.962Z</time></trkpt><trkpt lat="43.938321194679006" lon="12.351436560735095"><ele>170.0</ele><time>2026-05-01T12:32:01.962Z</time></trkpt><trkpt lat="43.93823274616178" lon="12.351235779733857"><ele>173.0</ele><time>2026-05-01T12:32:02.962Z</time></trkpt><trkpt lat="43.9381542021817" lon="12.35098554720928"><ele>176.0</ele><time>2026-05-01T12:32:03.962Z</time></trkpt><trkpt lat="43.938136014614926" lon="12.350697592136097"><ele>177.0</ele><time>2026-05-01T12:32:04.962Z</time></trkpt><trkpt lat="43.938170005119694" lon="12.350413144030101"><ele>178.0</ele><time>2026-05-01T12:32:05.962Z</time></trkpt><trkpt lat="43.938225710489405" lon="12.350117770420546"><ele>179.0</ele><time>2026-05-01T12:32:06.962Z</time></trkpt><trkpt lat="43.93828666744344" lon="12.349788755693519"><ele>180.33333333333331</ele><time>2026-05-01T12:32:07.962Z</time></trkpt><trkpt lat="43.93831984629968" lon="12.349471143725022"><ele>181.66666666666666</ele><time>2026-05-01T12:32:08.962Z</time></trkpt><trkpt lat="43.93834255464738" lon="12.349196781495033"><ele>183.0</ele><time>2026-05-01T12:32:09.962Z</time></trkpt><trkpt lat="43.93835664767885" lon="12.348944566333284"><ele>182.66666666666666</ele><time>2026-05-01T12:32:10.962Z</time></trkpt><trkpt lat="43.93833799565879" lon="12.348692000086585"><ele>182.33333333333331</ele><time>2026-05-01T12:32:11.962Z</time></trkpt><trkpt lat="43.93828628594171" lon="12.348427136958286"><ele>182.0</ele><time>2026-05-01T12:32:12.961Z</time></trkpt><trkpt lat="43.93820519595738" lon="12.34819165528332"><ele>178.0</ele><time>2026-05-01T12:32:13.961Z</time></trkpt><trkpt lat="43.93806317238547" lon="12.347971429175045"><ele>174.0</ele><time>2026-05-01T12:32:14.962Z</time></trkpt><trkpt lat="43.9378642235048" lon="12.347782354289052"><ele>174.0</ele><time>2026-05-01T12:32:15.961Z</time></trkpt><trkpt lat="43.93764212879268" lon="12.347583141168013"><ele>174.0</ele><time>2026-05-01T12:32:16.961Z</time></trkpt><trkpt lat="43.937434020462995" lon="12.347393400107634"><ele>174.0</ele><time>2026-05-01T12:32:17.961Z</time></trkpt><trkpt lat="43.937239614656406" lon="12.347226535889233"><ele>174.0</ele><time>2026-05-01T12:32:18.962Z</time></trkpt><trkpt lat="43.937053017370026" lon="12.34705795925361"><ele>174.0</ele><time>2026-05-01T12:32:19.962Z</time></trkpt><trkpt lat="43.93684010869064" lon="12.346912517883947"><ele>174.0</ele><time>2026-05-01T12:32:20.962Z</time></trkpt><trkpt lat="43.936588539873426" lon="12.346793547332574"><ele>178.5</ele><time>2026-05-01T12:32:21.962Z</time></trkpt><trkpt lat="43.93633008134674" lon="12.34668171490772"><ele>183.0</ele><time>2026-05-01T12:32:22.962Z</time></trkpt><trkpt lat="43.93607065311811" lon="12.346562955769636"><ele>180.5</ele><time>2026-05-01T12:32:23.962Z</time></trkpt><trkpt lat="43.93583384992107" lon="12.346447186877475"><ele>178.0</ele><time>2026-05-01T12:32:24.962Z</time></trkpt><trkpt lat="43.93562159539633" lon="12.346335635972693"><ele>178.0</ele><time>2026-05-01T12:32:25.962Z</time></trkpt><trkpt lat="43.935434448283964" lon="12.346221107374697"><ele>178.0</ele><time>2026-05-01T12:32:26.962Z</time></trkpt><trkpt lat="43.93526717374754" lon="12.346129869308642"><ele>178.0</ele><time>2026-05-01T12:32:27.962Z</time></trkpt><trkpt lat="43.93511537400024" lon="12.345993045207166"><ele>179.33333333333334</ele><time>2026-05-01T12:32:28.962Z</time></trkpt><trkpt lat="43.93498958904154" lon="12.345776796725426"><ele>180.66666666666666</ele><time>2026-05-01T12:32:29.962Z</time></trkpt><trkpt lat="43.93487742993489" lon="12.345527508785667"><ele>182.0</ele><time>2026-05-01T12:32:30.962Z</time></trkpt><trkpt lat="43.9347783552333" lon="12.345304217299887"><ele>182.0</ele><time>2026-05-01T12:32:31.962Z</time></trkpt><trkpt lat="43.934699308409186" lon="12.345102031454012"><ele>182.0</ele><time>2026-05-01T12:32:32.962Z</time></trkpt><trkpt lat="43.934607170786045" lon="12.34488847591645"><ele>182.0</ele><time>2026-05-01T12:32:33.962Z</time></trkpt><trkpt lat="43.93452808703336" lon="12.344676073617517"><ele>181.0</ele><time>2026-05-01T12:32:34.962Z</time></trkpt><trkpt lat="43.93447011487116" lon="12.344436551598234"><ele>180.0</ele><time>2026-05-01T12:32:35.962Z</time></trkpt><trkpt lat="43.93448396215865" lon="12.344171015809215"><ele>179.0</ele><time>2026-05-01T12:32:36.962Z</time></trkpt><trkpt lat="43.934503603043865" lon="12.343925475620297"><ele>179.0</ele><time>2026-05-01T12:32:37.962Z</time></trkpt><trkpt lat="43.93454707558013" lon="12.343721643521034"><ele>179.0</ele><time>2026-05-01T12:32:38.962Z</time></trkpt><trkpt lat="43.934592797504095" lon="12.343544753041016"><ele>179.0</ele><time>2026-05-01T12:32:39.962Z</time></trkpt><trkpt lat="43.934659330148335" lon="12.343386857251193"><ele>179.0</ele><time>2026-05-01T12:32:40.962Z</time></trkpt><trkpt lat="43.93476746191824" lon="12.343258363437606"><ele>179.0</ele><time>2026-05-01T12:32:41.962Z</time></trkpt><trkpt lat="43.934893737589654" lon="12.343175367086298"><ele>179.0</ele><time>2026-05-01T12:32:42.962Z</time></trkpt><trkpt lat="43.935042199652855" lon="12.343106093185764"><ele>179.0</ele><time>2026-05-01T12:32:43.962Z</time></trkpt><trkpt lat="43.93517910617159" lon="12.343042112723184"><ele>179.0</ele><time>2026-05-01T12:32:44.962Z</time></trkpt><trkpt lat="43.93530538244134" lon="12.342959295310509"><ele>179.75</ele><time>2026-05-01T12:32:45.962Z</time></trkpt><trkpt lat="43.93543535774486" lon="12.342877855490512"><ele>180.5</ele><time>2026-05-01T12:32:46.962Z</time></trkpt><trkpt lat="43.935569657978725" lon="12.34279918786757"><ele>181.25</ele><time>2026-05-01T12:32:47.962Z</time></trkpt><trkpt lat="43.93570305341937" lon="12.342715907511227"><ele>182.0</ele><time>2026-05-01T12:32:48.962Z</time></trkpt><trkpt lat="43.93583398081369" lon="12.34262044393407"><ele>186.0</ele><time>2026-05-01T12:32:49.962Z</time></trkpt><trkpt lat="43.93595168741295" lon="12.342499189645586"><ele>190.0</ele><time>2026-05-01T12:32:50.962Z</time></trkpt><trkpt lat="43.93605300537723" lon="12.34235175390061"><ele>194.0</ele><time>2026-05-01T12:32:51.962Z</time></trkpt><trkpt lat="43.93613686549905" lon="12.342167687699023"><ele>194.0</ele><time>2026-05-01T12:32:52.962Z</time></trkpt><trkpt lat="43.936193950980936" lon="12.34194586969995"><ele>194.0</ele><time>2026-05-01T12:32:53.962Z</time></trkpt><trkpt lat="43.93622382353792" lon="12.341724778817094"><ele>194.0</ele><time>2026-05-01T12:32:54.962Z</time></trkpt><trkpt lat="43.93622047442365" lon="12.341487224740947"><ele>194.66666666666669</ele><time>2026-05-01T12:32:55.962Z</time></trkpt><trkpt lat="43.93616786435353" lon="12.34122906350613"><ele>195.33333333333331</ele><time>2026-05-01T12:32:56.962Z</time></trkpt><trkpt lat="43.936110145757" lon="12.340956412549454"><ele>196.0</ele><time>2026-05-01T12:32:57.962Z</time></trkpt><trkpt lat="43.936027551975926" lon="12.340675677182974"><ele>193.33333333333331</ele><time>2026-05-01T12:32:58.962Z</time></trkpt><trkpt lat="43.9359733705811" lon="12.340405964303471"><ele>190.66666666666666</ele><time>2026-05-01T12:32:59.962Z</time></trkpt><trkpt lat="43.93592116178157" lon="12.340149262489318"><ele>188.0</ele><time>2026-05-01T12:33:00.962Z</time></trkpt><trkpt lat="43.93586649942463" lon="12.339902197448156"><ele>187.33333333333331</ele><time>2026-05-01T12:33:01.962Z</time></trkpt><trkpt lat="43.9358062545053" lon="12.339652504216673"><ele>186.66666666666666</ele><time>2026-05-01T12:33:02.962Z</time></trkpt><trkpt lat="43.93577001512242" lon="12.339395655976123"><ele>186.0</ele><time>2026-05-01T12:33:03.962Z</time></trkpt><trkpt lat="43.93576995573132" lon="12.339105237763793"><ele>185.66666666666666</ele><time>2026-05-01T12:33:04.962Z</time></trkpt><trkpt lat="43.9358072642325" lon="12.338794789280625"><ele>185.33333333333331</ele><time>2026-05-01T12:33:05.962Z</time></trkpt><trkpt lat="43.93583251415613" lon="12.338496729030386"><ele>185.0</ele><time>2026-05-01T12:33:06.962Z</time></trkpt><trkpt lat="43.935848857599346" lon="12.338221535001443"><ele>186.33333333333331</ele><time>2026-05-01T12:33:07.962Z</time></trkpt><trkpt lat="43.93583363153533" lon="12.337936948137635"><ele>187.66666666666666</ele><time>2026-05-01T12:33:08.962Z</time></trkpt><trkpt lat="43.93579129075417" lon="12.337660342967906"><ele>189.0</ele><time>2026-05-01T12:33:09.962Z</time></trkpt><trkpt lat="43.93572504960401" lon="12.337402724863914"><ele>191.33333333333331</ele><time>2026-05-01T12:33:10.962Z</time></trkpt><trkpt lat="43.93561534884951" lon="12.337155540316292"><ele>193.66666666666666</ele><time>2026-05-01T12:33:11.962Z</time></trkpt><trkpt lat="43.93547830254374" lon="12.336933113234155"><ele>196.0</ele><time>2026-05-01T12:33:12.962Z</time></trkpt><trkpt lat="43.93530427683315" lon="12.336683348409244"><ele>196.0</ele><time>2026-05-01T12:33:13.962Z</time></trkpt><trkpt lat="43.93510807162392" lon="12.33642794928953"><ele>196.0</ele><time>2026-05-01T12:33:14.962Z</time></trkpt><trkpt lat="43.93491995209279" lon="12.336170551911989"><ele>191.0</ele><time>2026-05-01T12:33:15.962Z</time></trkpt><trkpt lat="43.93475110168308" lon="12.335925254562078"><ele>186.0</ele><time>2026-05-01T12:33:16.962Z</time></trkpt><trkpt lat="43.93458436721792" lon="12.335687902460865"><ele>186.5</ele><time>2026-05-01T12:33:17.962Z</time></trkpt><trkpt lat="43.93441770387347" lon="12.335455001403416"><ele>187.0</ele><time>2026-05-01T12:33:18.962Z</time></trkpt><trkpt lat="43.934257448842445" lon="12.335222515450917"><ele>185.33333333333334</ele><time>2026-05-01T12:33:19.962Z</time></trkpt><trkpt lat="43.93409667955008" lon="12.334998551505192"><ele>183.66666666666666</ele><time>2026-05-01T12:33:20.962Z</time></trkpt><trkpt lat="43.933941408496516" lon="12.334780341741768"><ele>182.0</ele><time>2026-05-01T12:33:21.962Z</time></trkpt><trkpt lat="43.93378982406008" lon="12.334555657540244"><ele>182.0</ele><time>2026-05-01T12:33:22.962Z</time></trkpt><trkpt lat="43.93364693359495" lon="12.334323151815305"><ele>182.0</ele><time>2026-05-01T12:33:23.962Z</time></trkpt><trkpt lat="43.933498455870215" lon="12.334095778431976"><ele>182.0</ele><time>2026-05-01T12:33:24.962Z</time></trkpt><trkpt lat="43.9333508658963" lon="12.333886170668332"><ele>183.33333333333331</ele><time>2026-05-01T12:33:25.962Z</time></trkpt><trkpt lat="43.93320408222681" lon="12.333670941576676"><ele>184.66666666666666</ele><time>2026-05-01T12:33:26.962Z</time></trkpt><trkpt lat="43.933057670977654" lon="12.333459406444678"><ele>186.0</ele><time>2026-05-01T12:33:27.962Z</time></trkpt><trkpt lat="43.93292472153819" lon="12.333249773146896"><ele>185.66666666666666</ele><time>2026-05-01T12:33:28.962Z</time></trkpt><trkpt lat="43.93278322885818" lon="12.333043020905578"><ele>185.33333333333331</ele><time>2026-05-01T12:33:29.962Z</time></trkpt><trkpt lat="43.93263524630831" lon="12.332839571248305"><ele>185.0</ele><time>2026-05-01T12:33:30.962Z</time></trkpt><trkpt lat="43.932486101312364" lon="12.332639806269178"><ele>184.33333333333331</ele><time>2026-05-01T12:33:31.962Z</time></trkpt><trkpt lat="43.932333863693756" lon="12.332443228210499"><ele>183.66666666666666</ele><time>2026-05-01T12:33:32.962Z</time></trkpt><trkpt lat="43.93218491317989" lon="12.332247833905926"><ele>183.0</ele><time>2026-05-01T12:33:33.962Z</time></trkpt><trkpt lat="43.932045518981646" lon="12.33204570775194"><ele>183.0</ele><time>2026-05-01T12:33:34.962Z</time></trkpt><trkpt lat="43.931923077161315" lon="12.331838325091374"><ele>183.0</ele><time>2026-05-01T12:33:35.962Z</time></trkpt><trkpt lat="43.93182278942275" lon="12.331621458844305"><ele>183.0</ele><time>2026-05-01T12:33:36.962Z</time></trkpt><trkpt lat="43.93175024481263" lon="12.331375122710996"><ele>185.0</ele><time>2026-05-01T12:33:37.962Z</time></trkpt><trkpt lat="43.931685441877285" lon="12.331081954752523"><ele>187.0</ele><time>2026-05-01T12:33:38.962Z</time></trkpt><trkpt lat="43.93164272605464" lon="12.330767047641473"><ele>189.5</ele><time>2026-05-01T12:33:39.962Z</time></trkpt><trkpt lat="43.93157023814862" lon="12.330416949412424"><ele>192.0</ele><time>2026-05-01T12:33:40.962Z</time></trkpt><trkpt lat="43.93151045478924" lon="12.330075717099316"><ele>192.0</ele><time>2026-05-01T12:33:41.962Z</time></trkpt><trkpt lat="43.931462597832024" lon="12.329750467259615"><ele>192.0</ele><time>2026-05-01T12:33:42.962Z</time></trkpt><trkpt lat="43.931419382293754" lon="12.329448044984176"><ele>192.66666666666669</ele><time>2026-05-01T12:33:43.962Z</time></trkpt><trkpt lat="43.931373140116925" lon="12.329149360196611"><ele>193.33333333333334</ele><time>2026-05-01T12:33:44.962Z</time></trkpt><trkpt lat="43.93132082215794" lon="12.328869510083821"><ele>194.0</ele><time>2026-05-01T12:33:45.962Z</time></trkpt><trkpt lat="43.931270164095444" lon="12.328596259732969"><ele>194.33333333333334</ele><time>2026-05-01T12:33:46.962Z</time></trkpt><trkpt lat="43.9312233834854" lon="12.328325140034508"><ele>194.66666666666669</ele><time>2026-05-01T12:33:47.962Z</time></trkpt><trkpt lat="43.93118717829926" lon="12.32806378762732"><ele>195.0</ele><time>2026-05-01T12:33:48.962Z</time></trkpt><trkpt lat="43.931147633455666" lon="12.327809758236594"><ele>195.33333333333331</ele><time>2026-05-01T12:33:49.962Z</time></trkpt><trkpt lat="43.93110188512081" lon="12.327551947508214"><ele>195.66666666666666</ele><time>2026-05-01T12:33:50.962Z</time></trkpt><trkpt lat="43.93106026740824" lon="12.327304930516535"><ele>196.0</ele><time>2026-05-01T12:33:51.962Z</time></trkpt><trkpt lat="43.931018337776386" lon="12.327065700515158"><ele>196.0</ele><time>2026-05-01T12:33:52.962Z</time></trkpt><trkpt lat="43.93096927602578" lon="12.326822040267414"><ele>196.0</ele><time>2026-05-01T12:33:53.962Z</time></trkpt><trkpt lat="43.93090125081288" lon="12.326583695544116"><ele>196.0</ele><time>2026-05-01T12:33:54.962Z</time></trkpt><trkpt lat="43.930817210460006" lon="12.326341572150403"><ele>197.5</ele><time>2026-05-01T12:33:55.962Z</time></trkpt><trkpt lat="43.93069008884109" lon="12.326090524993226"><ele>199.0</ele><time>2026-05-01T12:33:56.962Z</time></trkpt><trkpt lat="43.93055138244379" lon="12.32583674405641"><ele>199.0</ele><time>2026-05-01T12:33:57.962Z</time></trkpt><trkpt lat="43.93041281808094" lon="12.325573548653523"><ele>199.0</ele><time>2026-05-01T12:33:58.962Z</time></trkpt><trkpt lat="43.930280093022034" lon="12.325326781242454"><ele>198.66666666666666</ele><time>2026-05-01T12:33:59.962Z</time></trkpt><trkpt lat="43.930153193338775" lon="12.325087032077596"><ele>198.33333333333331</ele><time>2026-05-01T12:34:00.962Z</time></trkpt><trkpt lat="43.93001701347716" lon="12.324862471763396"><ele>198.0</ele><time>2026-05-01T12:34:01.962Z</time></trkpt><trkpt lat="43.92986931216483" lon="12.324658758409361"><ele>199.0</ele><time>2026-05-01T12:34:02.962Z</time></trkpt><trkpt lat="43.92971134540186" lon="12.324468311698707"><ele>200.0</ele><time>2026-05-01T12:34:03.962Z</time></trkpt><trkpt lat="43.92955386416817" lon="12.324294061893857"><ele>201.0</ele><time>2026-05-01T12:34:04.962Z</time></trkpt><trkpt lat="43.92941300017434" lon="12.324124980935357"><ele>201.0</ele><time>2026-05-01T12:34:05.962Z</time></trkpt><trkpt lat="43.92928038453589" lon="12.323965571880345"><ele>201.0</ele><time>2026-05-01T12:34:06.962Z</time></trkpt><trkpt lat="43.92915433494992" lon="12.323813890834222"><ele>201.0</ele><time>2026-05-01T12:34:07.962Z</time></trkpt><trkpt lat="43.92903478281867" lon="12.323675822478725"><ele>201.4</ele><time>2026-05-01T12:34:08.962Z</time></trkpt><trkpt lat="43.928928844968254" lon="12.323553423762743"><ele>201.8</ele><time>2026-05-01T12:34:09.962Z</time></trkpt><trkpt lat="43.92884314185854" lon="12.323444975516612"><ele>202.20000000000002</ele><time>2026-05-01T12:34:10.962Z</time></trkpt><trkpt lat="43.928783586260856" lon="12.32333846189152"><ele>202.60000000000002</ele><time>2026-05-01T12:34:11.961Z</time></trkpt><trkpt lat="43.928738544950875" lon="12.323218752001495"><ele>203.0</ele><time>2026-05-01T12:34:12.961Z</time></trkpt><trkpt lat="43.9286853079823" lon="12.323093100251215"><ele>202.75</ele><time>2026-05-01T12:34:13.961Z</time></trkpt><trkpt lat="43.928603870151406" lon="12.322995242909762"><ele>202.5</ele><time>2026-05-01T12:34:14.961Z</time></trkpt><trkpt lat="43.92848821059208" lon="12.322923845745262"><ele>202.25</ele><time>2026-05-01T12:34:15.962Z</time></trkpt><trkpt lat="43.92835329651586" lon="12.322852307028658"><ele>202.0</ele><time>2026-05-01T12:34:16.962Z</time></trkpt><trkpt lat="43.92822479487798" lon="12.322729223208638"><ele>202.0</ele><time>2026-05-01T12:34:17.961Z</time></trkpt><trkpt lat="43.92810244554293" lon="12.322575770238196"><ele>202.0</ele><time>2026-05-01T12:34:18.961Z</time></trkpt><trkpt lat="43.927987766480925" lon="12.322433679281481"><ele>202.0</ele><time>2026-05-01T12:34:19.961Z</time></trkpt><trkpt lat="43.92788454815352" lon="12.322311322131961"><ele>202.5</ele><time>2026-05-01T12:34:20.962Z</time></trkpt><trkpt lat="43.92778461757676" lon="12.322187699890927"><ele>203.0</ele><time>2026-05-01T12:34:21.962Z</time></trkpt><trkpt lat="43.92768801243641" lon="12.32206099023844"><ele>203.5</ele><time>2026-05-01T12:34:22.962Z</time></trkpt><trkpt lat="43.92759388779377" lon="12.321930575758016"><ele>204.0</ele><time>2026-05-01T12:34:23.961Z</time></trkpt><trkpt lat="43.92750191821175" lon="12.321798740489188"><ele>204.5</ele><time>2026-05-01T12:34:24.962Z</time></trkpt><trkpt lat="43.92741587457997" lon="12.321667951944535"><ele>205.0</ele><time>2026-05-01T12:34:25.962Z</time></trkpt><trkpt lat="43.927338029293196" lon="12.32153953486586"><ele>205.5</ele><time>2026-05-01T12:34:26.962Z</time></trkpt><trkpt lat="43.92725930186321" lon="12.321402806899885"><ele>206.0</ele><time>2026-05-01T12:34:27.962Z</time></trkpt><trkpt lat="43.927180832373814" lon="12.321267984465823"><ele>206.5</ele><time>2026-05-01T12:34:28.962Z</time></trkpt><trkpt lat="43.927099013962625" lon="12.321139634313031"><ele>207.0</ele><time>2026-05-01T12:34:29.962Z</time></trkpt><trkpt lat="43.92702461284003" lon="12.321008358507738"><ele>207.5</ele><time>2026-05-01T12:34:30.962Z</time></trkpt><trkpt lat="43.92694607463629" lon="12.320871918366734"><ele>208.0</ele><time>2026-05-01T12:34:31.962Z</time></trkpt><trkpt lat="43.926869194293175" lon="12.320732671289429"><ele>208.0</ele><time>2026-05-01T12:34:32.962Z</time></trkpt><trkpt lat="43.92679050201807" lon="12.32059316701533"><ele>208.0</ele><time>2026-05-01T12:34:33.962Z</time></trkpt><trkpt lat="43.92670968833937" lon="12.320449556648896"><ele>208.0</ele><time>2026-05-01T12:34:34.962Z</time></trkpt><trkpt lat="43.926629061793214" lon="12.320305709816942"><ele>208.0</ele><time>2026-05-01T12:34:35.962Z</time></trkpt><trkpt lat="43.92654739760598" lon="12.320168777699276"><ele>208.75</ele><time>2026-05-01T12:34:36.962Z</time></trkpt><trkpt lat="43.92647537608193" lon="12.320039289125091"><ele>209.5</ele><time>2026-05-01T12:34:37.962Z</time></trkpt><trkpt lat="43.92641011443028" lon="12.319913170887972"><ele>210.25</ele><time>2026-05-01T12:34:38.962Z</time></trkpt><trkpt lat="43.92633848609948" lon="12.319782937537243"><ele>211.0</ele><time>2026-05-01T12:34:39.962Z</time></trkpt><trkpt lat="43.9262650541671" lon="12.319650060216564"><ele>212.25</ele><time>2026-05-01T12:34:40.962Z</time></trkpt><trkpt lat="43.92618779743985" lon="12.319521243644528"><ele>213.5</ele><time>2026-05-01T12:34:41.962Z</time></trkpt><trkpt lat="43.92610102623255" lon="12.319375492279343"><ele>214.75</ele><time>2026-05-01T12:34:42.962Z</time></trkpt><trkpt lat="43.92600745156216" lon="12.3192036538977"><ele>216.0</ele><time>2026-05-01T12:34:43.962Z</time></trkpt><trkpt lat="43.92591244460155" lon="12.319029782871123"><ele>214.66666666666669</ele><time>2026-05-01T12:34:44.962Z</time></trkpt><trkpt lat="43.92581087015352" lon="12.318847823439226"><ele>213.33333333333334</ele><time>2026-05-01T12:34:45.962Z</time></trkpt><trkpt lat="43.92570635435042" lon="12.318658583944872"><ele>212.0</ele><time>2026-05-01T12:34:46.962Z</time></trkpt><trkpt lat="43.925610197629794" lon="12.318496382189165"><ele>212.0</ele><time>2026-05-01T12:34:47.962Z</time></trkpt><trkpt lat="43.925521625926976" lon="12.318338777001351"><ele>212.0</ele><time>2026-05-01T12:34:48.962Z</time></trkpt><trkpt lat="43.92541069646051" lon="12.318211692879233"><ele>212.0</ele><time>2026-05-01T12:34:49.962Z</time></trkpt><trkpt lat="43.92525940884089" lon="12.318097972282679"><ele>212.33333333333334</ele><time>2026-05-01T12:34:50.962Z</time></trkpt><trkpt lat="43.925092884595784" lon="12.318015439543949"><ele>212.66666666666669</ele><time>2026-05-01T12:34:51.962Z</time></trkpt><trkpt lat="43.92491197790172" lon="12.317956568192862"><ele>213.0</ele><time>2026-05-01T12:34:52.962Z</time></trkpt><trkpt lat="43.92475560784824" lon="12.31789863757364"><ele>213.66666666666669</ele><time>2026-05-01T12:34:53.962Z</time></trkpt><trkpt lat="43.92461245059383" lon="12.317819161085481"><ele>214.33333333333334</ele><time>2026-05-01T12:34:54.962Z</time></trkpt><trkpt lat="43.924473011640856" lon="12.31771921282385"><ele>215.0</ele><time>2026-05-01T12:34:55.962Z</time></trkpt><trkpt lat="43.92434121225041" lon="12.31761212241167"><ele>214.33333333333334</ele><time>2026-05-01T12:34:56.962Z</time></trkpt><trkpt lat="43.92421925658451" lon="12.317479378582966"><ele>213.66666666666669</ele><time>2026-05-01T12:34:57.962Z</time></trkpt><trkpt lat="43.924106040056145" lon="12.317335928774517"><ele>213.0</ele><time>2026-05-01T12:34:58.962Z</time></trkpt><trkpt lat="43.92399028710796" lon="12.317157467169976"><ele>213.0</ele><time>2026-05-01T12:34:59.962Z</time></trkpt><trkpt lat="43.92386940020239" lon="12.316999988592954"><ele>213.0</ele><time>2026-05-01T12:35:00.962Z</time></trkpt><trkpt lat="43.923753356178004" lon="12.316849792785911"><ele>213.0</ele><time>2026-05-01T12:35:01.962Z</time></trkpt><trkpt lat="43.923649068598344" lon="12.316696582661061"><ele>213.0</ele><time>2026-05-01T12:35:02.962Z</time></trkpt><trkpt lat="43.92354040909612" lon="12.316556405141442"><ele>213.0</ele><time>2026-05-01T12:35:03.962Z</time></trkpt><trkpt lat="43.92342434796693" lon="12.316412057509456"><ele>213.0</ele><time>2026-05-01T12:35:04.962Z</time></trkpt><trkpt lat="43.923318613366014" lon="12.316264388363114"><ele>214.33333333333331</ele><time>2026-05-01T12:35:05.962Z</time></trkpt><trkpt lat="43.92321527600063" lon="12.31610780653376"><ele>215.66666666666666</ele><time>2026-05-01T12:35:06.962Z</time></trkpt><trkpt lat="43.92316055773359" lon="12.31591982696836"><ele>217.0</ele><time>2026-05-01T12:35:07.962Z</time></trkpt><trkpt lat="43.92309427486651" lon="12.315729718849779"><ele>217.0</ele><time>2026-05-01T12:35:08.962Z</time></trkpt><trkpt lat="43.923058956916655" lon="12.31554399662003"><ele>217.0</ele><time>2026-05-01T12:35:09.962Z</time></trkpt><trkpt lat="43.9230301409651" lon="12.315375639328403"><ele>217.0</ele><time>2026-05-01T12:35:10.962Z</time></trkpt><trkpt lat="43.92298675243616" lon="12.31521546964143"><ele>217.0</ele><time>2026-05-01T12:35:11.962Z</time></trkpt><trkpt lat="43.92292893715607" lon="12.315058836675083"><ele>217.0</ele><time>2026-05-01T12:35:12.962Z</time></trkpt><trkpt lat="43.92285512948935" lon="12.314905121890193"><ele>217.0</ele><time>2026-05-01T12:35:13.962Z</time></trkpt><trkpt lat="43.9227827304826" lon="12.314755266311385"><ele>217.0</ele><time>2026-05-01T12:35:14.962Z</time></trkpt><trkpt lat="43.922696384582515" lon="12.314606279543462"><ele>217.0</ele><time>2026-05-01T12:35:15.962Z</time></trkpt><trkpt lat="43.9226031857267" lon="12.314468056807394"><ele>216.0</ele><time>2026-05-01T12:35:16.962Z</time></trkpt><trkpt lat="43.92251418574077" lon="12.314325847419372"><ele>215.0</ele><time>2026-05-01T12:35:17.962Z</time></trkpt><trkpt lat="43.92242209700228" lon="12.314177264585199"><ele>214.0</ele><time>2026-05-01T12:35:18.962Z</time></trkpt><trkpt lat="43.922324130856936" lon="12.314014315314859"><ele>213.0</ele><time>2026-05-01T12:35:19.962Z</time></trkpt><trkpt lat="43.9222146128064" lon="12.31383362274324"><ele>213.0</ele><time>2026-05-01T12:35:20.962Z</time></trkpt><trkpt lat="43.92209489166673" lon="12.313640663853816"><ele>213.0</ele><time>2026-05-01T12:35:21.961Z</time></trkpt><trkpt lat="43.92197307563264" lon="12.313444767746233"><ele>213.0</ele><time>2026-05-01T12:35:22.961Z</time></trkpt><trkpt lat="43.92184284869129" lon="12.31325747036877"><ele>211.33333333333331</ele><time>2026-05-01T12:35:23.961Z</time></trkpt><trkpt lat="43.921701547853345" lon="12.313094710340803"><ele>209.66666666666666</ele><time>2026-05-01T12:35:24.961Z</time></trkpt><trkpt lat="43.92155992797868" lon="12.312945420322269"><ele>208.0</ele><time>2026-05-01T12:35:25.961Z</time></trkpt><trkpt lat="43.92141408144597" lon="12.312813447385318"><ele>208.0</ele><time>2026-05-01T12:35:26.961Z</time></trkpt><trkpt lat="43.92126656827344" lon="12.312677815686534"><ele>208.0</ele><time>2026-05-01T12:35:27.961Z</time></trkpt><trkpt lat="43.92111368220498" lon="12.31254303572294"><ele>208.0</ele><time>2026-05-01T12:35:28.961Z</time></trkpt><trkpt lat="43.92096591463219" lon="12.312404541653482"><ele>208.0</ele><time>2026-05-01T12:35:29.961Z</time></trkpt><trkpt lat="43.92084556325218" lon="12.312284937799518"><ele>208.0</ele><time>2026-05-01T12:35:30.961Z</time></trkpt><trkpt lat="43.92075220182053" lon="12.31218432023446"><ele>208.0</ele><time>2026-05-01T12:35:31.961Z</time></trkpt><trkpt lat="43.92067015843124" lon="12.312111547511034"><ele>208.0</ele><time>2026-05-01T12:35:32.961Z</time></trkpt><trkpt lat="43.920583134080516" lon="12.312032135933908"><ele>209.8</ele><time>2026-05-01T12:35:33.961Z</time></trkpt><trkpt lat="43.92050255128525" lon="12.311956731596213"><ele>211.60000000000002</ele><time>2026-05-01T12:35:34.961Z</time></trkpt><trkpt lat="43.920413296400476" lon="12.311873330060287"><ele>213.39999999999998</ele><time>2026-05-01T12:35:35.961Z</time></trkpt><trkpt lat="43.92032082205812" lon="12.311776259567816"><ele>215.2</ele><time>2026-05-01T12:35:36.961Z</time></trkpt><trkpt lat="43.92021995903634" lon="12.311681047340764"><ele>217.0</ele><time>2026-05-01T12:35:37.961Z</time></trkpt><trkpt lat="43.92012976121228" lon="12.311588616519664"><ele>217.33333333333331</ele><time>2026-05-01T12:35:38.961Z</time></trkpt><trkpt lat="43.92004935676768" lon="12.311446615095246"><ele>217.66666666666669</ele><time>2026-05-01T12:35:39.961Z</time></trkpt><trkpt lat="43.91996947854012" lon="12.311251432562038"><ele>218.0</ele><time>2026-05-01T12:35:40.961Z</time></trkpt><trkpt lat="43.91987474580873" lon="12.311041197500147"><ele>218.0</ele><time>2026-05-01T12:35:41.961Z</time></trkpt><trkpt lat="43.919761552498606" lon="12.310790302864897"><ele>218.0</ele><time>2026-05-01T12:35:42.961Z</time></trkpt><trkpt lat="43.91964909703675" lon="12.310523405008025"><ele>218.0</ele><time>2026-05-01T12:35:43.961Z</time></trkpt><trkpt lat="43.91951811671629" lon="12.310255035655366"><ele>219.5</ele><time>2026-05-01T12:35:44.961Z</time></trkpt><trkpt lat="43.91935073494982" lon="12.31000341119219"><ele>221.0</ele><time>2026-05-01T12:35:45.961Z</time></trkpt><trkpt lat="43.919178999496175" lon="12.309763364542102"><ele>222.5</ele><time>2026-05-01T12:35:46.961Z</time></trkpt><trkpt lat="43.91900463753474" lon="12.309534369348418"><ele>224.0</ele><time>2026-05-01T12:35:47.961Z</time></trkpt><trkpt lat="43.91885039519327" lon="12.309311274669165"><ele>224.0</ele><time>2026-05-01T12:35:48.961Z</time></trkpt><trkpt lat="43.91869548631023" lon="12.309094846653506"><ele>224.0</ele><time>2026-05-01T12:35:49.961Z</time></trkpt><trkpt lat="43.918540202224186" lon="12.308887733434567"><ele>224.0</ele><time>2026-05-01T12:35:50.961Z</time></trkpt><trkpt lat="43.9183893594705" lon="12.308680201386046"><ele>224.66666666666669</ele><time>2026-05-01T12:35:51.961Z</time></trkpt><trkpt lat="43.918234187319705" lon="12.308466893981452"><ele>225.33333333333331</ele><time>2026-05-01T12:35:52.961Z</time></trkpt><trkpt lat="43.91807305491105" lon="12.308246335588967"><ele>226.0</ele><time>2026-05-01T12:35:53.961Z</time></trkpt><trkpt lat="43.917914962618234" lon="12.308024503478133"><ele>227.5</ele><time>2026-05-01T12:35:54.961Z</time></trkpt><trkpt lat="43.91775687684445" lon="12.30780587224857"><ele>229.0</ele><time>2026-05-01T12:35:55.961Z</time></trkpt><trkpt lat="43.91759409703526" lon="12.307574548376998"><ele>229.5</ele><time>2026-05-01T12:35:56.961Z</time></trkpt><trkpt lat="43.91741769089372" lon="12.307344352330132"><ele>230.0</ele><time>2026-05-01T12:35:57.961Z</time></trkpt><trkpt lat="43.91725679984794" lon="12.30712009529708"><ele>230.0</ele><time>2026-05-01T12:35:58.961Z</time></trkpt><trkpt lat="43.917108524388325" lon="12.306905418091036"><ele>230.0</ele><time>2026-05-01T12:35:59.961Z</time></trkpt><trkpt lat="43.91697076240677" lon="12.306708037568939"><ele>230.0</ele><time>2026-05-01T12:36:00.961Z</time></trkpt><trkpt lat="43.916842785124274" lon="12.306527912736167"><ele>231.33333333333334</ele><time>2026-05-01T12:36:01.961Z</time></trkpt><trkpt lat="43.91672081236534" lon="12.306365764151181"><ele>232.66666666666669</ele><time>2026-05-01T12:36:02.961Z</time></trkpt><trkpt lat="43.91658233107683" lon="12.306217105035676"><ele>234.0</ele><time>2026-05-01T12:36:03.961Z</time></trkpt><trkpt lat="43.916406115779914" lon="12.306114661849904"><ele>234.0</ele><time>2026-05-01T12:36:04.961Z</time></trkpt><trkpt lat="43.91619964727715" lon="12.306037062584245"><ele>234.0</ele><time>2026-05-01T12:36:05.961Z</time></trkpt><trkpt lat="43.915963972714586" lon="12.30597942091436"><ele>233.0</ele><time>2026-05-01T12:36:06.961Z</time></trkpt><trkpt lat="43.9157272115832" lon="12.305908106925397"><ele>232.0</ele><time>2026-05-01T12:36:07.961Z</time></trkpt><trkpt lat="43.915491897576445" lon="12.305822089081392"><ele>232.0</ele><time>2026-05-01T12:36:08.961Z</time></trkpt><trkpt lat="43.91525312796201" lon="12.30569423156188"><ele>232.0</ele><time>2026-05-01T12:36:09.961Z</time></trkpt><trkpt lat="43.91499777604138" lon="12.30555629074622"><ele>232.0</ele><time>2026-05-01T12:36:10.961Z</time></trkpt><trkpt lat="43.91471926081059" lon="12.30541419592845"><ele>232.0</ele><time>2026-05-01T12:36:11.961Z</time></trkpt><trkpt lat="43.91443354113708" lon="12.305270517781755"><ele>231.5</ele><time>2026-05-01T12:36:12.961Z</time></trkpt><trkpt lat="43.914170220041704" lon="12.305128927634943"><ele>231.0</ele><time>2026-05-01T12:36:13.961Z</time></trkpt><trkpt lat="43.9139204350976" lon="12.30500080212762"><ele>231.0</ele><time>2026-05-01T12:36:14.961Z</time></trkpt><trkpt lat="43.91368943272838" lon="12.30487619569357"><ele>231.0</ele><time>2026-05-01T12:36:15.961Z</time></trkpt><trkpt lat="43.913469741481705" lon="12.304762626341518"><ele>230.0</ele><time>2026-05-01T12:36:16.961Z</time></trkpt><trkpt lat="43.91325406428512" lon="12.304659090399777"><ele>229.0</ele><time>2026-05-01T12:36:17.961Z</time></trkpt><trkpt lat="43.91305132284542" lon="12.304555085951728"><ele>228.0</ele><time>2026-05-01T12:36:18.961Z</time></trkpt><trkpt lat="43.91285204387868" lon="12.304445136223043"><ele>228.0</ele><time>2026-05-01T12:36:19.961Z</time></trkpt><trkpt lat="43.91264950004968" lon="12.304345789216784"><ele>228.0</ele><time>2026-05-01T12:36:20.96Z</time></trkpt><trkpt lat="43.91244121707831" lon="12.304260429919756"><ele>228.0</ele><time>2026-05-01T12:36:21.96Z</time></trkpt><trkpt lat="43.912232648303274" lon="12.304194393287263"><ele>229.0</ele><time>2026-05-01T12:36:22.96Z</time></trkpt><trkpt lat="43.91201845729447" lon="12.30416716226596"><ele>230.0</ele><time>2026-05-01T12:36:23.961Z</time></trkpt><trkpt lat="43.911802249637795" lon="12.304155599321632"><ele>231.0</ele><time>2026-05-01T12:36:24.961Z</time></trkpt><trkpt lat="43.91158003141413" lon="12.304140405189688"><ele>231.0</ele><time>2026-05-01T12:36:25.961Z</time></trkpt><trkpt lat="43.91136776794558" lon="12.304111990736276"><ele>231.0</ele><time>2026-05-01T12:36:26.96Z</time></trkpt><trkpt lat="43.91117084474449" lon="12.304080926021065"><ele>231.0</ele><time>2026-05-01T12:36:27.961Z</time></trkpt><trkpt lat="43.910993533155235" lon="12.30403262383223"><ele>231.33333333333331</ele><time>2026-05-01T12:36:28.961Z</time></trkpt><trkpt lat="43.910832201784764" lon="12.303953778732984"><ele>231.66666666666666</ele><time>2026-05-01T12:36:29.961Z</time></trkpt><trkpt lat="43.91068651036669" lon="12.303815696151208"><ele>232.0</ele><time>2026-05-01T12:36:30.961Z</time></trkpt><trkpt lat="43.91055047565006" lon="12.303662687835105"><ele>235.0</ele><time>2026-05-01T12:36:31.961Z</time></trkpt><trkpt lat="43.91041886143119" lon="12.303500541561684"><ele>238.0</ele><time>2026-05-01T12:36:32.961Z</time></trkpt><trkpt lat="43.91029403796815" lon="12.30334538317725"><ele>241.0</ele><time>2026-05-01T12:36:33.961Z</time></trkpt><trkpt lat="43.910183958955095" lon="12.30320855246281"><ele>241.0</ele><time>2026-05-01T12:36:34.961Z</time></trkpt><trkpt lat="43.910085213650206" lon="12.303085671784162"><ele>241.00000000000003</ele><time>2026-05-01T12:36:35.961Z</time></trkpt><trkpt lat="43.91003826800438" lon="12.302972285388455"><ele>241.00000000000003</ele><time>2026-05-01T12:36:36.961Z</time></trkpt><trkpt lat="43.91001265717274" lon="12.302842872185746"><ele>241.0</ele><time>2026-05-01T12:36:37.961Z</time></trkpt><trkpt lat="43.91003226972312" lon="12.302714392394572"><ele>241.0</ele><time>2026-05-01T12:36:38.961Z</time></trkpt><trkpt lat="43.91010994035236" lon="12.30255831205828"><ele>242.33333333333331</ele><time>2026-05-01T12:36:39.961Z</time></trkpt><trkpt lat="43.91020494448792" lon="12.302376548017342"><ele>243.66666666666669</ele><time>2026-05-01T12:36:40.961Z</time></trkpt><trkpt lat="43.910260740207804" lon="12.302115458656296"><ele>245.0</ele><time>2026-05-01T12:36:41.961Z</time></trkpt><trkpt lat="43.910303627548416" lon="12.301807205919122"><ele>247.0</ele><time>2026-05-01T12:36:42.961Z</time></trkpt><trkpt lat="43.91033559251016" lon="12.301479848339454"><ele>249.0</ele><time>2026-05-01T12:36:43.961Z</time></trkpt><trkpt lat="43.910418106576664" lon="12.301174432518273"><ele>249.0</ele><time>2026-05-01T12:36:44.961Z</time></trkpt><trkpt lat="43.91046608064153" lon="12.300866997508118"><ele>249.0</ele><time>2026-05-01T12:36:45.961Z</time></trkpt><trkpt lat="43.91051282785526" lon="12.300579728711808"><ele>249.0</ele><time>2026-05-01T12:36:46.961Z</time></trkpt><trkpt lat="43.91055096297835" lon="12.300302907077407"><ele>248.0</ele><time>2026-05-01T12:36:47.961Z</time></trkpt><trkpt lat="43.91057453746286" lon="12.300053444086185"><ele>247.0</ele><time>2026-05-01T12:36:48.961Z</time></trkpt><trkpt lat="43.91058560658526" lon="12.299822295377698"><ele>246.0</ele><time>2026-05-01T12:36:49.961Z</time></trkpt><trkpt lat="43.910587684647034" lon="12.29959586081735"><ele>246.0</ele><time>2026-05-01T12:36:50.961Z</time></trkpt><trkpt lat="43.91058286969931" lon="12.299370096669113"><ele>246.0</ele><time>2026-05-01T12:36:51.961Z</time></trkpt><trkpt lat="43.91057693341133" lon="12.299146969598931"><ele>246.0</ele><time>2026-05-01T12:36:52.961Z</time></trkpt><trkpt lat="43.910570393119244" lon="12.298940441686215"><ele>246.5</ele><time>2026-05-01T12:36:53.961Z</time></trkpt><trkpt lat="43.910546367482546" lon="12.298742022979582"><ele>247.0</ele><time>2026-05-01T12:36:54.961Z</time></trkpt><trkpt lat="43.910473259209596" lon="12.298589311026682"><ele>247.5</ele><time>2026-05-01T12:36:55.961Z</time></trkpt><trkpt lat="43.91036527923248" lon="12.298444468033443"><ele>248.0</ele><time>2026-05-01T12:36:56.961Z</time></trkpt><trkpt lat="43.91021749340425" lon="12.298320109842143"><ele>247.33333333333334</ele><time>2026-05-01T12:36:57.961Z</time></trkpt><trkpt lat="43.91005602126373" lon="12.298195991366756"><ele>246.66666666666669</ele><time>2026-05-01T12:36:58.961Z</time></trkpt><trkpt lat="43.909889611574094" lon="12.298090470003945"><ele>246.0</ele><time>2026-05-01T12:36:59.961Z</time></trkpt><trkpt lat="43.909741253672955" lon="12.297972892263479"><ele>246.0</ele><time>2026-05-01T12:37:00.961Z</time></trkpt><trkpt lat="43.9096072767226" lon="12.29782673553201"><ele>246.0</ele><time>2026-05-01T12:37:01.961Z</time></trkpt><trkpt lat="43.909489556538844" lon="12.297649351545212"><ele>246.0</ele><time>2026-05-01T12:37:02.961Z</time></trkpt><trkpt lat="43.90938561320564" lon="12.297453386742339"><ele>246.0</ele><time>2026-05-01T12:37:03.961Z</time></trkpt><trkpt lat="43.90929692666289" lon="12.297278659512049"><ele>246.0</ele><time>2026-05-01T12:37:04.961Z</time></trkpt><trkpt lat="43.909207083332156" lon="12.297122868987339"><ele>246.0</ele><time>2026-05-01T12:37:05.961Z</time></trkpt><trkpt lat="43.90912780177377" lon="12.296963024013417"><ele>246.0</ele><time>2026-05-01T12:37:06.961Z</time></trkpt><trkpt lat="43.90907346333918" lon="12.29677040281694"><ele>245.0</ele><time>2026-05-01T12:37:07.961Z</time></trkpt><trkpt lat="43.90904843471107" lon="12.296532578608282"><ele>244.0</ele><time>2026-05-01T12:37:08.961Z</time></trkpt><trkpt lat="43.9089967772787" lon="12.296339861121373"><ele>243.0</ele><time>2026-05-01T12:37:09.961Z</time></trkpt><trkpt lat="43.90896249223993" lon="12.296171505578805"><ele>242.0</ele><time>2026-05-01T12:37:10.961Z</time></trkpt><trkpt lat="43.90891085549601" lon="12.296021486615622"><ele>242.0</ele><time>2026-05-01T12:37:11.961Z</time></trkpt><trkpt lat="43.908860441162155" lon="12.295873578103144"><ele>242.0</ele><time>2026-05-01T12:37:12.961Z</time></trkpt><trkpt lat="43.90881115396415" lon="12.295716040613105"><ele>242.0</ele><time>2026-05-01T12:37:13.961Z</time></trkpt><trkpt lat="43.9087598651564" lon="12.295555892744677"><ele>242.0</ele><time>2026-05-01T12:37:14.961Z</time></trkpt><trkpt lat="43.90870741198062" lon="12.295391426008099"><ele>242.5</ele><time>2026-05-01T12:37:15.961Z</time></trkpt><trkpt lat="43.90865093235644" lon="12.295230329014052"><ele>243.0</ele><time>2026-05-01T12:37:16.961Z</time></trkpt><trkpt lat="43.90859670873188" lon="12.295067038640287"><ele>243.5</ele><time>2026-05-01T12:37:17.961Z</time></trkpt><trkpt lat="43.90854453245452" lon="12.294901043986522"><ele>244.0</ele><time>2026-05-01T12:37:18.961Z</time></trkpt><trkpt lat="43.908492813797984" lon="12.294734461433293"><ele>245.25</ele><time>2026-05-01T12:37:19.961Z</time></trkpt><trkpt lat="43.90843773495062" lon="12.294571395988779"><ele>246.5</ele><time>2026-05-01T12:37:20.961Z</time></trkpt><trkpt lat="43.90838136933985" lon="12.294415232356101"><ele>247.75</ele><time>2026-05-01T12:37:21.961Z</time></trkpt><trkpt lat="43.90832862175425" lon="12.294268847996879"><ele>249.0</ele><time>2026-05-01T12:37:22.961Z</time></trkpt><trkpt lat="43.90824817463914" lon="12.294157451040878"><ele>246.5</ele><time>2026-05-01T12:37:23.961Z</time></trkpt><trkpt lat="43.90813049459447" lon="12.294083036018968"><ele>244.0</ele><time>2026-05-01T12:37:24.961Z</time></trkpt><trkpt lat="43.90798992868245" lon="12.294038077941783"><ele>241.5</ele><time>2026-05-01T12:37:25.961Z</time></trkpt><trkpt lat="43.90784357454979" lon="12.294008719505394"><ele>239.0</ele><time>2026-05-01T12:37:26.961Z</time></trkpt><trkpt lat="43.9076966876764" lon="12.293984610279601"><ele>238.75</ele><time>2026-05-01T12:37:27.961Z</time></trkpt><trkpt lat="43.90755593098452" lon="12.293958961977195"><ele>238.5</ele><time>2026-05-01T12:37:28.961Z</time></trkpt><trkpt lat="43.90742517962746" lon="12.29393234319799"><ele>238.25</ele><time>2026-05-01T12:37:29.961Z</time></trkpt><trkpt lat="43.907296441791836" lon="12.293902019231975"><ele>238.0</ele><time>2026-05-01T12:37:30.961Z</time></trkpt><trkpt lat="43.90716524109832" lon="12.293866850298302"><ele>238.0</ele><time>2026-05-01T12:37:31.961Z</time></trkpt><trkpt lat="43.9070245253548" lon="12.293829555311024"><ele>238.0</ele><time>2026-05-01T12:37:32.961Z</time></trkpt><trkpt lat="43.906879522548834" lon="12.293795558112256"><ele>238.0</ele><time>2026-05-01T12:37:33.961Z</time></trkpt><trkpt lat="43.90672970459444" lon="12.293765861782596"><ele>238.0</ele><time>2026-05-01T12:37:34.961Z</time></trkpt><trkpt lat="43.90658416922244" lon="12.293738329634387"><ele>239.0</ele><time>2026-05-01T12:37:35.961Z</time></trkpt><trkpt lat="43.90643443292834" lon="12.29370524093257"><ele>240.0</ele><time>2026-05-01T12:37:36.961Z</time></trkpt><trkpt lat="43.90628382422851" lon="12.293668333108535"><ele>241.0</ele><time>2026-05-01T12:37:37.961Z</time></trkpt><trkpt lat="43.90612473888493" lon="12.293643331159123"><ele>241.0</ele><time>2026-05-01T12:37:38.961Z</time></trkpt><trkpt lat="43.90595438519236" lon="12.29362180670384"><ele>241.0</ele><time>2026-05-01T12:37:39.961Z</time></trkpt><trkpt lat="43.90578472174342" lon="12.293590369122922"><ele>241.0</ele><time>2026-05-01T12:37:40.961Z</time></trkpt><trkpt lat="43.905613574065164" lon="12.293565181877879"><ele>241.33333333333331</ele><time>2026-05-01T12:37:41.961Z</time></trkpt><trkpt lat="43.90543336751375" lon="12.293528939443096"><ele>241.66666666666669</ele><time>2026-05-01T12:37:42.961Z</time></trkpt><trkpt lat="43.90524811285907" lon="12.293475564193852"><ele>242.0</ele><time>2026-05-01T12:37:43.961Z</time></trkpt><trkpt lat="43.90507222125302" lon="12.293410744326241"><ele>241.33333333333334</ele><time>2026-05-01T12:37:44.961Z</time></trkpt><trkpt lat="43.90491273877852" lon="12.293353991428999"><ele>240.66666666666669</ele><time>2026-05-01T12:37:45.961Z</time></trkpt><trkpt lat="43.90475651090033" lon="12.293308235002806"><ele>240.0</ele><time>2026-05-01T12:37:46.961Z</time></trkpt><trkpt lat="43.904609360374174" lon="12.29328456140986"><ele>240.0</ele><time>2026-05-01T12:37:47.961Z</time></trkpt><trkpt lat="43.90447026694134" lon="12.293280120510106"><ele>240.0</ele><time>2026-05-01T12:37:48.961Z</time></trkpt><trkpt lat="43.90434854060745" lon="12.293314029899106"><ele>240.0</ele><time>2026-05-01T12:37:49.961Z</time></trkpt><trkpt lat="43.90421412569892" lon="12.293391550211348"><ele>240.0</ele><time>2026-05-01T12:37:50.961Z</time></trkpt><trkpt lat="43.90407246389863" lon="12.293523881196302"><ele>239.0</ele><time>2026-05-01T12:37:51.961Z</time></trkpt><trkpt lat="43.90393350496215" lon="12.293649881963013"><ele>238.0</ele><time>2026-05-01T12:37:52.961Z</time></trkpt><trkpt lat="43.90379315496873" lon="12.29382701407733"><ele>237.0</ele><time>2026-05-01T12:37:53.961Z</time></trkpt><trkpt lat="43.90367218473068" lon="12.294013102359633"><ele>237.0</ele><time>2026-05-01T12:37:54.961Z</time></trkpt><trkpt lat="43.90354784924875" lon="12.294203754317861"><ele>237.0</ele><time>2026-05-01T12:37:55.961Z</time></trkpt><trkpt lat="43.90343353693492" lon="12.294402347253502"><ele>237.0</ele><time>2026-05-01T12:37:56.961Z</time></trkpt><trkpt lat="43.90334032381647" lon="12.294604311682942"><ele>237.33333333333331</ele><time>2026-05-01T12:37:57.961Z</time></trkpt><trkpt lat="43.903260292005086" lon="12.294796684023039"><ele>237.66666666666666</ele><time>2026-05-01T12:37:58.961Z</time></trkpt><trkpt lat="43.90316241793544" lon="12.294945506772748"><ele>238.0</ele><time>2026-05-01T12:37:59.961Z</time></trkpt><trkpt lat="43.90304104781674" lon="12.295054239848659"><ele>238.0</ele><time>2026-05-01T12:38:00.961Z</time></trkpt><trkpt lat="43.902906349793774" lon="12.295072200006366"><ele>238.0</ele><time>2026-05-01T12:38:01.961Z</time></trkpt><trkpt lat="43.90276115678241" lon="12.295122740498346"><ele>238.0</ele><time>2026-05-01T12:38:02.961Z</time></trkpt><trkpt lat="43.902578613525385" lon="12.295107231746"><ele>238.66666666666666</ele><time>2026-05-01T12:38:03.961Z</time></trkpt><trkpt lat="43.902375008739384" lon="12.295050155780707"><ele>239.33333333333331</ele><time>2026-05-01T12:38:04.961Z</time></trkpt><trkpt lat="43.90216071653625" lon="12.294975048979392"><ele>240.0</ele><time>2026-05-01T12:38:05.961Z</time></trkpt><trkpt lat="43.90193344161443" lon="12.294908870211257"><ele>239.33333333333331</ele><time>2026-05-01T12:38:06.961Z</time></trkpt><trkpt lat="43.901730210369365" lon="12.294852921335188"><ele>238.66666666666666</ele><time>2026-05-01T12:38:07.961Z</time></trkpt><trkpt lat="43.90155501528205" lon="12.294736927277125"><ele>238.0</ele><time>2026-05-01T12:38:08.961Z</time></trkpt><trkpt lat="43.901396552223474" lon="12.294594462230688"><ele>241.0</ele><time>2026-05-01T12:38:09.961Z</time></trkpt><trkpt lat="43.90125870758957" lon="12.294447798871941"><ele>244.0</ele><time>2026-05-01T12:38:10.961Z</time></trkpt><trkpt lat="43.90111387633868" lon="12.2942922812303"><ele>247.0</ele><time>2026-05-01T12:38:11.961Z</time></trkpt><trkpt lat="43.90096770432049" lon="12.294134909233692"><ele>246.33333333333331</ele><time>2026-05-01T12:38:12.961Z</time></trkpt><trkpt lat="43.90082186764138" lon="12.29397789826587"><ele>245.66666666666669</ele><time>2026-05-01T12:38:13.961Z</time></trkpt><trkpt lat="43.9006838634366" lon="12.293836047153828"><ele>245.0</ele><time>2026-05-01T12:38:14.961Z</time></trkpt><trkpt lat="43.90055634514506" lon="12.293698570271392"><ele>246.75</ele><time>2026-05-01T12:38:15.961Z</time></trkpt><trkpt lat="43.90044859532996" lon="12.293558406092503"><ele>248.5</ele><time>2026-05-01T12:38:16.961Z</time></trkpt><trkpt lat="43.90036126488953" lon="12.293410550993757"><ele>250.25</ele><time>2026-05-01T12:38:17.961Z</time></trkpt><trkpt lat="43.900298140982564" lon="12.293220506333114"><ele>252.0</ele><time>2026-05-01T12:38:18.961Z</time></trkpt><trkpt lat="43.90026955390101" lon="12.29300936950732"><ele>253.33333333333331</ele><time>2026-05-01T12:38:19.961Z</time></trkpt><trkpt lat="43.900213044432775" lon="12.292775867669418"><ele>254.66666666666666</ele><time>2026-05-01T12:38:20.961Z</time></trkpt><trkpt lat="43.90022145998857" lon="12.29250732094618"><ele>256.0</ele><time>2026-05-01T12:38:21.961Z</time></trkpt><trkpt lat="43.90021721659835" lon="12.292256788506728"><ele>257.0</ele><time>2026-05-01T12:38:22.961Z</time></trkpt><trkpt lat="43.90021589211193" lon="12.29203460195174"><ele>258.0</ele><time>2026-05-01T12:38:23.961Z</time></trkpt><trkpt lat="43.900217573293084" lon="12.291836276452537"><ele>259.0</ele><time>2026-05-01T12:38:24.96Z</time></trkpt><trkpt lat="43.900211367282516" lon="12.29165904314083"><ele>260.0</ele><time>2026-05-01T12:38:25.96Z</time></trkpt><trkpt lat="43.90019765013663" lon="12.291490115565272"><ele>259.8</ele><time>2026-05-01T12:38:26.961Z</time></trkpt><trkpt lat="43.900175863552406" lon="12.291338076757928"><ele>259.6</ele><time>2026-05-01T12:38:27.96Z</time></trkpt><trkpt lat="43.90015008640331" lon="12.291184051247207"><ele>259.4</ele><time>2026-05-01T12:38:28.96Z</time></trkpt><trkpt lat="43.90010101386579" lon="12.291043142676433"><ele>259.2</ele><time>2026-05-01T12:38:29.96Z</time></trkpt><trkpt lat="43.90004266740261" lon="12.290924214373517"><ele>259.0</ele><time>2026-05-01T12:38:30.96Z</time></trkpt><trkpt lat="43.89997462893237" lon="12.290814805809786"><ele>259.0</ele><time>2026-05-01T12:38:31.96Z</time></trkpt><trkpt lat="43.89990112182875" lon="12.290691072008652"><ele>259.0</ele><time>2026-05-01T12:38:32.96Z</time></trkpt><trkpt lat="43.89981230788273" lon="12.290545357434834"><ele>259.0</ele><time>2026-05-01T12:38:33.961Z</time></trkpt><trkpt lat="43.89973185230772" lon="12.290402137728961"><ele>259.0</ele><time>2026-05-01T12:38:34.961Z</time></trkpt><trkpt lat="43.89965163435787" lon="12.290260557021695"><ele>260.25</ele><time>2026-05-01T12:38:35.961Z</time></trkpt><trkpt lat="43.89957316126678" lon="12.290121526260856"><ele>261.5</ele><time>2026-05-01T12:38:36.96Z</time></trkpt><trkpt lat="43.899494657017804" lon="12.28997092280944"><ele>262.75</ele><time>2026-05-01T12:38:37.96Z</time></trkpt><trkpt lat="43.8994085053166" lon="12.289824227161024"><ele>264.0</ele><time>2026-05-01T12:38:38.96Z</time></trkpt><trkpt lat="43.89931807434727" lon="12.289677115389036"><ele>263.75</ele><time>2026-05-01T12:38:39.96Z</time></trkpt><trkpt lat="43.89923453314314" lon="12.289528088657187"><ele>263.5</ele><time>2026-05-01T12:38:40.96Z</time></trkpt><trkpt lat="43.899149159789275" lon="12.28938037487556"><ele>263.25</ele><time>2026-05-01T12:38:41.96Z</time></trkpt><trkpt lat="43.8990552029285" lon="12.289238151415557"><ele>263.0</ele><time>2026-05-01T12:38:42.96Z</time></trkpt><trkpt lat="43.8989557177207" lon="12.289121455764034"><ele>263.0</ele><time>2026-05-01T12:38:43.96Z</time></trkpt><trkpt lat="43.89885859003511" lon="12.289010473068604"><ele>263.0</ele><time>2026-05-01T12:38:44.96Z</time></trkpt><trkpt lat="43.89871996010559" lon="12.288941662227229"><ele>263.0</ele><time>2026-05-01T12:38:45.96Z</time></trkpt><trkpt lat="43.89857844191199" lon="12.288885165541414"><ele>263.0</ele><time>2026-05-01T12:38:46.96Z</time></trkpt><trkpt lat="43.898440437543655" lon="12.288841181190568"><ele>265.2</ele><time>2026-05-01T12:38:47.96Z</time></trkpt><trkpt lat="43.8983097072064" lon="12.28882060251581"><ele>267.4</ele><time>2026-05-01T12:38:48.96Z</time></trkpt><trkpt lat="43.89819628919229" lon="12.288821237280242"><ele>269.59999999999997</ele><time>2026-05-01T12:38:49.96Z</time></trkpt><trkpt lat="43.898115183401984" lon="12.288832277647181"><ele>271.8</ele><time>2026-05-01T12:38:50.96Z</time></trkpt><trkpt lat="43.89801375940338" lon="12.288846207553043"><ele>274.0</ele><time>2026-05-01T12:38:52.96Z</time></trkpt><trkpt lat="43.89795059429863" lon="12.288856901204255"><ele>274.0</ele><time>2026-05-01T12:38:55.96Z</time></trkpt><trkpt lat="43.89787094081769" lon="12.288846205045767"><ele>274.0</ele><time>2026-05-01T12:38:57.96Z</time></trkpt><trkpt lat="43.89778778087506" lon="12.288900210021376"><ele>274.0</ele><time>2026-05-01T12:38:58.96Z</time></trkpt><trkpt lat="43.89772425664145" lon="12.288974497309708"><ele>274.0</ele><time>2026-05-01T12:38:59.96Z</time></trkpt><trkpt lat="43.897665530604506" lon="12.289022586163941"><ele>274.0</ele><time>2026-05-01T12:39:00.96Z</time></trkpt><trkpt lat="43.89750736146634" lon="12.288955414641382"><ele>275.0</ele><time>2026-05-01T12:39:02.96Z</time></trkpt><trkpt lat="43.897408576714305" lon="12.288898143364706"><ele>276.0</ele><time>2026-05-01T12:39:03.96Z</time></trkpt><trkpt lat="43.89731336952764" lon="12.288801583394376"><ele>277.0</ele><time>2026-05-01T12:39:04.96Z</time></trkpt><trkpt lat="43.8972042747867" lon="12.288691236641977"><ele>278.0</ele><time>2026-05-01T12:39:05.96Z</time></trkpt><trkpt lat="43.89708706958447" lon="12.288573299002659"><ele>278.0</ele><time>2026-05-01T12:39:06.96Z</time></trkpt><trkpt lat="43.896973264353335" lon="12.288470947860786"><ele>278.0</ele><time>2026-05-01T12:39:07.96Z</time></trkpt><trkpt lat="43.896861929153566" lon="12.288376978696343"><ele>278.0</ele><time>2026-05-01T12:39:08.96Z</time></trkpt><trkpt lat="43.89674682951052" lon="12.288280838299498"><ele>278.0</ele><time>2026-05-01T12:39:09.96Z</time></trkpt><trkpt lat="43.89662840422748" lon="12.288175778289308"><ele>278.75</ele><time>2026-05-01T12:39:10.96Z</time></trkpt><trkpt lat="43.896509640222355" lon="12.288075916415202"><ele>279.5</ele><time>2026-05-01T12:39:11.96Z</time></trkpt><trkpt lat="43.89639284968469" lon="12.287975947912978"><ele>280.25</ele><time>2026-05-01T12:39:12.96Z</time></trkpt><trkpt lat="43.89627301392981" lon="12.287868919992365"><ele>281.0</ele><time>2026-05-01T12:39:13.96Z</time></trkpt><trkpt lat="43.896140209017055" lon="12.287759691530814"><ele>281.0</ele><time>2026-05-01T12:39:14.96Z</time></trkpt><trkpt lat="43.896016639144214" lon="12.287635553470516"><ele>281.0</ele><time>2026-05-01T12:39:15.96Z</time></trkpt><trkpt lat="43.8958970746089" lon="12.287541392974877"><ele>281.0</ele><time>2026-05-01T12:39:16.96Z</time></trkpt><trkpt lat="43.89577534715461" lon="12.287522016815197"><ele>281.0</ele><time>2026-05-01T12:39:17.96Z</time></trkpt><trkpt lat="43.89563812012238" lon="12.287556053936774"><ele>281.33333333333337</ele><time>2026-05-01T12:39:18.96Z</time></trkpt><trkpt lat="43.89549949410962" lon="12.287640108146412"><ele>281.6666666666667</ele><time>2026-05-01T12:39:19.96Z</time></trkpt><trkpt lat="43.895361369778776" lon="12.287774068471268"><ele>282.0</ele><time>2026-05-01T12:39:20.96Z</time></trkpt><trkpt lat="43.89524628202966" lon="12.287941793576612"><ele>282.0</ele><time>2026-05-01T12:39:21.96Z</time></trkpt><trkpt lat="43.89513690704822" lon="12.288084431446737"><ele>282.0</ele><time>2026-05-01T12:39:22.96Z</time></trkpt><trkpt lat="43.89505351508128" lon="12.2882315053844"><ele>282.0</ele><time>2026-05-01T12:39:23.96Z</time></trkpt><trkpt lat="43.894979318311755" lon="12.288404475150541"><ele>282.0</ele><time>2026-05-01T12:39:24.96Z</time></trkpt><trkpt lat="43.89494127639172" lon="12.288587966105991"><ele>283.25</ele><time>2026-05-01T12:39:25.96Z</time></trkpt><trkpt lat="43.8948869210634" lon="12.288737778376717"><ele>284.5</ele><time>2026-05-01T12:39:26.96Z</time></trkpt><trkpt lat="43.894808367549864" lon="12.28886630082775"><ele>285.75</ele><time>2026-05-01T12:39:27.96Z</time></trkpt><trkpt lat="43.89472253030907" lon="12.288991215598793"><ele>287.0</ele><time>2026-05-01T12:39:28.96Z</time></trkpt><trkpt lat="43.894618941539306" lon="12.289089984729685"><ele>287.0</ele><time>2026-05-01T12:39:29.96Z</time></trkpt><trkpt lat="43.8945032770091" lon="12.28916595455226"><ele>287.0</ele><time>2026-05-01T12:39:30.96Z</time></trkpt><trkpt lat="43.89436265690869" lon="12.289218997016462"><ele>287.0</ele><time>2026-05-01T12:39:31.96Z</time></trkpt><trkpt lat="43.89420359192273" lon="12.289240693456371"><ele>287.0</ele><time>2026-05-01T12:39:32.96Z</time></trkpt><trkpt lat="43.8940540984475" lon="12.289270438681825"><ele>287.75</ele><time>2026-05-01T12:39:33.96Z</time></trkpt><trkpt lat="43.89391219129606" lon="12.289288198867501"><ele>288.5</ele><time>2026-05-01T12:39:34.96Z</time></trkpt><trkpt lat="43.89378152618183" lon="12.289318067123196"><ele>289.25</ele><time>2026-05-01T12:39:35.96Z</time></trkpt><trkpt lat="43.89365838422359" lon="12.28934871499541"><ele>290.0</ele><time>2026-05-01T12:39:36.96Z</time></trkpt><trkpt lat="43.89352768316102" lon="12.289370919085838"><ele>290.75</ele><time>2026-05-01T12:39:37.96Z</time></trkpt><trkpt lat="43.89339859081422" lon="12.289397034375392"><ele>291.5</ele><time>2026-05-01T12:39:38.96Z</time></trkpt><trkpt lat="43.89327587340591" lon="12.289431860176702"><ele>292.25</ele><time>2026-05-01T12:39:39.96Z</time></trkpt><trkpt lat="43.89316293194828" lon="12.289467156885447"><ele>293.0</ele><time>2026-05-01T12:39:40.96Z</time></trkpt><trkpt lat="43.8930497737176" lon="12.289503015443147"><ele>293.0</ele><time>2026-05-01T12:39:41.96Z</time></trkpt><trkpt lat="43.892912291275366" lon="12.289462791398684"><ele>293.0</ele><time>2026-05-01T12:39:42.96Z</time></trkpt><trkpt lat="43.89275992551706" lon="12.28940289294542"><ele>293.0</ele><time>2026-05-01T12:39:43.96Z</time></trkpt><trkpt lat="43.89259913704121" lon="12.289346672293131"><ele>293.0</ele><time>2026-05-01T12:39:44.96Z</time></trkpt><trkpt lat="43.8924596188177" lon="12.289292938124165"><ele>293.0</ele><time>2026-05-01T12:39:45.96Z</time></trkpt><trkpt lat="43.89232686143095" lon="12.289244373036691"><ele>293.0</ele><time>2026-05-01T12:39:46.96Z</time></trkpt><trkpt lat="43.892200660257515" lon="12.28919916528765"><ele>293.0</ele><time>2026-05-01T12:39:47.96Z</time></trkpt><trkpt lat="43.89207568924455" lon="12.289150617393965"><ele>293.0</ele><time>2026-05-01T12:39:48.96Z</time></trkpt><trkpt lat="43.89194838454482" lon="12.28910077436325"><ele>293.0</ele><time>2026-05-01T12:39:49.96Z</time></trkpt><trkpt lat="43.891826518233074" lon="12.28905768536671"><ele>293.0</ele><time>2026-05-01T12:39:50.96Z</time></trkpt><trkpt lat="43.891709070592036" lon="12.289016933414464"><ele>293.0</ele><time>2026-05-01T12:39:51.96Z</time></trkpt><trkpt lat="43.891597471770254" lon="12.288987620391595"><ele>293.0</ele><time>2026-05-01T12:39:52.96Z</time></trkpt><trkpt lat="43.89149270000233" lon="12.288954044429111"><ele>293.0</ele><time>2026-05-01T12:39:53.96Z</time></trkpt><trkpt lat="43.891389578682684" lon="12.288918109646136"><ele>293.0</ele><time>2026-05-01T12:39:54.96Z</time></trkpt><trkpt lat="43.8912794804259" lon="12.288870532218453"><ele>293.0</ele><time>2026-05-01T12:39:55.96Z</time></trkpt><trkpt lat="43.891163908669874" lon="12.288828963990024"><ele>293.0</ele><time>2026-05-01T12:39:56.96Z</time></trkpt><trkpt lat="43.891046767589415" lon="12.288786053029634"><ele>293.4</ele><time>2026-05-01T12:39:57.96Z</time></trkpt><trkpt lat="43.890936086540535" lon="12.288737290938947"><ele>293.8</ele><time>2026-05-01T12:39:58.96Z</time></trkpt><trkpt lat="43.89083404058345" lon="12.288694890573376"><ele>294.2</ele><time>2026-05-01T12:39:59.96Z</time></trkpt><trkpt lat="43.89073112706205" lon="12.288654579186623"><ele>294.6</ele><time>2026-05-01T12:40:00.96Z</time></trkpt><trkpt lat="43.89062297792864" lon="12.288622453662189"><ele>295.0</ele><time>2026-05-01T12:40:01.96Z</time></trkpt><trkpt lat="43.8905162770447" lon="12.288582999420585"><ele>295.0</ele><time>2026-05-01T12:40:02.96Z</time></trkpt><trkpt lat="43.890398747722756" lon="12.288535086700964"><ele>295.0</ele><time>2026-05-01T12:40:03.96Z</time></trkpt><trkpt lat="43.890264830756315" lon="12.28848495317014"><ele>295.0</ele><time>2026-05-01T12:40:04.96Z</time></trkpt><trkpt lat="43.890117774733284" lon="12.288441026653325"><ele>295.0</ele><time>2026-05-01T12:40:05.96Z</time></trkpt><trkpt lat="43.889965527132965" lon="12.288389150548499"><ele>293.75</ele><time>2026-05-01T12:40:06.96Z</time></trkpt><trkpt lat="43.889820249763325" lon="12.288331066502277"><ele>292.5</ele><time>2026-05-01T12:40:07.96Z</time></trkpt><trkpt lat="43.88968785361777" lon="12.288281245167871"><ele>291.25</ele><time>2026-05-01T12:40:08.96Z</time></trkpt><trkpt lat="43.88955443920927" lon="12.288239486505319"><ele>290.0</ele><time>2026-05-01T12:40:09.96Z</time></trkpt><trkpt lat="43.88942693632749" lon="12.288193296991201"><ele>290.0</ele><time>2026-05-01T12:40:10.96Z</time></trkpt><trkpt lat="43.88929999722536" lon="12.288143287789701"><ele>290.0</ele><time>2026-05-01T12:40:11.96Z</time></trkpt><trkpt lat="43.88916619667548" lon="12.28809021263157"><ele>290.0</ele><time>2026-05-01T12:40:12.96Z</time></trkpt><trkpt lat="43.88903163391101" lon="12.288034454633275"><ele>290.0</ele><time>2026-05-01T12:40:13.96Z</time></trkpt><trkpt lat="43.888903909676955" lon="12.287981135798708"><ele>290.25</ele><time>2026-05-01T12:40:14.96Z</time></trkpt><trkpt lat="43.88877815318052" lon="12.287926391297061"><ele>290.5</ele><time>2026-05-01T12:40:15.96Z</time></trkpt><trkpt lat="43.8886588123959" lon="12.287847839973399"><ele>290.75</ele><time>2026-05-01T12:40:16.96Z</time></trkpt><trkpt lat="43.88855909675202" lon="12.28773385170413"><ele>291.0</ele><time>2026-05-01T12:40:17.96Z</time></trkpt><trkpt lat="43.88848341551683" lon="12.287590284956957"><ele>291.0</ele><time>2026-05-01T12:40:18.96Z</time></trkpt><trkpt lat="43.88842825821449" lon="12.287441879343234"><ele>291.0</ele><time>2026-05-01T12:40:19.96Z</time></trkpt><trkpt lat="43.888399502801235" lon="12.287306701586768"><ele>291.0</ele><time>2026-05-01T12:40:20.96Z</time></trkpt><trkpt lat="43.88838500221877" lon="12.287181095873427"><ele>291.0</ele><time>2026-05-01T12:40:21.96Z</time></trkpt><trkpt lat="43.888378500369264" lon="12.287071504653463"><ele>291.0</ele><time>2026-05-01T12:40:22.96Z</time></trkpt><trkpt lat="43.88839094663182" lon="12.286971325605608"><ele>290.2</ele><time>2026-05-01T12:40:23.96Z</time></trkpt><trkpt lat="43.88840610176386" lon="12.286862359461374"><ele>289.40000000000003</ele><time>2026-05-01T12:40:24.96Z</time></trkpt><trkpt lat="43.88840142750173" lon="12.286734025744723"><ele>288.6</ele><time>2026-05-01T12:40:25.96Z</time></trkpt><trkpt lat="43.888356720578045" lon="12.286601897979338"><ele>287.8</ele><time>2026-05-01T12:40:26.96Z</time></trkpt><trkpt lat="43.888297689148786" lon="12.28646520903243"><ele>287.0</ele><time>2026-05-01T12:40:27.96Z</time></trkpt><trkpt lat="43.888233473240035" lon="12.286331992499317"><ele>287.0</ele><time>2026-05-01T12:40:28.96Z</time></trkpt><trkpt lat="43.888153433630485" lon="12.286211687840474"><ele>287.0</ele><time>2026-05-01T12:40:29.96Z</time></trkpt><trkpt lat="43.88806479488497" lon="12.286097864324892"><ele>287.0</ele><time>2026-05-01T12:40:30.96Z</time></trkpt><trkpt lat="43.88797220157365" lon="12.285988444041587"><ele>287.0</ele><time>2026-05-01T12:40:31.96Z</time></trkpt><trkpt lat="43.887887129380786" lon="12.285877439176996"><ele>287.0</ele><time>2026-05-01T12:40:32.96Z</time></trkpt><trkpt lat="43.88779829978565" lon="12.285763386242216"><ele>287.0</ele><time>2026-05-01T12:40:33.96Z</time></trkpt><trkpt lat="43.88771480917403" lon="12.285653321972807"><ele>287.0</ele><time>2026-05-01T12:40:34.96Z</time></trkpt><trkpt lat="43.88763533967753" lon="12.285557478741362"><ele>287.0</ele><time>2026-05-01T12:40:35.96Z</time></trkpt><trkpt lat="43.88755165602886" lon="12.285464976179952"><ele>287.0</ele><time>2026-05-01T12:40:36.96Z</time></trkpt><trkpt lat="43.88746314197418" lon="12.285389593494527"><ele>288.25</ele><time>2026-05-01T12:40:37.96Z</time></trkpt><trkpt lat="43.88735924354979" lon="12.285365574421272"><ele>289.5</ele><time>2026-05-01T12:40:38.959Z</time></trkpt><trkpt lat="43.8872328201783" lon="12.285388420884603"><ele>290.75</ele><time>2026-05-01T12:40:39.96Z</time></trkpt><trkpt lat="43.88711426344072" lon="12.285406015889361"><ele>292.0</ele><time>2026-05-01T12:40:40.96Z</time></trkpt><trkpt lat="43.88701293756448" lon="12.285436523842135"><ele>292.0</ele><time>2026-05-01T12:40:41.96Z</time></trkpt><trkpt lat="43.8869209533147" lon="12.285450475651363"><ele>292.0</ele><time>2026-05-01T12:40:42.96Z</time></trkpt><trkpt lat="43.886827150895805" lon="12.285450992072628"><ele>292.0</ele><time>2026-05-01T12:40:43.96Z</time></trkpt><trkpt lat="43.88672752687616" lon="12.285448233265244"><ele>292.0</ele><time>2026-05-01T12:40:44.96Z</time></trkpt><trkpt lat="43.886640131584635" lon="12.28542231940574"><ele>292.0</ele><time>2026-05-01T12:40:45.96Z</time></trkpt><trkpt lat="43.88657351277333" lon="12.285361904363445"><ele>292.16666666666663</ele><time>2026-05-01T12:40:46.96Z</time></trkpt><trkpt lat="43.88650800986522" lon="12.285298970281966"><ele>292.3333333333333</ele><time>2026-05-01T12:40:47.96Z</time></trkpt><trkpt lat="43.8864288374798" lon="12.285240066362014"><ele>292.5</ele><time>2026-05-01T12:40:48.96Z</time></trkpt><trkpt lat="43.88637309645852" lon="12.28514671284861"><ele>292.6666666666667</ele><time>2026-05-01T12:40:49.96Z</time></trkpt><trkpt lat="43.88631901071755" lon="12.285059770569998"><ele>292.83333333333337</ele><time>2026-05-01T12:40:50.96Z</time></trkpt><trkpt lat="43.88624743256473" lon="12.284980309320753"><ele>293.0</ele><time>2026-05-01T12:40:51.96Z</time></trkpt><trkpt lat="43.886155188592845" lon="12.284887487918578"><ele>293.0</ele><time>2026-05-01T12:40:52.96Z</time></trkpt><trkpt lat="43.88607255371937" lon="12.28478131279696"><ele>293.0</ele><time>2026-05-01T12:40:53.96Z</time></trkpt><trkpt lat="43.88598263027368" lon="12.284691817154549"><ele>293.0</ele><time>2026-05-01T12:40:54.96Z</time></trkpt><trkpt lat="43.885872730364476" lon="12.284634900815368"><ele>293.0</ele><time>2026-05-01T12:40:55.96Z</time></trkpt><trkpt lat="43.885764658072105" lon="12.284601935448778"><ele>294.6</ele><time>2026-05-01T12:40:56.96Z</time></trkpt><trkpt lat="43.88565359835997" lon="12.284540410850024"><ele>296.20000000000005</ele><time>2026-05-01T12:40:57.96Z</time></trkpt><trkpt lat="43.885553461976244" lon="12.284530664527841"><ele>297.8</ele><time>2026-05-01T12:40:58.96Z</time></trkpt><trkpt lat="43.885450295650294" lon="12.28450412099131"><ele>299.40000000000003</ele><time>2026-05-01T12:40:59.96Z</time></trkpt><trkpt lat="43.88534863037882" lon="12.284474181070394"><ele>301.0</ele><time>2026-05-01T12:41:00.96Z</time></trkpt><trkpt lat="43.88525320099901" lon="12.284414703483042"><ele>301.0</ele><time>2026-05-01T12:41:01.96Z</time></trkpt><trkpt lat="43.88518944990985" lon="12.28432767577579"><ele>301.0</ele><time>2026-05-01T12:41:02.96Z</time></trkpt><trkpt lat="43.88512764416673" lon="12.284180820199312"><ele>301.0</ele><time>2026-05-01T12:41:03.96Z</time></trkpt><trkpt lat="43.88507301735698" lon="12.284023434885603"><ele>301.0</ele><time>2026-05-01T12:41:04.96Z</time></trkpt><trkpt lat="43.88502796586122" lon="12.283891210786464"><ele>301.0</ele><time>2026-05-01T12:41:05.96Z</time></trkpt><trkpt lat="43.8849677128514" lon="12.283751521260621"><ele>303.75</ele><time>2026-05-01T12:41:06.96Z</time></trkpt><trkpt lat="43.88490041567872" lon="12.28361834686192"><ele>306.5</ele><time>2026-05-01T12:41:07.96Z</time></trkpt><trkpt lat="43.88481471856586" lon="12.283509455780884"><ele>309.25</ele><time>2026-05-01T12:41:08.96Z</time></trkpt><trkpt lat="43.884693192294705" lon="12.283393618509084"><ele>312.0</ele><time>2026-05-01T12:41:09.96Z</time></trkpt><trkpt lat="43.88453387211608" lon="12.283288416429524"><ele>312.0</ele><time>2026-05-01T12:41:10.96Z</time></trkpt><trkpt lat="43.88436270454129" lon="12.283215587446698"><ele>312.0</ele><time>2026-05-01T12:41:11.96Z</time></trkpt><trkpt lat="43.88421096823509" lon="12.283164680282425"><ele>312.0</ele><time>2026-05-01T12:41:12.96Z</time></trkpt><trkpt lat="43.88407508559727" lon="12.283120978668688"><ele>311.75</ele><time>2026-05-01T12:41:13.96Z</time></trkpt><trkpt lat="43.88395855668336" lon="12.283063616864547"><ele>311.5</ele><time>2026-05-01T12:41:14.96Z</time></trkpt><trkpt lat="43.8838218611116" lon="12.283044520841583"><ele>311.25</ele><time>2026-05-01T12:41:15.96Z</time></trkpt><trkpt lat="43.88370341951077" lon="12.283059920771242"><ele>311.0</ele><time>2026-05-01T12:41:16.96Z</time></trkpt><trkpt lat="43.883556051122326" lon="12.283135749077724"><ele>313.6666666666667</ele><time>2026-05-01T12:41:17.96Z</time></trkpt><trkpt lat="43.8834013807612" lon="12.283255995877111"><ele>316.3333333333333</ele><time>2026-05-01T12:41:18.96Z</time></trkpt><trkpt lat="43.88323408999778" lon="12.283377291470982"><ele>319.0</ele><time>2026-05-01T12:41:19.96Z</time></trkpt><trkpt lat="43.883078038801855" lon="12.283513282712397"><ele>319.0</ele><time>2026-05-01T12:41:20.96Z</time></trkpt><trkpt lat="43.88288164236098" lon="12.283623013303437"><ele>319.0</ele><time>2026-05-01T12:41:21.96Z</time></trkpt><trkpt lat="43.8827070722825" lon="12.283743267799862"><ele>319.0</ele><time>2026-05-01T12:41:22.96Z</time></trkpt><trkpt lat="43.8825457211241" lon="12.283833070566224"><ele>321.75</ele><time>2026-05-01T12:41:23.96Z</time></trkpt><trkpt lat="43.88239728418375" lon="12.28387528463864"><ele>324.5</ele><time>2026-05-01T12:41:24.96Z</time></trkpt><trkpt lat="43.88227685758968" lon="12.283885207988464"><ele>327.25</ele><time>2026-05-01T12:41:25.96Z</time></trkpt><trkpt lat="43.882205055386116" lon="12.283873759954199"><ele>330.0</ele><time>2026-05-01T12:41:26.96Z</time></trkpt><trkpt lat="43.88206765849487" lon="12.28386136146027"><ele>330.0</ele><time>2026-05-01T12:41:48.96Z</time></trkpt><trkpt lat="43.881980165133164" lon="12.283844700034182"><ele>330.0</ele><time>2026-05-01T12:41:49.96Z</time></trkpt><trkpt lat="43.88187582005832" lon="12.283814503918034"><ele>330.0</ele><time>2026-05-01T12:41:50.96Z</time></trkpt><trkpt lat="43.88176621327678" lon="12.283753637568816"><ele>330.0</ele><time>2026-05-01T12:41:51.96Z</time></trkpt><trkpt lat="43.88165128240632" lon="12.283658190591797"><ele>330.0</ele><time>2026-05-01T12:41:52.96Z</time></trkpt><trkpt lat="43.881528781754085" lon="12.283519060657003"><ele>329.0</ele><time>2026-05-01T12:41:53.96Z</time></trkpt><trkpt lat="43.88141800125003" lon="12.283366144553254"><ele>328.0</ele><time>2026-05-01T12:41:54.96Z</time></trkpt><trkpt lat="43.8812882501159" lon="12.283156149382163"><ele>327.0</ele><time>2026-05-01T12:41:55.96Z</time></trkpt><trkpt lat="43.881160766272515" lon="12.28294582652383"><ele>324.6666666666667</ele><time>2026-05-01T12:41:56.96Z</time></trkpt><trkpt lat="43.88103159554214" lon="12.282760392528338"><ele>322.33333333333337</ele><time>2026-05-01T12:41:57.96Z</time></trkpt><trkpt lat="43.88092561067698" lon="12.282561785219414"><ele>320.0</ele><time>2026-05-01T12:41:58.96Z</time></trkpt><trkpt lat="43.88081508264165" lon="12.282387686890681"><ele>326.33333333333337</ele><time>2026-05-01T12:41:59.96Z</time></trkpt><trkpt lat="43.88071111779744" lon="12.282222366223445"><ele>332.6666666666667</ele><time>2026-05-01T12:42:00.96Z</time></trkpt><trkpt lat="43.880605927202716" lon="12.282056986822944"><ele>339.0</ele><time>2026-05-01T12:42:01.96Z</time></trkpt><trkpt lat="43.88045657449522" lon="12.281915505333618"><ele>339.0</ele><time>2026-05-01T12:42:02.96Z</time></trkpt><trkpt lat="43.88030690076426" lon="12.28179345160965"><ele>339.0</ele><time>2026-05-01T12:42:03.96Z</time></trkpt><trkpt lat="43.88011913118017" lon="12.28169092884967"><ele>339.0</ele><time>2026-05-01T12:42:04.96Z</time></trkpt><trkpt lat="43.8798912051459" lon="12.28158772545634"><ele>341.0</ele><time>2026-05-01T12:42:05.96Z</time></trkpt><trkpt lat="43.8796527433731" lon="12.281484987762667"><ele>343.0</ele><time>2026-05-01T12:42:06.96Z</time></trkpt><trkpt lat="43.879432324520714" lon="12.281379250860324"><ele>338.0</ele><time>2026-05-01T12:42:07.96Z</time></trkpt><trkpt lat="43.87920922309999" lon="12.281254967931966"><ele>333.0</ele><time>2026-05-01T12:42:08.96Z</time></trkpt><trkpt lat="43.878987068356686" lon="12.281135534892206"><ele>333.0</ele><time>2026-05-01T12:42:09.96Z</time></trkpt><trkpt lat="43.87877895116135" lon="12.281052943963436"><ele>333.0</ele><time>2026-05-01T12:42:10.96Z</time></trkpt><trkpt lat="43.87861110626491" lon="12.281034294331958"><ele>333.0</ele><time>2026-05-01T12:42:11.96Z</time></trkpt><trkpt lat="43.87844185965749" lon="12.280923959938665"><ele>335.0</ele><time>2026-05-01T12:42:12.96Z</time></trkpt><trkpt lat="43.87828021083447" lon="12.280808862670206"><ele>337.0</ele><time>2026-05-01T12:42:13.96Z</time></trkpt><trkpt lat="43.87811396250437" lon="12.280690490456198"><ele>339.0</ele><time>2026-05-01T12:42:14.96Z</time></trkpt><trkpt lat="43.87795704096741" lon="12.280579513822117"><ele>339.0</ele><time>2026-05-01T12:42:15.96Z</time></trkpt><trkpt lat="43.87779478802684" lon="12.280472155181211"><ele>339.0</ele><time>2026-05-01T12:42:16.96Z</time></trkpt><trkpt lat="43.87764731138444" lon="12.280404850830177"><ele>339.0</ele><time>2026-05-01T12:42:17.96Z</time></trkpt><trkpt lat="43.87752655206436" lon="12.280276046330982"><ele>332.0</ele><time>2026-05-01T12:42:18.96Z</time></trkpt><trkpt lat="43.87738196524948" lon="12.280225483886953"><ele>325.0</ele><time>2026-05-01T12:42:19.96Z</time></trkpt><trkpt lat="43.87724075005685" lon="12.28020145677585"><ele>318.0</ele><time>2026-05-01T12:42:20.96Z</time></trkpt><trkpt lat="43.87710139992803" lon="12.280420255042957"><ele>318.0</ele><time>2026-05-01T12:42:21.96Z</time></trkpt><trkpt lat="43.87700413277066" lon="12.280540984421568"><ele>318.0</ele><time>2026-05-01T12:42:22.96Z</time></trkpt><trkpt lat="43.876932018912434" lon="12.280673825983902"><ele>318.0</ele><time>2026-05-01T12:42:23.96Z</time></trkpt><trkpt lat="43.87689521910601" lon="12.280843232267415"><ele>318.0</ele><time>2026-05-01T12:42:24.96Z</time></trkpt><trkpt lat="43.876895397064146" lon="12.281052571842551"><ele>315.0</ele><time>2026-05-01T12:42:25.96Z</time></trkpt><trkpt lat="43.87690025909793" lon="12.281250698758589"><ele>312.0</ele><time>2026-05-01T12:42:26.96Z</time></trkpt><trkpt lat="43.87686773559058" lon="12.281413399990608"><ele>309.0</ele><time>2026-05-01T12:42:27.96Z</time></trkpt><trkpt lat="43.87677913981739" lon="12.281519613030456"><ele>306.0</ele><time>2026-05-01T12:42:28.96Z</time></trkpt><trkpt lat="43.87670769411303" lon="12.281646591160612"><ele>305.25</ele><time>2026-05-01T12:42:29.96Z</time></trkpt><trkpt lat="43.87659397323174" lon="12.281710907462465"><ele>304.5</ele><time>2026-05-01T12:42:30.96Z</time></trkpt><trkpt lat="43.87649793554124" lon="12.28179922787766"><ele>303.75</ele><time>2026-05-01T12:42:31.96Z</time></trkpt><trkpt lat="43.876404813334226" lon="12.281894857760271"><ele>303.0</ele><time>2026-05-01T12:42:32.96Z</time></trkpt><trkpt lat="43.87631116721202" lon="12.28200281296743"><ele>303.0</ele><time>2026-05-01T12:42:33.96Z</time></trkpt><trkpt lat="43.87621947314361" lon="12.282119370466404"><ele>303.0</ele><time>2026-05-01T12:42:34.96Z</time></trkpt><trkpt lat="43.876144055392096" lon="12.282253748765683"><ele>303.0</ele><time>2026-05-01T12:42:35.959Z</time></trkpt><trkpt lat="43.87609919516376" lon="12.282413824046142"><ele>303.0</ele><time>2026-05-01T12:42:36.959Z</time></trkpt><trkpt lat="43.876059278411056" lon="12.28258223279146"><ele>302.8</ele><time>2026-05-01T12:42:37.959Z</time></trkpt><trkpt lat="43.87601597139986" lon="12.282725380867605"><ele>302.6</ele><time>2026-05-01T12:42:38.959Z</time></trkpt><trkpt lat="43.87597309014332" lon="12.28285663357367"><ele>302.4</ele><time>2026-05-01T12:42:39.959Z</time></trkpt><trkpt lat="43.875919071624864" lon="12.282959632612911"><ele>302.2</ele><time>2026-05-01T12:42:40.959Z</time></trkpt><trkpt lat="43.87584292361989" lon="12.283039815568786"><ele>302.0</ele><time>2026-05-01T12:42:41.96Z</time></trkpt><trkpt lat="43.87574337660371" lon="12.283092012666588"><ele>301.2</ele><time>2026-05-01T12:42:42.959Z</time></trkpt><trkpt lat="43.875648909758105" lon="12.28310050925447"><ele>300.4</ele><time>2026-05-01T12:42:43.959Z</time></trkpt><trkpt lat="43.87555379249971" lon="12.283060897085058"><ele>299.6</ele><time>2026-05-01T12:42:44.959Z</time></trkpt><trkpt lat="43.875469035970326" lon="12.282948884192557"><ele>298.8</ele><time>2026-05-01T12:42:45.96Z</time></trkpt><trkpt lat="43.87536186945948" lon="12.282829439930643"><ele>298.0</ele><time>2026-05-01T12:42:46.96Z</time></trkpt><trkpt lat="43.875253094589816" lon="12.282711637149113"><ele>300.0</ele><time>2026-05-01T12:42:47.959Z</time></trkpt><trkpt lat="43.8751573717423" lon="12.282624991403102"><ele>302.0</ele><time>2026-05-01T12:42:48.959Z</time></trkpt><trkpt lat="43.8750604718863" lon="12.282564108297496"><ele>304.0</ele><time>2026-05-01T12:42:49.959Z</time></trkpt><trkpt lat="43.87494839397559" lon="12.282528706084703"><ele>306.0</ele><time>2026-05-01T12:42:50.959Z</time></trkpt><trkpt lat="43.87482778147994" lon="12.282521483227834"><ele>306.25</ele><time>2026-05-01T12:42:51.959Z</time></trkpt><trkpt lat="43.87471914987768" lon="12.282547003696521"><ele>306.5</ele><time>2026-05-01T12:42:52.959Z</time></trkpt><trkpt lat="43.874604235336236" lon="12.282563254816992"><ele>306.75</ele><time>2026-05-01T12:42:53.959Z</time></trkpt><trkpt lat="43.8744805897993" lon="12.282554316964037"><ele>307.0</ele><time>2026-05-01T12:42:54.959Z</time></trkpt><trkpt lat="43.874363262827394" lon="12.28256215967085"><ele>305.5</ele><time>2026-05-01T12:42:55.959Z</time></trkpt><trkpt lat="43.87424509499954" lon="12.282569936802537"><ele>304.0</ele><time>2026-05-01T12:42:56.959Z</time></trkpt><trkpt lat="43.87413082510082" lon="12.282593139739262"><ele>302.5</ele><time>2026-05-01T12:42:57.959Z</time></trkpt><trkpt lat="43.87401208367048" lon="12.282598367863203"><ele>301.0</ele><time>2026-05-01T12:42:58.959Z</time></trkpt><trkpt lat="43.87388752293525" lon="12.282613901056662"><ele>301.0</ele><time>2026-05-01T12:42:59.959Z</time></trkpt><trkpt lat="43.873757619115494" lon="12.282651622696585"><ele>301.0</ele><time>2026-05-01T12:43:00.959Z</time></trkpt><trkpt lat="43.87363135620996" lon="12.282725367486377"><ele>301.0</ele><time>2026-05-01T12:43:01.959Z</time></trkpt><trkpt lat="43.87350955049447" lon="12.282810686896056"><ele>301.0</ele><time>2026-05-01T12:43:02.959Z</time></trkpt><trkpt lat="43.87339328198691" lon="12.282899392861115"><ele>302.0</ele><time>2026-05-01T12:43:03.959Z</time></trkpt><trkpt lat="43.87327062841091" lon="12.28297666086773"><ele>303.0</ele><time>2026-05-01T12:43:04.959Z</time></trkpt><trkpt lat="43.87314529135142" lon="12.283066265383159"><ele>304.0</ele><time>2026-05-01T12:43:05.959Z</time></trkpt><trkpt lat="43.873023207395704" lon="12.283136293208186"><ele>305.0</ele><time>2026-05-01T12:43:06.959Z</time></trkpt><trkpt lat="43.87290093313467" lon="12.283202420637181"><ele>300.0</ele><time>2026-05-01T12:43:07.959Z</time></trkpt><trkpt lat="43.87276225272878" lon="12.283275911173677"><ele>295.0</ele><time>2026-05-01T12:43:08.959Z</time></trkpt><trkpt lat="43.87260584169699" lon="12.283352460851674"><ele>290.0</ele><time>2026-05-01T12:43:09.959Z</time></trkpt><trkpt lat="43.872431865876095" lon="12.283436905121476"><ele>290.0</ele><time>2026-05-01T12:43:10.959Z</time></trkpt><trkpt lat="43.8722160014075" lon="12.283536782961244"><ele>290.0</ele><time>2026-05-01T12:43:11.959Z</time></trkpt><trkpt lat="43.87196308500053" lon="12.28360040533686"><ele>292.0</ele><time>2026-05-01T12:43:12.959Z</time></trkpt><trkpt lat="43.871723558799" lon="12.283673925662224"><ele>294.0</ele><time>2026-05-01T12:43:13.959Z</time></trkpt><trkpt lat="43.87150456529426" lon="12.283731244819263"><ele>294.0</ele><time>2026-05-01T12:43:14.959Z</time></trkpt><trkpt lat="43.87129843620421" lon="12.283780865957839"><ele>294.0</ele><time>2026-05-01T12:43:15.959Z</time></trkpt><trkpt lat="43.87109347603473" lon="12.283842890260745"><ele>294.0</ele><time>2026-05-01T12:43:16.959Z</time></trkpt><trkpt lat="43.87089740847562" lon="12.283907848602464"><ele>290.6666666666667</ele><time>2026-05-01T12:43:17.959Z</time></trkpt><trkpt lat="43.87070889481847" lon="12.283968771197143"><ele>287.33333333333337</ele><time>2026-05-01T12:43:18.959Z</time></trkpt><trkpt lat="43.87052361914231" lon="12.284025689587386"><ele>284.0</ele><time>2026-05-01T12:43:19.959Z</time></trkpt><trkpt lat="43.870329938526126" lon="12.28405870365373"><ele>284.0</ele><time>2026-05-01T12:43:20.959Z</time></trkpt><trkpt lat="43.87014096477468" lon="12.284069226747441"><ele>284.0</ele><time>2026-05-01T12:43:21.959Z</time></trkpt><trkpt lat="43.86995869247498" lon="12.284081029255344"><ele>284.0</ele><time>2026-05-01T12:43:22.959Z</time></trkpt><trkpt lat="43.86978222140295" lon="12.284077173103793"><ele>284.6666666666667</ele><time>2026-05-01T12:43:23.959Z</time></trkpt><trkpt lat="43.869606632868866" lon="12.284086923898421"><ele>285.3333333333333</ele><time>2026-05-01T12:43:24.959Z</time></trkpt><trkpt lat="43.86943519271313" lon="12.28408449739449"><ele>286.0</ele><time>2026-05-01T12:43:25.959Z</time></trkpt><trkpt lat="43.86927194837432" lon="12.28409519135795"><ele>286.0</ele><time>2026-05-01T12:43:26.959Z</time></trkpt><trkpt lat="43.869122654658085" lon="12.284120375656217"><ele>286.0</ele><time>2026-05-01T12:43:27.959Z</time></trkpt><trkpt lat="43.86897533738985" lon="12.284155923023784"><ele>286.0</ele><time>2026-05-01T12:43:28.959Z</time></trkpt><trkpt lat="43.86882579861618" lon="12.284233863531064"><ele>286.0</ele><time>2026-05-01T12:43:29.959Z</time></trkpt><trkpt lat="43.868681114335125" lon="12.284335543234358"><ele>286.0</ele><time>2026-05-01T12:43:30.959Z</time></trkpt><trkpt lat="43.868532535662744" lon="12.284436916387978"><ele>286.0</ele><time>2026-05-01T12:43:31.959Z</time></trkpt><trkpt lat="43.86840008702597" lon="12.2845382734293"><ele>284.25</ele><time>2026-05-01T12:43:32.959Z</time></trkpt><trkpt lat="43.868275261527245" lon="12.284628542581144"><ele>282.5</ele><time>2026-05-01T12:43:33.959Z</time></trkpt><trkpt lat="43.868160916195706" lon="12.284708682364952"><ele>280.75</ele><time>2026-05-01T12:43:34.959Z</time></trkpt><trkpt lat="43.86805646947144" lon="12.284781290292683"><ele>279.0</ele><time>2026-05-01T12:43:35.959Z</time></trkpt><trkpt lat="43.86795600810766" lon="12.284850741266995"><ele>278.6666666666667</ele><time>2026-05-01T12:43:36.959Z</time></trkpt><trkpt lat="43.867859952454126" lon="12.284916573319029"><ele>278.3333333333333</ele><time>2026-05-01T12:43:37.959Z</time></trkpt><trkpt lat="43.86777838791455" lon="12.284980418266283"><ele>278.0</ele><time>2026-05-01T12:43:38.959Z</time></trkpt><trkpt lat="43.86770195628786" lon="12.285035065804312"><ele>277.66666666666663</ele><time>2026-05-01T12:43:39.959Z</time></trkpt><trkpt lat="43.867631299695326" lon="12.285081013801742"><ele>277.3333333333333</ele><time>2026-05-01T12:43:40.959Z</time></trkpt><trkpt lat="43.86756323221083" lon="12.285122042262895"><ele>277.0</ele><time>2026-05-01T12:43:41.959Z</time></trkpt><trkpt lat="43.86748873914544" lon="12.285158623903614"><ele>278.6</ele><time>2026-05-01T12:43:42.959Z</time></trkpt><trkpt lat="43.8674023428117" lon="12.285173053440626"><ele>280.2</ele><time>2026-05-01T12:43:43.959Z</time></trkpt><trkpt lat="43.8673163938512" lon="12.28515444450386"><ele>281.8</ele><time>2026-05-01T12:43:44.959Z</time></trkpt><trkpt lat="43.86722193391413" lon="12.285107328758984"><ele>283.4</ele><time>2026-05-01T12:43:45.959Z</time></trkpt><trkpt lat="43.86711970458499" lon="12.28501842956391"><ele>285.0</ele><time>2026-05-01T12:43:46.959Z</time></trkpt><trkpt lat="43.86702303663892" lon="12.284904753569842"><ele>285.5</ele><time>2026-05-01T12:43:47.959Z</time></trkpt><trkpt lat="43.86693816250308" lon="12.284760824410828"><ele>286.0</ele><time>2026-05-01T12:43:48.959Z</time></trkpt><trkpt lat="43.86685450168643" lon="12.284619691925542"><ele>286.5</ele><time>2026-05-01T12:43:49.959Z</time></trkpt><trkpt lat="43.86676469596681" lon="12.284482089135032"><ele>287.0</ele><time>2026-05-01T12:43:50.959Z</time></trkpt><trkpt lat="43.86667640724262" lon="12.28434399583519"><ele>287.0</ele><time>2026-05-01T12:43:51.959Z</time></trkpt><trkpt lat="43.866589473010116" lon="12.28420722649906"><ele>287.0</ele><time>2026-05-01T12:43:52.959Z</time></trkpt><trkpt lat="43.86650945484981" lon="12.284073711758763"><ele>287.0</ele><time>2026-05-01T12:43:53.959Z</time></trkpt><trkpt lat="43.86643014144357" lon="12.283949913412844"><ele>287.0</ele><time>2026-05-01T12:43:54.959Z</time></trkpt><trkpt lat="43.866356515150734" lon="12.283834192885736"><ele>286.0</ele><time>2026-05-01T12:43:55.959Z</time></trkpt><trkpt lat="43.866277451079625" lon="12.283718330083323"><ele>285.0</ele><time>2026-05-01T12:43:56.959Z</time></trkpt><trkpt lat="43.866189810619346" lon="12.283627301282198"><ele>284.0</ele><time>2026-05-01T12:43:57.959Z</time></trkpt><trkpt lat="43.866091774234405" lon="12.283552507660566"><ele>283.0</ele><time>2026-05-01T12:43:58.959Z</time></trkpt><trkpt lat="43.865980724526615" lon="12.283515186989044"><ele>284.75</ele><time>2026-05-01T12:43:59.959Z</time></trkpt><trkpt lat="43.86587092697262" lon="12.28350672097195"><ele>286.5</ele><time>2026-05-01T12:44:00.959Z</time></trkpt><trkpt lat="43.86575604204512" lon="12.283528970844776"><ele>288.25</ele><time>2026-05-01T12:44:01.959Z</time></trkpt><trkpt lat="43.86562518650067" lon="12.283584433977156"><ele>290.0</ele><time>2026-05-01T12:44:02.959Z</time></trkpt><trkpt lat="43.86549917601602" lon="12.283653085772068"><ele>290.0</ele><time>2026-05-01T12:44:03.959Z</time></trkpt><trkpt lat="43.8653878245944" lon="12.28371579168506"><ele>290.0</ele><time>2026-05-01T12:44:04.959Z</time></trkpt><trkpt lat="43.865271605184105" lon="12.283731819019803"><ele>290.0</ele><time>2026-05-01T12:44:05.959Z</time></trkpt><trkpt lat="43.865159257736174" lon="12.28374210495314"><ele>290.0</ele><time>2026-05-01T12:44:06.959Z</time></trkpt><trkpt lat="43.865043377497514" lon="12.28371394836704"><ele>291.8</ele><time>2026-05-01T12:44:07.959Z</time></trkpt><trkpt lat="43.86494491351159" lon="12.283658121278858"><ele>293.6</ele><time>2026-05-01T12:44:08.959Z</time></trkpt><trkpt lat="43.864871765462375" lon="12.283567468390459"><ele>295.4</ele><time>2026-05-01T12:44:09.959Z</time></trkpt><trkpt lat="43.86478257368484" lon="12.283486480040663"><ele>297.2</ele><time>2026-05-01T12:44:10.959Z</time></trkpt><trkpt lat="43.86470122077661" lon="12.28341831279277"><ele>299.0</ele><time>2026-05-01T12:44:11.959Z</time></trkpt><trkpt lat="43.86462104686679" lon="12.283367081163997"><ele>299.0</ele><time>2026-05-01T12:44:12.959Z</time></trkpt><trkpt lat="43.864534979372756" lon="12.283331281046191"><ele>299.0</ele><time>2026-05-01T12:44:13.959Z</time></trkpt><trkpt lat="43.86443037237306" lon="12.283326232922647"><ele>299.0</ele><time>2026-05-01T12:44:14.959Z</time></trkpt><trkpt lat="43.86432122816134" lon="12.283363510525735"><ele>299.0</ele><time>2026-05-01T12:44:15.959Z</time></trkpt><trkpt lat="43.86421480648888" lon="12.28345691816278"><ele>299.0</ele><time>2026-05-01T12:44:16.959Z</time></trkpt><trkpt lat="43.864125643180046" lon="12.2835597188717"><ele>301.0</ele><time>2026-05-01T12:44:17.959Z</time></trkpt><trkpt lat="43.864047329383915" lon="12.283650418062294"><ele>303.0</ele><time>2026-05-01T12:44:18.959Z</time></trkpt><trkpt lat="43.86397572450494" lon="12.283723568338148"><ele>305.0</ele><time>2026-05-01T12:44:19.959Z</time></trkpt><trkpt lat="43.8638913735933" lon="12.2837835077634"><ele>307.0</ele><time>2026-05-01T12:44:20.959Z</time></trkpt><trkpt lat="43.86380428370222" lon="12.283802985556862"><ele>309.0</ele><time>2026-05-01T12:44:21.959Z</time></trkpt><trkpt lat="43.86371612132138" lon="12.283783096612174"><ele>309.0</ele><time>2026-05-01T12:44:22.959Z</time></trkpt><trkpt lat="43.863644101781524" lon="12.283739541415963"><ele>309.0</ele><time>2026-05-01T12:44:23.959Z</time></trkpt><trkpt lat="43.863586290180514" lon="12.283670957540808"><ele>309.0</ele><time>2026-05-01T12:44:24.959Z</time></trkpt><trkpt lat="43.863536013938436" lon="12.283592690925989"><ele>309.0</ele><time>2026-05-01T12:44:25.959Z</time></trkpt><trkpt lat="43.86347887126728" lon="12.283518357181526"><ele>309.0</ele><time>2026-05-01T12:44:26.959Z</time></trkpt><trkpt lat="43.86342348508777" lon="12.28344630825613"><ele>309.0</ele><time>2026-05-01T12:44:27.959Z</time></trkpt><trkpt lat="43.86335306666001" lon="12.283359084534691"><ele>310.5</ele><time>2026-05-01T12:44:28.959Z</time></trkpt><trkpt lat="43.863265055633796" lon="12.283263774324737"><ele>312.0</ele><time>2026-05-01T12:44:29.959Z</time></trkpt><trkpt lat="43.8631575608534" lon="12.283183288412271"><ele>313.5</ele><time>2026-05-01T12:44:30.959Z</time></trkpt><trkpt lat="43.86304608155323" lon="12.28314067558019"><ele>315.0</ele><time>2026-05-01T12:44:31.959Z</time></trkpt><trkpt lat="43.862918614058636" lon="12.283141872580092"><ele>315.0</ele><time>2026-05-01T12:44:32.959Z</time></trkpt><trkpt lat="43.86279387962057" lon="12.283148964901722"><ele>315.0</ele><time>2026-05-01T12:44:33.959Z</time></trkpt><trkpt lat="43.862683727195346" lon="12.283165504550322"><ele>315.0</ele><time>2026-05-01T12:44:34.959Z</time></trkpt><trkpt lat="43.86257356110744" lon="12.283196882810989"><ele>315.0</ele><time>2026-05-01T12:44:35.959Z</time></trkpt><trkpt lat="43.8624558705175" lon="12.283277065373047"><ele>315.25</ele><time>2026-05-01T12:44:36.959Z</time></trkpt><trkpt lat="43.86234722257376" lon="12.283389348534174"><ele>315.5</ele><time>2026-05-01T12:44:37.959Z</time></trkpt><trkpt lat="43.86223907596033" lon="12.283483185128192"><ele>315.75</ele><time>2026-05-01T12:44:38.959Z</time></trkpt><trkpt lat="43.86213289592036" lon="12.28355694454152"><ele>316.0</ele><time>2026-05-01T12:44:39.959Z</time></trkpt><trkpt lat="43.862021650981966" lon="12.283604203903812"><ele>316.0</ele><time>2026-05-01T12:44:40.959Z</time></trkpt><trkpt lat="43.86190692878005" lon="12.283640114770304"><ele>316.0</ele><time>2026-05-01T12:44:41.959Z</time></trkpt><trkpt lat="43.861815201878464" lon="12.283662030384907"><ele>316.0</ele><time>2026-05-01T12:44:42.959Z</time></trkpt><trkpt lat="43.86172358795591" lon="12.283666375994992"><ele>316.0</ele><time>2026-05-01T12:44:43.959Z</time></trkpt><trkpt lat="43.861629549982844" lon="12.283643334295942"><ele>316.0</ele><time>2026-05-01T12:44:44.959Z</time></trkpt><trkpt lat="43.86154368565711" lon="12.28358601912793"><ele>315.25</ele><time>2026-05-01T12:44:45.959Z</time></trkpt><trkpt lat="43.86144463100423" lon="12.283504944701832"><ele>314.5</ele><time>2026-05-01T12:44:46.959Z</time></trkpt><trkpt lat="43.86134299118595" lon="12.283389902424217"><ele>313.75</ele><time>2026-05-01T12:44:47.959Z</time></trkpt><trkpt lat="43.861238027369076" lon="12.2832702149513"><ele>313.0</ele><time>2026-05-01T12:44:48.959Z</time></trkpt><trkpt lat="43.861126305336" lon="12.283144356392176"><ele>312.0</ele><time>2026-05-01T12:44:49.959Z</time></trkpt><trkpt lat="43.86100284032705" lon="12.283004611426366"><ele>311.0</ele><time>2026-05-01T12:44:50.959Z</time></trkpt><trkpt lat="43.86086992051484" lon="12.282869465655674"><ele>310.0</ele><time>2026-05-01T12:44:51.959Z</time></trkpt><trkpt lat="43.86073209253848" lon="12.282735900027522"><ele>310.0</ele><time>2026-05-01T12:44:52.959Z</time></trkpt><trkpt lat="43.860580385548765" lon="12.282624118446076"><ele>310.0</ele><time>2026-05-01T12:44:53.959Z</time></trkpt><trkpt lat="43.86043623549339" lon="12.282529915811082"><ele>310.0</ele><time>2026-05-01T12:44:54.958Z</time></trkpt><trkpt lat="43.86031230524335" lon="12.282438056951214"><ele>310.0</ele><time>2026-05-01T12:44:55.958Z</time></trkpt><trkpt lat="43.8601905318617" lon="12.282356391525347"><ele>310.0</ele><time>2026-05-01T12:44:56.958Z</time></trkpt><trkpt lat="43.86008279925286" lon="12.282272376389724"><ele>310.0</ele><time>2026-05-01T12:44:57.958Z</time></trkpt><trkpt lat="43.859967257603905" lon="12.282183630724356"><ele>310.0</ele><time>2026-05-01T12:44:58.958Z</time></trkpt><trkpt lat="43.8598566505919" lon="12.282077649823988"><ele>310.75</ele><time>2026-05-01T12:44:59.958Z</time></trkpt><trkpt lat="43.85974761853448" lon="12.28194985328421"><ele>311.5</ele><time>2026-05-01T12:45:00.958Z</time></trkpt><trkpt lat="43.859641848990044" lon="12.28181169663114"><ele>312.25</ele><time>2026-05-01T12:45:01.958Z</time></trkpt><trkpt lat="43.85954005006405" lon="12.28164977213369"><ele>313.0</ele><time>2026-05-01T12:45:02.958Z</time></trkpt><trkpt lat="43.85944484534561" lon="12.281476489971048"><ele>315.25</ele><time>2026-05-01T12:45:03.958Z</time></trkpt><trkpt lat="43.85935840756365" lon="12.28131079489354"><ele>317.5</ele><time>2026-05-01T12:45:04.958Z</time></trkpt><trkpt lat="43.859284376177904" lon="12.281143440327286"><ele>319.75</ele><time>2026-05-01T12:45:05.958Z</time></trkpt><trkpt lat="43.85920785346504" lon="12.280974503574212"><ele>322.0</ele><time>2026-05-01T12:45:06.958Z</time></trkpt><trkpt lat="43.8591130433219" lon="12.280782074134578"><ele>319.0</ele><time>2026-05-01T12:45:07.958Z</time></trkpt><trkpt lat="43.85901963964403" lon="12.280565695114895"><ele>316.0</ele><time>2026-05-01T12:45:08.958Z</time></trkpt><trkpt lat="43.858924207530706" lon="12.280366334518378"><ele>313.0</ele><time>2026-05-01T12:45:09.958Z</time></trkpt><trkpt lat="43.858821208994364" lon="12.280211883582652"><ele>313.0</ele><time>2026-05-01T12:45:10.958Z</time></trkpt><trkpt lat="43.85870721159969" lon="12.280088303803643"><ele>313.0</ele><time>2026-05-01T12:45:11.958Z</time></trkpt><trkpt lat="43.85859066111803" lon="12.280007311383885"><ele>313.0</ele><time>2026-05-01T12:45:12.958Z</time></trkpt><trkpt lat="43.85846473497184" lon="12.279940343941671"><ele>313.0</ele><time>2026-05-01T12:45:13.958Z</time></trkpt><trkpt lat="43.85832270143726" lon="12.279892757790678"><ele>315.0</ele><time>2026-05-01T12:45:14.958Z</time></trkpt><trkpt lat="43.85818846454677" lon="12.279871396149137"><ele>317.0</ele><time>2026-05-01T12:45:15.958Z</time></trkpt><trkpt lat="43.85805058574783" lon="12.279913661015346"><ele>319.0</ele><time>2026-05-01T12:45:16.958Z</time></trkpt><trkpt lat="43.85790598889065" lon="12.27997656138481"><ele>321.0</ele><time>2026-05-01T12:45:17.958Z</time></trkpt><trkpt lat="43.85772842478481" lon="12.280040971122041"><ele>320.0</ele><time>2026-05-01T12:45:18.958Z</time></trkpt><trkpt lat="43.85752883906628" lon="12.280143959598057"><ele>319.0</ele><time>2026-05-01T12:45:19.958Z</time></trkpt><trkpt lat="43.857347410320976" lon="12.280241944462686"><ele>318.0</ele><time>2026-05-01T12:45:20.958Z</time></trkpt><trkpt lat="43.857187869077244" lon="12.280316192571195"><ele>318.0</ele><time>2026-05-01T12:45:21.958Z</time></trkpt><trkpt lat="43.857039915275614" lon="12.280379148416381"><ele>318.0</ele><time>2026-05-01T12:45:22.958Z</time></trkpt><trkpt lat="43.85691179153224" lon="12.280432944202342"><ele>318.0</ele><time>2026-05-01T12:45:23.958Z</time></trkpt><trkpt lat="43.85680257617372" lon="12.280478800849423"><ele>318.0</ele><time>2026-05-01T12:45:24.958Z</time></trkpt><trkpt lat="43.856704209069605" lon="12.280520368813184"><ele>317.8</ele><time>2026-05-01T12:45:25.958Z</time></trkpt><trkpt lat="43.85660820957597" lon="12.280554644878615"><ele>317.6</ele><time>2026-05-01T12:45:26.958Z</time></trkpt><trkpt lat="43.85651678924511" lon="12.280589862422557"><ele>317.4</ele><time>2026-05-01T12:45:27.958Z</time></trkpt><trkpt lat="43.85642366709613" lon="12.28062442638903"><ele>317.2</ele><time>2026-05-01T12:45:28.958Z</time></trkpt><trkpt lat="43.856336638135964" lon="12.280660290467692"><ele>317.0</ele><time>2026-05-01T12:45:29.958Z</time></trkpt><trkpt lat="43.85624957380603" lon="12.280692875331951"><ele>320.5</ele><time>2026-05-01T12:45:30.958Z</time></trkpt><trkpt lat="43.856166284461224" lon="12.280777738087984"><ele>324.0</ele><time>2026-05-01T12:45:31.958Z</time></trkpt><trkpt lat="43.85610626819" lon="12.28091170637815"><ele>327.5</ele><time>2026-05-01T12:45:32.958Z</time></trkpt><trkpt lat="43.856063433673334" lon="12.281069456642765"><ele>331.0</ele><time>2026-05-01T12:45:33.958Z</time></trkpt><trkpt lat="43.85603558583733" lon="12.281232150165648"><ele>331.0</ele><time>2026-05-01T12:45:34.958Z</time></trkpt><trkpt lat="43.85601357028775" lon="12.281375667480662"><ele>331.0</ele><time>2026-05-01T12:45:35.958Z</time></trkpt><trkpt lat="43.85598001722177" lon="12.281512562833953"><ele>331.0</ele><time>2026-05-01T12:45:36.958Z</time></trkpt><trkpt lat="43.85593877119952" lon="12.281645954298838"><ele>331.0</ele><time>2026-05-01T12:45:37.958Z</time></trkpt><trkpt lat="43.85587780415508" lon="12.281760994251087"><ele>331.0</ele><time>2026-05-01T12:45:38.958Z</time></trkpt><trkpt lat="43.85580199751848" lon="12.281857044426078"><ele>331.0</ele><time>2026-05-01T12:45:39.958Z</time></trkpt><trkpt lat="43.85571033186566" lon="12.281917860094156"><ele>331.0</ele><time>2026-05-01T12:45:40.958Z</time></trkpt><trkpt lat="43.85560608232355" lon="12.281956885328858"><ele>331.0</ele><time>2026-05-01T12:45:41.958Z</time></trkpt><trkpt lat="43.85549006115347" lon="12.281984157845121"><ele>331.0</ele><time>2026-05-01T12:45:42.958Z</time></trkpt><trkpt lat="43.85536222423456" lon="12.282013769400404"><ele>331.0</ele><time>2026-05-01T12:45:43.958Z</time></trkpt><trkpt lat="43.85521409099675" lon="12.282051628684963"><ele>331.0</ele><time>2026-05-01T12:45:44.958Z</time></trkpt><trkpt lat="43.85503033073023" lon="12.28207062476778"><ele>331.0</ele><time>2026-05-01T12:45:45.958Z</time></trkpt><trkpt lat="43.854864335766614" lon="12.282149533630536"><ele>331.25</ele><time>2026-05-01T12:45:46.958Z</time></trkpt><trkpt lat="43.85470871507342" lon="12.282208802084748"><ele>331.5</ele><time>2026-05-01T12:45:47.958Z</time></trkpt><trkpt lat="43.85457785805746" lon="12.28227596379107"><ele>331.75</ele><time>2026-05-01T12:45:48.958Z</time></trkpt><trkpt lat="43.854476657217226" lon="12.2823409153921"><ele>332.0</ele><time>2026-05-01T12:45:49.958Z</time></trkpt><trkpt lat="43.85438591403513" lon="12.2823672960165"><ele>332.0</ele><time>2026-05-01T12:45:50.958Z</time></trkpt><trkpt lat="43.854293777900544" lon="12.282349872074116"><ele>332.0</ele><time>2026-05-01T12:45:51.958Z</time></trkpt><trkpt lat="43.8542067615087" lon="12.28231090664488"><ele>332.0</ele><time>2026-05-01T12:45:52.958Z</time></trkpt><trkpt lat="43.85413217525985" lon="12.282233173483547"><ele>332.0</ele><time>2026-05-01T12:45:53.958Z</time></trkpt><trkpt lat="43.85406449492226" lon="12.282130525867528"><ele>332.0</ele><time>2026-05-01T12:45:54.958Z</time></trkpt><trkpt lat="43.8540079659927" lon="12.282025921750678"><ele>330.0</ele><time>2026-05-01T12:45:55.958Z</time></trkpt><trkpt lat="43.85395629955505" lon="12.281924848905568"><ele>328.0</ele><time>2026-05-01T12:45:56.958Z</time></trkpt><trkpt lat="43.853900799916396" lon="12.281814946451979"><ele>326.0</ele><time>2026-05-01T12:45:57.958Z</time></trkpt><trkpt lat="43.85386158510196" lon="12.281694178575849"><ele>324.0</ele><time>2026-05-01T12:45:58.958Z</time></trkpt><trkpt lat="43.85384971242857" lon="12.281562827759219"><ele>322.0</ele><time>2026-05-01T12:45:59.958Z</time></trkpt><trkpt lat="43.853865091126536" lon="12.28142448958912"><ele>321.8</ele><time>2026-05-01T12:46:00.958Z</time></trkpt><trkpt lat="43.853889734140665" lon="12.281279453096976"><ele>321.6</ele><time>2026-05-01T12:46:01.958Z</time></trkpt><trkpt lat="43.8539158588786" lon="12.281157085567987"><ele>321.40000000000003</ele><time>2026-05-01T12:46:02.958Z</time></trkpt><trkpt lat="43.85393171765719" lon="12.2810273858436"><ele>321.20000000000005</ele><time>2026-05-01T12:46:03.958Z</time></trkpt><trkpt lat="43.85394634638091" lon="12.280886923026575"><ele>321.0</ele><time>2026-05-01T12:46:04.958Z</time></trkpt><trkpt lat="43.853962511490096" lon="12.28075142680466"><ele>321.0</ele><time>2026-05-01T12:46:05.958Z</time></trkpt><trkpt lat="43.85397986288003" lon="12.280634571635941"><ele>321.0</ele><time>2026-05-01T12:46:06.958Z</time></trkpt><trkpt lat="43.8539936216313" lon="12.280530061539368"><ele>321.0</ele><time>2026-05-01T12:46:07.958Z</time></trkpt><trkpt lat="43.85402095194931" lon="12.280446285718368"><ele>321.0</ele><time>2026-05-01T12:46:08.958Z</time></trkpt><trkpt lat="43.854049715981645" lon="12.280352749721247"><ele>321.0</ele><time>2026-05-01T12:46:10.958Z</time></trkpt><trkpt lat="43.85393790131133" lon="12.280347579196603"><ele>321.0</ele><time>2026-05-01T12:46:13.958Z</time></trkpt><trkpt lat="43.85389006416882" lon="12.280420877952645"><ele>321.0</ele><time>2026-05-01T12:46:14.958Z</time></trkpt><trkpt lat="43.853818463880145" lon="12.280499453651041"><ele>321.0</ele><time>2026-05-01T12:46:15.958Z</time></trkpt><trkpt lat="43.85374794878087" lon="12.280616958153969"><ele>321.0</ele><time>2026-05-01T12:46:16.958Z</time></trkpt><trkpt lat="43.8536411207359" lon="12.280742928676442"><ele>321.0</ele><time>2026-05-01T12:46:17.958Z</time></trkpt><trkpt lat="43.85348053508633" lon="12.280905147182455"><ele>325.3333333333333</ele><time>2026-05-01T12:46:18.958Z</time></trkpt><trkpt lat="43.8533159702173" lon="12.281046434692147"><ele>329.66666666666663</ele><time>2026-05-01T12:46:19.958Z</time></trkpt><trkpt lat="43.85307917418399" lon="12.281089763128357"><ele>334.0</ele><time>2026-05-01T12:46:20.958Z</time></trkpt><trkpt lat="43.85288842068853" lon="12.281228195662289"><ele>334.0</ele><time>2026-05-01T12:46:21.958Z</time></trkpt><trkpt lat="43.85271172984407" lon="12.28135698703721"><ele>334.0</ele><time>2026-05-01T12:46:22.958Z</time></trkpt><trkpt lat="43.85256984735349" lon="12.281477284878807"><ele>334.0</ele><time>2026-05-01T12:46:23.958Z</time></trkpt><trkpt lat="43.852461773012585" lon="12.281613611601328"><ele>335.25</ele><time>2026-05-01T12:46:24.958Z</time></trkpt><trkpt lat="43.852417993834514" lon="12.281706522316593"><ele>336.5</ele><time>2026-05-01T12:46:25.958Z</time></trkpt><trkpt lat="43.85236363359429" lon="12.281909260912855"><ele>337.75</ele><time>2026-05-01T12:46:26.958Z</time></trkpt><trkpt lat="43.852299973997646" lon="12.282147496778196"><ele>339.0</ele><time>2026-05-01T12:46:27.958Z</time></trkpt><trkpt lat="43.852242852154546" lon="12.282376281205046"><ele>339.0</ele><time>2026-05-01T12:46:28.958Z</time></trkpt><trkpt lat="43.85221938794482" lon="12.282576936207743"><ele>339.0</ele><time>2026-05-01T12:46:29.958Z</time></trkpt><trkpt lat="43.8521735226455" lon="12.282721075123845"><ele>339.0</ele><time>2026-05-01T12:46:30.958Z</time></trkpt><trkpt lat="43.85213015907602" lon="12.28282200944845"><ele>339.0</ele><time>2026-05-01T12:46:31.958Z</time></trkpt><trkpt lat="43.85207207876026" lon="12.282887634982805"><ele>339.0</ele><time>2026-05-01T12:46:32.958Z</time></trkpt><trkpt lat="43.85199147249832" lon="12.28283111847369"><ele>339.0</ele><time>2026-05-01T12:46:33.958Z</time></trkpt><trkpt lat="43.85195162862357" lon="12.282748873134905"><ele>339.0</ele><time>2026-05-01T12:46:34.958Z</time></trkpt><trkpt lat="43.85191758506343" lon="12.282637250240432"><ele>339.0</ele><time>2026-05-01T12:46:35.958Z</time></trkpt><trkpt lat="43.851896655042495" lon="12.282461889854467"><ele>339.0</ele><time>2026-05-01T12:46:36.958Z</time></trkpt><trkpt lat="43.8518491745553" lon="12.28223359140664"><ele>340.0</ele><time>2026-05-01T12:46:37.958Z</time></trkpt><trkpt lat="43.851823868127774" lon="12.281972498196149"><ele>341.0</ele><time>2026-05-01T12:46:38.958Z</time></trkpt><trkpt lat="43.85179340637144" lon="12.28169677164361"><ele>342.0</ele><time>2026-05-01T12:46:39.958Z</time></trkpt><trkpt lat="43.8518038170915" lon="12.281432417115806"><ele>345.3333333333333</ele><time>2026-05-01T12:46:40.958Z</time></trkpt><trkpt lat="43.851840394026105" lon="12.281207615279884"><ele>348.66666666666663</ele><time>2026-05-01T12:46:41.958Z</time></trkpt><trkpt lat="43.85191340986762" lon="12.280979910528032"><ele>352.0</ele><time>2026-05-01T12:46:42.958Z</time></trkpt><trkpt lat="43.852020558246224" lon="12.280762029887333"><ele>356.3333333333333</ele><time>2026-05-01T12:46:43.958Z</time></trkpt><trkpt lat="43.8521519700842" lon="12.28055743377549"><ele>360.6666666666667</ele><time>2026-05-01T12:46:44.958Z</time></trkpt><trkpt lat="43.852279937947486" lon="12.28036004009872"><ele>365.0</ele><time>2026-05-01T12:46:45.958Z</time></trkpt><trkpt lat="43.85237528963545" lon="12.280191963755895"><ele>365.0</ele><time>2026-05-01T12:46:46.958Z</time></trkpt><trkpt lat="43.85245264341929" lon="12.280044622572078"><ele>365.0</ele><time>2026-05-01T12:46:47.959Z</time></trkpt><trkpt lat="43.85251030216889" lon="12.279916426526162"><ele>365.0</ele><time>2026-05-01T12:46:48.959Z</time></trkpt><trkpt lat="43.85251032326527" lon="12.279777448958448"><ele>365.0</ele><time>2026-05-01T12:46:49.959Z</time></trkpt><trkpt lat="43.8524777291263" lon="12.279631728016552"><ele>365.0</ele><time>2026-05-01T12:46:50.959Z</time></trkpt><trkpt lat="43.85240895423985" lon="12.279508319726272"><ele>365.0</ele><time>2026-05-01T12:46:51.959Z</time></trkpt><trkpt lat="43.85229826780608" lon="12.279423249144845"><ele>365.0</ele><time>2026-05-01T12:46:52.959Z</time></trkpt><trkpt lat="43.85214512903912" lon="12.279353748813605"><ele>365.0</ele><time>2026-05-01T12:46:53.958Z</time></trkpt><trkpt lat="43.851984030499146" lon="12.2792689862019"><ele>365.0</ele><time>2026-05-01T12:46:54.959Z</time></trkpt><trkpt lat="43.85184521701267" lon="12.27918103900176"><ele>365.0</ele><time>2026-05-01T12:46:55.959Z</time></trkpt><trkpt lat="43.85172175227825" lon="12.279107227979663"><ele>365.0</ele><time>2026-05-01T12:46:56.958Z</time></trkpt><trkpt lat="43.85161053470199" lon="12.279081645988235"><ele>365.0</ele><time>2026-05-01T12:46:57.958Z</time></trkpt><trkpt lat="43.8515057010239" lon="12.27910984806533"><ele>366.4</ele><time>2026-05-01T12:46:58.958Z</time></trkpt><trkpt lat="43.851410865333165" lon="12.279155048299158"><ele>367.8</ele><time>2026-05-01T12:46:59.959Z</time></trkpt><trkpt lat="43.851320975594" lon="12.279205132715905"><ele>369.20000000000005</ele><time>2026-05-01T12:47:00.959Z</time></trkpt><trkpt lat="43.851228770764244" lon="12.279277119379168"><ele>370.6</ele><time>2026-05-01T12:47:01.959Z</time></trkpt><trkpt lat="43.851131202940735" lon="12.279385847528431"><ele>372.0</ele><time>2026-05-01T12:47:02.959Z</time></trkpt><trkpt lat="43.85101976878963" lon="12.279519037199758"><ele>371.3333333333333</ele><time>2026-05-01T12:47:03.959Z</time></trkpt><trkpt lat="43.850908193246575" lon="12.279675065251284"><ele>370.66666666666663</ele><time>2026-05-01T12:47:04.959Z</time></trkpt><trkpt lat="43.85077057384095" lon="12.279834127174226"><ele>370.0</ele><time>2026-05-01T12:47:05.959Z</time></trkpt><trkpt lat="43.85063062023233" lon="12.280002851872705"><ele>372.3333333333333</ele><time>2026-05-01T12:47:06.959Z</time></trkpt><trkpt lat="43.85047945546986" lon="12.28017657643625"><ele>374.6666666666667</ele><time>2026-05-01T12:47:07.959Z</time></trkpt><trkpt lat="43.85030891824597" lon="12.280348658760525"><ele>377.0</ele><time>2026-05-01T12:47:08.959Z</time></trkpt><trkpt lat="43.85011057897785" lon="12.280456842217198"><ele>377.6666666666667</ele><time>2026-05-01T12:47:09.959Z</time></trkpt><trkpt lat="43.84992746830618" lon="12.280585213176977"><ele>378.3333333333333</ele><time>2026-05-01T12:47:10.959Z</time></trkpt><trkpt lat="43.849744681897086" lon="12.28068656918492"><ele>379.0</ele><time>2026-05-01T12:47:11.959Z</time></trkpt><trkpt lat="43.84958138865506" lon="12.280787001654902"><ele>381.66666666666663</ele><time>2026-05-01T12:47:12.959Z</time></trkpt><trkpt lat="43.84941652786131" lon="12.28088955847708"><ele>384.3333333333333</ele><time>2026-05-01T12:47:13.959Z</time></trkpt><trkpt lat="43.84926167955085" lon="12.281006559532898"><ele>387.0</ele><time>2026-05-01T12:47:14.959Z</time></trkpt><trkpt lat="43.849106660373124" lon="12.281128431773324"><ele>388.0</ele><time>2026-05-01T12:47:15.959Z</time></trkpt><trkpt lat="43.848965291396546" lon="12.28125528544366"><ele>389.0</ele><time>2026-05-01T12:47:16.959Z</time></trkpt><trkpt lat="43.848823533970915" lon="12.281378960327475"><ele>390.0</ele><time>2026-05-01T12:47:17.959Z</time></trkpt><trkpt lat="43.848679468257345" lon="12.281501393702095"><ele>393.0</ele><time>2026-05-01T12:47:18.959Z</time></trkpt><trkpt lat="43.84854009696326" lon="12.281621814431238"><ele>396.0</ele><time>2026-05-01T12:47:19.959Z</time></trkpt><trkpt lat="43.848405206889595" lon="12.281739522331192"><ele>399.0</ele><time>2026-05-01T12:47:20.959Z</time></trkpt><trkpt lat="43.84826932692079" lon="12.281855116614606"><ele>399.0</ele><time>2026-05-01T12:47:21.959Z</time></trkpt><trkpt lat="43.848133262080445" lon="12.281971937355191"><ele>399.0</ele><time>2026-05-01T12:47:22.959Z</time></trkpt><trkpt lat="43.84799347839757" lon="12.282088372102834"><ele>399.0</ele><time>2026-05-01T12:47:23.959Z</time></trkpt><trkpt lat="43.847850333073396" lon="12.2822055313144"><ele>399.0</ele><time>2026-05-01T12:47:24.959Z</time></trkpt><trkpt lat="43.84772047925507" lon="12.282329931333896"><ele>399.0</ele><time>2026-05-01T12:47:25.959Z</time></trkpt><trkpt lat="43.84757950111965" lon="12.282452437487002"><ele>399.0</ele><time>2026-05-01T12:47:26.959Z</time></trkpt><trkpt lat="43.847431774610975" lon="12.282575864335527"><ele>399.66666666666663</ele><time>2026-05-01T12:47:27.959Z</time></trkpt><trkpt lat="43.847285987377454" lon="12.282705954778345"><ele>400.3333333333333</ele><time>2026-05-01T12:47:28.959Z</time></trkpt><trkpt lat="43.84714349534827" lon="12.282835440309743"><ele>401.0</ele><time>2026-05-01T12:47:29.959Z</time></trkpt><trkpt lat="43.84700870629325" lon="12.282957942476497"><ele>401.0</ele><time>2026-05-01T12:47:30.959Z</time></trkpt><trkpt lat="43.84688426070428" lon="12.28307022291972"><ele>401.0</ele><time>2026-05-01T12:47:31.959Z</time></trkpt><trkpt lat="43.846762603050394" lon="12.28316798402812"><ele>401.0</ele><time>2026-05-01T12:47:32.959Z</time></trkpt><trkpt lat="43.84665677956436" lon="12.283264036130545"><ele>401.0</ele><time>2026-05-01T12:47:33.959Z</time></trkpt><trkpt lat="43.84656139596017" lon="12.28334447116162"><ele>401.66666666666663</ele><time>2026-05-01T12:47:34.959Z</time></trkpt><trkpt lat="43.84648036135016" lon="12.283415430290471"><ele>402.3333333333333</ele><time>2026-05-01T12:47:35.959Z</time></trkpt><trkpt lat="43.846417586238644" lon="12.28346136065341"><ele>403.0</ele><time>2026-05-01T12:47:36.959Z</time></trkpt><trkpt lat="43.84635211989832" lon="12.283500740096743"><ele>403.66666666666663</ele><time>2026-05-01T12:47:38.959Z</time></trkpt><trkpt lat="43.84625770110262" lon="12.283395795263814"><ele>404.3333333333333</ele><time>2026-05-01T12:47:39.959Z</time></trkpt><trkpt lat="43.84617831073715" lon="12.283355319233209"><ele>405.0</ele><time>2026-05-01T12:47:40.959Z</time></trkpt><trkpt lat="43.84609223930951" lon="12.283321585820046"><ele>405.0</ele><time>2026-05-01T12:47:41.959Z</time></trkpt><trkpt lat="43.84600165475138" lon="12.28325845394493"><ele>405.0</ele><time>2026-05-01T12:47:42.959Z</time></trkpt><trkpt lat="43.845908609215876" lon="12.283223574277125"><ele>405.0</ele><time>2026-05-01T12:47:43.959Z</time></trkpt><trkpt lat="43.84581810776471" lon="12.283192229455532"><ele>405.0</ele><time>2026-05-01T12:47:44.959Z</time></trkpt><trkpt lat="43.845732696789106" lon="12.283194644212296"><ele>405.0</ele><time>2026-05-01T12:47:45.959Z</time></trkpt><trkpt lat="43.8456625452858" lon="12.28318652176544"><ele>405.0</ele><time>2026-05-01T12:47:46.959Z</time></trkpt><trkpt lat="43.845594497409024" lon="12.283156861068727"><ele>405.6</ele><time>2026-05-01T12:47:47.959Z</time></trkpt><trkpt lat="43.845507028612396" lon="12.283161364902629"><ele>406.2</ele><time>2026-05-01T12:47:48.959Z</time></trkpt><trkpt lat="43.84541730980542" lon="12.28326533995998"><ele>406.79999999999995</ele><time>2026-05-01T12:47:49.959Z</time></trkpt><trkpt lat="43.84533181620462" lon="12.283310241679946"><ele>407.4</ele><time>2026-05-01T12:47:50.959Z</time></trkpt><trkpt lat="43.84525303140735" lon="12.28337366017637"><ele>408.0</ele><time>2026-05-01T12:47:51.959Z</time></trkpt><trkpt lat="43.84517789080576" lon="12.283444373534124"><ele>408.5</ele><time>2026-05-01T12:47:52.958Z</time></trkpt><trkpt lat="43.84510836837561" lon="12.283533477765545"><ele>409.0</ele><time>2026-05-01T12:47:53.958Z</time></trkpt><trkpt lat="43.84504493752231" lon="12.283619094788952"><ele>409.5</ele><time>2026-05-01T12:47:54.958Z</time></trkpt><trkpt lat="43.84498114482641" lon="12.283684031520721"><ele>410.0</ele><time>2026-05-01T12:47:55.958Z</time></trkpt><trkpt lat="43.84487247714443" lon="12.283727209912252"><ele>410.5</ele><time>2026-05-01T12:47:57.958Z</time></trkpt><trkpt lat="43.8448078797173" lon="12.283680063074886"><ele>411.0</ele><time>2026-05-01T12:47:58.958Z</time></trkpt><trkpt lat="43.84472943939728" lon="12.283659252386633"><ele>411.0</ele><time>2026-05-01T12:47:59.958Z</time></trkpt><trkpt lat="43.8446360699184" lon="12.283638638158306"><ele>411.0</ele><time>2026-05-01T12:48:00.958Z</time></trkpt><trkpt lat="43.8445333619091" lon="12.283669502550593"><ele>411.0</ele><time>2026-05-01T12:48:01.958Z</time></trkpt><trkpt lat="43.84442612746431" lon="12.283670835439098"><ele>411.0</ele><time>2026-05-01T12:48:02.958Z</time></trkpt><trkpt lat="43.84430950842434" lon="12.283678132084226"><ele>411.0</ele><time>2026-05-01T12:48:03.958Z</time></trkpt><trkpt lat="43.84418006198709" lon="12.283708114879895"><ele>414.75</ele><time>2026-05-01T12:48:04.958Z</time></trkpt><trkpt lat="43.844047130804825" lon="12.2837257179628"><ele>418.5</ele><time>2026-05-01T12:48:05.958Z</time></trkpt><trkpt lat="43.84391668532787" lon="12.283736875542301"><ele>422.25</ele><time>2026-05-01T12:48:06.958Z</time></trkpt><trkpt lat="43.84377839914142" lon="12.28374430025095"><ele>426.0</ele><time>2026-05-01T12:48:07.958Z</time></trkpt><trkpt lat="43.84365375571363" lon="12.283749358007356"><ele>426.0</ele><time>2026-05-01T12:48:08.958Z</time></trkpt><trkpt lat="43.843552641561125" lon="12.28376018806245"><ele>426.0</ele><time>2026-05-01T12:48:09.958Z</time></trkpt><trkpt lat="43.84346511505668" lon="12.283771671362096"><ele>426.0</ele><time>2026-05-01T12:48:10.958Z</time></trkpt><trkpt lat="43.84339568820355" lon="12.283777005771483"><ele>426.0</ele><time>2026-05-01T12:48:11.958Z</time></trkpt><trkpt lat="43.843303058794795" lon="12.283792344204265"><ele>426.0</ele><time>2026-05-01T12:48:13.958Z</time></trkpt><trkpt lat="43.843178557117305" lon="12.28382634765977"><ele>429.75</ele><time>2026-05-01T12:48:15.958Z</time></trkpt><trkpt lat="43.84306440809688" lon="12.28383394304129"><ele>433.5</ele><time>2026-05-01T12:48:16.958Z</time></trkpt><trkpt lat="43.84295005387678" lon="12.283900664422717"><ele>437.25</ele><time>2026-05-01T12:48:17.958Z</time></trkpt><trkpt lat="43.84284819611296" lon="12.284027372323704"><ele>441.0</ele><time>2026-05-01T12:48:18.958Z</time></trkpt><trkpt lat="43.84271593611313" lon="12.284136737057544"><ele>442.33333333333337</ele><time>2026-05-01T12:48:19.958Z</time></trkpt><trkpt lat="43.84258187165196" lon="12.284258919075391"><ele>443.6666666666667</ele><time>2026-05-01T12:48:20.958Z</time></trkpt><trkpt lat="43.84244125023688" lon="12.28438508674057"><ele>445.0</ele><time>2026-05-01T12:48:21.958Z</time></trkpt><trkpt lat="43.842303792749426" lon="12.284504431353266"><ele>445.0</ele><time>2026-05-01T12:48:22.958Z</time></trkpt><trkpt lat="43.8421843188541" lon="12.284607445145914"><ele>445.0</ele><time>2026-05-01T12:48:23.958Z</time></trkpt><trkpt lat="43.842084436246346" lon="12.284709879530745"><ele>445.0</ele><time>2026-05-01T12:48:24.958Z</time></trkpt><trkpt lat="43.84198052752195" lon="12.28481145383941"><ele>445.0</ele><time>2026-05-01T12:48:25.958Z</time></trkpt><trkpt lat="43.84188849572518" lon="12.28491149582238"><ele>445.5</ele><time>2026-05-01T12:48:26.958Z</time></trkpt><trkpt lat="43.841853984841585" lon="12.285068445734542"><ele>446.0</ele><time>2026-05-01T12:48:27.958Z</time></trkpt><trkpt lat="43.84177569163392" lon="12.285221439485854"><ele>446.5</ele><time>2026-05-01T12:48:28.958Z</time></trkpt><trkpt lat="43.84169984694271" lon="12.28533043837229"><ele>447.0</ele><time>2026-05-01T12:48:29.958Z</time></trkpt><trkpt lat="43.841605283349544" lon="12.285430406241824"><ele>447.0</ele><time>2026-05-01T12:48:30.958Z</time></trkpt><trkpt lat="43.841482989764266" lon="12.285502241675887"><ele>447.0</ele><time>2026-05-01T12:48:31.958Z</time></trkpt><trkpt lat="43.84134035052515" lon="12.285551003389603"><ele>447.0</ele><time>2026-05-01T12:48:32.958Z</time></trkpt><trkpt lat="43.84117940406229" lon="12.28562739350095"><ele>449.33333333333337</ele><time>2026-05-01T12:48:33.958Z</time></trkpt><trkpt lat="43.84101693992803" lon="12.285695326145092"><ele>451.6666666666667</ele><time>2026-05-01T12:48:34.958Z</time></trkpt><trkpt lat="43.84085618781279" lon="12.285787292046741"><ele>454.0</ele><time>2026-05-01T12:48:35.958Z</time></trkpt><trkpt lat="43.840681067885434" lon="12.285869441570577"><ele>454.0</ele><time>2026-05-01T12:48:36.958Z</time></trkpt><trkpt lat="43.84052851507882" lon="12.285951760863577"><ele>454.0</ele><time>2026-05-01T12:48:37.958Z</time></trkpt><trkpt lat="43.84038528568529" lon="12.286027292760425"><ele>454.0</ele><time>2026-05-01T12:48:38.958Z</time></trkpt><trkpt lat="43.84023346694468" lon="12.286079511419365"><ele>453.33333333333337</ele><time>2026-05-01T12:48:39.958Z</time></trkpt><trkpt lat="43.84007271711965" lon="12.286052929756915"><ele>452.66666666666663</ele><time>2026-05-01T12:48:40.958Z</time></trkpt><trkpt lat="43.83987893244608" lon="12.286040291808519"><ele>452.0</ele><time>2026-05-01T12:48:41.958Z</time></trkpt><trkpt lat="43.83970069903034" lon="12.286010430903612"><ele>452.0</ele><time>2026-05-01T12:48:42.958Z</time></trkpt><trkpt lat="43.839541427344145" lon="12.285993083194134"><ele>452.0</ele><time>2026-05-01T12:48:43.958Z</time></trkpt><trkpt lat="43.83938644484381" lon="12.285969866897501"><ele>452.0</ele><time>2026-05-01T12:48:44.958Z</time></trkpt><trkpt lat="43.83923125081063" lon="12.285944793285097"><ele>453.0</ele><time>2026-05-01T12:48:45.958Z</time></trkpt><trkpt lat="43.83907895424387" lon="12.285922551029111"><ele>454.0</ele><time>2026-05-01T12:48:46.958Z</time></trkpt><trkpt lat="43.838928570020336" lon="12.285896195923671"><ele>455.0</ele><time>2026-05-01T12:48:47.958Z</time></trkpt><trkpt lat="43.83878675352729" lon="12.285880438716438"><ele>456.0</ele><time>2026-05-01T12:48:48.958Z</time></trkpt><trkpt lat="43.838660700210156" lon="12.285851824759833"><ele>456.0</ele><time>2026-05-01T12:48:49.958Z</time></trkpt><trkpt lat="43.838563417456974" lon="12.285759343718006"><ele>456.0</ele><time>2026-05-01T12:48:50.958Z</time></trkpt><trkpt lat="43.83850434865748" lon="12.285646828603925"><ele>456.0</ele><time>2026-05-01T12:48:51.958Z</time></trkpt><trkpt lat="43.83844943412032" lon="12.285464231415629"><ele>456.0</ele><time>2026-05-01T12:48:52.958Z</time></trkpt><trkpt lat="43.83836810388293" lon="12.285210609511248"><ele>456.33333333333337</ele><time>2026-05-01T12:48:53.958Z</time></trkpt><trkpt lat="43.83827563229707" lon="12.28499590115998"><ele>456.6666666666667</ele><time>2026-05-01T12:48:54.958Z</time></trkpt><trkpt lat="43.83822358185358" lon="12.284800424832358"><ele>457.0</ele><time>2026-05-01T12:48:55.958Z</time></trkpt><trkpt lat="43.83813741693085" lon="12.284634348784587"><ele>455.33333333333337</ele><time>2026-05-01T12:48:56.958Z</time></trkpt><trkpt lat="43.83801640573769" lon="12.284471872996173"><ele>453.66666666666663</ele><time>2026-05-01T12:48:57.958Z</time></trkpt><trkpt lat="43.83787285880141" lon="12.284304120237012"><ele>452.0</ele><time>2026-05-01T12:48:58.958Z</time></trkpt><trkpt lat="43.83772955277661" lon="12.28413651321416"><ele>454.0</ele><time>2026-05-01T12:48:59.958Z</time></trkpt><trkpt lat="43.83759219229832" lon="12.28396825365505"><ele>456.0</ele><time>2026-05-01T12:49:00.958Z</time></trkpt><trkpt lat="43.83746738413377" lon="12.283800294234316"><ele>458.0</ele><time>2026-05-01T12:49:01.958Z</time></trkpt><trkpt lat="43.83735082173634" lon="12.283639307665592"><ele>458.0</ele><time>2026-05-01T12:49:02.958Z</time></trkpt><trkpt lat="43.83723268205407" lon="12.283476023370598"><ele>458.0</ele><time>2026-05-01T12:49:03.958Z</time></trkpt><trkpt lat="43.837113806988704" lon="12.283319964659508"><ele>458.0</ele><time>2026-05-01T12:49:04.958Z</time></trkpt><trkpt lat="43.836995629903434" lon="12.283174663489639"><ele>457.75</ele><time>2026-05-01T12:49:05.958Z</time></trkpt><trkpt lat="43.83688117187255" lon="12.28304515211743"><ele>457.5</ele><time>2026-05-01T12:49:06.958Z</time></trkpt><trkpt lat="43.836758733632166" lon="12.282937160681026"><ele>457.25</ele><time>2026-05-01T12:49:07.958Z</time></trkpt><trkpt lat="43.83660955905802" lon="12.282873220458118"><ele>457.0</ele><time>2026-05-01T12:49:08.958Z</time></trkpt><trkpt lat="43.83644408790487" lon="12.282834249892892"><ele>459.0</ele><time>2026-05-01T12:49:09.958Z</time></trkpt><trkpt lat="43.83625159442946" lon="12.282813792322786"><ele>461.0</ele><time>2026-05-01T12:49:10.958Z</time></trkpt><trkpt lat="43.83604833402861" lon="12.282783241836478"><ele>463.0</ele><time>2026-05-01T12:49:11.958Z</time></trkpt><trkpt lat="43.835852815929606" lon="12.282734654822598"><ele>463.33333333333337</ele><time>2026-05-01T12:49:12.958Z</time></trkpt><trkpt lat="43.835644418437646" lon="12.282702184797342"><ele>463.66666666666663</ele><time>2026-05-01T12:49:13.958Z</time></trkpt><trkpt lat="43.83545450230843" lon="12.282673967420505"><ele>464.0</ele><time>2026-05-01T12:49:14.958Z</time></trkpt><trkpt lat="43.835275353864084" lon="12.282666843339406"><ele>465.0</ele><time>2026-05-01T12:49:15.958Z</time></trkpt><trkpt lat="43.83508921754862" lon="12.282678500076273"><ele>466.0</ele><time>2026-05-01T12:49:16.958Z</time></trkpt><trkpt lat="43.83489571097723" lon="12.282701499735175"><ele>467.0</ele><time>2026-05-01T12:49:17.958Z</time></trkpt><trkpt lat="43.834689054024366" lon="12.282712709239942"><ele>467.0</ele><time>2026-05-01T12:49:18.958Z</time></trkpt><trkpt lat="43.834479582819384" lon="12.282721306405135"><ele>467.0</ele><time>2026-05-01T12:49:19.958Z</time></trkpt><trkpt lat="43.83425509101189" lon="12.282737874603797"><ele>467.0</ele><time>2026-05-01T12:49:20.958Z</time></trkpt><trkpt lat="43.8340389107012" lon="12.28275132779357"><ele>468.0</ele><time>2026-05-01T12:49:21.958Z</time></trkpt><trkpt lat="43.833810739193304" lon="12.282767382303973"><ele>469.0</ele><time>2026-05-01T12:49:22.958Z</time></trkpt><trkpt lat="43.83358653445716" lon="12.28278340805701"><ele>469.6666666666667</ele><time>2026-05-01T12:49:23.958Z</time></trkpt><trkpt lat="43.83336793963231" lon="12.282793666483599"><ele>470.33333333333337</ele><time>2026-05-01T12:49:24.958Z</time></trkpt><trkpt lat="43.83316105812752" lon="12.282809592283598"><ele>471.0</ele><time>2026-05-01T12:49:25.958Z</time></trkpt><trkpt lat="43.832958078067676" lon="12.28282071931888"><ele>471.0</ele><time>2026-05-01T12:49:26.958Z</time></trkpt><trkpt lat="43.83276821821742" lon="12.282833931260239"><ele>471.0</ele><time>2026-05-01T12:49:27.958Z</time></trkpt><trkpt lat="43.83258288555668" lon="12.282844846081572"><ele>471.0</ele><time>2026-05-01T12:49:28.958Z</time></trkpt><trkpt lat="43.83240403525923" lon="12.282858932708379"><ele>469.0</ele><time>2026-05-01T12:49:29.958Z</time></trkpt><trkpt lat="43.83223651600032" lon="12.282873215137641"><ele>467.0</ele><time>2026-05-01T12:49:30.958Z</time></trkpt><trkpt lat="43.83208520636634" lon="12.282887718227983"><ele>465.0</ele><time>2026-05-01T12:49:31.958Z</time></trkpt><trkpt lat="43.83195474038139" lon="12.282906076909661"><ele>465.0</ele><time>2026-05-01T12:49:32.958Z</time></trkpt><trkpt lat="43.83183182845301" lon="12.282907249703271"><ele>465.0</ele><time>2026-05-01T12:49:33.958Z</time></trkpt><trkpt lat="43.831719659021246" lon="12.282871302340798"><ele>465.0</ele><time>2026-05-01T12:49:34.958Z</time></trkpt><trkpt lat="43.8316346348711" lon="12.282747555536199"><ele>465.0</ele><time>2026-05-01T12:49:35.958Z</time></trkpt><trkpt lat="43.83157154503973" lon="12.282594253197956"><ele>465.66666666666663</ele><time>2026-05-01T12:49:36.958Z</time></trkpt><trkpt lat="43.83150238696572" lon="12.28239377005674"><ele>466.3333333333333</ele><time>2026-05-01T12:49:37.958Z</time></trkpt><trkpt lat="43.83141238978687" lon="12.28217688468975"><ele>467.0</ele><time>2026-05-01T12:49:38.958Z</time></trkpt><trkpt lat="43.83132946872374" lon="12.281927080145895"><ele>467.0</ele><time>2026-05-01T12:49:39.958Z</time></trkpt><trkpt lat="43.831245716258046" lon="12.281690072857195"><ele>467.0</ele><time>2026-05-01T12:49:40.958Z</time></trkpt><trkpt lat="43.831166025131324" lon="12.281477867692788"><ele>467.0</ele><time>2026-05-01T12:49:41.958Z</time></trkpt><trkpt lat="43.83108952883949" lon="12.281307460742557"><ele>466.75</ele><time>2026-05-01T12:49:42.958Z</time></trkpt><trkpt lat="43.831026752808945" lon="12.281156437505919"><ele>466.5</ele><time>2026-05-01T12:49:43.958Z</time></trkpt><trkpt lat="43.83095733688629" lon="12.281066766686735"><ele>466.25</ele><time>2026-05-01T12:49:44.958Z</time></trkpt><trkpt lat="43.83090850726291" lon="12.280957057199103"><ele>466.0</ele><time>2026-05-01T12:49:45.958Z</time></trkpt><trkpt lat="43.83070399701075" lon="12.280987356531869"><ele>466.0</ele><time>2026-05-01T12:49:46.958Z</time></trkpt><trkpt lat="43.83056321918779" lon="12.28094488209565"><ele>466.0</ele><time>2026-05-01T12:49:47.958Z</time></trkpt><trkpt lat="43.830407838179404" lon="12.280919846141341"><ele>466.0</ele><time>2026-05-01T12:49:48.958Z</time></trkpt><trkpt lat="43.83023124778233" lon="12.280906003999778"><ele>466.6666666666667</ele><time>2026-05-01T12:49:49.958Z</time></trkpt><trkpt lat="43.83003762293474" lon="12.280891162754735"><ele>467.33333333333337</ele><time>2026-05-01T12:49:50.958Z</time></trkpt><trkpt lat="43.82984579113935" lon="12.280875494868155"><ele>468.0</ele><time>2026-05-01T12:49:51.958Z</time></trkpt><trkpt lat="43.829646376711054" lon="12.280846747520679"><ele>468.0</ele><time>2026-05-01T12:49:52.958Z</time></trkpt><trkpt lat="43.82944702882282" lon="12.280822669782271"><ele>468.0</ele><time>2026-05-01T12:49:53.958Z</time></trkpt><trkpt lat="43.8292369161278" lon="12.280818491741536"><ele>468.0</ele><time>2026-05-01T12:49:54.958Z</time></trkpt><trkpt lat="43.829005513991504" lon="12.280855008470043"><ele>468.33333333333337</ele><time>2026-05-01T12:49:55.958Z</time></trkpt><trkpt lat="43.82878124311421" lon="12.28092850031865"><ele>468.6666666666667</ele><time>2026-05-01T12:49:56.958Z</time></trkpt><trkpt lat="43.82857146221997" lon="12.280986953721914"><ele>469.0</ele><time>2026-05-01T12:49:57.958Z</time></trkpt><trkpt lat="43.828380935111845" lon="12.281036502261726"><ele>469.33333333333337</ele><time>2026-05-01T12:49:58.958Z</time></trkpt><trkpt lat="43.828218979275576" lon="12.28110395174408"><ele>469.66666666666663</ele><time>2026-05-01T12:49:59.958Z</time></trkpt><trkpt lat="43.828095091954005" lon="12.281235488208367"><ele>470.0</ele><time>2026-05-01T12:50:00.958Z</time></trkpt><trkpt lat="43.827947615559125" lon="12.281386928958982"><ele>471.0</ele><time>2026-05-01T12:50:01.958Z</time></trkpt><trkpt lat="43.827798417367475" lon="12.2815156294712"><ele>472.0</ele><time>2026-05-01T12:50:02.958Z</time></trkpt><trkpt lat="43.8276775891568" lon="12.281617363117425"><ele>473.0</ele><time>2026-05-01T12:50:03.958Z</time></trkpt><trkpt lat="43.82756013005828" lon="12.281647370089946"><ele>474.0</ele><time>2026-05-01T12:50:04.958Z</time></trkpt><trkpt lat="43.827424664473874" lon="12.281600413715339"><ele>474.0</ele><time>2026-05-01T12:50:05.958Z</time></trkpt><trkpt lat="43.82729367900739" lon="12.281484872307162"><ele>474.0</ele><time>2026-05-01T12:50:06.958Z</time></trkpt><trkpt lat="43.8271439861671" lon="12.281349125841068"><ele>474.0</ele><time>2026-05-01T12:50:07.958Z</time></trkpt><trkpt lat="43.82698359091828" lon="12.281233436386419"><ele>473.75</ele><time>2026-05-01T12:50:08.958Z</time></trkpt><trkpt lat="43.82685017804976" lon="12.281108906372472"><ele>473.5</ele><time>2026-05-01T12:50:09.958Z</time></trkpt><trkpt lat="43.82672518121541" lon="12.281011751476294"><ele>473.25</ele><time>2026-05-01T12:50:10.958Z</time></trkpt><trkpt lat="43.826636782046904" lon="12.280969054475142"><ele>473.0</ele><time>2026-05-01T12:50:11.958Z</time></trkpt><trkpt lat="43.82655717814972" lon="12.280950914267647"><ele>474.75</ele><time>2026-05-01T12:50:12.958Z</time></trkpt><trkpt lat="43.82648966262738" lon="12.280977086902734"><ele>476.5</ele><time>2026-05-01T12:50:13.958Z</time></trkpt><trkpt lat="43.82638427747823" lon="12.281017325256888"><ele>478.25</ele><time>2026-05-01T12:50:14.958Z</time></trkpt><trkpt lat="43.826251501764304" lon="12.281052114469084"><ele>480.0</ele><time>2026-05-01T12:50:15.958Z</time></trkpt><trkpt lat="43.82610589983291" lon="12.281088317590267"><ele>480.0</ele><time>2026-05-01T12:50:16.958Z</time></trkpt><trkpt lat="43.825980680007085" lon="12.281099662860333"><ele>480.0</ele><time>2026-05-01T12:50:17.958Z</time></trkpt><trkpt lat="43.8258798498487" lon="12.281072530117383"><ele>480.0</ele><time>2026-05-01T12:50:18.958Z</time></trkpt><trkpt lat="43.825778614761504" lon="12.281007131143426"><ele>480.0</ele><time>2026-05-01T12:50:19.958Z</time></trkpt><trkpt lat="43.82570958323153" lon="12.280885311971401"><ele>482.0</ele><time>2026-05-01T12:50:20.958Z</time></trkpt><trkpt lat="43.825656273122064" lon="12.280749908773727"><ele>484.0</ele><time>2026-05-01T12:50:21.958Z</time></trkpt><trkpt lat="43.82562699706396" lon="12.280589209312172"><ele>486.0</ele><time>2026-05-01T12:50:22.958Z</time></trkpt><trkpt lat="43.82563653220313" lon="12.280406210609996"><ele>488.0</ele><time>2026-05-01T12:50:23.958Z</time></trkpt><trkpt lat="43.82565604533327" lon="12.280190441988722"><ele>488.0</ele><time>2026-05-01T12:50:24.958Z</time></trkpt><trkpt lat="43.8256608967244" lon="12.27998951909464"><ele>488.0</ele><time>2026-05-01T12:50:25.958Z</time></trkpt><trkpt lat="43.82564122992006" lon="12.279824898713873"><ele>488.0</ele><time>2026-05-01T12:50:26.958Z</time></trkpt><trkpt lat="43.82559630641092" lon="12.2796774428309"><ele>488.0</ele><time>2026-05-01T12:50:27.958Z</time></trkpt><trkpt lat="43.82552054073015" lon="12.279543919614158"><ele>489.75</ele><time>2026-05-01T12:50:28.958Z</time></trkpt><trkpt lat="43.82542071210036" lon="12.279442109209706"><ele>491.5</ele><time>2026-05-01T12:50:29.958Z</time></trkpt><trkpt lat="43.82528919662479" lon="12.279379373514958"><ele>493.25</ele><time>2026-05-01T12:50:30.958Z</time></trkpt><trkpt lat="43.82514624318663" lon="12.279340149848224"><ele>495.0</ele><time>2026-05-01T12:50:31.958Z</time></trkpt><trkpt lat="43.82496872774596" lon="12.279303750629486"><ele>495.0</ele><time>2026-05-01T12:50:32.958Z</time></trkpt><trkpt lat="43.824781299675735" lon="12.279274557694833"><ele>495.0</ele><time>2026-05-01T12:50:33.958Z</time></trkpt><trkpt lat="43.82466429221834" lon="12.279189293254055"><ele>495.0</ele><time>2026-05-01T12:50:34.958Z</time></trkpt><trkpt lat="43.82456460633848" lon="12.279050320106546"><ele>493.66666666666663</ele><time>2026-05-01T12:50:35.958Z</time></trkpt><trkpt lat="43.82451257976052" lon="12.27884161105838"><ele>492.3333333333333</ele><time>2026-05-01T12:50:36.958Z</time></trkpt><trkpt lat="43.82443760629439" lon="12.278610342900896"><ele>491.0</ele><time>2026-05-01T12:50:37.958Z</time></trkpt><trkpt lat="43.82435388272052" lon="12.278363443059778"><ele>498.3333333333333</ele><time>2026-05-01T12:50:38.958Z</time></trkpt><trkpt lat="43.824277739007634" lon="12.278137699302627"><ele>505.66666666666663</ele><time>2026-05-01T12:50:39.958Z</time></trkpt><trkpt lat="43.82421095231893" lon="12.277951260442453"><ele>513.0</ele><time>2026-05-01T12:50:40.958Z</time></trkpt><trkpt lat="43.824194685038826" lon="12.277786758869395"><ele>513.0</ele><time>2026-05-01T12:50:41.958Z</time></trkpt><trkpt lat="43.82423588378484" lon="12.277638643936196"><ele>513.0</ele><time>2026-05-01T12:50:42.958Z</time></trkpt><trkpt lat="43.824314986427275" lon="12.277458757052868"><ele>513.0</ele><time>2026-05-01T12:50:43.958Z</time></trkpt><trkpt lat="43.824404755551534" lon="12.277268485359846"><ele>513.0</ele><time>2026-05-01T12:50:44.958Z</time></trkpt><trkpt lat="43.82450363576241" lon="12.277055104159274"><ele>511.25</ele><time>2026-05-01T12:50:45.958Z</time></trkpt><trkpt lat="43.82456376746362" lon="12.27686021047556"><ele>509.5</ele><time>2026-05-01T12:50:46.958Z</time></trkpt><trkpt lat="43.82462108085134" lon="12.276691796347015"><ele>507.75</ele><time>2026-05-01T12:50:47.958Z</time></trkpt><trkpt lat="43.82463302668308" lon="12.27652131884428"><ele>506.0</ele><time>2026-05-01T12:50:48.958Z</time></trkpt><trkpt lat="43.82461742923646" lon="12.276339992159173"><ele>506.0</ele><time>2026-05-01T12:50:49.958Z</time></trkpt><trkpt lat="43.82458838918343" lon="12.276146900665019"><ele>506.0</ele><time>2026-05-01T12:50:50.958Z</time></trkpt><trkpt lat="43.824518640464554" lon="12.275939695545208"><ele>506.0</ele><time>2026-05-01T12:50:51.958Z</time></trkpt><trkpt lat="43.824480914395345" lon="12.27570921795648"><ele>508.0</ele><time>2026-05-01T12:50:52.958Z</time></trkpt><trkpt lat="43.824478448981154" lon="12.275514415168761"><ele>510.0</ele><time>2026-05-01T12:50:53.958Z</time></trkpt><trkpt lat="43.824515951650376" lon="12.275339438590176"><ele>512.0</ele><time>2026-05-01T12:50:54.958Z</time></trkpt><trkpt lat="43.82457200281679" lon="12.275155490586556"><ele>514.0</ele><time>2026-05-01T12:50:55.958Z</time></trkpt><trkpt lat="43.824699506755934" lon="12.275019799530472"><ele>514.0</ele><time>2026-05-01T12:50:56.958Z</time></trkpt><trkpt lat="43.8248191444262" lon="12.274819130621124"><ele>514.0</ele><time>2026-05-01T12:50:57.958Z</time></trkpt><trkpt lat="43.824945592803566" lon="12.274601686604509"><ele>514.0</ele><time>2026-05-01T12:50:58.958Z</time></trkpt><trkpt lat="43.82506086288297" lon="12.274403074806578"><ele>511.0</ele><time>2026-05-01T12:50:59.958Z</time></trkpt><trkpt lat="43.825159579435876" lon="12.274223778997577"><ele>508.0</ele><time>2026-05-01T12:51:00.957Z</time></trkpt><trkpt lat="43.82523059796932" lon="12.274049819099048"><ele>505.0</ele><time>2026-05-01T12:51:01.957Z</time></trkpt><trkpt lat="43.82526914749496" lon="12.273865308779087"><ele>502.0</ele><time>2026-05-01T12:51:02.958Z</time></trkpt><trkpt lat="43.825293535235595" lon="12.273641559842511"><ele>502.0</ele><time>2026-05-01T12:51:03.958Z</time></trkpt><trkpt lat="43.825301676742264" lon="12.27338688762903"><ele>502.0</ele><time>2026-05-01T12:51:04.958Z</time></trkpt><trkpt lat="43.82530502395453" lon="12.273133500485606"><ele>502.0</ele><time>2026-05-01T12:51:05.957Z</time></trkpt><trkpt lat="43.825307517277615" lon="12.272912895780596"><ele>503.5</ele><time>2026-05-01T12:51:06.958Z</time></trkpt><trkpt lat="43.82532578155723" lon="12.272720119440072"><ele>505.0</ele><time>2026-05-01T12:51:07.958Z</time></trkpt><trkpt lat="43.82531336676304" lon="12.272538974333964"><ele>506.5</ele><time>2026-05-01T12:51:08.958Z</time></trkpt><trkpt lat="43.82531805562416" lon="12.272368889758436"><ele>508.0</ele><time>2026-05-01T12:51:09.957Z</time></trkpt><trkpt lat="43.82532913284126" lon="12.27219743206221"><ele>509.5</ele><time>2026-05-01T12:51:10.957Z</time></trkpt><trkpt lat="43.82534798353701" lon="12.27201765237468"><ele>511.0</ele><time>2026-05-01T12:51:11.958Z</time></trkpt><trkpt lat="43.82536746554904" lon="12.271831937945208"><ele>512.5</ele><time>2026-05-01T12:51:12.958Z</time></trkpt><trkpt lat="43.82539077696732" lon="12.271644076065806"><ele>514.0</ele><time>2026-05-01T12:51:13.958Z</time></trkpt><trkpt lat="43.82541472161669" lon="12.271462363632121"><ele>513.75</ele><time>2026-05-01T12:51:14.958Z</time></trkpt><trkpt lat="43.82543425128987" lon="12.271289177759945"><ele>513.5</ele><time>2026-05-01T12:51:15.958Z</time></trkpt><trkpt lat="43.82546833530499" lon="12.271131294068383"><ele>513.25</ele><time>2026-05-01T12:51:16.958Z</time></trkpt><trkpt lat="43.82546029066879" lon="12.27097739648418"><ele>513.0</ele><time>2026-05-01T12:51:17.958Z</time></trkpt><trkpt lat="43.82542002695986" lon="12.270804876996145"><ele>513.6666666666666</ele><time>2026-05-01T12:51:18.958Z</time></trkpt><trkpt lat="43.82536397332527" lon="12.270580200999119"><ele>514.3333333333333</ele><time>2026-05-01T12:51:19.958Z</time></trkpt><trkpt lat="43.82529300641424" lon="12.270330547162644"><ele>515.0</ele><time>2026-05-01T12:51:20.958Z</time></trkpt><trkpt lat="43.825238876921745" lon="12.270062112171388"><ele>514.3333333333333</ele><time>2026-05-01T12:51:21.958Z</time></trkpt><trkpt lat="43.82522234172975" lon="12.269756937743113"><ele>513.6666666666666</ele><time>2026-05-01T12:51:22.958Z</time></trkpt><trkpt lat="43.825214183991854" lon="12.269498414629494"><ele>513.0</ele><time>2026-05-01T12:51:23.958Z</time></trkpt><trkpt lat="43.825186095396774" lon="12.269266718464563"><ele>516.0</ele><time>2026-05-01T12:51:24.958Z</time></trkpt><trkpt lat="43.82512905463415" lon="12.26906438689407"><ele>519.0</ele><time>2026-05-01T12:51:25.958Z</time></trkpt><trkpt lat="43.82506935803553" lon="12.268877751616465"><ele>522.0</ele><time>2026-05-01T12:51:26.958Z</time></trkpt><trkpt lat="43.82499229332782" lon="12.268707739417547"><ele>525.0</ele><time>2026-05-01T12:51:27.958Z</time></trkpt><trkpt lat="43.82486950422954" lon="12.268558322112172"><ele>525.0</ele><time>2026-05-01T12:51:28.958Z</time></trkpt><trkpt lat="43.82472958131401" lon="12.268447740218324"><ele>525.0</ele><time>2026-05-01T12:51:29.958Z</time></trkpt><trkpt lat="43.82457592103222" lon="12.268348985473548"><ele>525.0</ele><time>2026-05-01T12:51:30.958Z</time></trkpt><trkpt lat="43.8243885704047" lon="12.26826565091499"><ele>523.0</ele><time>2026-05-01T12:51:31.958Z</time></trkpt><trkpt lat="43.824178783532" lon="12.268192318137169"><ele>521.0</ele><time>2026-05-01T12:51:32.958Z</time></trkpt><trkpt lat="43.82397351884653" lon="12.268112067023443"><ele>519.0</ele><time>2026-05-01T12:51:33.958Z</time></trkpt><trkpt lat="43.82376049962957" lon="12.268032198578348"><ele>519.0</ele><time>2026-05-01T12:51:34.958Z</time></trkpt><trkpt lat="43.82356032241565" lon="12.267942441392023"><ele>519.0</ele><time>2026-05-01T12:51:35.958Z</time></trkpt><trkpt lat="43.823367238215766" lon="12.267859359399374"><ele>519.0</ele><time>2026-05-01T12:51:36.958Z</time></trkpt><trkpt lat="43.82318087023369" lon="12.267783175778725"><ele>523.3333333333334</ele><time>2026-05-01T12:51:37.958Z</time></trkpt><trkpt lat="43.82300547845907" lon="12.2677073682735"><ele>527.6666666666667</ele><time>2026-05-01T12:51:38.958Z</time></trkpt><trkpt lat="43.822839827971336" lon="12.26763233674081"><ele>532.0</ele><time>2026-05-01T12:51:39.958Z</time></trkpt><trkpt lat="43.822686640954075" lon="12.267489547601627"><ele>532.6666666666667</ele><time>2026-05-01T12:51:40.958Z</time></trkpt><trkpt lat="43.822546109277596" lon="12.267335706487344"><ele>533.3333333333334</ele><time>2026-05-01T12:51:41.958Z</time></trkpt><trkpt lat="43.822408872459995" lon="12.267188200441819"><ele>534.0</ele><time>2026-05-01T12:51:42.958Z</time></trkpt><trkpt lat="43.82226965970816" lon="12.267038012464862"><ele>534.0</ele><time>2026-05-01T12:51:43.958Z</time></trkpt><trkpt lat="43.82212223817769" lon="12.266946941315089"><ele>534.0</ele><time>2026-05-01T12:51:44.958Z</time></trkpt><trkpt lat="43.82200939205605" lon="12.266862136657625"><ele>534.0</ele><time>2026-05-01T12:51:45.958Z</time></trkpt><trkpt lat="43.82187155590871" lon="12.266805370307674"><ele>534.0</ele><time>2026-05-01T12:51:46.958Z</time></trkpt><trkpt lat="43.82172083456243" lon="12.266770498862769"><ele>537.6666666666666</ele><time>2026-05-01T12:51:47.958Z</time></trkpt><trkpt lat="43.821556709099134" lon="12.266724781615986"><ele>541.3333333333333</ele><time>2026-05-01T12:51:48.958Z</time></trkpt><trkpt lat="43.82139732189318" lon="12.26667484994054"><ele>545.0</ele><time>2026-05-01T12:51:49.958Z</time></trkpt><trkpt lat="43.82123628168142" lon="12.266624184040715"><ele>545.0</ele><time>2026-05-01T12:51:50.958Z</time></trkpt><trkpt lat="43.82106953593936" lon="12.266560532542032"><ele>545.0</ele><time>2026-05-01T12:51:51.958Z</time></trkpt><trkpt lat="43.82090850426589" lon="12.266509991280543"><ele>545.0</ele><time>2026-05-01T12:51:52.958Z</time></trkpt><trkpt lat="43.820749518972505" lon="12.266463263933518"><ele>545.0</ele><time>2026-05-01T12:51:53.958Z</time></trkpt><trkpt lat="43.8205849132" lon="12.266424795150913"><ele>545.0</ele><time>2026-05-01T12:51:54.958Z</time></trkpt><trkpt lat="43.82041923575476" lon="12.266391185134479"><ele>545.0</ele><time>2026-05-01T12:51:55.958Z</time></trkpt><trkpt lat="43.82024802453836" lon="12.26637442757558"><ele>545.6666666666666</ele><time>2026-05-01T12:51:56.958Z</time></trkpt><trkpt lat="43.820081592473926" lon="12.266379508272648"><ele>546.3333333333334</ele><time>2026-05-01T12:51:57.958Z</time></trkpt><trkpt lat="43.81991402739165" lon="12.266396263998551"><ele>547.0</ele><time>2026-05-01T12:51:58.958Z</time></trkpt><trkpt lat="43.8197435019074" lon="12.266380368048182"><ele>547.0</ele><time>2026-05-01T12:51:59.958Z</time></trkpt><trkpt lat="43.81958865591364" lon="12.266347574133702"><ele>547.0</ele><time>2026-05-01T12:52:00.958Z</time></trkpt><trkpt lat="43.81944497989739" lon="12.26631777189895"><ele>547.0</ele><time>2026-05-01T12:52:01.958Z</time></trkpt><trkpt lat="43.819346262267985" lon="12.266307751757518"><ele>547.0</ele><time>2026-05-01T12:52:02.958Z</time></trkpt><trkpt lat="43.81925990004576" lon="12.266351422917767"><ele>548.75</ele><time>2026-05-01T12:52:03.958Z</time></trkpt><trkpt lat="43.81914146081083" lon="12.266428677272998"><ele>550.5</ele><time>2026-05-01T12:52:04.958Z</time></trkpt><trkpt lat="43.81903600419865" lon="12.266541761739004"><ele>552.25</ele><time>2026-05-01T12:52:05.958Z</time></trkpt><trkpt lat="43.81894386539518" lon="12.266637137444128"><ele>554.0</ele><time>2026-05-01T12:52:06.958Z</time></trkpt><trkpt lat="43.818860582500236" lon="12.266704264370434"><ele>554.8</ele><time>2026-05-01T12:52:07.958Z</time></trkpt><trkpt lat="43.81878654984348" lon="12.266710074116212"><ele>555.5999999999999</ele><time>2026-05-01T12:52:08.958Z</time></trkpt><trkpt lat="43.818706406701104" lon="12.266651757991154"><ele>556.4</ele><time>2026-05-01T12:52:09.958Z</time></trkpt><trkpt lat="43.81861538980592" lon="12.266576424692023"><ele>557.1999999999999</ele><time>2026-05-01T12:52:10.958Z</time></trkpt><trkpt lat="43.818508797254545" lon="12.266495707158152"><ele>558.0</ele><time>2026-05-01T12:52:11.958Z</time></trkpt><trkpt lat="43.81839279752268" lon="12.26641959227677"><ele>558.0</ele><time>2026-05-01T12:52:12.958Z</time></trkpt><trkpt lat="43.818286367579375" lon="12.266341924391726"><ele>558.0</ele><time>2026-05-01T12:52:13.958Z</time></trkpt><trkpt lat="43.8182157357766" lon="12.266222202909706"><ele>558.0</ele><time>2026-05-01T12:52:14.958Z</time></trkpt><trkpt lat="43.81814958686994" lon="12.266082186389292"><ele>558.0</ele><time>2026-05-01T12:52:15.958Z</time></trkpt><trkpt lat="43.8180736162055" lon="12.265931125039488"><ele>558.0</ele><time>2026-05-01T12:52:16.958Z</time></trkpt><trkpt lat="43.81799673753619" lon="12.265778258663646"><ele>558.0</ele><time>2026-05-01T12:52:17.958Z</time></trkpt><trkpt lat="43.81792907552537" lon="12.26564259273067"><ele>558.0</ele><time>2026-05-01T12:52:18.958Z</time></trkpt><trkpt lat="43.817866185991505" lon="12.265514032659592"><ele>558.0</ele><time>2026-05-01T12:52:19.958Z</time></trkpt><trkpt lat="43.817810928453284" lon="12.265395045050338"><ele>558.1666666666666</ele><time>2026-05-01T12:52:20.958Z</time></trkpt><trkpt lat="43.8177528936268" lon="12.265283510421522"><ele>558.3333333333334</ele><time>2026-05-01T12:52:21.958Z</time></trkpt><trkpt lat="43.81772429088147" lon="12.265157658199826"><ele>558.5</ele><time>2026-05-01T12:52:22.958Z</time></trkpt><trkpt lat="43.81769374356391" lon="12.26504932480565"><ele>558.6666666666667</ele><time>2026-05-01T12:52:23.958Z</time></trkpt><trkpt lat="43.817672294312565" lon="12.264966967185536"><ele>558.8333333333334</ele><time>2026-05-01T12:52:24.958Z</time></trkpt><trkpt lat="43.81764983231516" lon="12.264880724326737"><ele>559.0</ele><time>2026-05-01T12:52:26.958Z</time></trkpt><trkpt lat="43.81749044702331" lon="12.264926891377469"><ele>559.0</ele><time>2026-05-01T12:52:29.958Z</time></trkpt><trkpt lat="43.817418394092066" lon="12.264957600580852"><ele>559.0</ele><time>2026-05-01T12:52:30.958Z</time></trkpt><trkpt lat="43.81734533785003" lon="12.264955524640005"><ele>559.0</ele><time>2026-05-01T12:52:31.958Z</time></trkpt><trkpt lat="43.81728228285704" lon="12.26499729285133"><ele>559.0</ele><time>2026-05-01T12:52:32.958Z</time></trkpt><trkpt lat="43.81721347197483" lon="12.265014956267686"><ele>559.0</ele><time>2026-05-01T12:52:33.958Z</time></trkpt><trkpt lat="43.81714749245359" lon="12.265026419106277"><ele>559.0</ele><time>2026-05-01T12:52:34.958Z</time></trkpt><trkpt lat="43.817047641068754" lon="12.26505807176266"><ele>559.0</ele><time>2026-05-01T12:52:36.958Z</time></trkpt><trkpt lat="43.816986231221584" lon="12.26510668943469"><ele>559.0</ele><time>2026-05-01T12:52:39.958Z</time></trkpt><trkpt lat="43.81697073613793" lon="12.265225274093991"><ele>559.0</ele><time>2026-05-01T12:52:42.958Z</time></trkpt><trkpt lat="43.81692079229869" lon="12.265281076052467"><ele>559.0</ele><time>2026-05-01T12:52:46.958Z</time></trkpt><trkpt lat="43.81682760288016" lon="12.265341010567804"><ele>559.0</ele><time>2026-05-01T12:52:49.958Z</time></trkpt><trkpt lat="43.81678472152597" lon="12.265251043761648"><ele>559.0</ele><time>2026-05-01T12:52:51.958Z</time></trkpt><trkpt lat="43.816681546478115" lon="12.265219974579853"><ele>559.6666666666667</ele><time>2026-05-01T12:52:54.958Z</time></trkpt><trkpt lat="43.81657389397762" lon="12.265195860832149"><ele>560.3333333333334</ele><time>2026-05-01T12:52:55.958Z</time></trkpt><trkpt lat="43.81648768665768" lon="12.265192531462658"><ele>561.0</ele><time>2026-05-01T12:52:57.958Z</time></trkpt><trkpt lat="43.81655632363468" lon="12.265197096147688"><ele>561.6666666666666</ele><time>2026-05-01T12:53:02.958Z</time></trkpt><trkpt lat="43.81646972698603" lon="12.265247114372535"><ele>562.3333333333333</ele><time>2026-05-01T12:53:05.957Z</time></trkpt><trkpt lat="43.81642628628128" lon="12.265326412503018"><ele>563.0</ele><time>2026-05-01T12:53:06.957Z</time></trkpt><trkpt lat="43.81634232025366" lon="12.265409504650359"><ele>563.0</ele><time>2026-05-01T12:53:08.957Z</time></trkpt><trkpt lat="43.816234584048736" lon="12.265511521460606"><ele>563.0</ele><time>2026-05-01T12:53:10.958Z</time></trkpt><trkpt lat="43.81616889998886" lon="12.265567857551998"><ele>563.0</ele><time>2026-05-01T12:53:11.958Z</time></trkpt><trkpt lat="43.81609623641254" lon="12.265616313803037"><ele>563.0</ele><time>2026-05-01T12:53:12.957Z</time></trkpt><trkpt lat="43.81602725838837" lon="12.265660130311627"><ele>563.0</ele><time>2026-05-01T12:53:13.957Z</time></trkpt><trkpt lat="43.81596941800114" lon="12.265721769412455"><ele>563.0</ele><time>2026-05-01T12:53:14.958Z</time></trkpt><trkpt lat="43.81588184807137" lon="12.265750335157199"><ele>558.6</ele><time>2026-05-01T12:53:15.957Z</time></trkpt><trkpt lat="43.81580605133135" lon="12.265808221400917"><ele>554.1999999999999</ele><time>2026-05-01T12:53:16.957Z</time></trkpt><trkpt lat="43.81573136594271" lon="12.265882207085408"><ele>549.8</ele><time>2026-05-01T12:53:17.957Z</time></trkpt><trkpt lat="43.81564535881198" lon="12.265974019369178"><ele>545.4</ele><time>2026-05-01T12:53:18.957Z</time></trkpt><trkpt lat="43.81556207398771" lon="12.26604443232872"><ele>541.0</ele><time>2026-05-01T12:53:19.957Z</time></trkpt><trkpt lat="43.81548853429075" lon="12.266117238113692"><ele>541.0</ele><time>2026-05-01T12:53:20.957Z</time></trkpt><trkpt lat="43.81541478761878" lon="12.266167081778715"><ele>541.0</ele><time>2026-05-01T12:53:21.957Z</time></trkpt><trkpt lat="43.81534789767006" lon="12.26617459185971"><ele>541.0</ele><time>2026-05-01T12:53:22.957Z</time></trkpt><trkpt lat="43.81524918729139" lon="12.266180943081165"><ele>541.0</ele><time>2026-05-01T12:53:24.957Z</time></trkpt><trkpt lat="43.815152290407035" lon="12.266174015943824"><ele>541.0</ele><time>2026-05-01T12:53:26.957Z</time></trkpt><trkpt lat="43.81506814827335" lon="12.266091871168681"><ele>541.0</ele><time>2026-05-01T12:53:28.957Z</time></trkpt><trkpt lat="43.81496657072018" lon="12.266012073835059"><ele>538.0</ele><time>2026-05-01T12:53:30.957Z</time></trkpt><trkpt lat="43.81489293683641" lon="12.265978529162663"><ele>535.0</ele><time>2026-05-01T12:53:32.957Z</time></trkpt><trkpt lat="43.814833454660985" lon="12.265945058222155"><ele>532.0</ele><time>2026-05-01T12:53:37.957Z</time></trkpt><trkpt lat="43.81478304708887" lon="12.26611036974176"><ele>529.0</ele><time>2026-05-01T12:53:38.957Z</time></trkpt><trkpt lat="43.814754612492365" lon="12.266243658494723"><ele>526.0</ele><time>2026-05-01T12:53:39.957Z</time></trkpt><trkpt lat="43.8147177087088" lon="12.26639721201253"><ele>527.6666666666667</ele><time>2026-05-01T12:53:40.957Z</time></trkpt><trkpt lat="43.81467675755257" lon="12.266573594390652"><ele>529.3333333333334</ele><time>2026-05-01T12:53:41.957Z</time></trkpt><trkpt lat="43.814600688774796" lon="12.266785525700026"><ele>531.0</ele><time>2026-05-01T12:53:42.957Z</time></trkpt><trkpt lat="43.814538174280834" lon="12.266979280917774"><ele>531.0</ele><time>2026-05-01T12:53:43.957Z</time></trkpt><trkpt lat="43.81447409815922" lon="12.267171032557535"><ele>531.0</ele><time>2026-05-01T12:53:44.957Z</time></trkpt><trkpt lat="43.81440224129802" lon="12.2673295943983"><ele>531.0</ele><time>2026-05-01T12:53:45.957Z</time></trkpt><trkpt lat="43.814333473727984" lon="12.267483724697486"><ele>531.0</ele><time>2026-05-01T12:53:46.957Z</time></trkpt><trkpt lat="43.81426324583375" lon="12.26762450822459"><ele>527.25</ele><time>2026-05-01T12:53:47.957Z</time></trkpt><trkpt lat="43.8141858320503" lon="12.2677672040837"><ele>523.5</ele><time>2026-05-01T12:53:48.957Z</time></trkpt><trkpt lat="43.81411245895577" lon="12.26790178088941"><ele>519.75</ele><time>2026-05-01T12:53:49.957Z</time></trkpt><trkpt lat="43.814041177275506" lon="12.268034045709337"><ele>516.0</ele><time>2026-05-01T12:53:50.957Z</time></trkpt><trkpt lat="43.81395971291504" lon="12.268188660417216"><ele>516.0</ele><time>2026-05-01T12:53:51.957Z</time></trkpt><trkpt lat="43.813858112204336" lon="12.26837133488955"><ele>516.0</ele><time>2026-05-01T12:53:52.957Z</time></trkpt><trkpt lat="43.8137624029565" lon="12.268548246246143"><ele>516.0</ele><time>2026-05-01T12:53:53.957Z</time></trkpt><trkpt lat="43.81366481334482" lon="12.268730766566701"><ele>516.0</ele><time>2026-05-01T12:53:54.957Z</time></trkpt><trkpt lat="43.81356521148639" lon="12.26890336127124"><ele>516.0</ele><time>2026-05-01T12:53:55.957Z</time></trkpt><trkpt lat="43.81344290885856" lon="12.269033026172481"><ele>516.0</ele><time>2026-05-01T12:53:56.957Z</time></trkpt><trkpt lat="43.81329453399147" lon="12.269087861497791"><ele>513.3333333333334</ele><time>2026-05-01T12:53:57.957Z</time></trkpt><trkpt lat="43.813129832086666" lon="12.269135725760757"><ele>510.6666666666667</ele><time>2026-05-01T12:53:58.957Z</time></trkpt><trkpt lat="43.81295743136516" lon="12.269190677102156"><ele>508.0</ele><time>2026-05-01T12:53:59.957Z</time></trkpt><trkpt lat="43.812774562466096" lon="12.269210386556042"><ele>505.33333333333337</ele><time>2026-05-01T12:54:00.957Z</time></trkpt><trkpt lat="43.812569894560326" lon="12.269173160087458"><ele>502.66666666666663</ele><time>2026-05-01T12:54:01.957Z</time></trkpt><trkpt lat="43.81233620911705" lon="12.269132966965147"><ele>500.0</ele><time>2026-05-01T12:54:02.957Z</time></trkpt><trkpt lat="43.81207230835727" lon="12.269102575600053"><ele>500.0</ele><time>2026-05-01T12:54:03.957Z</time></trkpt><trkpt lat="43.81182829869285" lon="12.2690653552803"><ele>500.0</ele><time>2026-05-01T12:54:04.957Z</time></trkpt><trkpt lat="43.81157406590228" lon="12.269046974214161"><ele>498.0</ele><time>2026-05-01T12:54:05.957Z</time></trkpt><trkpt lat="43.81133326011391" lon="12.269053632117464"><ele>496.0</ele><time>2026-05-01T12:54:06.957Z</time></trkpt><trkpt lat="43.81110616808263" lon="12.269064645092278"><ele>494.6666666666667</ele><time>2026-05-01T12:54:07.957Z</time></trkpt><trkpt lat="43.81088144922184" lon="12.269091745901495"><ele>493.33333333333337</ele><time>2026-05-01T12:54:08.957Z</time></trkpt><trkpt lat="43.81066110475978" lon="12.269114024623443"><ele>492.0</ele><time>2026-05-01T12:54:09.957Z</time></trkpt><trkpt lat="43.81043101191356" lon="12.269130733721816"><ele>492.0</ele><time>2026-05-01T12:54:10.957Z</time></trkpt><trkpt lat="43.81019415286655" lon="12.269143234670658"><ele>492.0</ele><time>2026-05-01T12:54:11.957Z</time></trkpt><trkpt lat="43.80993828845671" lon="12.26915373194154"><ele>491.0</ele><time>2026-05-01T12:54:12.957Z</time></trkpt><trkpt lat="43.80971380994426" lon="12.269190434190925"><ele>490.0</ele><time>2026-05-01T12:54:13.957Z</time></trkpt><trkpt lat="43.8094982347904" lon="12.26920865673669"><ele>489.0</ele><time>2026-05-01T12:54:14.957Z</time></trkpt><trkpt lat="43.80928934529793" lon="12.269224884622101"><ele>488.33333333333337</ele><time>2026-05-01T12:54:15.957Z</time></trkpt><trkpt lat="43.809087714634295" lon="12.269254592317937"><ele>487.6666666666667</ele><time>2026-05-01T12:54:16.957Z</time></trkpt><trkpt lat="43.808889091537175" lon="12.269322149122264"><ele>487.0</ele><time>2026-05-01T12:54:17.957Z</time></trkpt><trkpt lat="43.808704910555676" lon="12.269428696727612"><ele>487.0</ele><time>2026-05-01T12:54:18.957Z</time></trkpt><trkpt lat="43.80851511570074" lon="12.269572486683767"><ele>487.0</ele><time>2026-05-01T12:54:19.957Z</time></trkpt><trkpt lat="43.808322533558815" lon="12.269770564554749"><ele>489.0</ele><time>2026-05-01T12:54:20.957Z</time></trkpt><trkpt lat="43.80813033775595" lon="12.269985473324494"><ele>491.0</ele><time>2026-05-01T12:54:21.957Z</time></trkpt><trkpt lat="43.807953647660725" lon="12.270163457788918"><ele>491.0</ele><time>2026-05-01T12:54:22.957Z</time></trkpt><trkpt lat="43.80779980222799" lon="12.270328699766686"><ele>491.0</ele><time>2026-05-01T12:54:23.957Z</time></trkpt><trkpt lat="43.807646982034264" lon="12.270489742507207"><ele>491.0</ele><time>2026-05-01T12:54:24.957Z</time></trkpt><trkpt lat="43.807495288859364" lon="12.27064617320727"><ele>493.0</ele><time>2026-05-01T12:54:25.957Z</time></trkpt><trkpt lat="43.807345399991206" lon="12.270783849069883"><ele>495.0</ele><time>2026-05-01T12:54:26.957Z</time></trkpt><trkpt lat="43.80721421902851" lon="12.270907968430283"><ele>497.0</ele><time>2026-05-01T12:54:27.957Z</time></trkpt><trkpt lat="43.8070859095028" lon="12.271004649458007"><ele>497.0</ele><time>2026-05-01T12:54:28.957Z</time></trkpt><trkpt lat="43.80695489856281" lon="12.27104336063039"><ele>497.0</ele><time>2026-05-01T12:54:29.957Z</time></trkpt><trkpt lat="43.806812884414235" lon="12.271009461096478"><ele>497.0</ele><time>2026-05-01T12:54:30.957Z</time></trkpt><trkpt lat="43.80668339681933" lon="12.270936133586302"><ele>497.0</ele><time>2026-05-01T12:54:31.957Z</time></trkpt><trkpt lat="43.806588804027456" lon="12.270805357570541"><ele>499.3333333333333</ele><time>2026-05-01T12:54:32.957Z</time></trkpt><trkpt lat="43.80650255067454" lon="12.270603595225955"><ele>501.66666666666663</ele><time>2026-05-01T12:54:33.957Z</time></trkpt><trkpt lat="43.80638990567565" lon="12.270406640250688"><ele>504.0</ele><time>2026-05-01T12:54:34.957Z</time></trkpt><trkpt lat="43.80624401990857" lon="12.270259184754325"><ele>504.0</ele><time>2026-05-01T12:54:35.957Z</time></trkpt><trkpt lat="43.806054956079336" lon="12.270118723662826"><ele>504.0</ele><time>2026-05-01T12:54:36.957Z</time></trkpt><trkpt lat="43.80586434429559" lon="12.269990349136155"><ele>504.0</ele><time>2026-05-01T12:54:37.957Z</time></trkpt><trkpt lat="43.80568976796114" lon="12.269872987823518"><ele>506.0</ele><time>2026-05-01T12:54:38.957Z</time></trkpt><trkpt lat="43.80554403770132" lon="12.269772086653838"><ele>508.0</ele><time>2026-05-01T12:54:39.957Z</time></trkpt><trkpt lat="43.80542241496104" lon="12.26971467493941"><ele>510.0</ele><time>2026-05-01T12:54:40.957Z</time></trkpt><trkpt lat="43.805298163581135" lon="12.269689873741083"><ele>512.0</ele><time>2026-05-01T12:54:41.957Z</time></trkpt><trkpt lat="43.805160540398745" lon="12.269715651482699"><ele>515.0</ele><time>2026-05-01T12:54:42.957Z</time></trkpt><trkpt lat="43.80500327480029" lon="12.269799832194163"><ele>518.0</ele><time>2026-05-01T12:54:43.957Z</time></trkpt><trkpt lat="43.80485304243838" lon="12.269898842597566"><ele>521.0</ele><time>2026-05-01T12:54:44.957Z</time></trkpt><trkpt lat="43.804718919660424" lon="12.269938722599964"><ele>521.0</ele><time>2026-05-01T12:54:45.957Z</time></trkpt><trkpt lat="43.80458335668961" lon="12.26994316152634"><ele>521.0</ele><time>2026-05-01T12:54:46.957Z</time></trkpt><trkpt lat="43.80449567560066" lon="12.2698771315561"><ele>521.0</ele><time>2026-05-01T12:54:47.957Z</time></trkpt><trkpt lat="43.80444165864543" lon="12.269750603375979"><ele>521.0</ele><time>2026-05-01T12:54:48.957Z</time></trkpt><trkpt lat="43.804434014921334" lon="12.269596305774005"><ele>520.75</ele><time>2026-05-01T12:54:49.957Z</time></trkpt><trkpt lat="43.804467119542224" lon="12.26943878483242"><ele>520.5</ele><time>2026-05-01T12:54:50.957Z</time></trkpt><trkpt lat="43.80450468424892" lon="12.26927375455775"><ele>520.25</ele><time>2026-05-01T12:54:51.957Z</time></trkpt><trkpt lat="43.80451985455366" lon="12.269072081234949"><ele>520.0</ele><time>2026-05-01T12:54:52.957Z</time></trkpt><trkpt lat="43.80449355960134" lon="12.268856232386574"><ele>520.0</ele><time>2026-05-01T12:54:53.957Z</time></trkpt><trkpt lat="43.8044161809206" lon="12.268676826835879"><ele>520.0</ele><time>2026-05-01T12:54:54.957Z</time></trkpt><trkpt lat="43.80435226568937" lon="12.268522542272633"><ele>520.0</ele><time>2026-05-01T12:54:55.957Z</time></trkpt><trkpt lat="43.80428004148743" lon="12.268394158312601"><ele>520.0</ele><time>2026-05-01T12:54:56.957Z</time></trkpt><trkpt lat="43.80417919734688" lon="12.268269713871037"><ele>521.0</ele><time>2026-05-01T12:54:57.957Z</time></trkpt><trkpt lat="43.80401908975063" lon="12.268141923865477"><ele>522.0</ele><time>2026-05-01T12:54:58.957Z</time></trkpt><trkpt lat="43.80382359587191" lon="12.268000519959116"><ele>523.0</ele><time>2026-05-01T12:54:59.957Z</time></trkpt><trkpt lat="43.803650427532816" lon="12.26785890930592"><ele>523.0</ele><time>2026-05-01T12:55:00.957Z</time></trkpt><trkpt lat="43.80351460459077" lon="12.267711419914527"><ele>523.0</ele><time>2026-05-01T12:55:01.957Z</time></trkpt><trkpt lat="43.803419251834256" lon="12.267553741582248"><ele>523.0</ele><time>2026-05-01T12:55:02.957Z</time></trkpt><trkpt lat="43.80334323251874" lon="12.267372204141834"><ele>526.0</ele><time>2026-05-01T12:55:03.957Z</time></trkpt><trkpt lat="43.80332597693205" lon="12.267168501547161"><ele>529.0</ele><time>2026-05-01T12:55:04.957Z</time></trkpt><trkpt lat="43.80330457435676" lon="12.266923958937008"><ele>532.0</ele><time>2026-05-01T12:55:05.957Z</time></trkpt><trkpt lat="43.803283803962664" lon="12.266650753711106"><ele>530.3333333333334</ele><time>2026-05-01T12:55:06.957Z</time></trkpt><trkpt lat="43.80326777125446" lon="12.266425198883121"><ele>528.6666666666666</ele><time>2026-05-01T12:55:07.957Z</time></trkpt><trkpt lat="43.80325073682147" lon="12.26623030509661"><ele>527.0</ele><time>2026-05-01T12:55:08.957Z</time></trkpt><trkpt lat="43.80318308563476" lon="12.266046012950193"><ele>527.0</ele><time>2026-05-01T12:55:09.957Z</time></trkpt><trkpt lat="43.8031079978453" lon="12.265864810708072"><ele>527.0</ele><time>2026-05-01T12:55:10.957Z</time></trkpt><trkpt lat="43.8030521877298" lon="12.2656857232849"><ele>527.0</ele><time>2026-05-01T12:55:11.957Z</time></trkpt><trkpt lat="43.80298764842423" lon="12.265551477414121"><ele>527.0</ele><time>2026-05-01T12:55:12.957Z</time></trkpt><trkpt lat="43.80291223547873" lon="12.265451379340682"><ele>526.8000000000001</ele><time>2026-05-01T12:55:13.957Z</time></trkpt><trkpt lat="43.80281242792671" lon="12.265389972922991"><ele>526.6</ele><time>2026-05-01T12:55:14.957Z</time></trkpt><trkpt lat="43.8027093328995" lon="12.265359370486019"><ele>526.4000000000001</ele><time>2026-05-01T12:55:15.957Z</time></trkpt><trkpt lat="43.80260108449798" lon="12.265365467181066"><ele>526.2</ele><time>2026-05-01T12:55:16.957Z</time></trkpt><trkpt lat="43.80249266265973" lon="12.265405148722198"><ele>526.0</ele><time>2026-05-01T12:55:17.957Z</time></trkpt><trkpt lat="43.802377085663515" lon="12.26547493552765"><ele>526.0</ele><time>2026-05-01T12:55:18.957Z</time></trkpt><trkpt lat="43.8022473626375" lon="12.265549996158892"><ele>526.0</ele><time>2026-05-01T12:55:19.957Z</time></trkpt><trkpt lat="43.80211281934012" lon="12.265645287825544"><ele>526.0</ele><time>2026-05-01T12:55:20.957Z</time></trkpt><trkpt lat="43.80197736161961" lon="12.265732636591308"><ele>526.0</ele><time>2026-05-01T12:55:21.957Z</time></trkpt><trkpt lat="43.801840050780235" lon="12.265802943862962"><ele>528.6666666666667</ele><time>2026-05-01T12:55:22.957Z</time></trkpt><trkpt lat="43.80169464414082" lon="12.265821419584048"><ele>531.3333333333334</ele><time>2026-05-01T12:55:23.957Z</time></trkpt><trkpt lat="43.80155736438731" lon="12.26572958107404"><ele>534.0</ele><time>2026-05-01T12:55:24.957Z</time></trkpt><trkpt lat="43.8014287456256" lon="12.26560906156766"><ele>534.0</ele><time>2026-05-01T12:55:25.957Z</time></trkpt><trkpt lat="43.80127091120627" lon="12.26548088427054"><ele>534.0</ele><time>2026-05-01T12:55:26.957Z</time></trkpt><trkpt lat="43.801115245218554" lon="12.26529951608021"><ele>534.0</ele><time>2026-05-01T12:55:27.957Z</time></trkpt><trkpt lat="43.80096901503797" lon="12.265153013700672"><ele>536.5</ele><time>2026-05-01T12:55:28.957Z</time></trkpt><trkpt lat="43.800868628526" lon="12.264992163285049"><ele>539.0</ele><time>2026-05-01T12:55:29.957Z</time></trkpt><trkpt lat="43.80083360499364" lon="12.264811360975395"><ele>541.5</ele><time>2026-05-01T12:55:30.957Z</time></trkpt><trkpt lat="43.8008443013126" lon="12.26464835154833"><ele>544.0</ele><time>2026-05-01T12:55:31.957Z</time></trkpt><trkpt lat="43.80086370407743" lon="12.26446504515486"><ele>544.3333333333334</ele><time>2026-05-01T12:55:32.957Z</time></trkpt><trkpt lat="43.8008384159602" lon="12.264287954738498"><ele>544.6666666666666</ele><time>2026-05-01T12:55:33.957Z</time></trkpt><trkpt lat="43.80080283858059" lon="12.264096386540308"><ele>545.0</ele><time>2026-05-01T12:55:34.957Z</time></trkpt><trkpt lat="43.80071206570571" lon="12.263882891071717"><ele>545.0</ele><time>2026-05-01T12:55:35.957Z</time></trkpt><trkpt lat="43.80058282975274" lon="12.263659614784242"><ele>545.0</ele><time>2026-05-01T12:55:36.957Z</time></trkpt><trkpt lat="43.80043858680202" lon="12.26341660454905"><ele>545.0</ele><time>2026-05-01T12:55:37.957Z</time></trkpt><trkpt lat="43.80033286902284" lon="12.263142582034865"><ele>543.5</ele><time>2026-05-01T12:55:38.957Z</time></trkpt><trkpt lat="43.8002981817316" lon="12.262832238911539"><ele>542.0</ele><time>2026-05-01T12:55:39.957Z</time></trkpt><trkpt lat="43.800236241209674" lon="12.26251509453314"><ele>540.0</ele><time>2026-05-01T12:55:40.957Z</time></trkpt><trkpt lat="43.800182487108714" lon="12.262201990768071"><ele>538.0</ele><time>2026-05-01T12:55:41.957Z</time></trkpt><trkpt lat="43.800096667502764" lon="12.261896387645661"><ele>546.5</ele><time>2026-05-01T12:55:42.957Z</time></trkpt><trkpt lat="43.799983483543365" lon="12.261575571262581"><ele>555.0</ele><time>2026-05-01T12:55:43.957Z</time></trkpt><trkpt lat="43.799852483193106" lon="12.261293415736189"><ele>555.0</ele><time>2026-05-01T12:55:44.957Z</time></trkpt><trkpt lat="43.79974785651322" lon="12.261046498631508"><ele>555.0</ele><time>2026-05-01T12:55:45.957Z</time></trkpt><trkpt lat="43.79968050564355" lon="12.260846037319439"><ele>555.0</ele><time>2026-05-01T12:55:46.957Z</time></trkpt><trkpt lat="43.79966870164389" lon="12.26067465555025"><ele>557.3333333333334</ele><time>2026-05-01T12:55:47.957Z</time></trkpt><trkpt lat="43.799713027386844" lon="12.26049855520802"><ele>559.6666666666667</ele><time>2026-05-01T12:55:48.957Z</time></trkpt><trkpt lat="43.79978796620182" lon="12.260283234104671"><ele>562.0</ele><time>2026-05-01T12:55:49.957Z</time></trkpt><trkpt lat="43.79987409446357" lon="12.260018136478703"><ele>566.0</ele><time>2026-05-01T12:55:50.957Z</time></trkpt><trkpt lat="43.799974349631306" lon="12.259731415357644"><ele>570.0</ele><time>2026-05-01T12:55:51.957Z</time></trkpt><trkpt lat="43.80006552086241" lon="12.259437452433106"><ele>570.0</ele><time>2026-05-01T12:55:52.957Z</time></trkpt><trkpt lat="43.800161549008955" lon="12.25913894291615"><ele>570.0</ele><time>2026-05-01T12:55:53.957Z</time></trkpt><trkpt lat="43.80026604315537" lon="12.258838552843109"><ele>569.0</ele><time>2026-05-01T12:55:54.957Z</time></trkpt><trkpt lat="43.80036051816257" lon="12.258566305784518"><ele>568.0</ele><time>2026-05-01T12:55:55.957Z</time></trkpt><trkpt lat="43.8004450992706" lon="12.258333615536957"><ele>567.0</ele><time>2026-05-01T12:55:56.957Z</time></trkpt><trkpt lat="43.800554661819874" lon="12.25816828164923"><ele>569.25</ele><time>2026-05-01T12:55:57.957Z</time></trkpt><trkpt lat="43.80065271582498" lon="12.25803038757769"><ele>571.5</ele><time>2026-05-01T12:55:58.957Z</time></trkpt><trkpt lat="43.80072658454601" lon="12.257884887868048"><ele>573.75</ele><time>2026-05-01T12:55:59.957Z</time></trkpt><trkpt lat="43.80079312389557" lon="12.257747228138614"><ele>576.0</ele><time>2026-05-01T12:56:00.957Z</time></trkpt><trkpt lat="43.8008034009583" lon="12.257566638655117"><ele>576.0</ele><time>2026-05-01T12:56:01.957Z</time></trkpt><trkpt lat="43.800776085249225" lon="12.257356429066173"><ele>576.0</ele><time>2026-05-01T12:56:02.957Z</time></trkpt><trkpt lat="43.80074404825016" lon="12.25715549781943"><ele>576.0</ele><time>2026-05-01T12:56:03.957Z</time></trkpt><trkpt lat="43.800710666860844" lon="12.256975640939562"><ele>576.0</ele><time>2026-05-01T12:56:04.957Z</time></trkpt><trkpt lat="43.80068471826884" lon="12.256791989259423"><ele>575.25</ele><time>2026-05-01T12:56:05.957Z</time></trkpt><trkpt lat="43.800654032514245" lon="12.25661762017804"><ele>574.5</ele><time>2026-05-01T12:56:06.957Z</time></trkpt><trkpt lat="43.8006022428217" lon="12.25647061007937"><ele>573.75</ele><time>2026-05-01T12:56:07.957Z</time></trkpt><trkpt lat="43.80052684933774" lon="12.256356021992266"><ele>573.0</ele><time>2026-05-01T12:56:08.957Z</time></trkpt><trkpt lat="43.800415666376885" lon="12.256261134450392"><ele>574.6666666666666</ele><time>2026-05-01T12:56:09.957Z</time></trkpt><trkpt lat="43.800265671006954" lon="12.256209402185217"><ele>576.3333333333333</ele><time>2026-05-01T12:56:10.957Z</time></trkpt><trkpt lat="43.80007643389191" lon="12.256176073494359"><ele>578.0</ele><time>2026-05-01T12:56:11.957Z</time></trkpt><trkpt lat="43.799849398041886" lon="12.256146390328745"><ele>578.0</ele><time>2026-05-01T12:56:12.957Z</time></trkpt><trkpt lat="43.79964027538823" lon="12.256073266833988"><ele>578.0</ele><time>2026-05-01T12:56:13.957Z</time></trkpt><trkpt lat="43.799427645620085" lon="12.255919628502427"><ele>579.0</ele><time>2026-05-01T12:56:14.957Z</time></trkpt><trkpt lat="43.79920596236078" lon="12.255752983365127"><ele>580.0</ele><time>2026-05-01T12:56:15.957Z</time></trkpt><trkpt lat="43.798980160230954" lon="12.255608577753305"><ele>580.0</ele><time>2026-05-01T12:56:16.957Z</time></trkpt><trkpt lat="43.79878308140788" lon="12.255455689279353"><ele>580.0</ele><time>2026-05-01T12:56:17.957Z</time></trkpt><trkpt lat="43.7986168737726" lon="12.255330746780663"><ele>580.0</ele><time>2026-05-01T12:56:18.957Z</time></trkpt><trkpt lat="43.79849870093072" lon="12.255188129795078"><ele>583.25</ele><time>2026-05-01T12:56:19.957Z</time></trkpt><trkpt lat="43.798407205449834" lon="12.255041074382676"><ele>586.5</ele><time>2026-05-01T12:56:20.957Z</time></trkpt><trkpt lat="43.79835378613233" lon="12.254881900688288"><ele>589.75</ele><time>2026-05-01T12:56:21.957Z</time></trkpt><trkpt lat="43.79831547796732" lon="12.254694936479796"><ele>593.0</ele><time>2026-05-01T12:56:22.957Z</time></trkpt><trkpt lat="43.798262834423525" lon="12.25449585024344"><ele>593.0</ele><time>2026-05-01T12:56:23.957Z</time></trkpt><trkpt lat="43.79819492136974" lon="12.254343511676648"><ele>593.0</ele><time>2026-05-01T12:56:24.957Z</time></trkpt><trkpt lat="43.798104274115026" lon="12.254229889431004"><ele>593.0</ele><time>2026-05-01T12:56:25.957Z</time></trkpt><trkpt lat="43.797972624938474" lon="12.254152976399444"><ele>593.0</ele><time>2026-05-01T12:56:26.957Z</time></trkpt><trkpt lat="43.79781230183768" lon="12.25411541819679"><ele>596.3333333333333</ele><time>2026-05-01T12:56:27.957Z</time></trkpt><trkpt lat="43.797624385220374" lon="12.254117788500741"><ele>599.6666666666666</ele><time>2026-05-01T12:56:28.957Z</time></trkpt><trkpt lat="43.7973989077365" lon="12.254131448155757"><ele>603.0</ele><time>2026-05-01T12:56:29.957Z</time></trkpt><trkpt lat="43.79717954142015" lon="12.254111830144753"><ele>603.0</ele><time>2026-05-01T12:56:30.957Z</time></trkpt><trkpt lat="43.79697025710978" lon="12.25409633213347"><ele>603.0</ele><time>2026-05-01T12:56:31.957Z</time></trkpt><trkpt lat="43.79677679908761" lon="12.254073387528722"><ele>603.0</ele><time>2026-05-01T12:56:32.957Z</time></trkpt><trkpt lat="43.796582245612974" lon="12.25403279558169"><ele>602.6666666666666</ele><time>2026-05-01T12:56:33.957Z</time></trkpt><trkpt lat="43.796401441755734" lon="12.25398826731003"><ele>602.3333333333333</ele><time>2026-05-01T12:56:34.957Z</time></trkpt><trkpt lat="43.79623860610179" lon="12.253960780643382"><ele>602.0</ele><time>2026-05-01T12:56:35.957Z</time></trkpt><trkpt lat="43.79611279007712" lon="12.253889568409784"><ele>602.0</ele><time>2026-05-01T12:56:36.957Z</time></trkpt><trkpt lat="43.79604001915808" lon="12.253785386819928"><ele>602.0</ele><time>2026-05-01T12:56:37.957Z</time></trkpt><trkpt lat="43.796013041434534" lon="12.25365683322907"><ele>602.0</ele><time>2026-05-01T12:56:38.957Z</time></trkpt><trkpt lat="43.7959862490484" lon="12.253490007438273"><ele>602.0</ele><time>2026-05-01T12:56:39.957Z</time></trkpt><trkpt lat="43.795953909682396" lon="12.253270977228746"><ele>608.3333333333333</ele><time>2026-05-01T12:56:40.957Z</time></trkpt><trkpt lat="43.795919178625354" lon="12.253006255212991"><ele>614.6666666666666</ele><time>2026-05-01T12:56:41.957Z</time></trkpt><trkpt lat="43.79589803333344" lon="12.252732613847009"><ele>621.0</ele><time>2026-05-01T12:56:42.957Z</time></trkpt><trkpt lat="43.79589450506873" lon="12.25243473287109"><ele>622.5</ele><time>2026-05-01T12:56:43.957Z</time></trkpt><trkpt lat="43.79586996897412" lon="12.252119228379836"><ele>624.0</ele><time>2026-05-01T12:56:44.957Z</time></trkpt><trkpt lat="43.79583560472502" lon="12.251773550839435"><ele>624.5</ele><time>2026-05-01T12:56:45.957Z</time></trkpt><trkpt lat="43.79577094043731" lon="12.251448370757718"><ele>625.0</ele><time>2026-05-01T12:56:46.957Z</time></trkpt><trkpt lat="43.795748232774606" lon="12.251138267701299"><ele>625.0</ele><time>2026-05-01T12:56:47.957Z</time></trkpt><trkpt lat="43.795776039163336" lon="12.250805301045203"><ele>625.0</ele><time>2026-05-01T12:56:48.957Z</time></trkpt><trkpt lat="43.79578314737269" lon="12.250433379397832"><ele>630.0</ele><time>2026-05-01T12:56:49.957Z</time></trkpt><trkpt lat="43.79581208985394" lon="12.250044587670885"><ele>635.0</ele><time>2026-05-01T12:56:50.957Z</time></trkpt><trkpt lat="43.79582670029993" lon="12.249670622709058"><ele>637.0</ele><time>2026-05-01T12:56:51.957Z</time></trkpt><trkpt lat="43.79583681407987" lon="12.24935274314017"><ele>639.0</ele><time>2026-05-01T12:56:52.957Z</time></trkpt><trkpt lat="43.7958605819734" lon="12.249052919485681"><ele>641.0</ele><time>2026-05-01T12:56:53.957Z</time></trkpt><trkpt lat="43.79591214282222" lon="12.248755773856598"><ele>638.6666666666666</ele><time>2026-05-01T12:56:54.957Z</time></trkpt><trkpt lat="43.79595101932355" lon="12.248477257793565"><ele>636.3333333333334</ele><time>2026-05-01T12:56:55.957Z</time></trkpt><trkpt lat="43.795982371356764" lon="12.248289057640259"><ele>634.0</ele><time>2026-05-01T12:56:56.957Z</time></trkpt><trkpt lat="43.79606066128816" lon="12.248157592216845"><ele>644.0</ele><time>2026-05-01T12:56:57.957Z</time></trkpt><trkpt lat="43.79615685818907" lon="12.248056727821778"><ele>654.0</ele><time>2026-05-01T12:56:58.957Z</time></trkpt><trkpt lat="43.796305768966" lon="12.247941795093498"><ele>664.0</ele><time>2026-05-01T12:56:59.957Z</time></trkpt><trkpt lat="43.79649141413714" lon="12.247809844455226"><ele>664.0</ele><time>2026-05-01T12:57:00.957Z</time></trkpt><trkpt lat="43.796711194296726" lon="12.247660801930387"><ele>664.0</ele><time>2026-05-01T12:57:01.957Z</time></trkpt><trkpt lat="43.79691627332145" lon="12.247555587716047"><ele>658.6666666666667</ele><time>2026-05-01T12:57:02.957Z</time></trkpt><trkpt lat="43.79710180582538" lon="12.247456177203944"><ele>653.3333333333334</ele><time>2026-05-01T12:57:03.957Z</time></trkpt><trkpt lat="43.79723256966897" lon="12.247386871310747"><ele>648.0</ele><time>2026-05-01T12:57:04.957Z</time></trkpt><trkpt lat="43.79733253176546" lon="12.24731988666511"><ele>650.25</ele><time>2026-05-01T12:57:05.957Z</time></trkpt><trkpt lat="43.79740806493707" lon="12.247200388522918"><ele>652.5</ele><time>2026-05-01T12:57:06.957Z</time></trkpt><trkpt lat="43.7974402635823" lon="12.24702499848035"><ele>654.75</ele><time>2026-05-01T12:57:07.957Z</time></trkpt><trkpt lat="43.79743485905969" lon="12.246810750843219"><ele>657.0</ele><time>2026-05-01T12:57:08.957Z</time></trkpt><trkpt lat="43.79740722646091" lon="12.246608233158183"><ele>653.6666666666666</ele><time>2026-05-01T12:57:09.957Z</time></trkpt><trkpt lat="43.79730522170328" lon="12.246437872711374"><ele>650.3333333333333</ele><time>2026-05-01T12:57:10.957Z</time></trkpt><trkpt lat="43.79719771754625" lon="12.246307040221042"><ele>647.0</ele><time>2026-05-01T12:57:11.957Z</time></trkpt><trkpt lat="43.79705803397318" lon="12.246226088220203"><ele>647.0</ele><time>2026-05-01T12:57:12.957Z</time></trkpt><trkpt lat="43.796938022774825" lon="12.246121459494528"><ele>647.0</ele><time>2026-05-01T12:57:13.957Z</time></trkpt><trkpt lat="43.79685983496378" lon="12.245991545719479"><ele>647.0</ele><time>2026-05-01T12:57:14.957Z</time></trkpt><trkpt lat="43.79685691317541" lon="12.245817121845178"><ele>647.0</ele><time>2026-05-01T12:57:15.957Z</time></trkpt><trkpt lat="43.796897275089" lon="12.245607228244554"><ele>645.75</ele><time>2026-05-01T12:57:16.957Z</time></trkpt><trkpt lat="43.7969389612911" lon="12.24539081664275"><ele>644.5</ele><time>2026-05-01T12:57:17.956Z</time></trkpt><trkpt lat="43.796993744169804" lon="12.245220423853672"><ele>643.25</ele><time>2026-05-01T12:57:18.957Z</time></trkpt><trkpt lat="43.796964194774034" lon="12.245073822094685"><ele>642.0</ele><time>2026-05-01T12:57:19.957Z</time></trkpt><trkpt lat="43.796922879628426" lon="12.244929726445898"><ele>644.5</ele><time>2026-05-01T12:57:20.957Z</time></trkpt><trkpt lat="43.79683157912236" lon="12.244812275652732"><ele>647.0</ele><time>2026-05-01T12:57:21.957Z</time></trkpt><trkpt lat="43.796713798082884" lon="12.244741510488751"><ele>649.5</ele><time>2026-05-01T12:57:22.957Z</time></trkpt><trkpt lat="43.79655430191246" lon="12.244706587971532"><ele>652.0</ele><time>2026-05-01T12:57:23.957Z</time></trkpt><trkpt lat="43.79635844431906" lon="12.24468023410087"><ele>652.0</ele><time>2026-05-01T12:57:24.957Z</time></trkpt><trkpt lat="43.79617682391071" lon="12.244575274865642"><ele>652.0</ele><time>2026-05-01T12:57:25.957Z</time></trkpt><trkpt lat="43.795968568324994" lon="12.244422163592898"><ele>652.0</ele><time>2026-05-01T12:57:26.957Z</time></trkpt><trkpt lat="43.79574129915861" lon="12.244315049540845"><ele>663.5</ele><time>2026-05-01T12:57:27.957Z</time></trkpt><trkpt lat="43.79548315591559" lon="12.244205572683931"><ele>675.0</ele><time>2026-05-01T12:57:28.957Z</time></trkpt><trkpt lat="43.79522003898043" lon="12.244114051942393"><ele>676.0</ele><time>2026-05-01T12:57:29.957Z</time></trkpt><trkpt lat="43.79498387022512" lon="12.244026860396653"><ele>677.0</ele><time>2026-05-01T12:57:30.956Z</time></trkpt><trkpt lat="43.79478631760106" lon="12.243934557198513"><ele>677.0</ele><time>2026-05-01T12:57:31.956Z</time></trkpt><trkpt lat="43.79463262266202" lon="12.243856473910206"><ele>677.0</ele><time>2026-05-01T12:57:32.956Z</time></trkpt><trkpt lat="43.794517521696854" lon="12.243765071178641"><ele>677.0</ele><time>2026-05-01T12:57:33.956Z</time></trkpt><trkpt lat="43.794433927034675" lon="12.243632472181352"><ele>677.0</ele><time>2026-05-01T12:57:34.956Z</time></trkpt><trkpt lat="43.79442403697508" lon="12.243448279477894"><ele>677.0</ele><time>2026-05-01T12:57:35.955Z</time></trkpt><trkpt lat="43.7944338269592" lon="12.243271307902374"><ele>677.0</ele><time>2026-05-01T12:57:36.954Z</time></trkpt><trkpt lat="43.794444707556885" lon="12.243038084473461"><ele>677.0</ele><time>2026-05-01T12:57:37.954Z</time></trkpt><trkpt lat="43.79445299466362" lon="12.242792308460153"><ele>676.75</ele><time>2026-05-01T12:57:38.953Z</time></trkpt><trkpt lat="43.79443140139298" lon="12.242601613330532"><ele>676.5</ele><time>2026-05-01T12:57:39.953Z</time></trkpt><trkpt lat="43.79439422148456" lon="12.242452037970164"><ele>676.25</ele><time>2026-05-01T12:57:40.952Z</time></trkpt><trkpt lat="43.79430767247993" lon="12.242325039051927"><ele>676.0</ele><time>2026-05-01T12:57:41.952Z</time></trkpt><trkpt lat="43.79416611332341" lon="12.24220378870817"><ele>684.3333333333334</ele><time>2026-05-01T12:57:42.951Z</time></trkpt><trkpt lat="43.79400580828543" lon="12.242057003336402"><ele>692.6666666666666</ele><time>2026-05-01T12:57:43.951Z</time></trkpt><trkpt lat="43.79387032461921" lon="12.241866797679755"><ele>701.0</ele><time>2026-05-01T12:57:44.95Z</time></trkpt><trkpt lat="43.79377082460661" lon="12.241688812334978"><ele>701.0</ele><time>2026-05-01T12:57:45.95Z</time></trkpt><trkpt lat="43.7937281631301" lon="12.241474216881533"><ele>701.0</ele><time>2026-05-01T12:57:46.949Z</time></trkpt><trkpt lat="43.79367946465753" lon="12.241235135683393"><ele>701.0</ele><time>2026-05-01T12:57:47.949Z</time></trkpt><trkpt lat="43.79364227895626" lon="12.241017193032166"><ele>702.0</ele><time>2026-05-01T12:57:48.949Z</time></trkpt><trkpt lat="43.7936793463507" lon="12.240873069631098"><ele>703.0</ele><time>2026-05-01T12:57:49.949Z</time></trkpt><trkpt lat="43.79374283157598" lon="12.240772680692167"><ele>704.0</ele><time>2026-05-01T12:57:50.948Z</time></trkpt><trkpt lat="43.79379840304903" lon="12.240659750179534"><ele>705.0</ele><time>2026-05-01T12:57:51.948Z</time></trkpt><trkpt lat="43.7938127182816" lon="12.240542383878127"><ele>706.0</ele><time>2026-05-01T12:57:52.948Z</time></trkpt><trkpt lat="43.79378549427552" lon="12.24044111583137"><ele>710.0</ele><time>2026-05-01T12:57:53.948Z</time></trkpt><trkpt lat="43.793633061869016" lon="12.240396823603904"><ele>714.0</ele><time>2026-05-01T12:57:55.947Z</time></trkpt><trkpt lat="43.79351188244276" lon="12.240456487007911"><ele>718.0</ele><time>2026-05-01T12:57:56.947Z</time></trkpt><trkpt lat="43.79338299031609" lon="12.240574587456587"><ele>722.0</ele><time>2026-05-01T12:57:57.947Z</time></trkpt><trkpt lat="43.79322299027102" lon="12.240683266945831"><ele>722.3333333333333</ele><time>2026-05-01T12:57:58.947Z</time></trkpt><trkpt lat="43.793057799184034" lon="12.240806139051616"><ele>722.6666666666666</ele><time>2026-05-01T12:57:59.946Z</time></trkpt><trkpt lat="43.79292979827711" lon="12.240939678566198"><ele>723.0</ele><time>2026-05-01T12:58:00.946Z</time></trkpt><trkpt lat="43.79283461350567" lon="12.241073700692048"><ele>723.0</ele><time>2026-05-01T12:58:01.946Z</time></trkpt><trkpt lat="43.79279211663164" lon="12.241261969118872"><ele>723.0</ele><time>2026-05-01T12:58:02.946Z</time></trkpt><trkpt lat="43.79278798847449" lon="12.24150447615599"><ele>723.0</ele><time>2026-05-01T12:58:03.946Z</time></trkpt><trkpt lat="43.792821244087854" lon="12.241751498116368"><ele>721.75</ele><time>2026-05-01T12:58:04.946Z</time></trkpt><trkpt lat="43.792860445236876" lon="12.241977376505789"><ele>720.5</ele><time>2026-05-01T12:58:05.946Z</time></trkpt><trkpt lat="43.792907865841684" lon="12.242166008393204"><ele>719.25</ele><time>2026-05-01T12:58:06.946Z</time></trkpt><trkpt lat="43.79296281554683" lon="12.24231530082332"><ele>718.0</ele><time>2026-05-01T12:58:07.945Z</time></trkpt><trkpt lat="43.79309911764611" lon="12.242405180751733"><ele>720.75</ele><time>2026-05-01T12:58:08.945Z</time></trkpt><trkpt lat="43.79324395399845" lon="12.242508481974923"><ele>723.5</ele><time>2026-05-01T12:58:09.945Z</time></trkpt><trkpt lat="43.79337354526668" lon="12.242552750666508"><ele>726.25</ele><time>2026-05-01T12:58:10.945Z</time></trkpt><trkpt lat="43.79343075332853" lon="12.24263039061864"><ele>729.0</ele><time>2026-05-01T12:58:11.945Z</time></trkpt><trkpt lat="43.79340293537939" lon="12.242774404314545"><ele>729.0</ele><time>2026-05-01T12:58:12.945Z</time></trkpt><trkpt lat="43.793331562415574" lon="12.242848415893075"><ele>729.0</ele><time>2026-05-01T12:58:13.945Z</time></trkpt><trkpt lat="43.79325364293053" lon="12.242941071288618"><ele>729.0</ele><time>2026-05-01T12:58:14.945Z</time></trkpt><trkpt lat="43.79316341794214" lon="12.243107030677251"><ele>729.0</ele><time>2026-05-01T12:58:15.945Z</time></trkpt><trkpt lat="43.79312383659737" lon="12.243318539317304"><ele>730.6666666666666</ele><time>2026-05-01T12:58:16.945Z</time></trkpt><trkpt lat="43.79310527045683" lon="12.24350230497937"><ele>732.3333333333333</ele><time>2026-05-01T12:58:17.945Z</time></trkpt><trkpt lat="43.79315184309619" lon="12.243701361499687"><ele>734.0</ele><time>2026-05-01T12:58:18.945Z</time></trkpt><trkpt lat="43.79324308259797" lon="12.243893588991856"><ele>735.5</ele><time>2026-05-01T12:58:19.945Z</time></trkpt><trkpt lat="43.793329953770154" lon="12.244055801662652"><ele>737.0</ele><time>2026-05-01T12:58:20.945Z</time></trkpt><trkpt lat="43.79335071758771" lon="12.244207043528633"><ele>738.5</ele><time>2026-05-01T12:58:21.945Z</time></trkpt><trkpt lat="43.793299994825894" lon="12.244326304080145"><ele>740.0</ele><time>2026-05-01T12:58:22.945Z</time></trkpt><trkpt lat="43.79319368733656" lon="12.244462567967062"><ele>740.0</ele><time>2026-05-01T12:58:23.944Z</time></trkpt><trkpt lat="43.793066040520046" lon="12.244677966736832"><ele>740.0</ele><time>2026-05-01T12:58:24.944Z</time></trkpt><trkpt lat="43.792924397320185" lon="12.24492415101303"><ele>740.0</ele><time>2026-05-01T12:58:25.944Z</time></trkpt><trkpt lat="43.79277833845694" lon="12.245186634906197"><ele>745.3333333333333</ele><time>2026-05-01T12:58:26.944Z</time></trkpt><trkpt lat="43.79263208789881" lon="12.245437417857604"><ele>750.6666666666666</ele><time>2026-05-01T12:58:27.944Z</time></trkpt><trkpt lat="43.792500232443366" lon="12.245627434923051"><ele>756.0</ele><time>2026-05-01T12:58:28.944Z</time></trkpt><trkpt lat="43.79242065874247" lon="12.245754083758952"><ele>756.0</ele><time>2026-05-01T12:58:29.944Z</time></trkpt><trkpt lat="43.79233709921515" lon="12.245818457475378"><ele>756.0</ele><time>2026-05-01T12:58:30.944Z</time></trkpt><trkpt lat="43.79222305314581" lon="12.245833981395627"><ele>756.0</ele><time>2026-05-01T12:58:31.944Z</time></trkpt><trkpt lat="43.79214260242803" lon="12.245791641864674"><ele>756.0</ele><time>2026-05-01T12:58:32.944Z</time></trkpt><trkpt lat="43.792069594641774" lon="12.245667015285846"><ele>756.0</ele><time>2026-05-01T12:58:33.944Z</time></trkpt><trkpt lat="43.79206080709035" lon="12.245455041019149"><ele>758.3333333333334</ele><time>2026-05-01T12:58:34.944Z</time></trkpt><trkpt lat="43.79209395215688" lon="12.24527179496788"><ele>760.6666666666667</ele><time>2026-05-01T12:58:35.944Z</time></trkpt><trkpt lat="43.79216406532867" lon="12.24509351265001"><ele>763.0</ele><time>2026-05-01T12:58:36.944Z</time></trkpt><trkpt lat="43.7922860858873" lon="12.244911935674565"><ele>764.0</ele><time>2026-05-01T12:58:37.944Z</time></trkpt><trkpt lat="43.79239966653612" lon="12.24472760015023"><ele>765.0</ele><time>2026-05-01T12:58:38.944Z</time></trkpt><trkpt lat="43.792492778871164" lon="12.244609105343955"><ele>766.0</ele><time>2026-05-01T12:58:39.944Z</time></trkpt><trkpt lat="43.79254514685916" lon="12.244497843860074"><ele>767.0</ele><time>2026-05-01T12:58:40.944Z</time></trkpt><trkpt lat="43.792567614884746" lon="12.244375184754285"><ele>767.0</ele><time>2026-05-01T12:58:41.944Z</time></trkpt><trkpt lat="43.792540206736284" lon="12.244255700993481"><ele>767.0</ele><time>2026-05-01T12:58:42.944Z</time></trkpt><trkpt lat="43.79248262607375" lon="12.244171211373855"><ele>767.0</ele><time>2026-05-01T12:58:43.944Z</time></trkpt><trkpt lat="43.79239932772476" lon="12.24412021882601"><ele>767.0</ele><time>2026-05-01T12:58:44.944Z</time></trkpt><trkpt lat="43.79230634248279" lon="12.244131201801046"><ele>767.0</ele><time>2026-05-01T12:58:45.944Z</time></trkpt><trkpt lat="43.79224398407134" lon="12.244200640406115"><ele>767.0</ele><time>2026-05-01T12:58:46.944Z</time></trkpt><trkpt lat="43.79215402303411" lon="12.244310176168026"><ele>767.0</ele><time>2026-05-01T12:58:47.944Z</time></trkpt><trkpt lat="43.79204821776458" lon="12.244479233435609"><ele>767.0</ele><time>2026-05-01T12:58:48.944Z</time></trkpt><trkpt lat="43.791927053666804" lon="12.244690940501298"><ele>767.0</ele><time>2026-05-01T12:58:49.944Z</time></trkpt><trkpt lat="43.7918162037418" lon="12.244929339749287"><ele>773.0</ele><time>2026-05-01T12:58:50.944Z</time></trkpt><trkpt lat="43.79170489903558" lon="12.245186040887107"><ele>779.0</ele><time>2026-05-01T12:58:51.944Z</time></trkpt><trkpt lat="43.791578681447135" lon="12.245471124809582"><ele>777.0</ele><time>2026-05-01T12:58:52.944Z</time></trkpt><trkpt lat="43.79147379225406" lon="12.24569828718689"><ele>775.0</ele><time>2026-05-01T12:58:53.944Z</time></trkpt><trkpt lat="43.79137166734222" lon="12.245906140695455"><ele>773.0</ele><time>2026-05-01T12:58:54.944Z</time></trkpt><trkpt lat="43.79125793124083" lon="12.24607289608535"><ele>773.0</ele><time>2026-05-01T12:58:55.944Z</time></trkpt><trkpt lat="43.7911065224941" lon="12.246222457915762"><ele>773.0</ele><time>2026-05-01T12:58:56.944Z</time></trkpt><trkpt lat="43.79091425447965" lon="12.246412362318623"><ele>773.0</ele><time>2026-05-01T12:58:57.944Z</time></trkpt><trkpt lat="43.79071651630677" lon="12.246633646765856"><ele>777.5</ele><time>2026-05-01T12:58:58.944Z</time></trkpt><trkpt lat="43.7905225605834" lon="12.246866968719916"><ele>782.0</ele><time>2026-05-01T12:58:59.944Z</time></trkpt><trkpt lat="43.790340328169165" lon="12.247090739023427"><ele>780.0</ele><time>2026-05-01T12:59:00.944Z</time></trkpt><trkpt lat="43.79019368597342" lon="12.247310756867307"><ele>778.0</ele><time>2026-05-01T12:59:01.944Z</time></trkpt><trkpt lat="43.790042070575396" lon="12.247489408987969"><ele>776.0</ele><time>2026-05-01T12:59:02.944Z</time></trkpt><trkpt lat="43.78991170490194" lon="12.247630342656882"><ele>780.0</ele><time>2026-05-01T12:59:03.944Z</time></trkpt><trkpt lat="43.78976221622076" lon="12.247702698013102"><ele>784.0</ele><time>2026-05-01T12:59:04.944Z</time></trkpt><trkpt lat="43.78962315316788" lon="12.247741478652642"><ele>788.0</ele><time>2026-05-01T12:59:05.944Z</time></trkpt><trkpt lat="43.78947524642981" lon="12.247716162492319"><ele>792.0</ele><time>2026-05-01T12:59:06.944Z</time></trkpt><trkpt lat="43.78929387459047" lon="12.247665892574215"><ele>795.0</ele><time>2026-05-01T12:59:07.944Z</time></trkpt><trkpt lat="43.78908141645989" lon="12.247588402557584"><ele>798.0</ele><time>2026-05-01T12:59:08.944Z</time></trkpt><trkpt lat="43.78887060266221" lon="12.247500801195901"><ele>801.0</ele><time>2026-05-01T12:59:09.944Z</time></trkpt><trkpt lat="43.78866729746301" lon="12.247373538864052"><ele>806.5</ele><time>2026-05-01T12:59:10.944Z</time></trkpt><trkpt lat="43.7884630453262" lon="12.247212691764448"><ele>812.0</ele><time>2026-05-01T12:59:11.944Z</time></trkpt><trkpt lat="43.78824261760768" lon="12.247023609175047"><ele>812.0</ele><time>2026-05-01T12:59:12.944Z</time></trkpt><trkpt lat="43.78803261391596" lon="12.246840609468768"><ele>812.0</ele><time>2026-05-01T12:59:13.944Z</time></trkpt><trkpt lat="43.787841210326164" lon="12.246676229695877"><ele>813.3333333333334</ele><time>2026-05-01T12:59:14.944Z</time></trkpt><trkpt lat="43.78766738109993" lon="12.246566782546472"><ele>814.6666666666667</ele><time>2026-05-01T12:59:15.944Z</time></trkpt><trkpt lat="43.78750901382014" lon="12.246481469437178"><ele>816.0</ele><time>2026-05-01T12:59:16.944Z</time></trkpt><trkpt lat="43.787318897436954" lon="12.246449255359494"><ele>816.0</ele><time>2026-05-01T12:59:17.944Z</time></trkpt><trkpt lat="43.78711285735537" lon="12.246460731466298"><ele>816.0</ele><time>2026-05-01T12:59:18.944Z</time></trkpt><trkpt lat="43.78691740609137" lon="12.246484244541163"><ele>816.0</ele><time>2026-05-01T12:59:19.944Z</time></trkpt><trkpt lat="43.78675232573851" lon="12.24643262982942"><ele>822.3333333333333</ele><time>2026-05-01T12:59:20.944Z</time></trkpt><trkpt lat="43.78658009622053" lon="12.246333605319252"><ele>828.6666666666666</ele><time>2026-05-01T12:59:21.944Z</time></trkpt><trkpt lat="43.78637838302863" lon="12.246206071374427"><ele>835.0</ele><time>2026-05-01T12:59:22.944Z</time></trkpt><trkpt lat="43.786170044697855" lon="12.246066848742858"><ele>832.6666666666666</ele><time>2026-05-01T12:59:23.944Z</time></trkpt><trkpt lat="43.78600386739629" lon="12.245950933027768"><ele>830.3333333333333</ele><time>2026-05-01T12:59:24.944Z</time></trkpt><trkpt lat="43.785856502184515" lon="12.245857114287833"><ele>828.0</ele><time>2026-05-01T12:59:25.944Z</time></trkpt><trkpt lat="43.785709627191906" lon="12.245803632568352"><ele>828.0</ele><time>2026-05-01T12:59:26.944Z</time></trkpt><trkpt lat="43.78557175178502" lon="12.245794612479804"><ele>828.0</ele><time>2026-05-01T12:59:27.945Z</time></trkpt><trkpt lat="43.78539414635808" lon="12.245848779755192"><ele>828.0</ele><time>2026-05-01T12:59:28.944Z</time></trkpt><trkpt lat="43.785207751422426" lon="12.245993921839991"><ele>831.0</ele><time>2026-05-01T12:59:29.944Z</time></trkpt><trkpt lat="43.78501424702238" lon="12.246148134042125"><ele>834.0</ele><time>2026-05-01T12:59:30.944Z</time></trkpt><trkpt lat="43.78480651722088" lon="12.246297119292484"><ele>834.0</ele><time>2026-05-01T12:59:31.944Z</time></trkpt><trkpt lat="43.784575965915934" lon="12.246430108310204"><ele>834.0</ele><time>2026-05-01T12:59:32.944Z</time></trkpt><trkpt lat="43.784368138130986" lon="12.246549223523473"><ele>833.6666666666667</ele><time>2026-05-01T12:59:33.944Z</time></trkpt><trkpt lat="43.78420084318368" lon="12.246660156563566"><ele>833.3333333333334</ele><time>2026-05-01T12:59:34.944Z</time></trkpt><trkpt lat="43.78406046130909" lon="12.246830243469656"><ele>833.0</ele><time>2026-05-01T12:59:35.944Z</time></trkpt><trkpt lat="43.78390502409902" lon="12.24705735857255"><ele>831.6666666666667</ele><time>2026-05-01T12:59:36.944Z</time></trkpt><trkpt lat="43.78374775441307" lon="12.247302511319516"><ele>830.3333333333333</ele><time>2026-05-01T12:59:37.944Z</time></trkpt><trkpt lat="43.78360593639715" lon="12.247520854850112"><ele>829.0</ele><time>2026-05-01T12:59:38.944Z</time></trkpt><trkpt lat="43.783477248645006" lon="12.247717837412866"><ele>829.0</ele><time>2026-05-01T12:59:39.944Z</time></trkpt><trkpt lat="43.7833468887079" lon="12.247908344912187"><ele>829.0</ele><time>2026-05-01T12:59:40.944Z</time></trkpt><trkpt lat="43.783226354409614" lon="12.248092463711103"><ele>829.0</ele><time>2026-05-01T12:59:41.944Z</time></trkpt><trkpt lat="43.78310587382635" lon="12.248273616205687"><ele>830.0</ele><time>2026-05-01T12:59:42.944Z</time></trkpt><trkpt lat="43.78298137889419" lon="12.248465489569131"><ele>831.0</ele><time>2026-05-01T12:59:43.944Z</time></trkpt><trkpt lat="43.782853284101435" lon="12.248675337898588"><ele>832.0</ele><time>2026-05-01T12:59:44.944Z</time></trkpt><trkpt lat="43.78271860478731" lon="12.248904343676191"><ele>832.6666666666666</ele><time>2026-05-01T12:59:45.944Z</time></trkpt><trkpt lat="43.78257256153189" lon="12.249142526990799"><ele>833.3333333333333</ele><time>2026-05-01T12:59:46.944Z</time></trkpt><trkpt lat="43.78242402615859" lon="12.249358634243292"><ele>834.0</ele><time>2026-05-01T12:59:47.944Z</time></trkpt><trkpt lat="43.78227728080598" lon="12.249532341541977"><ele>834.0</ele><time>2026-05-01T12:59:48.944Z</time></trkpt><trkpt lat="43.78214995351412" lon="12.249677384218918"><ele>834.0</ele><time>2026-05-01T12:59:49.944Z</time></trkpt><trkpt lat="43.78204859498717" lon="12.249820111655005"><ele>834.0</ele><time>2026-05-01T12:59:50.944Z</time></trkpt><trkpt lat="43.78197068787127" lon="12.249990798956466"><ele>837.0</ele><time>2026-05-01T12:59:51.944Z</time></trkpt><trkpt lat="43.781927315097235" lon="12.250200125132997"><ele>840.0</ele><time>2026-05-01T12:59:52.944Z</time></trkpt><trkpt lat="43.78189894723443" lon="12.250431207863919"><ele>843.0</ele><time>2026-05-01T12:59:53.944Z</time></trkpt><trkpt lat="43.78186757880236" lon="12.250643886067472"><ele>840.75</ele><time>2026-05-01T12:59:54.944Z</time></trkpt><trkpt lat="43.78182848813552" lon="12.250840922508035"><ele>838.5</ele><time>2026-05-01T12:59:55.944Z</time></trkpt><trkpt lat="43.781756199418666" lon="12.250997396208104"><ele>836.25</ele><time>2026-05-01T12:59:56.944Z</time></trkpt><trkpt lat="43.78171738017024" lon="12.251159997074083"><ele>834.0</ele><time>2026-05-01T12:59:57.944Z</time></trkpt><trkpt lat="43.7816548754303" lon="12.251309725557324"><ele>835.5</ele><time>2026-05-01T12:59:58.944Z</time></trkpt><trkpt lat="43.78160477987071" lon="12.2514596598862"><ele>837.0</ele><time>2026-05-01T12:59:59.944Z</time></trkpt><trkpt lat="43.78156603649534" lon="12.251612217744539"><ele>838.5</ele><time>2026-05-01T13:00:00.944Z</time></trkpt><trkpt lat="43.78152858376095" lon="12.251767868662077"><ele>840.0</ele><time>2026-05-01T13:00:01.944Z</time></trkpt><trkpt lat="43.781495324778646" lon="12.251942494043487"><ele>840.0</ele><time>2026-05-01T13:00:02.944Z</time></trkpt><trkpt lat="43.78148473925969" lon="12.252139466670204"><ele>840.0</ele><time>2026-05-01T13:00:03.944Z</time></trkpt><trkpt lat="43.78148785603577" lon="12.252349615365688"><ele>840.0</ele><time>2026-05-01T13:00:04.944Z</time></trkpt><trkpt lat="43.781498093411145" lon="12.252545988770011"><ele>840.0</ele><time>2026-05-01T13:00:05.944Z</time></trkpt><trkpt lat="43.78152066373946" lon="12.252727919714724"><ele>840.0</ele><time>2026-05-01T13:00:06.944Z</time></trkpt><trkpt lat="43.781528071767966" lon="12.252914001726753"><ele>840.0</ele><time>2026-05-01T13:00:07.944Z</time></trkpt><trkpt lat="43.78150784555141" lon="12.253101683986262"><ele>840.0</ele><time>2026-05-01T13:00:08.944Z</time></trkpt><trkpt lat="43.78142625597246" lon="12.253274176287642"><ele>840.0</ele><time>2026-05-01T13:00:09.944Z</time></trkpt><trkpt lat="43.78133459999473" lon="12.253453879921441"><ele>840.0</ele><time>2026-05-01T13:00:10.944Z</time></trkpt><trkpt lat="43.781220779635476" lon="12.253647585383497"><ele>840.0</ele><time>2026-05-01T13:00:11.944Z</time></trkpt><trkpt lat="43.78109543497556" lon="12.253869425511462"><ele>840.0</ele><time>2026-05-01T13:00:12.944Z</time></trkpt><trkpt lat="43.78099161935191" lon="12.254086367079958"><ele>836.6666666666667</ele><time>2026-05-01T13:00:13.944Z</time></trkpt><trkpt lat="43.78088667781414" lon="12.254276514774382"><ele>833.3333333333334</ele><time>2026-05-01T13:00:14.944Z</time></trkpt><trkpt lat="43.78078997624145" lon="12.254458318408291"><ele>830.0</ele><time>2026-05-01T13:00:15.944Z</time></trkpt><trkpt lat="43.780700350616875" lon="12.254637334401659"><ele>831.3333333333334</ele><time>2026-05-01T13:00:16.944Z</time></trkpt><trkpt lat="43.780609954485136" lon="12.254819815060932"><ele>832.6666666666667</ele><time>2026-05-01T13:00:17.944Z</time></trkpt><trkpt lat="43.78052094966474" lon="12.255011203531215"><ele>834.0</ele><time>2026-05-01T13:00:18.944Z</time></trkpt><trkpt lat="43.780434445276356" lon="12.255199835197315"><ele>834.0</ele><time>2026-05-01T13:00:19.944Z</time></trkpt><trkpt lat="43.78034640797882" lon="12.255376077522266"><ele>834.0</ele><time>2026-05-01T13:00:20.944Z</time></trkpt><trkpt lat="43.78025151526162" lon="12.255533278686535"><ele>834.0</ele><time>2026-05-01T13:00:21.944Z</time></trkpt><trkpt lat="43.78015365511796" lon="12.255667880473444"><ele>834.0</ele><time>2026-05-01T13:00:22.944Z</time></trkpt><trkpt lat="43.78005094259784" lon="12.25578972624776"><ele>831.75</ele><time>2026-05-01T13:00:23.944Z</time></trkpt><trkpt lat="43.77994754395407" lon="12.255907363539421"><ele>829.5</ele><time>2026-05-01T13:00:24.944Z</time></trkpt><trkpt lat="43.77985062159712" lon="12.256022112268214"><ele>827.25</ele><time>2026-05-01T13:00:25.944Z</time></trkpt><trkpt lat="43.7797540494816" lon="12.25613271563432"><ele>825.0</ele><time>2026-05-01T13:00:26.944Z</time></trkpt><trkpt lat="43.77965113575778" lon="12.256226628827255"><ele>825.0</ele><time>2026-05-01T13:00:27.944Z</time></trkpt><trkpt lat="43.77957328309935" lon="12.256338366769022"><ele>825.0</ele><time>2026-05-01T13:00:28.944Z</time></trkpt><trkpt lat="43.779497005196525" lon="12.256450779456976"><ele>825.0</ele><time>2026-05-01T13:00:29.944Z</time></trkpt><trkpt lat="43.77941206761083" lon="12.25654952281135"><ele>825.0</ele><time>2026-05-01T13:00:30.944Z</time></trkpt><trkpt lat="43.779305655620334" lon="12.2566469417353"><ele>824.5</ele><time>2026-05-01T13:00:31.944Z</time></trkpt><trkpt lat="43.77918639036032" lon="12.256746973538837"><ele>824.0</ele><time>2026-05-01T13:00:32.944Z</time></trkpt><trkpt lat="43.77906565923429" lon="12.256840117243293"><ele>823.5</ele><time>2026-05-01T13:00:33.944Z</time></trkpt><trkpt lat="43.778961648346176" lon="12.256923025683832"><ele>823.0</ele><time>2026-05-01T13:00:34.944Z</time></trkpt><trkpt lat="43.77887514490358" lon="12.256985155263376"><ele>823.0</ele><time>2026-05-01T13:00:35.944Z</time></trkpt><trkpt lat="43.77878432902966" lon="12.257054928945172"><ele>823.0</ele><time>2026-05-01T13:00:37.944Z</time></trkpt><trkpt lat="43.77887670974018" lon="12.257009727273301"><ele>823.0</ele><time>2026-05-01T13:00:46.944Z</time></trkpt><trkpt lat="43.778952275397124" lon="12.256929490570707"><ele>823.0</ele><time>2026-05-01T13:00:47.944Z</time></trkpt><trkpt lat="43.77905018924026" lon="12.256846304554315"><ele>823.0</ele><time>2026-05-01T13:00:48.944Z</time></trkpt><trkpt lat="43.77919283252989" lon="12.256724704606656"><ele>823.6666666666666</ele><time>2026-05-01T13:00:49.944Z</time></trkpt><trkpt lat="43.77935825528554" lon="12.256589846042003"><ele>824.3333333333333</ele><time>2026-05-01T13:00:50.944Z</time></trkpt><trkpt lat="43.779551960329044" lon="12.256458265731958"><ele>825.0</ele><time>2026-05-01T13:00:51.944Z</time></trkpt><trkpt lat="43.77971248092347" lon="12.256226660955925"><ele>825.0</ele><time>2026-05-01T13:00:52.944Z</time></trkpt><trkpt lat="43.77987561199991" lon="12.256033998537998"><ele>825.0</ele><time>2026-05-01T13:00:53.944Z</time></trkpt><trkpt lat="43.78003943404198" lon="12.255849174787736"><ele>825.0</ele><time>2026-05-01T13:00:54.944Z</time></trkpt><trkpt lat="43.78021007524896" lon="12.255630183633142"><ele>829.5</ele><time>2026-05-01T13:00:55.944Z</time></trkpt><trkpt lat="43.78038277022934" lon="12.255356826749015"><ele>834.0</ele><time>2026-05-01T13:00:56.944Z</time></trkpt><trkpt lat="43.78053436270876" lon="12.255038439481694"><ele>832.0</ele><time>2026-05-01T13:00:57.944Z</time></trkpt><trkpt lat="43.78068249822659" lon="12.254726808183126"><ele>830.0</ele><time>2026-05-01T13:00:58.944Z</time></trkpt><trkpt lat="43.780804850468485" lon="12.254441415741157"><ele>830.0</ele><time>2026-05-01T13:00:59.944Z</time></trkpt><trkpt lat="43.78094750924292" lon="12.254214643433938"><ele>830.0</ele><time>2026-05-01T13:01:00.944Z</time></trkpt><trkpt lat="43.78106680826052" lon="12.25399724289464"><ele>830.0</ele><time>2026-05-01T13:01:01.944Z</time></trkpt><trkpt lat="43.78117957131593" lon="12.253763770357695"><ele>833.3333333333334</ele><time>2026-05-01T13:01:02.944Z</time></trkpt><trkpt lat="43.7813117501773" lon="12.253563495891106"><ele>836.6666666666667</ele><time>2026-05-01T13:01:03.944Z</time></trkpt><trkpt lat="43.78139851209004" lon="12.25337651273721"><ele>840.0</ele><time>2026-05-01T13:01:04.944Z</time></trkpt><trkpt lat="43.78148276086914" lon="12.253201240704318"><ele>839.3333333333333</ele><time>2026-05-01T13:01:05.944Z</time></trkpt><trkpt lat="43.78155140729439" lon="12.25301416711336"><ele>838.6666666666666</ele><time>2026-05-01T13:01:06.944Z</time></trkpt><trkpt lat="43.78154791808672" lon="12.25277991942467"><ele>838.0</ele><time>2026-05-01T13:01:07.944Z</time></trkpt><trkpt lat="43.78154325074986" lon="12.25253449294809"><ele>838.6666666666666</ele><time>2026-05-01T13:01:08.944Z</time></trkpt><trkpt lat="43.78151002921349" lon="12.25228079531763"><ele>839.3333333333333</ele><time>2026-05-01T13:01:09.944Z</time></trkpt><trkpt lat="43.78151336291047" lon="12.252055289515775"><ele>840.0</ele><time>2026-05-01T13:01:10.944Z</time></trkpt><trkpt lat="43.781532443418314" lon="12.251857506261786"><ele>840.0</ele><time>2026-05-01T13:01:11.944Z</time></trkpt><trkpt lat="43.7815765169755" lon="12.251663681995938"><ele>840.0</ele><time>2026-05-01T13:01:12.944Z</time></trkpt><trkpt lat="43.78163750520209" lon="12.25144513631588"><ele>840.0</ele><time>2026-05-01T13:01:13.944Z</time></trkpt><trkpt lat="43.78171625172212" lon="12.251216452670041"><ele>841.0</ele><time>2026-05-01T13:01:14.944Z</time></trkpt><trkpt lat="43.78180368671079" lon="12.250972756388293"><ele>842.0</ele><time>2026-05-01T13:01:15.944Z</time></trkpt><trkpt lat="43.78189037627044" lon="12.25071605368891"><ele>843.0</ele><time>2026-05-01T13:01:16.944Z</time></trkpt><trkpt lat="43.7819341968828" lon="12.250439794254154"><ele>843.0</ele><time>2026-05-01T13:01:17.944Z</time></trkpt><trkpt lat="43.78197846845135" lon="12.25020411528777"><ele>843.0</ele><time>2026-05-01T13:01:18.944Z</time></trkpt><trkpt lat="43.78201535352609" lon="12.250014946530415"><ele>843.0</ele><time>2026-05-01T13:01:19.944Z</time></trkpt><trkpt lat="43.78206469109903" lon="12.24986872721861"><ele>843.0</ele><time>2026-05-01T13:01:20.944Z</time></trkpt><trkpt lat="43.782134782826176" lon="12.249743925247602"><ele>840.0</ele><time>2026-05-01T13:01:21.944Z</time></trkpt><trkpt lat="43.78222077678292" lon="12.249617145406058"><ele>837.0</ele><time>2026-05-01T13:01:22.944Z</time></trkpt><trkpt lat="43.78234710534699" lon="12.249495023506123"><ele>834.0</ele><time>2026-05-01T13:01:23.944Z</time></trkpt><trkpt lat="43.782485918069725" lon="12.249312819453548"><ele>834.0</ele><time>2026-05-01T13:01:24.944Z</time></trkpt><trkpt lat="43.782636447388974" lon="12.249105997349034"><ele>834.0</ele><time>2026-05-01T13:01:25.944Z</time></trkpt><trkpt lat="43.78277629834228" lon="12.248878947160092"><ele>834.0</ele><time>2026-05-01T13:01:26.944Z</time></trkpt><trkpt lat="43.78288847275634" lon="12.248694201866225"><ele>833.6</ele><time>2026-05-01T13:01:27.944Z</time></trkpt><trkpt lat="43.78296652333334" lon="12.248562884084985"><ele>833.2</ele><time>2026-05-01T13:01:28.944Z</time></trkpt><trkpt lat="43.78303010336854" lon="12.248456687149824"><ele>832.8000000000001</ele><time>2026-05-01T13:01:29.944Z</time></trkpt><trkpt lat="43.78310038146754" lon="12.24840771345857"><ele>832.4000000000001</ele><time>2026-05-01T13:01:30.943Z</time></trkpt><trkpt lat="43.783135102492196" lon="12.248333307288863"><ele>832.0</ele><time>2026-05-01T13:01:32.944Z</time></trkpt><trkpt lat="43.78323365424173" lon="12.248493526404713"><ele>832.0</ele><time>2026-05-01T13:01:33.944Z</time></trkpt><trkpt lat="43.78325184840772" lon="12.248639482968894"><ele>832.0</ele><time>2026-05-01T13:01:35.943Z</time></trkpt><trkpt lat="43.78324733232794" lon="12.248761807433116"><ele>832.0</ele><time>2026-05-01T13:01:36.943Z</time></trkpt><trkpt lat="43.78324346227573" lon="12.248911748138681"><ele>832.0</ele><time>2026-05-01T13:01:37.943Z</time></trkpt><trkpt lat="43.783238759749295" lon="12.249094245672818"><ele>832.0</ele><time>2026-05-01T13:01:38.943Z</time></trkpt><trkpt lat="43.78323924457813" lon="12.249307897299989"><ele>832.3333333333333</ele><time>2026-05-01T13:01:39.944Z</time></trkpt><trkpt lat="43.7832335022223" lon="12.249543821910436"><ele>832.6666666666667</ele><time>2026-05-01T13:01:40.944Z</time></trkpt><trkpt lat="43.783225386058795" lon="12.249807842732343"><ele>833.0</ele><time>2026-05-01T13:01:41.943Z</time></trkpt><trkpt lat="43.78322763812033" lon="12.250108374618707"><ele>835.0</ele><time>2026-05-01T13:01:42.943Z</time></trkpt><trkpt lat="43.78322222439574" lon="12.250424300560288"><ele>837.0</ele><time>2026-05-01T13:01:43.943Z</time></trkpt><trkpt lat="43.78322502037303" lon="12.250731729761156"><ele>838.6666666666667</ele><time>2026-05-01T13:01:44.943Z</time></trkpt><trkpt lat="43.78324182531243" lon="12.2510268878975"><ele>840.3333333333334</ele><time>2026-05-01T13:01:45.943Z</time></trkpt><trkpt lat="43.78328731073972" lon="12.25133737254065"><ele>842.0</ele><time>2026-05-01T13:01:46.943Z</time></trkpt><trkpt lat="43.78331022199857" lon="12.25166858175635"><ele>844.5</ele><time>2026-05-01T13:01:47.943Z</time></trkpt><trkpt lat="43.7833107474208" lon="12.25201744127823"><ele>847.0</ele><time>2026-05-01T13:01:48.943Z</time></trkpt><trkpt lat="43.783327831142486" lon="12.252372055724555"><ele>848.6666666666666</ele><time>2026-05-01T13:01:49.943Z</time></trkpt><trkpt lat="43.783326038735815" lon="12.252680215341424"><ele>850.3333333333333</ele><time>2026-05-01T13:01:50.943Z</time></trkpt><trkpt lat="43.78333260298623" lon="12.25296020396051"><ele>852.0</ele><time>2026-05-01T13:01:51.943Z</time></trkpt><trkpt lat="43.7833365028248" lon="12.25324005322548"><ele>853.0</ele><time>2026-05-01T13:01:52.943Z</time></trkpt><trkpt lat="43.783321667241985" lon="12.25350485206333"><ele>854.0</ele><time>2026-05-01T13:01:53.943Z</time></trkpt><trkpt lat="43.783278492061854" lon="12.253757137194699"><ele>855.0</ele><time>2026-05-01T13:01:54.943Z</time></trkpt><trkpt lat="43.783229477829316" lon="12.25401351779688"><ele>855.3333333333333</ele><time>2026-05-01T13:01:55.943Z</time></trkpt><trkpt lat="43.783176862679596" lon="12.254288584055857"><ele>855.6666666666666</ele><time>2026-05-01T13:01:56.943Z</time></trkpt><trkpt lat="43.78313444515742" lon="12.254591478154246"><ele>856.0</ele><time>2026-05-01T13:01:57.943Z</time></trkpt><trkpt lat="43.783080259760254" lon="12.254870807649674"><ele>857.0</ele><time>2026-05-01T13:01:58.943Z</time></trkpt><trkpt lat="43.78302618119146" lon="12.255155543396606"><ele>858.0</ele><time>2026-05-01T13:01:59.943Z</time></trkpt><trkpt lat="43.7829680379454" lon="12.255449416870047"><ele>859.0</ele><time>2026-05-01T13:02:00.943Z</time></trkpt><trkpt lat="43.782914722790515" lon="12.255752611526347"><ele>862.0</ele><time>2026-05-01T13:02:01.943Z</time></trkpt><trkpt lat="43.78285955551171" lon="12.256025267207194"><ele>865.0</ele><time>2026-05-01T13:02:02.943Z</time></trkpt><trkpt lat="43.782809352700006" lon="12.256304898535552"><ele>868.0</ele><time>2026-05-01T13:02:03.943Z</time></trkpt><trkpt lat="43.782761853390305" lon="12.256592199886631"><ele>871.0</ele><time>2026-05-01T13:02:04.943Z</time></trkpt><trkpt lat="43.78272790363121" lon="12.256916038261602"><ele>874.0</ele><time>2026-05-01T13:02:05.943Z</time></trkpt><trkpt lat="43.78271184926434" lon="12.257238567340483"><ele>877.0</ele><time>2026-05-01T13:02:06.943Z</time></trkpt><trkpt lat="43.78270504269949" lon="12.257564159859257"><ele>880.0</ele><time>2026-05-01T13:02:07.943Z</time></trkpt><trkpt lat="43.782706292260706" lon="12.257867878903498"><ele>882.0</ele><time>2026-05-01T13:02:08.943Z</time></trkpt><trkpt lat="43.78272129247309" lon="12.2581776594085"><ele>884.0</ele><time>2026-05-01T13:02:09.943Z</time></trkpt><trkpt lat="43.78274629005195" lon="12.258488210184415"><ele>884.0</ele><time>2026-05-01T13:02:10.943Z</time></trkpt><trkpt lat="43.78279749166371" lon="12.2587771722532"><ele>884.0</ele><time>2026-05-01T13:02:11.943Z</time></trkpt><trkpt lat="43.78284342378348" lon="12.259040944304644"><ele>884.0</ele><time>2026-05-01T13:02:12.943Z</time></trkpt><trkpt lat="43.782865457523826" lon="12.259308588044167"><ele>885.0</ele><time>2026-05-01T13:02:13.943Z</time></trkpt><trkpt lat="43.78281990419288" lon="12.25958199969637"><ele>886.0</ele><time>2026-05-01T13:02:14.943Z</time></trkpt><trkpt lat="43.782763804109216" lon="12.259879186974548"><ele>887.0</ele><time>2026-05-01T13:02:15.943Z</time></trkpt><trkpt lat="43.78269453741346" lon="12.260205676187347"><ele>895.5</ele><time>2026-05-01T13:02:16.943Z</time></trkpt><trkpt lat="43.782639246162766" lon="12.260532186327914"><ele>904.0</ele><time>2026-05-01T13:02:17.943Z</time></trkpt><trkpt lat="43.782571212639276" lon="12.260807593606446"><ele>904.0</ele><time>2026-05-01T13:02:18.943Z</time></trkpt><trkpt lat="43.78251846996467" lon="12.26104273422243"><ele>904.0</ele><time>2026-05-01T13:02:19.943Z</time></trkpt><trkpt lat="43.78246557741289" lon="12.2612321746057"><ele>904.0</ele><time>2026-05-01T13:02:20.943Z</time></trkpt><trkpt lat="43.78235692320535" lon="12.26135592035433"><ele>904.0</ele><time>2026-05-01T13:02:21.943Z</time></trkpt><trkpt lat="43.782240655044255" lon="12.261430325763918"><ele>904.0</ele><time>2026-05-01T13:02:22.943Z</time></trkpt><trkpt lat="43.78209309596139" lon="12.261483323054025"><ele>904.0</ele><time>2026-05-01T13:02:23.943Z</time></trkpt><trkpt lat="43.781913450935775" lon="12.261541071320801"><ele>905.3333333333333</ele><time>2026-05-01T13:02:24.943Z</time></trkpt><trkpt lat="43.781736937933715" lon="12.261617634691513"><ele>906.6666666666667</ele><time>2026-05-01T13:02:25.943Z</time></trkpt><trkpt lat="43.78158592341704" lon="12.261662615620965"><ele>908.0</ele><time>2026-05-01T13:02:26.943Z</time></trkpt><trkpt lat="43.78147352074303" lon="12.261736312071992"><ele>908.0</ele><time>2026-05-01T13:02:27.943Z</time></trkpt><trkpt lat="43.781397572818214" lon="12.261843181034644"><ele>908.0</ele><time>2026-05-01T13:02:28.943Z</time></trkpt><trkpt lat="43.78137024765111" lon="12.261985666107208"><ele>908.0</ele><time>2026-05-01T13:02:29.943Z</time></trkpt><trkpt lat="43.78138327145166" lon="12.262139216981957"><ele>908.0</ele><time>2026-05-01T13:02:30.943Z</time></trkpt><trkpt lat="43.78144864568376" lon="12.26228400933212"><ele>912.0</ele><time>2026-05-01T13:02:31.943Z</time></trkpt><trkpt lat="43.78155229560623" lon="12.26239426772285"><ele>916.0</ele><time>2026-05-01T13:02:32.943Z</time></trkpt><trkpt lat="43.78168895952864" lon="12.262465538874002"><ele>920.0</ele><time>2026-05-01T13:02:33.943Z</time></trkpt><trkpt lat="43.781877851966755" lon="12.262524625717973"><ele>922.3333333333334</ele><time>2026-05-01T13:02:34.943Z</time></trkpt><trkpt lat="43.782080131251874" lon="12.26259519491758"><ele>924.6666666666667</ele><time>2026-05-01T13:02:35.943Z</time></trkpt><trkpt lat="43.78227499073033" lon="12.262682949987102"><ele>927.0</ele><time>2026-05-01T13:02:36.943Z</time></trkpt><trkpt lat="43.78244021419406" lon="12.2627557802698"><ele>927.0</ele><time>2026-05-01T13:02:37.943Z</time></trkpt><trkpt lat="43.78261851746127" lon="12.262791776431142"><ele>927.0</ele><time>2026-05-01T13:02:38.943Z</time></trkpt><trkpt lat="43.782814308371975" lon="12.262752776106732"><ele>927.0</ele><time>2026-05-01T13:02:39.943Z</time></trkpt><trkpt lat="43.783019620957944" lon="12.262662310829867"><ele>930.6666666666667</ele><time>2026-05-01T13:02:40.943Z</time></trkpt><trkpt lat="43.783217472151975" lon="12.262537102225826"><ele>934.3333333333334</ele><time>2026-05-01T13:02:41.943Z</time></trkpt><trkpt lat="43.78339044548059" lon="12.262399553533205"><ele>938.0</ele><time>2026-05-01T13:02:42.943Z</time></trkpt><trkpt lat="43.783516443307455" lon="12.262293291238992"><ele>939.4</ele><time>2026-05-01T13:02:43.943Z</time></trkpt><trkpt lat="43.78360811844129" lon="12.262223013194774"><ele>940.8</ele><time>2026-05-01T13:02:44.943Z</time></trkpt><trkpt lat="43.78369948311392" lon="12.262197020399258"><ele>942.2</ele><time>2026-05-01T13:02:45.943Z</time></trkpt><trkpt lat="43.78380104572198" lon="12.26224263548262"><ele>943.6</ele><time>2026-05-01T13:02:46.943Z</time></trkpt><trkpt lat="43.78386761193401" lon="12.262356476486698"><ele>945.0</ele><time>2026-05-01T13:02:47.943Z</time></trkpt><trkpt lat="43.78389233769071" lon="12.262512241809743"><ele>945.0</ele><time>2026-05-01T13:02:48.943Z</time></trkpt><trkpt lat="43.78386672055657" lon="12.262669854381743"><ele>945.0</ele><time>2026-05-01T13:02:49.943Z</time></trkpt><trkpt lat="43.78376896741876" lon="12.262768980796366"><ele>945.0</ele><time>2026-05-01T13:02:50.943Z</time></trkpt><trkpt lat="43.783656428123436" lon="12.262854543077665"><ele>945.0</ele><time>2026-05-01T13:02:51.943Z</time></trkpt><trkpt lat="43.78352427201382" lon="12.262998340616043"><ele>948.3333333333333</ele><time>2026-05-01T13:02:52.943Z</time></trkpt><trkpt lat="43.78334944894934" lon="12.263153314715199"><ele>951.6666666666666</ele><time>2026-05-01T13:02:53.943Z</time></trkpt><trkpt lat="43.78317781547721" lon="12.263327912898909"><ele>955.0</ele><time>2026-05-01T13:02:54.943Z</time></trkpt><trkpt lat="43.78300472213139" lon="12.26355406226876"><ele>955.0</ele><time>2026-05-01T13:02:55.943Z</time></trkpt><trkpt lat="43.782826355516626" lon="12.263802886476602"><ele>955.0</ele><time>2026-05-01T13:02:56.943Z</time></trkpt><trkpt lat="43.78265518443525" lon="12.264076097136082"><ele>959.0</ele><time>2026-05-01T13:02:57.943Z</time></trkpt><trkpt lat="43.78249763609875" lon="12.264334289755343"><ele>963.0</ele><time>2026-05-01T13:02:58.943Z</time></trkpt><trkpt lat="43.782347346672815" lon="12.264546223158233"><ele>963.0</ele><time>2026-05-01T13:02:59.943Z</time></trkpt><trkpt lat="43.782217527684274" lon="12.264735034399926"><ele>963.0</ele><time>2026-05-01T13:03:00.943Z</time></trkpt><trkpt lat="43.78206462477909" lon="12.264853276959327"><ele>963.0</ele><time>2026-05-01T13:03:01.943Z</time></trkpt><trkpt lat="43.78188793622957" lon="12.264931523613624"><ele>965.6666666666667</ele><time>2026-05-01T13:03:02.943Z</time></trkpt><trkpt lat="43.78167970568556" lon="12.26501426436802"><ele>968.3333333333334</ele><time>2026-05-01T13:03:03.943Z</time></trkpt><trkpt lat="43.78146003800507" lon="12.265114311032818"><ele>971.0</ele><time>2026-05-01T13:03:04.943Z</time></trkpt><trkpt lat="43.7812572668901" lon="12.265185355893053"><ele>971.0</ele><time>2026-05-01T13:03:05.943Z</time></trkpt><trkpt lat="43.78108716956432" lon="12.26524733441936"><ele>971.0</ele><time>2026-05-01T13:03:06.943Z</time></trkpt><trkpt lat="43.78093861743024" lon="12.26531181043332"><ele>971.0</ele><time>2026-05-01T13:03:07.943Z</time></trkpt><trkpt lat="43.78080133752906" lon="12.265400189047494"><ele>969.5</ele><time>2026-05-01T13:03:08.943Z</time></trkpt><trkpt lat="43.78067278946015" lon="12.265520879176236"><ele>968.0</ele><time>2026-05-01T13:03:09.943Z</time></trkpt><trkpt lat="43.780589636370046" lon="12.265672129450166"><ele>966.5</ele><time>2026-05-01T13:03:10.943Z</time></trkpt><trkpt lat="43.780537077374035" lon="12.265827504886518"><ele>965.0</ele><time>2026-05-01T13:03:11.943Z</time></trkpt><trkpt lat="43.78050176591179" lon="12.265976572279515"><ele>970.0</ele><time>2026-05-01T13:03:12.943Z</time></trkpt><trkpt lat="43.78048114588018" lon="12.26614051510277"><ele>975.0</ele><time>2026-05-01T13:03:13.943Z</time></trkpt><trkpt lat="43.780479433987686" lon="12.266319607051333"><ele>980.0</ele><time>2026-05-01T13:03:14.943Z</time></trkpt><trkpt lat="43.78050778197418" lon="12.266518267512005"><ele>985.0</ele><time>2026-05-01T13:03:15.943Z</time></trkpt><trkpt lat="43.78056253001502" lon="12.26674250525679"><ele>985.0</ele><time>2026-05-01T13:03:16.943Z</time></trkpt><trkpt lat="43.780645845634126" lon="12.267007766424507"><ele>985.0</ele><time>2026-05-01T13:03:17.943Z</time></trkpt><trkpt lat="43.780723711368644" lon="12.267310743999985"><ele>985.0</ele><time>2026-05-01T13:03:18.943Z</time></trkpt><trkpt lat="43.78080189796412" lon="12.267633145674134"><ele>985.0</ele><time>2026-05-01T13:03:19.943Z</time></trkpt><trkpt lat="43.78088361574037" lon="12.267971949357324"><ele>985.0</ele><time>2026-05-01T13:03:20.943Z</time></trkpt><trkpt lat="43.78098145372507" lon="12.2683250438365"><ele>988.5</ele><time>2026-05-01T13:03:21.943Z</time></trkpt><trkpt lat="43.781078291232305" lon="12.268646682872824"><ele>992.0</ele><time>2026-05-01T13:03:22.943Z</time></trkpt><trkpt lat="43.78118689010125" lon="12.26891923542883"><ele>991.0</ele><time>2026-05-01T13:03:23.943Z</time></trkpt><trkpt lat="43.781284456354754" lon="12.269171735772392"><ele>990.0</ele><time>2026-05-01T13:03:24.943Z</time></trkpt><trkpt lat="43.78137609426239" lon="12.269414752895646"><ele>989.0</ele><time>2026-05-01T13:03:25.943Z</time></trkpt><trkpt lat="43.781463282369046" lon="12.269650486750507"><ele>988.3333333333334</ele><time>2026-05-01T13:03:26.943Z</time></trkpt><trkpt lat="43.781548270567406" lon="12.269892188262302"><ele>987.6666666666667</ele><time>2026-05-01T13:03:27.943Z</time></trkpt><trkpt lat="43.78163563357668" lon="12.270143369644373"><ele>987.0</ele><time>2026-05-01T13:03:28.943Z</time></trkpt><trkpt lat="43.78171799260774" lon="12.27038501031969"><ele>987.3333333333333</ele><time>2026-05-01T13:03:29.943Z</time></trkpt><trkpt lat="43.78179016638814" lon="12.270614307828026"><ele>987.6666666666666</ele><time>2026-05-01T13:03:30.943Z</time></trkpt><trkpt lat="43.7818530660531" lon="12.270833148143536"><ele>988.0</ele><time>2026-05-01T13:03:31.943Z</time></trkpt><trkpt lat="43.78185941650516" lon="12.271056273370263"><ele>989.3333333333333</ele><time>2026-05-01T13:03:32.943Z</time></trkpt><trkpt lat="43.781861185924846" lon="12.271291512887174"><ele>990.6666666666667</ele><time>2026-05-01T13:03:33.943Z</time></trkpt><trkpt lat="43.781836983317014" lon="12.271540054390467"><ele>992.0</ele><time>2026-05-01T13:03:34.943Z</time></trkpt><trkpt lat="43.781789881432466" lon="12.27178890852448"><ele>992.0</ele><time>2026-05-01T13:03:35.942Z</time></trkpt><trkpt lat="43.781729363647706" lon="12.272067191141817"><ele>992.0</ele><time>2026-05-01T13:03:36.943Z</time></trkpt><trkpt lat="43.78166859121975" lon="12.272346644662019"><ele>992.0</ele><time>2026-05-01T13:03:37.943Z</time></trkpt><trkpt lat="43.7816102986829" lon="12.272614694788222"><ele>992.0</ele><time>2026-05-01T13:03:38.943Z</time></trkpt><trkpt lat="43.781553095954855" lon="12.272877733569219"><ele>992.0</ele><time>2026-05-01T13:03:39.942Z</time></trkpt><trkpt lat="43.7814950903821" lon="12.27314446411872"><ele>992.0</ele><time>2026-05-01T13:03:40.942Z</time></trkpt><trkpt lat="43.78143682623009" lon="12.27341238368475"><ele>992.0</ele><time>2026-05-01T13:03:41.942Z</time></trkpt><trkpt lat="43.781379575668176" lon="12.273675642435983"><ele>992.0</ele><time>2026-05-01T13:03:42.942Z</time></trkpt><trkpt lat="43.78132353801394" lon="12.273933323787483"><ele>992.0</ele><time>2026-05-01T13:03:43.942Z</time></trkpt><trkpt lat="43.78126568409546" lon="12.274198127851967"><ele>991.6666666666667</ele><time>2026-05-01T13:03:44.942Z</time></trkpt><trkpt lat="43.7812089864204" lon="12.274457471678948"><ele>991.3333333333333</ele><time>2026-05-01T13:03:45.942Z</time></trkpt><trkpt lat="43.78115288391958" lon="12.274714093124592"><ele>991.0</ele><time>2026-05-01T13:03:46.942Z</time></trkpt><trkpt lat="43.781098670697254" lon="12.27496207269901"><ele>991.0</ele><time>2026-05-01T13:03:47.942Z</time></trkpt><trkpt lat="43.78104714562494" lon="12.275197756256997"><ele>991.0</ele><time>2026-05-01T13:03:48.942Z</time></trkpt><trkpt lat="43.78099777864501" lon="12.275423568372764"><ele>991.0</ele><time>2026-05-01T13:03:49.942Z</time></trkpt><trkpt lat="43.78094978834531" lon="12.27564308333976"><ele>994.6666666666666</ele><time>2026-05-01T13:03:50.942Z</time></trkpt><trkpt lat="43.780901353846325" lon="12.275864630172329"><ele>998.3333333333333</ele><time>2026-05-01T13:03:51.942Z</time></trkpt><trkpt lat="43.78085100435966" lon="12.2760949364242"><ele>1002.0</ele><time>2026-05-01T13:03:52.942Z</time></trkpt><trkpt lat="43.780797333834904" lon="12.276340485841365"><ele>1001.6666666666667</ele><time>2026-05-01T13:03:53.942Z</time></trkpt><trkpt lat="43.78073886772281" lon="12.27660803517732"><ele>1001.3333333333334</ele><time>2026-05-01T13:03:54.942Z</time></trkpt><trkpt lat="43.780675146071516" lon="12.276899634639909"><ele>1001.0</ele><time>2026-05-01T13:03:55.942Z</time></trkpt><trkpt lat="43.780604984031235" lon="12.277220706193287"><ele>1001.5</ele><time>2026-05-01T13:03:56.942Z</time></trkpt><trkpt lat="43.78053643184666" lon="12.277534410879408"><ele>1002.0</ele><time>2026-05-01T13:03:57.942Z</time></trkpt><trkpt lat="43.78048640777309" lon="12.277828431876115"><ele>1002.0</ele><time>2026-05-01T13:03:58.942Z</time></trkpt><trkpt lat="43.780425033169664" lon="12.278093568332775"><ele>1002.0</ele><time>2026-05-01T13:03:59.942Z</time></trkpt><trkpt lat="43.78036672250578" lon="12.278359583023517"><ele>1002.0</ele><time>2026-05-01T13:04:00.942Z</time></trkpt><trkpt lat="43.78031670425984" lon="12.278609883331363"><ele>1002.0</ele><time>2026-05-01T13:04:01.942Z</time></trkpt><trkpt lat="43.780266323675924" lon="12.278839023564517"><ele>1002.0</ele><time>2026-05-01T13:04:02.942Z</time></trkpt><trkpt lat="43.780227236391774" lon="12.279044435402563"><ele>1002.0</ele><time>2026-05-01T13:04:03.942Z</time></trkpt><trkpt lat="43.780165719443566" lon="12.279219671390562"><ele>1003.25</ele><time>2026-05-01T13:04:04.942Z</time></trkpt><trkpt lat="43.780110707867095" lon="12.279366118476792"><ele>1004.5</ele><time>2026-05-01T13:04:05.942Z</time></trkpt><trkpt lat="43.78003329610176" lon="12.279477738114194"><ele>1005.75</ele><time>2026-05-01T13:04:06.942Z</time></trkpt><trkpt lat="43.77993644592019" lon="12.279583674327382"><ele>1007.0</ele><time>2026-05-01T13:04:07.942Z</time></trkpt><trkpt lat="43.7798210541478" lon="12.279644195931875"><ele>1007.0</ele><time>2026-05-01T13:04:08.942Z</time></trkpt><trkpt lat="43.77968464310051" lon="12.279676052080694"><ele>1007.0</ele><time>2026-05-01T13:04:09.942Z</time></trkpt><trkpt lat="43.7795459243637" lon="12.279691342987077"><ele>1007.0</ele><time>2026-05-01T13:04:10.942Z</time></trkpt><trkpt lat="43.77939485958118" lon="12.279728012677682"><ele>1007.0</ele><time>2026-05-01T13:04:11.942Z</time></trkpt><trkpt lat="43.77924655959542" lon="12.279742685872673"><ele>1005.25</ele><time>2026-05-01T13:04:12.942Z</time></trkpt><trkpt lat="43.779119385766144" lon="12.27978626069821"><ele>1003.5</ele><time>2026-05-01T13:04:13.942Z</time></trkpt><trkpt lat="43.77901064585003" lon="12.279864341756646"><ele>1001.75</ele><time>2026-05-01T13:04:14.942Z</time></trkpt><trkpt lat="43.778917629567445" lon="12.279974677790651"><ele>1000.0</ele><time>2026-05-01T13:04:15.942Z</time></trkpt><trkpt lat="43.77886531876625" lon="12.280134509773486"><ele>1000.0</ele><time>2026-05-01T13:04:16.942Z</time></trkpt><trkpt lat="43.77884484828637" lon="12.280336682351663"><ele>1000.0</ele><time>2026-05-01T13:04:17.942Z</time></trkpt><trkpt lat="43.778831891983394" lon="12.280524967763453"><ele>1000.0</ele><time>2026-05-01T13:04:18.942Z</time></trkpt><trkpt lat="43.77882577500544" lon="12.280690771718207"><ele>1000.0</ele><time>2026-05-01T13:04:19.942Z</time></trkpt><trkpt lat="43.77882030041367" lon="12.280843816793233"><ele>1000.25</ele><time>2026-05-01T13:04:20.942Z</time></trkpt><trkpt lat="43.778815562972135" lon="12.280996943196154"><ele>1000.5</ele><time>2026-05-01T13:04:21.942Z</time></trkpt><trkpt lat="43.77881065215525" lon="12.281155673486825"><ele>1000.75</ele><time>2026-05-01T13:04:22.942Z</time></trkpt><trkpt lat="43.77881907549716" lon="12.281328191627047"><ele>1001.0</ele><time>2026-05-01T13:04:23.942Z</time></trkpt><trkpt lat="43.778803107574745" lon="12.281528816602638"><ele>1000.3333333333334</ele><time>2026-05-01T13:04:24.942Z</time></trkpt><trkpt lat="43.778794871984346" lon="12.28177057866967"><ele>999.6666666666667</ele><time>2026-05-01T13:04:25.942Z</time></trkpt><trkpt lat="43.77879006638228" lon="12.282066988363328"><ele>999.0</ele><time>2026-05-01T13:04:26.942Z</time></trkpt><trkpt lat="43.7787864545907" lon="12.282364122261136"><ele>999.0</ele><time>2026-05-01T13:04:27.942Z</time></trkpt><trkpt lat="43.778797620765424" lon="12.282640414052807"><ele>999.0</ele><time>2026-05-01T13:04:28.942Z</time></trkpt><trkpt lat="43.7788387917822" lon="12.282917769946009"><ele>999.0</ele><time>2026-05-01T13:04:29.942Z</time></trkpt><trkpt lat="43.77890546199766" lon="12.283220767716339"><ele>1000.5</ele><time>2026-05-01T13:04:30.942Z</time></trkpt><trkpt lat="43.77897623015884" lon="12.28355650800909"><ele>1002.0</ele><time>2026-05-01T13:04:31.942Z</time></trkpt><trkpt lat="43.77905539359636" lon="12.283912427811554"><ele>1002.0</ele><time>2026-05-01T13:04:32.942Z</time></trkpt><trkpt lat="43.77915413270463" lon="12.284282017653522"><ele>1002.0</ele><time>2026-05-01T13:04:33.942Z</time></trkpt><trkpt lat="43.779240245757" lon="12.28464343070406"><ele>1004.5</ele><time>2026-05-01T13:04:34.942Z</time></trkpt><trkpt lat="43.77931486847584" lon="12.284972439859013"><ele>1007.0</ele><time>2026-05-01T13:04:35.942Z</time></trkpt><trkpt lat="43.77939196092207" lon="12.285308832207367"><ele>1003.0</ele><time>2026-05-01T13:04:36.942Z</time></trkpt><trkpt lat="43.77946437676021" lon="12.28563812227967"><ele>999.0</ele><time>2026-05-01T13:04:37.942Z</time></trkpt><trkpt lat="43.77953380750368" lon="12.285941756299314"><ele>999.0</ele><time>2026-05-01T13:04:38.942Z</time></trkpt><trkpt lat="43.77959937061393" lon="12.286221178170505"><ele>999.0</ele><time>2026-05-01T13:04:39.942Z</time></trkpt><trkpt lat="43.779657970477075" lon="12.286477725904147"><ele>999.0</ele><time>2026-05-01T13:04:40.942Z</time></trkpt><trkpt lat="43.7796969063173" lon="12.286725287200676"><ele>999.3333333333333</ele><time>2026-05-01T13:04:41.942Z</time></trkpt><trkpt lat="43.77967022770226" lon="12.286957448561063"><ele>999.6666666666666</ele><time>2026-05-01T13:04:42.942Z</time></trkpt><trkpt lat="43.779634263950406" lon="12.287231854212365"><ele>1000.0</ele><time>2026-05-01T13:04:43.942Z</time></trkpt><trkpt lat="43.77959188788994" lon="12.287551171035783"><ele>1000.0</ele><time>2026-05-01T13:04:44.942Z</time></trkpt><trkpt lat="43.77955487048615" lon="12.28787098652972"><ele>1000.0</ele><time>2026-05-01T13:04:45.942Z</time></trkpt><trkpt lat="43.7794918569026" lon="12.288147100088276"><ele>1000.0</ele><time>2026-05-01T13:04:46.942Z</time></trkpt><trkpt lat="43.77938262230614" lon="12.288382040446356"><ele>1001.3333333333333</ele><time>2026-05-01T13:04:47.942Z</time></trkpt><trkpt lat="43.779274114285684" lon="12.288617736398924"><ele>1002.6666666666667</ele><time>2026-05-01T13:04:48.942Z</time></trkpt><trkpt lat="43.779193596613204" lon="12.288840762697339"><ele>1004.0</ele><time>2026-05-01T13:04:49.942Z</time></trkpt><trkpt lat="43.77912034685405" lon="12.289020851978796"><ele>1004.0</ele><time>2026-05-01T13:04:50.942Z</time></trkpt><trkpt lat="43.77908962224753" lon="12.289202351970818"><ele>1004.0</ele><time>2026-05-01T13:04:51.942Z</time></trkpt><trkpt lat="43.77909161707669" lon="12.289405215578663"><ele>1004.0</ele><time>2026-05-01T13:04:52.942Z</time></trkpt><trkpt lat="43.77911910628787" lon="12.289640315667501"><ele>1005.3333333333334</ele><time>2026-05-01T13:04:53.942Z</time></trkpt><trkpt lat="43.77916785020207" lon="12.289905619517803"><ele>1006.6666666666667</ele><time>2026-05-01T13:04:54.942Z</time></trkpt><trkpt lat="43.77921949629252" lon="12.290197234353425"><ele>1008.0</ele><time>2026-05-01T13:04:55.942Z</time></trkpt><trkpt lat="43.779282896838176" lon="12.29051703184894"><ele>1009.0</ele><time>2026-05-01T13:04:56.942Z</time></trkpt><trkpt lat="43.77933534179568" lon="12.290836009196287"><ele>1010.0</ele><time>2026-05-01T13:04:57.942Z</time></trkpt><trkpt lat="43.77938211341275" lon="12.291140084440661"><ele>1007.6666666666667</ele><time>2026-05-01T13:04:58.942Z</time></trkpt><trkpt lat="43.77943431686817" lon="12.291413127171069"><ele>1005.3333333333333</ele><time>2026-05-01T13:04:59.942Z</time></trkpt><trkpt lat="43.77946818142617" lon="12.291693198001393"><ele>1003.0</ele><time>2026-05-01T13:05:00.942Z</time></trkpt><trkpt lat="43.779526891287155" lon="12.291966708805848"><ele>1001.6666666666666</ele><time>2026-05-01T13:05:01.942Z</time></trkpt><trkpt lat="43.779570004304084" lon="12.29225194621233"><ele>1000.3333333333333</ele><time>2026-05-01T13:05:02.942Z</time></trkpt><trkpt lat="43.779619575613054" lon="12.292530311117481"><ele>999.0</ele><time>2026-05-01T13:05:03.942Z</time></trkpt><trkpt lat="43.77966375244524" lon="12.292801426596718"><ele>998.0</ele><time>2026-05-01T13:05:04.942Z</time></trkpt><trkpt lat="43.77967654982655" lon="12.293078089796717"><ele>997.0</ele><time>2026-05-01T13:05:05.942Z</time></trkpt><trkpt lat="43.77968784319804" lon="12.293336838381668"><ele>996.0</ele><time>2026-05-01T13:05:06.942Z</time></trkpt><trkpt lat="43.779689990856376" lon="12.293577692950306"><ele>995.6666666666667</ele><time>2026-05-01T13:05:07.942Z</time></trkpt><trkpt lat="43.77969075211539" lon="12.293779590584444"><ele>995.3333333333334</ele><time>2026-05-01T13:05:08.942Z</time></trkpt><trkpt lat="43.779707175164724" lon="12.29399043003098"><ele>995.0</ele><time>2026-05-01T13:05:09.942Z</time></trkpt><trkpt lat="43.779702062114275" lon="12.294201111989027"><ele>994.4</ele><time>2026-05-01T13:05:10.942Z</time></trkpt><trkpt lat="43.779704569769144" lon="12.294389183177257"><ele>993.8</ele><time>2026-05-01T13:05:11.942Z</time></trkpt><trkpt lat="43.77970365449084" lon="12.294551091179732"><ele>993.2</ele><time>2026-05-01T13:05:12.942Z</time></trkpt><trkpt lat="43.77970454918066" lon="12.294670425086329"><ele>992.6</ele><time>2026-05-01T13:05:13.942Z</time></trkpt><trkpt lat="43.779704976489235" lon="12.2947677917941"><ele>992.0</ele><time>2026-05-01T13:05:14.942Z</time></trkpt><trkpt lat="43.779706390233244" lon="12.294868601486872"><ele>992.0000000000001</ele><time>2026-05-01T13:05:15.942Z</time></trkpt><trkpt lat="43.77971621562009" lon="12.294962757417311"><ele>992.0</ele><time>2026-05-01T13:05:16.942Z</time></trkpt><trkpt lat="43.779722422066484" lon="12.295059053627428"><ele>992.0</ele><time>2026-05-01T13:05:17.942Z</time></trkpt><trkpt lat="43.77974243608511" lon="12.295160721181084"><ele>992.0</ele><time>2026-05-01T13:05:18.942Z</time></trkpt><trkpt lat="43.77978625257605" lon="12.295258680040709"><ele>992.0000000000001</ele><time>2026-05-01T13:05:19.942Z</time></trkpt><trkpt lat="43.77984420215551" lon="12.295354257657035"><ele>992.0</ele><time>2026-05-01T13:05:20.942Z</time></trkpt><trkpt lat="43.77991171151295" lon="12.295453904197624"><ele>992.0</ele><time>2026-05-01T13:05:21.942Z</time></trkpt><trkpt lat="43.77998986582633" lon="12.295544396846926"><ele>992.0</ele><time>2026-05-01T13:05:22.942Z</time></trkpt><trkpt lat="43.780073570229874" lon="12.295613771272608"><ele>992.0</ele><time>2026-05-01T13:05:23.942Z</time></trkpt><trkpt lat="43.780158825222166" lon="12.295672911880706"><ele>992.0</ele><time>2026-05-01T13:05:24.942Z</time></trkpt><trkpt lat="43.78025879127462" lon="12.295708073250397"><ele>992.0</ele><time>2026-05-01T13:05:25.942Z</time></trkpt><trkpt lat="43.78035217859255" lon="12.295755279948995"><ele>992.8</ele><time>2026-05-01T13:05:26.942Z</time></trkpt><trkpt lat="43.780442699721945" lon="12.295814853040536"><ele>993.6</ele><time>2026-05-01T13:05:27.942Z</time></trkpt><trkpt lat="43.78052687260874" lon="12.295887202845515"><ele>994.3999999999999</ele><time>2026-05-01T13:05:28.942Z</time></trkpt><trkpt lat="43.7806147387403" lon="12.295966396666822"><ele>995.1999999999999</ele><time>2026-05-01T13:05:29.942Z</time></trkpt><trkpt lat="43.78073184126275" lon="12.29604809414225"><ele>996.0</ele><time>2026-05-01T13:05:30.942Z</time></trkpt><trkpt lat="43.78087751829948" lon="12.29614952597283"><ele>995.0</ele><time>2026-05-01T13:05:31.942Z</time></trkpt><trkpt lat="43.781046068421844" lon="12.296265817465217"><ele>994.0</ele><time>2026-05-01T13:05:32.942Z</time></trkpt><trkpt lat="43.78123267654131" lon="12.296400896294628"><ele>993.0</ele><time>2026-05-01T13:05:33.942Z</time></trkpt><trkpt lat="43.78143344860934" lon="12.29654341527545"><ele>993.0</ele><time>2026-05-01T13:05:34.941Z</time></trkpt><trkpt lat="43.781634626511845" lon="12.296686407837113"><ele>993.0</ele><time>2026-05-01T13:05:35.941Z</time></trkpt><trkpt lat="43.78185423061934" lon="12.296839200298658"><ele>994.3333333333333</ele><time>2026-05-01T13:05:36.941Z</time></trkpt><trkpt lat="43.78206231068601" lon="12.296987448730912"><ele>995.6666666666666</ele><time>2026-05-01T13:05:37.941Z</time></trkpt><trkpt lat="43.78224942348658" lon="12.29712268555856"><ele>997.0</ele><time>2026-05-01T13:05:38.941Z</time></trkpt><trkpt lat="43.78243784718067" lon="12.297253103469899"><ele>997.0</ele><time>2026-05-01T13:05:39.941Z</time></trkpt><trkpt lat="43.782619668998315" lon="12.29738062585621"><ele>997.0</ele><time>2026-05-01T13:05:40.941Z</time></trkpt><trkpt lat="43.7827900435677" lon="12.297502954230902"><ele>997.0</ele><time>2026-05-01T13:05:41.941Z</time></trkpt><trkpt lat="43.78294682305367" lon="12.297606462735342"><ele>999.6666666666666</ele><time>2026-05-01T13:05:42.941Z</time></trkpt><trkpt lat="43.78310214930441" lon="12.29771244300089"><ele>1002.3333333333333</ele><time>2026-05-01T13:05:43.941Z</time></trkpt><trkpt lat="43.78325419299856" lon="12.297825730603302"><ele>1005.0</ele><time>2026-05-01T13:05:44.942Z</time></trkpt><trkpt lat="43.78339389750892" lon="12.297989718916334"><ele>1003.6666666666667</ele><time>2026-05-01T13:05:45.942Z</time></trkpt><trkpt lat="43.78350266881052" lon="12.298150553304307"><ele>1002.3333333333334</ele><time>2026-05-01T13:05:46.942Z</time></trkpt><trkpt lat="43.783605045850905" lon="12.298359617636041"><ele>1001.0</ele><time>2026-05-01T13:05:47.942Z</time></trkpt><trkpt lat="43.783715897885536" lon="12.298586860817945"><ele>1003.6666666666667</ele><time>2026-05-01T13:05:48.942Z</time></trkpt><trkpt lat="43.78381987920744" lon="12.298816867826408"><ele>1006.3333333333333</ele><time>2026-05-01T13:05:49.942Z</time></trkpt><trkpt lat="43.783911189962396" lon="12.299021033987723"><ele>1009.0</ele><time>2026-05-01T13:05:50.941Z</time></trkpt><trkpt lat="43.7840089895357" lon="12.299190370580346"><ele>1009.0</ele><time>2026-05-01T13:05:51.941Z</time></trkpt><trkpt lat="43.78409099118536" lon="12.299354473870439"><ele>1009.0</ele><time>2026-05-01T13:05:52.941Z</time></trkpt><trkpt lat="43.78418243621187" lon="12.299498598628794"><ele>1009.0</ele><time>2026-05-01T13:05:53.942Z</time></trkpt><trkpt lat="43.784299683471346" lon="12.29962538558876"><ele>1009.0</ele><time>2026-05-01T13:05:54.941Z</time></trkpt><trkpt lat="43.78442961070398" lon="12.299720266518639"><ele>1008.3333333333333</ele><time>2026-05-01T13:05:55.941Z</time></trkpt><trkpt lat="43.78457576471466" lon="12.29979829265105"><ele>1007.6666666666667</ele><time>2026-05-01T13:05:56.941Z</time></trkpt><trkpt lat="43.7847159775716" lon="12.299876693638936"><ele>1007.0</ele><time>2026-05-01T13:05:57.941Z</time></trkpt><trkpt lat="43.784846622868756" lon="12.299953621901286"><ele>1007.0</ele><time>2026-05-01T13:05:58.941Z</time></trkpt><trkpt lat="43.78496810284841" lon="12.300022894512477"><ele>1007.0</ele><time>2026-05-01T13:05:59.941Z</time></trkpt><trkpt lat="43.78507243214041" lon="12.300055757549822"><ele>1007.0</ele><time>2026-05-01T13:06:00.941Z</time></trkpt><trkpt lat="43.785160340822" lon="12.300078720442563"><ele>1007.0</ele><time>2026-05-01T13:06:01.941Z</time></trkpt><trkpt lat="43.78529231773957" lon="12.300107626049567"><ele>1007.6666666666667</ele><time>2026-05-01T13:06:03.941Z</time></trkpt><trkpt lat="43.785343598122466" lon="12.300463877488376"><ele>1008.3333333333333</ele><time>2026-05-01T13:06:05.941Z</time></trkpt><trkpt lat="43.785349569934354" lon="12.30059874944827"><ele>1009.0</ele><time>2026-05-01T13:06:06.941Z</time></trkpt><trkpt lat="43.785375442608675" lon="12.300754825211166"><ele>1009.0</ele><time>2026-05-01T13:06:07.941Z</time></trkpt><trkpt lat="43.78540354129032" lon="12.300908358147003"><ele>1009.0000000000001</ele><time>2026-05-01T13:06:08.941Z</time></trkpt><trkpt lat="43.78542697094273" lon="12.301054012805812"><ele>1009.0000000000001</ele><time>2026-05-01T13:06:09.941Z</time></trkpt><trkpt lat="43.785406209010034" lon="12.301184318669245"><ele>1009.0</ele><time>2026-05-01T13:06:10.941Z</time></trkpt><trkpt lat="43.785383082237466" lon="12.301318469068427"><ele>1009.0</ele><time>2026-05-01T13:06:11.941Z</time></trkpt><trkpt lat="43.78536320231902" lon="12.301463690146441"><ele>1008.5</ele><time>2026-05-01T13:06:12.941Z</time></trkpt><trkpt lat="43.78531724126112" lon="12.301611180149667"><ele>1008.0</ele><time>2026-05-01T13:06:13.941Z</time></trkpt><trkpt lat="43.785247482911615" lon="12.301735518265795"><ele>1007.5</ele><time>2026-05-01T13:06:14.941Z</time></trkpt><trkpt lat="43.78516406041744" lon="12.301842351378742"><ele>1007.0</ele><time>2026-05-01T13:06:15.941Z</time></trkpt><trkpt lat="43.78505900990883" lon="12.301938173955335"><ele>1004.75</ele><time>2026-05-01T13:06:16.941Z</time></trkpt><trkpt lat="43.784937510996066" lon="12.302036376690145"><ele>1002.5</ele><time>2026-05-01T13:06:17.941Z</time></trkpt><trkpt lat="43.78480934514945" lon="12.302156294563433"><ele>1000.25</ele><time>2026-05-01T13:06:18.941Z</time></trkpt><trkpt lat="43.7846899417666" lon="12.302245040905065"><ele>998.0</ele><time>2026-05-01T13:06:19.941Z</time></trkpt><trkpt lat="43.784578972949056" lon="12.302337004587617"><ele>998.0</ele><time>2026-05-01T13:06:20.941Z</time></trkpt><trkpt lat="43.78447179555263" lon="12.302428383075176"><ele>998.0</ele><time>2026-05-01T13:06:21.941Z</time></trkpt><trkpt lat="43.78437202595995" lon="12.302518107412787"><ele>998.0</ele><time>2026-05-01T13:06:22.941Z</time></trkpt><trkpt lat="43.784277287844034" lon="12.302623479786119"><ele>998.0</ele><time>2026-05-01T13:06:23.941Z</time></trkpt><trkpt lat="43.78418030011876" lon="12.302716069900251"><ele>995.4</ele><time>2026-05-01T13:06:24.941Z</time></trkpt><trkpt lat="43.78408061683378" lon="12.302758507012406"><ele>992.8</ele><time>2026-05-01T13:06:25.941Z</time></trkpt><trkpt lat="43.78399278458771" lon="12.30277239393973"><ele>990.2</ele><time>2026-05-01T13:06:26.941Z</time></trkpt><trkpt lat="43.78390652851716" lon="12.302755970552058"><ele>987.6</ele><time>2026-05-01T13:06:27.941Z</time></trkpt><trkpt lat="43.78380790377765" lon="12.302709651183307"><ele>985.0</ele><time>2026-05-01T13:06:28.941Z</time></trkpt><trkpt lat="43.78368676878344" lon="12.302613221809105"><ele>985.0</ele><time>2026-05-01T13:06:29.941Z</time></trkpt><trkpt lat="43.783528831881284" lon="12.3025056833221"><ele>985.0</ele><time>2026-05-01T13:06:30.941Z</time></trkpt><trkpt lat="43.783374111996736" lon="12.302370244627857"><ele>985.0</ele><time>2026-05-01T13:06:31.941Z</time></trkpt><trkpt lat="43.78322770758212" lon="12.302243774623275"><ele>982.6666666666666</ele><time>2026-05-01T13:06:32.941Z</time></trkpt><trkpt lat="43.78308860478459" lon="12.302130803566074"><ele>980.3333333333333</ele><time>2026-05-01T13:06:33.941Z</time></trkpt><trkpt lat="43.78296037163832" lon="12.302026241375955"><ele>978.0</ele><time>2026-05-01T13:06:34.941Z</time></trkpt><trkpt lat="43.78282797762717" lon="12.301914137793164"><ele>978.0</ele><time>2026-05-01T13:06:35.941Z</time></trkpt><trkpt lat="43.7827000690506" lon="12.30180969995233"><ele>978.0</ele><time>2026-05-01T13:06:36.941Z</time></trkpt><trkpt lat="43.78258338330267" lon="12.301729209490372"><ele>978.0</ele><time>2026-05-01T13:06:37.941Z</time></trkpt><trkpt lat="43.78246461140058" lon="12.301677425327737"><ele>978.0</ele><time>2026-05-01T13:06:38.941Z</time></trkpt><trkpt lat="43.78234824359471" lon="12.301678141451495"><ele>976.0</ele><time>2026-05-01T13:06:39.941Z</time></trkpt><trkpt lat="43.7822251263282" lon="12.301708739432735"><ele>974.0</ele><time>2026-05-01T13:06:40.941Z</time></trkpt><trkpt lat="43.782097484888524" lon="12.30181150499491"><ele>972.0</ele><time>2026-05-01T13:06:41.941Z</time></trkpt><trkpt lat="43.78197684168172" lon="12.301923884724808"><ele>970.0</ele><time>2026-05-01T13:06:42.941Z</time></trkpt><trkpt lat="43.78187235805736" lon="12.302034391692068"><ele>968.5</ele><time>2026-05-01T13:06:43.941Z</time></trkpt><trkpt lat="43.78177528905169" lon="12.30213877100443"><ele>967.0</ele><time>2026-05-01T13:06:44.941Z</time></trkpt><trkpt lat="43.78167887636714" lon="12.30223559340414"><ele>965.5</ele><time>2026-05-01T13:06:45.941Z</time></trkpt><trkpt lat="43.781578955877684" lon="12.302326013783548"><ele>964.0</ele><time>2026-05-01T13:06:46.941Z</time></trkpt><trkpt lat="43.78147862722848" lon="12.302391549639951"><ele>964.0</ele><time>2026-05-01T13:06:47.941Z</time></trkpt><trkpt lat="43.78137592050071" lon="12.302417317137895"><ele>964.0000000000001</ele><time>2026-05-01T13:06:48.941Z</time></trkpt><trkpt lat="43.78127691020291" lon="12.302396619530423"><ele>964.0000000000001</ele><time>2026-05-01T13:06:49.941Z</time></trkpt><trkpt lat="43.78120421968271" lon="12.302298899949985"><ele>964.0</ele><time>2026-05-01T13:06:50.941Z</time></trkpt><trkpt lat="43.781116267845825" lon="12.302241160596203"><ele>964.0</ele><time>2026-05-01T13:06:51.941Z</time></trkpt><trkpt lat="43.7810372435742" lon="12.302171181816606"><ele>962.4999999999999</ele><time>2026-05-01T13:06:52.941Z</time></trkpt><trkpt lat="43.78097209829799" lon="12.30212852531985"><ele>961.0</ele><time>2026-05-01T13:06:53.941Z</time></trkpt><trkpt lat="43.78089943325401" lon="12.30210205291371"><ele>959.5</ele><time>2026-05-01T13:06:54.941Z</time></trkpt><trkpt lat="43.78081347949931" lon="12.302097550173675"><ele>958.0</ele><time>2026-05-01T13:06:55.941Z</time></trkpt><trkpt lat="43.78074333393543" lon="12.302123958870553"><ele>956.4999999999999</ele><time>2026-05-01T13:06:56.941Z</time></trkpt><trkpt lat="43.78066524845525" lon="12.302138107418761"><ele>955.0</ele><time>2026-05-01T13:06:57.941Z</time></trkpt><trkpt lat="43.78059208216628" lon="12.302206130305557"><ele>955.1666666666666</ele><time>2026-05-01T13:06:58.941Z</time></trkpt><trkpt lat="43.78053912486816" lon="12.302310462697317"><ele>955.3333333333333</ele><time>2026-05-01T13:06:59.941Z</time></trkpt><trkpt lat="43.780491893675155" lon="12.30240672279133"><ele>955.5</ele><time>2026-05-01T13:07:00.941Z</time></trkpt><trkpt lat="43.780460750783355" lon="12.30251365126786"><ele>955.6666666666667</ele><time>2026-05-01T13:07:01.941Z</time></trkpt><trkpt lat="43.78042785720912" lon="12.302625416155328"><ele>955.8333333333334</ele><time>2026-05-01T13:07:02.941Z</time></trkpt><trkpt lat="43.78042913747088" lon="12.302745156311646"><ele>956.0</ele><time>2026-05-01T13:07:03.941Z</time></trkpt><trkpt lat="43.78043340128987" lon="12.302857440076114"><ele>956.0000000000001</ele><time>2026-05-01T13:07:04.941Z</time></trkpt><trkpt lat="43.780446329621014" lon="12.3029762487478"><ele>956.0</ele><time>2026-05-01T13:07:05.941Z</time></trkpt><trkpt lat="43.78047090129721" lon="12.303092053631811"><ele>956.0</ele><time>2026-05-01T13:07:06.941Z</time></trkpt><trkpt lat="43.78050144637516" lon="12.303209337204914"><ele>956.0</ele><time>2026-05-01T13:07:07.941Z</time></trkpt><trkpt lat="43.780510588277274" lon="12.30333727627261"><ele>956.0000000000001</ele><time>2026-05-01T13:07:08.941Z</time></trkpt><trkpt lat="43.7805335430013" lon="12.303447146520346"><ele>956.0</ele><time>2026-05-01T13:07:09.941Z</time></trkpt><trkpt lat="43.780559523577416" lon="12.303559459927344"><ele>955.1666666666667</ele><time>2026-05-01T13:07:10.941Z</time></trkpt><trkpt lat="43.780587159659675" lon="12.303670315830688"><ele>954.3333333333334</ele><time>2026-05-01T13:07:11.941Z</time></trkpt><trkpt lat="43.78061628699785" lon="12.303779706102514"><ele>953.5</ele><time>2026-05-01T13:07:12.941Z</time></trkpt><trkpt lat="43.78064780090078" lon="12.303890096530985"><ele>952.6666666666667</ele><time>2026-05-01T13:07:13.941Z</time></trkpt><trkpt lat="43.78067989683552" lon="12.30400339141516"><ele>951.8333333333334</ele><time>2026-05-01T13:07:14.941Z</time></trkpt><trkpt lat="43.78071750581204" lon="12.304119232322963"><ele>951.0</ele><time>2026-05-01T13:07:15.941Z</time></trkpt><trkpt lat="43.78075031622574" lon="12.304235237823642"><ele>949.5999999999999</ele><time>2026-05-01T13:07:16.941Z</time></trkpt><trkpt lat="43.78078112036922" lon="12.304346958556474"><ele>948.1999999999999</ele><time>2026-05-01T13:07:17.941Z</time></trkpt><trkpt lat="43.78080271883765" lon="12.304478025501686"><ele>946.8000000000001</ele><time>2026-05-01T13:07:18.941Z</time></trkpt><trkpt lat="43.78080107336382" lon="12.304631317511111"><ele>945.4000000000001</ele><time>2026-05-01T13:07:19.941Z</time></trkpt><trkpt lat="43.78078352239021" lon="12.304807918567835"><ele>944.0</ele><time>2026-05-01T13:07:20.941Z</time></trkpt><trkpt lat="43.780753229732994" lon="12.304990299398455"><ele>943.25</ele><time>2026-05-01T13:07:21.941Z</time></trkpt><trkpt lat="43.780723064926114" lon="12.305158820746625"><ele>942.5</ele><time>2026-05-01T13:07:22.941Z</time></trkpt><trkpt lat="43.78068844240989" lon="12.305347135884448"><ele>941.75</ele><time>2026-05-01T13:07:23.941Z</time></trkpt><trkpt lat="43.78063388033007" lon="12.305564872568468"><ele>941.0</ele><time>2026-05-01T13:07:24.941Z</time></trkpt><trkpt lat="43.78059472256291" lon="12.305817044179562"><ele>939.3333333333334</ele><time>2026-05-01T13:07:25.941Z</time></trkpt><trkpt lat="43.78053065722482" lon="12.30611264642577"><ele>937.6666666666667</ele><time>2026-05-01T13:07:26.941Z</time></trkpt><trkpt lat="43.780473176298365" lon="12.306391772612924"><ele>936.0</ele><time>2026-05-01T13:07:27.941Z</time></trkpt><trkpt lat="43.78042950341714" lon="12.30665654315898"><ele>935.0</ele><time>2026-05-01T13:07:28.941Z</time></trkpt><trkpt lat="43.78038488604008" lon="12.30690010477308"><ele>934.0</ele><time>2026-05-01T13:07:29.941Z</time></trkpt><trkpt lat="43.78034435700793" lon="12.3071374173293"><ele>933.0</ele><time>2026-05-01T13:07:30.941Z</time></trkpt><trkpt lat="43.780308142893155" lon="12.307366658905835"><ele>931.0</ele><time>2026-05-01T13:07:31.941Z</time></trkpt><trkpt lat="43.7802743634064" lon="12.307589354847662"><ele>929.0</ele><time>2026-05-01T13:07:32.941Z</time></trkpt><trkpt lat="43.78023906804844" lon="12.30781611164099"><ele>927.0</ele><time>2026-05-01T13:07:33.941Z</time></trkpt><trkpt lat="43.780206986135305" lon="12.308033818716863"><ele>923.3333333333333</ele><time>2026-05-01T13:07:34.941Z</time></trkpt><trkpt lat="43.7801623946962" lon="12.308251290384474"><ele>919.6666666666666</ele><time>2026-05-01T13:07:35.941Z</time></trkpt><trkpt lat="43.7801151109705" lon="12.308453120170066"><ele>916.0</ele><time>2026-05-01T13:07:36.941Z</time></trkpt><trkpt lat="43.78002571347524" lon="12.308597828331527"><ele>916.0</ele><time>2026-05-01T13:07:37.941Z</time></trkpt><trkpt lat="43.77991661499437" lon="12.308742229582473"><ele>916.0</ele><time>2026-05-01T13:07:38.941Z</time></trkpt><trkpt lat="43.779801485825615" lon="12.308822865402602"><ele>916.0</ele><time>2026-05-01T13:07:39.941Z</time></trkpt><trkpt lat="43.779673530517414" lon="12.308909665624306"><ele>916.0</ele><time>2026-05-01T13:07:40.941Z</time></trkpt><trkpt lat="43.77951501146922" lon="12.30901292806473"><ele>913.0</ele><time>2026-05-01T13:07:41.941Z</time></trkpt><trkpt lat="43.779350076161805" lon="12.309120368483496"><ele>910.0</ele><time>2026-05-01T13:07:42.941Z</time></trkpt><trkpt lat="43.779193942719004" lon="12.309220033456178"><ele>907.0</ele><time>2026-05-01T13:07:43.941Z</time></trkpt><trkpt lat="43.77904810223261" lon="12.309312162131807"><ele>907.0</ele><time>2026-05-01T13:07:44.941Z</time></trkpt><trkpt lat="43.77892163924156" lon="12.309428842306657"><ele>907.0</ele><time>2026-05-01T13:07:45.941Z</time></trkpt><trkpt lat="43.77880099501994" lon="12.309536320882975"><ele>907.0</ele><time>2026-05-01T13:07:46.941Z</time></trkpt><trkpt lat="43.77869556114698" lon="12.30967478278156"><ele>907.0</ele><time>2026-05-01T13:07:47.941Z</time></trkpt><trkpt lat="43.77860842043846" lon="12.309842519022444"><ele>906.0</ele><time>2026-05-01T13:07:48.941Z</time></trkpt><trkpt lat="43.7785194525797" lon="12.310029134020404"><ele>905.0</ele><time>2026-05-01T13:07:49.941Z</time></trkpt><trkpt lat="43.77842911475687" lon="12.31023517424762"><ele>904.0</ele><time>2026-05-01T13:07:50.941Z</time></trkpt><trkpt lat="43.778340081587345" lon="12.310436559946751"><ele>900.6666666666666</ele><time>2026-05-01T13:07:51.941Z</time></trkpt><trkpt lat="43.7782604587118" lon="12.310633768157981"><ele>897.3333333333333</ele><time>2026-05-01T13:07:52.941Z</time></trkpt><trkpt lat="43.77819140046688" lon="12.310847809345034"><ele>894.0</ele><time>2026-05-01T13:07:53.94Z</time></trkpt><trkpt lat="43.77813618816567" lon="12.311089056866269"><ele>894.0</ele><time>2026-05-01T13:07:54.941Z</time></trkpt><trkpt lat="43.77808228096635" lon="12.311340449035779"><ele>894.0</ele><time>2026-05-01T13:07:55.941Z</time></trkpt><trkpt lat="43.77803291483868" lon="12.311589590339755"><ele>894.0</ele><time>2026-05-01T13:07:56.94Z</time></trkpt><trkpt lat="43.77798423889117" lon="12.311826396592956"><ele>891.6666666666667</ele><time>2026-05-01T13:07:57.94Z</time></trkpt><trkpt lat="43.777944476673" lon="12.31205604880284"><ele>889.3333333333334</ele><time>2026-05-01T13:07:58.94Z</time></trkpt><trkpt lat="43.77792260664235" lon="12.312291989742274"><ele>887.0</ele><time>2026-05-01T13:07:59.941Z</time></trkpt><trkpt lat="43.77791814711379" lon="12.312512129066654"><ele>885.25</ele><time>2026-05-01T13:08:00.941Z</time></trkpt><trkpt lat="43.77793146025249" lon="12.31270338581491"><ele>883.5</ele><time>2026-05-01T13:08:01.941Z</time></trkpt><trkpt lat="43.777962783739575" lon="12.31286833607449"><ele>881.75</ele><time>2026-05-01T13:08:02.941Z</time></trkpt><trkpt lat="43.77803028888265" lon="12.313009562448427"><ele>880.0</ele><time>2026-05-01T13:08:03.941Z</time></trkpt><trkpt lat="43.77813218664313" lon="12.313113113084235"><ele>878.25</ele><time>2026-05-01T13:08:04.941Z</time></trkpt><trkpt lat="43.77823027349729" lon="12.313204056262384"><ele>876.5</ele><time>2026-05-01T13:08:05.941Z</time></trkpt><trkpt lat="43.778355340184746" lon="12.313248580287997"><ele>874.75</ele><time>2026-05-01T13:08:06.941Z</time></trkpt><trkpt lat="43.778498391930064" lon="12.313275586705128"><ele>873.0</ele><time>2026-05-01T13:08:07.94Z</time></trkpt><trkpt lat="43.77866102338304" lon="12.313318780568581"><ele>873.0</ele><time>2026-05-01T13:08:08.94Z</time></trkpt><trkpt lat="43.77882786254279" lon="12.313365329295674"><ele>873.0</ele><time>2026-05-01T13:08:09.94Z</time></trkpt><trkpt lat="43.77898475250611" lon="12.313420669758678"><ele>873.0</ele><time>2026-05-01T13:08:10.94Z</time></trkpt><trkpt lat="43.77912298769183" lon="12.313497824264394"><ele>873.0</ele><time>2026-05-01T13:08:11.94Z</time></trkpt><trkpt lat="43.77926621680279" lon="12.313609899593402"><ele>873.0</ele><time>2026-05-01T13:08:12.94Z</time></trkpt><trkpt lat="43.77939857472338" lon="12.313745280146517"><ele>873.0</ele><time>2026-05-01T13:08:13.94Z</time></trkpt><trkpt lat="43.77953394534565" lon="12.313857640819606"><ele>873.0</ele><time>2026-05-01T13:08:14.94Z</time></trkpt><trkpt lat="43.77965955383901" lon="12.313958638290973"><ele>873.0</ele><time>2026-05-01T13:08:15.94Z</time></trkpt><trkpt lat="43.77974780726753" lon="12.314111142345356"><ele>873.0</ele><time>2026-05-01T13:08:16.94Z</time></trkpt><trkpt lat="43.7797702638091" lon="12.314303276317203"><ele>873.0</ele><time>2026-05-01T13:08:17.94Z</time></trkpt><trkpt lat="43.77976295490132" lon="12.3144997061224"><ele>873.0</ele><time>2026-05-01T13:08:18.94Z</time></trkpt><trkpt lat="43.779743046926704" lon="12.314727092604784"><ele>873.0</ele><time>2026-05-01T13:08:19.94Z</time></trkpt><trkpt lat="43.7797124763165" lon="12.31496399818909"><ele>873.0</ele><time>2026-05-01T13:08:20.94Z</time></trkpt><trkpt lat="43.77963044102121" lon="12.315169661437103"><ele>871.3333333333333</ele><time>2026-05-01T13:08:21.94Z</time></trkpt><trkpt lat="43.77953558576946" lon="12.315367136089527"><ele>869.6666666666666</ele><time>2026-05-01T13:08:22.94Z</time></trkpt><trkpt lat="43.779444688946676" lon="12.315554320816481"><ele>868.0</ele><time>2026-05-01T13:08:23.94Z</time></trkpt><trkpt lat="43.77936745668521" lon="12.315717889403386"><ele>866.0</ele><time>2026-05-01T13:08:24.94Z</time></trkpt><trkpt lat="43.779328727079836" lon="12.315894642521261"><ele>864.0</ele><time>2026-05-01T13:08:25.94Z</time></trkpt><trkpt lat="43.77932117766769" lon="12.316093054443694"><ele>862.0</ele><time>2026-05-01T13:08:26.94Z</time></trkpt><trkpt lat="43.77933426717875" lon="12.316294676909045"><ele>860.0</ele><time>2026-05-01T13:08:27.94Z</time></trkpt><trkpt lat="43.77937617172781" lon="12.316498137345517"><ele>860.0</ele><time>2026-05-01T13:08:28.94Z</time></trkpt><trkpt lat="43.779461982912224" lon="12.316683581390349"><ele>860.0</ele><time>2026-05-01T13:08:29.94Z</time></trkpt><trkpt lat="43.77957303330537" lon="12.316857959950493"><ele>860.0</ele><time>2026-05-01T13:08:30.94Z</time></trkpt><trkpt lat="43.77968311364756" lon="12.317040473863113"><ele>857.3333333333334</ele><time>2026-05-01T13:08:31.94Z</time></trkpt><trkpt lat="43.77979428080276" lon="12.317241439055913"><ele>854.6666666666667</ele><time>2026-05-01T13:08:32.94Z</time></trkpt><trkpt lat="43.77988349956977" lon="12.317435044389912"><ele>852.0</ele><time>2026-05-01T13:08:33.94Z</time></trkpt><trkpt lat="43.77993279959889" lon="12.317637582754596"><ele>852.0</ele><time>2026-05-01T13:08:34.94Z</time></trkpt><trkpt lat="43.77992328030718" lon="12.317861226542627"><ele>852.0</ele><time>2026-05-01T13:08:35.94Z</time></trkpt><trkpt lat="43.77991183450215" lon="12.318088672451873"><ele>852.0</ele><time>2026-05-01T13:08:36.94Z</time></trkpt><trkpt lat="43.77989499615444" lon="12.31832404226964"><ele>850.5</ele><time>2026-05-01T13:08:37.94Z</time></trkpt><trkpt lat="43.77989000100117" lon="12.318549708721042"><ele>849.0</ele><time>2026-05-01T13:08:38.94Z</time></trkpt><trkpt lat="43.77987733816796" lon="12.318751890177534"><ele>847.5</ele><time>2026-05-01T13:08:39.94Z</time></trkpt><trkpt lat="43.77986675976867" lon="12.318942612118896"><ele>846.0</ele><time>2026-05-01T13:08:40.94Z</time></trkpt><trkpt lat="43.7798632373247" lon="12.319136149127607"><ele>844.75</ele><time>2026-05-01T13:08:41.94Z</time></trkpt><trkpt lat="43.77985846769442" lon="12.319318947004941"><ele>843.5</ele><time>2026-05-01T13:08:42.94Z</time></trkpt><trkpt lat="43.77985608468677" lon="12.319492898196145"><ele>842.25</ele><time>2026-05-01T13:08:43.94Z</time></trkpt><trkpt lat="43.779853293535474" lon="12.319657529645333"><ele>841.0</ele><time>2026-05-01T13:08:44.94Z</time></trkpt><trkpt lat="43.77985063143352" lon="12.319822627213613"><ele>840.5</ele><time>2026-05-01T13:08:45.94Z</time></trkpt><trkpt lat="43.77985456240958" lon="12.319976191937108"><ele>840.0</ele><time>2026-05-01T13:08:46.94Z</time></trkpt><trkpt lat="43.779867423343724" lon="12.320132611461439"><ele>839.5</ele><time>2026-05-01T13:08:47.94Z</time></trkpt><trkpt lat="43.77990062877148" lon="12.320288580438124"><ele>839.0</ele><time>2026-05-01T13:08:48.94Z</time></trkpt><trkpt lat="43.779950014331696" lon="12.320431892246964"><ele>838.2</ele><time>2026-05-01T13:08:49.94Z</time></trkpt><trkpt lat="43.78000047269629" lon="12.320571547698512"><ele>837.4000000000001</ele><time>2026-05-01T13:08:50.94Z</time></trkpt><trkpt lat="43.78004315973437" lon="12.320706637234686"><ele>836.6</ele><time>2026-05-01T13:08:51.94Z</time></trkpt><trkpt lat="43.78007925436804" lon="12.32084178301993"><ele>835.8</ele><time>2026-05-01T13:08:52.94Z</time></trkpt><trkpt lat="43.7801058774952" lon="12.320985240680919"><ele>835.0</ele><time>2026-05-01T13:08:53.94Z</time></trkpt><trkpt lat="43.780132147552166" lon="12.321126118169186"><ele>835.0</ele><time>2026-05-01T13:08:54.94Z</time></trkpt><trkpt lat="43.780160378034736" lon="12.32126548903857"><ele>835.0</ele><time>2026-05-01T13:08:55.94Z</time></trkpt><trkpt lat="43.780179867680275" lon="12.321403705105373"><ele>835.0</ele><time>2026-05-01T13:08:56.94Z</time></trkpt><trkpt lat="43.78018906966269" lon="12.321542654373538"><ele>835.0</ele><time>2026-05-01T13:08:57.94Z</time></trkpt><trkpt lat="43.78017610512337" lon="12.321684392680918"><ele>835.0</ele><time>2026-05-01T13:08:58.94Z</time></trkpt><trkpt lat="43.78024097596663" lon="12.321833826468565"><ele>835.5</ele><time>2026-05-01T13:08:59.94Z</time></trkpt><trkpt lat="43.780286848276134" lon="12.322001166221492"><ele>836.0</ele><time>2026-05-01T13:09:00.94Z</time></trkpt><trkpt lat="43.78032332490498" lon="12.322189011764786"><ele>836.5</ele><time>2026-05-01T13:09:01.94Z</time></trkpt><trkpt lat="43.780359736258966" lon="12.322373632918634"><ele>837.0</ele><time>2026-05-01T13:09:02.94Z</time></trkpt><trkpt lat="43.780388921942404" lon="12.322550424125895"><ele>835.25</ele><time>2026-05-01T13:09:03.94Z</time></trkpt><trkpt lat="43.78039654763847" lon="12.322726208671014"><ele>833.5</ele><time>2026-05-01T13:09:04.94Z</time></trkpt><trkpt lat="43.78041953271065" lon="12.322879778893387"><ele>831.75</ele><time>2026-05-01T13:09:05.94Z</time></trkpt><trkpt lat="43.780439157556465" lon="12.32303772289385"><ele>830.0</ele><time>2026-05-01T13:09:06.94Z</time></trkpt><trkpt lat="43.780460443134" lon="12.323187346719514"><ele>829.0</ele><time>2026-05-01T13:09:07.94Z</time></trkpt><trkpt lat="43.7804834728027" lon="12.323336238070596"><ele>828.0</ele><time>2026-05-01T13:09:08.94Z</time></trkpt><trkpt lat="43.780500514698694" lon="12.32349586711933"><ele>827.0</ele><time>2026-05-01T13:09:09.94Z</time></trkpt><trkpt lat="43.78051094388931" lon="12.323670700742499"><ele>826.0</ele><time>2026-05-01T13:09:10.94Z</time></trkpt><trkpt lat="43.78051654916796" lon="12.323845253676309"><ele>825.0</ele><time>2026-05-01T13:09:11.94Z</time></trkpt><trkpt lat="43.78051380103401" lon="12.324024254392898"><ele>824.0</ele><time>2026-05-01T13:09:12.94Z</time></trkpt><trkpt lat="43.78051069934381" lon="12.324191147899858"><ele>823.0</ele><time>2026-05-01T13:09:13.94Z</time></trkpt><trkpt lat="43.78050114220467" lon="12.324353733770801"><ele>822.0</ele><time>2026-05-01T13:09:14.94Z</time></trkpt><trkpt lat="43.78047559050597" lon="12.324507336565189"><ele>822.0</ele><time>2026-05-01T13:09:15.94Z</time></trkpt><trkpt lat="43.78042866315615" lon="12.32463863445117"><ele>822.0</ele><time>2026-05-01T13:09:16.94Z</time></trkpt><trkpt lat="43.78034803385325" lon="12.324732431073446"><ele>822.0</ele><time>2026-05-01T13:09:17.94Z</time></trkpt><trkpt lat="43.780271120858316" lon="12.324840512218367"><ele>822.0</ele><time>2026-05-01T13:09:18.94Z</time></trkpt><trkpt lat="43.78018982330912" lon="12.324974343428996"><ele>822.0</ele><time>2026-05-01T13:09:19.94Z</time></trkpt><trkpt lat="43.780112824393704" lon="12.325085450835628"><ele>820.4000000000001</ele><time>2026-05-01T13:09:20.94Z</time></trkpt><trkpt lat="43.780030863758974" lon="12.325189932582266"><ele>818.8000000000001</ele><time>2026-05-01T13:09:21.94Z</time></trkpt><trkpt lat="43.77994077345493" lon="12.325290724919318"><ele>817.2</ele><time>2026-05-01T13:09:22.94Z</time></trkpt><trkpt lat="43.77986778324337" lon="12.325401859387302"><ele>815.6</ele><time>2026-05-01T13:09:23.94Z</time></trkpt><trkpt lat="43.77980043128297" lon="12.325509275348193"><ele>814.0</ele><time>2026-05-01T13:09:24.94Z</time></trkpt><trkpt lat="43.77972637438665" lon="12.325610882020792"><ele>813.4000000000001</ele><time>2026-05-01T13:09:25.94Z</time></trkpt><trkpt lat="43.779660968109916" lon="12.325706808215575"><ele>812.8</ele><time>2026-05-01T13:09:26.94Z</time></trkpt><trkpt lat="43.779591468883126" lon="12.32579246066487"><ele>812.2</ele><time>2026-05-01T13:09:27.94Z</time></trkpt><trkpt lat="43.77952392713947" lon="12.32588649885609"><ele>811.5999999999999</ele><time>2026-05-01T13:09:28.94Z</time></trkpt><trkpt lat="43.77945033731758" lon="12.325982188976578"><ele>811.0</ele><time>2026-05-01T13:09:29.94Z</time></trkpt><trkpt lat="43.779376930890805" lon="12.326079204900394"><ele>808.5</ele><time>2026-05-01T13:09:30.94Z</time></trkpt><trkpt lat="43.77922512728798" lon="12.32626981307668"><ele>806.0</ele><time>2026-05-01T13:09:32.94Z</time></trkpt><trkpt lat="43.779154529804025" lon="12.326371527076601"><ele>803.5</ele><time>2026-05-01T13:09:33.94Z</time></trkpt><trkpt lat="43.77910304012176" lon="12.326480474969715"><ele>801.0</ele><time>2026-05-01T13:09:34.94Z</time></trkpt><trkpt lat="43.77909462589684" lon="12.326596581664214"><ele>800.0</ele><time>2026-05-01T13:09:35.94Z</time></trkpt><trkpt lat="43.77912321437438" lon="12.326736661816254"><ele>799.0</ele><time>2026-05-01T13:09:36.94Z</time></trkpt><trkpt lat="43.779175382530205" lon="12.326866768071726"><ele>798.0</ele><time>2026-05-01T13:09:37.94Z</time></trkpt><trkpt lat="43.77920827900106" lon="12.327007531601827"><ele>797.0</ele><time>2026-05-01T13:09:38.94Z</time></trkpt><trkpt lat="43.77925471433382" lon="12.327135634057633"><ele>796.0</ele><time>2026-05-01T13:09:39.94Z</time></trkpt><trkpt lat="43.77932288795153" lon="12.327233867177132"><ele>797.4</ele><time>2026-05-01T13:09:40.94Z</time></trkpt><trkpt lat="43.77937695308647" lon="12.327334996914521"><ele>798.8</ele><time>2026-05-01T13:09:41.94Z</time></trkpt><trkpt lat="43.77944177160149" lon="12.32741975281127"><ele>800.1999999999999</ele><time>2026-05-01T13:09:42.94Z</time></trkpt><trkpt lat="43.77950852286541" lon="12.327508834008945"><ele>801.5999999999999</ele><time>2026-05-01T13:09:43.94Z</time></trkpt><trkpt lat="43.779557739566215" lon="12.327612887277365"><ele>803.0</ele><time>2026-05-01T13:09:44.94Z</time></trkpt><trkpt lat="43.7795682657317" lon="12.327739853601368"><ele>803.0</ele><time>2026-05-01T13:09:45.94Z</time></trkpt><trkpt lat="43.77956670313558" lon="12.32787112985722"><ele>803.0</ele><time>2026-05-01T13:09:46.94Z</time></trkpt><trkpt lat="43.77956824917019" lon="12.328021192068954"><ele>803.0</ele><time>2026-05-01T13:09:47.94Z</time></trkpt><trkpt lat="43.779577394363606" lon="12.328179098996072"><ele>803.0</ele><time>2026-05-01T13:09:48.94Z</time></trkpt><trkpt lat="43.779571633571564" lon="12.328337665336578"><ele>803.0</ele><time>2026-05-01T13:09:49.94Z</time></trkpt><trkpt lat="43.779569108068756" lon="12.328489718145038"><ele>800.2</ele><time>2026-05-01T13:09:50.94Z</time></trkpt><trkpt lat="43.77957162860754" lon="12.328641409504609"><ele>797.4</ele><time>2026-05-01T13:09:51.94Z</time></trkpt><trkpt lat="43.77959119196915" lon="12.328787423323499"><ele>794.6</ele><time>2026-05-01T13:09:52.94Z</time></trkpt><trkpt lat="43.779632760123846" lon="12.328907999696423"><ele>791.8000000000001</ele><time>2026-05-01T13:09:53.94Z</time></trkpt><trkpt lat="43.779700918495074" lon="12.329013377095691"><ele>789.0</ele><time>2026-05-01T13:09:54.94Z</time></trkpt><trkpt lat="43.77979446439607" lon="12.329077191300449"><ele>789.4000000000001</ele><time>2026-05-01T13:09:55.94Z</time></trkpt><trkpt lat="43.77988907352689" lon="12.32915421301532"><ele>789.8</ele><time>2026-05-01T13:09:56.94Z</time></trkpt><trkpt lat="43.77997968704512" lon="12.329232232806762"><ele>790.2</ele><time>2026-05-01T13:09:57.94Z</time></trkpt><trkpt lat="43.78006520371791" lon="12.329302599185509"><ele>790.5999999999999</ele><time>2026-05-01T13:09:58.94Z</time></trkpt><trkpt lat="43.78015347618837" lon="12.329367704819244"><ele>791.0</ele><time>2026-05-01T13:09:59.939Z</time></trkpt><trkpt lat="43.780237013142404" lon="12.329429169775247"><ele>791.0</ele><time>2026-05-01T13:10:00.94Z</time></trkpt><trkpt lat="43.78032639011591" lon="12.3294771826017"><ele>791.0</ele><time>2026-05-01T13:10:01.94Z</time></trkpt><trkpt lat="43.7804180950096" lon="12.329519716313287"><ele>791.0</ele><time>2026-05-01T13:10:02.939Z</time></trkpt><trkpt lat="43.78050361347676" lon="12.329571807596997"><ele>791.0</ele><time>2026-05-01T13:10:03.94Z</time></trkpt><trkpt lat="43.78058047312319" lon="12.329630576056452"><ele>791.0</ele><time>2026-05-01T13:10:04.94Z</time></trkpt><trkpt lat="43.78064684384706" lon="12.329701916870189"><ele>789.3333333333334</ele><time>2026-05-01T13:10:05.939Z</time></trkpt><trkpt lat="43.78068594438011" lon="12.329785771042225"><ele>787.6666666666667</ele><time>2026-05-01T13:10:06.939Z</time></trkpt><trkpt lat="43.78067832695193" lon="12.329904333018867"><ele>786.0</ele><time>2026-05-01T13:10:07.939Z</time></trkpt><trkpt lat="43.7806664598772" lon="12.3300078123911"><ele>784.3333333333333</ele><time>2026-05-01T13:10:08.939Z</time></trkpt><trkpt lat="43.78064067795821" lon="12.330121654930265"><ele>782.6666666666666</ele><time>2026-05-01T13:10:09.939Z</time></trkpt><trkpt lat="43.78061024462459" lon="12.330253829892664"><ele>781.0</ele><time>2026-05-01T13:10:10.939Z</time></trkpt><trkpt lat="43.7805839667878" lon="12.330370983700421"><ele>780.9999999999999</ele><time>2026-05-01T13:10:11.939Z</time></trkpt><trkpt lat="43.78057205411315" lon="12.330492819641757"><ele>781.0</ele><time>2026-05-01T13:10:12.939Z</time></trkpt><trkpt lat="43.78054522499283" lon="12.330609319842475"><ele>781.0</ele><time>2026-05-01T13:10:13.939Z</time></trkpt><trkpt lat="43.78051713293809" lon="12.330721508808333"><ele>781.0</ele><time>2026-05-01T13:10:14.939Z</time></trkpt><trkpt lat="43.780490432674654" lon="12.33084220219075"><ele>780.9999999999999</ele><time>2026-05-01T13:10:15.939Z</time></trkpt><trkpt lat="43.78045990281304" lon="12.330959736798492"><ele>781.0</ele><time>2026-05-01T13:10:16.939Z</time></trkpt><trkpt lat="43.78043531500519" lon="12.331073895653804"><ele>779.6666666666666</ele><time>2026-05-01T13:10:17.939Z</time></trkpt><trkpt lat="43.78040574228385" lon="12.33119636362017"><ele>778.3333333333333</ele><time>2026-05-01T13:10:18.939Z</time></trkpt><trkpt lat="43.78038152738723" lon="12.33130838837968"><ele>777.0</ele><time>2026-05-01T13:10:19.939Z</time></trkpt><trkpt lat="43.78034278750943" lon="12.33140230061076"><ele>775.6666666666667</ele><time>2026-05-01T13:10:20.939Z</time></trkpt><trkpt lat="43.78031758362837" lon="12.331509666614652"><ele>774.3333333333334</ele><time>2026-05-01T13:10:21.939Z</time></trkpt><trkpt lat="43.78029185800345" lon="12.331623204569098"><ele>773.0</ele><time>2026-05-01T13:10:22.939Z</time></trkpt><trkpt lat="43.78026534688481" lon="12.331740209236207"><ele>772.8333333333334</ele><time>2026-05-01T13:10:23.939Z</time></trkpt><trkpt lat="43.78025305112824" lon="12.331863719328805"><ele>772.6666666666667</ele><time>2026-05-01T13:10:24.939Z</time></trkpt><trkpt lat="43.78021061068116" lon="12.331972424135166"><ele>772.5</ele><time>2026-05-01T13:10:25.939Z</time></trkpt><trkpt lat="43.780186102597" lon="12.332088125525177"><ele>772.3333333333333</ele><time>2026-05-01T13:10:26.939Z</time></trkpt><trkpt lat="43.78016683785762" lon="12.332203451932788"><ele>772.1666666666666</ele><time>2026-05-01T13:10:27.939Z</time></trkpt><trkpt lat="43.78015012313788" lon="12.332319975857468"><ele>772.0</ele><time>2026-05-01T13:10:28.939Z</time></trkpt><trkpt lat="43.78010940349108" lon="12.332428452697252"><ele>769.6</ele><time>2026-05-01T13:10:29.939Z</time></trkpt><trkpt lat="43.7800823605551" lon="12.332547804497892"><ele>767.2</ele><time>2026-05-01T13:10:30.939Z</time></trkpt><trkpt lat="43.7800548792396" lon="12.332675409521544"><ele>764.8</ele><time>2026-05-01T13:10:31.939Z</time></trkpt><trkpt lat="43.78004739894716" lon="12.332803754278045"><ele>762.4</ele><time>2026-05-01T13:10:32.939Z</time></trkpt><trkpt lat="43.78003493875478" lon="12.332926463888146"><ele>760.0</ele><time>2026-05-01T13:10:33.939Z</time></trkpt><trkpt lat="43.780028989187116" lon="12.33304045678782"><ele>759.3333333333334</ele><time>2026-05-01T13:10:34.939Z</time></trkpt><trkpt lat="43.78004717949461" lon="12.333145238536337"><ele>758.6666666666667</ele><time>2026-05-01T13:10:35.939Z</time></trkpt><trkpt lat="43.780056614679516" lon="12.333255108403176"><ele>758.0</ele><time>2026-05-01T13:10:36.939Z</time></trkpt><trkpt lat="43.78008767856703" lon="12.333370989276396"><ele>757.3333333333334</ele><time>2026-05-01T13:10:37.939Z</time></trkpt><trkpt lat="43.78013895359221" lon="12.333484269540767"><ele>756.6666666666666</ele><time>2026-05-01T13:10:38.939Z</time></trkpt><trkpt lat="43.7801780906305" lon="12.333593594551152"><ele>756.0</ele><time>2026-05-01T13:10:39.939Z</time></trkpt><trkpt lat="43.780229063362896" lon="12.33368296671392"><ele>756.5999999999999</ele><time>2026-05-01T13:10:40.939Z</time></trkpt><trkpt lat="43.780268951226404" lon="12.333792144649513"><ele>757.2</ele><time>2026-05-01T13:10:41.939Z</time></trkpt><trkpt lat="43.780324278957" lon="12.333907076678662"><ele>757.8</ele><time>2026-05-01T13:10:42.939Z</time></trkpt><trkpt lat="43.78039208842747" lon="12.334010540660765"><ele>758.4000000000001</ele><time>2026-05-01T13:10:43.939Z</time></trkpt><trkpt lat="43.78043433542689" lon="12.334135696405916"><ele>759.0</ele><time>2026-05-01T13:10:44.939Z</time></trkpt><trkpt lat="43.780483558219466" lon="12.334237946658694"><ele>759.0</ele><time>2026-05-01T13:10:45.939Z</time></trkpt><trkpt lat="43.78052946640062" lon="12.334333311469488"><ele>759.0</ele><time>2026-05-01T13:10:46.939Z</time></trkpt><trkpt lat="43.78057414742522" lon="12.334426127131348"><ele>759.0</ele><time>2026-05-01T13:10:47.939Z</time></trkpt><trkpt lat="43.780618679821984" lon="12.334518109117086"><ele>759.0</ele><time>2026-05-01T13:10:48.939Z</time></trkpt><trkpt lat="43.78066185403466" lon="12.33460927267877"><ele>759.0</ele><time>2026-05-01T13:10:49.939Z</time></trkpt><trkpt lat="43.78070848447911" lon="12.33469818579753"><ele>759.0</ele><time>2026-05-01T13:10:50.939Z</time></trkpt><trkpt lat="43.780754055677875" lon="12.334789877574792"><ele>757.3333333333334</ele><time>2026-05-01T13:10:51.939Z</time></trkpt><trkpt lat="43.780799055271316" lon="12.334884176390322"><ele>755.6666666666666</ele><time>2026-05-01T13:10:52.939Z</time></trkpt><trkpt lat="43.780841857809676" lon="12.334982060005087"><ele>754.0</ele><time>2026-05-01T13:10:53.939Z</time></trkpt><trkpt lat="43.78088212358887" lon="12.335065017143059"><ele>752.3333333333333</ele><time>2026-05-01T13:10:54.938Z</time></trkpt><trkpt lat="43.780931365789165" lon="12.335182463604127"><ele>750.6666666666666</ele><time>2026-05-01T13:10:56.938Z</time></trkpt><trkpt lat="43.780882089384455" lon="12.3353139363116"><ele>749.0</ele><time>2026-05-01T13:11:00.938Z</time></trkpt><trkpt lat="43.780823975686346" lon="12.335363181047159"><ele>749.0</ele><time>2026-05-01T13:11:01.938Z</time></trkpt><trkpt lat="43.78076551372072" lon="12.335437776580763"><ele>749.0</ele><time>2026-05-01T13:11:02.938Z</time></trkpt><trkpt lat="43.78071252242065" lon="12.33551634434247"><ele>749.0</ele><time>2026-05-01T13:11:03.938Z</time></trkpt><trkpt lat="43.78065124468444" lon="12.335601605453574"><ele>749.0</ele><time>2026-05-01T13:11:05.938Z</time></trkpt><trkpt lat="43.78058751040583" lon="12.335711757146445"><ele>749.0</ele><time>2026-05-01T13:11:11.938Z</time></trkpt><trkpt lat="43.780530512772934" lon="12.335833674958119"><ele>748.6</ele><time>2026-05-01T13:11:13.938Z</time></trkpt><trkpt lat="43.780449274434716" lon="12.335946955321418"><ele>748.2</ele><time>2026-05-01T13:11:15.938Z</time></trkpt><trkpt lat="43.780362436990245" lon="12.336053957504577"><ele>747.8000000000001</ele><time>2026-05-01T13:11:17.938Z</time></trkpt><trkpt lat="43.78031620924167" lon="12.336126162816129"><ele>747.4000000000001</ele><time>2026-05-01T13:11:18.938Z</time></trkpt><trkpt lat="43.780285468663386" lon="12.336222806122757"><ele>747.0</ele><time>2026-05-01T13:11:19.938Z</time></trkpt><trkpt lat="43.780221101659485" lon="12.336306616200583"><ele>744.8333333333334</ele><time>2026-05-01T13:11:20.938Z</time></trkpt><trkpt lat="43.780171345109025" lon="12.336393615478576"><ele>742.6666666666666</ele><time>2026-05-01T13:11:21.938Z</time></trkpt><trkpt lat="43.780123577462824" lon="12.336486433491968"><ele>740.5</ele><time>2026-05-01T13:11:22.938Z</time></trkpt><trkpt lat="43.780078709206265" lon="12.336592603510764"><ele>738.3333333333333</ele><time>2026-05-01T13:11:23.938Z</time></trkpt><trkpt lat="43.78002702790654" lon="12.33669445264874"><ele>736.1666666666666</ele><time>2026-05-01T13:11:24.938Z</time></trkpt><trkpt lat="43.77997994371825" lon="12.336797531184747"><ele>734.0</ele><time>2026-05-01T13:11:25.938Z</time></trkpt><trkpt lat="43.779930895668315" lon="12.336893183409014"><ele>734.0</ele><time>2026-05-01T13:11:26.938Z</time></trkpt><trkpt lat="43.77988520392042" lon="12.336979001726625"><ele>734.0</ele><time>2026-05-01T13:11:27.938Z</time></trkpt><trkpt lat="43.77984257118011" lon="12.337063051398392"><ele>734.0</ele><time>2026-05-01T13:11:28.938Z</time></trkpt><trkpt lat="43.779809366915806" lon="12.337141490439716"><ele>734.0</ele><time>2026-05-01T13:11:29.938Z</time></trkpt><trkpt lat="43.77977815622632" lon="12.33722100636672"><ele>734.0</ele><time>2026-05-01T13:11:30.938Z</time></trkpt><trkpt lat="43.77970839861645" lon="12.337357643808708"><ele>734.0</ele><time>2026-05-01T13:11:32.938Z</time></trkpt><trkpt lat="43.77964842252" lon="12.337495832030623"><ele>732.2</ele><time>2026-05-01T13:11:34.938Z</time></trkpt><trkpt lat="43.77963039226932" lon="12.337597138713878"><ele>730.4000000000001</ele><time>2026-05-01T13:11:37.938Z</time></trkpt><trkpt lat="43.77966864249071" lon="12.337691480332815"><ele>728.6</ele><time>2026-05-01T13:11:39.938Z</time></trkpt><trkpt lat="43.77977015264882" lon="12.337761740162636"><ele>726.8</ele><time>2026-05-01T13:11:41.938Z</time></trkpt><trkpt lat="43.77983619685506" lon="12.337830142554205"><ele>725.0</ele><time>2026-05-01T13:11:42.938Z</time></trkpt><trkpt lat="43.77992457615401" lon="12.33793843030502"><ele>722.6666666666666</ele><time>2026-05-01T13:11:43.938Z</time></trkpt><trkpt lat="43.78000641459455" lon="12.338087267386564"><ele>720.3333333333334</ele><time>2026-05-01T13:11:44.938Z</time></trkpt><trkpt lat="43.78008214766304" lon="12.338283466798352"><ele>718.0</ele><time>2026-05-01T13:11:45.938Z</time></trkpt><trkpt lat="43.780149742578885" lon="12.338494907184133"><ele>719.3333333333334</ele><time>2026-05-01T13:11:46.938Z</time></trkpt><trkpt lat="43.78020990924635" lon="12.338711047773469"><ele>720.6666666666666</ele><time>2026-05-01T13:11:47.938Z</time></trkpt><trkpt lat="43.78026412432449" lon="12.338915546464333"><ele>722.0</ele><time>2026-05-01T13:11:48.938Z</time></trkpt><trkpt lat="43.78033285413442" lon="12.339126808075244"><ele>722.0</ele><time>2026-05-01T13:11:49.938Z</time></trkpt><trkpt lat="43.78039017049175" lon="12.339331300076418"><ele>722.0</ele><time>2026-05-01T13:11:50.938Z</time></trkpt><trkpt lat="43.7804545403214" lon="12.339522173963136"><ele>722.0</ele><time>2026-05-01T13:11:51.938Z</time></trkpt><trkpt lat="43.78051377084838" lon="12.33971973917013"><ele>721.0</ele><time>2026-05-01T13:11:52.938Z</time></trkpt><trkpt lat="43.780573279524916" lon="12.339915676163288"><ele>720.0</ele><time>2026-05-01T13:11:53.938Z</time></trkpt><trkpt lat="43.78062893479845" lon="12.340100299818705"><ele>719.0</ele><time>2026-05-01T13:11:54.938Z</time></trkpt><trkpt lat="43.78068838507776" lon="12.340281665457583"><ele>718.0</ele><time>2026-05-01T13:11:55.938Z</time></trkpt><trkpt lat="43.78074292703183" lon="12.34046616419002"><ele>717.0</ele><time>2026-05-01T13:11:56.938Z</time></trkpt><trkpt lat="43.78079870607602" lon="12.34064710775735"><ele>716.0</ele><time>2026-05-01T13:11:57.938Z</time></trkpt><trkpt lat="43.780846869463325" lon="12.340819000413774"><ele>715.0</ele><time>2026-05-01T13:11:58.938Z</time></trkpt><trkpt lat="43.78089320318809" lon="12.340978488102296"><ele>714.0</ele><time>2026-05-01T13:11:59.938Z</time></trkpt><trkpt lat="43.78094002785792" lon="12.341122204684947"><ele>714.0</ele><time>2026-05-01T13:12:00.938Z</time></trkpt><trkpt lat="43.78097995066695" lon="12.341254076137043"><ele>714.0</ele><time>2026-05-01T13:12:01.938Z</time></trkpt><trkpt lat="43.78101834086066" lon="12.341391305082901"><ele>714.0</ele><time>2026-05-01T13:12:02.938Z</time></trkpt><trkpt lat="43.78105229087111" lon="12.341514962130947"><ele>714.0</ele><time>2026-05-01T13:12:03.938Z</time></trkpt><trkpt lat="43.78108338207549" lon="12.34163032704146"><ele>714.0</ele><time>2026-05-01T13:12:04.938Z</time></trkpt><trkpt lat="43.78111844617378" lon="12.34174860148423"><ele>713.8000000000001</ele><time>2026-05-01T13:12:05.938Z</time></trkpt><trkpt lat="43.78115788133152" lon="12.341869872546694"><ele>713.6</ele><time>2026-05-01T13:12:06.938Z</time></trkpt><trkpt lat="43.78120326291121" lon="12.342001891621505"><ele>713.4</ele><time>2026-05-01T13:12:07.938Z</time></trkpt><trkpt lat="43.781251215057075" lon="12.342141310720853"><ele>713.2</ele><time>2026-05-01T13:12:08.938Z</time></trkpt><trkpt lat="43.781299219287966" lon="12.342291062126876"><ele>713.0</ele><time>2026-05-01T13:12:09.939Z</time></trkpt><trkpt lat="43.7813616936369" lon="12.342459327882832"><ele>712.0</ele><time>2026-05-01T13:12:10.939Z</time></trkpt><trkpt lat="43.78141985387918" lon="12.342653043425692"><ele>711.0</ele><time>2026-05-01T13:12:11.938Z</time></trkpt><trkpt lat="43.78148247978084" lon="12.342856926976747"><ele>710.0</ele><time>2026-05-01T13:12:12.938Z</time></trkpt><trkpt lat="43.78154687641348" lon="12.343061462549139"><ele>706.0</ele><time>2026-05-01T13:12:13.938Z</time></trkpt><trkpt lat="43.78162196015348" lon="12.343276812130712"><ele>702.0</ele><time>2026-05-01T13:12:14.938Z</time></trkpt><trkpt lat="43.78169263839648" lon="12.343498658525988"><ele>698.0</ele><time>2026-05-01T13:12:15.938Z</time></trkpt><trkpt lat="43.781755234092394" lon="12.34371937572843"><ele>699.3333333333333</ele><time>2026-05-01T13:12:16.938Z</time></trkpt><trkpt lat="43.78181481063125" lon="12.343942319115577"><ele>700.6666666666666</ele><time>2026-05-01T13:12:17.938Z</time></trkpt><trkpt lat="43.781866082642075" lon="12.344158165234491"><ele>702.0</ele><time>2026-05-01T13:12:18.938Z</time></trkpt><trkpt lat="43.78190580254158" lon="12.344383060236135"><ele>702.0</ele><time>2026-05-01T13:12:19.938Z</time></trkpt><trkpt lat="43.78193268197882" lon="12.34461289175478"><ele>702.0</ele><time>2026-05-01T13:12:20.938Z</time></trkpt><trkpt lat="43.78196246474706" lon="12.344840677499192"><ele>702.0</ele><time>2026-05-01T13:12:21.938Z</time></trkpt><trkpt lat="43.78199306526228" lon="12.34505390694084"><ele>701.5</ele><time>2026-05-01T13:12:22.938Z</time></trkpt><trkpt lat="43.78203664080474" lon="12.34523605669049"><ele>701.0</ele><time>2026-05-01T13:12:23.938Z</time></trkpt><trkpt lat="43.782115756269164" lon="12.345405233789462"><ele>700.5</ele><time>2026-05-01T13:12:24.938Z</time></trkpt><trkpt lat="43.78222203835271" lon="12.34557705167135"><ele>700.0</ele><time>2026-05-01T13:12:25.938Z</time></trkpt><trkpt lat="43.782354078562555" lon="12.34573190569186"><ele>699.0</ele><time>2026-05-01T13:12:26.938Z</time></trkpt><trkpt lat="43.78249114330705" lon="12.345866744316123"><ele>698.0</ele><time>2026-05-01T13:12:27.938Z</time></trkpt><trkpt lat="43.78262256921853" lon="12.345968073339295"><ele>697.0</ele><time>2026-05-01T13:12:28.938Z</time></trkpt><trkpt lat="43.78274530653106" lon="12.346071202318566"><ele>697.0</ele><time>2026-05-01T13:12:29.938Z</time></trkpt><trkpt lat="43.78286052728211" lon="12.34617812226421"><ele>697.0</ele><time>2026-05-01T13:12:30.938Z</time></trkpt><trkpt lat="43.78297010569479" lon="12.346288031813609"><ele>697.0</ele><time>2026-05-01T13:12:31.938Z</time></trkpt><trkpt lat="43.7830745251096" lon="12.346393889113715"><ele>697.0</ele><time>2026-05-01T13:12:32.938Z</time></trkpt><trkpt lat="43.78317626436723" lon="12.346491174354265"><ele>696.4000000000001</ele><time>2026-05-01T13:12:33.938Z</time></trkpt><trkpt lat="43.783250019962516" lon="12.346575606167791"><ele>695.8000000000001</ele><time>2026-05-01T13:12:34.938Z</time></trkpt><trkpt lat="43.783326299540974" lon="12.346644078169302"><ele>695.2</ele><time>2026-05-01T13:12:36.938Z</time></trkpt><trkpt lat="43.78341121124557" lon="12.346709527631365"><ele>694.6</ele><time>2026-05-01T13:12:38.938Z</time></trkpt><trkpt lat="43.78348026230391" lon="12.346765580244126"><ele>694.0</ele><time>2026-05-01T13:12:39.938Z</time></trkpt><trkpt lat="43.78357179817462" lon="12.346847535623027"><ele>694.0</ele><time>2026-05-01T13:12:40.938Z</time></trkpt><trkpt lat="43.783693583274705" lon="12.346956725457106"><ele>694.0</ele><time>2026-05-01T13:12:41.938Z</time></trkpt><trkpt lat="43.78383356571737" lon="12.347090920843444"><ele>694.0</ele><time>2026-05-01T13:12:42.938Z</time></trkpt><trkpt lat="43.7840014785165" lon="12.34725948507793"><ele>694.3333333333334</ele><time>2026-05-01T13:12:43.938Z</time></trkpt><trkpt lat="43.784178139388956" lon="12.347425686372876"><ele>694.6666666666666</ele><time>2026-05-01T13:12:44.938Z</time></trkpt><trkpt lat="43.784356740701455" lon="12.347589003808894"><ele>695.0</ele><time>2026-05-01T13:12:45.938Z</time></trkpt><trkpt lat="43.784540228314945" lon="12.347754892069368"><ele>695.0</ele><time>2026-05-01T13:12:46.938Z</time></trkpt><trkpt lat="43.78474882134172" lon="12.347951192081002"><ele>695.0</ele><time>2026-05-01T13:12:47.938Z</time></trkpt><trkpt lat="43.784963816701136" lon="12.3481554173611"><ele>696.0</ele><time>2026-05-01T13:12:48.938Z</time></trkpt><trkpt lat="43.78517355573766" lon="12.348346601249704"><ele>697.0</ele><time>2026-05-01T13:12:49.938Z</time></trkpt><trkpt lat="43.78535624735252" lon="12.348513439218744"><ele>697.0</ele><time>2026-05-01T13:12:50.938Z</time></trkpt><trkpt lat="43.78551467430643" lon="12.34867120924638"><ele>697.0</ele><time>2026-05-01T13:12:51.938Z</time></trkpt><trkpt lat="43.78564441151595" lon="12.348828385942287"><ele>697.0</ele><time>2026-05-01T13:12:52.938Z</time></trkpt><trkpt lat="43.78574411658067" lon="12.348985452805572"><ele>696.0</ele><time>2026-05-01T13:12:53.938Z</time></trkpt><trkpt lat="43.785791486523976" lon="12.349147436172682"><ele>695.0</ele><time>2026-05-01T13:12:54.938Z</time></trkpt><trkpt lat="43.78583673112597" lon="12.349299667674616"><ele>694.0</ele><time>2026-05-01T13:12:55.938Z</time></trkpt><trkpt lat="43.78588516394043" lon="12.349454359712713"><ele>693.0</ele><time>2026-05-01T13:12:56.938Z</time></trkpt><trkpt lat="43.785920360839434" lon="12.349648221824856"><ele>691.6666666666666</ele><time>2026-05-01T13:12:57.938Z</time></trkpt><trkpt lat="43.78596657204648" lon="12.349843617318362"><ele>690.3333333333333</ele><time>2026-05-01T13:12:58.938Z</time></trkpt><trkpt lat="43.786018846517784" lon="12.350037281293222"><ele>689.0</ele><time>2026-05-01T13:12:59.938Z</time></trkpt><trkpt lat="43.78607146286825" lon="12.350239779263351"><ele>691.25</ele><time>2026-05-01T13:13:00.938Z</time></trkpt><trkpt lat="43.78612158438757" lon="12.35044885775872"><ele>693.5</ele><time>2026-05-01T13:13:01.938Z</time></trkpt><trkpt lat="43.78616812766987" lon="12.350641758983745"><ele>695.75</ele><time>2026-05-01T13:13:02.938Z</time></trkpt><trkpt lat="43.78621118643813" lon="12.350820278587436"><ele>698.0</ele><time>2026-05-01T13:13:03.938Z</time></trkpt><trkpt lat="43.786251317456156" lon="12.35098041274172"><ele>698.0</ele><time>2026-05-01T13:13:04.938Z</time></trkpt><trkpt lat="43.786289316657516" lon="12.351126107258805"><ele>698.0</ele><time>2026-05-01T13:13:05.938Z</time></trkpt><trkpt lat="43.78631946914383" lon="12.351249627971736"><ele>698.0</ele><time>2026-05-01T13:13:06.938Z</time></trkpt><trkpt lat="43.786337930503684" lon="12.351343443891055"><ele>698.0</ele><time>2026-05-01T13:13:07.938Z</time></trkpt><trkpt lat="43.78638698567502" lon="12.351400189036534"><ele>698.0</ele><time>2026-05-01T13:13:09.938Z</time></trkpt><trkpt lat="43.786437908937245" lon="12.35125509966975"><ele>698.0</ele><time>2026-05-01T13:13:12.938Z</time></trkpt><trkpt lat="43.786280691548995" lon="12.350951124997348"><ele>698.0</ele><time>2026-05-01T13:13:18.938Z</time></trkpt><trkpt lat="43.78625218537796" lon="12.350836539966819"><ele>698.0</ele><time>2026-05-01T13:13:19.938Z</time></trkpt><trkpt lat="43.7862314282825" lon="12.350735936672715"><ele>698.0</ele><time>2026-05-01T13:13:20.938Z</time></trkpt><trkpt lat="43.78620427071236" lon="12.35063221377815"><ele>698.75</ele><time>2026-05-01T13:13:21.938Z</time></trkpt><trkpt lat="43.786173590837656" lon="12.350505331845515"><ele>699.5</ele><time>2026-05-01T13:13:22.938Z</time></trkpt><trkpt lat="43.7861375102942" lon="12.350358659434127"><ele>700.25</ele><time>2026-05-01T13:13:23.938Z</time></trkpt><trkpt lat="43.786099180494546" lon="12.350200296346125"><ele>701.0</ele><time>2026-05-01T13:13:24.938Z</time></trkpt><trkpt lat="43.78605004686537" lon="12.350018907028604"><ele>699.0</ele><time>2026-05-01T13:13:25.938Z</time></trkpt><trkpt lat="43.78600088725379" lon="12.349830189275314"><ele>697.0</ele><time>2026-05-01T13:13:26.938Z</time></trkpt><trkpt lat="43.78596127070416" lon="12.349658621125407"><ele>695.0</ele><time>2026-05-01T13:13:27.938Z</time></trkpt><trkpt lat="43.785920364124166" lon="12.349505272471896"><ele>693.0</ele><time>2026-05-01T13:13:28.938Z</time></trkpt><trkpt lat="43.78588157594933" lon="12.349359594966435"><ele>693.0</ele><time>2026-05-01T13:13:29.938Z</time></trkpt><trkpt lat="43.78585139232282" lon="12.349223605402361"><ele>693.0</ele><time>2026-05-01T13:13:30.938Z</time></trkpt><trkpt lat="43.785813103438095" lon="12.349086803988648"><ele>693.0</ele><time>2026-05-01T13:13:31.938Z</time></trkpt><trkpt lat="43.78576360304622" lon="12.34894859994794"><ele>693.0</ele><time>2026-05-01T13:13:32.938Z</time></trkpt><trkpt lat="43.78569471958973" lon="12.348815974064363"><ele>693.0</ele><time>2026-05-01T13:13:33.938Z</time></trkpt><trkpt lat="43.785605805521634" lon="12.348706228274112"><ele>694.0</ele><time>2026-05-01T13:13:34.938Z</time></trkpt><trkpt lat="43.78550326952824" lon="12.348599836869225"><ele>695.0</ele><time>2026-05-01T13:13:35.938Z</time></trkpt><trkpt lat="43.785392729627965" lon="12.348488286321226"><ele>696.0</ele><time>2026-05-01T13:13:36.938Z</time></trkpt><trkpt lat="43.78527809990782" lon="12.348375760789471"><ele>697.0</ele><time>2026-05-01T13:13:37.938Z</time></trkpt><trkpt lat="43.78515888896706" lon="12.348262323596705"><ele>696.5</ele><time>2026-05-01T13:13:38.938Z</time></trkpt><trkpt lat="43.7850418598052" lon="12.348154797815722"><ele>696.0</ele><time>2026-05-01T13:13:39.938Z</time></trkpt><trkpt lat="43.78492383504584" lon="12.34804789192724"><ele>695.5</ele><time>2026-05-01T13:13:40.938Z</time></trkpt><trkpt lat="43.78481242244928" lon="12.347938001061287"><ele>695.0</ele><time>2026-05-01T13:13:41.938Z</time></trkpt><trkpt lat="43.78470789951877" lon="12.347838014581093"><ele>695.0</ele><time>2026-05-01T13:13:42.938Z</time></trkpt><trkpt lat="43.784602487272664" lon="12.34774054142499"><ele>695.0</ele><time>2026-05-01T13:13:43.938Z</time></trkpt><trkpt lat="43.784498197468615" lon="12.347642767596424"><ele>695.0</ele><time>2026-05-01T13:13:44.938Z</time></trkpt><trkpt lat="43.78440279105636" lon="12.347551956591467"><ele>695.0</ele><time>2026-05-01T13:13:45.938Z</time></trkpt><trkpt lat="43.784312215820165" lon="12.347463183016245"><ele>694.75</ele><time>2026-05-01T13:13:46.938Z</time></trkpt><trkpt lat="43.7842184361674" lon="12.34737329812904"><ele>694.5</ele><time>2026-05-01T13:13:47.938Z</time></trkpt><trkpt lat="43.78412422075481" lon="12.347289096524243"><ele>694.25</ele><time>2026-05-01T13:13:48.938Z</time></trkpt><trkpt lat="43.78402964262781" lon="12.347210392890215"><ele>694.0</ele><time>2026-05-01T13:13:49.938Z</time></trkpt><trkpt lat="43.783936256740745" lon="12.347109294249027"><ele>694.0</ele><time>2026-05-01T13:13:50.938Z</time></trkpt><trkpt lat="43.78383422269749" lon="12.347012464123962"><ele>694.0</ele><time>2026-05-01T13:13:51.938Z</time></trkpt><trkpt lat="43.78373421922621" lon="12.346918986576744"><ele>694.0</ele><time>2026-05-01T13:13:52.938Z</time></trkpt><trkpt lat="43.783629732286585" lon="12.346820188161683"><ele>694.0</ele><time>2026-05-01T13:13:53.938Z</time></trkpt><trkpt lat="43.783521001906536" lon="12.346714353665151"><ele>694.75</ele><time>2026-05-01T13:13:54.938Z</time></trkpt><trkpt lat="43.7834120767066" lon="12.346615184867455"><ele>695.5</ele><time>2026-05-01T13:13:55.938Z</time></trkpt><trkpt lat="43.783303880271966" lon="12.34651868994307"><ele>696.25</ele><time>2026-05-01T13:13:56.938Z</time></trkpt><trkpt lat="43.78319453912752" lon="12.346417404580896"><ele>697.0</ele><time>2026-05-01T13:13:57.938Z</time></trkpt><trkpt lat="43.783084469107614" lon="12.346312682517093"><ele>697.0</ele><time>2026-05-01T13:13:58.938Z</time></trkpt><trkpt lat="43.78297296185691" lon="12.346211874670152"><ele>697.0</ele><time>2026-05-01T13:13:59.938Z</time></trkpt><trkpt lat="43.78286182970634" lon="12.346111437569578"><ele>697.0</ele><time>2026-05-01T13:14:00.938Z</time></trkpt><trkpt lat="43.78275011953195" lon="12.34600685808804"><ele>697.0</ele><time>2026-05-01T13:14:01.938Z</time></trkpt><trkpt lat="43.782634543003226" lon="12.345895338855145"><ele>698.0</ele><time>2026-05-01T13:14:02.938Z</time></trkpt><trkpt lat="43.78251040139627" lon="12.345776638091463"><ele>699.0</ele><time>2026-05-01T13:14:03.938Z</time></trkpt><trkpt lat="43.78237934732342" lon="12.345652781175554"><ele>700.0</ele><time>2026-05-01T13:14:04.938Z</time></trkpt><trkpt lat="43.782263150688635" lon="12.345520289627881"><ele>700.0</ele><time>2026-05-01T13:14:05.938Z</time></trkpt><trkpt lat="43.78216618191854" lon="12.345384359767412"><ele>700.0</ele><time>2026-05-01T13:14:06.937Z</time></trkpt><trkpt lat="43.78209006126196" lon="12.34520751211247"><ele>700.0</ele><time>2026-05-01T13:14:07.937Z</time></trkpt><trkpt lat="43.782017476586375" lon="12.345038905580232"><ele>700.0</ele><time>2026-05-01T13:14:08.937Z</time></trkpt><trkpt lat="43.78199394282066" lon="12.34484014818662"><ele>700.5</ele><time>2026-05-01T13:14:09.937Z</time></trkpt><trkpt lat="43.781964656302094" lon="12.344640365473552"><ele>701.0</ele><time>2026-05-01T13:14:10.937Z</time></trkpt><trkpt lat="43.781936328141185" lon="12.344445770828678"><ele>701.5</ele><time>2026-05-01T13:14:11.937Z</time></trkpt><trkpt lat="43.781891481927865" lon="12.344243845254152"><ele>702.0</ele><time>2026-05-01T13:14:12.937Z</time></trkpt><trkpt lat="43.78186200705184" lon="12.344026656319722"><ele>700.6666666666666</ele><time>2026-05-01T13:14:13.937Z</time></trkpt><trkpt lat="43.781818405610764" lon="12.343810668383103"><ele>699.3333333333333</ele><time>2026-05-01T13:14:14.938Z</time></trkpt><trkpt lat="43.78176191260728" lon="12.343608022684569"><ele>698.0</ele><time>2026-05-01T13:14:15.937Z</time></trkpt><trkpt lat="43.78169838308067" lon="12.343404881451"><ele>698.0</ele><time>2026-05-01T13:14:16.937Z</time></trkpt><trkpt lat="43.78162641658004" lon="12.343184497139987"><ele>698.0</ele><time>2026-05-01T13:14:17.937Z</time></trkpt><trkpt lat="43.78156201440708" lon="12.342976733696295"><ele>698.0</ele><time>2026-05-01T13:14:18.937Z</time></trkpt><trkpt lat="43.78150330385194" lon="12.3427988519672"><ele>701.0</ele><time>2026-05-01T13:14:19.937Z</time></trkpt><trkpt lat="43.78145139467936" lon="12.342646363929452"><ele>704.0</ele><time>2026-05-01T13:14:20.937Z</time></trkpt><trkpt lat="43.78140873998726" lon="12.342505667236754"><ele>707.0</ele><time>2026-05-01T13:14:21.937Z</time></trkpt><trkpt lat="43.78136610955312" lon="12.342359356114205"><ele>710.0</ele><time>2026-05-01T13:14:22.937Z</time></trkpt><trkpt lat="43.78132169501367" lon="12.342209108931982"><ele>710.6</ele><time>2026-05-01T13:14:23.937Z</time></trkpt><trkpt lat="43.78127291289531" lon="12.342067822411831"><ele>711.2</ele><time>2026-05-01T13:14:24.937Z</time></trkpt><trkpt lat="43.781234372620546" lon="12.34193708763569"><ele>711.8</ele><time>2026-05-01T13:14:25.937Z</time></trkpt><trkpt lat="43.78120162314358" lon="12.341829969032693"><ele>712.4</ele><time>2026-05-01T13:14:26.937Z</time></trkpt><trkpt lat="43.78117737487824" lon="12.341744602506523"><ele>713.0</ele><time>2026-05-01T13:14:27.937Z</time></trkpt><trkpt lat="43.78112696397808" lon="12.341611339335977"><ele>712.0</ele><time>2026-05-01T13:14:29.937Z</time></trkpt><trkpt lat="43.78095036554657" lon="12.341694977736406"><ele>711.0</ele><time>2026-05-01T13:14:34.937Z</time></trkpt><trkpt lat="43.7808946421797" lon="12.341823385453985"><ele>710.0</ele><time>2026-05-01T13:14:36.937Z</time></trkpt><trkpt lat="43.78082168669451" lon="12.341940870211872"><ele>709.0</ele><time>2026-05-01T13:14:38.937Z</time></trkpt><trkpt lat="43.780747386477096" lon="12.342056099300992"><ele>709.0</ele><time>2026-05-01T13:14:40.937Z</time></trkpt><trkpt lat="43.78067585737746" lon="12.342192402555723"><ele>709.0</ele><time>2026-05-01T13:14:42.937Z</time></trkpt><trkpt lat="43.78064344459599" lon="12.342278084313108"><ele>709.0</ele><time>2026-05-01T13:14:43.937Z</time></trkpt><trkpt lat="43.780606544822746" lon="12.342355705234116"><ele>709.0</ele><time>2026-05-01T13:14:44.937Z</time></trkpt><trkpt lat="43.78056325697758" lon="12.34243222027923"><ele>709.0</ele><time>2026-05-01T13:14:45.937Z</time></trkpt><trkpt lat="43.78052695722842" lon="12.342512161570127"><ele>709.0</ele><time>2026-05-01T13:14:46.937Z</time></trkpt><trkpt lat="43.7804897493032" lon="12.342593897081583"><ele>708.1428571428572</ele><time>2026-05-01T13:14:47.937Z</time></trkpt><trkpt lat="43.780461216139734" lon="12.34267579454542"><ele>707.2857142857143</ele><time>2026-05-01T13:14:48.937Z</time></trkpt><trkpt lat="43.78044401554257" lon="12.34276726294852"><ele>706.4285714285714</ele><time>2026-05-01T13:14:49.937Z</time></trkpt><trkpt lat="43.78042831446794" lon="12.342863101821813"><ele>705.5714285714287</ele><time>2026-05-01T13:14:50.937Z</time></trkpt><trkpt lat="43.78041703264496" lon="12.342963027197754"><ele>704.7142857142858</ele><time>2026-05-01T13:14:51.937Z</time></trkpt><trkpt lat="43.780414507407826" lon="12.343073988729055"><ele>703.8571428571429</ele><time>2026-05-01T13:14:52.937Z</time></trkpt><trkpt lat="43.7804170632911" lon="12.343192862697371"><ele>703.0</ele><time>2026-05-01T13:14:53.937Z</time></trkpt><trkpt lat="43.78042547727292" lon="12.343317944915446"><ele>701.0</ele><time>2026-05-01T13:14:54.937Z</time></trkpt><trkpt lat="43.78042878288639" lon="12.34344719055386"><ele>699.0</ele><time>2026-05-01T13:14:55.937Z</time></trkpt><trkpt lat="43.78042998371428" lon="12.343578109538093"><ele>697.0</ele><time>2026-05-01T13:14:56.937Z</time></trkpt><trkpt lat="43.78043002162494" lon="12.343710833176413"><ele>695.0</ele><time>2026-05-01T13:14:57.937Z</time></trkpt><trkpt lat="43.780426494699626" lon="12.34385016179342"><ele>693.0</ele><time>2026-05-01T13:14:58.937Z</time></trkpt><trkpt lat="43.78042152574902" lon="12.343989026867083"><ele>691.5999999999999</ele><time>2026-05-01T13:14:59.937Z</time></trkpt><trkpt lat="43.78041159716536" lon="12.344122610721625"><ele>690.1999999999999</ele><time>2026-05-01T13:15:00.937Z</time></trkpt><trkpt lat="43.78040071434567" lon="12.344251163133137"><ele>688.8</ele><time>2026-05-01T13:15:01.937Z</time></trkpt><trkpt lat="43.78039421547107" lon="12.344388447847978"><ele>687.4</ele><time>2026-05-01T13:15:02.937Z</time></trkpt><trkpt lat="43.780385694372384" lon="12.344523801331936"><ele>686.0</ele><time>2026-05-01T13:15:03.937Z</time></trkpt><trkpt lat="43.78037161480526" lon="12.344655393971783"><ele>685.1999999999999</ele><time>2026-05-01T13:15:04.937Z</time></trkpt><trkpt lat="43.780336451451454" lon="12.344784470105655"><ele>684.4</ele><time>2026-05-01T13:15:05.937Z</time></trkpt><trkpt lat="43.78031477690742" lon="12.344911411413399"><ele>683.6</ele><time>2026-05-01T13:15:06.937Z</time></trkpt><trkpt lat="43.78029253532637" lon="12.345035724063827"><ele>682.8</ele><time>2026-05-01T13:15:07.937Z</time></trkpt><trkpt lat="43.78027049850662" lon="12.345159313447517"><ele>682.0</ele><time>2026-05-01T13:15:08.937Z</time></trkpt><trkpt lat="43.78025020953919" lon="12.345285185396456"><ele>682.0</ele><time>2026-05-01T13:15:09.937Z</time></trkpt><trkpt lat="43.780230141716736" lon="12.345410993390306"><ele>682.0</ele><time>2026-05-01T13:15:10.937Z</time></trkpt><trkpt lat="43.780205407028674" lon="12.345545691799634"><ele>682.0</ele><time>2026-05-01T13:15:11.937Z</time></trkpt><trkpt lat="43.78017854145581" lon="12.345694988099364"><ele>682.0</ele><time>2026-05-01T13:15:12.937Z</time></trkpt><trkpt lat="43.780146682519785" lon="12.34584210394665"><ele>682.0</ele><time>2026-05-01T13:15:13.937Z</time></trkpt><trkpt lat="43.780122889809434" lon="12.346007257540917"><ele>678.75</ele><time>2026-05-01T13:15:14.937Z</time></trkpt><trkpt lat="43.78008983687724" lon="12.346184741115101"><ele>675.5</ele><time>2026-05-01T13:15:15.937Z</time></trkpt><trkpt lat="43.780053579549865" lon="12.346357673052207"><ele>672.25</ele><time>2026-05-01T13:15:16.937Z</time></trkpt><trkpt lat="43.78002245473593" lon="12.346516235548686"><ele>669.0</ele><time>2026-05-01T13:15:17.937Z</time></trkpt><trkpt lat="43.780000670571916" lon="12.346670865680546"><ele>668.4000000000001</ele><time>2026-05-01T13:15:18.937Z</time></trkpt><trkpt lat="43.77998227443469" lon="12.346826776051012"><ele>667.8</ele><time>2026-05-01T13:15:19.937Z</time></trkpt><trkpt lat="43.77997736044171" lon="12.34697322256132"><ele>667.2</ele><time>2026-05-01T13:15:20.937Z</time></trkpt><trkpt lat="43.77997559479993" lon="12.34711107599085"><ele>666.5999999999999</ele><time>2026-05-01T13:15:21.937Z</time></trkpt><trkpt lat="43.77999055076112" lon="12.347227125398978"><ele>666.0</ele><time>2026-05-01T13:15:22.937Z</time></trkpt><trkpt lat="43.77999981221476" lon="12.34731421407068"><ele>666.0</ele><time>2026-05-01T13:15:23.937Z</time></trkpt><trkpt lat="43.77996013505175" lon="12.347432167323506"><ele>666.0</ele><time>2026-05-01T13:15:25.937Z</time></trkpt><trkpt lat="43.77988906834298" lon="12.347427256630125"><ele>666.0</ele><time>2026-05-01T13:15:28.937Z</time></trkpt><trkpt lat="43.77981640419222" lon="12.347485931224805"><ele>666.0</ele><time>2026-05-01T13:15:30.937Z</time></trkpt><trkpt lat="43.779737143950584" lon="12.34744319465297"><ele>666.0</ele><time>2026-05-01T13:15:32.937Z</time></trkpt><trkpt lat="43.77959492908594" lon="12.347385736755953"><ele>666.0</ele><time>2026-05-01T13:15:34.937Z</time></trkpt><trkpt lat="43.779489069553016" lon="12.347343911384181"><ele>666.0</ele><time>2026-05-01T13:15:35.937Z</time></trkpt><trkpt lat="43.779377532461666" lon="12.347303472439382"><ele>666.0</ele><time>2026-05-01T13:15:36.937Z</time></trkpt><trkpt lat="43.77927211408783" lon="12.34727313803907"><ele>666.0</ele><time>2026-05-01T13:15:37.937Z</time></trkpt><trkpt lat="43.779172221061565" lon="12.34724468646473"><ele>666.0</ele><time>2026-05-01T13:15:38.937Z</time></trkpt><trkpt lat="43.779076837510054" lon="12.347187271415905"><ele>665.5</ele><time>2026-05-01T13:15:39.937Z</time></trkpt><trkpt lat="43.7789918984932" lon="12.347152505717787"><ele>665.0</ele><time>2026-05-01T13:15:40.937Z</time></trkpt><trkpt lat="43.77891934716413" lon="12.347117034784949"><ele>664.5</ele><time>2026-05-01T13:15:41.937Z</time></trkpt><trkpt lat="43.77883443782211" lon="12.347061218158"><ele>664.0</ele><time>2026-05-01T13:15:43.937Z</time></trkpt><trkpt lat="43.77889519477722" lon="12.34715865820609"><ele>663.5</ele><time>2026-05-01T13:21:22.918Z</time></trkpt><trkpt lat="43.77895715124346" lon="12.34719003962936"><ele>663.0</ele><time>2026-05-01T13:21:23.918Z</time></trkpt><trkpt lat="43.77902520236806" lon="12.347221099196704"><ele>663.0</ele><time>2026-05-01T13:21:24.918Z</time></trkpt><trkpt lat="43.77909847136115" lon="12.347250367495853"><ele>663.0</ele><time>2026-05-01T13:21:25.918Z</time></trkpt><trkpt lat="43.779175941626" lon="12.34727569545675"><ele>663.0</ele><time>2026-05-01T13:21:26.918Z</time></trkpt><trkpt lat="43.779272423815286" lon="12.347291340443965"><ele>663.0</ele><time>2026-05-01T13:21:27.918Z</time></trkpt><trkpt lat="43.77938119457588" lon="12.347322792858467"><ele>663.0</ele><time>2026-05-01T13:21:28.918Z</time></trkpt><trkpt lat="43.77946906473227" lon="12.347352482279744"><ele>663.5</ele><time>2026-05-01T13:21:29.918Z</time></trkpt><trkpt lat="43.7795552903569" lon="12.347380628454726"><ele>664.0</ele><time>2026-05-01T13:21:30.918Z</time></trkpt><trkpt lat="43.77963621257216" lon="12.34740625887055"><ele>664.5</ele><time>2026-05-01T13:21:31.918Z</time></trkpt><trkpt lat="43.77971055693394" lon="12.347428083661399"><ele>665.0</ele><time>2026-05-01T13:21:32.918Z</time></trkpt><trkpt lat="43.77978505466046" lon="12.34744765651394"><ele>665.5</ele><time>2026-05-01T13:21:33.918Z</time></trkpt><trkpt lat="43.77985857278769" lon="12.347471921364406"><ele>666.0</ele><time>2026-05-01T13:21:34.918Z</time></trkpt><trkpt lat="43.77995540660337" lon="12.347499508439817"><ele>666.0</ele><time>2026-05-01T13:21:36.918Z</time></trkpt><trkpt lat="43.78002434274072" lon="12.347442382587491"><ele>666.0</ele><time>2026-05-01T13:21:39.918Z</time></trkpt><trkpt lat="43.780031604853264" lon="12.34732524277918"><ele>666.0</ele><time>2026-05-01T13:21:41.918Z</time></trkpt><trkpt lat="43.78002018042879" lon="12.347237045850944"><ele>666.0</ele><time>2026-05-01T13:21:42.918Z</time></trkpt><trkpt lat="43.78000626925506" lon="12.347137269820763"><ele>666.0</ele><time>2026-05-01T13:21:43.918Z</time></trkpt><trkpt lat="43.78000314605393" lon="12.347019614215592"><ele>666.0</ele><time>2026-05-01T13:21:44.918Z</time></trkpt><trkpt lat="43.78000868177638" lon="12.346890330759111"><ele>666.0</ele><time>2026-05-01T13:21:45.918Z</time></trkpt><trkpt lat="43.78001371428075" lon="12.346758479693735"><ele>666.0</ele><time>2026-05-01T13:21:46.918Z</time></trkpt><trkpt lat="43.78001837804949" lon="12.346616634715"><ele>666.0</ele><time>2026-05-01T13:21:47.918Z</time></trkpt><trkpt lat="43.78004477038699" lon="12.34645112064202"><ele>666.0</ele><time>2026-05-01T13:21:48.918Z</time></trkpt><trkpt lat="43.78008317837965" lon="12.346268432389374"><ele>667.0</ele><time>2026-05-01T13:21:49.918Z</time></trkpt><trkpt lat="43.780126745204036" lon="12.346068929961891"><ele>668.0</ele><time>2026-05-01T13:21:50.918Z</time></trkpt><trkpt lat="43.780170245891824" lon="12.345859229885207"><ele>669.0</ele><time>2026-05-01T13:21:51.918Z</time></trkpt><trkpt lat="43.78021467190087" lon="12.345646382209008"><ele>672.25</ele><time>2026-05-01T13:21:52.918Z</time></trkpt><trkpt lat="43.780252572654796" lon="12.345433386914262"><ele>675.5</ele><time>2026-05-01T13:21:53.918Z</time></trkpt><trkpt lat="43.780283207970754" lon="12.34523581853343"><ele>678.75</ele><time>2026-05-01T13:21:54.918Z</time></trkpt><trkpt lat="43.78031644583811" lon="12.34505711642493"><ele>682.0</ele><time>2026-05-01T13:21:55.918Z</time></trkpt><trkpt lat="43.78034125190607" lon="12.34488150202548"><ele>683.0</ele><time>2026-05-01T13:21:56.918Z</time></trkpt><trkpt lat="43.780369063053776" lon="12.344706588247043"><ele>684.0</ele><time>2026-05-01T13:21:57.918Z</time></trkpt><trkpt lat="43.780394765283184" lon="12.344534283678842"><ele>685.0</ele><time>2026-05-01T13:21:58.918Z</time></trkpt><trkpt lat="43.78041387453534" lon="12.344356874905696"><ele>686.0</ele><time>2026-05-01T13:21:59.918Z</time></trkpt><trkpt lat="43.780443694110865" lon="12.344178082276452"><ele>686.0</ele><time>2026-05-01T13:22:00.918Z</time></trkpt><trkpt lat="43.78044558767242" lon="12.344003705466092"><ele>686.0</ele><time>2026-05-01T13:22:01.918Z</time></trkpt><trkpt lat="43.780452530807544" lon="12.343826088020846"><ele>686.0</ele><time>2026-05-01T13:22:02.918Z</time></trkpt><trkpt lat="43.7804641819366" lon="12.343648088307653"><ele>686.0</ele><time>2026-05-01T13:22:03.918Z</time></trkpt><trkpt lat="43.780468469854036" lon="12.343469795513235"><ele>687.75</ele><time>2026-05-01T13:22:04.918Z</time></trkpt><trkpt lat="43.780465732303" lon="12.343295129830166"><ele>689.5</ele><time>2026-05-01T13:22:05.918Z</time></trkpt><trkpt lat="43.78046599855017" lon="12.343124996204965"><ele>691.25</ele><time>2026-05-01T13:22:06.918Z</time></trkpt><trkpt lat="43.78046491250242" lon="12.342970878761049"><ele>693.0</ele><time>2026-05-01T13:22:07.918Z</time></trkpt><trkpt lat="43.780476531507716" lon="12.342834331195695"><ele>695.0</ele><time>2026-05-01T13:22:08.918Z</time></trkpt><trkpt lat="43.78049913577878" lon="12.342707320429186"><ele>697.0</ele><time>2026-05-01T13:22:09.918Z</time></trkpt><trkpt lat="43.780536996306516" lon="12.34257961929158"><ele>699.0</ele><time>2026-05-01T13:22:10.918Z</time></trkpt><trkpt lat="43.780580104988026" lon="12.342456511920767"><ele>701.0</ele><time>2026-05-01T13:22:11.918Z</time></trkpt><trkpt lat="43.78063363243397" lon="12.342336265540636"><ele>703.0</ele><time>2026-05-01T13:22:12.918Z</time></trkpt><trkpt lat="43.78069858978629" lon="12.342206723399487"><ele>704.2</ele><time>2026-05-01T13:22:13.917Z</time></trkpt><trkpt lat="43.78076112836129" lon="12.342090597191973"><ele>705.4</ele><time>2026-05-01T13:22:14.917Z</time></trkpt><trkpt lat="43.78082382042993" lon="12.341986360802254"><ele>706.6</ele><time>2026-05-01T13:22:15.917Z</time></trkpt><trkpt lat="43.78088732212113" lon="12.341892719129646"><ele>707.8000000000001</ele><time>2026-05-01T13:22:16.917Z</time></trkpt><trkpt lat="43.78095452250711" lon="12.341808918893477"><ele>709.0</ele><time>2026-05-01T13:22:17.917Z</time></trkpt><trkpt lat="43.78101000980523" lon="12.341742033397702"><ele>709.8000000000001</ele><time>2026-05-01T13:22:18.917Z</time></trkpt><trkpt lat="43.7810796339871" lon="12.341659954883404"><ele>710.6</ele><time>2026-05-01T13:22:20.917Z</time></trkpt><trkpt lat="43.781126478203376" lon="12.341573590436592"><ele>711.4</ele><time>2026-05-01T13:22:31.917Z</time></trkpt><trkpt lat="43.781059621567714" lon="12.341374234142933"><ele>712.2</ele><time>2026-05-01T13:22:33.917Z</time></trkpt><trkpt lat="43.781026039176474" lon="12.34128165291365"><ele>713.0</ele><time>2026-05-01T13:22:34.916Z</time></trkpt><trkpt lat="43.78098728646101" lon="12.341177246520134"><ele>713.1666666666666</ele><time>2026-05-01T13:22:35.917Z</time></trkpt><trkpt lat="43.78094994276786" lon="12.341071822261844"><ele>713.3333333333333</ele><time>2026-05-01T13:22:36.917Z</time></trkpt><trkpt lat="43.78091306162854" lon="12.340960609920355"><ele>713.5</ele><time>2026-05-01T13:22:37.917Z</time></trkpt><trkpt lat="43.78087948455873" lon="12.34085281099437"><ele>713.6666666666666</ele><time>2026-05-01T13:22:38.917Z</time></trkpt><trkpt lat="43.78084771577325" lon="12.34074685301647"><ele>713.8333333333334</ele><time>2026-05-01T13:22:39.917Z</time></trkpt><trkpt lat="43.780818518874696" lon="12.340640479103028"><ele>714.0</ele><time>2026-05-01T13:22:40.917Z</time></trkpt><trkpt lat="43.78079063431503" lon="12.34053261077486"><ele>714.6666666666666</ele><time>2026-05-01T13:22:41.917Z</time></trkpt><trkpt lat="43.78075751294018" lon="12.340423016310318"><ele>715.3333333333334</ele><time>2026-05-01T13:22:42.917Z</time></trkpt><trkpt lat="43.78072426944749" lon="12.340316207568412"><ele>716.0</ele><time>2026-05-01T13:22:43.917Z</time></trkpt><trkpt lat="43.78069759619191" lon="12.34021010626275"><ele>716.6666666666667</ele><time>2026-05-01T13:22:44.917Z</time></trkpt><trkpt lat="43.78066799656533" lon="12.340110670255845"><ele>717.3333333333334</ele><time>2026-05-01T13:22:45.917Z</time></trkpt><trkpt lat="43.780643009638126" lon="12.340011994486733"><ele>718.0</ele><time>2026-05-01T13:22:46.917Z</time></trkpt><trkpt lat="43.78061953567565" lon="12.3399178440198"><ele>718.0</ele><time>2026-05-01T13:22:47.917Z</time></trkpt><trkpt lat="43.78059474117582" lon="12.339826422880666"><ele>718.0</ele><time>2026-05-01T13:22:48.917Z</time></trkpt><trkpt lat="43.78056459876916" lon="12.339727453988361"><ele>718.0</ele><time>2026-05-01T13:22:49.917Z</time></trkpt><trkpt lat="43.78053589696156" lon="12.339621843422224"><ele>718.0</ele><time>2026-05-01T13:22:50.917Z</time></trkpt><trkpt lat="43.78050179208924" lon="12.339509110279895"><ele>718.0</ele><time>2026-05-01T13:22:51.917Z</time></trkpt><trkpt lat="43.78046239104664" lon="12.33939300725423"><ele>718.0</ele><time>2026-05-01T13:22:52.917Z</time></trkpt><trkpt lat="43.78042100574318" lon="12.339271918787736"><ele>718.8</ele><time>2026-05-01T13:22:53.917Z</time></trkpt><trkpt lat="43.780380747733574" lon="12.3391435977562"><ele>719.5999999999999</ele><time>2026-05-01T13:22:54.917Z</time></trkpt><trkpt lat="43.7803399184376" lon="12.339010078595667"><ele>720.4000000000001</ele><time>2026-05-01T13:22:55.917Z</time></trkpt><trkpt lat="43.78029979828412" lon="12.338883614146711"><ele>721.2</ele><time>2026-05-01T13:22:56.917Z</time></trkpt><trkpt lat="43.78026605456266" lon="12.33876664966086"><ele>722.0</ele><time>2026-05-01T13:22:57.917Z</time></trkpt><trkpt lat="43.780235652138956" lon="12.338662860908844"><ele>722.5</ele><time>2026-05-01T13:22:58.917Z</time></trkpt><trkpt lat="43.78020324080505" lon="12.338563726737144"><ele>723.0</ele><time>2026-05-01T13:22:59.917Z</time></trkpt><trkpt lat="43.78017222794001" lon="12.338453982961449"><ele>723.5</ele><time>2026-05-01T13:23:00.917Z</time></trkpt><trkpt lat="43.78013448680225" lon="12.338346235028727"><ele>724.0</ele><time>2026-05-01T13:23:01.917Z</time></trkpt><trkpt lat="43.78009625119731" lon="12.338233280761617"><ele>724.5</ele><time>2026-05-01T13:23:02.917Z</time></trkpt><trkpt lat="43.78005073289672" lon="12.338119982332147"><ele>725.0</ele><time>2026-05-01T13:23:03.917Z</time></trkpt><trkpt lat="43.780010246856335" lon="12.337999618557609"><ele>725.0</ele><time>2026-05-01T13:23:04.917Z</time></trkpt><trkpt lat="43.779959844647934" lon="12.337897207937168"><ele>725.0</ele><time>2026-05-01T13:23:05.917Z</time></trkpt><trkpt lat="43.77989617763849" lon="12.337807136578402"><ele>725.0</ele><time>2026-05-01T13:23:06.917Z</time></trkpt><trkpt lat="43.77981764318489" lon="12.337727716815408"><ele>725.0</ele><time>2026-05-01T13:23:07.917Z</time></trkpt><trkpt lat="43.77973857092695" lon="12.337659823204769"><ele>725.0</ele><time>2026-05-01T13:23:08.917Z</time></trkpt><trkpt lat="43.779653089731575" lon="12.337593826757008"><ele>725.0</ele><time>2026-05-01T13:23:09.917Z</time></trkpt><trkpt lat="43.779561718153545" lon="12.337522695719366"><ele>725.0</ele><time>2026-05-01T13:23:10.917Z</time></trkpt><trkpt lat="43.77946872301988" lon="12.337453796942272"><ele>725.0</ele><time>2026-05-01T13:23:11.917Z</time></trkpt><trkpt lat="43.77937647287294" lon="12.337391588688616"><ele>725.0</ele><time>2026-05-01T13:23:12.917Z</time></trkpt><trkpt lat="43.77927804967647" lon="12.337318688293285"><ele>725.0</ele><time>2026-05-01T13:23:13.917Z</time></trkpt><trkpt lat="43.77917486976995" lon="12.337244122350036"><ele>724.75</ele><time>2026-05-01T13:23:14.917Z</time></trkpt><trkpt lat="43.779074804574876" lon="12.337167333101675"><ele>724.5</ele><time>2026-05-01T13:23:15.917Z</time></trkpt><trkpt lat="43.778975499319735" lon="12.337088671111383"><ele>724.25</ele><time>2026-05-01T13:23:16.917Z</time></trkpt><trkpt lat="43.77886838707711" lon="12.33700740467923"><ele>724.0</ele><time>2026-05-01T13:23:17.917Z</time></trkpt><trkpt lat="43.77875942239846" lon="12.336936997203251"><ele>724.0</ele><time>2026-05-01T13:23:18.917Z</time></trkpt><trkpt lat="43.778650459199625" lon="12.336861279652295"><ele>724.0</ele><time>2026-05-01T13:23:19.917Z</time></trkpt><trkpt lat="43.77854398148098" lon="12.336785726670799"><ele>724.0</ele><time>2026-05-01T13:23:20.917Z</time></trkpt><trkpt lat="43.77844560643636" lon="12.33670830424864"><ele>724.0</ele><time>2026-05-01T13:23:21.917Z</time></trkpt><trkpt lat="43.778353125102" lon="12.33663332660738"><ele>724.0</ele><time>2026-05-01T13:23:22.917Z</time></trkpt><trkpt lat="43.77827914506213" lon="12.336558187484208"><ele>724.0</ele><time>2026-05-01T13:23:23.917Z</time></trkpt><trkpt lat="43.77822816819776" lon="12.336479174022285"><ele>724.0</ele><time>2026-05-01T13:23:24.917Z</time></trkpt><trkpt lat="43.77819025640495" lon="12.336404442869252"><ele>724.0</ele><time>2026-05-01T13:23:25.917Z</time></trkpt><trkpt lat="43.7781260594281" lon="12.336292858373426"><ele>724.0</ele><time>2026-05-01T13:23:27.917Z</time></trkpt><trkpt lat="43.77801887505451" lon="12.336299597105443"><ele>724.0</ele><time>2026-05-01T13:23:29.917Z</time></trkpt><trkpt lat="43.77792349669303" lon="12.336296366471794"><ele>724.0</ele><time>2026-05-01T13:23:31.916Z</time></trkpt><trkpt lat="43.77802475401727" lon="12.336466976167099"><ele>724.0</ele><time>2026-05-01T13:23:36.916Z</time></trkpt><trkpt lat="43.7781293411869" lon="12.336491288799145"><ele>724.0</ele><time>2026-05-01T13:23:38.916Z</time></trkpt><trkpt lat="43.778232829330435" lon="12.336561427020646"><ele>724.0</ele><time>2026-05-01T13:23:40.916Z</time></trkpt><trkpt lat="43.77829736728529" lon="12.336618849972417"><ele>724.0</ele><time>2026-05-01T13:23:41.916Z</time></trkpt><trkpt lat="43.77837452096657" lon="12.336684828125268"><ele>724.0</ele><time>2026-05-01T13:23:42.916Z</time></trkpt><trkpt lat="43.778463500788256" lon="12.336754783969917"><ele>724.0</ele><time>2026-05-01T13:23:43.916Z</time></trkpt><trkpt lat="43.778559533465874" lon="12.336822663562698"><ele>724.0</ele><time>2026-05-01T13:23:44.916Z</time></trkpt><trkpt lat="43.77865340026341" lon="12.336890573116019"><ele>724.0</ele><time>2026-05-01T13:23:45.916Z</time></trkpt><trkpt lat="43.77875355198312" lon="12.336963380288136"><ele>724.0</ele><time>2026-05-01T13:23:46.916Z</time></trkpt><trkpt lat="43.778854734313974" lon="12.337040865212094"><ele>724.0</ele><time>2026-05-01T13:23:47.916Z</time></trkpt><trkpt lat="43.77895608370872" lon="12.337121289858565"><ele>724.0</ele><time>2026-05-01T13:23:48.916Z</time></trkpt><trkpt lat="43.77906150460426" lon="12.33720452454319"><ele>724.0</ele><time>2026-05-01T13:23:49.916Z</time></trkpt><trkpt lat="43.77916805983684" lon="12.337285454680051"><ele>724.2</ele><time>2026-05-01T13:23:50.916Z</time></trkpt><trkpt lat="43.77926948560086" lon="12.337361766585511"><ele>724.4000000000001</ele><time>2026-05-01T13:23:51.916Z</time></trkpt><trkpt lat="43.77936596229393" lon="12.337427696668914"><ele>724.6</ele><time>2026-05-01T13:23:52.916Z</time></trkpt><trkpt lat="43.779460041573316" lon="12.337491825731256"><ele>724.8</ele><time>2026-05-01T13:23:53.916Z</time></trkpt><trkpt lat="43.77955403086082" lon="12.337556448896095"><ele>725.0</ele><time>2026-05-01T13:23:54.916Z</time></trkpt><trkpt lat="43.77964512717191" lon="12.337629437554991"><ele>725.0</ele><time>2026-05-01T13:23:55.916Z</time></trkpt><trkpt lat="43.779734380773974" lon="12.337709270091246"><ele>725.0</ele><time>2026-05-01T13:23:56.916Z</time></trkpt><trkpt lat="43.77981911269408" lon="12.337801127690145"><ele>725.0</ele><time>2026-05-01T13:23:57.916Z</time></trkpt><trkpt lat="43.77989718727818" lon="12.337898595878396"><ele>725.0</ele><time>2026-05-01T13:23:58.916Z</time></trkpt><trkpt lat="43.77996818742649" lon="12.338006370886436"><ele>725.0</ele><time>2026-05-01T13:23:59.916Z</time></trkpt><trkpt lat="43.78002523415768" lon="12.33812594994498"><ele>725.2</ele><time>2026-05-01T13:24:00.916Z</time></trkpt><trkpt lat="43.78006933950834" lon="12.338254672739703"><ele>725.4</ele><time>2026-05-01T13:24:01.916Z</time></trkpt><trkpt lat="43.78011145548204" lon="12.338381901127264"><ele>725.5999999999999</ele><time>2026-05-01T13:24:02.916Z</time></trkpt><trkpt lat="43.780150047282774" lon="12.338511733306738"><ele>725.8</ele><time>2026-05-01T13:24:03.916Z</time></trkpt><trkpt lat="43.78018999635154" lon="12.338637847407757"><ele>726.0</ele><time>2026-05-01T13:24:04.916Z</time></trkpt><trkpt lat="43.78023004625147" lon="12.338763470778147"><ele>725.1999999999999</ele><time>2026-05-01T13:24:05.916Z</time></trkpt><trkpt lat="43.78027167940271" lon="12.338900899217766"><ele>724.4</ele><time>2026-05-01T13:24:06.916Z</time></trkpt><trkpt lat="43.78031183284465" lon="12.339027650782853"><ele>723.6</ele><time>2026-05-01T13:24:07.916Z</time></trkpt><trkpt lat="43.780344552119494" lon="12.339147124247084"><ele>722.8</ele><time>2026-05-01T13:24:08.916Z</time></trkpt><trkpt lat="43.78037776406292" lon="12.339256190726292"><ele>722.0</ele><time>2026-05-01T13:24:09.916Z</time></trkpt><trkpt lat="43.78041257423548" lon="12.339359380437287"><ele>722.0</ele><time>2026-05-01T13:24:10.916Z</time></trkpt><trkpt lat="43.780442890239165" lon="12.33946226762031"><ele>722.0</ele><time>2026-05-01T13:24:11.916Z</time></trkpt><trkpt lat="43.780471133969804" lon="12.33956021444458"><ele>722.0</ele><time>2026-05-01T13:24:12.916Z</time></trkpt><trkpt lat="43.7804915509507" lon="12.339647716553213"><ele>722.0</ele><time>2026-05-01T13:24:13.916Z</time></trkpt><trkpt lat="43.78053042772305" lon="12.339793154535018"><ele>722.0</ele><time>2026-05-01T13:24:15.916Z</time></trkpt><trkpt lat="43.78057325564432" lon="12.33991689690076"><ele>722.0</ele><time>2026-05-01T13:24:17.916Z</time></trkpt><trkpt lat="43.780606715026906" lon="12.340043407589295"><ele>721.2</ele><time>2026-05-01T13:24:19.916Z</time></trkpt><trkpt lat="43.780645363681465" lon="12.340159405657909"><ele>720.4000000000001</ele><time>2026-05-01T13:24:21.916Z</time></trkpt><trkpt lat="43.780680878825834" lon="12.340304942277426"><ele>719.5999999999999</ele><time>2026-05-01T13:24:23.916Z</time></trkpt><trkpt lat="43.78070538231464" lon="12.340402445938201"><ele>718.8</ele><time>2026-05-01T13:24:24.916Z</time></trkpt><trkpt lat="43.78074264218056" lon="12.34051839715835"><ele>718.0</ele><time>2026-05-01T13:24:25.916Z</time></trkpt><trkpt lat="43.78078228373652" lon="12.340642123045232"><ele>717.0</ele><time>2026-05-01T13:24:26.916Z</time></trkpt><trkpt lat="43.78082811969144" lon="12.340777286377481"><ele>716.0</ele><time>2026-05-01T13:24:27.916Z</time></trkpt><trkpt lat="43.78087673044829" lon="12.340920064230929"><ele>715.0</ele><time>2026-05-01T13:24:28.916Z</time></trkpt><trkpt lat="43.78092443215343" lon="12.341070752659636"><ele>714.0</ele><time>2026-05-01T13:24:29.916Z</time></trkpt><trkpt lat="43.78097792868224" lon="12.341221139414484"><ele>713.75</ele><time>2026-05-01T13:24:30.916Z</time></trkpt><trkpt lat="43.781025426950556" lon="12.341370463087403"><ele>713.5</ele><time>2026-05-01T13:24:31.916Z</time></trkpt><trkpt lat="43.78106955292128" lon="12.341516060911767"><ele>713.25</ele><time>2026-05-01T13:24:32.916Z</time></trkpt><trkpt lat="43.781109201235964" lon="12.341667112857285"><ele>713.0</ele><time>2026-05-01T13:24:33.916Z</time></trkpt><trkpt lat="43.781155702508556" lon="12.341819250280858"><ele>713.0</ele><time>2026-05-01T13:24:34.915Z</time></trkpt><trkpt lat="43.78120548805992" lon="12.34197636555472"><ele>713.0</ele><time>2026-05-01T13:24:35.915Z</time></trkpt><trkpt lat="43.781261316407125" lon="12.342141786817907"><ele>713.0</ele><time>2026-05-01T13:24:36.915Z</time></trkpt><trkpt lat="43.78131626987175" lon="12.342309930471377"><ele>713.0</ele><time>2026-05-01T13:24:37.915Z</time></trkpt><trkpt lat="43.78136967175856" lon="12.3424821347829"><ele>712.25</ele><time>2026-05-01T13:24:38.915Z</time></trkpt><trkpt lat="43.78142856901992" lon="12.342653288372155"><ele>711.5</ele><time>2026-05-01T13:24:39.915Z</time></trkpt><trkpt lat="43.78148491634301" lon="12.342835086029405"><ele>710.75</ele><time>2026-05-01T13:24:40.916Z</time></trkpt><trkpt lat="43.78154292043548" lon="12.343029874335192"><ele>710.0</ele><time>2026-05-01T13:24:41.915Z</time></trkpt><trkpt lat="43.78160659432403" lon="12.343225147303812"><ele>706.0</ele><time>2026-05-01T13:24:42.915Z</time></trkpt><trkpt lat="43.78167103620966" lon="12.34342760919883"><ele>702.0</ele><time>2026-05-01T13:24:43.916Z</time></trkpt><trkpt lat="43.78173719835162" lon="12.343646340165067"><ele>698.0</ele><time>2026-05-01T13:24:44.915Z</time></trkpt><trkpt lat="43.781800884666744" lon="12.343870074644308"><ele>699.3333333333333</ele><time>2026-05-01T13:24:45.915Z</time></trkpt><trkpt lat="43.78186075864098" lon="12.344096760693898"><ele>700.6666666666666</ele><time>2026-05-01T13:24:46.915Z</time></trkpt><trkpt lat="43.78188422368246" lon="12.344326423012319"><ele>702.0</ele><time>2026-05-01T13:24:47.915Z</time></trkpt><trkpt lat="43.78193231181798" lon="12.344547753000708"><ele>701.5</ele><time>2026-05-01T13:24:48.915Z</time></trkpt><trkpt lat="43.78195811610462" lon="12.344763618894138"><ele>701.0</ele><time>2026-05-01T13:24:49.915Z</time></trkpt><trkpt lat="43.78198871469608" lon="12.3449596406132"><ele>700.5</ele><time>2026-05-01T13:24:50.915Z</time></trkpt><trkpt lat="43.78202892999352" lon="12.34514527972834"><ele>700.0</ele><time>2026-05-01T13:24:51.915Z</time></trkpt><trkpt lat="43.78208173528339" lon="12.345316888849336"><ele>700.0</ele><time>2026-05-01T13:24:52.915Z</time></trkpt><trkpt lat="43.78216018844172" lon="12.345482534720647"><ele>700.0</ele><time>2026-05-01T13:24:53.915Z</time></trkpt><trkpt lat="43.78226105799103" lon="12.345625944923448"><ele>700.0</ele><time>2026-05-01T13:24:54.915Z</time></trkpt><trkpt lat="43.78238351889962" lon="12.345753024233883"><ele>700.0</ele><time>2026-05-01T13:24:55.915Z</time></trkpt><trkpt lat="43.782516414114994" lon="12.345864486978373"><ele>699.0</ele><time>2026-05-01T13:24:56.915Z</time></trkpt><trkpt lat="43.782652803551706" lon="12.345977473270219"><ele>698.0</ele><time>2026-05-01T13:24:57.915Z</time></trkpt><trkpt lat="43.78279438818086" lon="12.346105640135551"><ele>697.0</ele><time>2026-05-01T13:24:58.915Z</time></trkpt><trkpt lat="43.78293699284532" lon="12.346237649578256"><ele>697.0</ele><time>2026-05-01T13:24:59.915Z</time></trkpt><trkpt lat="43.783083610004404" lon="12.346372664299178"><ele>697.0</ele><time>2026-05-01T13:25:00.915Z</time></trkpt><trkpt lat="43.783228986116804" lon="12.34651356764828"><ele>697.0</ele><time>2026-05-01T13:25:01.915Z</time></trkpt><trkpt lat="43.783373978593204" lon="12.346655615123254"><ele>696.0</ele><time>2026-05-01T13:25:02.915Z</time></trkpt><trkpt lat="43.78352090918602" lon="12.346793888240965"><ele>695.0</ele><time>2026-05-01T13:25:03.915Z</time></trkpt><trkpt lat="43.7836692032426" lon="12.346935206014532"><ele>694.0</ele><time>2026-05-01T13:25:04.915Z</time></trkpt><trkpt lat="43.78382310064781" lon="12.347077377801794"><ele>692.3333333333334</ele><time>2026-05-01T13:25:05.915Z</time></trkpt><trkpt lat="43.783979023168136" lon="12.347220674199475"><ele>690.6666666666666</ele><time>2026-05-01T13:25:06.915Z</time></trkpt><trkpt lat="43.78413780935564" lon="12.347364719629056"><ele>689.0</ele><time>2026-05-01T13:25:07.915Z</time></trkpt><trkpt lat="43.784296127225026" lon="12.347523599372495"><ele>691.0</ele><time>2026-05-01T13:25:08.915Z</time></trkpt><trkpt lat="43.7844548295429" lon="12.347680673600227"><ele>693.0</ele><time>2026-05-01T13:25:09.915Z</time></trkpt><trkpt lat="43.7846135675058" lon="12.347826093885754"><ele>695.0</ele><time>2026-05-01T13:25:10.915Z</time></trkpt><trkpt lat="43.78477875735204" lon="12.34797527573852"><ele>695.6666666666666</ele><time>2026-05-01T13:25:11.915Z</time></trkpt><trkpt lat="43.78495136463869" lon="12.348124844767526"><ele>696.3333333333334</ele><time>2026-05-01T13:25:12.915Z</time></trkpt><trkpt lat="43.78512208649731" lon="12.348282458886603"><ele>697.0</ele><time>2026-05-01T13:25:13.915Z</time></trkpt><trkpt lat="43.78529260114864" lon="12.348438899502922"><ele>697.0</ele><time>2026-05-01T13:25:14.915Z</time></trkpt><trkpt lat="43.78544865780485" lon="12.348596953708833"><ele>697.0</ele><time>2026-05-01T13:25:15.915Z</time></trkpt><trkpt lat="43.785592955057425" lon="12.348752491712583"><ele>697.0</ele><time>2026-05-01T13:25:16.915Z</time></trkpt><trkpt lat="43.78570768884108" lon="12.348911795669036"><ele>695.6666666666667</ele><time>2026-05-01T13:25:17.915Z</time></trkpt><trkpt lat="43.78577898183537" lon="12.34910253633715"><ele>694.3333333333334</ele><time>2026-05-01T13:25:18.915Z</time></trkpt><trkpt lat="43.78583920111863" lon="12.349308247895426"><ele>693.0</ele><time>2026-05-01T13:25:19.915Z</time></trkpt><trkpt lat="43.78589453133035" lon="12.349512040854833"><ele>691.6666666666666</ele><time>2026-05-01T13:25:20.915Z</time></trkpt><trkpt lat="43.78595866623229" lon="12.349727578046192"><ele>690.3333333333333</ele><time>2026-05-01T13:25:21.915Z</time></trkpt><trkpt lat="43.786012404539015" lon="12.349952346408367"><ele>689.0</ele><time>2026-05-01T13:25:22.915Z</time></trkpt><trkpt lat="43.78606411147721" lon="12.35016721765469"><ele>692.0</ele><time>2026-05-01T13:25:23.915Z</time></trkpt><trkpt lat="43.78611129602146" lon="12.350373998596641"><ele>695.0</ele><time>2026-05-01T13:25:24.915Z</time></trkpt><trkpt lat="43.786159974762626" lon="12.350575562120783"><ele>698.0</ele><time>2026-05-01T13:25:25.915Z</time></trkpt><trkpt lat="43.7862019267726" lon="12.350759901144265"><ele>698.0</ele><time>2026-05-01T13:25:26.915Z</time></trkpt><trkpt lat="43.786248024726135" lon="12.350929627405382"><ele>698.0</ele><time>2026-05-01T13:25:27.915Z</time></trkpt><trkpt lat="43.78629472206765" lon="12.351082674203791"><ele>698.0</ele><time>2026-05-01T13:25:28.915Z</time></trkpt><trkpt lat="43.78632831548818" lon="12.351219176079214"><ele>698.0</ele><time>2026-05-01T13:25:29.915Z</time></trkpt><trkpt lat="43.78635069263366" lon="12.351336810837378"><ele>698.0</ele><time>2026-05-01T13:25:30.915Z</time></trkpt><trkpt lat="43.78637604920867" lon="12.35144026749087"><ele>698.0</ele><time>2026-05-01T13:25:31.915Z</time></trkpt><trkpt lat="43.78640180925391" lon="12.351540125236253"><ele>698.0</ele><time>2026-05-01T13:25:32.915Z</time></trkpt><trkpt lat="43.78643073853282" lon="12.35164611646511"><ele>698.0</ele><time>2026-05-01T13:25:33.915Z</time></trkpt><trkpt lat="43.78645949083177" lon="12.351742616789876"><ele>698.0</ele><time>2026-05-01T13:25:34.915Z</time></trkpt><trkpt lat="43.786492869530356" lon="12.351836816420436"><ele>698.0</ele><time>2026-05-01T13:25:35.915Z</time></trkpt><trkpt lat="43.786518911547056" lon="12.351928254702065"><ele>698.0</ele><time>2026-05-01T13:25:37.914Z</time></trkpt><trkpt lat="43.786543328609625" lon="12.352036752114623"><ele>698.0</ele><time>2026-05-01T13:27:20.913Z</time></trkpt><trkpt lat="43.78660593350499" lon="12.352169680126654"><ele>698.0</ele><time>2026-05-01T13:27:22.913Z</time></trkpt><trkpt lat="43.786639395565096" lon="12.352262156265668"><ele>698.0</ele><time>2026-05-01T13:27:23.913Z</time></trkpt><trkpt lat="43.78667496125854" lon="12.352373826683483"><ele>698.0</ele><time>2026-05-01T13:27:24.913Z</time></trkpt><trkpt lat="43.786721575631105" lon="12.352497666200497"><ele>698.0</ele><time>2026-05-01T13:27:25.913Z</time></trkpt><trkpt lat="43.78677207314796" lon="12.35262591495633"><ele>698.0</ele><time>2026-05-01T13:27:26.913Z</time></trkpt><trkpt lat="43.78682817291747" lon="12.352783618714799"><ele>698.0</ele><time>2026-05-01T13:27:27.913Z</time></trkpt><trkpt lat="43.78687839009123" lon="12.352935583724916"><ele>698.0</ele><time>2026-05-01T13:27:28.913Z</time></trkpt><trkpt lat="43.78692444102272" lon="12.353068124671106"><ele>698.0</ele><time>2026-05-01T13:27:29.913Z</time></trkpt><trkpt lat="43.78697003650865" lon="12.353201367828346"><ele>702.5</ele><time>2026-05-01T13:27:30.913Z</time></trkpt><trkpt lat="43.787025845288774" lon="12.353337401704524"><ele>707.0</ele><time>2026-05-01T13:27:31.913Z</time></trkpt><trkpt lat="43.78707664924089" lon="12.35347582138284"><ele>711.5</ele><time>2026-05-01T13:27:32.913Z</time></trkpt><trkpt lat="43.787127252675695" lon="12.35361919086362"><ele>716.0</ele><time>2026-05-01T13:27:33.913Z</time></trkpt><trkpt lat="43.7871848661043" lon="12.35377240478472"><ele>714.25</ele><time>2026-05-01T13:27:34.913Z</time></trkpt><trkpt lat="43.78724603698757" lon="12.353935488467584"><ele>712.5</ele><time>2026-05-01T13:27:35.913Z</time></trkpt><trkpt lat="43.78731117809216" lon="12.354101956052506"><ele>710.75</ele><time>2026-05-01T13:27:36.913Z</time></trkpt><trkpt lat="43.78736970916929" lon="12.354281109840697"><ele>709.0</ele><time>2026-05-01T13:27:37.913Z</time></trkpt><trkpt lat="43.78739711451827" lon="12.35448949843052"><ele>708.0</ele><time>2026-05-01T13:27:38.913Z</time></trkpt><trkpt lat="43.78741120548862" lon="12.354733730880543"><ele>707.0</ele><time>2026-05-01T13:27:39.913Z</time></trkpt><trkpt lat="43.78741756344613" lon="12.355025165507971"><ele>706.0</ele><time>2026-05-01T13:27:40.913Z</time></trkpt><trkpt lat="43.78742148668575" lon="12.355328387756577"><ele>705.6666666666667</ele><time>2026-05-01T13:27:41.913Z</time></trkpt><trkpt lat="43.78743614383077" lon="12.35558731997396"><ele>705.3333333333334</ele><time>2026-05-01T13:27:42.913Z</time></trkpt><trkpt lat="43.787437653771775" lon="12.35582154956603"><ele>705.0</ele><time>2026-05-01T13:27:43.913Z</time></trkpt><trkpt lat="43.78745148851923" lon="12.35604255402977"><ele>705.0</ele><time>2026-05-01T13:27:44.913Z</time></trkpt><trkpt lat="43.78749682566291" lon="12.356261157361391"><ele>705.0</ele><time>2026-05-01T13:27:45.913Z</time></trkpt><trkpt lat="43.78756291529542" lon="12.356502068226957"><ele>705.0</ele><time>2026-05-01T13:27:46.913Z</time></trkpt><trkpt lat="43.78763369235715" lon="12.35674973539437"><ele>708.0</ele><time>2026-05-01T13:27:47.913Z</time></trkpt><trkpt lat="43.787703194677945" lon="12.356976021835111"><ele>711.0</ele><time>2026-05-01T13:27:48.913Z</time></trkpt><trkpt lat="43.78776455978702" lon="12.35717646805272"><ele>714.0</ele><time>2026-05-01T13:27:49.913Z</time></trkpt><trkpt lat="43.78782561086785" lon="12.357356185722905"><ele>714.0</ele><time>2026-05-01T13:27:50.913Z</time></trkpt><trkpt lat="43.78789970979176" lon="12.35752029909125"><ele>714.0</ele><time>2026-05-01T13:27:51.913Z</time></trkpt><trkpt lat="43.78800019360671" lon="12.357669233653892"><ele>714.0</ele><time>2026-05-01T13:27:52.913Z</time></trkpt><trkpt lat="43.78811670570648" lon="12.35780308125879"><ele>714.0</ele><time>2026-05-01T13:27:53.913Z</time></trkpt><trkpt lat="43.78825694044501" lon="12.357894556471102"><ele>714.0</ele><time>2026-05-01T13:27:54.913Z</time></trkpt><trkpt lat="43.7884250366963" lon="12.35794625620111"><ele>714.0</ele><time>2026-05-01T13:27:55.913Z</time></trkpt><trkpt lat="43.78860266136028" lon="12.357985120853922"><ele>714.0</ele><time>2026-05-01T13:27:56.913Z</time></trkpt><trkpt lat="43.78877379134924" lon="12.358036152329419"><ele>714.3333333333334</ele><time>2026-05-01T13:27:57.913Z</time></trkpt><trkpt lat="43.78893517312346" lon="12.358111291603215"><ele>714.6666666666667</ele><time>2026-05-01T13:27:58.913Z</time></trkpt><trkpt lat="43.78908290188491" lon="12.358206648466192"><ele>715.0</ele><time>2026-05-01T13:27:59.913Z</time></trkpt><trkpt lat="43.78920772874064" lon="12.35835715746361"><ele>715.0</ele><time>2026-05-01T13:28:00.913Z</time></trkpt><trkpt lat="43.78934189985858" lon="12.358531793330034"><ele>715.0</ele><time>2026-05-01T13:28:01.913Z</time></trkpt><trkpt lat="43.78947183386278" lon="12.358722598148042"><ele>715.0</ele><time>2026-05-01T13:28:02.913Z</time></trkpt><trkpt lat="43.78959631824734" lon="12.35889453889212"><ele>717.5</ele><time>2026-05-01T13:28:03.913Z</time></trkpt><trkpt lat="43.78967627054445" lon="12.359082035686653"><ele>720.0</ele><time>2026-05-01T13:28:04.913Z</time></trkpt><trkpt lat="43.78974333975425" lon="12.359255704372998"><ele>722.5</ele><time>2026-05-01T13:28:05.913Z</time></trkpt><trkpt lat="43.789772347185895" lon="12.359444281978124"><ele>725.0</ele><time>2026-05-01T13:28:06.913Z</time></trkpt><trkpt lat="43.789770404811236" lon="12.359632643386567"><ele>724.6666666666666</ele><time>2026-05-01T13:28:07.913Z</time></trkpt><trkpt lat="43.789744199175026" lon="12.359840377109723"><ele>724.3333333333334</ele><time>2026-05-01T13:28:08.913Z</time></trkpt><trkpt lat="43.78968319422985" lon="12.360047653475725"><ele>724.0</ele><time>2026-05-01T13:28:09.913Z</time></trkpt><trkpt lat="43.78960646753677" lon="12.360257096989828"><ele>724.0</ele><time>2026-05-01T13:28:10.913Z</time></trkpt><trkpt lat="43.78952130894553" lon="12.360474918509912"><ele>724.0</ele><time>2026-05-01T13:28:11.913Z</time></trkpt><trkpt lat="43.78943674201805" lon="12.360691226645217"><ele>724.0</ele><time>2026-05-01T13:28:12.912Z</time></trkpt><trkpt lat="43.78936056609928" lon="12.360887941205071"><ele>721.8000000000001</ele><time>2026-05-01T13:28:13.912Z</time></trkpt><trkpt lat="43.78931427985138" lon="12.361072727619247"><ele>719.6</ele><time>2026-05-01T13:28:14.912Z</time></trkpt><trkpt lat="43.789265339331365" lon="12.361232747098072"><ele>717.4</ele><time>2026-05-01T13:28:15.912Z</time></trkpt><trkpt lat="43.789254240050035" lon="12.361349950565124"><ele>715.2</ele><time>2026-05-01T13:28:16.912Z</time></trkpt><trkpt lat="43.78927763847217" lon="12.361454114812148"><ele>713.0</ele><time>2026-05-01T13:28:17.912Z</time></trkpt><trkpt lat="43.78933558474849" lon="12.361539757682985"><ele>715.5</ele><time>2026-05-01T13:28:18.912Z</time></trkpt><trkpt lat="43.78943587606266" lon="12.361593527576861"><ele>718.0</ele><time>2026-05-01T13:28:19.912Z</time></trkpt><trkpt lat="43.78955493619957" lon="12.361604176759958"><ele>720.5</ele><time>2026-05-01T13:28:20.912Z</time></trkpt><trkpt lat="43.789698229321765" lon="12.361586715452182"><ele>723.0</ele><time>2026-05-01T13:28:21.912Z</time></trkpt><trkpt lat="43.78986203112742" lon="12.361574249665985"><ele>723.0</ele><time>2026-05-01T13:28:22.912Z</time></trkpt><trkpt lat="43.790047736982004" lon="12.361579405619475"><ele>723.0</ele><time>2026-05-01T13:28:23.912Z</time></trkpt><trkpt lat="43.7902440780006" lon="12.361589591955912"><ele>723.0</ele><time>2026-05-01T13:28:24.912Z</time></trkpt><trkpt lat="43.790437238697294" lon="12.361625712795403"><ele>727.0</ele><time>2026-05-01T13:28:25.912Z</time></trkpt><trkpt lat="43.79060678238278" lon="12.361696123062687"><ele>731.0</ele><time>2026-05-01T13:28:26.912Z</time></trkpt><trkpt lat="43.79073817658162" lon="12.361821812873966"><ele>735.0</ele><time>2026-05-01T13:28:27.912Z</time></trkpt><trkpt lat="43.79085252921142" lon="12.36197723691785"><ele>735.0</ele><time>2026-05-01T13:28:28.912Z</time></trkpt><trkpt lat="43.790987653138814" lon="12.362174232469728"><ele>735.0</ele><time>2026-05-01T13:28:29.912Z</time></trkpt><trkpt lat="43.7911403926734" lon="12.36239385502038"><ele>735.0</ele><time>2026-05-01T13:28:30.912Z</time></trkpt><trkpt lat="43.791291499360874" lon="12.362638866576475"><ele>737.0</ele><time>2026-05-01T13:28:31.912Z</time></trkpt><trkpt lat="43.79144988182436" lon="12.362887404243644"><ele>739.0</ele><time>2026-05-01T13:28:32.912Z</time></trkpt><trkpt lat="43.7915999468665" lon="12.363117753454556"><ele>739.0</ele><time>2026-05-01T13:28:33.912Z</time></trkpt><trkpt lat="43.79173679982088" lon="12.363313565719409"><ele>739.0</ele><time>2026-05-01T13:28:34.912Z</time></trkpt><trkpt lat="43.79184599398666" lon="12.363470779700139"><ele>739.0</ele><time>2026-05-01T13:28:35.912Z</time></trkpt><trkpt lat="43.791944986101235" lon="12.363637523509428"><ele>742.6666666666667</ele><time>2026-05-01T13:28:36.912Z</time></trkpt><trkpt lat="43.79200642014052" lon="12.36384878862885"><ele>746.3333333333334</ele><time>2026-05-01T13:28:37.912Z</time></trkpt><trkpt lat="43.792031698576956" lon="12.364072341615579"><ele>750.0</ele><time>2026-05-01T13:28:38.912Z</time></trkpt><trkpt lat="43.79203134650116" lon="12.364292366151638"><ele>750.3333333333334</ele><time>2026-05-01T13:28:39.912Z</time></trkpt><trkpt lat="43.79200996562327" lon="12.364538437445416"><ele>750.6666666666667</ele><time>2026-05-01T13:28:40.912Z</time></trkpt><trkpt lat="43.791985442741144" lon="12.364824024931531"><ele>751.0</ele><time>2026-05-01T13:28:41.912Z</time></trkpt><trkpt lat="43.79196075146993" lon="12.365089412304563"><ele>751.0</ele><time>2026-05-01T13:28:42.912Z</time></trkpt><trkpt lat="43.791956001089375" lon="12.365354912460285"><ele>751.0</ele><time>2026-05-01T13:28:43.912Z</time></trkpt><trkpt lat="43.791922864005585" lon="12.36562762028352"><ele>751.0</ele><time>2026-05-01T13:28:44.912Z</time></trkpt><trkpt lat="43.79189326484047" lon="12.365882517970217"><ele>749.75</ele><time>2026-05-01T13:28:45.912Z</time></trkpt><trkpt lat="43.79186794464191" lon="12.36610570380485"><ele>748.5</ele><time>2026-05-01T13:28:46.911Z</time></trkpt><trkpt lat="43.79185429214011" lon="12.36628861737206"><ele>747.25</ele><time>2026-05-01T13:28:47.911Z</time></trkpt><trkpt lat="43.791869547958605" lon="12.366424798661033"><ele>746.0</ele><time>2026-05-01T13:28:48.911Z</time></trkpt><trkpt lat="43.791915529319716" lon="12.36650840300757"><ele>744.5999999999999</ele><time>2026-05-01T13:28:49.911Z</time></trkpt><trkpt lat="43.79197091942781" lon="12.366633848724062"><ele>743.2</ele><time>2026-05-01T13:28:51.912Z</time></trkpt><trkpt lat="43.79196463981298" lon="12.36677474824652"><ele>741.8</ele><time>2026-05-01T13:28:53.911Z</time></trkpt><trkpt lat="43.79188530030055" lon="12.366851441085657"><ele>740.4000000000001</ele><time>2026-05-01T13:28:54.911Z</time></trkpt><trkpt lat="43.7918581393015" lon="12.366974842990698"><ele>739.0</ele><time>2026-05-01T13:28:55.912Z</time></trkpt><trkpt lat="43.79182479957453" lon="12.367123867072655"><ele>738.4000000000001</ele><time>2026-05-01T13:28:56.911Z</time></trkpt><trkpt lat="43.791789707797676" lon="12.367280478746842"><ele>737.8</ele><time>2026-05-01T13:28:57.911Z</time></trkpt><trkpt lat="43.791760303150745" lon="12.367421552660286"><ele>737.2</ele><time>2026-05-01T13:28:58.911Z</time></trkpt><trkpt lat="43.79173351813875" lon="12.367560104541345"><ele>736.5999999999999</ele><time>2026-05-01T13:28:59.911Z</time></trkpt><trkpt lat="43.79171104280617" lon="12.367700711274255"><ele>736.0</ele><time>2026-05-01T13:29:00.911Z</time></trkpt><trkpt lat="43.79168584779133" lon="12.367856792240605"><ele>736.0</ele><time>2026-05-01T13:29:01.911Z</time></trkpt><trkpt lat="43.79164720955795" lon="12.368011028032598"><ele>736.0</ele><time>2026-05-01T13:29:02.911Z</time></trkpt><trkpt lat="43.79157513551647" lon="12.368162566260848"><ele>736.0</ele><time>2026-05-01T13:29:03.911Z</time></trkpt><trkpt lat="43.79150274822627" lon="12.368323440790203"><ele>736.0</ele><time>2026-05-01T13:29:04.911Z</time></trkpt><trkpt lat="43.79143171893342" lon="12.368476631357145"><ele>735.5</ele><time>2026-05-01T13:29:05.911Z</time></trkpt><trkpt lat="43.79136700291735" lon="12.368618609925758"><ele>735.0</ele><time>2026-05-01T13:29:06.911Z</time></trkpt><trkpt lat="43.791308459186055" lon="12.368755641520497"><ele>734.5</ele><time>2026-05-01T13:29:07.911Z</time></trkpt><trkpt lat="43.79124695635544" lon="12.368899599424878"><ele>734.0</ele><time>2026-05-01T13:29:08.911Z</time></trkpt><trkpt lat="43.791183991192135" lon="12.369046808129683"><ele>732.0</ele><time>2026-05-01T13:29:09.911Z</time></trkpt><trkpt lat="43.791136897477905" lon="12.369197385437914"><ele>730.0</ele><time>2026-05-01T13:29:10.911Z</time></trkpt><trkpt lat="43.791062869150224" lon="12.369342244237618"><ele>728.0</ele><time>2026-05-01T13:29:11.911Z</time></trkpt><trkpt lat="43.790988596024846" lon="12.36949475112337"><ele>726.0</ele><time>2026-05-01T13:29:12.911Z</time></trkpt><trkpt lat="43.790911757924746" lon="12.369646198641147"><ele>725.25</ele><time>2026-05-01T13:29:13.911Z</time></trkpt><trkpt lat="43.79083534497597" lon="12.369786136588958"><ele>724.5</ele><time>2026-05-01T13:29:14.911Z</time></trkpt><trkpt lat="43.79076895245877" lon="12.369913041859737"><ele>723.75</ele><time>2026-05-01T13:29:15.911Z</time></trkpt><trkpt lat="43.79070400307602" lon="12.37003233548727"><ele>723.0</ele><time>2026-05-01T13:29:16.911Z</time></trkpt><trkpt lat="43.790632760894205" lon="12.37015180674998"><ele>723.0</ele><time>2026-05-01T13:29:17.911Z</time></trkpt><trkpt lat="43.790567726350915" lon="12.37027792617218"><ele>723.0</ele><time>2026-05-01T13:29:18.911Z</time></trkpt><trkpt lat="43.79051891525413" lon="12.370402572362645"><ele>723.0</ele><time>2026-05-01T13:29:19.911Z</time></trkpt><trkpt lat="43.79047496431201" lon="12.370511943324436"><ele>723.0</ele><time>2026-05-01T13:29:20.911Z</time></trkpt><trkpt lat="43.790485525375026" lon="12.370652905621903"><ele>723.0</ele><time>2026-05-01T13:29:21.911Z</time></trkpt><trkpt lat="43.79048833770463" lon="12.370805677153013"><ele>723.0</ele><time>2026-05-01T13:29:22.911Z</time></trkpt><trkpt lat="43.790507907487644" lon="12.370964510504718"><ele>723.0</ele><time>2026-05-01T13:29:23.911Z</time></trkpt><trkpt lat="43.79053457585502" lon="12.371132889046997"><ele>723.0</ele><time>2026-05-01T13:29:24.911Z</time></trkpt><trkpt lat="43.790545359687506" lon="12.371322052284544"><ele>723.0</ele><time>2026-05-01T13:29:25.911Z</time></trkpt><trkpt lat="43.790569210335704" lon="12.371499934640136"><ele>723.0</ele><time>2026-05-01T13:29:26.911Z</time></trkpt><trkpt lat="43.79056988385441" lon="12.371650580860036"><ele>723.0</ele><time>2026-05-01T13:29:27.911Z</time></trkpt><trkpt lat="43.79056038205701" lon="12.37179002361279"><ele>723.0</ele><time>2026-05-01T13:29:28.911Z</time></trkpt><trkpt lat="43.790520399961316" lon="12.371923949085476"><ele>723.0</ele><time>2026-05-01T13:29:29.911Z</time></trkpt><trkpt lat="43.790477073289956" lon="12.3720527604863"><ele>723.0</ele><time>2026-05-01T13:29:30.911Z</time></trkpt><trkpt lat="43.79041662730344" lon="12.372126777646718"><ele>723.4</ele><time>2026-05-01T13:29:31.911Z</time></trkpt><trkpt lat="43.79036079246153" lon="12.372197771738465"><ele>723.8</ele><time>2026-05-01T13:29:32.911Z</time></trkpt><trkpt lat="43.79030178385906" lon="12.37227038868593"><ele>724.2</ele><time>2026-05-01T13:29:33.911Z</time></trkpt><trkpt lat="43.79022964825995" lon="12.372351911566888"><ele>724.6</ele><time>2026-05-01T13:29:34.911Z</time></trkpt><trkpt lat="43.79014004924096" lon="12.372444958248"><ele>725.0</ele><time>2026-05-01T13:29:35.911Z</time></trkpt><trkpt lat="43.79004915009353" lon="12.37252394781902"><ele>727.8333333333333</ele><time>2026-05-01T13:29:36.911Z</time></trkpt><trkpt lat="43.7899676657907" lon="12.372564734778464"><ele>730.6666666666666</ele><time>2026-05-01T13:29:37.911Z</time></trkpt><trkpt lat="43.7899004605622" lon="12.372572096978669"><ele>733.5</ele><time>2026-05-01T13:29:38.911Z</time></trkpt><trkpt lat="43.789833637875525" lon="12.372582466011545"><ele>736.3333333333334</ele><time>2026-05-01T13:29:39.911Z</time></trkpt><trkpt lat="43.78975001776284" lon="12.372579968245676"><ele>739.1666666666667</ele><time>2026-05-01T13:29:40.911Z</time></trkpt><trkpt lat="43.78966703546447" lon="12.372601995405299"><ele>742.0</ele><time>2026-05-01T13:29:41.911Z</time></trkpt><trkpt lat="43.78961005475122" lon="12.372671494252232"><ele>742.0</ele><time>2026-05-01T13:29:42.911Z</time></trkpt><trkpt lat="43.78954013308943" lon="12.372740974394832"><ele>742.0</ele><time>2026-05-01T13:29:43.911Z</time></trkpt><trkpt lat="43.78946789257081" lon="12.372822888502629"><ele>742.0</ele><time>2026-05-01T13:29:44.911Z</time></trkpt><trkpt lat="43.78938799260757" lon="12.372863292654884"><ele>742.0</ele><time>2026-05-01T13:29:45.911Z</time></trkpt><trkpt lat="43.789315782690885" lon="12.372897569847803"><ele>742.0</ele><time>2026-05-01T13:29:46.911Z</time></trkpt><trkpt lat="43.78924044563975" lon="12.372937187572715"><ele>742.0</ele><time>2026-05-01T13:29:47.911Z</time></trkpt><trkpt lat="43.78917567057468" lon="12.37297782484843"><ele>745.2</ele><time>2026-05-01T13:29:48.911Z</time></trkpt><trkpt lat="43.78907284044787" lon="12.373084029370489"><ele>748.4000000000001</ele><time>2026-05-01T13:29:50.911Z</time></trkpt><trkpt lat="43.78901551078631" lon="12.373166051269381"><ele>751.5999999999999</ele><time>2026-05-01T13:29:51.911Z</time></trkpt><trkpt lat="43.78895709700865" lon="12.373259369696674"><ele>754.8</ele><time>2026-05-01T13:29:52.911Z</time></trkpt><trkpt lat="43.78889823607913" lon="12.373329557834833"><ele>758.0</ele><time>2026-05-01T13:29:53.911Z</time></trkpt><trkpt lat="43.78882953428783" lon="12.373391324743734"><ele>758.0</ele><time>2026-05-01T13:29:54.911Z</time></trkpt><trkpt lat="43.78875820349168" lon="12.37345320575993"><ele>758.0</ele><time>2026-05-01T13:29:55.911Z</time></trkpt><trkpt lat="43.78869053590212" lon="12.373520102771236"><ele>758.0</ele><time>2026-05-01T13:29:56.911Z</time></trkpt><trkpt lat="43.788634273742275" lon="12.373593468532919"><ele>758.0</ele><time>2026-05-01T13:29:57.911Z</time></trkpt><trkpt lat="43.78859423915127" lon="12.373666036018276"><ele>758.0</ele><time>2026-05-01T13:29:58.911Z</time></trkpt><trkpt lat="43.78853162553983" lon="12.373806689211463"><ele>758.0</ele><time>2026-05-01T13:30:00.911Z</time></trkpt><trkpt lat="43.788501814163645" lon="12.373886882584182"><ele>757.5714285714287</ele><time>2026-05-01T13:30:01.911Z</time></trkpt><trkpt lat="43.78846978514439" lon="12.373965573411523"><ele>757.1428571428571</ele><time>2026-05-01T13:30:02.911Z</time></trkpt><trkpt lat="43.78843588805655" lon="12.374051535559072"><ele>756.7142857142858</ele><time>2026-05-01T13:30:03.911Z</time></trkpt><trkpt lat="43.788402074203674" lon="12.374138626107424"><ele>756.2857142857143</ele><time>2026-05-01T13:30:04.911Z</time></trkpt><trkpt lat="43.788374543207574" lon="12.37422665063344"><ele>755.8571428571429</ele><time>2026-05-01T13:30:05.911Z</time></trkpt><trkpt lat="43.7883462161174" lon="12.374310752614909"><ele>755.4285714285714</ele><time>2026-05-01T13:30:06.911Z</time></trkpt><trkpt lat="43.78832353854603" lon="12.374398718290461"><ele>755.0</ele><time>2026-05-01T13:30:07.911Z</time></trkpt><trkpt lat="43.78831092231981" lon="12.37449040400241"><ele>755.0</ele><time>2026-05-01T13:30:08.911Z</time></trkpt><trkpt lat="43.78831455589871" lon="12.374585912184681"><ele>755.0</ele><time>2026-05-01T13:30:09.911Z</time></trkpt><trkpt lat="43.78832901565382" lon="12.374682338218898"><ele>755.0</ele><time>2026-05-01T13:30:10.911Z</time></trkpt><trkpt lat="43.78835630531384" lon="12.374783011725851"><ele>755.0</ele><time>2026-05-01T13:30:11.911Z</time></trkpt><trkpt lat="43.78839587759949" lon="12.374877221675971"><ele>755.0</ele><time>2026-05-01T13:30:12.911Z</time></trkpt><trkpt lat="43.788439921289985" lon="12.37497889039537"><ele>755.0</ele><time>2026-05-01T13:30:13.911Z</time></trkpt><trkpt lat="43.78848869110554" lon="12.375085724642055"><ele>757.8</ele><time>2026-05-01T13:30:14.911Z</time></trkpt><trkpt lat="43.78853768410041" lon="12.375201098767752"><ele>760.6</ele><time>2026-05-01T13:30:15.911Z</time></trkpt><trkpt lat="43.788576679669426" lon="12.375346415358287"><ele>763.4000000000001</ele><time>2026-05-01T13:30:16.911Z</time></trkpt><trkpt lat="43.78860416402729" lon="12.375501523313364"><ele>766.2</ele><time>2026-05-01T13:30:17.911Z</time></trkpt><trkpt lat="43.78863969892803" lon="12.37565861475634"><ele>769.0</ele><time>2026-05-01T13:30:18.911Z</time></trkpt><trkpt lat="43.7886778531204" lon="12.375794601411677"><ele>769.0</ele><time>2026-05-01T13:30:19.911Z</time></trkpt><trkpt lat="43.78870319046989" lon="12.375918742465352"><ele>769.0</ele><time>2026-05-01T13:30:20.911Z</time></trkpt><trkpt lat="43.78871855025138" lon="12.376051652852361"><ele>769.0</ele><time>2026-05-01T13:30:21.911Z</time></trkpt><trkpt lat="43.78872369101782" lon="12.376190388695266"><ele>769.0</ele><time>2026-05-01T13:30:22.911Z</time></trkpt><trkpt lat="43.7887223667532" lon="12.376328056979444"><ele>769.0</ele><time>2026-05-01T13:30:23.911Z</time></trkpt><trkpt lat="43.78869009757025" lon="12.376464411412718"><ele>768.0</ele><time>2026-05-01T13:30:24.911Z</time></trkpt><trkpt lat="43.78869358826144" lon="12.376612143242902"><ele>767.0</ele><time>2026-05-01T13:30:25.911Z</time></trkpt><trkpt lat="43.78869810628129" lon="12.376778778424542"><ele>766.0</ele><time>2026-05-01T13:30:26.911Z</time></trkpt><trkpt lat="43.78870528035284" lon="12.376931104332474"><ele>765.0</ele><time>2026-05-01T13:30:27.911Z</time></trkpt><trkpt lat="43.78871397042946" lon="12.377071333915845"><ele>764.0</ele><time>2026-05-01T13:30:28.911Z</time></trkpt><trkpt lat="43.788725645459785" lon="12.377210254319694"><ele>763.8000000000001</ele><time>2026-05-01T13:30:29.911Z</time></trkpt><trkpt lat="43.78874535481543" lon="12.377340170353188"><ele>763.6</ele><time>2026-05-01T13:30:30.91Z</time></trkpt><trkpt lat="43.78880283190085" lon="12.377453609875086"><ele>763.4</ele><time>2026-05-01T13:30:31.91Z</time></trkpt><trkpt lat="43.78885091015677" lon="12.377572689520056"><ele>763.2</ele><time>2026-05-01T13:30:32.91Z</time></trkpt><trkpt lat="43.788874000560234" lon="12.37769858059662"><ele>763.0</ele><time>2026-05-01T13:30:33.91Z</time></trkpt><trkpt lat="43.78887676209551" lon="12.377796272895207"><ele>763.0</ele><time>2026-05-01T13:30:34.91Z</time></trkpt><trkpt lat="43.7888644755026" lon="12.377891516698174"><ele>763.0</ele><time>2026-05-01T13:30:35.91Z</time></trkpt><trkpt lat="43.78882538223236" lon="12.378057739434322"><ele>763.0</ele><time>2026-05-01T13:30:37.91Z</time></trkpt><trkpt lat="43.78879055945228" lon="12.378141080813245"><ele>763.0</ele><time>2026-05-01T13:30:38.91Z</time></trkpt><trkpt lat="43.78874667678302" lon="12.378213666266824"><ele>763.0</ele><time>2026-05-01T13:30:39.91Z</time></trkpt><trkpt lat="43.788689164954015" lon="12.378260412872413"><ele>763.0</ele><time>2026-05-01T13:30:40.91Z</time></trkpt><trkpt lat="43.788640453398386" lon="12.378321606721151"><ele>762.6666666666667</ele><time>2026-05-01T13:30:41.91Z</time></trkpt><trkpt lat="43.78859539736103" lon="12.378385552152357"><ele>762.3333333333334</ele><time>2026-05-01T13:30:42.91Z</time></trkpt><trkpt lat="43.78855469256241" lon="12.378453660811791"><ele>762.0</ele><time>2026-05-01T13:30:43.91Z</time></trkpt><trkpt lat="43.788514787925344" lon="12.378547321541513"><ele>761.6666666666666</ele><time>2026-05-01T13:30:44.91Z</time></trkpt><trkpt lat="43.788472446889635" lon="12.37865350769452"><ele>761.3333333333333</ele><time>2026-05-01T13:30:45.91Z</time></trkpt><trkpt lat="43.788425866468536" lon="12.378778922654035"><ele>761.0</ele><time>2026-05-01T13:30:46.91Z</time></trkpt><trkpt lat="43.7883796226547" lon="12.37890445768984"><ele>761.0</ele><time>2026-05-01T13:30:47.91Z</time></trkpt><trkpt lat="43.7883424572782" lon="12.379044856666932"><ele>761.0</ele><time>2026-05-01T13:30:48.91Z</time></trkpt><trkpt lat="43.788288438750605" lon="12.37917459446614"><ele>761.0</ele><time>2026-05-01T13:30:49.91Z</time></trkpt><trkpt lat="43.788235930543436" lon="12.379311522115689"><ele>761.0</ele><time>2026-05-01T13:30:50.91Z</time></trkpt><trkpt lat="43.78817820858523" lon="12.379453778031333"><ele>761.0</ele><time>2026-05-01T13:30:51.91Z</time></trkpt><trkpt lat="43.78812731380832" lon="12.379587658573673"><ele>762.0</ele><time>2026-05-01T13:30:52.909Z</time></trkpt><trkpt lat="43.78806669439631" lon="12.37969200659814"><ele>763.0</ele><time>2026-05-01T13:30:53.909Z</time></trkpt><trkpt lat="43.788018948938245" lon="12.379810946071235"><ele>764.0</ele><time>2026-05-01T13:30:54.909Z</time></trkpt><trkpt lat="43.78796794037167" lon="12.37994082163775"><ele>765.0</ele><time>2026-05-01T13:30:55.909Z</time></trkpt><trkpt lat="43.7879271164921" lon="12.38009796273587"><ele>766.0</ele><time>2026-05-01T13:30:56.909Z</time></trkpt><trkpt lat="43.78786656266376" lon="12.380228658190141"><ele>766.0</ele><time>2026-05-01T13:30:57.909Z</time></trkpt><trkpt lat="43.78782534530381" lon="12.38034899949621"><ele>766.0</ele><time>2026-05-01T13:30:58.909Z</time></trkpt><trkpt lat="43.787770719226565" lon="12.380461661603798"><ele>766.0</ele><time>2026-05-01T13:30:59.909Z</time></trkpt><trkpt lat="43.78772318442611" lon="12.38058848038315"><ele>766.0</ele><time>2026-05-01T13:31:00.909Z</time></trkpt><trkpt lat="43.787671331049694" lon="12.380718719426225"><ele>766.0</ele><time>2026-05-01T13:31:01.909Z</time></trkpt><trkpt lat="43.78761837904636" lon="12.380851379265502"><ele>763.6666666666667</ele><time>2026-05-01T13:31:02.909Z</time></trkpt><trkpt lat="43.787570439252086" lon="12.380956018318283"><ele>761.3333333333334</ele><time>2026-05-01T13:31:03.909Z</time></trkpt><trkpt lat="43.787511768618465" lon="12.381038989541404"><ele>759.0</ele><time>2026-05-01T13:31:04.91Z</time></trkpt><trkpt lat="43.78746588900466" lon="12.381116533650227"><ele>756.6666666666666</ele><time>2026-05-01T13:31:05.909Z</time></trkpt><trkpt lat="43.78742007567858" lon="12.381190623805681"><ele>754.3333333333333</ele><time>2026-05-01T13:31:06.909Z</time></trkpt><trkpt lat="43.787387387121605" lon="12.381279023194969"><ele>752.0</ele><time>2026-05-01T13:31:08.909Z</time></trkpt><trkpt lat="43.78742730954848" lon="12.38117492995527"><ele>752.0</ele><time>2026-05-01T13:31:48.909Z</time></trkpt><trkpt lat="43.787555854886705" lon="12.380959178323424"><ele>752.0</ele><time>2026-05-01T13:31:50.909Z</time></trkpt><trkpt lat="43.787614727733214" lon="12.38083996710896"><ele>752.0</ele><time>2026-05-01T13:31:51.909Z</time></trkpt><trkpt lat="43.78766599441256" lon="12.380724187237359"><ele>752.0</ele><time>2026-05-01T13:31:52.909Z</time></trkpt><trkpt lat="43.78770618252679" lon="12.380624627561884"><ele>754.4000000000001</ele><time>2026-05-01T13:31:53.909Z</time></trkpt><trkpt lat="43.787761093350454" lon="12.380525212880784"><ele>756.8000000000001</ele><time>2026-05-01T13:31:54.909Z</time></trkpt><trkpt lat="43.787806655141075" lon="12.380404500913498"><ele>759.2</ele><time>2026-05-01T13:31:55.909Z</time></trkpt><trkpt lat="43.78784704875176" lon="12.380292394288215"><ele>761.6</ele><time>2026-05-01T13:31:56.909Z</time></trkpt><trkpt lat="43.78788983379134" lon="12.380178098672868"><ele>764.0</ele><time>2026-05-01T13:31:57.909Z</time></trkpt><trkpt lat="43.787934815515634" lon="12.380053475987422"><ele>764.4000000000001</ele><time>2026-05-01T13:31:58.909Z</time></trkpt><trkpt lat="43.7879849409487" lon="12.379934948490662"><ele>764.8</ele><time>2026-05-01T13:31:59.909Z</time></trkpt><trkpt lat="43.78803410306267" lon="12.379806997586178"><ele>765.2</ele><time>2026-05-01T13:32:00.909Z</time></trkpt><trkpt lat="43.78808443814941" lon="12.379684727549334"><ele>765.5999999999999</ele><time>2026-05-01T13:32:01.909Z</time></trkpt><trkpt lat="43.788126374611785" lon="12.37956696282273"><ele>766.0</ele><time>2026-05-01T13:32:02.909Z</time></trkpt><trkpt lat="43.7881571665576" lon="12.379436514489862"><ele>765.0</ele><time>2026-05-01T13:32:03.909Z</time></trkpt><trkpt lat="43.78821402749298" lon="12.379311515402618"><ele>764.0</ele><time>2026-05-01T13:32:04.909Z</time></trkpt><trkpt lat="43.78827156917599" lon="12.379182629238407"><ele>763.0</ele><time>2026-05-01T13:32:05.909Z</time></trkpt><trkpt lat="43.788332474133895" lon="12.379050345674427"><ele>762.0</ele><time>2026-05-01T13:32:06.909Z</time></trkpt><trkpt lat="43.78838625642884" lon="12.378912979260893"><ele>761.0</ele><time>2026-05-01T13:32:07.909Z</time></trkpt><trkpt lat="43.78844291219025" lon="12.378772596314683"><ele>760.5</ele><time>2026-05-01T13:32:08.909Z</time></trkpt><trkpt lat="43.78849015492448" lon="12.378653497429626"><ele>760.0</ele><time>2026-05-01T13:32:09.909Z</time></trkpt><trkpt lat="43.788529829537396" lon="12.37855194138279"><ele>759.5</ele><time>2026-05-01T13:32:10.909Z</time></trkpt><trkpt lat="43.78854427952563" lon="12.378457475060964"><ele>759.0</ele><time>2026-05-01T13:32:11.909Z</time></trkpt><trkpt lat="43.7885775044752" lon="12.378367281511007"><ele>758.5</ele><time>2026-05-01T13:32:12.909Z</time></trkpt><trkpt lat="43.78861288214912" lon="12.378271244060908"><ele>758.0</ele><time>2026-05-01T13:32:13.909Z</time></trkpt><trkpt lat="43.78874888286218" lon="12.378242571861493"><ele>758.0</ele><time>2026-05-01T13:32:14.909Z</time></trkpt><trkpt lat="43.78880499371882" lon="12.37816766255899"><ele>758.0</ele><time>2026-05-01T13:32:15.909Z</time></trkpt><trkpt lat="43.78884390277732" lon="12.37805968524032"><ele>758.0</ele><time>2026-05-01T13:32:16.909Z</time></trkpt><trkpt lat="43.78888887148223" lon="12.377934433461679"><ele>758.0</ele><time>2026-05-01T13:32:17.909Z</time></trkpt><trkpt lat="43.7888900551793" lon="12.377803886891222"><ele>758.0</ele><time>2026-05-01T13:32:18.909Z</time></trkpt><trkpt lat="43.788898329577265" lon="12.377694639281483"><ele>758.0</ele><time>2026-05-01T13:32:19.909Z</time></trkpt><trkpt lat="43.78888417626705" lon="12.377590450697879"><ele>759.0</ele><time>2026-05-01T13:32:20.908Z</time></trkpt><trkpt lat="43.788831264430804" lon="12.377468652643183"><ele>760.0</ele><time>2026-05-01T13:32:21.908Z</time></trkpt><trkpt lat="43.78878475656767" lon="12.377345917123565"><ele>761.0</ele><time>2026-05-01T13:32:22.908Z</time></trkpt><trkpt lat="43.78876268922586" lon="12.377245922414916"><ele>762.0</ele><time>2026-05-01T13:32:23.908Z</time></trkpt><trkpt lat="43.78875084819067" lon="12.37711879570646"><ele>763.0</ele><time>2026-05-01T13:32:24.908Z</time></trkpt><trkpt lat="43.78874069329853" lon="12.376969872970864"><ele>763.25</ele><time>2026-05-01T13:32:25.908Z</time></trkpt><trkpt lat="43.788731654653" lon="12.376801362606425"><ele>763.5</ele><time>2026-05-01T13:32:26.908Z</time></trkpt><trkpt lat="43.78872734104612" lon="12.376628096492706"><ele>763.75</ele><time>2026-05-01T13:32:27.908Z</time></trkpt><trkpt lat="43.78872361466222" lon="12.37647367759997"><ele>764.0</ele><time>2026-05-01T13:32:28.908Z</time></trkpt><trkpt lat="43.788720792078145" lon="12.37633406585413"><ele>765.0</ele><time>2026-05-01T13:32:29.908Z</time></trkpt><trkpt lat="43.78872025399174" lon="12.376194055103182"><ele>766.0</ele><time>2026-05-01T13:32:30.908Z</time></trkpt><trkpt lat="43.78871838802151" lon="12.376047488809109"><ele>767.0</ele><time>2026-05-01T13:32:31.908Z</time></trkpt><trkpt lat="43.78870403851679" lon="12.375915597249724"><ele>768.0</ele><time>2026-05-01T13:32:32.908Z</time></trkpt><trkpt lat="43.788692268385695" lon="12.375789974726915"><ele>769.0</ele><time>2026-05-01T13:32:33.908Z</time></trkpt><trkpt lat="43.78865007052651" lon="12.375657548397973"><ele>770.2</ele><time>2026-05-01T13:32:34.908Z</time></trkpt><trkpt lat="43.78860355782607" lon="12.375513672226191"><ele>771.4000000000001</ele><time>2026-05-01T13:32:35.908Z</time></trkpt><trkpt lat="43.788579542922164" lon="12.375373354688604"><ele>772.6</ele><time>2026-05-01T13:32:36.908Z</time></trkpt><trkpt lat="43.788550272793074" lon="12.375247616890205"><ele>773.8</ele><time>2026-05-01T13:32:37.908Z</time></trkpt><trkpt lat="43.788527066145825" lon="12.375131962221799"><ele>775.0</ele><time>2026-05-01T13:32:38.908Z</time></trkpt><trkpt lat="43.78848125327733" lon="12.375004351854306"><ele>770.0</ele><time>2026-05-01T13:32:39.908Z</time></trkpt><trkpt lat="43.78841148148679" lon="12.374862773059837"><ele>765.0</ele><time>2026-05-01T13:32:40.908Z</time></trkpt><trkpt lat="43.788350557221165" lon="12.374720209141772"><ele>760.0</ele><time>2026-05-01T13:32:41.908Z</time></trkpt><trkpt lat="43.78831910144499" lon="12.37457213084276"><ele>755.0</ele><time>2026-05-01T13:32:42.908Z</time></trkpt><trkpt lat="43.78831645485222" lon="12.374434898938109"><ele>755.0</ele><time>2026-05-01T13:32:43.908Z</time></trkpt><trkpt lat="43.7883400159695" lon="12.374316793418574"><ele>755.0</ele><time>2026-05-01T13:32:44.908Z</time></trkpt><trkpt lat="43.7884058605817" lon="12.374205863227624"><ele>755.0</ele><time>2026-05-01T13:32:45.908Z</time></trkpt><trkpt lat="43.788462819741426" lon="12.374051185662106"><ele>755.0</ele><time>2026-05-01T13:32:46.908Z</time></trkpt><trkpt lat="43.78852155002629" lon="12.373904240657357"><ele>755.0</ele><time>2026-05-01T13:32:47.908Z</time></trkpt><trkpt lat="43.78857498275791" lon="12.373787127723867"><ele>755.5</ele><time>2026-05-01T13:32:48.908Z</time></trkpt><trkpt lat="43.788609355369424" lon="12.373671761307975"><ele>756.0</ele><time>2026-05-01T13:32:49.908Z</time></trkpt><trkpt lat="43.78865538727641" lon="12.373587837178492"><ele>756.5</ele><time>2026-05-01T13:32:50.908Z</time></trkpt><trkpt lat="43.78870425373824" lon="12.373513119158554"><ele>757.0</ele><time>2026-05-01T13:32:51.908Z</time></trkpt><trkpt lat="43.78876907803534" lon="12.373439886587063"><ele>757.5</ele><time>2026-05-01T13:32:52.908Z</time></trkpt><trkpt lat="43.78884564286894" lon="12.373370688595424"><ele>758.0</ele><time>2026-05-01T13:32:53.908Z</time></trkpt><trkpt lat="43.78891537330944" lon="12.373306993177316"><ele>758.0</ele><time>2026-05-01T13:32:54.908Z</time></trkpt><trkpt lat="43.78898292975789" lon="12.373241264749453"><ele>758.0</ele><time>2026-05-01T13:32:55.908Z</time></trkpt><trkpt lat="43.78904032924782" lon="12.373166648533829"><ele>758.0</ele><time>2026-05-01T13:32:56.908Z</time></trkpt><trkpt lat="43.78909450858596" lon="12.37308872322448"><ele>758.0</ele><time>2026-05-01T13:32:57.908Z</time></trkpt><trkpt lat="43.78915463731361" lon="12.37302618122674"><ele>758.0</ele><time>2026-05-01T13:32:58.907Z</time></trkpt><trkpt lat="43.78922002151544" lon="12.372984892894888"><ele>758.0</ele><time>2026-05-01T13:32:59.907Z</time></trkpt><trkpt lat="43.789281455972095" lon="12.372954926643706"><ele>755.7142857142858</ele><time>2026-05-01T13:33:00.907Z</time></trkpt><trkpt lat="43.7893435382885" lon="12.372923519184273"><ele>753.4285714285714</ele><time>2026-05-01T13:33:01.907Z</time></trkpt><trkpt lat="43.78940258089431" lon="12.372881464781248"><ele>751.1428571428571</ele><time>2026-05-01T13:33:02.908Z</time></trkpt><trkpt lat="43.789461191142735" lon="12.372838013042529"><ele>748.8571428571429</ele><time>2026-05-01T13:33:03.908Z</time></trkpt><trkpt lat="43.78951897979482" lon="12.372783987054675"><ele>746.5714285714286</ele><time>2026-05-01T13:33:04.908Z</time></trkpt><trkpt lat="43.78958443587303" lon="12.372743487441928"><ele>744.2857142857143</ele><time>2026-05-01T13:33:05.907Z</time></trkpt><trkpt lat="43.78964037033926" lon="12.372688077798147"><ele>742.0</ele><time>2026-05-01T13:33:06.907Z</time></trkpt><trkpt lat="43.789750869089104" lon="12.372612037166915"><ele>742.0</ele><time>2026-05-01T13:33:08.907Z</time></trkpt><trkpt lat="43.78982581124488" lon="12.372608038446181"><ele>742.0</ele><time>2026-05-01T13:33:09.907Z</time></trkpt><trkpt lat="43.78991553580629" lon="12.372605977364573"><ele>742.0</ele><time>2026-05-01T13:33:10.907Z</time></trkpt><trkpt lat="43.790004723062395" lon="12.372585918301423"><ele>742.0</ele><time>2026-05-01T13:33:11.907Z</time></trkpt><trkpt lat="43.7900853679541" lon="12.372543417515226"><ele>742.0</ele><time>2026-05-01T13:33:12.907Z</time></trkpt><trkpt lat="43.79017033663125" lon="12.372475511509961"><ele>742.0</ele><time>2026-05-01T13:33:13.907Z</time></trkpt><trkpt lat="43.79025329261598" lon="12.372382308396546"><ele>738.6</ele><time>2026-05-01T13:33:14.907Z</time></trkpt><trkpt lat="43.79033661550991" lon="12.37229091405356"><ele>735.2</ele><time>2026-05-01T13:33:15.907Z</time></trkpt><trkpt lat="43.790410134014536" lon="12.372209675534842"><ele>731.8</ele><time>2026-05-01T13:33:16.907Z</time></trkpt><trkpt lat="43.79047096834613" lon="12.372122129977285"><ele>728.4</ele><time>2026-05-01T13:33:17.907Z</time></trkpt><trkpt lat="43.79051888931598" lon="12.372026027974087"><ele>725.0</ele><time>2026-05-01T13:33:18.907Z</time></trkpt><trkpt lat="43.79055125942849" lon="12.37192457796698"><ele>724.5</ele><time>2026-05-01T13:33:19.907Z</time></trkpt><trkpt lat="43.7905762061907" lon="12.371798344370404"><ele>724.0</ele><time>2026-05-01T13:33:20.907Z</time></trkpt><trkpt lat="43.79058406049433" lon="12.371639764097015"><ele>723.5</ele><time>2026-05-01T13:33:21.907Z</time></trkpt><trkpt lat="43.79057486753563" lon="12.371462995309756"><ele>723.0</ele><time>2026-05-01T13:33:22.907Z</time></trkpt><trkpt lat="43.790577824388556" lon="12.371305288196588"><ele>722.8</ele><time>2026-05-01T13:33:23.907Z</time></trkpt><trkpt lat="43.79054731419907" lon="12.371167332881585"><ele>722.5999999999999</ele><time>2026-05-01T13:33:24.907Z</time></trkpt><trkpt lat="43.790543971112406" lon="12.371024448443727"><ele>722.4000000000001</ele><time>2026-05-01T13:33:25.907Z</time></trkpt><trkpt lat="43.79052063607872" lon="12.370891761824687"><ele>722.2</ele><time>2026-05-01T13:33:26.907Z</time></trkpt><trkpt lat="43.790506941604406" lon="12.370754547196338"><ele>722.0</ele><time>2026-05-01T13:33:27.907Z</time></trkpt><trkpt lat="43.790506742077504" lon="12.370620500097308"><ele>722.2</ele><time>2026-05-01T13:33:28.907Z</time></trkpt><trkpt lat="43.790515275978606" lon="12.37049684203038"><ele>722.4000000000001</ele><time>2026-05-01T13:33:29.907Z</time></trkpt><trkpt lat="43.79053897252444" lon="12.370379813301042"><ele>722.5999999999999</ele><time>2026-05-01T13:33:30.907Z</time></trkpt><trkpt lat="43.79060051323288" lon="12.370263629075705"><ele>722.8</ele><time>2026-05-01T13:33:31.907Z</time></trkpt><trkpt lat="43.790674143563" lon="12.370125125399849"><ele>723.0</ele><time>2026-05-01T13:33:32.907Z</time></trkpt><trkpt lat="43.79074780805658" lon="12.369955228835464"><ele>723.0</ele><time>2026-05-01T13:33:33.907Z</time></trkpt><trkpt lat="43.79083818245777" lon="12.369808823059177"><ele>723.0</ele><time>2026-05-01T13:33:34.907Z</time></trkpt><trkpt lat="43.79092744261965" lon="12.369646245627298"><ele>723.0</ele><time>2026-05-01T13:33:35.907Z</time></trkpt><trkpt lat="43.79101885272268" lon="12.369467590723785"><ele>723.0</ele><time>2026-05-01T13:33:36.906Z</time></trkpt><trkpt lat="43.79110904506686" lon="12.369281353381112"><ele>723.75</ele><time>2026-05-01T13:33:37.906Z</time></trkpt><trkpt lat="43.79118735997175" lon="12.369111715206415"><ele>724.5</ele><time>2026-05-01T13:33:38.843Z</time></trkpt><trkpt lat="43.791258116325395" lon="12.368945231348196"><ele>725.25</ele><time>2026-05-01T13:33:39.843Z</time></trkpt><trkpt lat="43.79132649520452" lon="12.368772978530268"><ele>726.0</ele><time>2026-05-01T13:33:40.843Z</time></trkpt><trkpt lat="43.79140481552747" lon="12.368593893339042"><ele>728.0</ele><time>2026-05-01T13:33:41.843Z</time></trkpt><trkpt lat="43.791479734138036" lon="12.368430105216763"><ele>730.0</ele><time>2026-05-01T13:33:42.843Z</time></trkpt><trkpt lat="43.7915552046223" lon="12.3682653066285"><ele>732.0</ele><time>2026-05-01T13:33:43.843Z</time></trkpt><trkpt lat="43.791614894027454" lon="12.368109474852215"><ele>734.0</ele><time>2026-05-01T13:33:44.843Z</time></trkpt><trkpt lat="43.79166817618781" lon="12.36796684802909"><ele>734.4000000000001</ele><time>2026-05-01T13:33:45.843Z</time></trkpt><trkpt lat="43.79170174113492" lon="12.36783767700126"><ele>734.8</ele><time>2026-05-01T13:33:46.843Z</time></trkpt><trkpt lat="43.79172359072327" lon="12.36770740601296"><ele>735.2</ele><time>2026-05-01T13:33:47.843Z</time></trkpt><trkpt lat="43.791747921990535" lon="12.367571038277218"><ele>735.5999999999999</ele><time>2026-05-01T13:33:48.843Z</time></trkpt><trkpt lat="43.791778674714216" lon="12.367434875711757"><ele>736.0</ele><time>2026-05-01T13:33:49.843Z</time></trkpt><trkpt lat="43.79180834356687" lon="12.367301498464776"><ele>736.3333333333334</ele><time>2026-05-01T13:33:50.843Z</time></trkpt><trkpt lat="43.791835828144904" lon="12.367179231305913"><ele>736.6666666666667</ele><time>2026-05-01T13:33:51.843Z</time></trkpt><trkpt lat="43.79186117751424" lon="12.367068940127716"><ele>737.0</ele><time>2026-05-01T13:33:52.843Z</time></trkpt><trkpt lat="43.79188624378187" lon="12.366966244655236"><ele>737.3333333333334</ele><time>2026-05-01T13:33:53.843Z</time></trkpt><trkpt lat="43.79190859509003" lon="12.366870709902683"><ele>737.6666666666666</ele><time>2026-05-01T13:33:54.843Z</time></trkpt><trkpt lat="43.791940578757874" lon="12.366735218054455"><ele>738.0</ele><time>2026-05-01T13:33:56.843Z</time></trkpt><trkpt lat="43.791957972348996" lon="12.366641015683427"><ele>738.0</ele><time>2026-05-01T13:33:59.843Z</time></trkpt><trkpt lat="43.791974107042485" lon="12.366530797580985"><ele>738.0</ele><time>2026-05-01T13:34:50.842Z</time></trkpt><trkpt lat="43.792090784762834" lon="12.366553399041912"><ele>738.0</ele><time>2026-05-01T13:34:54.842Z</time></trkpt><trkpt lat="43.792161078449965" lon="12.366531081089583"><ele>738.0</ele><time>2026-05-01T13:34:55.842Z</time></trkpt><trkpt lat="43.792227207705174" lon="12.366509193688557"><ele>738.0</ele><time>2026-05-01T13:34:56.842Z</time></trkpt><trkpt lat="43.79229060682422" lon="12.366445090117502"><ele>738.0</ele><time>2026-05-01T13:34:57.842Z</time></trkpt><trkpt lat="43.79235166732229" lon="12.366366556075716"><ele>736.25</ele><time>2026-05-01T13:34:58.842Z</time></trkpt><trkpt lat="43.79241891233737" lon="12.366256850023452"><ele>734.5</ele><time>2026-05-01T13:34:59.842Z</time></trkpt><trkpt lat="43.792501622450374" lon="12.366115137746679"><ele>732.75</ele><time>2026-05-01T13:35:00.842Z</time></trkpt><trkpt lat="43.792593046804846" lon="12.365960533462784"><ele>731.0</ele><time>2026-05-01T13:35:01.842Z</time></trkpt><trkpt lat="43.79268916895625" lon="12.36579608775622"><ele>731.0</ele><time>2026-05-01T13:35:02.842Z</time></trkpt><trkpt lat="43.79277301889426" lon="12.3656413959858"><ele>731.0</ele><time>2026-05-01T13:35:03.842Z</time></trkpt><trkpt lat="43.79286809737145" lon="12.365479330591413"><ele>731.0</ele><time>2026-05-01T13:35:04.84Z</time></trkpt><trkpt lat="43.79297592129156" lon="12.365346451805872"><ele>731.0</ele><time>2026-05-01T13:35:05.839Z</time></trkpt><trkpt lat="43.793093609215134" lon="12.365252170009907"><ele>730.3333333333333</ele><time>2026-05-01T13:35:06.839Z</time></trkpt><trkpt lat="43.793239951130275" lon="12.365197918962318"><ele>729.6666666666666</ele><time>2026-05-01T13:35:07.84Z</time></trkpt><trkpt lat="43.79342591604835" lon="12.365131632618915"><ele>729.0</ele><time>2026-05-01T13:35:08.839Z</time></trkpt><trkpt lat="43.793624405638106" lon="12.36507156913883"><ele>729.0</ele><time>2026-05-01T13:35:09.839Z</time></trkpt><trkpt lat="43.79378420574341" lon="12.364992992763979"><ele>729.0</ele><time>2026-05-01T13:35:10.839Z</time></trkpt><trkpt lat="43.79393514007392" lon="12.364922053211057"><ele>729.0</ele><time>2026-05-01T13:35:11.839Z</time></trkpt><trkpt lat="43.79408855070403" lon="12.364869585940491"><ele>729.0</ele><time>2026-05-01T13:35:12.839Z</time></trkpt><trkpt lat="43.79425451109616" lon="12.364847174923316"><ele>729.0</ele><time>2026-05-01T13:35:13.839Z</time></trkpt><trkpt lat="43.794426558887864" lon="12.364860998592125"><ele>729.0</ele><time>2026-05-01T13:35:14.839Z</time></trkpt><trkpt lat="43.794607526978425" lon="12.364910534704054"><ele>729.6666666666666</ele><time>2026-05-01T13:35:15.839Z</time></trkpt><trkpt lat="43.794799480623645" lon="12.36498955026753"><ele>730.3333333333333</ele><time>2026-05-01T13:35:16.839Z</time></trkpt><trkpt lat="43.79499863791733" lon="12.365077587630235"><ele>731.0</ele><time>2026-05-01T13:35:17.839Z</time></trkpt><trkpt lat="43.79520456255563" lon="12.365187672431604"><ele>732.6666666666666</ele><time>2026-05-01T13:35:18.839Z</time></trkpt><trkpt lat="43.795389147267024" lon="12.36529564017318"><ele>734.3333333333334</ele><time>2026-05-01T13:35:19.839Z</time></trkpt><trkpt lat="43.795563925673115" lon="12.365388611541913"><ele>736.0</ele><time>2026-05-01T13:35:20.839Z</time></trkpt><trkpt lat="43.79572683756548" lon="12.36546621530393"><ele>733.3333333333334</ele><time>2026-05-01T13:35:21.839Z</time></trkpt><trkpt lat="43.79587919921524" lon="12.365569082689067"><ele>730.6666666666666</ele><time>2026-05-01T13:35:22.839Z</time></trkpt><trkpt lat="43.79599421941774" lon="12.365731040636815"><ele>728.0</ele><time>2026-05-01T13:35:23.839Z</time></trkpt><trkpt lat="43.79611721987649" lon="12.36589633935004"><ele>727.75</ele><time>2026-05-01T13:35:24.839Z</time></trkpt><trkpt lat="43.796232020861254" lon="12.366063996593669"><ele>727.5</ele><time>2026-05-01T13:35:25.839Z</time></trkpt><trkpt lat="43.79633240125152" lon="12.366209764837421"><ele>727.25</ele><time>2026-05-01T13:35:26.839Z</time></trkpt><trkpt lat="43.79641904859869" lon="12.366325337850746"><ele>727.0</ele><time>2026-05-01T13:35:27.839Z</time></trkpt><trkpt lat="43.79650956487795" lon="12.36639114850286"><ele>727.0</ele><time>2026-05-01T13:35:28.839Z</time></trkpt><trkpt lat="43.796584342606614" lon="12.366446372265912"><ele>727.0</ele><time>2026-05-01T13:35:29.839Z</time></trkpt><trkpt lat="43.79666572804386" lon="12.3664549194664"><ele>727.0</ele><time>2026-05-01T13:35:30.839Z</time></trkpt><trkpt lat="43.79674116914071" lon="12.366407329107775"><ele>727.0</ele><time>2026-05-01T13:35:31.839Z</time></trkpt><trkpt lat="43.796809784309936" lon="12.366320087056557"><ele>727.0</ele><time>2026-05-01T13:35:32.839Z</time></trkpt><trkpt lat="43.79687177904855" lon="12.366197144373212"><ele>724.0</ele><time>2026-05-01T13:35:33.839Z</time></trkpt><trkpt lat="43.796916242526635" lon="12.366032583893114"><ele>721.0</ele><time>2026-05-01T13:35:34.839Z</time></trkpt><trkpt lat="43.796959256277795" lon="12.365854977639211"><ele>718.0</ele><time>2026-05-01T13:35:35.839Z</time></trkpt><trkpt lat="43.79700821544128" lon="12.365659794170165"><ele>715.0</ele><time>2026-05-01T13:35:36.839Z</time></trkpt><trkpt lat="43.797067731032264" lon="12.36545449505177"><ele>715.0</ele><time>2026-05-01T13:35:37.839Z</time></trkpt><trkpt lat="43.797128269102686" lon="12.365259918474019"><ele>715.0</ele><time>2026-05-01T13:35:38.839Z</time></trkpt><trkpt lat="43.79718152415914" lon="12.365089668341184"><ele>715.0</ele><time>2026-05-01T13:35:39.839Z</time></trkpt><trkpt lat="43.797218252706166" lon="12.364933944551726"><ele>715.0</ele><time>2026-05-01T13:35:40.839Z</time></trkpt><trkpt lat="43.7972288462516" lon="12.364772352330037"><ele>714.75</ele><time>2026-05-01T13:35:41.839Z</time></trkpt><trkpt lat="43.79720646820833" lon="12.364588810447685"><ele>714.5</ele><time>2026-05-01T13:35:42.839Z</time></trkpt><trkpt lat="43.7971643565146" lon="12.364389464226619"><ele>714.25</ele><time>2026-05-01T13:35:43.839Z</time></trkpt><trkpt lat="43.797141475574946" lon="12.364196843281752"><ele>714.0</ele><time>2026-05-01T13:35:44.839Z</time></trkpt><trkpt lat="43.79718755357099" lon="12.364029052463774"><ele>714.0</ele><time>2026-05-01T13:35:45.839Z</time></trkpt><trkpt lat="43.79723473224582" lon="12.36386580563606"><ele>714.0</ele><time>2026-05-01T13:35:46.839Z</time></trkpt><trkpt lat="43.79730412999247" lon="12.363739778641387"><ele>714.0</ele><time>2026-05-01T13:35:47.838Z</time></trkpt><trkpt lat="43.79739537942116" lon="12.363640806717234"><ele>714.0</ele><time>2026-05-01T13:35:48.838Z</time></trkpt><trkpt lat="43.79750957944541" lon="12.363567435023116"><ele>713.5</ele><time>2026-05-01T13:35:49.838Z</time></trkpt><trkpt lat="43.797637382578365" lon="12.36350044978034"><ele>713.0</ele><time>2026-05-01T13:35:50.838Z</time></trkpt><trkpt lat="43.79776192580419" lon="12.363436263759834"><ele>712.5</ele><time>2026-05-01T13:35:51.838Z</time></trkpt><trkpt lat="43.797896691799444" lon="12.363370488265621"><ele>712.0</ele><time>2026-05-01T13:35:52.838Z</time></trkpt><trkpt lat="43.79803532464294" lon="12.363302763340535"><ele>712.0</ele><time>2026-05-01T13:35:53.838Z</time></trkpt><trkpt lat="43.79817543778881" lon="12.363244859857828"><ele>712.0</ele><time>2026-05-01T13:35:54.838Z</time></trkpt><trkpt lat="43.79831458907242" lon="12.363235886490942"><ele>712.0</ele><time>2026-05-01T13:35:55.838Z</time></trkpt><trkpt lat="43.79845217910176" lon="12.363204247281743"><ele>712.0</ele><time>2026-05-01T13:35:56.838Z</time></trkpt><trkpt lat="43.79859058317044" lon="12.363186902332984"><ele>709.75</ele><time>2026-05-01T13:35:57.838Z</time></trkpt><trkpt lat="43.798720103719724" lon="12.363131484768866"><ele>707.5</ele><time>2026-05-01T13:35:58.838Z</time></trkpt><trkpt lat="43.79884825881678" lon="12.363033568447504"><ele>705.25</ele><time>2026-05-01T13:35:59.838Z</time></trkpt><trkpt lat="43.79896322617914" lon="12.362906788821814"><ele>703.0</ele><time>2026-05-01T13:36:00.838Z</time></trkpt><trkpt lat="43.799069821892644" lon="12.36277601446725"><ele>703.0</ele><time>2026-05-01T13:36:01.838Z</time></trkpt><trkpt lat="43.79916601336505" lon="12.362621227681963"><ele>703.0</ele><time>2026-05-01T13:36:02.838Z</time></trkpt><trkpt lat="43.799246233863734" lon="12.362454190434667"><ele>703.0</ele><time>2026-05-01T13:36:03.838Z</time></trkpt><trkpt lat="43.79932490913068" lon="12.36230407493549"><ele>703.0</ele><time>2026-05-01T13:36:04.838Z</time></trkpt><trkpt lat="43.79941530680937" lon="12.362197327844529"><ele>702.25</ele><time>2026-05-01T13:36:05.838Z</time></trkpt><trkpt lat="43.799515384853905" lon="12.36214359971556"><ele>701.5</ele><time>2026-05-01T13:36:06.838Z</time></trkpt><trkpt lat="43.799617262003025" lon="12.362140216365287"><ele>700.75</ele><time>2026-05-01T13:36:07.838Z</time></trkpt><trkpt lat="43.799710021225565" lon="12.362237800747979"><ele>700.0</ele><time>2026-05-01T13:36:08.838Z</time></trkpt><trkpt lat="43.79982957619054" lon="12.362303130527547"><ele>698.5</ele><time>2026-05-01T13:36:09.838Z</time></trkpt><trkpt lat="43.79995681094185" lon="12.362378370602242"><ele>697.0</ele><time>2026-05-01T13:36:10.838Z</time></trkpt><trkpt lat="43.80008851438392" lon="12.362432718429929"><ele>695.5</ele><time>2026-05-01T13:36:11.838Z</time></trkpt><trkpt lat="43.80020702636443" lon="12.362523897161267"><ele>694.0</ele><time>2026-05-01T13:36:12.838Z</time></trkpt><trkpt lat="43.80033071509828" lon="12.36259234983536"><ele>693.25</ele><time>2026-05-01T13:36:13.838Z</time></trkpt><trkpt lat="43.80045363436039" lon="12.36266176703907"><ele>692.5</ele><time>2026-05-01T13:36:14.838Z</time></trkpt><trkpt lat="43.8005756109162" lon="12.362735443448726"><ele>691.75</ele><time>2026-05-01T13:36:15.838Z</time></trkpt><trkpt lat="43.8006934204142" lon="12.362802523549055"><ele>691.0</ele><time>2026-05-01T13:36:16.838Z</time></trkpt><trkpt lat="43.80080935627126" lon="12.362875046375143"><ele>691.0</ele><time>2026-05-01T13:36:17.838Z</time></trkpt><trkpt lat="43.80092561358571" lon="12.362935924626855"><ele>691.0</ele><time>2026-05-01T13:36:18.838Z</time></trkpt><trkpt lat="43.80104041613118" lon="12.362997062209287"><ele>691.0</ele><time>2026-05-01T13:36:19.838Z</time></trkpt><trkpt lat="43.80115497625644" lon="12.363058094965563"><ele>691.0</ele><time>2026-05-01T13:36:20.838Z</time></trkpt><trkpt lat="43.801262202756014" lon="12.363131905608565"><ele>689.75</ele><time>2026-05-01T13:36:21.838Z</time></trkpt><trkpt lat="43.80137650259733" lon="12.36319620334937"><ele>688.5</ele><time>2026-05-01T13:36:22.838Z</time></trkpt><trkpt lat="43.80149552976887" lon="12.363261094971314"><ele>687.25</ele><time>2026-05-01T13:36:23.838Z</time></trkpt><trkpt lat="43.80160638624702" lon="12.363345843562229"><ele>686.0</ele><time>2026-05-01T13:36:24.838Z</time></trkpt><trkpt lat="43.801704629221405" lon="12.36344613273268"><ele>686.0</ele><time>2026-05-01T13:36:25.838Z</time></trkpt><trkpt lat="43.80178756502588" lon="12.363564621598229"><ele>686.0</ele><time>2026-05-01T13:36:26.838Z</time></trkpt><trkpt lat="43.80182767641999" lon="12.363708541987672"><ele>686.0</ele><time>2026-05-01T13:36:27.838Z</time></trkpt><trkpt lat="43.801891399299535" lon="12.363860379019922"><ele>686.0</ele><time>2026-05-01T13:36:28.837Z</time></trkpt><trkpt lat="43.80196178704082" lon="12.364039678486883"><ele>684.5</ele><time>2026-05-01T13:36:29.837Z</time></trkpt><trkpt lat="43.80203973213281" lon="12.364206970827071"><ele>683.0</ele><time>2026-05-01T13:36:30.837Z</time></trkpt><trkpt lat="43.80212126163269" lon="12.364356575378979"><ele>681.5</ele><time>2026-05-01T13:36:31.837Z</time></trkpt><trkpt lat="43.802210691463856" lon="12.364508658871397"><ele>680.0</ele><time>2026-05-01T13:36:32.837Z</time></trkpt><trkpt lat="43.802309819492976" lon="12.364657219324902"><ele>678.0</ele><time>2026-05-01T13:36:33.837Z</time></trkpt><trkpt lat="43.802410595270935" lon="12.364822995390407"><ele>676.0</ele><time>2026-05-01T13:36:34.837Z</time></trkpt><trkpt lat="43.802520802976645" lon="12.36495191085863"><ele>674.0</ele><time>2026-05-01T13:36:35.837Z</time></trkpt><trkpt lat="43.802632478837324" lon="12.36507948248761"><ele>672.0</ele><time>2026-05-01T13:36:36.837Z</time></trkpt><trkpt lat="43.80273241439051" lon="12.365213631291631"><ele>672.0</ele><time>2026-05-01T13:36:37.837Z</time></trkpt><trkpt lat="43.80283013753788" lon="12.365345062668105"><ele>672.0</ele><time>2026-05-01T13:36:38.837Z</time></trkpt><trkpt lat="43.80291839842767" lon="12.365488095866706"><ele>672.0</ele><time>2026-05-01T13:36:39.837Z</time></trkpt><trkpt lat="43.80300720443509" lon="12.365639694691863"><ele>672.0</ele><time>2026-05-01T13:36:40.837Z</time></trkpt><trkpt lat="43.80309656286139" lon="12.365809453249536"><ele>670.0</ele><time>2026-05-01T13:36:41.837Z</time></trkpt><trkpt lat="43.80319306985009" lon="12.365974758049248"><ele>668.0</ele><time>2026-05-01T13:36:42.837Z</time></trkpt><trkpt lat="43.803288974134865" lon="12.366143154787217"><ele>666.0</ele><time>2026-05-01T13:36:43.837Z</time></trkpt><trkpt lat="43.80338299311544" lon="12.366297298150382"><ele>664.5</ele><time>2026-05-01T13:36:44.837Z</time></trkpt><trkpt lat="43.803471410669616" lon="12.366466452338255"><ele>663.0</ele><time>2026-05-01T13:36:45.837Z</time></trkpt><trkpt lat="43.80355617262492" lon="12.366625295344106"><ele>661.5</ele><time>2026-05-01T13:36:46.837Z</time></trkpt><trkpt lat="43.8036484376261" lon="12.366763891605933"><ele>660.0</ele><time>2026-05-01T13:36:47.837Z</time></trkpt><trkpt lat="43.80374555136332" lon="12.366894634520754"><ele>659.25</ele><time>2026-05-01T13:36:48.837Z</time></trkpt><trkpt lat="43.80384925945453" lon="12.367029710015826"><ele>658.5</ele><time>2026-05-01T13:36:49.837Z</time></trkpt><trkpt lat="43.80396630505716" lon="12.367162447486937"><ele>657.75</ele><time>2026-05-01T13:36:50.837Z</time></trkpt><trkpt lat="43.80408169449363" lon="12.36730271619294"><ele>657.0</ele><time>2026-05-01T13:36:51.837Z</time></trkpt><trkpt lat="43.80420082438536" lon="12.367443351212689"><ele>654.3333333333334</ele><time>2026-05-01T13:36:52.837Z</time></trkpt><trkpt lat="43.80433217290436" lon="12.367605030932854"><ele>651.6666666666667</ele><time>2026-05-01T13:36:53.837Z</time></trkpt><trkpt lat="43.804479976780776" lon="12.36778364150072"><ele>649.0</ele><time>2026-05-01T13:36:54.837Z</time></trkpt><trkpt lat="43.80463789965081" lon="12.367974960536278"><ele>647.3333333333334</ele><time>2026-05-01T13:36:55.837Z</time></trkpt><trkpt lat="43.804805602381556" lon="12.368187502818941"><ele>645.6666666666666</ele><time>2026-05-01T13:36:56.837Z</time></trkpt><trkpt lat="43.804971243231506" lon="12.368385262474584"><ele>644.0</ele><time>2026-05-01T13:36:57.837Z</time></trkpt><trkpt lat="43.805117773851904" lon="12.368572338089304"><ele>642.0</ele><time>2026-05-01T13:36:58.837Z</time></trkpt><trkpt lat="43.80526376263211" lon="12.368753540482285"><ele>640.0</ele><time>2026-05-01T13:36:59.837Z</time></trkpt><trkpt lat="43.80539817183851" lon="12.368921906003"><ele>638.0</ele><time>2026-05-01T13:37:00.837Z</time></trkpt><trkpt lat="43.80553542046341" lon="12.369088852145152"><ele>637.6666666666666</ele><time>2026-05-01T13:37:01.837Z</time></trkpt><trkpt lat="43.805670722251136" lon="12.369253770735313"><ele>637.3333333333334</ele><time>2026-05-01T13:37:02.837Z</time></trkpt><trkpt lat="43.80580059629649" lon="12.369414504866839"><ele>637.0</ele><time>2026-05-01T13:37:03.837Z</time></trkpt><trkpt lat="43.80592741226493" lon="12.369573744112223"><ele>635.6666666666667</ele><time>2026-05-01T13:37:04.837Z</time></trkpt><trkpt lat="43.80604388422413" lon="12.369727413077179"><ele>634.3333333333334</ele><time>2026-05-01T13:37:05.837Z</time></trkpt><trkpt lat="43.806158855949306" lon="12.369872349078593"><ele>633.0</ele><time>2026-05-01T13:37:06.837Z</time></trkpt><trkpt lat="43.80625631838735" lon="12.370018144970995"><ele>633.0</ele><time>2026-05-01T13:37:07.837Z</time></trkpt><trkpt lat="43.806331468868045" lon="12.370182703647785"><ele>633.0</ele><time>2026-05-01T13:37:08.837Z</time></trkpt><trkpt lat="43.80638017248759" lon="12.370380757583302"><ele>633.0</ele><time>2026-05-01T13:37:09.836Z</time></trkpt><trkpt lat="43.806368799434075" lon="12.370600239411171"><ele>631.5</ele><time>2026-05-01T13:37:10.835Z</time></trkpt><trkpt lat="43.80633629640098" lon="12.37080861427647"><ele>630.0</ele><time>2026-05-01T13:37:11.835Z</time></trkpt><trkpt lat="43.80630164755723" lon="12.371008125760017"><ele>628.5</ele><time>2026-05-01T13:37:12.835Z</time></trkpt><trkpt lat="43.80626414533488" lon="12.3712023619063"><ele>627.0</ele><time>2026-05-01T13:37:13.835Z</time></trkpt><trkpt lat="43.80624101873944" lon="12.371410712858141"><ele>624.75</ele><time>2026-05-01T13:37:14.835Z</time></trkpt><trkpt lat="43.806202317309356" lon="12.371607145069317"><ele>622.5</ele><time>2026-05-01T13:37:15.835Z</time></trkpt><trkpt lat="43.80616625208451" lon="12.371797024279056"><ele>620.25</ele><time>2026-05-01T13:37:16.834Z</time></trkpt><trkpt lat="43.80613267687322" lon="12.371985491214911"><ele>618.0</ele><time>2026-05-01T13:37:17.834Z</time></trkpt><trkpt lat="43.806082761213155" lon="12.372163695081827"><ele>618.25</ele><time>2026-05-01T13:37:18.834Z</time></trkpt><trkpt lat="43.806050506996236" lon="12.372343973049881"><ele>618.5</ele><time>2026-05-01T13:37:19.835Z</time></trkpt><trkpt lat="43.80601825166751" lon="12.372522287424626"><ele>618.75</ele><time>2026-05-01T13:37:20.835Z</time></trkpt><trkpt lat="43.80600022041103" lon="12.37269832884667"><ele>619.0</ele><time>2026-05-01T13:37:21.835Z</time></trkpt><trkpt lat="43.805949192152596" lon="12.372862632880794"><ele>616.5</ele><time>2026-05-01T13:37:22.834Z</time></trkpt><trkpt lat="43.80591858731875" lon="12.373046155763287"><ele>614.0</ele><time>2026-05-01T13:37:23.834Z</time></trkpt><trkpt lat="43.80584203979402" lon="12.373212685567468"><ele>611.5</ele><time>2026-05-01T13:37:24.834Z</time></trkpt><trkpt lat="43.80576729692581" lon="12.37340526271221"><ele>609.0</ele><time>2026-05-01T13:37:25.834Z</time></trkpt><trkpt lat="43.8057014079093" lon="12.373601514305948"><ele>609.0</ele><time>2026-05-01T13:37:26.834Z</time></trkpt><trkpt lat="43.80562939815261" lon="12.373819917918363"><ele>609.0</ele><time>2026-05-01T13:37:27.834Z</time></trkpt><trkpt lat="43.805550574221726" lon="12.374053121701492"><ele>609.0</ele><time>2026-05-01T13:37:28.834Z</time></trkpt><trkpt lat="43.80545855389943" lon="12.374281108586715"><ele>604.6666666666666</ele><time>2026-05-01T13:37:29.834Z</time></trkpt><trkpt lat="43.80537291325136" lon="12.374488843569486"><ele>600.3333333333333</ele><time>2026-05-01T13:37:30.834Z</time></trkpt><trkpt lat="43.80529283690689" lon="12.37470152043085"><ele>596.0</ele><time>2026-05-01T13:37:31.834Z</time></trkpt><trkpt lat="43.80521857903515" lon="12.37490880185315"><ele>596.6666666666666</ele><time>2026-05-01T13:37:32.834Z</time></trkpt><trkpt lat="43.80514224307542" lon="12.375104520243397"><ele>597.3333333333334</ele><time>2026-05-01T13:37:33.834Z</time></trkpt><trkpt lat="43.80505062355937" lon="12.375283277719305"><ele>598.0</ele><time>2026-05-01T13:37:34.834Z</time></trkpt><trkpt lat="43.804941127896704" lon="12.375425279855518"><ele>597.0</ele><time>2026-05-01T13:37:35.834Z</time></trkpt><trkpt lat="43.804820768350446" lon="12.375543746987336"><ele>596.0</ele><time>2026-05-01T13:37:36.834Z</time></trkpt><trkpt lat="43.80469578402662" lon="12.375663479852758"><ele>595.0</ele><time>2026-05-01T13:37:37.834Z</time></trkpt><trkpt lat="43.80458231865554" lon="12.375780029487641"><ele>594.0</ele><time>2026-05-01T13:37:38.834Z</time></trkpt><trkpt lat="43.8044723643793" lon="12.37588741589478"><ele>594.0</ele><time>2026-05-01T13:37:39.834Z</time></trkpt><trkpt lat="43.804374739495266" lon="12.375988135083446"><ele>594.0</ele><time>2026-05-01T13:37:40.834Z</time></trkpt><trkpt lat="43.80429653841601" lon="12.3760915643077"><ele>594.0</ele><time>2026-05-01T13:37:41.834Z</time></trkpt><trkpt lat="43.80421531243378" lon="12.376193152840257"><ele>594.0</ele><time>2026-05-01T13:37:42.834Z</time></trkpt><trkpt lat="43.80416398254895" lon="12.376295793833169"><ele>594.0</ele><time>2026-05-01T13:37:43.834Z</time></trkpt><trkpt lat="43.80411624798339" lon="12.37637055971461"><ele>592.8</ele><time>2026-05-01T13:37:44.834Z</time></trkpt><trkpt lat="43.80403899770257" lon="12.376427799296163"><ele>591.5999999999999</ele><time>2026-05-01T13:37:45.834Z</time></trkpt><trkpt lat="43.80394951607331" lon="12.376483565752741"><ele>590.4</ele><time>2026-05-01T13:37:46.834Z</time></trkpt><trkpt lat="43.80385074927828" lon="12.376541996771047"><ele>589.1999999999999</ele><time>2026-05-01T13:37:47.834Z</time></trkpt><trkpt lat="43.80375014951235" lon="12.376616060606219"><ele>588.0</ele><time>2026-05-01T13:37:48.834Z</time></trkpt><trkpt lat="43.80364159240827" lon="12.376703109571352"><ele>588.0</ele><time>2026-05-01T13:37:49.834Z</time></trkpt><trkpt lat="43.80353255593337" lon="12.376799215791111"><ele>588.0</ele><time>2026-05-01T13:37:50.834Z</time></trkpt><trkpt lat="43.80342715990306" lon="12.376895920816752"><ele>588.0</ele><time>2026-05-01T13:37:51.834Z</time></trkpt><trkpt lat="43.803329774966315" lon="12.376995401855822"><ele>588.0</ele><time>2026-05-01T13:37:52.834Z</time></trkpt><trkpt lat="43.803239630628084" lon="12.377093735088337"><ele>586.0</ele><time>2026-05-01T13:37:53.834Z</time></trkpt><trkpt lat="43.80315985786851" lon="12.377196399699958"><ele>584.0</ele><time>2026-05-01T13:37:54.834Z</time></trkpt><trkpt lat="43.80309292271376" lon="12.37730515107942"><ele>582.0</ele><time>2026-05-01T13:37:55.834Z</time></trkpt><trkpt lat="43.80304082895797" lon="12.377421332352489"><ele>580.0</ele><time>2026-05-01T13:37:56.833Z</time></trkpt><trkpt lat="43.8029968947793" lon="12.377537066456593"><ele>578.0</ele><time>2026-05-01T13:37:57.833Z</time></trkpt><trkpt lat="43.802955571842936" lon="12.377660224316784"><ele>578.0</ele><time>2026-05-01T13:37:58.833Z</time></trkpt><trkpt lat="43.80292685441142" lon="12.377811071625304"><ele>578.0</ele><time>2026-05-01T13:37:59.833Z</time></trkpt><trkpt lat="43.802902787186554" lon="12.378010527214455"><ele>578.0</ele><time>2026-05-01T13:38:00.833Z</time></trkpt><trkpt lat="43.80288505376566" lon="12.378227457514477"><ele>578.0</ele><time>2026-05-01T13:38:01.833Z</time></trkpt><trkpt lat="43.80288874629524" lon="12.378455352741966"><ele>575.6666666666666</ele><time>2026-05-01T13:38:02.833Z</time></trkpt><trkpt lat="43.80290259696422" lon="12.37869036263806"><ele>573.3333333333334</ele><time>2026-05-01T13:38:03.833Z</time></trkpt><trkpt lat="43.80292007235586" lon="12.378938407389088"><ele>571.0</ele><time>2026-05-01T13:38:04.833Z</time></trkpt><trkpt lat="43.802933086549295" lon="12.379211242777659"><ele>566.0</ele><time>2026-05-01T13:38:05.833Z</time></trkpt><trkpt lat="43.802954949358345" lon="12.379533821736128"><ele>561.0</ele><time>2026-05-01T13:38:06.833Z</time></trkpt><trkpt lat="43.80297667745407" lon="12.379884323297395"><ele>558.0</ele><time>2026-05-01T13:38:07.833Z</time></trkpt><trkpt lat="43.80299067394774" lon="12.380217458391742"><ele>555.0</ele><time>2026-05-01T13:38:08.833Z</time></trkpt><trkpt lat="43.803007000392476" lon="12.380527271587486"><ele>554.3333333333334</ele><time>2026-05-01T13:38:09.833Z</time></trkpt><trkpt lat="43.80302733864042" lon="12.380822197516695"><ele>553.6666666666667</ele><time>2026-05-01T13:38:10.833Z</time></trkpt><trkpt lat="43.80304999593565" lon="12.381106197733954"><ele>553.0</ele><time>2026-05-01T13:38:11.833Z</time></trkpt><trkpt lat="43.80307023440301" lon="12.381371779209868"><ele>551.0</ele><time>2026-05-01T13:38:12.833Z</time></trkpt><trkpt lat="43.80308172452674" lon="12.381626438523476"><ele>549.0</ele><time>2026-05-01T13:38:13.833Z</time></trkpt><trkpt lat="43.803098534697845" lon="12.381860310903013"><ele>547.0</ele><time>2026-05-01T13:38:14.833Z</time></trkpt><trkpt lat="43.80312144794865" lon="12.382089196019106"><ele>547.0</ele><time>2026-05-01T13:38:15.833Z</time></trkpt><trkpt lat="43.80315081954923" lon="12.382302778413596"><ele>547.0</ele><time>2026-05-01T13:38:16.833Z</time></trkpt><trkpt lat="43.80317770191168" lon="12.382508097588236"><ele>547.0</ele><time>2026-05-01T13:38:17.833Z</time></trkpt><trkpt lat="43.803204583842316" lon="12.382702941278968"><ele>547.0</ele><time>2026-05-01T13:38:18.833Z</time></trkpt><trkpt lat="43.80322756626241" lon="12.382886148564724"><ele>547.0</ele><time>2026-05-01T13:38:19.833Z</time></trkpt><trkpt lat="43.80324507963252" lon="12.383048927706538"><ele>547.0</ele><time>2026-05-01T13:38:20.833Z</time></trkpt><trkpt lat="43.803260726026906" lon="12.383189446378516"><ele>547.0</ele><time>2026-05-01T13:38:21.833Z</time></trkpt><trkpt lat="43.80327634025568" lon="12.38330683416176"><ele>547.0</ele><time>2026-05-01T13:38:22.833Z</time></trkpt><trkpt lat="43.803295064625914" lon="12.383391161452984"><ele>545.6</ele><time>2026-05-01T13:38:23.833Z</time></trkpt><trkpt lat="43.803292166300785" lon="12.38349002512624"><ele>544.2</ele><time>2026-05-01T13:38:25.833Z</time></trkpt><trkpt lat="43.80345505724479" lon="12.383405791179388"><ele>542.8</ele><time>2026-05-01T13:38:27.833Z</time></trkpt><trkpt lat="43.80350322331074" lon="12.383313422344077"><ele>541.4</ele><time>2026-05-01T13:38:29.833Z</time></trkpt><trkpt lat="43.803563342913705" lon="12.383218728407726"><ele>540.0</ele><time>2026-05-01T13:38:31.833Z</time></trkpt><trkpt lat="43.8033990769027" lon="12.383196371960077"><ele>540.0</ele><time>2026-05-01T13:38:35.833Z</time></trkpt><trkpt lat="43.80333522344824" lon="12.383176787320943"><ele>540.0</ele><time>2026-05-01T13:38:36.833Z</time></trkpt><trkpt lat="43.80328470737326" lon="12.383113681402397"><ele>540.0</ele><time>2026-05-01T13:38:37.832Z</time></trkpt><trkpt lat="43.80324914124419" lon="12.383013857656639"><ele>540.0</ele><time>2026-05-01T13:38:38.832Z</time></trkpt><trkpt lat="43.80323516871317" lon="12.38286733592797"><ele>540.0</ele><time>2026-05-01T13:38:39.832Z</time></trkpt><trkpt lat="43.80321153197793" lon="12.382656923937395"><ele>542.3333333333334</ele><time>2026-05-01T13:38:40.832Z</time></trkpt><trkpt lat="43.80318155654117" lon="12.38240121748466"><ele>544.6666666666667</ele><time>2026-05-01T13:38:41.832Z</time></trkpt><trkpt lat="43.80315076419031" lon="12.382107135456785"><ele>547.0</ele><time>2026-05-01T13:38:42.832Z</time></trkpt><trkpt lat="43.80312646955781" lon="12.381791872044152"><ele>547.0</ele><time>2026-05-01T13:38:43.832Z</time></trkpt><trkpt lat="43.803099384214484" lon="12.3814524893773"><ele>547.0</ele><time>2026-05-01T13:38:44.832Z</time></trkpt><trkpt lat="43.803077216414145" lon="12.381087578201024"><ele>550.0</ele><time>2026-05-01T13:38:45.832Z</time></trkpt><trkpt lat="43.80305786296307" lon="12.38071067178009"><ele>553.0</ele><time>2026-05-01T13:38:46.832Z</time></trkpt><trkpt lat="43.803040274915396" lon="12.38032061593831"><ele>554.0</ele><time>2026-05-01T13:38:47.832Z</time></trkpt><trkpt lat="43.80301187534242" lon="12.379960434121795"><ele>555.0</ele><time>2026-05-01T13:38:48.832Z</time></trkpt><trkpt lat="43.802993326852125" lon="12.37963176880512"><ele>557.0</ele><time>2026-05-01T13:38:49.832Z</time></trkpt><trkpt lat="43.80297441269296" lon="12.379346424556154"><ele>559.0</ele><time>2026-05-01T13:38:50.832Z</time></trkpt><trkpt lat="43.802959180761675" lon="12.37908159848227"><ele>561.0</ele><time>2026-05-01T13:38:51.832Z</time></trkpt><trkpt lat="43.80294312014452" lon="12.378846067231873"><ele>563.5</ele><time>2026-05-01T13:38:52.832Z</time></trkpt><trkpt lat="43.80293104213916" lon="12.378621224835472"><ele>566.0</ele><time>2026-05-01T13:38:53.832Z</time></trkpt><trkpt lat="43.802921168203355" lon="12.378420253566425"><ele>568.5</ele><time>2026-05-01T13:38:54.832Z</time></trkpt><trkpt lat="43.80291360169208" lon="12.378232718008787"><ele>571.0</ele><time>2026-05-01T13:38:55.832Z</time></trkpt><trkpt lat="43.802920914200726" lon="12.378061628801834"><ele>572.4</ele><time>2026-05-01T13:38:56.832Z</time></trkpt><trkpt lat="43.802937979197246" lon="12.377910779157595"><ele>573.8</ele><time>2026-05-01T13:38:57.832Z</time></trkpt><trkpt lat="43.80296451681761" lon="12.377776634968011"><ele>575.1999999999999</ele><time>2026-05-01T13:38:58.832Z</time></trkpt><trkpt lat="43.80300424019467" lon="12.377639304338894"><ele>576.6</ele><time>2026-05-01T13:38:59.832Z</time></trkpt><trkpt lat="43.80305377696183" lon="12.377508678330445"><ele>578.0</ele><time>2026-05-01T13:39:00.832Z</time></trkpt><trkpt lat="43.80312059493424" lon="12.377381657426001"><ele>578.0</ele><time>2026-05-01T13:39:01.832Z</time></trkpt><trkpt lat="43.80319555655616" lon="12.377249414619554"><ele>578.0</ele><time>2026-05-01T13:39:02.832Z</time></trkpt><trkpt lat="43.80328250140785" lon="12.377114541943154"><ele>578.0</ele><time>2026-05-01T13:39:03.832Z</time></trkpt><trkpt lat="43.80337383466915" lon="12.376989793426793"><ele>578.0</ele><time>2026-05-01T13:39:04.832Z</time></trkpt><trkpt lat="43.803457917321765" lon="12.376905144741922"><ele>579.0</ele><time>2026-05-01T13:39:05.832Z</time></trkpt><trkpt lat="43.80353757048288" lon="12.376850678448426"><ele>580.0</ele><time>2026-05-01T13:39:06.832Z</time></trkpt><trkpt lat="43.80360468875611" lon="12.376802954116009"><ele>581.0</ele><time>2026-05-01T13:39:07.832Z</time></trkpt><trkpt lat="43.80367484606513" lon="12.376746913466384"><ele>582.0</ele><time>2026-05-01T13:39:09.832Z</time></trkpt><trkpt lat="43.803576539653655" lon="12.376610455550933"><ele>583.0</ele><time>2026-05-01T13:39:12.832Z</time></trkpt><trkpt lat="43.80348178291166" lon="12.376444476571267"><ele>584.0</ele><time>2026-05-01T13:39:14.832Z</time></trkpt><trkpt lat="43.8034130304323" lon="12.37632799590812"><ele>585.0</ele><time>2026-05-01T13:39:15.832Z</time></trkpt><trkpt lat="43.80333483931358" lon="12.376204965074697"><ele>586.0</ele><time>2026-05-01T13:39:16.831Z</time></trkpt><trkpt lat="43.80325604967443" lon="12.376086671597161"><ele>587.0</ele><time>2026-05-01T13:39:17.832Z</time></trkpt><trkpt lat="43.80318558366786" lon="12.3759732196596"><ele>587.0</ele><time>2026-05-01T13:39:18.832Z</time></trkpt><trkpt lat="43.80312083103658" lon="12.375868265911478"><ele>587.0</ele><time>2026-05-01T13:39:19.832Z</time></trkpt><trkpt lat="43.803055678862876" lon="12.37575767765311"><ele>587.0</ele><time>2026-05-01T13:39:20.831Z</time></trkpt><trkpt lat="43.80297486148222" lon="12.375645252725594"><ele>587.0</ele><time>2026-05-01T13:39:21.831Z</time></trkpt><trkpt lat="43.80294597253757" lon="12.375486924197943"><ele>587.0</ele><time>2026-05-01T13:39:22.831Z</time></trkpt><trkpt lat="43.80288105710565" lon="12.375358023609675"><ele>587.6</ele><time>2026-05-01T13:39:23.832Z</time></trkpt><trkpt lat="43.80282498456689" lon="12.375254449237959"><ele>588.2</ele><time>2026-05-01T13:39:24.832Z</time></trkpt><trkpt lat="43.80275388260256" lon="12.375166757340587"><ele>588.8</ele><time>2026-05-01T13:39:25.832Z</time></trkpt><trkpt lat="43.80265844380309" lon="12.375102177278848"><ele>589.4</ele><time>2026-05-01T13:39:26.832Z</time></trkpt><trkpt lat="43.80255468494075" lon="12.375027457967771"><ele>590.0</ele><time>2026-05-01T13:39:27.832Z</time></trkpt><trkpt lat="43.80243638280411" lon="12.374937798341827"><ele>588.25</ele><time>2026-05-01T13:39:28.831Z</time></trkpt><trkpt lat="43.802328538575765" lon="12.374853205672272"><ele>586.5</ele><time>2026-05-01T13:39:29.831Z</time></trkpt><trkpt lat="43.802229816374556" lon="12.374774555364505"><ele>584.75</ele><time>2026-05-01T13:39:30.831Z</time></trkpt><trkpt lat="43.802124395803084" lon="12.374689777241544"><ele>583.0</ele><time>2026-05-01T13:39:31.831Z</time></trkpt><trkpt lat="43.80202668145963" lon="12.37461094196843"><ele>583.0</ele><time>2026-05-01T13:39:32.831Z</time></trkpt><trkpt lat="43.80193064342505" lon="12.374533458996208"><ele>583.0</ele><time>2026-05-01T13:39:33.831Z</time></trkpt><trkpt lat="43.801836729533825" lon="12.374458793310684"><ele>583.0</ele><time>2026-05-01T13:39:34.831Z</time></trkpt><trkpt lat="43.801741863310596" lon="12.374388085002254"><ele>583.0</ele><time>2026-05-01T13:39:35.831Z</time></trkpt><trkpt lat="43.80164085038333" lon="12.374344505072195"><ele>583.0</ele><time>2026-05-01T13:39:36.831Z</time></trkpt><trkpt lat="43.80156377135976" lon="12.374319319613255"><ele>582.5</ele><time>2026-05-01T13:39:37.831Z</time></trkpt><trkpt lat="43.80149810316612" lon="12.37435757669597"><ele>582.0</ele><time>2026-05-01T13:39:38.831Z</time></trkpt><trkpt lat="43.80143650814986" lon="12.374395056364834"><ele>581.5</ele><time>2026-05-01T13:39:41.831Z</time></trkpt><trkpt lat="43.80139690646425" lon="12.374474646257111"><ele>581.0</ele><time>2026-05-01T13:39:43.831Z</time></trkpt><trkpt lat="43.80133768252442" lon="12.374651139940546"><ele>580.5</ele><time>2026-05-01T13:39:45.831Z</time></trkpt><trkpt lat="43.80130647656275" lon="12.37476869156758"><ele>580.0</ele><time>2026-05-01T13:39:46.831Z</time></trkpt><trkpt lat="43.80128187838004" lon="12.374924936276589"><ele>578.6666666666667</ele><time>2026-05-01T13:39:47.831Z</time></trkpt><trkpt lat="43.80125137476395" lon="12.375107003693248"><ele>577.3333333333334</ele><time>2026-05-01T13:39:48.831Z</time></trkpt><trkpt lat="43.8011932346888" lon="12.375323618789093"><ele>576.0</ele><time>2026-05-01T13:39:49.831Z</time></trkpt><trkpt lat="43.801142196173714" lon="12.375565625858409"><ele>577.0</ele><time>2026-05-01T13:39:50.831Z</time></trkpt><trkpt lat="43.801098128052956" lon="12.375771076002898"><ele>578.0</ele><time>2026-05-01T13:39:51.831Z</time></trkpt><trkpt lat="43.80105204692067" lon="12.375945444455697"><ele>579.0</ele><time>2026-05-01T13:39:52.831Z</time></trkpt><trkpt lat="43.80098106083253" lon="12.376091559696727"><ele>580.0</ele><time>2026-05-01T13:39:53.831Z</time></trkpt><trkpt lat="43.80092697849144" lon="12.376218548276961"><ele>580.0</ele><time>2026-05-01T13:39:54.831Z</time></trkpt><trkpt lat="43.80086298122017" lon="12.376341228031713"><ele>580.0</ele><time>2026-05-01T13:39:55.831Z</time></trkpt><trkpt lat="43.80078404971125" lon="12.37646221636244"><ele>580.0</ele><time>2026-05-01T13:39:56.831Z</time></trkpt><trkpt lat="43.80067268715237" lon="12.376597164708228"><ele>580.0</ele><time>2026-05-01T13:39:57.831Z</time></trkpt><trkpt lat="43.800540812298735" lon="12.376731271570566"><ele>579.3333333333334</ele><time>2026-05-01T13:39:58.831Z</time></trkpt><trkpt lat="43.80038674212602" lon="12.376885272461246"><ele>578.6666666666666</ele><time>2026-05-01T13:39:59.831Z</time></trkpt><trkpt lat="43.800267177894625" lon="12.377033474726248"><ele>578.0</ele><time>2026-05-01T13:40:00.831Z</time></trkpt><trkpt lat="43.80015879127974" lon="12.37713539016839"><ele>578.0</ele><time>2026-05-01T13:40:01.831Z</time></trkpt><trkpt lat="43.800068604482156" lon="12.377217447658879"><ele>578.0</ele><time>2026-05-01T13:40:02.831Z</time></trkpt><trkpt lat="43.79997536186242" lon="12.377253338766955"><ele>578.0</ele><time>2026-05-01T13:40:03.831Z</time></trkpt><trkpt lat="43.7998900279288" lon="12.377291826323983"><ele>578.0</ele><time>2026-05-01T13:40:04.831Z</time></trkpt><trkpt lat="43.79980385945779" lon="12.377310137101986"><ele>578.0</ele><time>2026-05-01T13:40:05.831Z</time></trkpt><trkpt lat="43.79970941221396" lon="12.37731659487253"><ele>578.0</ele><time>2026-05-01T13:40:06.831Z</time></trkpt><trkpt lat="43.79962741770146" lon="12.377301678585908"><ele>578.0</ele><time>2026-05-01T13:40:07.83Z</time></trkpt><trkpt lat="43.79954317990662" lon="12.377267242586084"><ele>578.0</ele><time>2026-05-01T13:40:08.83Z</time></trkpt><trkpt lat="43.799457967834385" lon="12.37721626036171"><ele>578.0</ele><time>2026-05-01T13:40:09.83Z</time></trkpt><trkpt lat="43.799356325668306" lon="12.377145822183072"><ele>578.0</ele><time>2026-05-01T13:40:10.83Z</time></trkpt><trkpt lat="43.79924591538051" lon="12.377059317860502"><ele>580.0</ele><time>2026-05-01T13:40:11.83Z</time></trkpt><trkpt lat="43.79914519883663" lon="12.376977563882646"><ele>582.0</ele><time>2026-05-01T13:40:12.83Z</time></trkpt><trkpt lat="43.79906199142303" lon="12.376896348964882"><ele>584.0</ele><time>2026-05-01T13:40:13.83Z</time></trkpt><trkpt lat="43.799001871737154" lon="12.376814275949418"><ele>586.0</ele><time>2026-05-01T13:40:14.83Z</time></trkpt><trkpt lat="43.79896409501555" lon="12.37671665480521"><ele>588.0</ele><time>2026-05-01T13:40:15.83Z</time></trkpt><trkpt lat="43.79895411611786" lon="12.37660757525523"><ele>588.0</ele><time>2026-05-01T13:40:16.83Z</time></trkpt><trkpt lat="43.79894991781378" lon="12.376479846399073"><ele>588.0</ele><time>2026-05-01T13:40:17.83Z</time></trkpt><trkpt lat="43.79895068684429" lon="12.376322534500352"><ele>588.0</ele><time>2026-05-01T13:40:18.83Z</time></trkpt><trkpt lat="43.798942519302194" lon="12.37615345590472"><ele>588.0</ele><time>2026-05-01T13:40:19.83Z</time></trkpt><trkpt lat="43.79894653004447" lon="12.37594222579712"><ele>588.6</ele><time>2026-05-01T13:40:20.83Z</time></trkpt><trkpt lat="43.79897334748192" lon="12.375735175431197"><ele>589.1999999999999</ele><time>2026-05-01T13:40:21.83Z</time></trkpt><trkpt lat="43.79897639508452" lon="12.375571451204271"><ele>589.8</ele><time>2026-05-01T13:40:22.83Z</time></trkpt><trkpt lat="43.7989609703264" lon="12.375440523055667"><ele>590.4</ele><time>2026-05-01T13:40:23.83Z</time></trkpt><trkpt lat="43.79894182735324" lon="12.375328634042997"><ele>591.0</ele><time>2026-05-01T13:40:25.83Z</time></trkpt><trkpt lat="43.79888397856674" lon="12.37521021955174"><ele>591.1666666666666</ele><time>2026-05-01T13:40:28.83Z</time></trkpt><trkpt lat="43.79882404557881" lon="12.375182230649349"><ele>591.3333333333334</ele><time>2026-05-01T13:40:29.83Z</time></trkpt><trkpt lat="43.79873818698388" lon="12.375198754406108"><ele>591.5</ele><time>2026-05-01T13:40:31.83Z</time></trkpt><trkpt lat="43.798613090915694" lon="12.37526191407816"><ele>591.6666666666667</ele><time>2026-05-01T13:40:33.83Z</time></trkpt><trkpt lat="43.79853667972713" lon="12.375304581242744"><ele>591.8333333333334</ele><time>2026-05-01T13:40:34.83Z</time></trkpt><trkpt lat="43.79845868405172" lon="12.375339012451821"><ele>592.0</ele><time>2026-05-01T13:40:35.83Z</time></trkpt><trkpt lat="43.798380203583775" lon="12.375353991629918"><ele>594.2</ele><time>2026-05-01T13:40:36.83Z</time></trkpt><trkpt lat="43.79830621565763" lon="12.375332005177393"><ele>596.4000000000001</ele><time>2026-05-01T13:40:37.83Z</time></trkpt><trkpt lat="43.7982272958298" lon="12.375287362875465"><ele>598.5999999999999</ele><time>2026-05-01T13:40:38.83Z</time></trkpt><trkpt lat="43.79811788958067" lon="12.37524303690309"><ele>600.8</ele><time>2026-05-01T13:40:39.83Z</time></trkpt><trkpt lat="43.79799588480405" lon="12.375191807530483"><ele>603.0</ele><time>2026-05-01T13:40:40.83Z</time></trkpt><trkpt lat="43.79786779802551" lon="12.375138204576873"><ele>603.0</ele><time>2026-05-01T13:40:41.83Z</time></trkpt><trkpt lat="43.79774145926448" lon="12.375085333136655"><ele>603.0</ele><time>2026-05-01T13:40:42.83Z</time></trkpt><trkpt lat="43.7976159815382" lon="12.375032822013154"><ele>603.0</ele><time>2026-05-01T13:40:43.83Z</time></trkpt><trkpt lat="43.79749180125758" lon="12.374981523589714"><ele>603.0</ele><time>2026-05-01T13:40:44.83Z</time></trkpt><trkpt lat="43.79736572365696" lon="12.374954150206019"><ele>604.5</ele><time>2026-05-01T13:40:45.83Z</time></trkpt><trkpt lat="43.79725121087643" lon="12.374888167634033"><ele>606.0</ele><time>2026-05-01T13:40:46.83Z</time></trkpt><trkpt lat="43.797137718226374" lon="12.374846448139394"><ele>607.5</ele><time>2026-05-01T13:40:47.83Z</time></trkpt><trkpt lat="43.79701636294264" lon="12.374825076628152"><ele>609.0</ele><time>2026-05-01T13:40:48.829Z</time></trkpt><trkpt lat="43.796900895003866" lon="12.374767984654229"><ele>610.0</ele><time>2026-05-01T13:40:49.829Z</time></trkpt><trkpt lat="43.796774377873234" lon="12.374730977680086"><ele>611.0</ele><time>2026-05-01T13:40:50.829Z</time></trkpt><trkpt lat="43.79664727767361" lon="12.374700560033013"><ele>612.0</ele><time>2026-05-01T13:40:51.829Z</time></trkpt><trkpt lat="43.79652254980254" lon="12.374671497434196"><ele>613.0</ele><time>2026-05-01T13:40:52.829Z</time></trkpt><trkpt lat="43.79640509567872" lon="12.374645520862662"><ele>614.0</ele><time>2026-05-01T13:40:53.829Z</time></trkpt><trkpt lat="43.7962877018844" lon="12.374615850869029"><ele>615.0</ele><time>2026-05-01T13:40:54.829Z</time></trkpt><trkpt lat="43.79618849059986" lon="12.374587900268171"><ele>616.0</ele><time>2026-05-01T13:40:55.829Z</time></trkpt><trkpt lat="43.796105715570945" lon="12.374567575703237"><ele>617.0</ele><time>2026-05-01T13:40:56.829Z</time></trkpt><trkpt lat="43.79604025896582" lon="12.374552005207276"><ele>618.0</ele><time>2026-05-01T13:40:57.829Z</time></trkpt><trkpt lat="43.795946322477235" lon="12.374567794749609"><ele>618.3333333333334</ele><time>2026-05-01T13:40:59.829Z</time></trkpt><trkpt lat="43.795825721796575" lon="12.37461513606791"><ele>618.6666666666666</ele><time>2026-05-01T13:41:01.829Z</time></trkpt><trkpt lat="43.79576923631489" lon="12.37467517278272"><ele>619.0</ele><time>2026-05-01T13:41:02.829Z</time></trkpt><trkpt lat="43.79572410676745" lon="12.374747334909479"><ele>619.3333333333333</ele><time>2026-05-01T13:41:03.829Z</time></trkpt><trkpt lat="43.795715032298965" lon="12.374835478094878"><ele>619.6666666666666</ele><time>2026-05-01T13:41:04.829Z</time></trkpt><trkpt lat="43.795697683299565" lon="12.374977532919843"><ele>620.0</ele><time>2026-05-01T13:41:06.829Z</time></trkpt><trkpt lat="43.795698133240386" lon="12.375068390529789"><ele>620.0</ele><time>2026-05-01T13:41:07.829Z</time></trkpt><trkpt lat="43.795710517856506" lon="12.37518975343217"><ele>620.0</ele><time>2026-05-01T13:41:08.829Z</time></trkpt><trkpt lat="43.79573175818711" lon="12.375309056749144"><ele>620.0</ele><time>2026-05-01T13:41:09.829Z</time></trkpt><trkpt lat="43.795761828512546" lon="12.375397655973549"><ele>620.0</ele><time>2026-05-01T13:41:10.829Z</time></trkpt><trkpt lat="43.795788249745556" lon="12.375558927595083"><ele>620.0</ele><time>2026-05-01T13:41:12.829Z</time></trkpt><trkpt lat="43.79581494247927" lon="12.375660600134829"><ele>620.0</ele><time>2026-05-01T13:41:13.829Z</time></trkpt><trkpt lat="43.79583674535194" lon="12.375775645853954"><ele>620.8</ele><time>2026-05-01T13:41:14.829Z</time></trkpt><trkpt lat="43.79585699425632" lon="12.375898290809141"><ele>621.6</ele><time>2026-05-01T13:41:15.829Z</time></trkpt><trkpt lat="43.79587891407041" lon="12.376026000247975"><ele>622.4</ele><time>2026-05-01T13:41:16.829Z</time></trkpt><trkpt lat="43.79590368332922" lon="12.37615910447004"><ele>623.2</ele><time>2026-05-01T13:41:17.829Z</time></trkpt><trkpt lat="43.79592855759035" lon="12.376301675146822"><ele>624.0</ele><time>2026-05-01T13:41:18.829Z</time></trkpt><trkpt lat="43.79595859219851" lon="12.376450972518672"><ele>623.0</ele><time>2026-05-01T13:41:19.829Z</time></trkpt><trkpt lat="43.795992802359635" lon="12.37659584514923"><ele>622.0</ele><time>2026-05-01T13:41:20.829Z</time></trkpt><trkpt lat="43.79602161135369" lon="12.376734613982459"><ele>621.0</ele><time>2026-05-01T13:41:21.829Z</time></trkpt><trkpt lat="43.79604726591552" lon="12.376845888671326"><ele>620.0</ele><time>2026-05-01T13:41:22.828Z</time></trkpt><trkpt lat="43.796072445755016" lon="12.376957980511808"><ele>619.0</ele><time>2026-05-01T13:41:24.829Z</time></trkpt><trkpt lat="43.79609333028518" lon="12.377056179968138"><ele>620.2</ele><time>2026-05-01T13:41:35.828Z</time></trkpt><trkpt lat="43.79613493752769" lon="12.377222328494332"><ele>621.4</ele><time>2026-05-01T13:41:37.828Z</time></trkpt><trkpt lat="43.79616039800285" lon="12.377316455827645"><ele>622.6</ele><time>2026-05-01T13:41:38.828Z</time></trkpt><trkpt lat="43.79618852861733" lon="12.377431450196553"><ele>623.8</ele><time>2026-05-01T13:41:39.828Z</time></trkpt><trkpt lat="43.79622367850473" lon="12.377545744916665"><ele>625.0</ele><time>2026-05-01T13:41:40.828Z</time></trkpt><trkpt lat="43.79625563305346" lon="12.377666842460643"><ele>625.0</ele><time>2026-05-01T13:41:41.828Z</time></trkpt><trkpt lat="43.7962845651519" lon="12.377786473812709"><ele>625.0</ele><time>2026-05-01T13:41:42.828Z</time></trkpt><trkpt lat="43.796303695503795" lon="12.37791786093063"><ele>625.0</ele><time>2026-05-01T13:41:43.828Z</time></trkpt><trkpt lat="43.796307223906055" lon="12.378048138632403"><ele>625.0</ele><time>2026-05-01T13:41:44.828Z</time></trkpt><trkpt lat="43.79633159575471" lon="12.378185013195784"><ele>625.0</ele><time>2026-05-01T13:41:45.828Z</time></trkpt><trkpt lat="43.79633137198479" lon="12.378319165481749"><ele>625.4</ele><time>2026-05-01T13:41:46.828Z</time></trkpt><trkpt lat="43.79633510475982" lon="12.378429649566382"><ele>625.8</ele><time>2026-05-01T13:41:47.828Z</time></trkpt><trkpt lat="43.79632660058003" lon="12.378552908515688"><ele>626.2</ele><time>2026-05-01T13:41:48.828Z</time></trkpt><trkpt lat="43.79632233364756" lon="12.378680870957734"><ele>626.6</ele><time>2026-05-01T13:41:49.828Z</time></trkpt><trkpt lat="43.79629448792655" lon="12.378818038569994"><ele>627.0</ele><time>2026-05-01T13:41:50.828Z</time></trkpt><trkpt lat="43.79628032431334" lon="12.37896932896036"><ele>627.0</ele><time>2026-05-01T13:41:51.828Z</time></trkpt><trkpt lat="43.796274441442094" lon="12.379118090634426"><ele>627.0</ele><time>2026-05-01T13:41:52.827Z</time></trkpt><trkpt lat="43.79626052198852" lon="12.379265998215724"><ele>627.0</ele><time>2026-05-01T13:41:53.827Z</time></trkpt><trkpt lat="43.796253926881896" lon="12.379394192844485"><ele>627.0</ele><time>2026-05-01T13:41:54.827Z</time></trkpt><trkpt lat="43.79624103364719" lon="12.379520518655983"><ele>627.0</ele><time>2026-05-01T13:41:55.827Z</time></trkpt><trkpt lat="43.7962123195722" lon="12.379619414253165"><ele>627.8000000000001</ele><time>2026-05-01T13:41:56.827Z</time></trkpt><trkpt lat="43.79617628326395" lon="12.37971272278985"><ele>628.6</ele><time>2026-05-01T13:41:57.827Z</time></trkpt><trkpt lat="43.7960955347627" lon="12.379838989768013"><ele>629.4000000000001</ele><time>2026-05-01T13:41:59.827Z</time></trkpt><trkpt lat="43.79602174122914" lon="12.379843758633974"><ele>630.2</ele><time>2026-05-01T13:42:00.827Z</time></trkpt><trkpt lat="43.79595655385849" lon="12.379833757961237"><ele>631.0</ele><time>2026-05-01T13:42:01.827Z</time></trkpt><trkpt lat="43.79582589336386" lon="12.37974328590378"><ele>634.3333333333334</ele><time>2026-05-01T13:42:03.827Z</time></trkpt><trkpt lat="43.79577157767104" lon="12.37965474848076"><ele>637.6666666666667</ele><time>2026-05-01T13:42:04.827Z</time></trkpt><trkpt lat="43.79574739403798" lon="12.379546511602008"><ele>641.0</ele><time>2026-05-01T13:42:05.827Z</time></trkpt><trkpt lat="43.79576462764373" lon="12.379439739317506"><ele>644.3333333333334</ele><time>2026-05-01T13:42:06.827Z</time></trkpt><trkpt lat="43.795778191696975" lon="12.379323464634009"><ele>647.6666666666666</ele><time>2026-05-01T13:42:07.827Z</time></trkpt><trkpt lat="43.79581623516328" lon="12.37918956730984"><ele>651.0</ele><time>2026-05-01T13:42:08.827Z</time></trkpt><trkpt lat="43.795855363429126" lon="12.379017741077533"><ele>651.0</ele><time>2026-05-01T13:42:09.827Z</time></trkpt><trkpt lat="43.79592940025927" lon="12.378872898894686"><ele>651.0</ele><time>2026-05-01T13:42:10.827Z</time></trkpt><trkpt lat="43.795982536611014" lon="12.378755443479827"><ele>651.0</ele><time>2026-05-01T13:42:11.827Z</time></trkpt><trkpt lat="43.79602490968517" lon="12.378653177543764"><ele>651.0</ele><time>2026-05-01T13:42:12.827Z</time></trkpt><trkpt lat="43.79605397642791" lon="12.378561146746518"><ele>651.0</ele><time>2026-05-01T13:42:13.827Z</time></trkpt><trkpt lat="43.79605643582768" lon="12.378419447188683"><ele>651.3333333333334</ele><time>2026-05-01T13:42:15.827Z</time></trkpt><trkpt lat="43.796013930349474" lon="12.378309642752507"><ele>651.6666666666666</ele><time>2026-05-01T13:42:17.827Z</time></trkpt><trkpt lat="43.795938374930536" lon="12.378171820930323"><ele>652.0</ele><time>2026-05-01T13:42:19.827Z</time></trkpt><trkpt lat="43.795882285423126" lon="12.378117804478833"><ele>652.3333333333333</ele><time>2026-05-01T13:42:20.827Z</time></trkpt><trkpt lat="43.79581161765454" lon="12.378096873345234"><ele>652.6666666666666</ele><time>2026-05-01T13:42:21.827Z</time></trkpt><trkpt lat="43.79573731975878" lon="12.378094292971475"><ele>653.0</ele><time>2026-05-01T13:42:22.827Z</time></trkpt><trkpt lat="43.79564717695992" lon="12.378103015550634"><ele>653.0</ele><time>2026-05-01T13:42:23.827Z</time></trkpt><trkpt lat="43.79554914435346" lon="12.3781064270887"><ele>653.0</ele><time>2026-05-01T13:42:24.827Z</time></trkpt><trkpt lat="43.795435353995906" lon="12.378089465397984"><ele>653.0</ele><time>2026-05-01T13:42:25.827Z</time></trkpt><trkpt lat="43.79529116296708" lon="12.378085452976439"><ele>653.0</ele><time>2026-05-01T13:42:26.827Z</time></trkpt><trkpt lat="43.795153368985474" lon="12.378085296798995"><ele>652.75</ele><time>2026-05-01T13:42:27.827Z</time></trkpt><trkpt lat="43.79503888646247" lon="12.378081362923893"><ele>652.5</ele><time>2026-05-01T13:42:28.827Z</time></trkpt><trkpt lat="43.794932130850086" lon="12.37806772759141"><ele>652.25</ele><time>2026-05-01T13:42:29.827Z</time></trkpt><trkpt lat="43.7948191750439" lon="12.378046779129154"><ele>652.0</ele><time>2026-05-01T13:42:30.827Z</time></trkpt><trkpt lat="43.79469311914332" lon="12.378002438299841"><ele>652.0</ele><time>2026-05-01T13:42:31.827Z</time></trkpt><trkpt lat="43.794553207949036" lon="12.37793978963416"><ele>652.0</ele><time>2026-05-01T13:42:32.827Z</time></trkpt><trkpt lat="43.79441465539052" lon="12.377846866248744"><ele>652.0</ele><time>2026-05-01T13:42:33.826Z</time></trkpt><trkpt lat="43.7942410691668" lon="12.377776675969228"><ele>654.6666666666667</ele><time>2026-05-01T13:42:34.826Z</time></trkpt><trkpt lat="43.79408535286899" lon="12.377721242655761"><ele>657.3333333333334</ele><time>2026-05-01T13:42:35.826Z</time></trkpt><trkpt lat="43.793932154736595" lon="12.377661101585469"><ele>660.0</ele><time>2026-05-01T13:42:36.826Z</time></trkpt><trkpt lat="43.79379277374112" lon="12.377614624390269"><ele>660.0</ele><time>2026-05-01T13:42:37.826Z</time></trkpt><trkpt lat="43.793663971262625" lon="12.377571674643681"><ele>660.0</ele><time>2026-05-01T13:42:38.826Z</time></trkpt><trkpt lat="43.793536422826186" lon="12.377529143062173"><ele>660.0</ele><time>2026-05-01T13:42:39.826Z</time></trkpt><trkpt lat="43.79342219147315" lon="12.377490975379162"><ele>660.0</ele><time>2026-05-01T13:42:40.826Z</time></trkpt><trkpt lat="43.79330643685498" lon="12.377460586936358"><ele>661.6666666666666</ele><time>2026-05-01T13:42:41.826Z</time></trkpt><trkpt lat="43.793202738556595" lon="12.377437375238573"><ele>663.3333333333334</ele><time>2026-05-01T13:42:42.826Z</time></trkpt><trkpt lat="43.79311015528361" lon="12.377450051120867"><ele>665.0</ele><time>2026-05-01T13:42:43.826Z</time></trkpt><trkpt lat="43.79303236256363" lon="12.377484568763055"><ele>666.6666666666667</ele><time>2026-05-01T13:42:44.826Z</time></trkpt><trkpt lat="43.792965449543836" lon="12.37754057217124"><ele>668.3333333333334</ele><time>2026-05-01T13:42:45.826Z</time></trkpt><trkpt lat="43.79292026109525" lon="12.377604220448706"><ele>670.0</ele><time>2026-05-01T13:42:46.826Z</time></trkpt><trkpt lat="43.79289394057162" lon="12.377687205923298"><ele>670.0</ele><time>2026-05-01T13:42:47.826Z</time></trkpt><trkpt lat="43.79285607405051" lon="12.377773935800283"><ele>670.0</ele><time>2026-05-01T13:42:48.826Z</time></trkpt><trkpt lat="43.792867161303235" lon="12.377888566949846"><ele>670.0</ele><time>2026-05-01T13:42:49.826Z</time></trkpt><trkpt lat="43.792881967224695" lon="12.377992670581037"><ele>670.0</ele><time>2026-05-01T13:42:50.826Z</time></trkpt><trkpt lat="43.792924983201004" lon="12.378087386859907"><ele>670.0</ele><time>2026-05-01T13:42:51.826Z</time></trkpt><trkpt lat="43.79298052259903" lon="12.378189158909997"><ele>670.0</ele><time>2026-05-01T13:42:52.826Z</time></trkpt><trkpt lat="43.79304727820977" lon="12.37832160768335"><ele>671.75</ele><time>2026-05-01T13:42:53.826Z</time></trkpt><trkpt lat="43.79311314084361" lon="12.378470758872544"><ele>673.5</ele><time>2026-05-01T13:42:54.826Z</time></trkpt><trkpt lat="43.793178417813124" lon="12.378621406797143"><ele>675.25</ele><time>2026-05-01T13:42:55.826Z</time></trkpt><trkpt lat="43.793229079199115" lon="12.378759424992833"><ele>677.0</ele><time>2026-05-01T13:42:56.826Z</time></trkpt><trkpt lat="43.79327998307662" lon="12.378893154926224"><ele>679.4000000000001</ele><time>2026-05-01T13:42:57.826Z</time></trkpt><trkpt lat="43.79333695407634" lon="12.379019019675257"><ele>681.8000000000001</ele><time>2026-05-01T13:42:58.826Z</time></trkpt><trkpt lat="43.79340043382932" lon="12.379122023039718"><ele>684.2</ele><time>2026-05-01T13:42:59.826Z</time></trkpt><trkpt lat="43.7934625049313" lon="12.379197158033072"><ele>686.6</ele><time>2026-05-01T13:43:00.826Z</time></trkpt><trkpt lat="43.79353221534473" lon="12.379269535500214"><ele>689.0</ele><time>2026-05-01T13:43:01.826Z</time></trkpt><trkpt lat="43.79359328621287" lon="12.37934531985538"><ele>689.0</ele><time>2026-05-01T13:43:02.826Z</time></trkpt><trkpt lat="43.79364318533049" lon="12.379409303779369"><ele>689.0</ele><time>2026-05-01T13:43:03.826Z</time></trkpt><trkpt lat="43.79370388656826" lon="12.37949640915877"><ele>689.0</ele><time>2026-05-01T13:43:05.826Z</time></trkpt><trkpt lat="43.7937669375683" lon="12.379506522794241"><ele>689.0</ele><time>2026-05-01T13:43:17.825Z</time></trkpt><trkpt lat="43.79374999601322" lon="12.379420032182395"><ele>689.0</ele><time>2026-05-01T13:43:21.825Z</time></trkpt><trkpt lat="43.79368953003614" lon="12.379394082099163"><ele>689.0</ele><time>2026-05-01T13:43:24.825Z</time></trkpt><trkpt lat="43.79361972009442" lon="12.379361133103744"><ele>689.0</ele><time>2026-05-01T13:43:26.825Z</time></trkpt><trkpt lat="43.79351746250724" lon="12.37926012456613"><ele>689.0</ele><time>2026-05-01T13:43:28.825Z</time></trkpt><trkpt lat="43.79347344772885" lon="12.379187317911818"><ele>689.0</ele><time>2026-05-01T13:43:29.825Z</time></trkpt><trkpt lat="43.793435197534" lon="12.379088727809213"><ele>689.0</ele><time>2026-05-01T13:43:30.825Z</time></trkpt><trkpt lat="43.79338538120987" lon="12.379020093917488"><ele>689.0</ele><time>2026-05-01T13:43:31.824Z</time></trkpt><trkpt lat="43.79332256736513" lon="12.378949184965494"><ele>689.0</ele><time>2026-05-01T13:43:32.825Z</time></trkpt><trkpt lat="43.793270344613624" lon="12.37883915236613"><ele>689.0</ele><time>2026-05-01T13:43:33.825Z</time></trkpt><trkpt lat="43.79321672953353" lon="12.378718930228114"><ele>687.0</ele><time>2026-05-01T13:43:34.824Z</time></trkpt><trkpt lat="43.793171197236255" lon="12.3786091375014"><ele>685.0</ele><time>2026-05-01T13:43:35.825Z</time></trkpt><trkpt lat="43.79312602745611" lon="12.37849337245568"><ele>683.0</ele><time>2026-05-01T13:43:36.825Z</time></trkpt><trkpt lat="43.79308216171836" lon="12.37838349689963"><ele>681.0</ele><time>2026-05-01T13:43:37.825Z</time></trkpt><trkpt lat="43.79303320096336" lon="12.37828510133732"><ele>679.0</ele><time>2026-05-01T13:43:38.825Z</time></trkpt><trkpt lat="43.792988289937995" lon="12.378183248180578"><ele>677.0</ele><time>2026-05-01T13:43:39.825Z</time></trkpt><trkpt lat="43.79295096694708" lon="12.37807576342392"><ele>675.8333333333333</ele><time>2026-05-01T13:43:40.825Z</time></trkpt><trkpt lat="43.792912590206974" lon="12.377974989205988"><ele>674.6666666666666</ele><time>2026-05-01T13:43:41.824Z</time></trkpt><trkpt lat="43.79288634113172" lon="12.37787480610897"><ele>673.5</ele><time>2026-05-01T13:43:42.824Z</time></trkpt><trkpt lat="43.792880218383594" lon="12.377765920386588"><ele>672.3333333333334</ele><time>2026-05-01T13:43:43.824Z</time></trkpt><trkpt lat="43.79289890391778" lon="12.3776656902971"><ele>671.1666666666667</ele><time>2026-05-01T13:43:44.824Z</time></trkpt><trkpt lat="43.79295710664993" lon="12.377570485343893"><ele>670.0</ele><time>2026-05-01T13:43:45.824Z</time></trkpt><trkpt lat="43.79303961297557" lon="12.377509975566515"><ele>670.0</ele><time>2026-05-01T13:43:46.824Z</time></trkpt><trkpt lat="43.79313703826725" lon="12.377467907428125"><ele>670.0</ele><time>2026-05-01T13:43:47.824Z</time></trkpt><trkpt lat="43.793255896356854" lon="12.37746534462794"><ele>670.0</ele><time>2026-05-01T13:43:48.824Z</time></trkpt><trkpt lat="43.793379764585694" lon="12.37749975470989"><ele>670.0</ele><time>2026-05-01T13:43:49.824Z</time></trkpt><trkpt lat="43.793515114806745" lon="12.37756515797789"><ele>667.5</ele><time>2026-05-01T13:43:50.824Z</time></trkpt><trkpt lat="43.79362760730849" lon="12.37761743435711"><ele>665.0</ele><time>2026-05-01T13:43:51.824Z</time></trkpt><trkpt lat="43.79373686367818" lon="12.377656562070245"><ele>662.5</ele><time>2026-05-01T13:43:52.824Z</time></trkpt><trkpt lat="43.79384119060898" lon="12.377689746775287"><ele>660.0</ele><time>2026-05-01T13:43:53.824Z</time></trkpt><trkpt lat="43.7939578576806" lon="12.37772659875656"><ele>660.0</ele><time>2026-05-01T13:43:54.824Z</time></trkpt><trkpt lat="43.79408077464876" lon="12.377762460544641"><ele>660.0</ele><time>2026-05-01T13:43:55.824Z</time></trkpt><trkpt lat="43.79419999447183" lon="12.377793879183741"><ele>660.0</ele><time>2026-05-01T13:43:56.824Z</time></trkpt><trkpt lat="43.794312944790214" lon="12.377831504504767"><ele>660.0</ele><time>2026-05-01T13:43:57.824Z</time></trkpt><trkpt lat="43.79442013067859" lon="12.37788104814354"><ele>658.4</ele><time>2026-05-01T13:43:58.824Z</time></trkpt><trkpt lat="43.79452017125752" lon="12.377942057953355"><ele>656.8</ele><time>2026-05-01T13:43:59.824Z</time></trkpt><trkpt lat="43.79461983037971" lon="12.377995608361964"><ele>655.2</ele><time>2026-05-01T13:44:00.824Z</time></trkpt><trkpt lat="43.79471905361716" lon="12.37803288070312"><ele>653.6</ele><time>2026-05-01T13:44:01.824Z</time></trkpt><trkpt lat="43.79481610834258" lon="12.378058584161522"><ele>652.0</ele><time>2026-05-01T13:44:02.823Z</time></trkpt><trkpt lat="43.794916569879085" lon="12.378079510629599"><ele>652.2</ele><time>2026-05-01T13:44:03.823Z</time></trkpt><trkpt lat="43.795026088814645" lon="12.378088033799742"><ele>652.4000000000001</ele><time>2026-05-01T13:44:04.823Z</time></trkpt><trkpt lat="43.79514677311828" lon="12.378123716697615"><ele>652.5999999999999</ele><time>2026-05-01T13:44:05.823Z</time></trkpt><trkpt lat="43.79525109928273" lon="12.378131406115784"><ele>652.8</ele><time>2026-05-01T13:44:06.823Z</time></trkpt><trkpt lat="43.79534949132977" lon="12.378133327053941"><ele>653.0</ele><time>2026-05-01T13:44:07.823Z</time></trkpt><trkpt lat="43.79544023303274" lon="12.378130665169717"><ele>653.0</ele><time>2026-05-01T13:44:08.823Z</time></trkpt><trkpt lat="43.79553132646937" lon="12.378136406492683"><ele>653.0</ele><time>2026-05-01T13:44:09.823Z</time></trkpt><trkpt lat="43.79561441730634" lon="12.378141299254295"><ele>653.0</ele><time>2026-05-01T13:44:10.823Z</time></trkpt><trkpt lat="43.79569665879547" lon="12.378146877047051"><ele>653.0</ele><time>2026-05-01T13:44:11.823Z</time></trkpt><trkpt lat="43.79577199551345" lon="12.378157339158786"><ele>653.0</ele><time>2026-05-01T13:44:12.823Z</time></trkpt><trkpt lat="43.795841495672775" lon="12.378165535488755"><ele>653.0</ele><time>2026-05-01T13:44:13.823Z</time></trkpt><trkpt lat="43.79595402552812" lon="12.378234395620447"><ele>653.0</ele><time>2026-05-01T13:44:15.823Z</time></trkpt><trkpt lat="43.795999242106305" lon="12.378305567280217"><ele>653.0</ele><time>2026-05-01T13:44:16.823Z</time></trkpt><trkpt lat="43.796031189918885" lon="12.378385926922814"><ele>653.0</ele><time>2026-05-01T13:44:17.823Z</time></trkpt><trkpt lat="43.79601464118241" lon="12.378506641166876"><ele>653.0</ele><time>2026-05-01T13:44:18.823Z</time></trkpt><trkpt lat="43.79598970904045" lon="12.37861051004417"><ele>653.0</ele><time>2026-05-01T13:44:19.823Z</time></trkpt><trkpt lat="43.79595513635351" lon="12.378721229287336"><ele>653.0</ele><time>2026-05-01T13:44:20.823Z</time></trkpt><trkpt lat="43.79590907921669" lon="12.378824513144178"><ele>652.6666666666666</ele><time>2026-05-01T13:44:21.823Z</time></trkpt><trkpt lat="43.79586216066201" lon="12.37894336030354"><ele>652.3333333333333</ele><time>2026-05-01T13:44:22.823Z</time></trkpt><trkpt lat="43.79581979559802" lon="12.379066129496838"><ele>652.0</ele><time>2026-05-01T13:44:23.823Z</time></trkpt><trkpt lat="43.79578392428352" lon="12.379177447161107"><ele>651.6666666666666</ele><time>2026-05-01T13:44:24.823Z</time></trkpt><trkpt lat="43.79575844243825" lon="12.379266561603341"><ele>651.3333333333334</ele><time>2026-05-01T13:44:25.823Z</time></trkpt><trkpt lat="43.79573882050777" lon="12.379360906736412"><ele>651.0</ele><time>2026-05-01T13:44:26.823Z</time></trkpt><trkpt lat="43.79573196125357" lon="12.379452146337997"><ele>651.0</ele><time>2026-05-01T13:44:27.823Z</time></trkpt><trkpt lat="43.79576971117855" lon="12.379603336193828"><ele>651.0</ele><time>2026-05-01T13:44:29.823Z</time></trkpt><trkpt lat="43.795799980247956" lon="12.379680023833892"><ele>651.0</ele><time>2026-05-01T13:44:30.823Z</time></trkpt><trkpt lat="43.79585008202989" lon="12.379744427043759"><ele>651.0</ele><time>2026-05-01T13:44:31.823Z</time></trkpt><trkpt lat="43.79591089361454" lon="12.379823095270295"><ele>651.0</ele><time>2026-05-01T13:44:32.823Z</time></trkpt><trkpt lat="43.79596318974806" lon="12.37987707486165"><ele>651.0</ele><time>2026-05-01T13:44:33.823Z</time></trkpt><trkpt lat="43.79606378809277" lon="12.379904411980926"><ele>647.6666666666666</ele><time>2026-05-01T13:44:35.823Z</time></trkpt><trkpt lat="43.7961514922921" lon="12.379826042845814"><ele>644.3333333333334</ele><time>2026-05-01T13:44:37.823Z</time></trkpt><trkpt lat="43.796202281185565" lon="12.379745502736332"><ele>641.0</ele><time>2026-05-01T13:44:38.823Z</time></trkpt><trkpt lat="43.79624309491199" lon="12.379646659880775"><ele>637.6666666666667</ele><time>2026-05-01T13:44:39.823Z</time></trkpt><trkpt lat="43.79627446806504" lon="12.379548188424089"><ele>634.3333333333334</ele><time>2026-05-01T13:44:40.823Z</time></trkpt><trkpt lat="43.7962900211905" lon="12.379452874634302"><ele>631.0</ele><time>2026-05-01T13:44:41.823Z</time></trkpt><trkpt lat="43.7962853084208" lon="12.379331632709551"><ele>630.4</ele><time>2026-05-01T13:44:42.823Z</time></trkpt><trkpt lat="43.79628232587114" lon="12.379210682532873"><ele>629.8</ele><time>2026-05-01T13:44:43.822Z</time></trkpt><trkpt lat="43.79628156167038" lon="12.37907428650816"><ele>629.1999999999999</ele><time>2026-05-01T13:44:44.822Z</time></trkpt><trkpt lat="43.79628388112285" lon="12.378915553955652"><ele>628.6</ele><time>2026-05-01T13:44:45.822Z</time></trkpt><trkpt lat="43.796310513242105" lon="12.378728456020072"><ele>628.0</ele><time>2026-05-01T13:44:46.822Z</time></trkpt><trkpt lat="43.79634031550044" lon="12.378574599529605"><ele>628.0</ele><time>2026-05-01T13:44:47.822Z</time></trkpt><trkpt lat="43.79634706337761" lon="12.378423689545887"><ele>628.0</ele><time>2026-05-01T13:44:48.822Z</time></trkpt><trkpt lat="43.79634428338752" lon="12.378277411043866"><ele>628.0</ele><time>2026-05-01T13:44:49.822Z</time></trkpt><trkpt lat="43.79634252366208" lon="12.378119792031098"><ele>628.0</ele><time>2026-05-01T13:44:50.822Z</time></trkpt><trkpt lat="43.79631915318387" lon="12.37795765532692"><ele>628.0</ele><time>2026-05-01T13:44:51.822Z</time></trkpt><trkpt lat="43.7962885358515" lon="12.377796923857387"><ele>627.25</ele><time>2026-05-01T13:44:52.822Z</time></trkpt><trkpt lat="43.79625527322174" lon="12.37762756051588"><ele>626.5</ele><time>2026-05-01T13:44:53.822Z</time></trkpt><trkpt lat="43.796204978344605" lon="12.377435413079482"><ele>625.75</ele><time>2026-05-01T13:44:54.822Z</time></trkpt><trkpt lat="43.79615826734919" lon="12.377232060142111"><ele>625.0</ele><time>2026-05-01T13:44:55.822Z</time></trkpt><trkpt lat="43.79610629373292" lon="12.377007434006288"><ele>624.6666666666667</ele><time>2026-05-01T13:44:56.822Z</time></trkpt><trkpt lat="43.79606460272738" lon="12.376769840188498"><ele>624.3333333333334</ele><time>2026-05-01T13:44:57.822Z</time></trkpt><trkpt lat="43.79601532711172" lon="12.376545748412173"><ele>624.0</ele><time>2026-05-01T13:44:58.822Z</time></trkpt><trkpt lat="43.795965418598726" lon="12.376315586790845"><ele>624.0</ele><time>2026-05-01T13:44:59.822Z</time></trkpt><trkpt lat="43.79591897825873" lon="12.376091332187968"><ele>624.0</ele><time>2026-05-01T13:45:00.822Z</time></trkpt><trkpt lat="43.7958803555558" lon="12.37587304607146"><ele>624.0</ele><time>2026-05-01T13:45:01.822Z</time></trkpt><trkpt lat="43.795840405878906" lon="12.37566028866063"><ele>623.0</ele><time>2026-05-01T13:45:02.822Z</time></trkpt><trkpt lat="43.79578471509166" lon="12.375472885712863"><ele>622.0</ele><time>2026-05-01T13:45:03.822Z</time></trkpt><trkpt lat="43.79575165096833" lon="12.37529149156726"><ele>621.0</ele><time>2026-05-01T13:45:04.822Z</time></trkpt><trkpt lat="43.79572269346153" lon="12.375121764204307"><ele>620.0</ele><time>2026-05-01T13:45:05.822Z</time></trkpt><trkpt lat="43.7957300517044" lon="12.374977299198898"><ele>620.0</ele><time>2026-05-01T13:45:06.822Z</time></trkpt><trkpt lat="43.795742229554875" lon="12.374857870932674"><ele>620.0</ele><time>2026-05-01T13:45:07.822Z</time></trkpt><trkpt lat="43.795781880255774" lon="12.374708224935139"><ele>620.0</ele><time>2026-05-01T13:45:09.822Z</time></trkpt><trkpt lat="43.795856040211" lon="12.374654153391624"><ele>620.0</ele><time>2026-05-01T13:45:10.822Z</time></trkpt><trkpt lat="43.79595454221266" lon="12.374608745413283"><ele>620.0</ele><time>2026-05-01T13:45:11.822Z</time></trkpt><trkpt lat="43.79606739881823" lon="12.37459737935155"><ele>619.5</ele><time>2026-05-01T13:45:12.822Z</time></trkpt><trkpt lat="43.796187217998074" lon="12.374623107177214"><ele>619.0</ele><time>2026-05-01T13:45:13.822Z</time></trkpt><trkpt lat="43.79630872084088" lon="12.374659741189078"><ele>618.5</ele><time>2026-05-01T13:45:14.822Z</time></trkpt><trkpt lat="43.79645574583073" lon="12.374700765297465"><ele>618.0</ele><time>2026-05-01T13:45:15.822Z</time></trkpt><trkpt lat="43.79660785408436" lon="12.374738991744513"><ele>616.3333333333334</ele><time>2026-05-01T13:45:16.822Z</time></trkpt><trkpt lat="43.79676147468773" lon="12.374779237255776"><ele>614.6666666666667</ele><time>2026-05-01T13:45:17.822Z</time></trkpt><trkpt lat="43.79690204764069" lon="12.37482006738416"><ele>613.0</ele><time>2026-05-01T13:45:18.822Z</time></trkpt><trkpt lat="43.79704916024077" lon="12.374868873028088"><ele>612.0</ele><time>2026-05-01T13:45:19.822Z</time></trkpt><trkpt lat="43.79718964641823" lon="12.3749153052944"><ele>611.0</ele><time>2026-05-01T13:45:20.822Z</time></trkpt><trkpt lat="43.7973374723565" lon="12.374966709224301"><ele>610.0</ele><time>2026-05-01T13:45:21.822Z</time></trkpt><trkpt lat="43.797478194562686" lon="12.375018426422931"><ele>609.0</ele><time>2026-05-01T13:45:22.822Z</time></trkpt><trkpt lat="43.797614747957006" lon="12.375071349493"><ele>607.5</ele><time>2026-05-01T13:45:23.822Z</time></trkpt><trkpt lat="43.79774158329046" lon="12.375122421237661"><ele>606.0</ele><time>2026-05-01T13:45:24.821Z</time></trkpt><trkpt lat="43.797861519067176" lon="12.375172613455335"><ele>604.5</ele><time>2026-05-01T13:45:25.821Z</time></trkpt><trkpt lat="43.797973264332185" lon="12.37522373353915"><ele>603.0</ele><time>2026-05-01T13:45:26.821Z</time></trkpt><trkpt lat="43.79807850280545" lon="12.375276423609536"><ele>603.0</ele><time>2026-05-01T13:45:27.821Z</time></trkpt><trkpt lat="43.79818401577456" lon="12.375319174431091"><ele>603.0</ele><time>2026-05-01T13:45:28.821Z</time></trkpt><trkpt lat="43.798286589320135" lon="12.375362775046206"><ele>603.0</ele><time>2026-05-01T13:45:29.821Z</time></trkpt><trkpt lat="43.79838579644281" lon="12.375391454093466"><ele>603.0</ele><time>2026-05-01T13:45:30.821Z</time></trkpt><trkpt lat="43.79848167845095" lon="12.375386526746667"><ele>603.0</ele><time>2026-05-01T13:45:31.821Z</time></trkpt><trkpt lat="43.7985773814279" lon="12.375362842957102"><ele>600.8</ele><time>2026-05-01T13:45:32.821Z</time></trkpt><trkpt lat="43.798669482230665" lon="12.375308055592923"><ele>598.5999999999999</ele><time>2026-05-01T13:45:33.821Z</time></trkpt><trkpt lat="43.79875631382782" lon="12.375244429457293"><ele>596.4000000000001</ele><time>2026-05-01T13:45:34.822Z</time></trkpt><trkpt lat="43.79883061918936" lon="12.375227978619328"><ele>594.2</ele><time>2026-05-01T13:45:35.821Z</time></trkpt><trkpt lat="43.79891871928961" lon="12.375301926797711"><ele>592.0</ele><time>2026-05-01T13:45:37.821Z</time></trkpt><trkpt lat="43.79895176139634" lon="12.375467906424587"><ele>591.75</ele><time>2026-05-01T13:45:39.821Z</time></trkpt><trkpt lat="43.79894992256994" lon="12.375599823908743"><ele>591.5</ele><time>2026-05-01T13:45:40.821Z</time></trkpt><trkpt lat="43.79895493097898" lon="12.375751916435586"><ele>591.25</ele><time>2026-05-01T13:45:41.822Z</time></trkpt><trkpt lat="43.79892967436605" lon="12.375931997729507"><ele>591.0</ele><time>2026-05-01T13:45:42.822Z</time></trkpt><trkpt lat="43.79892241499283" lon="12.37609168999629"><ele>591.0</ele><time>2026-05-01T13:45:43.821Z</time></trkpt><trkpt lat="43.79893501204036" lon="12.376248689768746"><ele>591.0</ele><time>2026-05-01T13:45:44.821Z</time></trkpt><trkpt lat="43.79892899802516" lon="12.376398128472534"><ele>591.0</ele><time>2026-05-01T13:45:45.821Z</time></trkpt><trkpt lat="43.79892680519651" lon="12.376554050313587"><ele>591.0</ele><time>2026-05-01T13:45:46.822Z</time></trkpt><trkpt lat="43.79893881006183" lon="12.376680383768253"><ele>591.0</ele><time>2026-05-01T13:45:47.821Z</time></trkpt><trkpt lat="43.79896602578168" lon="12.376778201741226"><ele>590.5</ele><time>2026-05-01T13:45:48.821Z</time></trkpt><trkpt lat="43.79901063608508" lon="12.376872580927047"><ele>590.0</ele><time>2026-05-01T13:45:49.821Z</time></trkpt><trkpt lat="43.79906203771004" lon="12.376954957006191"><ele>589.5</ele><time>2026-05-01T13:45:50.821Z</time></trkpt><trkpt lat="43.79912014856378" lon="12.377005970841546"><ele>589.0</ele><time>2026-05-01T13:45:51.821Z</time></trkpt><trkpt lat="43.79920782415432" lon="12.37706884482047"><ele>588.5</ele><time>2026-05-01T13:45:52.821Z</time></trkpt><trkpt lat="43.799306316717896" lon="12.377160362399653"><ele>588.0</ele><time>2026-05-01T13:45:53.821Z</time></trkpt><trkpt lat="43.799404366689735" lon="12.377231334338346"><ele>586.0</ele><time>2026-05-01T13:45:54.821Z</time></trkpt><trkpt lat="43.79951070296482" lon="12.377299862469279"><ele>584.0</ele><time>2026-05-01T13:45:55.821Z</time></trkpt><trkpt lat="43.799612406831606" lon="12.377329810655949"><ele>582.0</ele><time>2026-05-01T13:45:56.821Z</time></trkpt><trkpt lat="43.79970648108204" lon="12.377360540498376"><ele>580.0</ele><time>2026-05-01T13:45:57.821Z</time></trkpt><trkpt lat="43.799806315966805" lon="12.377357932959983"><ele>578.0</ele><time>2026-05-01T13:45:58.821Z</time></trkpt><trkpt lat="43.79991070303184" lon="12.377333209306583"><ele>578.0</ele><time>2026-05-01T13:45:59.821Z</time></trkpt><trkpt lat="43.80001896295923" lon="12.377278222665053"><ele>578.0</ele><time>2026-05-01T13:46:00.821Z</time></trkpt><trkpt lat="43.80012532715788" lon="12.377209141002108"><ele>578.0</ele><time>2026-05-01T13:46:01.821Z</time></trkpt><trkpt lat="43.80023196250597" lon="12.377105593924204"><ele>578.0</ele><time>2026-05-01T13:46:02.821Z</time></trkpt><trkpt lat="43.80035289847801" lon="12.37697769688564"><ele>578.0</ele><time>2026-05-01T13:46:03.821Z</time></trkpt><trkpt lat="43.8004787722643" lon="12.376848045107744"><ele>578.0</ele><time>2026-05-01T13:46:04.82Z</time></trkpt><trkpt lat="43.80060194671207" lon="12.376719399745182"><ele>578.0</ele><time>2026-05-01T13:46:05.82Z</time></trkpt><trkpt lat="43.80070304384805" lon="12.376604068254377"><ele>578.0</ele><time>2026-05-01T13:46:06.82Z</time></trkpt><trkpt lat="43.800798587094704" lon="12.376494555614535"><ele>578.0</ele><time>2026-05-01T13:46:07.82Z</time></trkpt><trkpt lat="43.80088170230698" lon="12.376382653996464"><ele>578.0</ele><time>2026-05-01T13:46:08.82Z</time></trkpt><trkpt lat="43.8009511422714" lon="12.376250103576147"><ele>578.0</ele><time>2026-05-01T13:46:09.82Z</time></trkpt><trkpt lat="43.80101945509595" lon="12.37608136730706"><ele>578.0</ele><time>2026-05-01T13:46:10.82Z</time></trkpt><trkpt lat="43.801083153732634" lon="12.37588981954308"><ele>577.3333333333333</ele><time>2026-05-01T13:46:11.82Z</time></trkpt><trkpt lat="43.80114435306535" lon="12.375665662169157"><ele>576.6666666666666</ele><time>2026-05-01T13:46:12.82Z</time></trkpt><trkpt lat="43.80120104916627" lon="12.375426612782974"><ele>576.0</ele><time>2026-05-01T13:46:13.82Z</time></trkpt><trkpt lat="43.801249895167" lon="12.37519015601013"><ele>576.0</ele><time>2026-05-01T13:46:14.82Z</time></trkpt><trkpt lat="43.80128828150334" lon="12.374979788053933"><ele>576.0</ele><time>2026-05-01T13:46:15.82Z</time></trkpt><trkpt lat="43.80132214336599" lon="12.374817274313925"><ele>576.0</ele><time>2026-05-01T13:46:16.82Z</time></trkpt><trkpt lat="43.8013499989276" lon="12.37467580184915"><ele>576.0</ele><time>2026-05-01T13:46:17.82Z</time></trkpt><trkpt lat="43.80138869045502" lon="12.374576694539892"><ele>576.8</ele><time>2026-05-01T13:46:18.82Z</time></trkpt><trkpt lat="43.8014189028551" lon="12.374489355303542"><ele>577.6</ele><time>2026-05-01T13:46:19.82Z</time></trkpt><trkpt lat="43.80145512383157" lon="12.37441593855202"><ele>578.4</ele><time>2026-05-01T13:46:20.82Z</time></trkpt><trkpt lat="43.80157671959642" lon="12.374362098770986"><ele>579.2</ele><time>2026-05-01T13:46:22.82Z</time></trkpt><trkpt lat="43.80165839931609" lon="12.374384855061619"><ele>580.0</ele><time>2026-05-01T13:46:23.82Z</time></trkpt><trkpt lat="43.80175919078605" lon="12.374428795846166"><ele>579.5</ele><time>2026-05-01T13:46:24.82Z</time></trkpt><trkpt lat="43.80186557125776" lon="12.374534706874373"><ele>579.0</ele><time>2026-05-01T13:46:25.82Z</time></trkpt><trkpt lat="43.801983073170646" lon="12.374629006300646"><ele>578.5</ele><time>2026-05-01T13:46:26.82Z</time></trkpt><trkpt lat="43.80211168910044" lon="12.374732772861371"><ele>578.0</ele><time>2026-05-01T13:46:27.82Z</time></trkpt><trkpt lat="43.80226278786062" lon="12.37485390137071"><ele>578.0</ele><time>2026-05-01T13:46:28.82Z</time></trkpt><trkpt lat="43.802441846974816" lon="12.3749702636308"><ele>578.0</ele><time>2026-05-01T13:46:29.82Z</time></trkpt><trkpt lat="43.802568100217755" lon="12.375074709345256"><ele>578.0</ele><time>2026-05-01T13:46:30.82Z</time></trkpt><trkpt lat="43.802662633978706" lon="12.375152232361048"><ele>579.8</ele><time>2026-05-01T13:46:31.82Z</time></trkpt><trkpt lat="43.80273464004013" lon="12.37524067911681"><ele>581.5999999999999</ele><time>2026-05-01T13:46:32.82Z</time></trkpt><trkpt lat="43.802810886645545" lon="12.375280140766638"><ele>583.4000000000001</ele><time>2026-05-01T13:46:33.82Z</time></trkpt><trkpt lat="43.802878152113706" lon="12.375393054451566"><ele>585.2</ele><time>2026-05-01T13:46:34.82Z</time></trkpt><trkpt lat="43.80292727178554" lon="12.375537132331479"><ele>587.0</ele><time>2026-05-01T13:46:35.82Z</time></trkpt><trkpt lat="43.80298309354965" lon="12.375702652925083"><ele>587.0</ele><time>2026-05-01T13:46:36.82Z</time></trkpt><trkpt lat="43.80306193240321" lon="12.37583408806381"><ele>587.0</ele><time>2026-05-01T13:46:37.82Z</time></trkpt><trkpt lat="43.80314477223464" lon="12.375993873501313"><ele>587.0</ele><time>2026-05-01T13:46:38.82Z</time></trkpt><trkpt lat="43.803250244694155" lon="12.376155399693694"><ele>587.0</ele><time>2026-05-01T13:46:39.82Z</time></trkpt><trkpt lat="43.80334012332983" lon="12.376306988066073"><ele>587.2</ele><time>2026-05-01T13:46:40.82Z</time></trkpt><trkpt lat="43.80342176955" lon="12.376430322592723"><ele>587.4000000000001</ele><time>2026-05-01T13:46:41.82Z</time></trkpt><trkpt lat="43.80348499721205" lon="12.376530016022048"><ele>587.5999999999999</ele><time>2026-05-01T13:46:42.82Z</time></trkpt><trkpt lat="43.803528808190485" lon="12.376611717931011"><ele>587.8</ele><time>2026-05-01T13:46:43.82Z</time></trkpt><trkpt lat="43.803591230799555" lon="12.376709240096403"><ele>588.0</ele><time>2026-05-01T13:46:45.819Z</time></trkpt><trkpt lat="43.80350462192353" lon="12.376831807777524"><ele>586.75</ele><time>2026-05-01T13:46:55.819Z</time></trkpt><trkpt lat="43.803429236728164" lon="12.376925124431366"><ele>585.5</ele><time>2026-05-01T13:46:56.819Z</time></trkpt><trkpt lat="43.803330398433566" lon="12.377032523144296"><ele>584.25</ele><time>2026-05-01T13:46:57.819Z</time></trkpt><trkpt lat="43.803212271554855" lon="12.377163363519475"><ele>583.0</ele><time>2026-05-01T13:46:58.819Z</time></trkpt><trkpt lat="43.80310924184291" lon="12.377312673834997"><ele>581.3333333333334</ele><time>2026-05-01T13:46:59.819Z</time></trkpt><trkpt lat="43.80303024424697" lon="12.377498111310958"><ele>579.6666666666666</ele><time>2026-05-01T13:47:00.819Z</time></trkpt><trkpt lat="43.802974151426305" lon="12.377683442110238"><ele>578.0</ele><time>2026-05-01T13:47:01.819Z</time></trkpt><trkpt lat="43.802933906544354" lon="12.377889765983959"><ele>575.6666666666666</ele><time>2026-05-01T13:47:02.819Z</time></trkpt><trkpt lat="43.80290067517768" lon="12.37810818752549"><ele>573.3333333333334</ele><time>2026-05-01T13:47:03.819Z</time></trkpt><trkpt lat="43.802886011621716" lon="12.37835665833189"><ele>571.0</ele><time>2026-05-01T13:47:04.819Z</time></trkpt><trkpt lat="43.80289873671012" lon="12.378627374708097"><ele>567.6666666666667</ele><time>2026-05-01T13:47:05.819Z</time></trkpt><trkpt lat="43.80291896005917" lon="12.378903514807856"><ele>564.3333333333334</ele><time>2026-05-01T13:47:06.819Z</time></trkpt><trkpt lat="43.80293495450214" lon="12.379166600906068"><ele>561.0</ele><time>2026-05-01T13:47:07.819Z</time></trkpt><trkpt lat="43.80294967640594" lon="12.379418037180107"><ele>561.0</ele><time>2026-05-01T13:47:08.819Z</time></trkpt><trkpt lat="43.80296229414725" lon="12.37967046689463"><ele>561.0</ele><time>2026-05-01T13:47:09.819Z</time></trkpt><trkpt lat="43.80297976243871" lon="12.379924467142512"><ele>561.0</ele><time>2026-05-01T13:47:10.819Z</time></trkpt><trkpt lat="43.80299543740461" lon="12.380179631144236"><ele>559.0</ele><time>2026-05-01T13:47:11.819Z</time></trkpt><trkpt lat="43.80300831678862" lon="12.380437847655122"><ele>557.0</ele><time>2026-05-01T13:47:12.819Z</time></trkpt><trkpt lat="43.80302112459349" lon="12.380701509148528"><ele>555.0</ele><time>2026-05-01T13:47:13.819Z</time></trkpt><trkpt lat="43.80303871986445" lon="12.380967916030428"><ele>554.3333333333334</ele><time>2026-05-01T13:47:14.819Z</time></trkpt><trkpt lat="43.80305600720268" lon="12.381218178540758"><ele>553.6666666666667</ele><time>2026-05-01T13:47:15.819Z</time></trkpt><trkpt lat="43.80306968334876" lon="12.381467058324128"><ele>553.0</ele><time>2026-05-01T13:47:16.819Z</time></trkpt><trkpt lat="43.80308386445017" lon="12.38172306310178"><ele>551.0</ele><time>2026-05-01T13:47:17.819Z</time></trkpt><trkpt lat="43.80310831039873" lon="12.381980392889925"><ele>549.0</ele><time>2026-05-01T13:47:18.819Z</time></trkpt><trkpt lat="43.8031412248413" lon="12.38222810630168"><ele>547.0</ele><time>2026-05-01T13:47:19.819Z</time></trkpt><trkpt lat="43.80317697451652" lon="12.382469786860408"><ele>547.0</ele><time>2026-05-01T13:47:20.819Z</time></trkpt><trkpt lat="43.80320802450833" lon="12.382714702870109"><ele>547.0</ele><time>2026-05-01T13:47:21.819Z</time></trkpt><trkpt lat="43.80323793691192" lon="12.382963069906365"><ele>547.0</ele><time>2026-05-01T13:47:22.819Z</time></trkpt><trkpt lat="43.80326686567531" lon="12.38319589589015"><ele>545.25</ele><time>2026-05-01T13:47:23.819Z</time></trkpt><trkpt lat="43.803286759677896" lon="12.383405978449225"><ele>543.5</ele><time>2026-05-01T13:47:24.819Z</time></trkpt><trkpt lat="43.80329142002109" lon="12.383595255886357"><ele>541.75</ele><time>2026-05-01T13:47:25.819Z</time></trkpt><trkpt lat="43.80327479657038" lon="12.38377308623897"><ele>540.0</ele><time>2026-05-01T13:47:26.818Z</time></trkpt><trkpt lat="43.80322650029449" lon="12.383944947027436"><ele>538.3333333333334</ele><time>2026-05-01T13:47:27.818Z</time></trkpt><trkpt lat="43.803128967353096" lon="12.38409462704978"><ele>536.6666666666667</ele><time>2026-05-01T13:47:28.818Z</time></trkpt><trkpt lat="43.80305884902002" lon="12.384283395999681"><ele>535.0</ele><time>2026-05-01T13:47:29.818Z</time></trkpt><trkpt lat="43.80296902524482" lon="12.38445800496274"><ele>535.0</ele><time>2026-05-01T13:47:30.818Z</time></trkpt><trkpt lat="43.80288178332714" lon="12.384630134260442"><ele>535.0</ele><time>2026-05-01T13:47:31.818Z</time></trkpt><trkpt lat="43.80279605549639" lon="12.384807148477796"><ele>535.0</ele><time>2026-05-01T13:47:32.818Z</time></trkpt><trkpt lat="43.802705655611675" lon="12.384998551623324"><ele>532.0</ele><time>2026-05-01T13:47:33.818Z</time></trkpt><trkpt lat="43.80261103430405" lon="12.385197510938262"><ele>529.0</ele><time>2026-05-01T13:47:34.818Z</time></trkpt><trkpt lat="43.80251633200374" lon="12.385394713763976"><ele>526.0</ele><time>2026-05-01T13:47:35.818Z</time></trkpt><trkpt lat="43.80241944178834" lon="12.385589240541169"><ele>525.6666666666667</ele><time>2026-05-01T13:47:36.818Z</time></trkpt><trkpt lat="43.8023258616492" lon="12.385784896033636"><ele>525.3333333333334</ele><time>2026-05-01T13:47:37.818Z</time></trkpt><trkpt lat="43.80223369800576" lon="12.385978450499708"><ele>525.0</ele><time>2026-05-01T13:47:38.818Z</time></trkpt><trkpt lat="43.80214194633933" lon="12.386166051489973"><ele>524.3333333333334</ele><time>2026-05-01T13:47:39.818Z</time></trkpt><trkpt lat="43.80204863830108" lon="12.38635291271756"><ele>523.6666666666667</ele><time>2026-05-01T13:47:40.818Z</time></trkpt><trkpt lat="43.80195833861608" lon="12.386530204266522"><ele>523.0</ele><time>2026-05-01T13:47:41.817Z</time></trkpt><trkpt lat="43.80187134031438" lon="12.386705461076813"><ele>521.0</ele><time>2026-05-01T13:47:42.817Z</time></trkpt><trkpt lat="43.80178855104902" lon="12.386876321039527"><ele>519.0</ele><time>2026-05-01T13:47:43.817Z</time></trkpt><trkpt lat="43.80171125041781" lon="12.387046463149073"><ele>517.0</ele><time>2026-05-01T13:47:44.817Z</time></trkpt><trkpt lat="43.8016507525159" lon="12.387199015092612"><ele>515.0</ele><time>2026-05-01T13:47:45.817Z</time></trkpt><trkpt lat="43.80161702637795" lon="12.387349626928106"><ele>514.75</ele><time>2026-05-01T13:47:46.817Z</time></trkpt><trkpt lat="43.801604244677236" lon="12.38752059818288"><ele>514.5</ele><time>2026-05-01T13:47:47.817Z</time></trkpt><trkpt lat="43.80162278549759" lon="12.38772192379819"><ele>514.25</ele><time>2026-05-01T13:47:48.817Z</time></trkpt><trkpt lat="43.80167489970006" lon="12.387934667342497"><ele>514.0</ele><time>2026-05-01T13:47:49.817Z</time></trkpt><trkpt lat="43.80174737464521" lon="12.38813506685327"><ele>513.5</ele><time>2026-05-01T13:47:50.817Z</time></trkpt><trkpt lat="43.801812937961245" lon="12.388320116324136"><ele>513.0</ele><time>2026-05-01T13:47:51.817Z</time></trkpt><trkpt lat="43.801880740178675" lon="12.388500118032969"><ele>512.5</ele><time>2026-05-01T13:47:52.817Z</time></trkpt><trkpt lat="43.80193679675519" lon="12.38867775660516"><ele>512.0</ele><time>2026-05-01T13:47:53.817Z</time></trkpt><trkpt lat="43.80198590230775" lon="12.388850443246406"><ele>510.5</ele><time>2026-05-01T13:47:54.817Z</time></trkpt><trkpt lat="43.80203478797861" lon="12.389025755768447"><ele>509.0</ele><time>2026-05-01T13:47:55.817Z</time></trkpt><trkpt lat="43.802085770726954" lon="12.389200659849728"><ele>507.5</ele><time>2026-05-01T13:47:56.817Z</time></trkpt><trkpt lat="43.80214294923833" lon="12.389367966917133"><ele>506.0</ele><time>2026-05-01T13:47:57.817Z</time></trkpt><trkpt lat="43.80220311398919" lon="12.38953776218108"><ele>505.0</ele><time>2026-05-01T13:47:58.817Z</time></trkpt><trkpt lat="43.802265160153425" lon="12.38972031208543"><ele>504.0</ele><time>2026-05-01T13:47:59.817Z</time></trkpt><trkpt lat="43.80232695094813" lon="12.389913120250831"><ele>503.0</ele><time>2026-05-01T13:48:00.817Z</time></trkpt><trkpt lat="43.80238879318449" lon="12.390107835014014"><ele>503.0</ele><time>2026-05-01T13:48:01.817Z</time></trkpt><trkpt lat="43.802452720330635" lon="12.390305237118433"><ele>503.0</ele><time>2026-05-01T13:48:02.817Z</time></trkpt><trkpt lat="43.80251803732055" lon="12.390504939070974"><ele>503.0</ele><time>2026-05-01T13:48:03.817Z</time></trkpt><trkpt lat="43.80258557458051" lon="12.390699549354368"><ele>502.66666666666663</ele><time>2026-05-01T13:48:04.817Z</time></trkpt><trkpt lat="43.80265978523976" lon="12.390888467887253"><ele>502.33333333333337</ele><time>2026-05-01T13:48:05.817Z</time></trkpt><trkpt lat="43.80274032061773" lon="12.391071452631433"><ele>502.0</ele><time>2026-05-01T13:48:06.817Z</time></trkpt><trkpt lat="43.80283138497141" lon="12.391249271119735"><ele>500.6666666666667</ele><time>2026-05-01T13:48:07.817Z</time></trkpt><trkpt lat="43.80292650485142" lon="12.391420438658193"><ele>499.33333333333337</ele><time>2026-05-01T13:48:08.817Z</time></trkpt><trkpt lat="43.803014070053024" lon="12.391592469849188"><ele>498.0</ele><time>2026-05-01T13:48:09.817Z</time></trkpt><trkpt lat="43.803100859537246" lon="12.391763504105073"><ele>498.0</ele><time>2026-05-01T13:48:10.817Z</time></trkpt><trkpt lat="43.803194174724474" lon="12.391936579210862"><ele>498.0</ele><time>2026-05-01T13:48:11.817Z</time></trkpt><trkpt lat="43.80328632043027" lon="12.39212482575487"><ele>498.0</ele><time>2026-05-01T13:48:12.817Z</time></trkpt><trkpt lat="43.80337839756027" lon="12.392303699544176"><ele>496.75</ele><time>2026-05-01T13:48:13.817Z</time></trkpt><trkpt lat="43.80346281505308" lon="12.392473393566355"><ele>495.5</ele><time>2026-05-01T13:48:14.817Z</time></trkpt><trkpt lat="43.803543077882495" lon="12.392632255662573"><ele>494.25</ele><time>2026-05-01T13:48:15.817Z</time></trkpt><trkpt lat="43.80362498828706" lon="12.392791275494167"><ele>493.0</ele><time>2026-05-01T13:48:16.817Z</time></trkpt><trkpt lat="43.803709998115856" lon="12.392949712973877"><ele>491.75</ele><time>2026-05-01T13:48:17.817Z</time></trkpt><trkpt lat="43.80379491061784" lon="12.393110102882993"><ele>490.5</ele><time>2026-05-01T13:48:18.817Z</time></trkpt><trkpt lat="43.80387341171408" lon="12.39327068867313"><ele>489.25</ele><time>2026-05-01T13:48:19.817Z</time></trkpt><trkpt lat="43.80394288832911" lon="12.393423537961175"><ele>488.0</ele><time>2026-05-01T13:48:20.817Z</time></trkpt><trkpt lat="43.80401458286604" lon="12.39357419031389"><ele>488.0</ele><time>2026-05-01T13:48:21.817Z</time></trkpt><trkpt lat="43.804080203294696" lon="12.393732397964726"><ele>488.0</ele><time>2026-05-01T13:48:22.817Z</time></trkpt><trkpt lat="43.80412616069312" lon="12.393904763471244"><ele>488.0</ele><time>2026-05-01T13:48:23.817Z</time></trkpt><trkpt lat="43.804130090829155" lon="12.394101450932272"><ele>488.0</ele><time>2026-05-01T13:48:24.817Z</time></trkpt><trkpt lat="43.80412138020698" lon="12.394327771246223"><ele>485.66666666666663</ele><time>2026-05-01T13:48:25.816Z</time></trkpt><trkpt lat="43.804101433192834" lon="12.394586109505218"><ele>483.33333333333337</ele><time>2026-05-01T13:48:26.816Z</time></trkpt><trkpt lat="43.80408215847335" lon="12.39487539784426"><ele>481.0</ele><time>2026-05-01T13:48:27.816Z</time></trkpt><trkpt lat="43.80406510717927" lon="12.395141107811398"><ele>478.6666666666667</ele><time>2026-05-01T13:48:28.816Z</time></trkpt><trkpt lat="43.80404901076486" lon="12.395391937883513"><ele>476.33333333333337</ele><time>2026-05-01T13:48:29.816Z</time></trkpt><trkpt lat="43.804046316331416" lon="12.395643882224325"><ele>474.0</ele><time>2026-05-01T13:48:30.816Z</time></trkpt><trkpt lat="43.80403346384671" lon="12.395892683674235"><ele>472.66666666666663</ele><time>2026-05-01T13:48:31.816Z</time></trkpt><trkpt lat="43.80401684219273" lon="12.396136171444173"><ele>471.3333333333333</ele><time>2026-05-01T13:48:32.816Z</time></trkpt><trkpt lat="43.803986940077195" lon="12.39637433775164"><ele>470.0</ele><time>2026-05-01T13:48:33.816Z</time></trkpt><trkpt lat="43.80397212423133" lon="12.396616195330479"><ele>468.3333333333333</ele><time>2026-05-01T13:48:34.816Z</time></trkpt><trkpt lat="43.803957959592445" lon="12.396849065050505"><ele>466.66666666666663</ele><time>2026-05-01T13:48:35.816Z</time></trkpt><trkpt lat="43.803943821868" lon="12.397081492373838"><ele>465.0</ele><time>2026-05-01T13:48:36.816Z</time></trkpt><trkpt lat="43.80394442923364" lon="12.397317289909514"><ele>462.66666666666663</ele><time>2026-05-01T13:48:37.816Z</time></trkpt><trkpt lat="43.803927345621496" lon="12.397537824965449"><ele>460.3333333333333</ele><time>2026-05-01T13:48:38.816Z</time></trkpt><trkpt lat="43.803907665215064" lon="12.397749802143538"><ele>458.0</ele><time>2026-05-01T13:48:39.816Z</time></trkpt><trkpt lat="43.803878480235085" lon="12.397962823098888"><ele>456.3333333333333</ele><time>2026-05-01T13:48:40.816Z</time></trkpt><trkpt lat="43.803833982853334" lon="12.398182122784963"><ele>454.66666666666663</ele><time>2026-05-01T13:48:41.816Z</time></trkpt><trkpt lat="43.80374685602974" lon="12.398406823767097"><ele>453.0</ele><time>2026-05-01T13:48:42.816Z</time></trkpt><trkpt lat="43.803640244548255" lon="12.398656642761212"><ele>451.0</ele><time>2026-05-01T13:48:43.816Z</time></trkpt><trkpt lat="43.80353685263623" lon="12.39892702545179"><ele>449.0</ele><time>2026-05-01T13:48:44.816Z</time></trkpt><trkpt lat="43.803427034216256" lon="12.399169692474956"><ele>447.0</ele><time>2026-05-01T13:48:45.816Z</time></trkpt><trkpt lat="43.80332188768579" lon="12.399398303313161"><ele>450.0</ele><time>2026-05-01T13:48:46.816Z</time></trkpt><trkpt lat="43.80322552256734" lon="12.399621560956724"><ele>453.0</ele><time>2026-05-01T13:48:47.816Z</time></trkpt><trkpt lat="43.80313905402576" lon="12.399827575330061"><ele>456.0</ele><time>2026-05-01T13:48:48.816Z</time></trkpt><trkpt lat="43.80305227054419" lon="12.400032272810787"><ele>456.0</ele><time>2026-05-01T13:48:49.816Z</time></trkpt><trkpt lat="43.802962993200225" lon="12.40023317143514"><ele>456.0</ele><time>2026-05-01T13:48:50.816Z</time></trkpt><trkpt lat="43.802873232168736" lon="12.40043468213803"><ele>456.0</ele><time>2026-05-01T13:48:51.816Z</time></trkpt><trkpt lat="43.80278017474941" lon="12.400637428934978"><ele>456.66666666666663</ele><time>2026-05-01T13:48:52.816Z</time></trkpt><trkpt lat="43.802693528841985" lon="12.400836207179266"><ele>457.3333333333333</ele><time>2026-05-01T13:48:53.816Z</time></trkpt><trkpt lat="43.80260720460971" lon="12.401033943522963"><ele>458.0</ele><time>2026-05-01T13:48:54.816Z</time></trkpt><trkpt lat="43.80251398677577" lon="12.401248612787656"><ele>456.66666666666663</ele><time>2026-05-01T13:48:55.816Z</time></trkpt><trkpt lat="43.80241964410059" lon="12.401469275558945"><ele>455.33333333333337</ele><time>2026-05-01T13:48:56.816Z</time></trkpt><trkpt lat="43.80233013060596" lon="12.401687054711486"><ele>454.0</ele><time>2026-05-01T13:48:57.816Z</time></trkpt><trkpt lat="43.80223965725751" lon="12.401899776385699"><ele>454.0</ele><time>2026-05-01T13:48:58.816Z</time></trkpt><trkpt lat="43.8021478503295" lon="12.402110894394177"><ele>454.0</ele><time>2026-05-01T13:48:59.816Z</time></trkpt><trkpt lat="43.8020596988753" lon="12.402325362253507"><ele>454.0</ele><time>2026-05-01T13:49:00.816Z</time></trkpt><trkpt lat="43.80196824116921" lon="12.402538351035249"><ele>453.6666666666667</ele><time>2026-05-01T13:49:01.816Z</time></trkpt><trkpt lat="43.801878926523" lon="12.40275293859384"><ele>453.33333333333337</ele><time>2026-05-01T13:49:02.816Z</time></trkpt><trkpt lat="43.80178640443917" lon="12.40296505031468"><ele>453.0</ele><time>2026-05-01T13:49:03.816Z</time></trkpt><trkpt lat="43.801700949998626" lon="12.40316341571294"><ele>452.0</ele><time>2026-05-01T13:49:04.816Z</time></trkpt><trkpt lat="43.80161990077328" lon="12.403351564202415"><ele>451.0</ele><time>2026-05-01T13:49:05.816Z</time></trkpt><trkpt lat="43.80153787594702" lon="12.403534287884783"><ele>450.0</ele><time>2026-05-01T13:49:06.815Z</time></trkpt><trkpt lat="43.801462815613554" lon="12.403707034147311"><ele>450.0</ele><time>2026-05-01T13:49:07.815Z</time></trkpt><trkpt lat="43.801395304777074" lon="12.403880410023296"><ele>450.0</ele><time>2026-05-01T13:49:08.815Z</time></trkpt><trkpt lat="43.80133018015223" lon="12.404069761635853"><ele>450.0</ele><time>2026-05-01T13:49:09.815Z</time></trkpt><trkpt lat="43.80127085096395" lon="12.404276757929427"><ele>450.0</ele><time>2026-05-01T13:49:10.872Z</time></trkpt><trkpt lat="43.80122038647446" lon="12.404486448406239"><ele>450.0</ele><time>2026-05-01T13:49:11.873Z</time></trkpt><trkpt lat="43.80117491948983" lon="12.404710845222542"><ele>450.0</ele><time>2026-05-01T13:49:12.873Z</time></trkpt><trkpt lat="43.80112942191933" lon="12.40494086504558"><ele>449.66666666666663</ele><time>2026-05-01T13:49:13.873Z</time></trkpt><trkpt lat="43.80109286419499" lon="12.405164261513862"><ele>449.3333333333333</ele><time>2026-05-01T13:49:14.873Z</time></trkpt><trkpt lat="43.80107195997791" lon="12.405392354532196"><ele>449.0</ele><time>2026-05-01T13:49:15.874Z</time></trkpt><trkpt lat="43.80106747330125" lon="12.405626517000126"><ele>447.3333333333333</ele><time>2026-05-01T13:49:16.874Z</time></trkpt><trkpt lat="43.801075655689026" lon="12.40586884327565"><ele>445.66666666666663</ele><time>2026-05-01T13:49:17.874Z</time></trkpt><trkpt lat="43.801096768175675" lon="12.406124073029162"><ele>444.0</ele><time>2026-05-01T13:49:18.874Z</time></trkpt><trkpt lat="43.801125612395325" lon="12.40639353403614"><ele>441.33333333333337</ele><time>2026-05-01T13:49:19.875Z</time></trkpt><trkpt lat="43.80117558728503" lon="12.406657118068049"><ele>438.6666666666667</ele><time>2026-05-01T13:49:20.875Z</time></trkpt><trkpt lat="43.80123825907448" lon="12.406899488750533"><ele>436.0</ele><time>2026-05-01T13:49:21.875Z</time></trkpt><trkpt lat="43.801319550640926" lon="12.407139986738535"><ele>435.33333333333337</ele><time>2026-05-01T13:49:22.875Z</time></trkpt><trkpt lat="43.80141091059279" lon="12.407371574865232"><ele>434.66666666666663</ele><time>2026-05-01T13:49:23.875Z</time></trkpt><trkpt lat="43.80150440138673" lon="12.407577680627488"><ele>434.0</ele><time>2026-05-01T13:49:24.875Z</time></trkpt><trkpt lat="43.80160063617937" lon="12.407777285547041"><ele>434.0</ele><time>2026-05-01T13:49:25.875Z</time></trkpt><trkpt lat="43.80170585358383" lon="12.407967711117786"><ele>434.0</ele><time>2026-05-01T13:49:26.876Z</time></trkpt><trkpt lat="43.80181554420993" lon="12.408157518493754"><ele>434.0</ele><time>2026-05-01T13:49:27.876Z</time></trkpt><trkpt lat="43.80192526476338" lon="12.408347022742513"><ele>429.3333333333333</ele><time>2026-05-01T13:49:28.876Z</time></trkpt><trkpt lat="43.802037905651396" lon="12.408526526830908"><ele>424.66666666666663</ele><time>2026-05-01T13:49:29.876Z</time></trkpt><trkpt lat="43.80214544169495" lon="12.408700136995776"><ele>420.0</ele><time>2026-05-01T13:49:30.876Z</time></trkpt><trkpt lat="43.80224513796225" lon="12.408863770564224"><ele>419.75</ele><time>2026-05-01T13:49:31.876Z</time></trkpt><trkpt lat="43.80234090088252" lon="12.409013579302623"><ele>419.5</ele><time>2026-05-01T13:49:32.876Z</time></trkpt><trkpt lat="43.80242326524659" lon="12.40915237397759"><ele>419.25</ele><time>2026-05-01T13:49:33.876Z</time></trkpt><trkpt lat="43.802492282984524" lon="12.409289566696424"><ele>419.0</ele><time>2026-05-01T13:49:34.876Z</time></trkpt><trkpt lat="43.802541049630506" lon="12.409441748586646"><ele>419.0</ele><time>2026-05-01T13:49:35.876Z</time></trkpt><trkpt lat="43.80256502281365" lon="12.409612350725592"><ele>419.0</ele><time>2026-05-01T13:49:36.876Z</time></trkpt><trkpt lat="43.8025694551741" lon="12.409775159432625"><ele>419.0</ele><time>2026-05-01T13:49:37.876Z</time></trkpt><trkpt lat="43.80255232957355" lon="12.409933271800089"><ele>419.0</ele><time>2026-05-01T13:49:38.876Z</time></trkpt><trkpt lat="43.80249968799428" lon="12.41007383036003"><ele>418.25</ele><time>2026-05-01T13:49:39.877Z</time></trkpt><trkpt lat="43.80244357834415" lon="12.410223680372122"><ele>417.5</ele><time>2026-05-01T13:49:40.877Z</time></trkpt><trkpt lat="43.802375372619245" lon="12.410386460651349"><ele>416.75</ele><time>2026-05-01T13:49:41.877Z</time></trkpt><trkpt lat="43.80230640697233" lon="12.410543315408805"><ele>416.0</ele><time>2026-05-01T13:49:42.877Z</time></trkpt><trkpt lat="43.80223834244754" lon="12.41069781578554"><ele>414.0</ele><time>2026-05-01T13:49:43.877Z</time></trkpt><trkpt lat="43.80217221200025" lon="12.410859669182177"><ele>412.0</ele><time>2026-05-01T13:49:44.877Z</time></trkpt><trkpt lat="43.80210667001569" lon="12.411019339518122"><ele>410.0</ele><time>2026-05-01T13:49:45.877Z</time></trkpt><trkpt lat="43.80203389169384" lon="12.41118825515464"><ele>408.0</ele><time>2026-05-01T13:49:46.876Z</time></trkpt><trkpt lat="43.80196084060813" lon="12.411361020799045"><ele>407.75</ele><time>2026-05-01T13:49:47.876Z</time></trkpt><trkpt lat="43.80188144191531" lon="12.411537570069935"><ele>407.5</ele><time>2026-05-01T13:49:48.876Z</time></trkpt><trkpt lat="43.8018131286087" lon="12.41171374040337"><ele>407.25</ele><time>2026-05-01T13:49:49.877Z</time></trkpt><trkpt lat="43.801747960839826" lon="12.411883412120037"><ele>407.0</ele><time>2026-05-01T13:49:50.876Z</time></trkpt><trkpt lat="43.801683855741985" lon="12.412048182076987"><ele>405.5</ele><time>2026-05-01T13:49:51.876Z</time></trkpt><trkpt lat="43.80161642077977" lon="12.412210240177227"><ele>404.0</ele><time>2026-05-01T13:49:52.876Z</time></trkpt><trkpt lat="43.80155369701889" lon="12.41236642576723"><ele>402.5</ele><time>2026-05-01T13:49:53.876Z</time></trkpt><trkpt lat="43.80148690225994" lon="12.412517890068564"><ele>401.0</ele><time>2026-05-01T13:49:54.876Z</time></trkpt><trkpt lat="43.80142502661476" lon="12.412664676663688"><ele>401.0</ele><time>2026-05-01T13:49:55.876Z</time></trkpt><trkpt lat="43.80136592291655" lon="12.412807829386281"><ele>401.0</ele><time>2026-05-01T13:49:56.876Z</time></trkpt><trkpt lat="43.801306284760905" lon="12.412949593244232"><ele>401.0</ele><time>2026-05-01T13:49:57.876Z</time></trkpt><trkpt lat="43.8012440030321" lon="12.41312425506783"><ele>401.0</ele><time>2026-05-01T13:49:58.877Z</time></trkpt><trkpt lat="43.8011723351111" lon="12.413304484340024"><ele>399.5</ele><time>2026-05-01T13:49:59.876Z</time></trkpt><trkpt lat="43.80110096991091" lon="12.41347312950782"><ele>398.0</ele><time>2026-05-01T13:50:00.876Z</time></trkpt><trkpt lat="43.80102674939541" lon="12.413645555342544"><ele>396.5</ele><time>2026-05-01T13:50:01.876Z</time></trkpt><trkpt lat="43.800950687171614" lon="12.413827694626477"><ele>395.0</ele><time>2026-05-01T13:50:02.876Z</time></trkpt><trkpt lat="43.80087286167082" lon="12.414021476226157"><ele>394.0</ele><time>2026-05-01T13:50:03.876Z</time></trkpt><trkpt lat="43.80079176278289" lon="12.414223362972434"><ele>393.0</ele><time>2026-05-01T13:50:04.876Z</time></trkpt><trkpt lat="43.800709401911625" lon="12.414425412307088"><ele>392.0</ele><time>2026-05-01T13:50:05.876Z</time></trkpt><trkpt lat="43.80063337407823" lon="12.414606700563692"><ele>390.75</ele><time>2026-05-01T13:50:06.876Z</time></trkpt><trkpt lat="43.8005586939677" lon="12.41479061842261"><ele>389.5</ele><time>2026-05-01T13:50:07.876Z</time></trkpt><trkpt lat="43.800487916920105" lon="12.414968697714073"><ele>388.25</ele><time>2026-05-01T13:50:08.876Z</time></trkpt><trkpt lat="43.800420135792166" lon="12.415141292318546"><ele>387.0</ele><time>2026-05-01T13:50:09.876Z</time></trkpt><trkpt lat="43.800353787469504" lon="12.41530259966486"><ele>387.0</ele><time>2026-05-01T13:50:10.876Z</time></trkpt><trkpt lat="43.80029848683045" lon="12.415444767230394"><ele>387.0</ele><time>2026-05-01T13:50:11.876Z</time></trkpt><trkpt lat="43.80026304797421" lon="12.415587547692095"><ele>387.0</ele><time>2026-05-01T13:50:12.876Z</time></trkpt><trkpt lat="43.80026849882718" lon="12.415726588293127"><ele>387.0</ele><time>2026-05-01T13:50:13.876Z</time></trkpt><trkpt lat="43.80032575902267" lon="12.415858185293844"><ele>387.0</ele><time>2026-05-01T13:50:14.876Z</time></trkpt><trkpt lat="43.80039864339036" lon="12.415967365893351"><ele>385.20000000000005</ele><time>2026-05-01T13:50:15.876Z</time></trkpt><trkpt lat="43.800492997600514" lon="12.416036719797177"><ele>383.4</ele><time>2026-05-01T13:50:16.876Z</time></trkpt><trkpt lat="43.8005957816801" lon="12.416065283191402"><ele>381.6</ele><time>2026-05-01T13:50:17.876Z</time></trkpt><trkpt lat="43.800697099181235" lon="12.41603645085652"><ele>379.79999999999995</ele><time>2026-05-01T13:50:18.876Z</time></trkpt><trkpt lat="43.8007873862121" lon="12.41597762175802"><ele>378.0</ele><time>2026-05-01T13:50:19.876Z</time></trkpt><trkpt lat="43.800877785086115" lon="12.415897458603618"><ele>378.0</ele><time>2026-05-01T13:50:20.876Z</time></trkpt><trkpt lat="43.8009733037534" lon="12.415788072994095"><ele>378.0</ele><time>2026-05-01T13:50:21.876Z</time></trkpt><trkpt lat="43.8010883150086" lon="12.415687000875005"><ele>378.0</ele><time>2026-05-01T13:50:22.876Z</time></trkpt><trkpt lat="43.801222416115415" lon="12.415614220397618"><ele>378.0</ele><time>2026-05-01T13:50:23.876Z</time></trkpt><trkpt lat="43.80138860997267" lon="12.41556300330155"><ele>375.0</ele><time>2026-05-01T13:50:24.876Z</time></trkpt><trkpt lat="43.8015738169745" lon="12.415540291613507"><ele>372.0</ele><time>2026-05-01T13:50:25.876Z</time></trkpt><trkpt lat="43.80174120773254" lon="12.415534665821813"><ele>369.0</ele><time>2026-05-01T13:50:26.876Z</time></trkpt><trkpt lat="43.80187548045022" lon="12.415539782293296"><ele>369.79999999999995</ele><time>2026-05-01T13:50:27.876Z</time></trkpt><trkpt lat="43.80200161065585" lon="12.415532063986566"><ele>370.59999999999997</ele><time>2026-05-01T13:50:28.876Z</time></trkpt><trkpt lat="43.80210965123746" lon="12.415523111781786"><ele>371.4</ele><time>2026-05-01T13:50:29.876Z</time></trkpt><trkpt lat="43.802202299633095" lon="12.415500230980648"><ele>372.2</ele><time>2026-05-01T13:50:30.876Z</time></trkpt><trkpt lat="43.80228702181445" lon="12.41545032132792"><ele>373.0</ele><time>2026-05-01T13:50:31.876Z</time></trkpt><trkpt lat="43.80237609026454" lon="12.415358740506234"><ele>373.0</ele><time>2026-05-01T13:50:32.876Z</time></trkpt><trkpt lat="43.802450809540815" lon="12.415253773617868"><ele>373.0</ele><time>2026-05-01T13:50:33.876Z</time></trkpt><trkpt lat="43.80252022428647" lon="12.415166436485304"><ele>373.0</ele><time>2026-05-01T13:50:34.876Z</time></trkpt><trkpt lat="43.80259430446648" lon="12.415093557094142"><ele>373.0</ele><time>2026-05-01T13:50:35.876Z</time></trkpt><trkpt lat="43.80267183789621" lon="12.415073974069145"><ele>373.0</ele><time>2026-05-01T13:50:36.876Z</time></trkpt><trkpt lat="43.80272966504749" lon="12.415038933291413"><ele>373.0</ele><time>2026-05-01T13:50:37.876Z</time></trkpt><trkpt lat="43.80280031503261" lon="12.415063703319952"><ele>371.5</ele><time>2026-05-01T13:50:38.876Z</time></trkpt><trkpt lat="43.802882435477756" lon="12.4151249077907"><ele>370.0</ele><time>2026-05-01T13:50:39.876Z</time></trkpt><trkpt lat="43.802974172577656" lon="12.41519664003093"><ele>368.5</ele><time>2026-05-01T13:50:40.876Z</time></trkpt><trkpt lat="43.80304350804654" lon="12.415276965499174"><ele>367.0</ele><time>2026-05-01T13:50:41.876Z</time></trkpt><trkpt lat="43.80310460578043" lon="12.41534791548725"><ele>365.5</ele><time>2026-05-01T13:50:42.876Z</time></trkpt><trkpt lat="43.80315830689652" lon="12.415414335827872"><ele>364.0</ele><time>2026-05-01T13:50:43.876Z</time></trkpt><trkpt lat="43.80321527408766" lon="12.415475500611473"><ele>364.3333333333333</ele><time>2026-05-01T13:50:44.876Z</time></trkpt><trkpt lat="43.80327815552513" lon="12.415540150507324"><ele>364.66666666666663</ele><time>2026-05-01T13:50:45.876Z</time></trkpt><trkpt lat="43.80333807144965" lon="12.415604166829995"><ele>365.0</ele><time>2026-05-01T13:50:46.876Z</time></trkpt><trkpt lat="43.803385894062735" lon="12.415675570382636"><ele>365.3333333333333</ele><time>2026-05-01T13:50:47.876Z</time></trkpt><trkpt lat="43.803422050682144" lon="12.415760222626256"><ele>365.6666666666667</ele><time>2026-05-01T13:50:48.876Z</time></trkpt><trkpt lat="43.80344294868958" lon="12.41586585267678"><ele>366.0</ele><time>2026-05-01T13:50:49.876Z</time></trkpt><trkpt lat="43.803434857326906" lon="12.415981501764874"><ele>366.0</ele><time>2026-05-01T13:50:50.876Z</time></trkpt><trkpt lat="43.803395140538356" lon="12.416111498477262"><ele>366.0</ele><time>2026-05-01T13:50:51.876Z</time></trkpt><trkpt lat="43.80331855066651" lon="12.41621475530092"><ele>366.0</ele><time>2026-05-01T13:50:52.876Z</time></trkpt><trkpt lat="43.80321211750561" lon="12.416311573305135"><ele>366.0</ele><time>2026-05-01T13:50:53.876Z</time></trkpt><trkpt lat="43.803082327373964" lon="12.416418196583297"><ele>369.0</ele><time>2026-05-01T13:50:54.876Z</time></trkpt><trkpt lat="43.80293066739053" lon="12.416530555905995"><ele>372.0</ele><time>2026-05-01T13:50:55.876Z</time></trkpt><trkpt lat="43.80279931762991" lon="12.416633288445096"><ele>375.0</ele><time>2026-05-01T13:50:56.876Z</time></trkpt><trkpt lat="43.802678501192176" lon="12.416730672318076"><ele>371.5</ele><time>2026-05-01T13:50:57.876Z</time></trkpt><trkpt lat="43.80257104720555" lon="12.41682414435441"><ele>368.0</ele><time>2026-05-01T13:50:58.876Z</time></trkpt><trkpt lat="43.80247212246231" lon="12.416914073573551"><ele>364.5</ele><time>2026-05-01T13:50:59.876Z</time></trkpt><trkpt lat="43.80237414033394" lon="12.417001190774638"><ele>361.0</ele><time>2026-05-01T13:51:00.876Z</time></trkpt><trkpt lat="43.8022845370423" lon="12.41707370464315"><ele>361.0</ele><time>2026-05-01T13:51:01.876Z</time></trkpt><trkpt lat="43.80219477567641" lon="12.41714085764089"><ele>361.0</ele><time>2026-05-01T13:51:02.876Z</time></trkpt><trkpt lat="43.80209611650721" lon="12.417217962624429"><ele>361.0</ele><time>2026-05-01T13:51:03.876Z</time></trkpt><trkpt lat="43.80198838318845" lon="12.417303653397296"><ele>361.0</ele><time>2026-05-01T13:51:04.876Z</time></trkpt><trkpt lat="43.80188481928927" lon="12.417395339266978"><ele>361.0</ele><time>2026-05-01T13:51:05.876Z</time></trkpt><trkpt lat="43.80178742434296" lon="12.417482852057779"><ele>361.0</ele><time>2026-05-01T13:51:06.876Z</time></trkpt><trkpt lat="43.801694152233495" lon="12.417574808738912"><ele>361.0</ele><time>2026-05-01T13:51:07.876Z</time></trkpt><trkpt lat="43.801612868268634" lon="12.417686611056995"><ele>361.0</ele><time>2026-05-01T13:51:08.876Z</time></trkpt><trkpt lat="43.80154877024756" lon="12.417816364297206"><ele>361.0</ele><time>2026-05-01T13:51:09.876Z</time></trkpt><trkpt lat="43.80149087471491" lon="12.417964045676328"><ele>361.0</ele><time>2026-05-01T13:51:10.876Z</time></trkpt><trkpt lat="43.80145483479855" lon="12.41812221062927"><ele>361.0</ele><time>2026-05-01T13:51:11.876Z</time></trkpt><trkpt lat="43.80143343431939" lon="12.418283933361241"><ele>361.0</ele><time>2026-05-01T13:51:12.876Z</time></trkpt><trkpt lat="43.80142749658384" lon="12.418450887269811"><ele>362.0</ele><time>2026-05-01T13:51:13.876Z</time></trkpt><trkpt lat="43.80143156208547" lon="12.418624050673355"><ele>363.0</ele><time>2026-05-01T13:51:14.876Z</time></trkpt><trkpt lat="43.80143161431847" lon="12.41880385463981"><ele>364.0</ele><time>2026-05-01T13:51:15.876Z</time></trkpt><trkpt lat="43.80142956124974" lon="12.418988566267496"><ele>365.0</ele><time>2026-05-01T13:51:16.876Z</time></trkpt><trkpt lat="43.801426545231095" lon="12.419170820837765"><ele>365.5</ele><time>2026-05-01T13:51:17.876Z</time></trkpt><trkpt lat="43.80142291359704" lon="12.419359967579025"><ele>366.0</ele><time>2026-05-01T13:51:18.876Z</time></trkpt><trkpt lat="43.80142070754332" lon="12.419548942147953"><ele>366.5</ele><time>2026-05-01T13:51:19.876Z</time></trkpt><trkpt lat="43.801416488751485" lon="12.419738956009324"><ele>367.0</ele><time>2026-05-01T13:51:20.876Z</time></trkpt><trkpt lat="43.80141178893726" lon="12.419931985302405"><ele>366.5</ele><time>2026-05-01T13:51:21.876Z</time></trkpt><trkpt lat="43.80140665737397" lon="12.420126007485614"><ele>366.0</ele><time>2026-05-01T13:51:22.876Z</time></trkpt><trkpt lat="43.80139814104695" lon="12.420317843420106"><ele>365.5</ele><time>2026-05-01T13:51:23.876Z</time></trkpt><trkpt lat="43.80139882642226" lon="12.420509268395334"><ele>365.0</ele><time>2026-05-01T13:51:24.876Z</time></trkpt><trkpt lat="43.8014085515931" lon="12.420695951859699"><ele>365.0</ele><time>2026-05-01T13:51:25.876Z</time></trkpt><trkpt lat="43.801441794510154" lon="12.420877815162704"><ele>365.0</ele><time>2026-05-01T13:51:26.876Z</time></trkpt><trkpt lat="43.801481914321506" lon="12.421064747076981"><ele>365.0</ele><time>2026-05-01T13:51:27.876Z</time></trkpt><trkpt lat="43.80151624690996" lon="12.421249298418726"><ele>365.0</ele><time>2026-05-01T13:51:28.876Z</time></trkpt><trkpt lat="43.80154609247934" lon="12.421427448869986"><ele>363.0</ele><time>2026-05-01T13:51:29.876Z</time></trkpt><trkpt lat="43.80155373320834" lon="12.421616519987337"><ele>361.0</ele><time>2026-05-01T13:51:30.876Z</time></trkpt><trkpt lat="43.80158756458742" lon="12.421781406938196"><ele>359.0</ele><time>2026-05-01T13:51:31.876Z</time></trkpt><trkpt lat="43.80162547872064" lon="12.421940975905052"><ele>357.0</ele><time>2026-05-01T13:51:32.876Z</time></trkpt><trkpt lat="43.80166459315256" lon="12.422112468972673"><ele>357.0</ele><time>2026-05-01T13:51:33.876Z</time></trkpt><trkpt lat="43.801706430738506" lon="12.422295567497413"><ele>357.0</ele><time>2026-05-01T13:51:34.876Z</time></trkpt><trkpt lat="43.80175117462206" lon="12.422503977825516"><ele>357.0</ele><time>2026-05-01T13:51:35.876Z</time></trkpt><trkpt lat="43.80181190227316" lon="12.42273757049237"><ele>365.6666666666667</ele><time>2026-05-01T13:51:36.876Z</time></trkpt><trkpt lat="43.80188531481307" lon="12.422960415801075"><ele>374.33333333333337</ele><time>2026-05-01T13:51:37.876Z</time></trkpt><trkpt lat="43.8019574435065" lon="12.42316021119246"><ele>383.0</ele><time>2026-05-01T13:51:38.876Z</time></trkpt><trkpt lat="43.80201701592194" lon="12.423353269595081"><ele>383.0</ele><time>2026-05-01T13:51:39.876Z</time></trkpt><trkpt lat="43.80206606094076" lon="12.423538176290341"><ele>383.0</ele><time>2026-05-01T13:51:40.876Z</time></trkpt><trkpt lat="43.802103993206316" lon="12.423720419707257"><ele>383.0</ele><time>2026-05-01T13:51:41.876Z</time></trkpt><trkpt lat="43.80212172988588" lon="12.423906137694914"><ele>383.0</ele><time>2026-05-01T13:51:42.876Z</time></trkpt><trkpt lat="43.802111183805955" lon="12.424082894418364"><ele>380.0</ele><time>2026-05-01T13:51:43.876Z</time></trkpt><trkpt lat="43.80211013600614" lon="12.424272374998239"><ele>377.0</ele><time>2026-05-01T13:51:44.875Z</time></trkpt><trkpt lat="43.802096411347506" lon="12.424483411359311"><ele>374.0</ele><time>2026-05-01T13:51:45.875Z</time></trkpt><trkpt lat="43.80210079699934" lon="12.424671436985932"><ele>371.0</ele><time>2026-05-01T13:51:46.875Z</time></trkpt><trkpt lat="43.80210507376032" lon="12.424854738177446"><ele>367.75</ele><time>2026-05-01T13:51:47.875Z</time></trkpt><trkpt lat="43.80212729794847" lon="12.425033137462348"><ele>364.5</ele><time>2026-05-01T13:51:48.875Z</time></trkpt><trkpt lat="43.80215479869151" lon="12.425205029532965"><ele>361.25</ele><time>2026-05-01T13:51:49.875Z</time></trkpt><trkpt lat="43.80219124316674" lon="12.42538541805047"><ele>358.0</ele><time>2026-05-01T13:51:50.875Z</time></trkpt><trkpt lat="43.80222555879304" lon="12.425566818553923"><ele>356.0</ele><time>2026-05-01T13:51:51.875Z</time></trkpt><trkpt lat="43.80226072869552" lon="12.425755954392148"><ele>354.0</ele><time>2026-05-01T13:51:52.875Z</time></trkpt><trkpt lat="43.80229980104454" lon="12.425949920081237"><ele>352.0</ele><time>2026-05-01T13:51:53.875Z</time></trkpt><trkpt lat="43.8023359048371" lon="12.426133866084179"><ele>350.0</ele><time>2026-05-01T13:51:54.875Z</time></trkpt><trkpt lat="43.802369164659545" lon="12.426314931186672"><ele>349.0</ele><time>2026-05-01T13:51:55.875Z</time></trkpt><trkpt lat="43.802404992635076" lon="12.426491903525427"><ele>348.0</ele><time>2026-05-01T13:51:56.875Z</time></trkpt><trkpt lat="43.802439723027454" lon="12.426677568326339"><ele>347.0</ele><time>2026-05-01T13:51:57.875Z</time></trkpt><trkpt lat="43.80247581011574" lon="12.426863714504606"><ele>346.0</ele><time>2026-05-01T13:51:58.874Z</time></trkpt><trkpt lat="43.802509810784564" lon="12.42705595155762"><ele>345.0</ele><time>2026-05-01T13:51:59.874Z</time></trkpt><trkpt lat="43.80254337110983" lon="12.42725285290689"><ele>344.0</ele><time>2026-05-01T13:52:00.874Z</time></trkpt><trkpt lat="43.80257689088472" lon="12.427446239756282"><ele>343.0</ele><time>2026-05-01T13:52:01.875Z</time></trkpt><trkpt lat="43.80260529497199" lon="12.427628687623802"><ele>342.0</ele><time>2026-05-01T13:52:02.875Z</time></trkpt><trkpt lat="43.80261246027206" lon="12.427813402465267"><ele>340.0</ele><time>2026-05-01T13:52:03.875Z</time></trkpt><trkpt lat="43.802538496106436" lon="12.428308650762377"><ele>338.0</ele><time>2026-05-01T13:52:06.875Z</time></trkpt><trkpt lat="43.802491277150565" lon="12.42851430478276"><ele>338.0</ele><time>2026-05-01T13:52:07.875Z</time></trkpt><trkpt lat="43.80242850499586" lon="12.428686716989644"><ele>338.0</ele><time>2026-05-01T13:52:08.875Z</time></trkpt><trkpt lat="43.80236879538517" lon="12.42886665482865"><ele>338.0</ele><time>2026-05-01T13:52:09.875Z</time></trkpt><trkpt lat="43.802277956386355" lon="12.429048746829965"><ele>338.0</ele><time>2026-05-01T13:52:10.875Z</time></trkpt><trkpt lat="43.802229950484396" lon="12.429233556343062"><ele>336.75</ele><time>2026-05-01T13:52:11.875Z</time></trkpt><trkpt lat="43.802203619258975" lon="12.429434319386344"><ele>335.5</ele><time>2026-05-01T13:52:12.875Z</time></trkpt><trkpt lat="43.80219165359387" lon="12.429639268063545"><ele>334.25</ele><time>2026-05-01T13:52:13.875Z</time></trkpt><trkpt lat="43.802187135765" lon="12.429842793207458"><ele>333.0</ele><time>2026-05-01T13:52:14.875Z</time></trkpt><trkpt lat="43.802189326243564" lon="12.430046286198177"><ele>332.25</ele><time>2026-05-01T13:52:15.875Z</time></trkpt><trkpt lat="43.80219822582402" lon="12.430238424630698"><ele>331.5</ele><time>2026-05-01T13:52:16.875Z</time></trkpt><trkpt lat="43.80221794702432" lon="12.430414995003405"><ele>330.75</ele><time>2026-05-01T13:52:17.875Z</time></trkpt><trkpt lat="43.80225308056068" lon="12.430582831598546"><ele>330.0</ele><time>2026-05-01T13:52:18.875Z</time></trkpt><trkpt lat="43.802295900527675" lon="12.430733183353432"><ele>330.0</ele><time>2026-05-01T13:52:19.875Z</time></trkpt><trkpt lat="43.80234339111526" lon="12.430881449050087"><ele>330.0</ele><time>2026-05-01T13:52:20.875Z</time></trkpt><trkpt lat="43.80239029920144" lon="12.431034782860799"><ele>330.0</ele><time>2026-05-01T13:52:21.875Z</time></trkpt><trkpt lat="43.802445800346185" lon="12.43119611244064"><ele>330.0</ele><time>2026-05-01T13:52:22.875Z</time></trkpt><trkpt lat="43.80251243456544" lon="12.431357909351679"><ele>330.75</ele><time>2026-05-01T13:52:23.875Z</time></trkpt><trkpt lat="43.80258516982586" lon="12.431526402053"><ele>331.5</ele><time>2026-05-01T13:52:24.875Z</time></trkpt><trkpt lat="43.80265569586944" lon="12.431691670487368"><ele>332.25</ele><time>2026-05-01T13:52:25.875Z</time></trkpt><trkpt lat="43.80272328479246" lon="12.431873138055323"><ele>333.0</ele><time>2026-05-01T13:52:26.875Z</time></trkpt><trkpt lat="43.80279125748089" lon="12.43206873826607"><ele>335.0</ele><time>2026-05-01T13:52:27.875Z</time></trkpt><trkpt lat="43.8028686243321" lon="12.432285414377464"><ele>337.0</ele><time>2026-05-01T13:52:28.875Z</time></trkpt><trkpt lat="43.802936475139695" lon="12.432532321473976"><ele>339.0</ele><time>2026-05-01T13:52:29.875Z</time></trkpt><trkpt lat="43.80302026280558" lon="12.432784738093117"><ele>338.6666666666667</ele><time>2026-05-01T13:52:30.875Z</time></trkpt><trkpt lat="43.80307904629216" lon="12.433035232223352"><ele>338.33333333333337</ele><time>2026-05-01T13:52:31.875Z</time></trkpt><trkpt lat="43.8031364921656" lon="12.433259507651938"><ele>338.0</ele><time>2026-05-01T13:52:32.875Z</time></trkpt><trkpt lat="43.80319117160974" lon="12.433463812398998"><ele>338.0</ele><time>2026-05-01T13:52:33.875Z</time></trkpt><trkpt lat="43.80323543897498" lon="12.433651246381338"><ele>338.0</ele><time>2026-05-01T13:52:34.875Z</time></trkpt><trkpt lat="43.80322388211761" lon="12.433834469253007"><ele>338.0</ele><time>2026-05-01T13:52:35.875Z</time></trkpt><trkpt lat="43.80321633945865" lon="12.434013994006433"><ele>338.0</ele><time>2026-05-01T13:52:36.875Z</time></trkpt><trkpt lat="43.80319409274568" lon="12.434219581855057"><ele>337.0</ele><time>2026-05-01T13:52:37.874Z</time></trkpt><trkpt lat="43.80316822564782" lon="12.434438138812952"><ele>336.0</ele><time>2026-05-01T13:52:38.874Z</time></trkpt><trkpt lat="43.80313513702375" lon="12.434706615403858"><ele>335.0</ele><time>2026-05-01T13:52:39.874Z</time></trkpt><trkpt lat="43.80309169645573" lon="12.434980216473946"><ele>334.6666666666667</ele><time>2026-05-01T13:52:40.874Z</time></trkpt><trkpt lat="43.803035142646635" lon="12.435246643593707"><ele>334.3333333333333</ele><time>2026-05-01T13:52:41.874Z</time></trkpt><trkpt lat="43.80298658061407" lon="12.435471180897913"><ele>334.0</ele><time>2026-05-01T13:52:42.874Z</time></trkpt><trkpt lat="43.80294942093496" lon="12.435661597401104"><ele>334.0</ele><time>2026-05-01T13:52:43.874Z</time></trkpt><trkpt lat="43.80291085725719" lon="12.435813557382021"><ele>334.0</ele><time>2026-05-01T13:52:44.874Z</time></trkpt><trkpt lat="43.80287906282453" lon="12.435962922973394"><ele>334.0</ele><time>2026-05-01T13:52:45.874Z</time></trkpt><trkpt lat="43.80284735145978" lon="12.436129167097542"><ele>334.0</ele><time>2026-05-01T13:52:46.874Z</time></trkpt><trkpt lat="43.8028377790652" lon="12.436301444019907"><ele>334.0</ele><time>2026-05-01T13:52:47.874Z</time></trkpt><trkpt lat="43.80285594965301" lon="12.436469144483706"><ele>334.0</ele><time>2026-05-01T13:52:48.874Z</time></trkpt><trkpt lat="43.80289928741877" lon="12.436639132182085"><ele>334.0</ele><time>2026-05-01T13:52:49.874Z</time></trkpt><trkpt lat="43.80291927199887" lon="12.436812624879442"><ele>334.0</ele><time>2026-05-01T13:52:50.874Z</time></trkpt><trkpt lat="43.80293561042749" lon="12.436981494677909"><ele>332.75</ele><time>2026-05-01T13:52:51.874Z</time></trkpt><trkpt lat="43.80295203548248" lon="12.437154604407148"><ele>331.5</ele><time>2026-05-01T13:52:52.874Z</time></trkpt><trkpt lat="43.802966669877186" lon="12.437319449759395"><ele>330.25</ele><time>2026-05-01T13:52:53.874Z</time></trkpt><trkpt lat="43.80298292934226" lon="12.437476033611608"><ele>329.0</ele><time>2026-05-01T13:52:54.874Z</time></trkpt><trkpt lat="43.803000469793695" lon="12.437637455828774"><ele>329.0</ele><time>2026-05-01T13:52:55.874Z</time></trkpt><trkpt lat="43.80301772041544" lon="12.437788654195668"><ele>329.0</ele><time>2026-05-01T13:52:56.874Z</time></trkpt><trkpt lat="43.80303454407336" lon="12.43794404467736"><ele>329.0</ele><time>2026-05-01T13:52:57.874Z</time></trkpt><trkpt lat="43.80304416383135" lon="12.438104214301548"><ele>329.0</ele><time>2026-05-01T13:52:58.874Z</time></trkpt><trkpt lat="43.803055589089766" lon="12.438264194009449"><ele>327.75</ele><time>2026-05-01T13:52:59.874Z</time></trkpt><trkpt lat="43.80307018717074" lon="12.438427757494734"><ele>326.5</ele><time>2026-05-01T13:53:00.874Z</time></trkpt><trkpt lat="43.80309510549457" lon="12.438587487150409"><ele>325.25</ele><time>2026-05-01T13:53:01.874Z</time></trkpt><trkpt lat="43.80311524386777" lon="12.438747808781539"><ele>324.0</ele><time>2026-05-01T13:53:02.874Z</time></trkpt><trkpt lat="43.803136512727065" lon="12.43891084017624"><ele>323.75</ele><time>2026-05-01T13:53:03.874Z</time></trkpt><trkpt lat="43.80314814047446" lon="12.439080917904741"><ele>323.5</ele><time>2026-05-01T13:53:04.874Z</time></trkpt><trkpt lat="43.80316732225908" lon="12.439239401068864"><ele>323.25</ele><time>2026-05-01T13:53:05.874Z</time></trkpt><trkpt lat="43.80317836167187" lon="12.439401535518703"><ele>323.0</ele><time>2026-05-01T13:53:06.874Z</time></trkpt><trkpt lat="43.80318727285892" lon="12.43955860928088"><ele>322.59999999999997</ele><time>2026-05-01T13:53:07.874Z</time></trkpt><trkpt lat="43.80320069260495" lon="12.439708930092523"><ele>322.2</ele><time>2026-05-01T13:53:08.874Z</time></trkpt><trkpt lat="43.803210133496826" lon="12.439854801298722"><ele>321.8</ele><time>2026-05-01T13:53:09.874Z</time></trkpt><trkpt lat="43.80322085506763" lon="12.439993352825491"><ele>321.4</ele><time>2026-05-01T13:53:10.874Z</time></trkpt><trkpt lat="43.80323123607095" lon="12.440123185266335"><ele>321.0</ele><time>2026-05-01T13:53:11.874Z</time></trkpt><trkpt lat="43.80323691231304" lon="12.440234874213665"><ele>321.0</ele><time>2026-05-01T13:53:12.874Z</time></trkpt><trkpt lat="43.80325296069225" lon="12.440362238794762"><ele>321.0</ele><time>2026-05-01T13:53:14.874Z</time></trkpt><trkpt lat="43.803247216620086" lon="12.440464476817455"><ele>321.0</ele><time>2026-05-01T13:53:16.874Z</time></trkpt><trkpt lat="43.80321845398365" lon="12.440545120599015"><ele>321.0</ele><time>2026-05-01T13:53:18.874Z</time></trkpt><trkpt lat="43.80321256123496" lon="12.440639827563041"><ele>321.0</ele><time>2026-05-01T13:53:20.874Z</time></trkpt><trkpt lat="43.80320225924808" lon="12.440752994264455"><ele>321.0</ele><time>2026-05-01T13:53:22.874Z</time></trkpt><trkpt lat="43.80327160879211" lon="12.440803235131826"><ele>321.20000000000005</ele><time>2026-05-01T13:53:23.874Z</time></trkpt><trkpt lat="43.80330933074869" lon="12.440947889433824"><ele>321.40000000000003</ele><time>2026-05-01T13:53:25.874Z</time></trkpt><trkpt lat="43.80334892153357" lon="12.44108035011841"><ele>321.6</ele><time>2026-05-01T13:53:26.874Z</time></trkpt><trkpt lat="43.803451411790064" lon="12.441168203772223"><ele>321.8</ele><time>2026-05-01T13:53:27.874Z</time></trkpt><trkpt lat="43.80351427746299" lon="12.441254558970439"><ele>322.0</ele><time>2026-05-01T13:53:28.874Z</time></trkpt><trkpt lat="43.80357533249309" lon="12.441348893548229"><ele>323.40000000000003</ele><time>2026-05-01T13:53:29.874Z</time></trkpt><trkpt lat="43.8036366891554" lon="12.44144557704343"><ele>324.8</ele><time>2026-05-01T13:53:30.874Z</time></trkpt><trkpt lat="43.80370100551237" lon="12.441537284722296"><ele>326.2</ele><time>2026-05-01T13:53:31.874Z</time></trkpt><trkpt lat="43.803769737199055" lon="12.441626961831492"><ele>327.6</ele><time>2026-05-01T13:53:32.874Z</time></trkpt><trkpt lat="43.80384328411585" lon="12.441706973988875"><ele>329.0</ele><time>2026-05-01T13:53:33.874Z</time></trkpt><trkpt lat="43.80391043942711" lon="12.441800449371458"><ele>329.0</ele><time>2026-05-01T13:53:34.874Z</time></trkpt><trkpt lat="43.803989803589204" lon="12.441900903006548"><ele>329.0</ele><time>2026-05-01T13:53:35.874Z</time></trkpt><trkpt lat="43.804072434457275" lon="12.44200433163526"><ele>329.0</ele><time>2026-05-01T13:53:36.874Z</time></trkpt><trkpt lat="43.80416315182328" lon="12.442127685665277"><ele>329.0</ele><time>2026-05-01T13:53:37.874Z</time></trkpt><trkpt lat="43.80422800723336" lon="12.442229130406437"><ele>329.0</ele><time>2026-05-01T13:53:38.874Z</time></trkpt><trkpt lat="43.80428151442711" lon="12.442308962998846"><ele>328.1666666666667</ele><time>2026-05-01T13:53:39.874Z</time></trkpt><trkpt lat="43.80433906658051" lon="12.442357114511339"><ele>327.33333333333337</ele><time>2026-05-01T13:53:41.874Z</time></trkpt><trkpt lat="43.804392733660485" lon="12.44242880014063"><ele>326.5</ele><time>2026-05-01T13:53:44.874Z</time></trkpt><trkpt lat="43.80429843087734" lon="12.44254630481138"><ele>325.6666666666667</ele><time>2026-05-01T13:53:48.874Z</time></trkpt><trkpt lat="43.80421193669649" lon="12.442594200233334"><ele>324.8333333333333</ele><time>2026-05-01T13:53:50.874Z</time></trkpt><trkpt lat="43.80426532359403" lon="12.442543199082511"><ele>324.0</ele><time>2026-05-01T13:53:58.873Z</time></trkpt><trkpt lat="43.804389685499864" lon="12.442477041100327"><ele>324.0</ele><time>2026-05-01T13:54:13.872Z</time></trkpt><trkpt lat="43.8044447227393" lon="12.442539186087886"><ele>324.0</ele><time>2026-05-01T13:54:14.872Z</time></trkpt><trkpt lat="43.8045120034518" lon="12.442650169350513"><ele>324.0</ele><time>2026-05-01T13:54:15.872Z</time></trkpt><trkpt lat="43.804582028420334" lon="12.442763946851239"><ele>324.0</ele><time>2026-05-01T13:54:16.872Z</time></trkpt><trkpt lat="43.804660210991706" lon="12.442880737437905"><ele>324.0</ele><time>2026-05-01T13:54:17.872Z</time></trkpt><trkpt lat="43.804735091645625" lon="12.442982513560223"><ele>322.0</ele><time>2026-05-01T13:54:18.872Z</time></trkpt><trkpt lat="43.80481508380431" lon="12.443061497066024"><ele>320.0</ele><time>2026-05-01T13:54:19.872Z</time></trkpt><trkpt lat="43.80489136908589" lon="12.443158488341753"><ele>318.0</ele><time>2026-05-01T13:54:20.872Z</time></trkpt><trkpt lat="43.80497274067617" lon="12.44325290085449"><ele>316.0</ele><time>2026-05-01T13:54:21.872Z</time></trkpt><trkpt lat="43.80504814159288" lon="12.44334549104708"><ele>314.0</ele><time>2026-05-01T13:54:22.872Z</time></trkpt><trkpt lat="43.80513788763649" lon="12.443395206355035"><ele>315.6666666666667</ele><time>2026-05-01T13:54:23.872Z</time></trkpt><trkpt lat="43.805194870285625" lon="12.443474526949938"><ele>317.33333333333337</ele><time>2026-05-01T13:54:24.872Z</time></trkpt><trkpt lat="43.80527365155753" lon="12.443508794254107"><ele>319.0</ele><time>2026-05-01T13:54:25.872Z</time></trkpt><trkpt lat="43.80534359671949" lon="12.443523131971373"><ele>320.6666666666667</ele><time>2026-05-01T13:54:26.872Z</time></trkpt><trkpt lat="43.80541575094317" lon="12.443497978793944"><ele>322.3333333333333</ele><time>2026-05-01T13:54:27.872Z</time></trkpt><trkpt lat="43.80549526439429" lon="12.443459448601894"><ele>324.0</ele><time>2026-05-01T13:54:28.872Z</time></trkpt><trkpt lat="43.80558015421022" lon="12.44336464229437"><ele>324.0</ele><time>2026-05-01T13:54:29.872Z</time></trkpt><trkpt lat="43.805662884896" lon="12.443272898802011"><ele>324.0</ele><time>2026-05-01T13:54:30.872Z</time></trkpt><trkpt lat="43.80576972196029" lon="12.44317854792521"><ele>324.0</ele><time>2026-05-01T13:54:31.872Z</time></trkpt><trkpt lat="43.80587927787275" lon="12.443094157151727"><ele>324.0</ele><time>2026-05-01T13:54:32.872Z</time></trkpt><trkpt lat="43.80600254907819" lon="12.443020642502868"><ele>323.6666666666667</ele><time>2026-05-01T13:54:33.872Z</time></trkpt><trkpt lat="43.80612648659287" lon="12.442956789730058"><ele>323.33333333333337</ele><time>2026-05-01T13:54:34.872Z</time></trkpt><trkpt lat="43.806273841146044" lon="12.442932441769395"><ele>323.0</ele><time>2026-05-01T13:54:35.872Z</time></trkpt><trkpt lat="43.8064609399007" lon="12.442895846489192"><ele>323.0</ele><time>2026-05-01T13:54:36.872Z</time></trkpt><trkpt lat="43.80669113450138" lon="12.44285575530443"><ele>323.0</ele><time>2026-05-01T13:54:37.872Z</time></trkpt><trkpt lat="43.80693155171745" lon="12.442869059021765"><ele>323.33333333333337</ele><time>2026-05-01T13:54:38.872Z</time></trkpt><trkpt lat="43.80714668499024" lon="12.442827752255889"><ele>323.6666666666667</ele><time>2026-05-01T13:54:39.872Z</time></trkpt><trkpt lat="43.807328423591805" lon="12.442809861523486"><ele>324.0</ele><time>2026-05-01T13:54:40.872Z</time></trkpt><trkpt lat="43.80749814521499" lon="12.442798280507974"><ele>324.3333333333333</ele><time>2026-05-01T13:54:41.872Z</time></trkpt><trkpt lat="43.80767782097502" lon="12.44280452107127"><ele>324.66666666666663</ele><time>2026-05-01T13:54:42.872Z</time></trkpt><trkpt lat="43.807865855847" lon="12.442836873724398"><ele>325.0</ele><time>2026-05-01T13:54:43.872Z</time></trkpt><trkpt lat="43.80806388122386" lon="12.442858405216924"><ele>325.0</ele><time>2026-05-01T13:54:44.872Z</time></trkpt><trkpt lat="43.808273334692956" lon="12.442875072254235"><ele>325.0</ele><time>2026-05-01T13:54:45.872Z</time></trkpt><trkpt lat="43.808445548953785" lon="12.442867950089063"><ele>325.0</ele><time>2026-05-01T13:54:46.872Z</time></trkpt><trkpt lat="43.80857017292759" lon="12.442925840755008"><ele>326.2</ele><time>2026-05-01T13:54:47.872Z</time></trkpt><trkpt lat="43.80865520840925" lon="12.442957219564763"><ele>327.4</ele><time>2026-05-01T13:54:48.872Z</time></trkpt><trkpt lat="43.808750316327234" lon="12.442987485963423"><ele>328.6</ele><time>2026-05-01T13:54:49.872Z</time></trkpt><trkpt lat="43.80885015969297" lon="12.443018056480364"><ele>329.8</ele><time>2026-05-01T13:54:50.872Z</time></trkpt><trkpt lat="43.80895564691451" lon="12.443050989838401"><ele>331.0</ele><time>2026-05-01T13:54:51.872Z</time></trkpt><trkpt lat="43.809057051286686" lon="12.443071419620914"><ele>331.6</ele><time>2026-05-01T13:54:52.872Z</time></trkpt><trkpt lat="43.80914691866868" lon="12.443087889042797"><ele>332.20000000000005</ele><time>2026-05-01T13:54:53.872Z</time></trkpt><trkpt lat="43.80922701889637" lon="12.443103195668728"><ele>332.79999999999995</ele><time>2026-05-01T13:54:54.872Z</time></trkpt><trkpt lat="43.80931535999864" lon="12.443146346022942"><ele>333.4</ele><time>2026-05-01T13:54:56.872Z</time></trkpt><trkpt lat="43.80929160880126" lon="12.44335517630341"><ele>334.0</ele><time>2026-05-01T13:54:58.872Z</time></trkpt><trkpt lat="43.80919458523561" lon="12.443397868289075"><ele>334.0</ele><time>2026-05-01T13:55:00.872Z</time></trkpt><trkpt lat="43.8091128940542" lon="12.443391618695854"><ele>334.0</ele><time>2026-05-01T13:55:01.872Z</time></trkpt><trkpt lat="43.809003765556966" lon="12.443394629133305"><ele>334.0</ele><time>2026-05-01T13:55:02.872Z</time></trkpt><trkpt lat="43.808862966384574" lon="12.443385541314164"><ele>334.0</ele><time>2026-05-01T13:55:03.872Z</time></trkpt><trkpt lat="43.80869076968992" lon="12.443380160343274"><ele>334.0</ele><time>2026-05-01T13:55:04.872Z</time></trkpt><trkpt lat="43.80850871481764" lon="12.443402204487256"><ele>334.0</ele><time>2026-05-01T13:55:05.872Z</time></trkpt><trkpt lat="43.80828615732938" lon="12.44337878598102"><ele>334.0</ele><time>2026-05-01T13:55:06.872Z</time></trkpt><trkpt lat="43.808063605136006" lon="12.443388509886"><ele>334.0</ele><time>2026-05-01T13:55:07.872Z</time></trkpt><trkpt lat="43.80783219794979" lon="12.44340574157203"><ele>334.0</ele><time>2026-05-01T13:55:08.872Z</time></trkpt><trkpt lat="43.807600549243425" lon="12.443386855655728"><ele>335.0</ele><time>2026-05-01T13:55:09.872Z</time></trkpt><trkpt lat="43.80739601083423" lon="12.443399594529021"><ele>336.0</ele><time>2026-05-01T13:55:10.872Z</time></trkpt><trkpt lat="43.80721719345583" lon="12.443408769488183"><ele>337.0</ele><time>2026-05-01T13:55:11.872Z</time></trkpt><trkpt lat="43.807046539370035" lon="12.44342285156253"><ele>337.0</ele><time>2026-05-01T13:55:12.872Z</time></trkpt><trkpt lat="43.80688977014984" lon="12.443455223086056"><ele>337.0</ele><time>2026-05-01T13:55:13.872Z</time></trkpt><trkpt lat="43.80675329961663" lon="12.44351851592833"><ele>337.0</ele><time>2026-05-01T13:55:14.872Z</time></trkpt><trkpt lat="43.80663630341402" lon="12.443635978776674"><ele>337.0</ele><time>2026-05-01T13:55:15.872Z</time></trkpt><trkpt lat="43.80651317377885" lon="12.44375229927325"><ele>341.0</ele><time>2026-05-01T13:55:16.872Z</time></trkpt><trkpt lat="43.80637812315689" lon="12.443874002115658"><ele>345.0</ele><time>2026-05-01T13:55:17.872Z</time></trkpt><trkpt lat="43.80625825767743" lon="12.444005212972783"><ele>349.0</ele><time>2026-05-01T13:55:18.872Z</time></trkpt><trkpt lat="43.806146997212906" lon="12.444120300621751"><ele>349.0</ele><time>2026-05-01T13:55:19.871Z</time></trkpt><trkpt lat="43.80604159632288" lon="12.444229998905959"><ele>349.0</ele><time>2026-05-01T13:55:20.871Z</time></trkpt><trkpt lat="43.805930225487884" lon="12.444357292210926"><ele>349.0</ele><time>2026-05-01T13:55:21.871Z</time></trkpt><trkpt lat="43.8058251985374" lon="12.44447467018733"><ele>349.0</ele><time>2026-05-01T13:55:22.871Z</time></trkpt><trkpt lat="43.805731450747416" lon="12.444588089541988"><ele>350.0</ele><time>2026-05-01T13:55:23.871Z</time></trkpt><trkpt lat="43.80564765647499" lon="12.444700191507708"><ele>351.0</ele><time>2026-05-01T13:55:24.871Z</time></trkpt><trkpt lat="43.805592880790314" lon="12.444825918860666"><ele>352.0</ele><time>2026-05-01T13:55:25.871Z</time></trkpt><trkpt lat="43.80556897657507" lon="12.444956884019447"><ele>353.0</ele><time>2026-05-01T13:55:26.871Z</time></trkpt><trkpt lat="43.80555003772566" lon="12.44507758763899"><ele>354.0</ele><time>2026-05-01T13:55:27.871Z</time></trkpt><trkpt lat="43.80554493690145" lon="12.445179439276835"><ele>354.0</ele><time>2026-05-01T13:55:28.871Z</time></trkpt><trkpt lat="43.805554868500415" lon="12.445281824012552"><ele>354.0</ele><time>2026-05-01T13:55:29.871Z</time></trkpt><trkpt lat="43.805565444746044" lon="12.445442129150008"><ele>354.0</ele><time>2026-05-01T13:55:31.871Z</time></trkpt><trkpt lat="43.805596939010634" lon="12.445596528755338"><ele>354.0</ele><time>2026-05-01T13:55:33.871Z</time></trkpt><trkpt lat="43.80562484833899" lon="12.445775523536966"><ele>354.0</ele><time>2026-05-01T13:55:35.871Z</time></trkpt><trkpt lat="43.80564772684342" lon="12.445882126798056"><ele>355.0</ele><time>2026-05-01T13:55:36.871Z</time></trkpt><trkpt lat="43.80568505038607" lon="12.44600768354976"><ele>356.0</ele><time>2026-05-01T13:55:37.871Z</time></trkpt><trkpt lat="43.80574705917555" lon="12.446134500975965"><ele>357.0</ele><time>2026-05-01T13:55:38.871Z</time></trkpt><trkpt lat="43.80582106175442" lon="12.446253661886052"><ele>358.0</ele><time>2026-05-01T13:55:39.871Z</time></trkpt><trkpt lat="43.80589664242514" lon="12.446400306118184"><ele>358.0</ele><time>2026-05-01T13:55:40.871Z</time></trkpt><trkpt lat="43.805966149257806" lon="12.446575072489656"><ele>358.0</ele><time>2026-05-01T13:55:41.871Z</time></trkpt><trkpt lat="43.806046409980816" lon="12.446737579360459"><ele>358.0</ele><time>2026-05-01T13:55:42.871Z</time></trkpt><trkpt lat="43.806109354086864" lon="12.446929890741389"><ele>358.0</ele><time>2026-05-01T13:55:43.871Z</time></trkpt><trkpt lat="43.806185882301584" lon="12.447122871308562"><ele>363.5</ele><time>2026-05-01T13:55:44.871Z</time></trkpt><trkpt lat="43.80625548868948" lon="12.447298397398235"><ele>369.0</ele><time>2026-05-01T13:55:45.871Z</time></trkpt><trkpt lat="43.806320231708035" lon="12.447465452726178"><ele>374.5</ele><time>2026-05-01T13:55:46.871Z</time></trkpt><trkpt lat="43.806377708898076" lon="12.44762234950294"><ele>380.0</ele><time>2026-05-01T13:55:47.871Z</time></trkpt><trkpt lat="43.80645008008907" lon="12.447751587085511"><ele>380.0</ele><time>2026-05-01T13:55:48.871Z</time></trkpt><trkpt lat="43.80649400985048" lon="12.447871910435651"><ele>380.0</ele><time>2026-05-01T13:55:49.871Z</time></trkpt><trkpt lat="43.80653574124525" lon="12.44797459669809"><ele>380.0</ele><time>2026-05-01T13:55:50.871Z</time></trkpt><trkpt lat="43.806589062324065" lon="12.448072417927877"><ele>380.0</ele><time>2026-05-01T13:55:51.871Z</time></trkpt><trkpt lat="43.80664379196284" lon="12.448189731635605"><ele>380.0</ele><time>2026-05-01T13:55:52.871Z</time></trkpt><trkpt lat="43.806718225448705" lon="12.448315101342796"><ele>381.0</ele><time>2026-05-01T13:55:53.871Z</time></trkpt><trkpt lat="43.8067947195775" lon="12.44845621775504"><ele>382.0</ele><time>2026-05-01T13:55:54.871Z</time></trkpt><trkpt lat="43.80686509401104" lon="12.448593372299014"><ele>383.0</ele><time>2026-05-01T13:55:55.871Z</time></trkpt><trkpt lat="43.80691924451162" lon="12.448726712946268"><ele>384.0</ele><time>2026-05-01T13:55:56.871Z</time></trkpt><trkpt lat="43.80698575914513" lon="12.448826295755042"><ele>380.4</ele><time>2026-05-01T13:55:57.871Z</time></trkpt><trkpt lat="43.807074077910855" lon="12.44888627238891"><ele>376.79999999999995</ele><time>2026-05-01T13:55:58.871Z</time></trkpt><trkpt lat="43.807149730054235" lon="12.448968295164384"><ele>373.20000000000005</ele><time>2026-05-01T13:55:59.871Z</time></trkpt><trkpt lat="43.807253886051896" lon="12.44903292633841"><ele>369.6</ele><time>2026-05-01T13:56:00.871Z</time></trkpt><trkpt lat="43.80734054863462" lon="12.449103681689664"><ele>366.0</ele><time>2026-05-01T13:56:01.871Z</time></trkpt><trkpt lat="43.80742290153044" lon="12.449193498819293"><ele>366.0</ele><time>2026-05-01T13:56:02.871Z</time></trkpt><trkpt lat="43.80750659324801" lon="12.449311513886224"><ele>366.0</ele><time>2026-05-01T13:56:03.871Z</time></trkpt><trkpt lat="43.80756054216602" lon="12.449457165949665"><ele>366.0</ele><time>2026-05-01T13:56:04.871Z</time></trkpt><trkpt lat="43.80759932518477" lon="12.449617325990907"><ele>366.0</ele><time>2026-05-01T13:56:05.871Z</time></trkpt><trkpt lat="43.807632181578526" lon="12.449778353593667"><ele>364.75</ele><time>2026-05-01T13:56:06.871Z</time></trkpt><trkpt lat="43.8076533698879" lon="12.449933122849442"><ele>363.5</ele><time>2026-05-01T13:56:07.871Z</time></trkpt><trkpt lat="43.807640036579954" lon="12.450081800672084"><ele>362.25</ele><time>2026-05-01T13:56:08.871Z</time></trkpt><trkpt lat="43.807620729046" lon="12.450229441995658"><ele>361.0</ele><time>2026-05-01T13:56:09.871Z</time></trkpt><trkpt lat="43.80757444041576" lon="12.450384492872898"><ele>362.25</ele><time>2026-05-01T13:56:10.871Z</time></trkpt><trkpt lat="43.807518445409755" lon="12.450552161248217"><ele>363.5</ele><time>2026-05-01T13:56:11.871Z</time></trkpt><trkpt lat="43.807460800984934" lon="12.450745856001577"><ele>364.75</ele><time>2026-05-01T13:56:12.871Z</time></trkpt><trkpt lat="43.807423559311" lon="12.450933958061011"><ele>366.0</ele><time>2026-05-01T13:56:13.871Z</time></trkpt><trkpt lat="43.807408549093715" lon="12.451132163978496"><ele>369.25</ele><time>2026-05-01T13:56:14.871Z</time></trkpt><trkpt lat="43.80740243099427" lon="12.451357812662959"><ele>372.5</ele><time>2026-05-01T13:56:15.871Z</time></trkpt><trkpt lat="43.80739354290503" lon="12.451568261574169"><ele>375.75</ele><time>2026-05-01T13:56:16.871Z</time></trkpt><trkpt lat="43.80734899778842" lon="12.451734314598848"><ele>379.0</ele><time>2026-05-01T13:56:17.871Z</time></trkpt><trkpt lat="43.80731016915178" lon="12.451876690695947"><ele>379.0</ele><time>2026-05-01T13:56:18.871Z</time></trkpt><trkpt lat="43.80726960258983" lon="12.45200564166233"><ele>379.0</ele><time>2026-05-01T13:56:19.871Z</time></trkpt><trkpt lat="43.80720997924484" lon="12.452169511688266"><ele>379.0</ele><time>2026-05-01T13:56:20.871Z</time></trkpt><trkpt lat="43.807130699086635" lon="12.452341858020866"><ele>379.0</ele><time>2026-05-01T13:56:21.871Z</time></trkpt><trkpt lat="43.80703342749308" lon="12.452525190843255"><ele>381.25</ele><time>2026-05-01T13:56:22.871Z</time></trkpt><trkpt lat="43.806953325233444" lon="12.452737772299495"><ele>383.5</ele><time>2026-05-01T13:56:23.871Z</time></trkpt><trkpt lat="43.80686647861906" lon="12.452902323242634"><ele>385.75</ele><time>2026-05-01T13:56:24.871Z</time></trkpt><trkpt lat="43.80679526688706" lon="12.453026104426787"><ele>388.0</ele><time>2026-05-01T13:56:25.871Z</time></trkpt><trkpt lat="43.80671061790678" lon="12.453062731638427"><ele>389.0</ele><time>2026-05-01T13:56:26.871Z</time></trkpt><trkpt lat="43.806634460694006" lon="12.453119588512811"><ele>390.0</ele><time>2026-05-01T13:56:28.871Z</time></trkpt><trkpt lat="43.80667992266911" lon="12.453222116981161"><ele>391.0</ele><time>2026-05-01T13:56:32.871Z</time></trkpt><trkpt lat="43.80677140321796" lon="12.453285544578707"><ele>392.0</ele><time>2026-05-01T13:56:34.871Z</time></trkpt><trkpt lat="43.8068400484255" lon="12.453330336907491"><ele>393.0</ele><time>2026-05-01T13:56:35.871Z</time></trkpt><trkpt lat="43.80703533852648" lon="12.453478801722476"><ele>393.0</ele><time>2026-05-01T13:56:36.871Z</time></trkpt><trkpt lat="43.807210714204494" lon="12.45363074264304"><ele>393.0</ele><time>2026-05-01T13:56:37.871Z</time></trkpt><trkpt lat="43.80737327441321" lon="12.453772254974027"><ele>393.0</ele><time>2026-05-01T13:56:38.871Z</time></trkpt><trkpt lat="43.80757068926383" lon="12.453917986612392"><ele>399.5</ele><time>2026-05-01T13:56:39.871Z</time></trkpt><trkpt lat="43.80777676914916" lon="12.454064606759633"><ele>406.0</ele><time>2026-05-01T13:56:40.871Z</time></trkpt><trkpt lat="43.80797018536525" lon="12.454207829083451"><ele>406.0</ele><time>2026-05-01T13:56:41.871Z</time></trkpt><trkpt lat="43.8081300497307" lon="12.454320953777268"><ele>406.0</ele><time>2026-05-01T13:56:42.871Z</time></trkpt><trkpt lat="43.80827634400925" lon="12.454400985219875"><ele>406.0</ele><time>2026-05-01T13:56:43.871Z</time></trkpt><trkpt lat="43.80840716877219" lon="12.4544643157166"><ele>408.33333333333337</ele><time>2026-05-01T13:56:44.871Z</time></trkpt><trkpt lat="43.80856331220537" lon="12.454510886265656"><ele>410.66666666666663</ele><time>2026-05-01T13:56:45.871Z</time></trkpt><trkpt lat="43.808745568619024" lon="12.454552042037946"><ele>413.0</ele><time>2026-05-01T13:56:46.871Z</time></trkpt><trkpt lat="43.80891523101933" lon="12.454577631626519"><ele>413.0</ele><time>2026-05-01T13:56:47.871Z</time></trkpt><trkpt lat="43.80906289925706" lon="12.454587466072725"><ele>413.0</ele><time>2026-05-01T13:56:48.871Z</time></trkpt><trkpt lat="43.80921224969667" lon="12.454592282847555"><ele>413.0</ele><time>2026-05-01T13:56:49.871Z</time></trkpt><trkpt lat="43.809367849766616" lon="12.454576941132512"><ele>414.75</ele><time>2026-05-01T13:56:50.871Z</time></trkpt><trkpt lat="43.809502005433494" lon="12.454534517717422"><ele>416.5</ele><time>2026-05-01T13:56:51.871Z</time></trkpt><trkpt lat="43.809621299485904" lon="12.45448684198179"><ele>418.25</ele><time>2026-05-01T13:56:52.871Z</time></trkpt><trkpt lat="43.80973346989569" lon="12.454406248373882"><ele>420.0</ele><time>2026-05-01T13:56:53.871Z</time></trkpt><trkpt lat="43.8098387288072" lon="12.454291975982759"><ele>420.0</ele><time>2026-05-01T13:56:54.871Z</time></trkpt><trkpt lat="43.80991605899072" lon="12.454156802867617"><ele>420.0</ele><time>2026-05-01T13:56:55.871Z</time></trkpt><trkpt lat="43.80995122535662" lon="12.454016527938927"><ele>420.0</ele><time>2026-05-01T13:56:56.871Z</time></trkpt><trkpt lat="43.809950032319904" lon="12.453863073162188"><ele>420.0</ele><time>2026-05-01T13:56:57.871Z</time></trkpt><trkpt lat="43.8099294690862" lon="12.45367602271572"><ele>424.33333333333337</ele><time>2026-05-01T13:56:58.871Z</time></trkpt><trkpt lat="43.80991812599596" lon="12.453446551372584"><ele>428.6666666666667</ele><time>2026-05-01T13:56:59.871Z</time></trkpt><trkpt lat="43.80988595889385" lon="12.453192368012118"><ele>433.0</ele><time>2026-05-01T13:57:00.871Z</time></trkpt><trkpt lat="43.80985033057528" lon="12.452922829608378"><ele>434.75</ele><time>2026-05-01T13:57:01.871Z</time></trkpt><trkpt lat="43.80983348096853" lon="12.452685304589926"><ele>436.5</ele><time>2026-05-01T13:57:02.871Z</time></trkpt><trkpt lat="43.80981771476151" lon="12.452487092269696"><ele>438.25</ele><time>2026-05-01T13:57:03.871Z</time></trkpt><trkpt lat="43.809817736235374" lon="12.452315354890494"><ele>440.0</ele><time>2026-05-01T13:57:04.871Z</time></trkpt><trkpt lat="43.809873638895326" lon="12.452138666106922"><ele>439.3333333333333</ele><time>2026-05-01T13:57:05.871Z</time></trkpt><trkpt lat="43.80993092990749" lon="12.451927172221488"><ele>438.66666666666663</ele><time>2026-05-01T13:57:06.871Z</time></trkpt><trkpt lat="43.809990140236785" lon="12.451713951517625"><ele>438.0</ele><time>2026-05-01T13:57:07.871Z</time></trkpt><trkpt lat="43.810048262108175" lon="12.451559735297508"><ele>438.0</ele><time>2026-05-01T13:57:08.871Z</time></trkpt><trkpt lat="43.810098108620586" lon="12.4514299782871"><ele>437.99999999999994</ele><time>2026-05-01T13:57:09.871Z</time></trkpt><trkpt lat="43.810150112707795" lon="12.451325068717672"><ele>437.99999999999994</ele><time>2026-05-01T13:57:10.871Z</time></trkpt><trkpt lat="43.81023623382147" lon="12.451285665394026"><ele>438.0</ele><time>2026-05-01T13:57:11.871Z</time></trkpt><trkpt lat="43.81035062126539" lon="12.451230981230141"><ele>438.0</ele><time>2026-05-01T13:57:12.871Z</time></trkpt><trkpt lat="43.81048403335877" lon="12.451161017727774"><ele>437.4</ele><time>2026-05-01T13:57:13.871Z</time></trkpt><trkpt lat="43.8105867971857" lon="12.451106865770283"><ele>436.79999999999995</ele><time>2026-05-01T13:57:14.871Z</time></trkpt><trkpt lat="43.81068252575464" lon="12.451058817093609"><ele>436.2</ele><time>2026-05-01T13:57:15.871Z</time></trkpt><trkpt lat="43.81076694525668" lon="12.451034992353566"><ele>435.6</ele><time>2026-05-01T13:57:16.871Z</time></trkpt><trkpt lat="43.8108443547179" lon="12.450999084236233"><ele>435.0</ele><time>2026-05-01T13:57:17.871Z</time></trkpt><trkpt lat="43.81093353601927" lon="12.451048743376523"><ele>433.5</ele><time>2026-05-01T13:57:18.871Z</time></trkpt><trkpt lat="43.811037546716655" lon="12.451079412504564"><ele>432.0</ele><time>2026-05-01T13:57:19.871Z</time></trkpt><trkpt lat="43.81114872363299" lon="12.451159858735636"><ele>430.5</ele><time>2026-05-01T13:57:20.871Z</time></trkpt><trkpt lat="43.811239296340894" lon="12.451292623219272"><ele>429.0</ele><time>2026-05-01T13:57:21.871Z</time></trkpt><trkpt lat="43.81133553571402" lon="12.451434413758145"><ele>432.6</ele><time>2026-05-01T13:57:22.871Z</time></trkpt><trkpt lat="43.81143401364413" lon="12.451545854458812"><ele>436.2</ele><time>2026-05-01T13:57:23.871Z</time></trkpt><trkpt lat="43.81150954282956" lon="12.451634187986189"><ele>439.80000000000007</ele><time>2026-05-01T13:57:24.871Z</time></trkpt><trkpt lat="43.811582518602584" lon="12.451652972470443"><ele>443.40000000000003</ele><time>2026-05-01T13:57:25.871Z</time></trkpt><trkpt lat="43.81169314727122" lon="12.451649991871227"><ele>447.0</ele><time>2026-05-01T13:57:26.871Z</time></trkpt><trkpt lat="43.811817674779334" lon="12.451643339406491"><ele>447.20000000000005</ele><time>2026-05-01T13:57:27.871Z</time></trkpt><trkpt lat="43.81191752544982" lon="12.45166868970984"><ele>447.40000000000003</ele><time>2026-05-01T13:57:28.871Z</time></trkpt><trkpt lat="43.81199710263738" lon="12.45174702539393"><ele>447.59999999999997</ele><time>2026-05-01T13:57:29.871Z</time></trkpt><trkpt lat="43.812059673367315" lon="12.451836856335104"><ele>447.79999999999995</ele><time>2026-05-01T13:57:30.871Z</time></trkpt><trkpt lat="43.81215517488139" lon="12.451963345409961"><ele>448.0</ele><time>2026-05-01T13:57:31.87Z</time></trkpt><trkpt lat="43.81228470568686" lon="12.452132009497419"><ele>448.0</ele><time>2026-05-01T13:57:32.87Z</time></trkpt><trkpt lat="43.81245317802304" lon="12.452296657158888"><ele>448.0</ele><time>2026-05-01T13:57:33.87Z</time></trkpt><trkpt lat="43.81261031340171" lon="12.452409190116116"><ele>448.0</ele><time>2026-05-01T13:57:34.87Z</time></trkpt><trkpt lat="43.81273251698201" lon="12.452509661380072"><ele>449.2</ele><time>2026-05-01T13:57:35.87Z</time></trkpt><trkpt lat="43.81283557365584" lon="12.45255360875744"><ele>450.4</ele><time>2026-05-01T13:57:36.87Z</time></trkpt><trkpt lat="43.81292441413266" lon="12.452597471316043"><ele>451.59999999999997</ele><time>2026-05-01T13:57:37.87Z</time></trkpt><trkpt lat="43.81301432491246" lon="12.452646447199989"><ele>452.79999999999995</ele><time>2026-05-01T13:57:39.87Z</time></trkpt><trkpt lat="43.813150463914155" lon="12.452696825535545"><ele>454.0</ele><time>2026-05-01T13:57:41.87Z</time></trkpt><trkpt lat="43.81323528803479" lon="12.45272039286217"><ele>454.0</ele><time>2026-05-01T13:57:42.87Z</time></trkpt><trkpt lat="43.81335871953485" lon="12.452769895026593"><ele>454.0</ele><time>2026-05-01T13:57:43.87Z</time></trkpt><trkpt lat="43.813530891412825" lon="12.452840929411922"><ele>454.0</ele><time>2026-05-01T13:57:44.87Z</time></trkpt><trkpt lat="43.81371846646868" lon="12.45291072327555"><ele>455.33333333333337</ele><time>2026-05-01T13:57:45.87Z</time></trkpt><trkpt lat="43.813900124048196" lon="12.452980136705817"><ele>456.66666666666663</ele><time>2026-05-01T13:57:46.87Z</time></trkpt><trkpt lat="43.81407232021114" lon="12.453060124882931"><ele>458.0</ele><time>2026-05-01T13:57:47.87Z</time></trkpt><trkpt lat="43.814213783918625" lon="12.453125399906058"><ele>457.25</ele><time>2026-05-01T13:57:48.87Z</time></trkpt><trkpt lat="43.814333138009346" lon="12.453196419070185"><ele>456.5</ele><time>2026-05-01T13:57:49.87Z</time></trkpt><trkpt lat="43.81443996923071" lon="12.453266976458425"><ele>455.75</ele><time>2026-05-01T13:57:50.87Z</time></trkpt><trkpt lat="43.814537571503166" lon="12.45335821017755"><ele>455.0</ele><time>2026-05-01T13:57:51.87Z</time></trkpt><trkpt lat="43.81461472401654" lon="12.453466339297965"><ele>454.99999999999994</ele><time>2026-05-01T13:57:52.87Z</time></trkpt><trkpt lat="43.81466487117118" lon="12.453585384611875"><ele>455.0</ele><time>2026-05-01T13:57:53.87Z</time></trkpt><trkpt lat="43.81472911635914" lon="12.453683460509811"><ele>455.0</ele><time>2026-05-01T13:57:54.87Z</time></trkpt><trkpt lat="43.81477960858981" lon="12.453778234676081"><ele>455.0</ele><time>2026-05-01T13:57:55.87Z</time></trkpt><trkpt lat="43.81482280176083" lon="12.45386537714059"><ele>454.99999999999994</ele><time>2026-05-01T13:57:56.87Z</time></trkpt><trkpt lat="43.814840236085274" lon="12.4539502983843"><ele>455.0</ele><time>2026-05-01T13:57:57.87Z</time></trkpt><trkpt lat="43.81487689184975" lon="12.454021667790112"><ele>456.49999999999994</ele><time>2026-05-01T13:57:59.87Z</time></trkpt><trkpt lat="43.814920487708115" lon="12.454121891118353"><ele>458.0</ele><time>2026-05-01T13:58:01.87Z</time></trkpt><trkpt lat="43.81496282540663" lon="12.454233854505135"><ele>459.5</ele><time>2026-05-01T13:58:03.87Z</time></trkpt><trkpt lat="43.814988060267105" lon="12.454350490121513"><ele>461.0</ele><time>2026-05-01T13:58:05.87Z</time></trkpt><trkpt lat="43.815021253346494" lon="12.454463023268879"><ele>462.49999999999994</ele><time>2026-05-01T13:58:07.87Z</time></trkpt><trkpt lat="43.81504217526431" lon="12.454556734103885"><ele>464.0</ele><time>2026-05-01T13:58:09.87Z</time></trkpt><trkpt lat="43.81504535994089" lon="12.45465911408821"><ele>464.8333333333333</ele><time>2026-05-01T13:58:11.869Z</time></trkpt><trkpt lat="43.81505512736199" lon="12.454752622894276"><ele>465.66666666666663</ele><time>2026-05-01T13:58:13.869Z</time></trkpt><trkpt lat="43.81506253884989" lon="12.454859849108294"><ele>466.5</ele><time>2026-05-01T13:58:15.869Z</time></trkpt><trkpt lat="43.815059808221626" lon="12.454985006033787"><ele>467.33333333333337</ele><time>2026-05-01T13:58:17.869Z</time></trkpt><trkpt lat="43.815058809033275" lon="12.45508437685866"><ele>468.1666666666667</ele><time>2026-05-01T13:58:19.868Z</time></trkpt><trkpt lat="43.815045335998725" lon="12.455215854193128"><ele>469.0</ele><time>2026-05-01T13:58:21.869Z</time></trkpt><trkpt lat="43.81505395401191" lon="12.45534206069863"><ele>469.00000000000006</ele><time>2026-05-01T13:58:23.869Z</time></trkpt><trkpt lat="43.81505361676753" lon="12.455455807487905"><ele>469.0</ele><time>2026-05-01T13:58:26.869Z</time></trkpt><trkpt lat="43.81505728542848" lon="12.455582700126541"><ele>469.0</ele><time>2026-05-01T13:58:29.869Z</time></trkpt><trkpt lat="43.81508626183164" lon="12.45568302617562"><ele>469.0</ele><time>2026-05-01T13:58:31.869Z</time></trkpt><trkpt lat="43.815112417544306" lon="12.455783436577335"><ele>469.00000000000006</ele><time>2026-05-01T13:58:33.869Z</time></trkpt><trkpt lat="43.815129604619166" lon="12.455889992023893"><ele>469.0</ele><time>2026-05-01T13:58:35.869Z</time></trkpt><trkpt lat="43.81519001096864" lon="12.455968311606652"><ele>471.83333333333337</ele><time>2026-05-01T13:58:37.869Z</time></trkpt><trkpt lat="43.81526198307599" lon="12.456007494934443"><ele>474.6666666666667</ele><time>2026-05-01T13:58:39.869Z</time></trkpt><trkpt lat="43.81535102100316" lon="12.456002287650804"><ele>477.5</ele><time>2026-05-01T13:58:41.869Z</time></trkpt><trkpt lat="43.815430928677976" lon="12.455960198288109"><ele>480.33333333333337</ele><time>2026-05-01T13:58:43.869Z</time></trkpt><trkpt lat="43.815526303962685" lon="12.45588341342976"><ele>483.1666666666667</ele><time>2026-05-01T13:58:46.869Z</time></trkpt><trkpt lat="43.8155887698542" lon="12.455841624494433"><ele>486.0</ele><time>2026-05-01T13:58:48.869Z</time></trkpt><trkpt lat="43.81568327560178" lon="12.455812890632734"><ele>486.0</ele><time>2026-05-01T13:58:51.869Z</time></trkpt><trkpt lat="43.815762863363894" lon="12.455793343338195"><ele>486.0</ele><time>2026-05-01T13:58:53.869Z</time></trkpt><trkpt lat="43.815853784571615" lon="12.455855285968724"><ele>486.0</ele><time>2026-05-01T13:58:55.869Z</time></trkpt><trkpt lat="43.815963830060504" lon="12.45589891981393"><ele>486.0</ele><time>2026-05-01T13:58:57.869Z</time></trkpt><trkpt lat="43.81603397408514" lon="12.455951173606993"><ele>486.0</ele><time>2026-05-01T13:58:59.869Z</time></trkpt><trkpt lat="43.81611701517909" lon="12.455979137903448"><ele>488.5</ele><time>2026-05-01T13:59:01.869Z</time></trkpt><trkpt lat="43.81624584159328" lon="12.456043648437586"><ele>491.0</ele><time>2026-05-01T13:59:03.869Z</time></trkpt><trkpt lat="43.8163346439301" lon="12.456102181363084"><ele>493.5</ele><time>2026-05-01T13:59:04.869Z</time></trkpt><trkpt lat="43.81646672099135" lon="12.456165651569487"><ele>496.0</ele><time>2026-05-01T13:59:05.869Z</time></trkpt><trkpt lat="43.81662483352353" lon="12.456254060972745"><ele>491.6666666666667</ele><time>2026-05-01T13:59:06.869Z</time></trkpt><trkpt lat="43.816814465993886" lon="12.456330847070019"><ele>487.33333333333337</ele><time>2026-05-01T13:59:07.869Z</time></trkpt><trkpt lat="43.8169985512328" lon="12.456439503764026"><ele>483.0</ele><time>2026-05-01T13:59:08.869Z</time></trkpt><trkpt lat="43.817175548977154" lon="12.456466920623503"><ele>483.0</ele><time>2026-05-01T13:59:09.869Z</time></trkpt><trkpt lat="43.817321697451135" lon="12.456521942148392"><ele>483.0</ele><time>2026-05-01T13:59:10.869Z</time></trkpt><trkpt lat="43.81744357079028" lon="12.456568256842388"><ele>483.0</ele><time>2026-05-01T13:59:11.869Z</time></trkpt><trkpt lat="43.81754966892391" lon="12.456626239742086"><ele>483.0</ele><time>2026-05-01T13:59:12.869Z</time></trkpt><trkpt lat="43.81765889544709" lon="12.456664489474749"><ele>485.25</ele><time>2026-05-01T13:59:13.869Z</time></trkpt><trkpt lat="43.81779307013192" lon="12.456695108825661"><ele>487.5</ele><time>2026-05-01T13:59:14.869Z</time></trkpt><trkpt lat="43.81796045222848" lon="12.456688543546134"><ele>489.75</ele><time>2026-05-01T13:59:15.869Z</time></trkpt><trkpt lat="43.81810250532483" lon="12.456692573568972"><ele>492.0</ele><time>2026-05-01T13:59:16.869Z</time></trkpt><trkpt lat="43.81822380376663" lon="12.456722652383716"><ele>492.0</ele><time>2026-05-01T13:59:17.869Z</time></trkpt><trkpt lat="43.81831415969063" lon="12.45674922177423"><ele>492.00000000000006</ele><time>2026-05-01T13:59:18.869Z</time></trkpt><trkpt lat="43.8183805121429" lon="12.456806256140007"><ele>492.00000000000006</ele><time>2026-05-01T13:59:19.869Z</time></trkpt><trkpt lat="43.818430001945266" lon="12.456905154760348"><ele>492.0</ele><time>2026-05-01T13:59:20.869Z</time></trkpt><trkpt lat="43.81845812935034" lon="12.457052838744083"><ele>492.0</ele><time>2026-05-01T13:59:21.868Z</time></trkpt><trkpt lat="43.818468481219966" lon="12.457211407525532"><ele>489.6</ele><time>2026-05-01T13:59:22.868Z</time></trkpt><trkpt lat="43.81841279443299" lon="12.457340016664926"><ele>487.20000000000005</ele><time>2026-05-01T13:59:23.868Z</time></trkpt><trkpt lat="43.8183573353079" lon="12.457480875116799"><ele>484.8</ele><time>2026-05-01T13:59:24.868Z</time></trkpt><trkpt lat="43.818343595146686" lon="12.457603690163022"><ele>482.4</ele><time>2026-05-01T13:59:25.868Z</time></trkpt><trkpt lat="43.81834822134221" lon="12.457760238905735"><ele>480.0</ele><time>2026-05-01T13:59:27.868Z</time></trkpt><trkpt lat="43.81840347166698" lon="12.457814102990831"><ele>480.0</ele><time>2026-05-01T13:59:28.868Z</time></trkpt><trkpt lat="43.81846795075475" lon="12.457843485444414"><ele>480.0</ele><time>2026-05-01T13:59:29.868Z</time></trkpt><trkpt lat="43.818530335423134" lon="12.457867746863837"><ele>480.0</ele><time>2026-05-01T13:59:30.868Z</time></trkpt><trkpt lat="43.81859882914082" lon="12.457877525865303"><ele>480.0</ele><time>2026-05-01T13:59:31.868Z</time></trkpt><trkpt lat="43.818669357993834" lon="12.457888956223579"><ele>480.0</ele><time>2026-05-01T13:59:32.868Z</time></trkpt><trkpt lat="43.818765066602424" lon="12.45789416876445"><ele>480.0</ele><time>2026-05-01T13:59:33.868Z</time></trkpt><trkpt lat="43.818878035230775" lon="12.457906621038926"><ele>477.4</ele><time>2026-05-01T13:59:34.868Z</time></trkpt><trkpt lat="43.81898653410142" lon="12.457936361103295"><ele>474.8</ele><time>2026-05-01T13:59:35.868Z</time></trkpt><trkpt lat="43.81908009370157" lon="12.457965056295983"><ele>472.20000000000005</ele><time>2026-05-01T13:59:36.868Z</time></trkpt><trkpt lat="43.81916515840602" lon="12.458002387526763"><ele>469.6</ele><time>2026-05-01T13:59:37.868Z</time></trkpt><trkpt lat="43.81924154407205" lon="12.458040005351437"><ele>467.0</ele><time>2026-05-01T13:59:38.868Z</time></trkpt><trkpt lat="43.81931741850768" lon="12.458061151531421"><ele>465.40000000000003</ele><time>2026-05-01T13:59:39.868Z</time></trkpt><trkpt lat="43.81940365287469" lon="12.458085345048751"><ele>463.80000000000007</ele><time>2026-05-01T13:59:40.868Z</time></trkpt><trkpt lat="43.819483585646125" lon="12.458090430703685"><ele>462.2</ele><time>2026-05-01T13:59:41.868Z</time></trkpt><trkpt lat="43.8195677957425" lon="12.458085628673636"><ele>460.6</ele><time>2026-05-01T13:59:42.868Z</time></trkpt><trkpt lat="43.81966808357093" lon="12.458043891346115"><ele>459.0</ele><time>2026-05-01T13:59:43.868Z</time></trkpt><trkpt lat="43.81976200431597" lon="12.458041043698985"><ele>459.0</ele><time>2026-05-01T13:59:44.868Z</time></trkpt><trkpt lat="43.81985471511863" lon="12.458066303587378"><ele>459.0</ele><time>2026-05-01T13:59:45.868Z</time></trkpt><trkpt lat="43.819918217396335" lon="12.458100675606142"><ele>459.0</ele><time>2026-05-01T13:59:46.868Z</time></trkpt><trkpt lat="43.81997936180462" lon="12.458183758953725"><ele>459.0</ele><time>2026-05-01T13:59:47.868Z</time></trkpt><trkpt lat="43.82002181713067" lon="12.458278776205644"><ele>459.0</ele><time>2026-05-01T13:59:48.868Z</time></trkpt><trkpt lat="43.820029907326514" lon="12.458379146713044"><ele>459.0</ele><time>2026-05-01T13:59:49.868Z</time></trkpt><trkpt lat="43.82002321575065" lon="12.458487552071148"><ele>459.0</ele><time>2026-05-01T13:59:50.868Z</time></trkpt><trkpt lat="43.82000024111379" lon="12.458597525097275"><ele>459.0</ele><time>2026-05-01T13:59:51.868Z</time></trkpt><trkpt lat="43.819963365642636" lon="12.4587314086742"><ele>459.0</ele><time>2026-05-01T13:59:52.868Z</time></trkpt><trkpt lat="43.81992454342572" lon="12.458863616418755"><ele>459.0</ele><time>2026-05-01T13:59:53.868Z</time></trkpt><trkpt lat="43.81989429773854" lon="12.458994686714647"><ele>459.0</ele><time>2026-05-01T13:59:54.868Z</time></trkpt><trkpt lat="43.81986635325987" lon="12.459118172151879"><ele>456.4</ele><time>2026-05-01T13:59:55.868Z</time></trkpt><trkpt lat="43.81984939090907" lon="12.459261132440062"><ele>453.79999999999995</ele><time>2026-05-01T13:59:56.868Z</time></trkpt><trkpt lat="43.819841750938224" lon="12.45941325041412"><ele>451.20000000000005</ele><time>2026-05-01T13:59:57.868Z</time></trkpt><trkpt lat="43.819841953435706" lon="12.459570545950966"><ele>448.6</ele><time>2026-05-01T13:59:58.868Z</time></trkpt><trkpt lat="43.819826622686044" lon="12.459707950572058"><ele>446.0</ele><time>2026-05-01T13:59:59.868Z</time></trkpt><trkpt lat="43.81981681290459" lon="12.459841191601162"><ele>444.0</ele><time>2026-05-01T14:00:00.868Z</time></trkpt><trkpt lat="43.81984157301556" lon="12.459986256899168"><ele>442.0</ele><time>2026-05-01T14:00:01.868Z</time></trkpt><trkpt lat="43.819892895240415" lon="12.460142531619956"><ele>440.0</ele><time>2026-05-01T14:00:02.868Z</time></trkpt><trkpt lat="43.819956633734634" lon="12.460306298240456"><ele>438.0</ele><time>2026-05-01T14:00:03.868Z</time></trkpt><trkpt lat="43.82001253295218" lon="12.460458619023647"><ele>438.0</ele><time>2026-05-01T14:00:04.868Z</time></trkpt><trkpt lat="43.82007206615533" lon="12.460596493945449"><ele>438.0</ele><time>2026-05-01T14:00:05.868Z</time></trkpt><trkpt lat="43.82012887138542" lon="12.460750283065803"><ele>438.0</ele><time>2026-05-01T14:00:06.868Z</time></trkpt><trkpt lat="43.820170841618996" lon="12.460900822707677"><ele>438.0</ele><time>2026-05-01T14:00:07.868Z</time></trkpt><trkpt lat="43.82019891614182" lon="12.461039950615639"><ele>435.5</ele><time>2026-05-01T14:00:08.868Z</time></trkpt><trkpt lat="43.8202315598429" lon="12.461145936879479"><ele>433.0</ele><time>2026-05-01T14:00:09.868Z</time></trkpt><trkpt lat="43.82026610663407" lon="12.461230777388367"><ele>430.5</ele><time>2026-05-01T14:00:10.868Z</time></trkpt><trkpt lat="43.820357233504" lon="12.461325943111486"><ele>428.0</ele><time>2026-05-01T14:00:12.868Z</time></trkpt><trkpt lat="43.820422390862184" lon="12.461347851278438"><ele>425.5</ele><time>2026-05-01T14:00:13.868Z</time></trkpt><trkpt lat="43.82049207260748" lon="12.46135533385796"><ele>423.0</ele><time>2026-05-01T14:00:14.868Z</time></trkpt><trkpt lat="43.8205604429252" lon="12.461355838001241"><ele>423.0</ele><time>2026-05-01T14:00:15.868Z</time></trkpt><trkpt lat="43.82063132099809" lon="12.461367153102964"><ele>423.0</ele><time>2026-05-01T14:00:16.867Z</time></trkpt><trkpt lat="43.820692779801966" lon="12.461403804424217"><ele>423.0</ele><time>2026-05-01T14:00:17.866Z</time></trkpt><trkpt lat="43.82073912350173" lon="12.461537546222395"><ele>423.0</ele><time>2026-05-01T14:00:19.867Z</time></trkpt><trkpt lat="43.82068346944319" lon="12.461671336269697"><ele>423.0</ele><time>2026-05-01T14:00:21.867Z</time></trkpt><trkpt lat="43.82058010608105" lon="12.46177313895282"><ele>423.0</ele><time>2026-05-01T14:00:23.866Z</time></trkpt><trkpt lat="43.82050334906547" lon="12.461823981337707"><ele>423.0</ele><time>2026-05-01T14:00:24.866Z</time></trkpt><trkpt lat="43.82042053294608" lon="12.46183632833433"><ele>423.0</ele><time>2026-05-01T14:00:25.867Z</time></trkpt><trkpt lat="43.82032622907979" lon="12.461836489909016"><ele>423.0</ele><time>2026-05-01T14:00:26.866Z</time></trkpt><trkpt lat="43.82021965445689" lon="12.461839553931199"><ele>423.0</ele><time>2026-05-01T14:00:27.866Z</time></trkpt><trkpt lat="43.82012213032853" lon="12.461835946074764"><ele>424.59999999999997</ele><time>2026-05-01T14:00:28.866Z</time></trkpt><trkpt lat="43.82001852966145" lon="12.461823514359057"><ele>426.2</ele><time>2026-05-01T14:00:29.866Z</time></trkpt><trkpt lat="43.819913979100605" lon="12.461804171107252"><ele>427.8</ele><time>2026-05-01T14:00:30.866Z</time></trkpt><trkpt lat="43.8198178376236" lon="12.461778621645488"><ele>429.4</ele><time>2026-05-01T14:00:31.866Z</time></trkpt><trkpt lat="43.81972999071821" lon="12.46175553258816"><ele>431.0</ele><time>2026-05-01T14:00:32.866Z</time></trkpt><trkpt lat="43.81965408703956" lon="12.461735351460327"><ele>430.99999999999994</ele><time>2026-05-01T14:00:33.866Z</time></trkpt><trkpt lat="43.819575360851125" lon="12.4617115409141"><ele>431.0</ele><time>2026-05-01T14:00:34.866Z</time></trkpt><trkpt lat="43.819490122711386" lon="12.461675869180333"><ele>431.0</ele><time>2026-05-01T14:00:35.866Z</time></trkpt><trkpt lat="43.819407359099" lon="12.461632020556413"><ele>431.0</ele><time>2026-05-01T14:00:36.866Z</time></trkpt><trkpt lat="43.81931903445531" lon="12.461589655285803"><ele>430.99999999999994</ele><time>2026-05-01T14:00:37.866Z</time></trkpt><trkpt lat="43.8192444634099" lon="12.46155541999937"><ele>431.0</ele><time>2026-05-01T14:00:38.866Z</time></trkpt><trkpt lat="43.819163556249904" lon="12.461543402305127"><ele>428.4</ele><time>2026-05-01T14:00:39.866Z</time></trkpt><trkpt lat="43.81905415985042" lon="12.461538398174415"><ele>425.8</ele><time>2026-05-01T14:00:40.866Z</time></trkpt><trkpt lat="43.81895121375731" lon="12.461606912379725"><ele>423.2</ele><time>2026-05-01T14:00:41.866Z</time></trkpt><trkpt lat="43.818850789319505" lon="12.461659780813816"><ele>420.59999999999997</ele><time>2026-05-01T14:00:42.866Z</time></trkpt><trkpt lat="43.8187671293814" lon="12.46172379724906"><ele>418.0</ele><time>2026-05-01T14:00:43.866Z</time></trkpt><trkpt lat="43.818693761928735" lon="12.461798534317065"><ele>418.00000000000006</ele><time>2026-05-01T14:00:44.866Z</time></trkpt><trkpt lat="43.81863181150631" lon="12.46187839044631"><ele>418.0</ele><time>2026-05-01T14:00:45.866Z</time></trkpt><trkpt lat="43.818567372337554" lon="12.461970119703308"><ele>418.0</ele><time>2026-05-01T14:00:46.866Z</time></trkpt><trkpt lat="43.81851046527021" lon="12.462061870025856"><ele>418.0</ele><time>2026-05-01T14:00:47.866Z</time></trkpt><trkpt lat="43.81845674488426" lon="12.462164787705529"><ele>418.00000000000006</ele><time>2026-05-01T14:00:48.866Z</time></trkpt><trkpt lat="43.81841032500494" lon="12.462276393552159"><ele>418.0</ele><time>2026-05-01T14:00:49.866Z</time></trkpt><trkpt lat="43.818350491716615" lon="12.46237619901081"><ele>415.83333333333337</ele><time>2026-05-01T14:00:50.866Z</time></trkpt><trkpt lat="43.81833827331094" lon="12.46248225902259"><ele>413.6666666666667</ele><time>2026-05-01T14:00:51.866Z</time></trkpt><trkpt lat="43.81831727241143" lon="12.46257137772818"><ele>411.5</ele><time>2026-05-01T14:00:52.866Z</time></trkpt><trkpt lat="43.81831725427936" lon="12.462747346458565"><ele>409.33333333333337</ele><time>2026-05-01T14:00:54.866Z</time></trkpt><trkpt lat="43.818332857273575" lon="12.462836878599546"><ele>407.1666666666667</ele><time>2026-05-01T14:00:55.866Z</time></trkpt><trkpt lat="43.81835707871957" lon="12.462935321433172"><ele>405.0</ele><time>2026-05-01T14:00:56.866Z</time></trkpt><trkpt lat="43.81838900342891" lon="12.463068138946388"><ele>404.8</ele><time>2026-05-01T14:00:57.866Z</time></trkpt><trkpt lat="43.81841665096733" lon="12.463217060680977"><ele>404.6</ele><time>2026-05-01T14:00:58.866Z</time></trkpt><trkpt lat="43.81845207140202" lon="12.463364209124041"><ele>404.4</ele><time>2026-05-01T14:00:59.866Z</time></trkpt><trkpt lat="43.81847962884431" lon="12.463515451825643"><ele>404.2</ele><time>2026-05-01T14:01:00.866Z</time></trkpt><trkpt lat="43.81850690816747" lon="12.463659855337083"><ele>404.0</ele><time>2026-05-01T14:01:01.866Z</time></trkpt><trkpt lat="43.818542064223294" lon="12.463793611110797"><ele>401.79999999999995</ele><time>2026-05-01T14:01:02.866Z</time></trkpt><trkpt lat="43.81856646194745" lon="12.463922717784097"><ele>399.59999999999997</ele><time>2026-05-01T14:01:03.865Z</time></trkpt><trkpt lat="43.818600644411994" lon="12.464045417876187"><ele>397.4</ele><time>2026-05-01T14:01:04.865Z</time></trkpt><trkpt lat="43.818631702909684" lon="12.464168932181469"><ele>395.2</ele><time>2026-05-01T14:01:05.865Z</time></trkpt><trkpt lat="43.818677848383324" lon="12.46428136797995"><ele>393.0</ele><time>2026-05-01T14:01:06.865Z</time></trkpt><trkpt lat="43.81874772893525" lon="12.4644074565971"><ele>393.0</ele><time>2026-05-01T14:01:07.865Z</time></trkpt><trkpt lat="43.81883154644594" lon="12.46454618654022"><ele>393.0</ele><time>2026-05-01T14:01:08.865Z</time></trkpt><trkpt lat="43.818906293899474" lon="12.464673095957442"><ele>393.0</ele><time>2026-05-01T14:01:09.865Z</time></trkpt><trkpt lat="43.818961660627984" lon="12.464796119297448"><ele>393.0</ele><time>2026-05-01T14:01:10.865Z</time></trkpt><trkpt lat="43.81900539479945" lon="12.464924167918898"><ele>392.75</ele><time>2026-05-01T14:01:11.865Z</time></trkpt><trkpt lat="43.81903868396043" lon="12.465063142235271"><ele>392.5</ele><time>2026-05-01T14:01:12.865Z</time></trkpt><trkpt lat="43.8190523088274" lon="12.465217139540433"><ele>392.25</ele><time>2026-05-01T14:01:13.865Z</time></trkpt><trkpt lat="43.81906045985807" lon="12.465390351328839"><ele>392.0</ele><time>2026-05-01T14:01:14.865Z</time></trkpt><trkpt lat="43.819062490494" lon="12.46554529887877"><ele>391.16666666666663</ele><time>2026-05-01T14:01:15.865Z</time></trkpt><trkpt lat="43.819069217075736" lon="12.465688229250748"><ele>390.3333333333333</ele><time>2026-05-01T14:01:16.865Z</time></trkpt><trkpt lat="43.819065490757424" lon="12.465787940700828"><ele>389.5</ele><time>2026-05-01T14:01:17.865Z</time></trkpt><trkpt lat="43.81901150763156" lon="12.465842148239707"><ele>388.66666666666663</ele><time>2026-05-01T14:01:18.865Z</time></trkpt><trkpt lat="43.818973639477754" lon="12.465917560908808"><ele>387.8333333333333</ele><time>2026-05-01T14:01:19.865Z</time></trkpt><trkpt lat="43.81893027890362" lon="12.466023956045888"><ele>387.0</ele><time>2026-05-01T14:01:20.865Z</time></trkpt><trkpt lat="43.81887926696095" lon="12.466187875236667"><ele>385.40000000000003</ele><time>2026-05-01T14:01:21.865Z</time></trkpt><trkpt lat="43.818850943421054" lon="12.46634555893552"><ele>383.8</ele><time>2026-05-01T14:01:22.865Z</time></trkpt><trkpt lat="43.81882437790275" lon="12.46651646192381"><ele>382.2</ele><time>2026-05-01T14:01:23.865Z</time></trkpt><trkpt lat="43.81881115114428" lon="12.46665521290707"><ele>380.6</ele><time>2026-05-01T14:01:24.865Z</time></trkpt><trkpt lat="43.818813509987436" lon="12.466789566017479"><ele>379.0</ele><time>2026-05-01T14:01:26.865Z</time></trkpt><trkpt lat="43.818916977825566" lon="12.466845356653348"><ele>379.0</ele><time>2026-05-01T14:01:29.865Z</time></trkpt><trkpt lat="43.81893668714835" lon="12.466755778640515"><ele>379.0</ele><time>2026-05-01T14:01:35.865Z</time></trkpt><trkpt lat="43.81895936448811" lon="12.466634539929226"><ele>379.0</ele><time>2026-05-01T14:01:37.865Z</time></trkpt><trkpt lat="43.81897176081119" lon="12.466547819436332"><ele>379.0</ele><time>2026-05-01T14:01:38.865Z</time></trkpt><trkpt lat="43.81898765903957" lon="12.466454029758754"><ele>379.0</ele><time>2026-05-01T14:01:39.865Z</time></trkpt><trkpt lat="43.81901200230145" lon="12.466361622050925"><ele>379.0</ele><time>2026-05-01T14:01:40.865Z</time></trkpt><trkpt lat="43.819091474985385" lon="12.466237051275577"><ele>380.3333333333333</ele><time>2026-05-01T14:01:42.865Z</time></trkpt><trkpt lat="43.81916858540151" lon="12.466170174606013"><ele>381.66666666666663</ele><time>2026-05-01T14:01:43.865Z</time></trkpt><trkpt lat="43.81922436818393" lon="12.466113258854215"><ele>383.0</ele><time>2026-05-01T14:01:44.865Z</time></trkpt><trkpt lat="43.81926655562445" lon="12.466039079321243"><ele>384.3333333333333</ele><time>2026-05-01T14:01:45.865Z</time></trkpt><trkpt lat="43.81931072793001" lon="12.465931816629924"><ele>385.6666666666667</ele><time>2026-05-01T14:01:46.865Z</time></trkpt><trkpt lat="43.819328381526255" lon="12.465825899355366"><ele>387.0</ele><time>2026-05-01T14:01:47.865Z</time></trkpt><trkpt lat="43.81935468071763" lon="12.465724827501688"><ele>384.0</ele><time>2026-05-01T14:01:48.865Z</time></trkpt><trkpt lat="43.81937955023391" lon="12.465620215531551"><ele>381.0</ele><time>2026-05-01T14:01:49.865Z</time></trkpt><trkpt lat="43.81940537563608" lon="12.465517579054453"><ele>378.0</ele><time>2026-05-01T14:01:50.865Z</time></trkpt><trkpt lat="43.8194231240334" lon="12.465418343028308"><ele>375.0</ele><time>2026-05-01T14:01:51.865Z</time></trkpt><trkpt lat="43.819443293243076" lon="12.465318979052753"><ele>372.0</ele><time>2026-05-01T14:01:52.865Z</time></trkpt><trkpt lat="43.81946811932619" lon="12.465228247146523"><ele>369.0</ele><time>2026-05-01T14:01:53.865Z</time></trkpt><trkpt lat="43.819491840153155" lon="12.465120847899149"><ele>369.0</ele><time>2026-05-01T14:01:54.865Z</time></trkpt><trkpt lat="43.819516701674765" lon="12.465016814213831"><ele>369.0</ele><time>2026-05-01T14:01:55.865Z</time></trkpt><trkpt lat="43.81953757210114" lon="12.464905094580692"><ele>369.0</ele><time>2026-05-01T14:01:56.865Z</time></trkpt><trkpt lat="43.81955556317935" lon="12.464799667364073"><ele>369.0</ele><time>2026-05-01T14:01:57.865Z</time></trkpt><trkpt lat="43.81957832824269" lon="12.464716379539594"><ele>369.0</ele><time>2026-05-01T14:01:58.865Z</time></trkpt><trkpt lat="43.819643616757475" lon="12.464594844488813"><ele>369.0</ele><time>2026-05-01T14:02:00.865Z</time></trkpt><trkpt lat="43.81976721686738" lon="12.464528530947032"><ele>369.7142857142857</ele><time>2026-05-01T14:02:02.865Z</time></trkpt><trkpt lat="43.81984535064838" lon="12.464520570351466"><ele>370.42857142857144</ele><time>2026-05-01T14:02:03.865Z</time></trkpt><trkpt lat="43.81992405378627" lon="12.464511398035723"><ele>371.1428571428571</ele><time>2026-05-01T14:02:04.865Z</time></trkpt><trkpt lat="43.81999231587793" lon="12.464484319506655"><ele>371.8571428571429</ele><time>2026-05-01T14:02:05.865Z</time></trkpt><trkpt lat="43.82005079587493" lon="12.464432527212747"><ele>372.5714285714286</ele><time>2026-05-01T14:02:06.865Z</time></trkpt><trkpt lat="43.82010395140136" lon="12.464365693494228"><ele>373.2857142857143</ele><time>2026-05-01T14:02:07.865Z</time></trkpt><trkpt lat="43.82016263493094" lon="12.464329325994832"><ele>374.0</ele><time>2026-05-01T14:02:08.865Z</time></trkpt><trkpt lat="43.820309071912874" lon="12.464307801332867"><ele>374.0</ele><time>2026-05-01T14:02:10.865Z</time></trkpt><trkpt lat="43.82041376789603" lon="12.464318002567245"><ele>374.0</ele><time>2026-05-01T14:02:11.865Z</time></trkpt><trkpt lat="43.820507369601536" lon="12.464318353731992"><ele>374.0</ele><time>2026-05-01T14:02:12.865Z</time></trkpt><trkpt lat="43.82058413769629" lon="12.464306900147484"><ele>374.0</ele><time>2026-05-01T14:02:13.865Z</time></trkpt><trkpt lat="43.820656990860186" lon="12.464308624942323"><ele>374.0</ele><time>2026-05-01T14:02:14.865Z</time></trkpt><trkpt lat="43.82072347178888" lon="12.46429544780614"><ele>374.0</ele><time>2026-05-01T14:02:15.865Z</time></trkpt><trkpt lat="43.82079857106104" lon="12.464308204794175"><ele>374.0</ele><time>2026-05-01T14:02:16.865Z</time></trkpt><trkpt lat="43.82087117730373" lon="12.464308439318724"><ele>374.0</ele><time>2026-05-01T14:02:17.865Z</time></trkpt><trkpt lat="43.82096422435311" lon="12.464268815967369"><ele>374.0</ele><time>2026-05-01T14:02:18.865Z</time></trkpt><trkpt lat="43.82103731549203" lon="12.464228834136277"><ele>374.0</ele><time>2026-05-01T14:02:19.865Z</time></trkpt><trkpt lat="43.82111001626718" lon="12.464191774861945"><ele>374.0</ele><time>2026-05-01T14:02:20.865Z</time></trkpt><trkpt lat="43.82119246436579" lon="12.464165162633174"><ele>374.0</ele><time>2026-05-01T14:02:21.865Z</time></trkpt><trkpt lat="43.82128748337152" lon="12.46412470225386"><ele>370.4</ele><time>2026-05-01T14:02:22.864Z</time></trkpt><trkpt lat="43.82138777985472" lon="12.464054504769548"><ele>366.79999999999995</ele><time>2026-05-01T14:02:23.864Z</time></trkpt><trkpt lat="43.821479767327524" lon="12.463980752757674"><ele>363.20000000000005</ele><time>2026-05-01T14:02:24.864Z</time></trkpt><trkpt lat="43.821567631171526" lon="12.463920091557549"><ele>359.6</ele><time>2026-05-01T14:02:25.864Z</time></trkpt><trkpt lat="43.82165381186374" lon="12.463871358160313"><ele>356.0</ele><time>2026-05-01T14:02:26.865Z</time></trkpt><trkpt lat="43.82173470092793" lon="12.463821317858866"><ele>357.5</ele><time>2026-05-01T14:02:27.865Z</time></trkpt><trkpt lat="43.821817557199594" lon="12.46377703574002"><ele>359.0</ele><time>2026-05-01T14:02:28.864Z</time></trkpt><trkpt lat="43.82189355851492" lon="12.463737176227507"><ele>360.5</ele><time>2026-05-01T14:02:29.864Z</time></trkpt><trkpt lat="43.821962377257684" lon="12.463694916231985"><ele>362.0</ele><time>2026-05-01T14:02:30.864Z</time></trkpt><trkpt lat="43.822027529707846" lon="12.463677497464833"><ele>363.5</ele><time>2026-05-01T14:02:31.864Z</time></trkpt><trkpt lat="43.82209268540815" lon="12.463679222277595"><ele>365.0</ele><time>2026-05-01T14:02:32.864Z</time></trkpt><trkpt lat="43.82218555475914" lon="12.463708292651514"><ele>365.0</ele><time>2026-05-01T14:02:33.864Z</time></trkpt><trkpt lat="43.822281810518255" lon="12.463762857314816"><ele>365.0</ele><time>2026-05-01T14:02:34.865Z</time></trkpt><trkpt lat="43.82237966690499" lon="12.463820474490266"><ele>365.0</ele><time>2026-05-01T14:02:35.864Z</time></trkpt><trkpt lat="43.82247685610396" lon="12.463888350006474"><ele>365.0</ele><time>2026-05-01T14:02:36.864Z</time></trkpt><trkpt lat="43.82256619780911" lon="12.463976505948096"><ele>365.0</ele><time>2026-05-01T14:02:37.864Z</time></trkpt><trkpt lat="43.8226523475149" lon="12.46403895299323"><ele>362.0</ele><time>2026-05-01T14:02:38.864Z</time></trkpt><trkpt lat="43.82273790427571" lon="12.464082622574296"><ele>359.0</ele><time>2026-05-01T14:02:39.864Z</time></trkpt><trkpt lat="43.822825144426" lon="12.464131296939229"><ele>356.0</ele><time>2026-05-01T14:02:40.864Z</time></trkpt><trkpt lat="43.82289878952653" lon="12.46419135328"><ele>353.0</ele><time>2026-05-01T14:02:41.864Z</time></trkpt><trkpt lat="43.822981394747984" lon="12.464243926137112"><ele>350.0</ele><time>2026-05-01T14:02:42.864Z</time></trkpt><trkpt lat="43.82305998768058" lon="12.464300305093433"><ele>350.0</ele><time>2026-05-01T14:02:43.864Z</time></trkpt><trkpt lat="43.823124485146465" lon="12.464367356137899"><ele>350.0</ele><time>2026-05-01T14:02:44.864Z</time></trkpt><trkpt lat="43.82318374454644" lon="12.464447349435284"><ele>350.0</ele><time>2026-05-01T14:02:45.864Z</time></trkpt><trkpt lat="43.82324247276021" lon="12.464523366284432"><ele>350.0</ele><time>2026-05-01T14:02:46.864Z</time></trkpt><trkpt lat="43.82329271416995" lon="12.464603545047282"><ele>350.0</ele><time>2026-05-01T14:02:47.864Z</time></trkpt><trkpt lat="43.82334491900637" lon="12.464681692581948"><ele>350.0</ele><time>2026-05-01T14:02:48.864Z</time></trkpt><trkpt lat="43.823410581945204" lon="12.46474429446179"><ele>347.42857142857144</ele><time>2026-05-01T14:02:49.864Z</time></trkpt><trkpt lat="43.823482004249655" lon="12.464770233477012"><ele>344.8571428571429</ele><time>2026-05-01T14:02:50.864Z</time></trkpt><trkpt lat="43.823559096130786" lon="12.464769195942266"><ele>342.2857142857143</ele><time>2026-05-01T14:02:51.864Z</time></trkpt><trkpt lat="43.82363172144995" lon="12.464749801763444"><ele>339.7142857142857</ele><time>2026-05-01T14:02:52.864Z</time></trkpt><trkpt lat="43.82369892393955" lon="12.464732994689772"><ele>337.14285714285717</ele><time>2026-05-01T14:02:53.864Z</time></trkpt><trkpt lat="43.82377047556543" lon="12.464722586523516"><ele>334.57142857142856</ele><time>2026-05-01T14:02:54.864Z</time></trkpt><trkpt lat="43.82383335539398" lon="12.46474087407262"><ele>332.0</ele><time>2026-05-01T14:02:55.864Z</time></trkpt><trkpt lat="43.82390748797766" lon="12.464740474189309"><ele>332.0</ele><time>2026-05-01T14:02:56.864Z</time></trkpt><trkpt lat="43.823992036008654" lon="12.464740882034725"><ele>332.0</ele><time>2026-05-01T14:02:57.864Z</time></trkpt><trkpt lat="43.824075695032015" lon="12.464745150215506"><ele>332.0</ele><time>2026-05-01T14:02:58.864Z</time></trkpt><trkpt lat="43.824154170328065" lon="12.464742447535524"><ele>332.0</ele><time>2026-05-01T14:02:59.864Z</time></trkpt><trkpt lat="43.824229183693674" lon="12.464739057703781"><ele>332.0</ele><time>2026-05-01T14:03:00.864Z</time></trkpt><trkpt lat="43.82432057543021" lon="12.464774265248677"><ele>332.0</ele><time>2026-05-01T14:03:01.864Z</time></trkpt><trkpt lat="43.82440759519026" lon="12.46482448682115"><ele>331.6</ele><time>2026-05-01T14:03:02.864Z</time></trkpt><trkpt lat="43.82449124805247" lon="12.464888704001618"><ele>331.20000000000005</ele><time>2026-05-01T14:03:03.864Z</time></trkpt><trkpt lat="43.824553074920374" lon="12.4649673424821"><ele>330.8</ele><time>2026-05-01T14:03:04.864Z</time></trkpt><trkpt lat="43.82460989411267" lon="12.465056019104818"><ele>330.4</ele><time>2026-05-01T14:03:05.864Z</time></trkpt><trkpt lat="43.82466074132955" lon="12.465171554873313"><ele>330.0</ele><time>2026-05-01T14:03:07.864Z</time></trkpt><trkpt lat="43.82460456788344" lon="12.465281354327587"><ele>330.0</ele><time>2026-05-01T14:03:09.864Z</time></trkpt><trkpt lat="43.82445511845269" lon="12.46525078757304"><ele>330.0</ele><time>2026-05-01T14:03:11.863Z</time></trkpt><trkpt lat="43.824371606644064" lon="12.465246631136157"><ele>330.0</ele><time>2026-05-01T14:03:12.863Z</time></trkpt><trkpt lat="43.824284538546166" lon="12.46524822925815"><ele>330.0</ele><time>2026-05-01T14:03:13.863Z</time></trkpt><trkpt lat="43.824198821594614" lon="12.465250079980033"><ele>330.0</ele><time>2026-05-01T14:03:14.863Z</time></trkpt><trkpt lat="43.82412033066106" lon="12.465278986594791"><ele>330.3333333333333</ele><time>2026-05-01T14:03:15.863Z</time></trkpt><trkpt lat="43.824047976089695" lon="12.465294589320381"><ele>330.6666666666667</ele><time>2026-05-01T14:03:16.863Z</time></trkpt><trkpt lat="43.82398111069297" lon="12.465310637136483"><ele>331.0</ele><time>2026-05-01T14:03:17.863Z</time></trkpt><trkpt lat="43.82389649047415" lon="12.465445999863771"><ele>331.33333333333337</ele><time>2026-05-01T14:03:19.863Z</time></trkpt><trkpt lat="43.82389857944843" lon="12.465547683884319"><ele>331.6666666666667</ele><time>2026-05-01T14:03:20.863Z</time></trkpt><trkpt lat="43.82395010315971" lon="12.465633000708397"><ele>332.0</ele><time>2026-05-01T14:03:21.863Z</time></trkpt><trkpt lat="43.82402767982283" lon="12.465666091357948"><ele>331.1666666666667</ele><time>2026-05-01T14:03:22.863Z</time></trkpt><trkpt lat="43.82409573414903" lon="12.465691693127356"><ele>330.33333333333337</ele><time>2026-05-01T14:03:23.863Z</time></trkpt><trkpt lat="43.82416955401382" lon="12.465714403772482"><ele>329.5</ele><time>2026-05-01T14:03:24.863Z</time></trkpt><trkpt lat="43.82424552878669" lon="12.465748514453855"><ele>328.6666666666667</ele><time>2026-05-01T14:03:25.863Z</time></trkpt><trkpt lat="43.82431154966639" lon="12.46582591684841"><ele>327.8333333333333</ele><time>2026-05-01T14:03:26.863Z</time></trkpt><trkpt lat="43.82434756485702" lon="12.465928571378294"><ele>327.0</ele><time>2026-05-01T14:03:27.863Z</time></trkpt><trkpt lat="43.82439502764693" lon="12.466030543964617"><ele>327.0</ele><time>2026-05-01T14:03:28.863Z</time></trkpt><trkpt lat="43.8244416980291" lon="12.466133085767556"><ele>327.0</ele><time>2026-05-01T14:03:29.863Z</time></trkpt><trkpt lat="43.82449293578649" lon="12.46623999840754"><ele>327.0</ele><time>2026-05-01T14:03:30.863Z</time></trkpt><trkpt lat="43.82455716996444" lon="12.466316379256646"><ele>327.0</ele><time>2026-05-01T14:03:31.863Z</time></trkpt><trkpt lat="43.82461254261683" lon="12.466405716405912"><ele>327.0</ele><time>2026-05-01T14:03:32.863Z</time></trkpt><trkpt lat="43.82466845324284" lon="12.466490048360695"><ele>327.0</ele><time>2026-05-01T14:03:33.863Z</time></trkpt><trkpt lat="43.824724926083555" lon="12.466565002173526"><ele>324.1666666666667</ele><time>2026-05-01T14:03:34.863Z</time></trkpt><trkpt lat="43.82478239967658" lon="12.466632723228503"><ele>321.3333333333333</ele><time>2026-05-01T14:03:35.863Z</time></trkpt><trkpt lat="43.824833961531965" lon="12.466702126734015"><ele>318.5</ele><time>2026-05-01T14:03:36.863Z</time></trkpt><trkpt lat="43.82489843741751" lon="12.466761733955085"><ele>315.66666666666663</ele><time>2026-05-01T14:03:37.863Z</time></trkpt><trkpt lat="43.82495427691969" lon="12.466838192764236"><ele>312.8333333333333</ele><time>2026-05-01T14:03:38.863Z</time></trkpt><trkpt lat="43.82501071087788" lon="12.466916714336435"><ele>310.0</ele><time>2026-05-01T14:03:39.863Z</time></trkpt><trkpt lat="43.825071835992716" lon="12.46698774180187"><ele>310.0</ele><time>2026-05-01T14:03:40.863Z</time></trkpt><trkpt lat="43.825129890303444" lon="12.467049447018267"><ele>310.0</ele><time>2026-05-01T14:03:41.863Z</time></trkpt><trkpt lat="43.825234262921654" lon="12.467111073648113"><ele>310.0</ele><time>2026-05-01T14:03:43.863Z</time></trkpt><trkpt lat="43.82533478273584" lon="12.467082181079306"><ele>310.0</ele><time>2026-05-01T14:03:45.863Z</time></trkpt><trkpt lat="43.82543632687129" lon="12.466995019786163"><ele>310.0</ele><time>2026-05-01T14:03:47.863Z</time></trkpt><trkpt lat="43.82550282981088" lon="12.466941988584175"><ele>309.0</ele><time>2026-05-01T14:03:48.863Z</time></trkpt><trkpt lat="43.825574247851904" lon="12.466907264501152"><ele>308.0</ele><time>2026-05-01T14:03:49.863Z</time></trkpt><trkpt lat="43.82564941523698" lon="12.466897789910611"><ele>307.0</ele><time>2026-05-01T14:03:50.863Z</time></trkpt><trkpt lat="43.82572666310409" lon="12.466890852877462"><ele>306.0</ele><time>2026-05-01T14:03:51.863Z</time></trkpt><trkpt lat="43.82580391338958" lon="12.466898077818202"><ele>305.0</ele><time>2026-05-01T14:03:52.863Z</time></trkpt><trkpt lat="43.82587236135137" lon="12.466908453247468"><ele>304.0</ele><time>2026-05-01T14:03:53.863Z</time></trkpt><trkpt lat="43.825968223668994" lon="12.466903263032975"><ele>299.59999999999997</ele><time>2026-05-01T14:03:55.863Z</time></trkpt><trkpt lat="43.82605719777592" lon="12.466849359610324"><ele>295.2</ele><time>2026-05-01T14:03:57.863Z</time></trkpt><trkpt lat="43.8261490606411" lon="12.466713533578185"><ele>290.79999999999995</ele><time>2026-05-01T14:03:59.863Z</time></trkpt><trkpt lat="43.82620050146365" lon="12.46662746899544"><ele>286.4</ele><time>2026-05-01T14:04:00.863Z</time></trkpt><trkpt lat="43.82625609495697" lon="12.466542182980808"><ele>282.0</ele><time>2026-05-01T14:04:01.863Z</time></trkpt><trkpt lat="43.82631462932257" lon="12.466466243969444"><ele>282.0</ele><time>2026-05-01T14:04:02.863Z</time></trkpt><trkpt lat="43.826370292691095" lon="12.466373483330866"><ele>282.0</ele><time>2026-05-01T14:04:03.863Z</time></trkpt><trkpt lat="43.82641609329775" lon="12.46627631988392"><ele>282.0</ele><time>2026-05-01T14:04:04.863Z</time></trkpt><trkpt lat="43.82647184259" lon="12.466192340267803"><ele>282.0</ele><time>2026-05-01T14:04:05.863Z</time></trkpt><trkpt lat="43.8265313111447" lon="12.466119464700933"><ele>282.0</ele><time>2026-05-01T14:04:06.863Z</time></trkpt><trkpt lat="43.82659983338942" lon="12.466059957478928"><ele>282.0</ele><time>2026-05-01T14:04:07.863Z</time></trkpt><trkpt lat="43.8266742292736" lon="12.466016051289472"><ele>280.5</ele><time>2026-05-01T14:04:08.863Z</time></trkpt><trkpt lat="43.82675361742234" lon="12.466001196648044"><ele>279.0</ele><time>2026-05-01T14:04:09.863Z</time></trkpt><trkpt lat="43.826835951335774" lon="12.466001793491156"><ele>277.5</ele><time>2026-05-01T14:04:10.863Z</time></trkpt><trkpt lat="43.82691595516441" lon="12.466026248403425"><ele>276.0</ele><time>2026-05-01T14:04:11.863Z</time></trkpt><trkpt lat="43.82698808193142" lon="12.466051683832404"><ele>274.5</ele><time>2026-05-01T14:04:12.863Z</time></trkpt><trkpt lat="43.827101865573205" lon="12.466095842677626"><ele>273.0</ele><time>2026-05-01T14:04:14.863Z</time></trkpt><trkpt lat="43.82716710722647" lon="12.466096706561816"><ele>273.0</ele><time>2026-05-01T14:04:15.863Z</time></trkpt><trkpt lat="43.82723544174432" lon="12.466050496540978"><ele>273.0</ele><time>2026-05-01T14:04:16.863Z</time></trkpt><trkpt lat="43.82728664874106" lon="12.465970115984433"><ele>273.0</ele><time>2026-05-01T14:04:17.863Z</time></trkpt><trkpt lat="43.82731290828567" lon="12.465856313830699"><ele>273.0</ele><time>2026-05-01T14:04:18.863Z</time></trkpt><trkpt lat="43.827342992759476" lon="12.46571685009661"><ele>273.0</ele><time>2026-05-01T14:04:19.863Z</time></trkpt><trkpt lat="43.82736447796249" lon="12.465568007641734"><ele>273.6</ele><time>2026-05-01T14:04:20.863Z</time></trkpt><trkpt lat="43.8273886555532" lon="12.46542845722846"><ele>274.20000000000005</ele><time>2026-05-01T14:04:21.863Z</time></trkpt><trkpt lat="43.82742160054674" lon="12.465302782133945"><ele>274.8</ele><time>2026-05-01T14:04:22.863Z</time></trkpt><trkpt lat="43.82745043559949" lon="12.465178061730962"><ele>275.40000000000003</ele><time>2026-05-01T14:04:23.863Z</time></trkpt><trkpt lat="43.8274897704224" lon="12.465068512901317"><ele>276.0</ele><time>2026-05-01T14:04:24.863Z</time></trkpt><trkpt lat="43.8275199607092" lon="12.464957672056109"><ele>276.0</ele><time>2026-05-01T14:04:25.863Z</time></trkpt><trkpt lat="43.82754504278896" lon="12.464873976587828"><ele>276.0</ele><time>2026-05-01T14:04:26.863Z</time></trkpt><trkpt lat="43.82761770125351" lon="12.464775637512428"><ele>276.0</ele><time>2026-05-01T14:04:28.862Z</time></trkpt><trkpt lat="43.82771718532547" lon="12.464849497469624"><ele>276.0</ele><time>2026-05-01T14:04:30.862Z</time></trkpt><trkpt lat="43.82774505839582" lon="12.4650242262119"><ele>276.0</ele><time>2026-05-01T14:04:32.862Z</time></trkpt><trkpt lat="43.827744461769036" lon="12.465144643734753"><ele>273.5</ele><time>2026-05-01T14:04:33.862Z</time></trkpt><trkpt lat="43.827740544214194" lon="12.465273069916297"><ele>271.0</ele><time>2026-05-01T14:04:34.862Z</time></trkpt><trkpt lat="43.82773961385756" lon="12.465393969670203"><ele>268.5</ele><time>2026-05-01T14:04:35.862Z</time></trkpt><trkpt lat="43.82774549537949" lon="12.465500150696311"><ele>266.0</ele><time>2026-05-01T14:04:36.862Z</time></trkpt><trkpt lat="43.82775559739964" lon="12.4656281256096"><ele>263.5</ele><time>2026-05-01T14:04:38.862Z</time></trkpt><trkpt lat="43.82783817049907" lon="12.465678286519589"><ele>261.0</ele><time>2026-05-01T14:04:41.862Z</time></trkpt><trkpt lat="43.82790764238783" lon="12.46557337687631"><ele>261.0</ele><time>2026-05-01T14:04:43.862Z</time></trkpt><trkpt lat="43.82794147780452" lon="12.465490446873176"><ele>261.0</ele><time>2026-05-01T14:04:44.862Z</time></trkpt><trkpt lat="43.82797035353839" lon="12.465380361802405"><ele>261.0</ele><time>2026-05-01T14:04:45.862Z</time></trkpt><trkpt lat="43.827993176899334" lon="12.46527415208258"><ele>261.0</ele><time>2026-05-01T14:04:46.862Z</time></trkpt><trkpt lat="43.82804086548354" lon="12.465179397044093"><ele>261.0</ele><time>2026-05-01T14:04:47.862Z</time></trkpt><trkpt lat="43.82808053739746" lon="12.465090493256794"><ele>261.0</ele><time>2026-05-01T14:04:48.862Z</time></trkpt><trkpt lat="43.82812376260527" lon="12.465007588040791"><ele>261.0</ele><time>2026-05-01T14:04:49.862Z</time></trkpt><trkpt lat="43.82816026477572" lon="12.464935157498823"><ele>261.0</ele><time>2026-05-01T14:04:50.862Z</time></trkpt><trkpt lat="43.828232293407886" lon="12.464884285971001"><ele>261.0</ele><time>2026-05-01T14:04:52.862Z</time></trkpt><trkpt lat="43.82832020377833" lon="12.464979141197158"><ele>261.0</ele><time>2026-05-01T14:04:54.862Z</time></trkpt><trkpt lat="43.82834319574661" lon="12.465070599350861"><ele>261.0</ele><time>2026-05-01T14:04:55.862Z</time></trkpt><trkpt lat="43.82833968887465" lon="12.46516974986066"><ele>261.0</ele><time>2026-05-01T14:04:56.862Z</time></trkpt><trkpt lat="43.82830585505225" lon="12.465283760662324"><ele>261.0</ele><time>2026-05-01T14:04:57.862Z</time></trkpt><trkpt lat="43.82826432223049" lon="12.465387467668505"><ele>261.0</ele><time>2026-05-01T14:04:58.862Z</time></trkpt><trkpt lat="43.82822722417276" lon="12.465491685708939"><ele>261.0</ele><time>2026-05-01T14:04:59.862Z</time></trkpt><trkpt lat="43.82820737172145" lon="12.46557483586079"><ele>261.0</ele><time>2026-05-01T14:05:00.862Z</time></trkpt><trkpt lat="43.828209801957065" lon="12.465704998088766"><ele>261.0</ele><time>2026-05-01T14:05:02.862Z</time></trkpt><trkpt lat="43.82829938970787" lon="12.46581567472543"><ele>261.0</ele><time>2026-05-01T14:05:04.862Z</time></trkpt><trkpt lat="43.82836405021507" lon="12.465867155378369"><ele>261.3333333333333</ele><time>2026-05-01T14:05:05.862Z</time></trkpt><trkpt lat="43.82842731910202" lon="12.465919932599014"><ele>261.6666666666667</ele><time>2026-05-01T14:05:06.862Z</time></trkpt><trkpt lat="43.828473510691346" lon="12.46598562749086"><ele>262.0</ele><time>2026-05-01T14:05:07.862Z</time></trkpt><trkpt lat="43.82852804041276" lon="12.466142237103252"><ele>262.33333333333337</ele><time>2026-05-01T14:05:09.862Z</time></trkpt><trkpt lat="43.828546674273746" lon="12.466239599041751"><ele>262.6666666666667</ele><time>2026-05-01T14:05:10.862Z</time></trkpt><trkpt lat="43.82857321030866" lon="12.466327268881274"><ele>263.0</ele><time>2026-05-01T14:05:11.862Z</time></trkpt><trkpt lat="43.82858101149982" lon="12.466470125480676"><ele>263.1666666666667</ele><time>2026-05-01T14:05:13.862Z</time></trkpt><trkpt lat="43.82854305102503" lon="12.466563971682804"><ele>263.33333333333337</ele><time>2026-05-01T14:05:15.862Z</time></trkpt><trkpt lat="43.82857395009118" lon="12.466659995617904"><ele>263.5</ele><time>2026-05-01T14:05:17.862Z</time></trkpt><trkpt lat="43.828680280048694" lon="12.466613029909285"><ele>263.6666666666667</ele><time>2026-05-01T14:05:19.861Z</time></trkpt><trkpt lat="43.828741145896565" lon="12.466539902491249"><ele>263.8333333333333</ele><time>2026-05-01T14:05:20.861Z</time></trkpt><trkpt lat="43.828806036029384" lon="12.466500388715087"><ele>264.0</ele><time>2026-05-01T14:05:21.861Z</time></trkpt><trkpt lat="43.82887254030293" lon="12.466510068178104"><ele>264.0</ele><time>2026-05-01T14:05:22.861Z</time></trkpt><trkpt lat="43.82895078667465" lon="12.466559890891956"><ele>264.0</ele><time>2026-05-01T14:05:23.861Z</time></trkpt><trkpt lat="43.82900357561558" lon="12.466608889435221"><ele>264.0</ele><time>2026-05-01T14:05:24.861Z</time></trkpt><trkpt lat="43.828992162109856" lon="12.466712565746384"><ele>264.0</ele><time>2026-05-01T14:05:26.861Z</time></trkpt><trkpt lat="43.82893445750113" lon="12.466795367790738"><ele>264.0</ele><time>2026-05-01T14:05:28.861Z</time></trkpt><trkpt lat="43.82885399702453" lon="12.466910221209927"><ele>264.0</ele><time>2026-05-01T14:05:30.861Z</time></trkpt><trkpt lat="43.82879515130123" lon="12.467041199817587"><ele>267.1666666666667</ele><time>2026-05-01T14:05:32.861Z</time></trkpt><trkpt lat="43.82875528115542" lon="12.467126828137266"><ele>270.3333333333333</ele><time>2026-05-01T14:05:33.861Z</time></trkpt><trkpt lat="43.828717192637555" lon="12.467219014083938"><ele>273.5</ele><time>2026-05-01T14:05:34.861Z</time></trkpt><trkpt lat="43.8286784347626" lon="12.467314753549006"><ele>276.66666666666663</ele><time>2026-05-01T14:05:35.861Z</time></trkpt><trkpt lat="43.82865563197331" lon="12.467421121681236"><ele>279.8333333333333</ele><time>2026-05-01T14:05:36.861Z</time></trkpt><trkpt lat="43.828635642064214" lon="12.467557518939511"><ele>283.0</ele><time>2026-05-01T14:05:37.861Z</time></trkpt><trkpt lat="43.828614386946875" lon="12.467685666913512"><ele>283.0</ele><time>2026-05-01T14:05:38.861Z</time></trkpt><trkpt lat="43.82858666529547" lon="12.467796165012512"><ele>283.0</ele><time>2026-05-01T14:05:39.861Z</time></trkpt><trkpt lat="43.82857500424214" lon="12.467893895529727"><ele>283.0</ele><time>2026-05-01T14:05:40.861Z</time></trkpt><trkpt lat="43.82856994589576" lon="12.467987873306821"><ele>283.0</ele><time>2026-05-01T14:05:41.861Z</time></trkpt><trkpt lat="43.82857350344126" lon="12.468082241623543"><ele>283.0</ele><time>2026-05-01T14:05:42.861Z</time></trkpt><trkpt lat="43.82859007159405" lon="12.46818446616291"><ele>283.0</ele><time>2026-05-01T14:05:43.861Z</time></trkpt><trkpt lat="43.82861562268735" lon="12.468270817211563"><ele>283.0</ele><time>2026-05-01T14:05:44.861Z</time></trkpt><trkpt lat="43.82865500963497" lon="12.46834012073952"><ele>283.0</ele><time>2026-05-01T14:05:45.861Z</time></trkpt><trkpt lat="43.82874310586607" lon="12.46837832316711"><ele>283.0</ele><time>2026-05-01T14:05:47.861Z</time></trkpt><trkpt lat="43.82881766510893" lon="12.468301071328712"><ele>283.0</ele><time>2026-05-01T14:05:49.861Z</time></trkpt><trkpt lat="43.82882748227897" lon="12.46820519946975"><ele>283.0</ele><time>2026-05-01T14:05:50.861Z</time></trkpt><trkpt lat="43.82882074436435" lon="12.468079440592858"><ele>283.0</ele><time>2026-05-01T14:05:51.861Z</time></trkpt><trkpt lat="43.82881908650622" lon="12.467943407651378"><ele>283.0</ele><time>2026-05-01T14:05:52.861Z</time></trkpt><trkpt lat="43.82883710433544" lon="12.467830162751751"><ele>283.0</ele><time>2026-05-01T14:05:53.861Z</time></trkpt><trkpt lat="43.82888916786328" lon="12.467717691351815"><ele>283.0</ele><time>2026-05-01T14:05:54.861Z</time></trkpt><trkpt lat="43.82895192906621" lon="12.46761243185155"><ele>283.0</ele><time>2026-05-01T14:05:55.861Z</time></trkpt><trkpt lat="43.82901283712013" lon="12.467551914745085"><ele>283.0</ele><time>2026-05-01T14:05:56.861Z</time></trkpt><trkpt lat="43.829080996809495" lon="12.467560331373042"><ele>283.0</ele><time>2026-05-01T14:05:58.861Z</time></trkpt><trkpt lat="43.82914254394855" lon="12.467721555574721"><ele>283.0</ele><time>2026-05-01T14:06:00.861Z</time></trkpt><trkpt lat="43.82910704543269" lon="12.46789038812738"><ele>283.0</ele><time>2026-05-01T14:06:02.861Z</time></trkpt><trkpt lat="43.829069850652964" lon="12.467998651718444"><ele>283.0</ele><time>2026-05-01T14:06:03.861Z</time></trkpt><trkpt lat="43.82905313340153" lon="12.468090967266265"><ele>283.0</ele><time>2026-05-01T14:06:04.861Z</time></trkpt><trkpt lat="43.829069398015704" lon="12.46818255136671"><ele>283.0</ele><time>2026-05-01T14:06:05.861Z</time></trkpt><trkpt lat="43.82912289612136" lon="12.46827004917221"><ele>283.0</ele><time>2026-05-01T14:06:06.861Z</time></trkpt><trkpt lat="43.82919009522064" lon="12.468354593283719"><ele>285.75</ele><time>2026-05-01T14:06:07.861Z</time></trkpt><trkpt lat="43.82926857962521" lon="12.468449864674346"><ele>288.5</ele><time>2026-05-01T14:06:08.861Z</time></trkpt><trkpt lat="43.829358659687706" lon="12.468542778362476"><ele>291.25</ele><time>2026-05-01T14:06:09.861Z</time></trkpt><trkpt lat="43.82946145967569" lon="12.468642935192662"><ele>294.0</ele><time>2026-05-01T14:06:10.861Z</time></trkpt><trkpt lat="43.82958138476277" lon="12.46873954551811"><ele>295.75</ele><time>2026-05-01T14:06:11.861Z</time></trkpt><trkpt lat="43.82969670171326" lon="12.46884936182766"><ele>297.5</ele><time>2026-05-01T14:06:12.861Z</time></trkpt><trkpt lat="43.829794022301606" lon="12.468974103918857"><ele>299.25</ele><time>2026-05-01T14:06:13.861Z</time></trkpt><trkpt lat="43.829886499170826" lon="12.469120788443954"><ele>301.0</ele><time>2026-05-01T14:06:14.861Z</time></trkpt><trkpt lat="43.82994227420584" lon="12.469281262237473"><ele>301.0</ele><time>2026-05-01T14:06:15.861Z</time></trkpt><trkpt lat="43.82997926751876" lon="12.469415894064433"><ele>301.0</ele><time>2026-05-01T14:06:16.861Z</time></trkpt><trkpt lat="43.830022480527546" lon="12.469523828329818"><ele>301.0</ele><time>2026-05-01T14:06:17.861Z</time></trkpt><trkpt lat="43.830071699825" lon="12.469599564936559"><ele>301.0</ele><time>2026-05-01T14:06:18.861Z</time></trkpt><trkpt lat="43.8301997075757" lon="12.469623271000456"><ele>301.0</ele><time>2026-05-01T14:06:20.861Z</time></trkpt><trkpt lat="43.83030566493891" lon="12.469634577411945"><ele>300.75</ele><time>2026-05-01T14:06:21.861Z</time></trkpt><trkpt lat="43.83042322644629" lon="12.4696483563389"><ele>300.5</ele><time>2026-05-01T14:06:22.861Z</time></trkpt><trkpt lat="43.83054672439658" lon="12.469679277913018"><ele>300.25</ele><time>2026-05-01T14:06:23.861Z</time></trkpt><trkpt lat="43.830679030671504" lon="12.469714934363278"><ele>300.0</ele><time>2026-05-01T14:06:24.861Z</time></trkpt><trkpt lat="43.83082972041506" lon="12.46975392133134"><ele>302.25</ele><time>2026-05-01T14:06:25.861Z</time></trkpt><trkpt lat="43.83098045050546" lon="12.469800161006061"><ele>304.5</ele><time>2026-05-01T14:06:26.861Z</time></trkpt><trkpt lat="43.83110562356454" lon="12.469821486909458"><ele>306.75</ele><time>2026-05-01T14:06:27.861Z</time></trkpt><trkpt lat="43.83123641403487" lon="12.469854902848299"><ele>309.0</ele><time>2026-05-01T14:06:28.861Z</time></trkpt><trkpt lat="43.83136517666226" lon="12.469909350249864"><ele>309.0</ele><time>2026-05-01T14:06:29.861Z</time></trkpt><trkpt lat="43.83149973048071" lon="12.469981350880069"><ele>309.0</ele><time>2026-05-01T14:06:30.861Z</time></trkpt><trkpt lat="43.831634608368994" lon="12.470052550973985"><ele>309.0</ele><time>2026-05-01T14:06:31.861Z</time></trkpt><trkpt lat="43.83177067827673" lon="12.470146761394345"><ele>309.0</ele><time>2026-05-01T14:06:32.861Z</time></trkpt><trkpt lat="43.83191263737639" lon="12.470259569062137"><ele>310.0</ele><time>2026-05-01T14:06:33.861Z</time></trkpt><trkpt lat="43.832057403775885" lon="12.47039859606111"><ele>311.0</ele><time>2026-05-01T14:06:34.86Z</time></trkpt><trkpt lat="43.83219040388975" lon="12.470535463517214"><ele>312.0</ele><time>2026-05-01T14:06:35.86Z</time></trkpt><trkpt lat="43.83230809840984" lon="12.470673597795889"><ele>314.5</ele><time>2026-05-01T14:06:36.86Z</time></trkpt><trkpt lat="43.83243125993756" lon="12.470825539915838"><ele>317.0</ele><time>2026-05-01T14:06:37.86Z</time></trkpt><trkpt lat="43.83254660801876" lon="12.470968090330247"><ele>319.5</ele><time>2026-05-01T14:06:38.86Z</time></trkpt><trkpt lat="43.83264013388002" lon="12.471092879028905"><ele>322.0</ele><time>2026-05-01T14:06:39.86Z</time></trkpt><trkpt lat="43.83272583844364" lon="12.471200816966046"><ele>325.5</ele><time>2026-05-01T14:06:40.86Z</time></trkpt><trkpt lat="43.83281518092569" lon="12.47130751422528"><ele>329.0</ele><time>2026-05-01T14:06:41.86Z</time></trkpt><trkpt lat="43.83291459138423" lon="12.471397922916294"><ele>332.5</ele><time>2026-05-01T14:06:42.86Z</time></trkpt><trkpt lat="43.833022387100016" lon="12.471493606948219"><ele>336.0</ele><time>2026-05-01T14:06:43.86Z</time></trkpt><trkpt lat="43.8331291272847" lon="12.471595642235316"><ele>336.0</ele><time>2026-05-01T14:06:44.86Z</time></trkpt><trkpt lat="43.83322869054452" lon="12.471683515411225"><ele>336.0</ele><time>2026-05-01T14:06:45.86Z</time></trkpt><trkpt lat="43.83332588828825" lon="12.471764846218225"><ele>336.0</ele><time>2026-05-01T14:06:46.86Z</time></trkpt><trkpt lat="43.833421707006025" lon="12.471859685304965"><ele>336.0</ele><time>2026-05-01T14:06:47.859Z</time></trkpt><trkpt lat="43.83351116344041" lon="12.471980789100876"><ele>335.8</ele><time>2026-05-01T14:06:48.859Z</time></trkpt><trkpt lat="43.83360976481911" lon="12.472099038336781"><ele>335.6</ele><time>2026-05-01T14:06:49.859Z</time></trkpt><trkpt lat="43.83369690108039" lon="12.472192825591543"><ele>335.4</ele><time>2026-05-01T14:06:50.859Z</time></trkpt><trkpt lat="43.83374912942872" lon="12.472305219010762"><ele>335.2</ele><time>2026-05-01T14:06:51.859Z</time></trkpt><trkpt lat="43.8337844168748" lon="12.472420456440888"><ele>335.0</ele><time>2026-05-01T14:06:52.859Z</time></trkpt><trkpt lat="43.833828623293" lon="12.472553769050354"><ele>337.6</ele><time>2026-05-01T14:06:53.859Z</time></trkpt><trkpt lat="43.83388597073551" lon="12.472673258132295"><ele>340.2</ele><time>2026-05-01T14:06:54.859Z</time></trkpt><trkpt lat="43.833973265486236" lon="12.472766769392994"><ele>342.79999999999995</ele><time>2026-05-01T14:06:55.859Z</time></trkpt><trkpt lat="43.83405524339832" lon="12.472882078393141"><ele>345.4</ele><time>2026-05-01T14:06:56.859Z</time></trkpt><trkpt lat="43.83415122482013" lon="12.472949211856452"><ele>348.0</ele><time>2026-05-01T14:06:57.859Z</time></trkpt><trkpt lat="43.834218967672825" lon="12.473019998180426"><ele>348.59999999999997</ele><time>2026-05-01T14:06:58.859Z</time></trkpt><trkpt lat="43.83429460443039" lon="12.47309490190293"><ele>349.2</ele><time>2026-05-01T14:07:00.859Z</time></trkpt><trkpt lat="43.83435782133446" lon="12.473151378385873"><ele>349.8</ele><time>2026-05-01T14:07:02.859Z</time></trkpt><trkpt lat="43.83446874803724" lon="12.473054749732936"><ele>350.4</ele><time>2026-05-01T14:07:03.859Z</time></trkpt><trkpt lat="43.83455766101851" lon="12.47295157668835"><ele>351.0</ele><time>2026-05-01T14:07:04.859Z</time></trkpt><trkpt lat="43.8346355042988" lon="12.472898983310415"><ele>351.0</ele><time>2026-05-01T14:07:05.859Z</time></trkpt><trkpt lat="43.83471032767416" lon="12.472900972138868"><ele>351.0</ele><time>2026-05-01T14:07:06.859Z</time></trkpt><trkpt lat="43.834791862319456" lon="12.472953080811333"><ele>351.0</ele><time>2026-05-01T14:07:07.859Z</time></trkpt><trkpt lat="43.83486697121067" lon="12.473026757054457"><ele>351.0</ele><time>2026-05-01T14:07:08.859Z</time></trkpt><trkpt lat="43.834940360665726" lon="12.473106772607277"><ele>351.0</ele><time>2026-05-01T14:07:09.859Z</time></trkpt><trkpt lat="43.83498407269455" lon="12.47320063905884"><ele>351.0</ele><time>2026-05-01T14:07:10.859Z</time></trkpt><trkpt lat="43.83499781062522" lon="12.473304043190543"><ele>354.6</ele><time>2026-05-01T14:07:11.859Z</time></trkpt><trkpt lat="43.8349866782554" lon="12.473415830019775"><ele>358.20000000000005</ele><time>2026-05-01T14:07:12.859Z</time></trkpt><trkpt lat="43.834968969013666" lon="12.473541133183579"><ele>361.79999999999995</ele><time>2026-05-01T14:07:13.859Z</time></trkpt><trkpt lat="43.83497268848775" lon="12.473674862854047"><ele>365.4</ele><time>2026-05-01T14:07:14.859Z</time></trkpt><trkpt lat="43.835009333511756" lon="12.47381183644238"><ele>369.0</ele><time>2026-05-01T14:07:15.859Z</time></trkpt><trkpt lat="43.83505878492635" lon="12.473936059927109"><ele>369.5</ele><time>2026-05-01T14:07:16.859Z</time></trkpt><trkpt lat="43.835101706582506" lon="12.474025048579117"><ele>370.0</ele><time>2026-05-01T14:07:17.859Z</time></trkpt><trkpt lat="43.83517044402936" lon="12.47412227442892"><ele>370.5</ele><time>2026-05-01T14:07:19.859Z</time></trkpt><trkpt lat="43.8352249477195" lon="12.474169212433601"><ele>371.0</ele><time>2026-05-01T14:07:20.859Z</time></trkpt><trkpt lat="43.83529260038726" lon="12.474195227341344"><ele>371.5</ele><time>2026-05-01T14:07:21.859Z</time></trkpt><trkpt lat="43.835399037746704" lon="12.47415085811331"><ele>372.0</ele><time>2026-05-01T14:07:23.859Z</time></trkpt><trkpt lat="43.83546726667786" lon="12.474025896216455"><ele>373.3333333333333</ele><time>2026-05-01T14:07:24.859Z</time></trkpt><trkpt lat="43.83550031855266" lon="12.473904291106715"><ele>374.6666666666667</ele><time>2026-05-01T14:07:25.859Z</time></trkpt><trkpt lat="43.83553629018491" lon="12.473788503497943"><ele>376.0</ele><time>2026-05-01T14:07:26.859Z</time></trkpt><trkpt lat="43.83559450993319" lon="12.473702655726246"><ele>377.33333333333337</ele><time>2026-05-01T14:07:27.859Z</time></trkpt><trkpt lat="43.835663370681196" lon="12.47366370243016"><ele>378.6666666666667</ele><time>2026-05-01T14:07:28.859Z</time></trkpt><trkpt lat="43.835736430765806" lon="12.473668367364024"><ele>380.0</ele><time>2026-05-01T14:07:29.859Z</time></trkpt><trkpt lat="43.835811862323766" lon="12.473698552211761"><ele>380.0</ele><time>2026-05-01T14:07:30.859Z</time></trkpt><trkpt lat="43.83589199163955" lon="12.47374501458134"><ele>380.0</ele><time>2026-05-01T14:07:31.859Z</time></trkpt><trkpt lat="43.83596199146896" lon="12.47381361102387"><ele>380.0</ele><time>2026-05-01T14:07:32.859Z</time></trkpt><trkpt lat="43.83601756747137" lon="12.473895282842768"><ele>380.0</ele><time>2026-05-01T14:07:33.859Z</time></trkpt><trkpt lat="43.83604218418845" lon="12.47398961216939"><ele>380.0</ele><time>2026-05-01T14:07:34.859Z</time></trkpt><trkpt lat="43.83604133176589" lon="12.474085524150672"><ele>380.0</ele><time>2026-05-01T14:07:35.859Z</time></trkpt><trkpt lat="43.836027022412885" lon="12.474204808950056"><ele>380.0</ele><time>2026-05-01T14:07:36.859Z</time></trkpt><trkpt lat="43.83600880333407" lon="12.474339467448843"><ele>380.0</ele><time>2026-05-01T14:07:37.859Z</time></trkpt><trkpt lat="43.8360135759666" lon="12.47446232678239"><ele>380.0</ele><time>2026-05-01T14:07:38.859Z</time></trkpt><trkpt lat="43.83604760758327" lon="12.474575963416944"><ele>380.0</ele><time>2026-05-01T14:07:39.859Z</time></trkpt><trkpt lat="43.836101806340636" lon="12.47469043340386"><ele>380.0</ele><time>2026-05-01T14:07:40.859Z</time></trkpt><trkpt lat="43.83617200094236" lon="12.47479276993201"><ele>384.5</ele><time>2026-05-01T14:07:41.859Z</time></trkpt><trkpt lat="43.83625810008199" lon="12.474895881956618"><ele>389.0</ele><time>2026-05-01T14:07:42.859Z</time></trkpt><trkpt lat="43.8363466472299" lon="12.47499463072866"><ele>393.5</ele><time>2026-05-01T14:07:43.859Z</time></trkpt><trkpt lat="43.83643649134611" lon="12.47508838280517"><ele>398.0</ele><time>2026-05-01T14:07:44.859Z</time></trkpt><trkpt lat="43.83653595680854" lon="12.475160984196698"><ele>398.0</ele><time>2026-05-01T14:07:45.859Z</time></trkpt><trkpt lat="43.83665446357036" lon="12.475214382799447"><ele>398.0</ele><time>2026-05-01T14:07:46.859Z</time></trkpt><trkpt lat="43.836780907277266" lon="12.47526538102331"><ele>398.0</ele><time>2026-05-01T14:07:47.859Z</time></trkpt><trkpt lat="43.83690900036791" lon="12.475312926138423"><ele>398.0</ele><time>2026-05-01T14:07:48.859Z</time></trkpt><trkpt lat="43.83701422547555" lon="12.47535178427963"><ele>398.2</ele><time>2026-05-01T14:07:49.859Z</time></trkpt><trkpt lat="43.83709443193568" lon="12.47541876356176"><ele>398.4</ele><time>2026-05-01T14:07:50.859Z</time></trkpt><trkpt lat="43.83715823011387" lon="12.475519188025569"><ele>398.59999999999997</ele><time>2026-05-01T14:07:51.859Z</time></trkpt><trkpt lat="43.83720132423705" lon="12.475654144062146"><ele>398.79999999999995</ele><time>2026-05-01T14:07:52.859Z</time></trkpt><trkpt lat="43.83723975480351" lon="12.475800340741431"><ele>399.0</ele><time>2026-05-01T14:07:53.859Z</time></trkpt><trkpt lat="43.83728450997269" lon="12.475954657240267"><ele>402.0</ele><time>2026-05-01T14:07:54.859Z</time></trkpt><trkpt lat="43.83733323680958" lon="12.47610119824169"><ele>405.0</ele><time>2026-05-01T14:07:55.859Z</time></trkpt><trkpt lat="43.83738877850933" lon="12.476248737971837"><ele>408.0</ele><time>2026-05-01T14:07:56.859Z</time></trkpt><trkpt lat="43.837443979730566" lon="12.476399476512087"><ele>411.0</ele><time>2026-05-01T14:07:57.859Z</time></trkpt><trkpt lat="43.83749947938235" lon="12.476542190332578"><ele>411.0</ele><time>2026-05-01T14:07:58.859Z</time></trkpt><trkpt lat="43.8375579954575" lon="12.476672692408293"><ele>411.0</ele><time>2026-05-01T14:07:59.859Z</time></trkpt><trkpt lat="43.837619042316035" lon="12.476795977395929"><ele>411.0</ele><time>2026-05-01T14:08:00.859Z</time></trkpt><trkpt lat="43.83767985935734" lon="12.476929025547465"><ele>411.0</ele><time>2026-05-01T14:08:01.859Z</time></trkpt><trkpt lat="43.83773792414999" lon="12.477065095063645"><ele>411.0</ele><time>2026-05-01T14:08:02.859Z</time></trkpt><trkpt lat="43.837782425169586" lon="12.477207987847674"><ele>416.75</ele><time>2026-05-01T14:08:03.859Z</time></trkpt><trkpt lat="43.83780473774053" lon="12.477370332520431"><ele>422.5</ele><time>2026-05-01T14:08:04.859Z</time></trkpt><trkpt lat="43.83779612707143" lon="12.47754216379346"><ele>428.25</ele><time>2026-05-01T14:08:05.859Z</time></trkpt><trkpt lat="43.8377930998381" lon="12.47771355344418"><ele>434.0</ele><time>2026-05-01T14:08:06.859Z</time></trkpt><trkpt lat="43.83777392141011" lon="12.47789104315652"><ele>433.75</ele><time>2026-05-01T14:08:07.859Z</time></trkpt><trkpt lat="43.83777352484648" lon="12.478074296224005"><ele>433.5</ele><time>2026-05-01T14:08:08.859Z</time></trkpt><trkpt lat="43.837765976094914" lon="12.478246793229184"><ele>433.25</ele><time>2026-05-01T14:08:09.859Z</time></trkpt><trkpt lat="43.837768035349136" lon="12.478410384556705"><ele>433.0</ele><time>2026-05-01T14:08:10.859Z</time></trkpt><trkpt lat="43.837771051107566" lon="12.478576427083633"><ele>433.0</ele><time>2026-05-01T14:08:11.859Z</time></trkpt><trkpt lat="43.83775385068646" lon="12.478741170032901"><ele>432.99999999999994</ele><time>2026-05-01T14:08:12.859Z</time></trkpt><trkpt lat="43.837752359340584" lon="12.478893280593033"><ele>432.99999999999994</ele><time>2026-05-01T14:08:13.859Z</time></trkpt><trkpt lat="43.83775447361112" lon="12.479023515479112"><ele>433.0</ele><time>2026-05-01T14:08:14.859Z</time></trkpt><trkpt lat="43.8377786719252" lon="12.479133420603398"><ele>433.0</ele><time>2026-05-01T14:08:15.859Z</time></trkpt><trkpt lat="43.8377802786861" lon="12.479224004535334"><ele>432.6666666666667</ele><time>2026-05-01T14:08:16.859Z</time></trkpt><trkpt lat="43.83782853042705" lon="12.479328231905434"><ele>432.33333333333337</ele><time>2026-05-01T14:08:18.859Z</time></trkpt><trkpt lat="43.83792564290223" lon="12.479393054622104"><ele>432.0</ele><time>2026-05-01T14:08:20.859Z</time></trkpt><trkpt lat="43.8379895534189" lon="12.479388819578904"><ele>431.66666666666663</ele><time>2026-05-01T14:08:21.858Z</time></trkpt><trkpt lat="43.83806118569037" lon="12.479360177589719"><ele>431.3333333333333</ele><time>2026-05-01T14:08:22.858Z</time></trkpt><trkpt lat="43.83813698595413" lon="12.47935026201342"><ele>431.0</ele><time>2026-05-01T14:08:23.858Z</time></trkpt><trkpt lat="43.83822426901411" lon="12.479357293894275"><ele>431.0</ele><time>2026-05-01T14:08:24.858Z</time></trkpt><trkpt lat="43.8383113002532" lon="12.47934200564538"><ele>431.0</ele><time>2026-05-01T14:08:25.858Z</time></trkpt><trkpt lat="43.838397318227116" lon="12.479310598686755"><ele>431.0</ele><time>2026-05-01T14:08:26.858Z</time></trkpt><trkpt lat="43.83848123063507" lon="12.479257649878116"><ele>431.0</ele><time>2026-05-01T14:08:27.858Z</time></trkpt><trkpt lat="43.83855292689624" lon="12.479173087617053"><ele>431.0</ele><time>2026-05-01T14:08:28.858Z</time></trkpt><trkpt lat="43.838610641208454" lon="12.479055368675782"><ele>432.3333333333333</ele><time>2026-05-01T14:08:29.858Z</time></trkpt><trkpt lat="43.83866905420502" lon="12.47888326889902"><ele>433.66666666666663</ele><time>2026-05-01T14:08:30.858Z</time></trkpt><trkpt lat="43.83872343069739" lon="12.478671324536705"><ele>435.0</ele><time>2026-05-01T14:08:31.858Z</time></trkpt><trkpt lat="43.83878411436583" lon="12.478452109801541"><ele>439.0</ele><time>2026-05-01T14:08:32.858Z</time></trkpt><trkpt lat="43.83883192764823" lon="12.478216269784149"><ele>443.0</ele><time>2026-05-01T14:08:33.858Z</time></trkpt><trkpt lat="43.83887720884623" lon="12.47795648431704"><ele>447.0</ele><time>2026-05-01T14:08:34.858Z</time></trkpt><trkpt lat="43.83891691969485" lon="12.477724174415822"><ele>448.20000000000005</ele><time>2026-05-01T14:08:35.858Z</time></trkpt><trkpt lat="43.83895452767325" lon="12.477519420202816"><ele>449.40000000000003</ele><time>2026-05-01T14:08:36.858Z</time></trkpt><trkpt lat="43.838984277941385" lon="12.477357333757324"><ele>450.59999999999997</ele><time>2026-05-01T14:08:37.858Z</time></trkpt><trkpt lat="43.839021936683736" lon="12.477243559850702"><ele>451.79999999999995</ele><time>2026-05-01T14:08:38.858Z</time></trkpt><trkpt lat="43.839084431338826" lon="12.477164945976321"><ele>453.0</ele><time>2026-05-01T14:08:39.858Z</time></trkpt><trkpt lat="43.83916625645467" lon="12.477125452179646"><ele>453.0</ele><time>2026-05-01T14:08:40.858Z</time></trkpt><trkpt lat="43.83926496116598" lon="12.477105473488054"><ele>452.99999999999994</ele><time>2026-05-01T14:08:41.858Z</time></trkpt><trkpt lat="43.839361758685605" lon="12.477123781726137"><ele>452.99999999999994</ele><time>2026-05-01T14:08:42.858Z</time></trkpt><trkpt lat="43.8394335617994" lon="12.47720023349975"><ele>453.0</ele><time>2026-05-01T14:08:43.858Z</time></trkpt><trkpt lat="43.839461189624664" lon="12.477305329505414"><ele>453.0</ele><time>2026-05-01T14:08:44.858Z</time></trkpt><trkpt lat="43.83946535101789" lon="12.47742475769688"><ele>453.5</ele><time>2026-05-01T14:08:45.858Z</time></trkpt><trkpt lat="43.839441506311275" lon="12.47754954050877"><ele>454.0</ele><time>2026-05-01T14:08:46.858Z</time></trkpt><trkpt lat="43.83941838080771" lon="12.477680713844846"><ele>454.5</ele><time>2026-05-01T14:08:47.858Z</time></trkpt><trkpt lat="43.83941971905166" lon="12.477791815869171"><ele>455.0</ele><time>2026-05-01T14:08:48.858Z</time></trkpt><trkpt lat="43.8394573758593" lon="12.477880530226425"><ele>455.5</ele><time>2026-05-01T14:08:49.858Z</time></trkpt><trkpt lat="43.83951651786136" lon="12.47795155317643"><ele>456.0</ele><time>2026-05-01T14:08:50.858Z</time></trkpt><trkpt lat="43.83959417604304" lon="12.478020570092411"><ele>456.0</ele><time>2026-05-01T14:08:51.858Z</time></trkpt><trkpt lat="43.83967740381742" lon="12.478067585994065"><ele>456.0</ele><time>2026-05-01T14:08:52.857Z</time></trkpt><trkpt lat="43.83978537304826" lon="12.478083053686355"><ele>456.0</ele><time>2026-05-01T14:08:53.858Z</time></trkpt><trkpt lat="43.83990208486096" lon="12.47805941461254"><ele>456.0</ele><time>2026-05-01T14:08:54.857Z</time></trkpt><trkpt lat="43.840035544677185" lon="12.478005315299308"><ele>457.25</ele><time>2026-05-01T14:08:55.857Z</time></trkpt><trkpt lat="43.84017453841945" lon="12.477946208702758"><ele>458.5</ele><time>2026-05-01T14:08:56.857Z</time></trkpt><trkpt lat="43.84028946063606" lon="12.4778865268488"><ele>459.75</ele><time>2026-05-01T14:08:57.857Z</time></trkpt><trkpt lat="43.8404187268658" lon="12.477860882113655"><ele>461.0</ele><time>2026-05-01T14:08:58.857Z</time></trkpt><trkpt lat="43.84056629851583" lon="12.477879733909132"><ele>461.0</ele><time>2026-05-01T14:08:59.857Z</time></trkpt><trkpt lat="43.84074507328629" lon="12.47791582101706"><ele>461.0</ele><time>2026-05-01T14:09:00.857Z</time></trkpt><trkpt lat="43.84092346090372" lon="12.477940352611567"><ele>461.0</ele><time>2026-05-01T14:09:01.857Z</time></trkpt><trkpt lat="43.84107794366487" lon="12.477959849161861"><ele>461.75</ele><time>2026-05-01T14:09:02.857Z</time></trkpt><trkpt lat="43.84121033857575" lon="12.477975481164162"><ele>462.5</ele><time>2026-05-01T14:09:03.857Z</time></trkpt><trkpt lat="43.8413298305221" lon="12.477974035511108"><ele>463.25</ele><time>2026-05-01T14:09:04.857Z</time></trkpt><trkpt lat="43.8414417207042" lon="12.477950559762986"><ele>464.0</ele><time>2026-05-01T14:09:05.857Z</time></trkpt><trkpt lat="43.84154435557117" lon="12.477903786969188"><ele>464.0</ele><time>2026-05-01T14:09:06.857Z</time></trkpt><trkpt lat="43.84164552597086" lon="12.477845848667402"><ele>464.0</ele><time>2026-05-01T14:09:07.857Z</time></trkpt><trkpt lat="43.8417561865485" lon="12.47778198455685"><ele>464.0</ele><time>2026-05-01T14:09:08.857Z</time></trkpt><trkpt lat="43.84187591827252" lon="12.47774342421055"><ele>464.0</ele><time>2026-05-01T14:09:09.857Z</time></trkpt><trkpt lat="43.842001816425224" lon="12.477723458902357"><ele>464.5</ele><time>2026-05-01T14:09:10.857Z</time></trkpt><trkpt lat="43.84213178823477" lon="12.477706580660477"><ele>465.0</ele><time>2026-05-01T14:09:11.857Z</time></trkpt><trkpt lat="43.84227523154957" lon="12.47769293776825"><ele>465.5</ele><time>2026-05-01T14:09:12.857Z</time></trkpt><trkpt lat="43.84242465922026" lon="12.477697651347356"><ele>466.0</ele><time>2026-05-01T14:09:13.857Z</time></trkpt><trkpt lat="43.84258440741979" lon="12.477714090798118"><ele>468.33333333333337</ele><time>2026-05-01T14:09:14.857Z</time></trkpt><trkpt lat="43.842747613650275" lon="12.477730911613465"><ele>470.66666666666663</ele><time>2026-05-01T14:09:15.857Z</time></trkpt><trkpt lat="43.84291284344938" lon="12.477744677830803"><ele>473.0</ele><time>2026-05-01T14:09:16.857Z</time></trkpt><trkpt lat="43.84306142805896" lon="12.477765801061613"><ele>473.0</ele><time>2026-05-01T14:09:17.857Z</time></trkpt><trkpt lat="43.843206270118834" lon="12.477781831859224"><ele>473.0</ele><time>2026-05-01T14:09:18.857Z</time></trkpt><trkpt lat="43.84334515504077" lon="12.477780900448417"><ele>473.0</ele><time>2026-05-01T14:09:19.857Z</time></trkpt><trkpt lat="43.84348551518046" lon="12.47774189160545"><ele>473.0</ele><time>2026-05-01T14:09:20.857Z</time></trkpt><trkpt lat="43.84362877659442" lon="12.477674766451685"><ele>474.5</ele><time>2026-05-01T14:09:21.857Z</time></trkpt><trkpt lat="43.84375753542248" lon="12.47759405393731"><ele>476.0</ele><time>2026-05-01T14:09:22.857Z</time></trkpt><trkpt lat="43.843874195225425" lon="12.477520414533041"><ele>477.5</ele><time>2026-05-01T14:09:23.857Z</time></trkpt><trkpt lat="43.843984349317495" lon="12.477472047993395"><ele>479.0</ele><time>2026-05-01T14:09:24.857Z</time></trkpt><trkpt lat="43.84408534594875" lon="12.477432698525282"><ele>479.0</ele><time>2026-05-01T14:09:25.857Z</time></trkpt><trkpt lat="43.84418651657118" lon="12.477404979170895"><ele>479.0</ele><time>2026-05-01T14:09:26.857Z</time></trkpt><trkpt lat="43.84426763947864" lon="12.477350797491624"><ele>479.0</ele><time>2026-05-01T14:09:27.857Z</time></trkpt><trkpt lat="43.84432565824258" lon="12.477278630975166"><ele>479.0</ele><time>2026-05-01T14:09:28.857Z</time></trkpt><trkpt lat="43.84435785788249" lon="12.477135322113712"><ele>479.0</ele><time>2026-05-01T14:09:29.857Z</time></trkpt><trkpt lat="43.84442671378126" lon="12.476989981207426"><ele>483.5</ele><time>2026-05-01T14:09:30.857Z</time></trkpt><trkpt lat="43.844504820301964" lon="12.47683932118684"><ele>488.0</ele><time>2026-05-01T14:09:31.857Z</time></trkpt><trkpt lat="43.84457019921954" lon="12.476679525251837"><ele>492.5</ele><time>2026-05-01T14:09:32.857Z</time></trkpt><trkpt lat="43.84467346381774" lon="12.476521005238316"><ele>497.0</ele><time>2026-05-01T14:09:33.857Z</time></trkpt><trkpt lat="43.84478045079909" lon="12.476344392982854"><ele>497.3333333333333</ele><time>2026-05-01T14:09:34.857Z</time></trkpt><trkpt lat="43.84490314018368" lon="12.476174536568395"><ele>497.66666666666663</ele><time>2026-05-01T14:09:35.857Z</time></trkpt><trkpt lat="43.845005024131815" lon="12.476006024164723"><ele>498.0</ele><time>2026-05-01T14:09:36.857Z</time></trkpt><trkpt lat="43.84506555364526" lon="12.475831595095533"><ele>498.0</ele><time>2026-05-01T14:09:37.857Z</time></trkpt><trkpt lat="43.84511688147907" lon="12.475672328836888"><ele>497.99999999999994</ele><time>2026-05-01T14:09:38.857Z</time></trkpt><trkpt lat="43.84517454648105" lon="12.475539220117607"><ele>497.99999999999994</ele><time>2026-05-01T14:09:39.857Z</time></trkpt><trkpt lat="43.845246962040285" lon="12.475443026032421"><ele>498.0</ele><time>2026-05-01T14:09:40.857Z</time></trkpt><trkpt lat="43.845342333367626" lon="12.475393789619101"><ele>498.0</ele><time>2026-05-01T14:09:41.857Z</time></trkpt><trkpt lat="43.845437031795804" lon="12.475328744546442"><ele>498.25</ele><time>2026-05-01T14:09:42.857Z</time></trkpt><trkpt lat="43.84556173915854" lon="12.475284518383965"><ele>498.5</ele><time>2026-05-01T14:09:43.857Z</time></trkpt><trkpt lat="43.84568388619654" lon="12.475234281729897"><ele>498.75</ele><time>2026-05-01T14:09:44.857Z</time></trkpt><trkpt lat="43.84578741756335" lon="12.475185344311209"><ele>499.0</ele><time>2026-05-01T14:09:45.857Z</time></trkpt><trkpt lat="43.84588739570545" lon="12.47514239847625"><ele>497.4</ele><time>2026-05-01T14:09:46.857Z</time></trkpt><trkpt lat="43.8459939790222" lon="12.47510100875892"><ele>495.79999999999995</ele><time>2026-05-01T14:09:47.857Z</time></trkpt><trkpt lat="43.84609481812189" lon="12.475067545081904"><ele>494.20000000000005</ele><time>2026-05-01T14:09:48.857Z</time></trkpt><trkpt lat="43.84619427165127" lon="12.475033116118917"><ele>492.6</ele><time>2026-05-01T14:09:49.857Z</time></trkpt><trkpt lat="43.84630174619595" lon="12.47498267694387"><ele>491.0</ele><time>2026-05-01T14:09:50.857Z</time></trkpt><trkpt lat="43.846411280063016" lon="12.474926038202797"><ele>491.0</ele><time>2026-05-01T14:09:51.857Z</time></trkpt><trkpt lat="43.84651203339512" lon="12.474860811331775"><ele>491.0</ele><time>2026-05-01T14:09:52.857Z</time></trkpt><trkpt lat="43.84659892728748" lon="12.474772891275155"><ele>491.0</ele><time>2026-05-01T14:09:53.857Z</time></trkpt><trkpt lat="43.84667149236115" lon="12.474664843518292"><ele>491.0</ele><time>2026-05-01T14:09:54.857Z</time></trkpt><trkpt lat="43.84671940919106" lon="12.474546684661732"><ele>491.0</ele><time>2026-05-01T14:09:55.857Z</time></trkpt><trkpt lat="43.846739236858475" lon="12.4744102645673"><ele>491.5</ele><time>2026-05-01T14:09:56.857Z</time></trkpt><trkpt lat="43.84673938231982" lon="12.474244313431283"><ele>492.0</ele><time>2026-05-01T14:09:57.857Z</time></trkpt><trkpt lat="43.846718089231906" lon="12.474069921403327"><ele>492.5</ele><time>2026-05-01T14:09:58.857Z</time></trkpt><trkpt lat="43.84668609631179" lon="12.473896269756125"><ele>493.0</ele><time>2026-05-01T14:09:59.857Z</time></trkpt><trkpt lat="43.846642470418985" lon="12.47373590200747"><ele>490.75</ele><time>2026-05-01T14:10:00.857Z</time></trkpt><trkpt lat="43.84657615552541" lon="12.473581579485266"><ele>488.5</ele><time>2026-05-01T14:10:01.857Z</time></trkpt><trkpt lat="43.84650229341804" lon="12.473446736737264"><ele>486.25</ele><time>2026-05-01T14:10:02.857Z</time></trkpt><trkpt lat="43.84643229228941" lon="12.473313594801937"><ele>484.0</ele><time>2026-05-01T14:10:03.857Z</time></trkpt><trkpt lat="43.8463708765346" lon="12.473178080029347"><ele>484.0</ele><time>2026-05-01T14:10:04.857Z</time></trkpt><trkpt lat="43.84631034040185" lon="12.473038732809341"><ele>484.0</ele><time>2026-05-01T14:10:05.857Z</time></trkpt><trkpt lat="43.846271674896926" lon="12.472887299115067"><ele>484.0</ele><time>2026-05-01T14:10:06.857Z</time></trkpt><trkpt lat="43.846259268470284" lon="12.47272354162892"><ele>484.0</ele><time>2026-05-01T14:10:07.857Z</time></trkpt><trkpt lat="43.8462525230332" lon="12.472564482854185"><ele>481.50000000000006</ele><time>2026-05-01T14:10:08.857Z</time></trkpt><trkpt lat="43.8462378723314" lon="12.4724309838344"><ele>479.0</ele><time>2026-05-01T14:10:09.857Z</time></trkpt><trkpt lat="43.84621831327622" lon="12.472317543091972"><ele>476.5</ele><time>2026-05-01T14:10:10.857Z</time></trkpt><trkpt lat="43.84617991416899" lon="12.472230671529863"><ele>474.0</ele><time>2026-05-01T14:10:11.857Z</time></trkpt><trkpt lat="43.84611714801392" lon="12.472159016412187"><ele>471.50000000000006</ele><time>2026-05-01T14:10:12.857Z</time></trkpt><trkpt lat="43.84605032916574" lon="12.472113720859802"><ele>469.0</ele><time>2026-05-01T14:10:13.857Z</time></trkpt><trkpt lat="43.84596815204144" lon="12.47207771819238"><ele>469.4</ele><time>2026-05-01T14:10:14.857Z</time></trkpt><trkpt lat="43.84588555812051" lon="12.472054919325817"><ele>469.79999999999995</ele><time>2026-05-01T14:10:15.857Z</time></trkpt><trkpt lat="43.84580941684166" lon="12.47205904888313"><ele>470.20000000000005</ele><time>2026-05-01T14:10:17.857Z</time></trkpt><trkpt lat="43.845694661249716" lon="12.472017472723591"><ele>470.6</ele><time>2026-05-01T14:10:30.856Z</time></trkpt><trkpt lat="43.8456308603812" lon="12.471985142176177"><ele>471.0</ele><time>2026-05-01T14:10:31.856Z</time></trkpt><trkpt lat="43.845537951196626" lon="12.471902264187122"><ele>471.0</ele><time>2026-05-01T14:10:32.856Z</time></trkpt><trkpt lat="43.84541376540632" lon="12.47178876679955"><ele>471.0</ele><time>2026-05-01T14:10:33.856Z</time></trkpt><trkpt lat="43.845307097172594" lon="12.471694948502618"><ele>471.0</ele><time>2026-05-01T14:10:34.856Z</time></trkpt><trkpt lat="43.84521161252469" lon="12.47160127112088"><ele>471.0</ele><time>2026-05-01T14:10:35.856Z</time></trkpt><trkpt lat="43.845106918747284" lon="12.471519682833662"><ele>471.4</ele><time>2026-05-01T14:10:36.856Z</time></trkpt><trkpt lat="43.84500906339675" lon="12.47143834588537"><ele>471.8</ele><time>2026-05-01T14:10:37.856Z</time></trkpt><trkpt lat="43.84495891607071" lon="12.471309173624173"><ele>472.19999999999993</ele><time>2026-05-01T14:10:38.856Z</time></trkpt><trkpt lat="43.84491408243073" lon="12.471178410891172"><ele>472.59999999999997</ele><time>2026-05-01T14:10:39.856Z</time></trkpt><trkpt lat="43.8448611163159" lon="12.47103588426223"><ele>473.0</ele><time>2026-05-01T14:10:40.856Z</time></trkpt><trkpt lat="43.844814003683055" lon="12.470918043018777"><ele>470.66666666666663</ele><time>2026-05-01T14:10:41.856Z</time></trkpt><trkpt lat="43.844754569653986" lon="12.470847618054885"><ele>468.3333333333333</ele><time>2026-05-01T14:10:42.856Z</time></trkpt><trkpt lat="43.8446959007909" lon="12.470808096750352"><ele>466.0</ele><time>2026-05-01T14:10:43.856Z</time></trkpt><trkpt lat="43.84463167913807" lon="12.470802609293184"><ele>463.66666666666663</ele><time>2026-05-01T14:10:44.856Z</time></trkpt><trkpt lat="43.84455886704784" lon="12.470840211566452"><ele>461.3333333333333</ele><time>2026-05-01T14:10:45.856Z</time></trkpt><trkpt lat="43.844490403856014" lon="12.470908729631113"><ele>459.0</ele><time>2026-05-01T14:10:46.856Z</time></trkpt><trkpt lat="43.844412294231574" lon="12.470982132617152"><ele>459.0</ele><time>2026-05-01T14:10:47.855Z</time></trkpt><trkpt lat="43.84431819960539" lon="12.471070033619238"><ele>459.0</ele><time>2026-05-01T14:10:48.855Z</time></trkpt><trkpt lat="43.84421108064262" lon="12.471151199124355"><ele>459.0</ele><time>2026-05-01T14:10:49.856Z</time></trkpt><trkpt lat="43.84410953824463" lon="12.471199813097808"><ele>459.0</ele><time>2026-05-01T14:10:50.856Z</time></trkpt><trkpt lat="43.8440154202891" lon="12.471217195508933"><ele>459.0</ele><time>2026-05-01T14:10:51.856Z</time></trkpt><trkpt lat="43.84392869338686" lon="12.471201051302604"><ele>458.25</ele><time>2026-05-01T14:10:52.856Z</time></trkpt><trkpt lat="43.84384127904301" lon="12.47112157458272"><ele>457.5</ele><time>2026-05-01T14:10:53.855Z</time></trkpt><trkpt lat="43.84374395559405" lon="12.471021624440755"><ele>456.75</ele><time>2026-05-01T14:10:54.855Z</time></trkpt><trkpt lat="43.84364084240203" lon="12.470909132043708"><ele>456.0</ele><time>2026-05-01T14:10:55.855Z</time></trkpt><trkpt lat="43.84356166236867" lon="12.470781806587825"><ele>456.0</ele><time>2026-05-01T14:10:56.855Z</time></trkpt><trkpt lat="43.843504550335496" lon="12.470632340618527"><ele>456.0</ele><time>2026-05-01T14:10:57.855Z</time></trkpt><trkpt lat="43.84346091603165" lon="12.47046852768603"><ele>456.0</ele><time>2026-05-01T14:10:58.855Z</time></trkpt><trkpt lat="43.84341965717523" lon="12.470288776926402"><ele>456.0</ele><time>2026-05-01T14:10:59.856Z</time></trkpt><trkpt lat="43.84337872801078" lon="12.470106007471413"><ele>452.0</ele><time>2026-05-01T14:11:00.856Z</time></trkpt><trkpt lat="43.843341248805395" lon="12.469935289329877"><ele>448.0</ele><time>2026-05-01T14:11:01.856Z</time></trkpt><trkpt lat="43.84330559511302" lon="12.46976939556373"><ele>444.0</ele><time>2026-05-01T14:11:02.856Z</time></trkpt><trkpt lat="43.843273384324725" lon="12.469615803962176"><ele>440.0</ele><time>2026-05-01T14:11:03.856Z</time></trkpt><trkpt lat="43.84326186498414" lon="12.469468808450449"><ele>439.5</ele><time>2026-05-01T14:11:04.856Z</time></trkpt><trkpt lat="43.84327084730971" lon="12.469318915036945"><ele>439.0</ele><time>2026-05-01T14:11:05.856Z</time></trkpt><trkpt lat="43.84332109410607" lon="12.469172960865825"><ele>438.5</ele><time>2026-05-01T14:11:06.856Z</time></trkpt><trkpt lat="43.84337086487223" lon="12.469012987577575"><ele>438.0</ele><time>2026-05-01T14:11:07.856Z</time></trkpt><trkpt lat="43.843427024760985" lon="12.468844726317869"><ele>436.5</ele><time>2026-05-01T14:11:08.856Z</time></trkpt><trkpt lat="43.8435110371987" lon="12.468707815776433"><ele>435.0</ele><time>2026-05-01T14:11:09.856Z</time></trkpt><trkpt lat="43.84359103559247" lon="12.468578908855482"><ele>433.5</ele><time>2026-05-01T14:11:10.856Z</time></trkpt><trkpt lat="43.84366236683542" lon="12.46846031951687"><ele>432.0</ele><time>2026-05-01T14:11:11.856Z</time></trkpt><trkpt lat="43.84371387114929" lon="12.46835158126928"><ele>432.0</ele><time>2026-05-01T14:11:12.856Z</time></trkpt><trkpt lat="43.84374489755861" lon="12.468238363862783"><ele>432.00000000000006</ele><time>2026-05-01T14:11:13.856Z</time></trkpt><trkpt lat="43.84375028122156" lon="12.468121304193941"><ele>432.00000000000006</ele><time>2026-05-01T14:11:14.856Z</time></trkpt><trkpt lat="43.843714596306526" lon="12.46800333100262"><ele>432.0</ele><time>2026-05-01T14:11:15.856Z</time></trkpt><trkpt lat="43.84364929637089" lon="12.467882772841499"><ele>432.0</ele><time>2026-05-01T14:11:16.856Z</time></trkpt><trkpt lat="43.84356198402533" lon="12.467766374223995"><ele>432.20000000000005</ele><time>2026-05-01T14:11:17.856Z</time></trkpt><trkpt lat="43.843464790288415" lon="12.46766114736796"><ele>432.40000000000003</ele><time>2026-05-01T14:11:18.855Z</time></trkpt><trkpt lat="43.84342920025798" lon="12.46753476839976"><ele>432.59999999999997</ele><time>2026-05-01T14:11:19.855Z</time></trkpt><trkpt lat="43.84339617089663" lon="12.46743089046469"><ele>432.79999999999995</ele><time>2026-05-01T14:11:20.855Z</time></trkpt><trkpt lat="43.84343535772513" lon="12.467317353132628"><ele>433.0</ele><time>2026-05-01T14:11:21.855Z</time></trkpt><trkpt lat="43.843488056694476" lon="12.467215061214205"><ele>432.2</ele><time>2026-05-01T14:11:22.855Z</time></trkpt><trkpt lat="43.84358061870889" lon="12.467186405156621"><ele>431.4</ele><time>2026-05-01T14:11:23.855Z</time></trkpt><trkpt lat="43.843657477955375" lon="12.467149437429093"><ele>430.59999999999997</ele><time>2026-05-01T14:11:24.855Z</time></trkpt><trkpt lat="43.84375793842878" lon="12.46719177205212"><ele>429.79999999999995</ele><time>2026-05-01T14:11:25.855Z</time></trkpt><trkpt lat="43.84386450084687" lon="12.467287151709796"><ele>429.0</ele><time>2026-05-01T14:11:26.855Z</time></trkpt><trkpt lat="43.8439427824988" lon="12.467395921700522"><ele>429.0</ele><time>2026-05-01T14:11:27.855Z</time></trkpt><trkpt lat="43.84398094592814" lon="12.467530109683729"><ele>429.0</ele><time>2026-05-01T14:11:28.855Z</time></trkpt><trkpt lat="43.844039878696215" lon="12.467646170223118"><ele>429.0</ele><time>2026-05-01T14:11:29.855Z</time></trkpt><trkpt lat="43.84408001986481" lon="12.46773343444228"><ele>429.0</ele><time>2026-05-01T14:11:30.855Z</time></trkpt><trkpt lat="43.84417330432882" lon="12.467787238144652"><ele>429.0</ele><time>2026-05-01T14:11:32.855Z</time></trkpt><trkpt lat="43.844271755043984" lon="12.467691384241856"><ele>426.4</ele><time>2026-05-01T14:11:34.855Z</time></trkpt><trkpt lat="43.84430281031456" lon="12.467498259861049"><ele>423.79999999999995</ele><time>2026-05-01T14:11:36.855Z</time></trkpt><trkpt lat="43.84432026531059" lon="12.46735536743012"><ele>421.20000000000005</ele><time>2026-05-01T14:11:37.855Z</time></trkpt><trkpt lat="43.84434411464614" lon="12.467207518267081"><ele>418.6</ele><time>2026-05-01T14:11:38.855Z</time></trkpt><trkpt lat="43.84438798133424" lon="12.467095934595587"><ele>416.0</ele><time>2026-05-01T14:11:39.855Z</time></trkpt><trkpt lat="43.844454086750446" lon="12.466993117462994"><ele>416.0</ele><time>2026-05-01T14:11:40.855Z</time></trkpt><trkpt lat="43.84453240507482" lon="12.466907786580006"><ele>416.0</ele><time>2026-05-01T14:11:41.855Z</time></trkpt><trkpt lat="43.844631957548394" lon="12.466835102790133"><ele>416.0</ele><time>2026-05-01T14:11:42.855Z</time></trkpt><trkpt lat="43.844738197053786" lon="12.46676395561573"><ele>416.0</ele><time>2026-05-01T14:11:43.855Z</time></trkpt><trkpt lat="43.8448588575465" lon="12.466698172964366"><ele>416.0</ele><time>2026-05-01T14:11:44.855Z</time></trkpt><trkpt lat="43.84498685742893" lon="12.466667137256675"><ele>416.0</ele><time>2026-05-01T14:11:45.855Z</time></trkpt><trkpt lat="43.84510320712078" lon="12.466615541472319"><ele>416.0</ele><time>2026-05-01T14:11:46.855Z</time></trkpt><trkpt lat="43.845210343212464" lon="12.466552773532113"><ele>416.0</ele><time>2026-05-01T14:11:47.855Z</time></trkpt><trkpt lat="43.845298175728026" lon="12.46649214390491"><ele>413.8333333333333</ele><time>2026-05-01T14:11:48.855Z</time></trkpt><trkpt lat="43.84536509450303" lon="12.466440161748976"><ele>411.66666666666663</ele><time>2026-05-01T14:11:49.855Z</time></trkpt><trkpt lat="43.845424183194766" lon="12.466350680116124"><ele>409.5</ele><time>2026-05-01T14:11:51.855Z</time></trkpt><trkpt lat="43.845410798097284" lon="12.466218537121074"><ele>407.33333333333337</ele><time>2026-05-01T14:11:53.855Z</time></trkpt><trkpt lat="43.845396552411614" lon="12.46611250855071"><ele>405.1666666666667</ele><time>2026-05-01T14:11:54.855Z</time></trkpt><trkpt lat="43.845375406135304" lon="12.465963608954295"><ele>403.0</ele><time>2026-05-01T14:11:55.855Z</time></trkpt><trkpt lat="43.845326670232666" lon="12.465805379077988"><ele>403.25</ele><time>2026-05-01T14:11:56.855Z</time></trkpt><trkpt lat="43.845270281517735" lon="12.465637400586958"><ele>403.5</ele><time>2026-05-01T14:11:57.855Z</time></trkpt><trkpt lat="43.84519154779385" lon="12.465451531910029"><ele>403.75</ele><time>2026-05-01T14:11:58.855Z</time></trkpt><trkpt lat="43.84511629111465" lon="12.465264776857971"><ele>404.0</ele><time>2026-05-01T14:11:59.855Z</time></trkpt><trkpt lat="43.84504926982427" lon="12.46508692500784"><ele>404.0</ele><time>2026-05-01T14:12:00.855Z</time></trkpt><trkpt lat="43.84499082834428" lon="12.464912429804038"><ele>404.0</ele><time>2026-05-01T14:12:01.855Z</time></trkpt><trkpt lat="43.844921680507426" lon="12.464741273910136"><ele>404.0</ele><time>2026-05-01T14:12:02.855Z</time></trkpt><trkpt lat="43.84485759725201" lon="12.464589707079384"><ele>404.0</ele><time>2026-05-01T14:12:03.855Z</time></trkpt><trkpt lat="43.84479889412571" lon="12.464451591033852"><ele>400.5</ele><time>2026-05-01T14:12:04.855Z</time></trkpt><trkpt lat="43.844737806067556" lon="12.46431202374586"><ele>397.0</ele><time>2026-05-01T14:12:05.855Z</time></trkpt><trkpt lat="43.84467908861794" lon="12.464148070562231"><ele>393.5</ele><time>2026-05-01T14:12:06.855Z</time></trkpt><trkpt lat="43.84458062657176" lon="12.464006729501117"><ele>390.0</ele><time>2026-05-01T14:12:07.855Z</time></trkpt><trkpt lat="43.844494735774646" lon="12.46388828820043"><ele>390.0</ele><time>2026-05-01T14:12:08.855Z</time></trkpt><trkpt lat="43.844412014373134" lon="12.463785436245978"><ele>390.0</ele><time>2026-05-01T14:12:09.855Z</time></trkpt><trkpt lat="43.84431625485999" lon="12.463712696448702"><ele>390.0</ele><time>2026-05-01T14:12:10.855Z</time></trkpt><trkpt lat="43.844223680931165" lon="12.463693313046141"><ele>390.0</ele><time>2026-05-01T14:12:11.855Z</time></trkpt><trkpt lat="43.84413675641604" lon="12.463703135435317"><ele>390.0</ele><time>2026-05-01T14:12:12.855Z</time></trkpt><trkpt lat="43.84403430210033" lon="12.463760813687653"><ele>392.25</ele><time>2026-05-01T14:12:13.855Z</time></trkpt><trkpt lat="43.84391822989835" lon="12.463830501660475"><ele>394.5</ele><time>2026-05-01T14:12:14.855Z</time></trkpt><trkpt lat="43.84379966073926" lon="12.463895435521113"><ele>396.75</ele><time>2026-05-01T14:12:15.855Z</time></trkpt><trkpt lat="43.84370683025755" lon="12.463913293325888"><ele>399.0</ele><time>2026-05-01T14:12:16.855Z</time></trkpt><trkpt lat="43.843598834329796" lon="12.46386868292569"><ele>396.0</ele><time>2026-05-01T14:12:18.855Z</time></trkpt><trkpt lat="43.843545068181214" lon="12.463761693087102"><ele>393.0</ele><time>2026-05-01T14:12:20.855Z</time></trkpt><trkpt lat="43.84361445707587" lon="12.46363297492797"><ele>390.0</ele><time>2026-05-01T14:12:21.855Z</time></trkpt><trkpt lat="43.84369051325472" lon="12.463602647330154"><ele>387.0</ele><time>2026-05-01T14:12:22.855Z</time></trkpt><trkpt lat="43.84375960556211" lon="12.463545524515565"><ele>384.0</ele><time>2026-05-01T14:12:23.855Z</time></trkpt><trkpt lat="43.84385048922836" lon="12.463462690546098"><ele>384.0</ele><time>2026-05-01T14:12:24.855Z</time></trkpt><trkpt lat="43.84396708053673" lon="12.46339894583543"><ele>384.0</ele><time>2026-05-01T14:12:25.855Z</time></trkpt><trkpt lat="43.84408014526643" lon="12.463355864940208"><ele>384.0</ele><time>2026-05-01T14:12:26.855Z</time></trkpt><trkpt lat="43.84418773416737" lon="12.463302636251859"><ele>384.0</ele><time>2026-05-01T14:12:27.855Z</time></trkpt><trkpt lat="43.84428037752307" lon="12.46325265735285"><ele>382.2</ele><time>2026-05-01T14:12:28.855Z</time></trkpt><trkpt lat="43.844370438099816" lon="12.463204172625916"><ele>380.4</ele><time>2026-05-01T14:12:29.855Z</time></trkpt><trkpt lat="43.8444636233387" lon="12.463140672712253"><ele>378.6</ele><time>2026-05-01T14:12:30.855Z</time></trkpt><trkpt lat="43.844552865271176" lon="12.46307807305794"><ele>376.8</ele><time>2026-05-01T14:12:31.855Z</time></trkpt><trkpt lat="43.84463771356059" lon="12.463041302420905"><ele>375.0</ele><time>2026-05-01T14:12:32.855Z</time></trkpt><trkpt lat="43.844718794683054" lon="12.463033238216923"><ele>375.0</ele><time>2026-05-01T14:12:33.855Z</time></trkpt><trkpt lat="43.84479693772406" lon="12.463082200219644"><ele>375.0</ele><time>2026-05-01T14:12:34.855Z</time></trkpt><trkpt lat="43.84487414779171" lon="12.463154571647802"><ele>375.0</ele><time>2026-05-01T14:12:35.855Z</time></trkpt><trkpt lat="43.84496606582723" lon="12.463279332499773"><ele>375.0</ele><time>2026-05-01T14:12:36.855Z</time></trkpt><trkpt lat="43.84508825023196" lon="12.463433612443536"><ele>371.3333333333333</ele><time>2026-05-01T14:12:37.855Z</time></trkpt><trkpt lat="43.84524531352141" lon="12.463602366186542"><ele>367.66666666666663</ele><time>2026-05-01T14:12:38.855Z</time></trkpt><trkpt lat="43.84538009663516" lon="12.463786425119956"><ele>364.0</ele><time>2026-05-01T14:12:39.855Z</time></trkpt><trkpt lat="43.845506455038674" lon="12.463962010961662"><ele>364.0</ele><time>2026-05-01T14:12:40.855Z</time></trkpt><trkpt lat="43.84562571003678" lon="12.464113426738459"><ele>364.0</ele><time>2026-05-01T14:12:41.855Z</time></trkpt><trkpt lat="43.84574431075634" lon="12.46426002755535"><ele>364.0</ele><time>2026-05-01T14:12:42.855Z</time></trkpt><trkpt lat="43.84586044042976" lon="12.46441917303778"><ele>360.66666666666663</ele><time>2026-05-01T14:12:43.855Z</time></trkpt><trkpt lat="43.84597650628655" lon="12.464578728249204"><ele>357.3333333333333</ele><time>2026-05-01T14:12:44.855Z</time></trkpt><trkpt lat="43.84608984981326" lon="12.464726234790986"><ele>354.0</ele><time>2026-05-01T14:12:45.854Z</time></trkpt><trkpt lat="43.846194596759524" lon="12.464893115452885"><ele>354.0</ele><time>2026-05-01T14:12:46.854Z</time></trkpt><trkpt lat="43.84628904146588" lon="12.46505696154629"><ele>354.0</ele><time>2026-05-01T14:12:47.854Z</time></trkpt><trkpt lat="43.846382505044794" lon="12.465208772295908"><ele>354.0</ele><time>2026-05-01T14:12:48.854Z</time></trkpt><trkpt lat="43.84646489572997" lon="12.465347221754984"><ele>354.0</ele><time>2026-05-01T14:12:49.854Z</time></trkpt><trkpt lat="43.8465441132437" lon="12.46547156676167"><ele>352.79999999999995</ele><time>2026-05-01T14:12:50.854Z</time></trkpt><trkpt lat="43.84662085770623" lon="12.46555813953009"><ele>351.59999999999997</ele><time>2026-05-01T14:12:51.854Z</time></trkpt><trkpt lat="43.8467087361301" lon="12.465615417308392"><ele>350.4</ele><time>2026-05-01T14:12:52.853Z</time></trkpt><trkpt lat="43.846808831169454" lon="12.465658761076424"><ele>349.2</ele><time>2026-05-01T14:12:53.853Z</time></trkpt><trkpt lat="43.84688512964931" lon="12.465697000729032"><ele>348.0</ele><time>2026-05-01T14:12:54.853Z</time></trkpt><trkpt lat="43.846955974403116" lon="12.465697308418411"><ele>348.0</ele><time>2026-05-01T14:12:55.853Z</time></trkpt><trkpt lat="43.84700718585734" lon="12.465639963949465"><ele>348.0</ele><time>2026-05-01T14:12:56.854Z</time></trkpt><trkpt lat="43.84706817075109" lon="12.465541766196383"><ele>348.0</ele><time>2026-05-01T14:12:58.854Z</time></trkpt><trkpt lat="43.84711294345229" lon="12.465467474472042"><ele>348.0</ele><time>2026-05-01T14:12:59.854Z</time></trkpt><trkpt lat="43.84718829252904" lon="12.465375232259525"><ele>348.0</ele><time>2026-05-01T14:13:00.854Z</time></trkpt><trkpt lat="43.84727248284953" lon="12.465261038787485"><ele>348.0</ele><time>2026-05-01T14:13:01.854Z</time></trkpt><trkpt lat="43.84736026739715" lon="12.465142743736674"><ele>348.0</ele><time>2026-05-01T14:13:02.854Z</time></trkpt><trkpt lat="43.84746352345676" lon="12.465041374327003"><ele>348.0</ele><time>2026-05-01T14:13:03.854Z</time></trkpt><trkpt lat="43.84754159175484" lon="12.464941693367523"><ele>348.0</ele><time>2026-05-01T14:13:04.854Z</time></trkpt><trkpt lat="43.847606314269754" lon="12.46485420292659"><ele>348.0</ele><time>2026-05-01T14:13:05.854Z</time></trkpt><trkpt lat="43.84766966199216" lon="12.464758931602825"><ele>348.0</ele><time>2026-05-01T14:13:06.854Z</time></trkpt><trkpt lat="43.84773815892441" lon="12.464664004960856"><ele>348.2</ele><time>2026-05-01T14:13:07.854Z</time></trkpt><trkpt lat="43.84781142883845" lon="12.464568000591669"><ele>348.4</ele><time>2026-05-01T14:13:08.854Z</time></trkpt><trkpt lat="43.84788516520482" lon="12.464476112574747"><ele>348.59999999999997</ele><time>2026-05-01T14:13:09.854Z</time></trkpt><trkpt lat="43.84796067866925" lon="12.464375734376052"><ele>348.79999999999995</ele><time>2026-05-01T14:13:10.854Z</time></trkpt><trkpt lat="43.84803875857683" lon="12.464275474504992"><ele>349.0</ele><time>2026-05-01T14:13:11.854Z</time></trkpt><trkpt lat="43.84812144607927" lon="12.464172274579118"><ele>349.0</ele><time>2026-05-01T14:13:12.854Z</time></trkpt><trkpt lat="43.84819455136142" lon="12.46407873083585"><ele>349.0</ele><time>2026-05-01T14:13:13.854Z</time></trkpt><trkpt lat="43.848261020373855" lon="12.46398884129365"><ele>349.0</ele><time>2026-05-01T14:13:14.854Z</time></trkpt><trkpt lat="43.84832413797014" lon="12.46390600407635"><ele>349.0</ele><time>2026-05-01T14:13:15.854Z</time></trkpt><trkpt lat="43.84839774883714" lon="12.463829911204348"><ele>349.0</ele><time>2026-05-01T14:13:16.853Z</time></trkpt><trkpt lat="43.848476272685545" lon="12.463747889062077"><ele>352.4</ele><time>2026-05-01T14:13:17.853Z</time></trkpt><trkpt lat="43.84855677972144" lon="12.463672340984498"><ele>355.79999999999995</ele><time>2026-05-01T14:13:18.853Z</time></trkpt><trkpt lat="43.84864069594256" lon="12.463616645181009"><ele>359.20000000000005</ele><time>2026-05-01T14:13:19.853Z</time></trkpt><trkpt lat="43.84874033244455" lon="12.46358560001225"><ele>362.6</ele><time>2026-05-01T14:13:20.853Z</time></trkpt><trkpt lat="43.848840867874365" lon="12.463567008625871"><ele>366.0</ele><time>2026-05-01T14:13:21.853Z</time></trkpt><trkpt lat="43.848938215314206" lon="12.463564773836119"><ele>366.0</ele><time>2026-05-01T14:13:22.853Z</time></trkpt><trkpt lat="43.8490198304408" lon="12.463587243628997"><ele>366.0</ele><time>2026-05-01T14:13:23.853Z</time></trkpt><trkpt lat="43.84909624570259" lon="12.463643120214792"><ele>366.0</ele><time>2026-05-01T14:13:24.853Z</time></trkpt><trkpt lat="43.84917190980235" lon="12.463695215836015"><ele>366.0</ele><time>2026-05-01T14:13:25.853Z</time></trkpt><trkpt lat="43.849260578049126" lon="12.463770482663083"><ele>366.0</ele><time>2026-05-01T14:13:26.853Z</time></trkpt><trkpt lat="43.84935929172325" lon="12.463856483021592"><ele>366.0</ele><time>2026-05-01T14:13:27.853Z</time></trkpt><trkpt lat="43.84946815417308" lon="12.463933388324467"><ele>366.0</ele><time>2026-05-01T14:13:28.853Z</time></trkpt><trkpt lat="43.84956374598356" lon="12.464021315184674"><ele>366.0</ele><time>2026-05-01T14:13:29.853Z</time></trkpt><trkpt lat="43.849645299667436" lon="12.464108993771744"><ele>366.0</ele><time>2026-05-01T14:13:30.853Z</time></trkpt><trkpt lat="43.849709419556504" lon="12.46417617650055"><ele>366.0</ele><time>2026-05-01T14:13:31.853Z</time></trkpt><trkpt lat="43.84977032401843" lon="12.46423798759731"><ele>366.0</ele><time>2026-05-01T14:13:32.853Z</time></trkpt><trkpt lat="43.84983682663707" lon="12.464300682118706"><ele>366.0</ele><time>2026-05-01T14:13:33.853Z</time></trkpt><trkpt lat="43.84989973733912" lon="12.464352664166338"><ele>366.0</ele><time>2026-05-01T14:13:34.853Z</time></trkpt><trkpt lat="43.8500216624361" lon="12.464367218970581"><ele>366.0</ele><time>2026-05-01T14:13:36.853Z</time></trkpt><trkpt lat="43.85008680415508" lon="12.464312333295146"><ele>366.0</ele><time>2026-05-01T14:13:37.853Z</time></trkpt><trkpt lat="43.850204732708555" lon="12.464437632394757"><ele>367.3333333333333</ele><time>2026-05-01T14:13:38.853Z</time></trkpt><trkpt lat="43.85032913242335" lon="12.464514682759859"><ele>368.66666666666663</ele><time>2026-05-01T14:13:39.853Z</time></trkpt><trkpt lat="43.8504818823894" lon="12.464603080076463"><ele>370.0</ele><time>2026-05-01T14:13:40.853Z</time></trkpt><trkpt lat="43.85065614066981" lon="12.464715565062615"><ele>367.3333333333333</ele><time>2026-05-01T14:13:41.853Z</time></trkpt><trkpt lat="43.85083496663227" lon="12.464841748443199"><ele>364.6666666666667</ele><time>2026-05-01T14:13:42.853Z</time></trkpt><trkpt lat="43.85099561730696" lon="12.464943606166077"><ele>362.0</ele><time>2026-05-01T14:13:43.853Z</time></trkpt><trkpt lat="43.85114368056589" lon="12.46504128795238"><ele>362.0</ele><time>2026-05-01T14:13:44.853Z</time></trkpt><trkpt lat="43.85127988473746" lon="12.465164702989727"><ele>362.0</ele><time>2026-05-01T14:13:45.853Z</time></trkpt><trkpt lat="43.851403438099716" lon="12.46536126018436"><ele>362.0</ele><time>2026-05-01T14:13:46.853Z</time></trkpt><trkpt lat="43.85154012311445" lon="12.465553857416966"><ele>362.0</ele><time>2026-05-01T14:13:47.853Z</time></trkpt><trkpt lat="43.85168099596787" lon="12.465732812167385"><ele>362.0</ele><time>2026-05-01T14:13:48.853Z</time></trkpt><trkpt lat="43.85182979335365" lon="12.465891600438175"><ele>362.0</ele><time>2026-05-01T14:13:49.853Z</time></trkpt><trkpt lat="43.85200161029578" lon="12.466025253105304"><ele>364.0</ele><time>2026-05-01T14:13:50.853Z</time></trkpt><trkpt lat="43.85217959755642" lon="12.466113800690094"><ele>366.0</ele><time>2026-05-01T14:13:51.853Z</time></trkpt><trkpt lat="43.85233158263423" lon="12.466185856458528"><ele>368.0</ele><time>2026-05-01T14:13:52.853Z</time></trkpt><trkpt lat="43.85245139840589" lon="12.466309797329533"><ele>368.0</ele><time>2026-05-01T14:13:53.853Z</time></trkpt><trkpt lat="43.8525235614037" lon="12.466462210173244"><ele>368.0</ele><time>2026-05-01T14:13:54.853Z</time></trkpt><trkpt lat="43.85258795843591" lon="12.46665446061474"><ele>368.0</ele><time>2026-05-01T14:13:55.853Z</time></trkpt><trkpt lat="43.8526763917582" lon="12.46686027677532"><ele>364.33333333333337</ele><time>2026-05-01T14:13:56.853Z</time></trkpt><trkpt lat="43.85278222947895" lon="12.467000837235492"><ele>360.6666666666667</ele><time>2026-05-01T14:13:57.853Z</time></trkpt><trkpt lat="43.85288862960792" lon="12.467132118784626"><ele>357.0</ele><time>2026-05-01T14:13:58.853Z</time></trkpt><trkpt lat="43.85304729890582" lon="12.46723338037034"><ele>357.0</ele><time>2026-05-01T14:13:59.853Z</time></trkpt><trkpt lat="43.85325098568602" lon="12.467278718245717"><ele>357.0</ele><time>2026-05-01T14:14:00.853Z</time></trkpt><trkpt lat="43.8534544192819" lon="12.467295313357987"><ele>357.0</ele><time>2026-05-01T14:14:01.853Z</time></trkpt><trkpt lat="43.8536389554259" lon="12.46728747825495"><ele>362.3333333333333</ele><time>2026-05-01T14:14:02.853Z</time></trkpt><trkpt lat="43.8538387140966" lon="12.467272293875832"><ele>367.66666666666663</ele><time>2026-05-01T14:14:03.853Z</time></trkpt><trkpt lat="43.854040579307544" lon="12.46736664092058"><ele>373.0</ele><time>2026-05-01T14:14:04.853Z</time></trkpt><trkpt lat="43.854236211261885" lon="12.46746046148405"><ele>368.66666666666663</ele><time>2026-05-01T14:14:05.853Z</time></trkpt><trkpt lat="43.85441743569836" lon="12.46760095325204"><ele>364.3333333333333</ele><time>2026-05-01T14:14:06.853Z</time></trkpt><trkpt lat="43.85458776508034" lon="12.467773771602737"><ele>360.0</ele><time>2026-05-01T14:14:07.853Z</time></trkpt><trkpt lat="43.85477813782998" lon="12.467945188371939"><ele>360.0</ele><time>2026-05-01T14:14:08.853Z</time></trkpt><trkpt lat="43.85498717575286" lon="12.468126195801922"><ele>360.0</ele><time>2026-05-01T14:14:09.853Z</time></trkpt><trkpt lat="43.855200580595294" lon="12.468272766466558"><ele>367.0</ele><time>2026-05-01T14:14:10.853Z</time></trkpt><trkpt lat="43.85542351444811" lon="12.468351853162089"><ele>374.0</ele><time>2026-05-01T14:14:11.853Z</time></trkpt><trkpt lat="43.855616216261886" lon="12.468437342614735"><ele>381.0</ele><time>2026-05-01T14:14:12.853Z</time></trkpt><trkpt lat="43.8557993556173" lon="12.468507105119336"><ele>382.33333333333337</ele><time>2026-05-01T14:14:13.853Z</time></trkpt><trkpt lat="43.85595423591131" lon="12.468640435544929"><ele>383.6666666666667</ele><time>2026-05-01T14:14:14.853Z</time></trkpt><trkpt lat="43.856111538181366" lon="12.46881067830249"><ele>385.0</ele><time>2026-05-01T14:14:15.853Z</time></trkpt><trkpt lat="43.85626907289991" lon="12.469013879910483"><ele>385.0</ele><time>2026-05-01T14:14:16.853Z</time></trkpt><trkpt lat="43.856428429566506" lon="12.469233617098451"><ele>385.0</ele><time>2026-05-01T14:14:17.853Z</time></trkpt><trkpt lat="43.85656444022326" lon="12.46944329825116"><ele>385.0</ele><time>2026-05-01T14:14:18.853Z</time></trkpt><trkpt lat="43.85668903259057" lon="12.469654369903846"><ele>385.33333333333337</ele><time>2026-05-01T14:14:19.853Z</time></trkpt><trkpt lat="43.856810123363395" lon="12.469868042625643"><ele>385.66666666666663</ele><time>2026-05-01T14:14:20.853Z</time></trkpt><trkpt lat="43.85693693440363" lon="12.470073070872647"><ele>386.0</ele><time>2026-05-01T14:14:21.853Z</time></trkpt><trkpt lat="43.85707560205145" lon="12.470235770335236"><ele>386.0</ele><time>2026-05-01T14:14:22.853Z</time></trkpt><trkpt lat="43.85723002933949" lon="12.470344187795611"><ele>386.0</ele><time>2026-05-01T14:14:23.853Z</time></trkpt><trkpt lat="43.85736409032509" lon="12.470475378330661"><ele>386.0</ele><time>2026-05-01T14:14:24.853Z</time></trkpt><trkpt lat="43.857496478472385" lon="12.470588837316486"><ele>384.75</ele><time>2026-05-01T14:14:25.853Z</time></trkpt><trkpt lat="43.857610473629094" lon="12.470711048777602"><ele>383.5</ele><time>2026-05-01T14:14:26.853Z</time></trkpt><trkpt lat="43.857702733221394" lon="12.47084220829787"><ele>382.25</ele><time>2026-05-01T14:14:27.853Z</time></trkpt><trkpt lat="43.857773745406085" lon="12.47099257389772"><ele>381.0</ele><time>2026-05-01T14:14:28.853Z</time></trkpt><trkpt lat="43.85784652441022" lon="12.471148289375176"><ele>379.5</ele><time>2026-05-01T14:14:29.853Z</time></trkpt><trkpt lat="43.857883333685024" lon="12.471330489080106"><ele>378.0</ele><time>2026-05-01T14:14:30.853Z</time></trkpt><trkpt lat="43.85796024842119" lon="12.471495041561905"><ele>376.5</ele><time>2026-05-01T14:14:31.853Z</time></trkpt><trkpt lat="43.857982772256044" lon="12.471698829736557"><ele>375.0</ele><time>2026-05-01T14:14:32.853Z</time></trkpt><trkpt lat="43.858004437514545" lon="12.471910982062909"><ele>371.0</ele><time>2026-05-01T14:14:33.853Z</time></trkpt><trkpt lat="43.85802589126455" lon="12.472130691463775"><ele>367.0</ele><time>2026-05-01T14:14:34.853Z</time></trkpt><trkpt lat="43.85808887756668" lon="12.472347028177632"><ele>363.0</ele><time>2026-05-01T14:14:35.853Z</time></trkpt><trkpt lat="43.85817861877654" lon="12.472551632557765"><ele>363.0</ele><time>2026-05-01T14:14:36.852Z</time></trkpt><trkpt lat="43.85826912561922" lon="12.472767455177065"><ele>363.0</ele><time>2026-05-01T14:14:37.852Z</time></trkpt><trkpt lat="43.858325894296094" lon="12.473006572552753"><ele>363.0</ele><time>2026-05-01T14:14:38.852Z</time></trkpt><trkpt lat="43.85841328331298" lon="12.473210952270177"><ele>364.3333333333333</ele><time>2026-05-01T14:14:39.852Z</time></trkpt><trkpt lat="43.85849929332369" lon="12.473414860976634"><ele>365.66666666666663</ele><time>2026-05-01T14:14:40.852Z</time></trkpt><trkpt lat="43.85857733710601" lon="12.473618382185652"><ele>367.0</ele><time>2026-05-01T14:14:41.852Z</time></trkpt><trkpt lat="43.858643060993245" lon="12.473835775848658"><ele>367.0</ele><time>2026-05-01T14:14:42.852Z</time></trkpt><trkpt lat="43.858700040079" lon="12.474055504401719"><ele>367.0</ele><time>2026-05-01T14:14:43.852Z</time></trkpt><trkpt lat="43.858742110583385" lon="12.47426368989169"><ele>367.0</ele><time>2026-05-01T14:14:44.852Z</time></trkpt><trkpt lat="43.858780696240395" lon="12.474462779795788"><ele>364.40000000000003</ele><time>2026-05-01T14:14:45.852Z</time></trkpt><trkpt lat="43.85881620950541" lon="12.474626896020393"><ele>361.8</ele><time>2026-05-01T14:14:46.852Z</time></trkpt><trkpt lat="43.858869208563355" lon="12.474746244992762"><ele>359.2</ele><time>2026-05-01T14:14:47.852Z</time></trkpt><trkpt lat="43.85889405837061" lon="12.47487511203262"><ele>356.6</ele><time>2026-05-01T14:14:48.852Z</time></trkpt><trkpt lat="43.85899923250675" lon="12.474946566799934"><ele>354.0</ele><time>2026-05-01T14:14:49.852Z</time></trkpt><trkpt lat="43.85908451237158" lon="12.475004707103748"><ele>354.0</ele><time>2026-05-01T14:14:50.852Z</time></trkpt><trkpt lat="43.85916156654918" lon="12.475012927558145"><ele>354.0</ele><time>2026-05-01T14:14:51.852Z</time></trkpt><trkpt lat="43.85925688420598" lon="12.474977708879996"><ele>354.0</ele><time>2026-05-01T14:14:52.852Z</time></trkpt><trkpt lat="43.85937297280035" lon="12.474896723596096"><ele>354.0</ele><time>2026-05-01T14:14:53.852Z</time></trkpt><trkpt lat="43.85948742818112" lon="12.474802093577175"><ele>354.0</ele><time>2026-05-01T14:14:54.852Z</time></trkpt><trkpt lat="43.85961410442226" lon="12.47475532668453"><ele>351.75</ele><time>2026-05-01T14:14:55.852Z</time></trkpt><trkpt lat="43.85973496357014" lon="12.47473288748868"><ele>349.5</ele><time>2026-05-01T14:14:56.852Z</time></trkpt><trkpt lat="43.85986272385051" lon="12.474725181993007"><ele>347.25</ele><time>2026-05-01T14:14:57.852Z</time></trkpt><trkpt lat="43.85998822452904" lon="12.474758952361196"><ele>345.0</ele><time>2026-05-01T14:14:58.852Z</time></trkpt><trkpt lat="43.860113581777284" lon="12.474827836882413"><ele>349.0</ele><time>2026-05-01T14:14:59.852Z</time></trkpt><trkpt lat="43.86023883780738" lon="12.47489383399065"><ele>353.0</ele><time>2026-05-01T14:15:00.852Z</time></trkpt><trkpt lat="43.86034591144535" lon="12.474963513058047"><ele>357.0</ele><time>2026-05-01T14:15:01.851Z</time></trkpt><trkpt lat="43.860434305443235" lon="12.47504934481341"><ele>361.0</ele><time>2026-05-01T14:15:02.852Z</time></trkpt><trkpt lat="43.86051929322784" lon="12.475148883251297"><ele>361.0</ele><time>2026-05-01T14:15:03.852Z</time></trkpt><trkpt lat="43.86060416479254" lon="12.47525527174864"><ele>361.0</ele><time>2026-05-01T14:15:04.852Z</time></trkpt><trkpt lat="43.86069508997586" lon="12.475348250208254"><ele>361.0</ele><time>2026-05-01T14:15:05.851Z</time></trkpt><trkpt lat="43.86078582205065" lon="12.475447572819045"><ele>361.0</ele><time>2026-05-01T14:15:06.851Z</time></trkpt><trkpt lat="43.860873308560926" lon="12.475540073137264"><ele>361.20000000000005</ele><time>2026-05-01T14:15:07.851Z</time></trkpt><trkpt lat="43.860959627199676" lon="12.47563130814224"><ele>361.40000000000003</ele><time>2026-05-01T14:15:08.852Z</time></trkpt><trkpt lat="43.86103870814438" lon="12.475725010062149"><ele>361.6</ele><time>2026-05-01T14:15:09.852Z</time></trkpt><trkpt lat="43.86111932594667" lon="12.47581120033589"><ele>361.8</ele><time>2026-05-01T14:15:10.852Z</time></trkpt><trkpt lat="43.861200694346934" lon="12.475894899166681"><ele>362.0</ele><time>2026-05-01T14:15:11.852Z</time></trkpt><trkpt lat="43.861281687105816" lon="12.4759737729476"><ele>362.0</ele><time>2026-05-01T14:15:12.852Z</time></trkpt><trkpt lat="43.861371785739415" lon="12.476054412398614"><ele>362.0</ele><time>2026-05-01T14:15:13.852Z</time></trkpt><trkpt lat="43.86146824935881" lon="12.476123478094781"><ele>362.0</ele><time>2026-05-01T14:15:14.852Z</time></trkpt><trkpt lat="43.86156518680997" lon="12.476200240866653"><ele>362.0</ele><time>2026-05-01T14:15:15.852Z</time></trkpt><trkpt lat="43.86166707724823" lon="12.476290646121496"><ele>362.0</ele><time>2026-05-01T14:15:16.852Z</time></trkpt><trkpt lat="43.86177243558927" lon="12.476379606777817"><ele>360.5</ele><time>2026-05-01T14:15:17.852Z</time></trkpt><trkpt lat="43.861881854481354" lon="12.476474447035454"><ele>359.0</ele><time>2026-05-01T14:15:18.852Z</time></trkpt><trkpt lat="43.86199799632837" lon="12.476568820201438"><ele>357.5</ele><time>2026-05-01T14:15:19.852Z</time></trkpt><trkpt lat="43.862124149642426" lon="12.476662496462355"><ele>356.0</ele><time>2026-05-01T14:15:20.852Z</time></trkpt><trkpt lat="43.862243214298594" lon="12.476756378795953"><ele>356.0</ele><time>2026-05-01T14:15:21.852Z</time></trkpt><trkpt lat="43.862359023692406" lon="12.476853047510469"><ele>356.0</ele><time>2026-05-01T14:15:22.852Z</time></trkpt><trkpt lat="43.86247616465174" lon="12.476948926181441"><ele>356.0</ele><time>2026-05-01T14:15:23.852Z</time></trkpt><trkpt lat="43.862591768594704" lon="12.47705389423913"><ele>356.0</ele><time>2026-05-01T14:15:24.852Z</time></trkpt><trkpt lat="43.86271742763704" lon="12.477160321141465"><ele>355.0</ele><time>2026-05-01T14:15:25.852Z</time></trkpt><trkpt lat="43.862856110004316" lon="12.477282637007317"><ele>354.0</ele><time>2026-05-01T14:15:26.852Z</time></trkpt><trkpt lat="43.86300590646964" lon="12.477417683859429"><ele>353.0</ele><time>2026-05-01T14:15:27.852Z</time></trkpt><trkpt lat="43.86318340489606" lon="12.477553001673797"><ele>353.0</ele><time>2026-05-01T14:15:28.852Z</time></trkpt><trkpt lat="43.863367434069076" lon="12.477658221603678"><ele>353.0</ele><time>2026-05-01T14:15:29.852Z</time></trkpt><trkpt lat="43.86353571005956" lon="12.47771397332298"><ele>353.0</ele><time>2026-05-01T14:15:30.852Z</time></trkpt><trkpt lat="43.86370513672856" lon="12.47775992065398"><ele>351.33333333333337</ele><time>2026-05-01T14:15:31.852Z</time></trkpt><trkpt lat="43.86386834442299" lon="12.47784182643288"><ele>349.6666666666667</ele><time>2026-05-01T14:15:32.852Z</time></trkpt><trkpt lat="43.864020284459905" lon="12.477943250856338"><ele>348.0</ele><time>2026-05-01T14:15:33.852Z</time></trkpt><trkpt lat="43.8641747550736" lon="12.478055976531795"><ele>354.0</ele><time>2026-05-01T14:15:34.852Z</time></trkpt><trkpt lat="43.864295725206844" lon="12.478228646319215"><ele>360.0</ele><time>2026-05-01T14:15:35.852Z</time></trkpt><trkpt lat="43.864420519767194" lon="12.47841769221196"><ele>366.0</ele><time>2026-05-01T14:15:36.852Z</time></trkpt><trkpt lat="43.864526612356954" lon="12.478620391881794"><ele>360.0</ele><time>2026-05-01T14:15:37.852Z</time></trkpt><trkpt lat="43.864622280761004" lon="12.478833627824502"><ele>354.0</ele><time>2026-05-01T14:15:38.852Z</time></trkpt><trkpt lat="43.86470108760938" lon="12.479047740647866"><ele>348.0</ele><time>2026-05-01T14:15:39.852Z</time></trkpt><trkpt lat="43.86477944019631" lon="12.479285913861013"><ele>348.0</ele><time>2026-05-01T14:15:40.852Z</time></trkpt><trkpt lat="43.86484734738414" lon="12.47949032074428"><ele>348.0</ele><time>2026-05-01T14:15:41.852Z</time></trkpt><trkpt lat="43.86490680700742" lon="12.479695100829915"><ele>348.0</ele><time>2026-05-01T14:15:42.852Z</time></trkpt><trkpt lat="43.86497467787942" lon="12.47987273892801"><ele>346.25</ele><time>2026-05-01T14:15:43.852Z</time></trkpt><trkpt lat="43.865047655001376" lon="12.480038510783233"><ele>344.5</ele><time>2026-05-01T14:15:44.852Z</time></trkpt><trkpt lat="43.8651070994521" lon="12.48020255833526"><ele>342.75</ele><time>2026-05-01T14:15:45.852Z</time></trkpt><trkpt lat="43.865185329843186" lon="12.480370535868271"><ele>341.0</ele><time>2026-05-01T14:15:46.852Z</time></trkpt><trkpt lat="43.86529010062778" lon="12.480521139207559"><ele>339.0</ele><time>2026-05-01T14:15:47.852Z</time></trkpt><trkpt lat="43.8654278062986" lon="12.480648032093091"><ele>337.0</ele><time>2026-05-01T14:15:48.852Z</time></trkpt><trkpt lat="43.86557032488827" lon="12.480741756735139"><ele>335.0</ele><time>2026-05-01T14:15:49.852Z</time></trkpt><trkpt lat="43.8656945886845" lon="12.480851519861698"><ele>335.0</ele><time>2026-05-01T14:15:50.852Z</time></trkpt><trkpt lat="43.86580098416269" lon="12.48096077430033"><ele>335.0</ele><time>2026-05-01T14:15:51.852Z</time></trkpt><trkpt lat="43.86585075839346" lon="12.481125109763132"><ele>335.0</ele><time>2026-05-01T14:15:52.852Z</time></trkpt><trkpt lat="43.86589334680865" lon="12.481277778091892"><ele>335.0</ele><time>2026-05-01T14:15:53.852Z</time></trkpt><trkpt lat="43.8658932895972" lon="12.48144007759213"><ele>334.0</ele><time>2026-05-01T14:15:54.852Z</time></trkpt><trkpt lat="43.865913214071256" lon="12.481634488874374"><ele>333.0</ele><time>2026-05-01T14:15:55.852Z</time></trkpt><trkpt lat="43.86595478124207" lon="12.48182481195129"><ele>332.0</ele><time>2026-05-01T14:15:56.852Z</time></trkpt><trkpt lat="43.86595658164506" lon="12.48200815699598"><ele>331.0</ele><time>2026-05-01T14:15:57.852Z</time></trkpt><trkpt lat="43.865983204329844" lon="12.482148524666423"><ele>331.0</ele><time>2026-05-01T14:15:58.851Z</time></trkpt><trkpt lat="43.86599567583154" lon="12.482276233934058"><ele>331.0</ele><time>2026-05-01T14:15:59.851Z</time></trkpt><trkpt lat="43.86599471561386" lon="12.482393278853602"><ele>331.0</ele><time>2026-05-01T14:16:00.851Z</time></trkpt><trkpt lat="43.86598793709953" lon="12.482507967541352"><ele>331.0</ele><time>2026-05-01T14:16:01.851Z</time></trkpt><trkpt lat="43.86598435627459" lon="12.482619842951442"><ele>331.0</ele><time>2026-05-01T14:16:02.851Z</time></trkpt><trkpt lat="43.86599547525754" lon="12.482708983256842"><ele>331.0</ele><time>2026-05-01T14:16:03.851Z</time></trkpt><trkpt lat="43.865988668789726" lon="12.482848412570675"><ele>331.0</ele><time>2026-05-01T14:16:05.851Z</time></trkpt><trkpt lat="43.86619402802075" lon="12.482805714781565"><ele>331.0</ele><time>2026-05-01T14:16:06.851Z</time></trkpt><trkpt lat="43.8662600066761" lon="12.48285652466374"><ele>331.0</ele><time>2026-05-01T14:16:07.851Z</time></trkpt><trkpt lat="43.86634510323472" lon="12.482921517331626"><ele>331.0</ele><time>2026-05-01T14:16:08.851Z</time></trkpt><trkpt lat="43.86644285458157" lon="12.483018943333116"><ele>330.25</ele><time>2026-05-01T14:16:09.851Z</time></trkpt><trkpt lat="43.86656693130257" lon="12.48307985665835"><ele>329.5</ele><time>2026-05-01T14:16:10.851Z</time></trkpt><trkpt lat="43.86667262901488" lon="12.483170080110645"><ele>328.75</ele><time>2026-05-01T14:16:11.851Z</time></trkpt><trkpt lat="43.86673864135621" lon="12.483283897274534"><ele>328.0</ele><time>2026-05-01T14:16:12.851Z</time></trkpt><trkpt lat="43.86679424199108" lon="12.483454247962374"><ele>331.0</ele><time>2026-05-01T14:16:13.851Z</time></trkpt><trkpt lat="43.866847786494134" lon="12.48363974229069"><ele>334.0</ele><time>2026-05-01T14:16:14.851Z</time></trkpt><trkpt lat="43.86689190591992" lon="12.483825258881406"><ele>337.0</ele><time>2026-05-01T14:16:15.851Z</time></trkpt><trkpt lat="43.86694798454605" lon="12.483995850806831"><ele>340.0</ele><time>2026-05-01T14:16:16.851Z</time></trkpt><trkpt lat="43.86701838868449" lon="12.484145546855299"><ele>340.0</ele><time>2026-05-01T14:16:17.851Z</time></trkpt><trkpt lat="43.867122120546576" lon="12.48428143252415"><ele>340.0</ele><time>2026-05-01T14:16:18.851Z</time></trkpt><trkpt lat="43.86725018960418" lon="12.48441608714204"><ele>340.0</ele><time>2026-05-01T14:16:19.851Z</time></trkpt><trkpt lat="43.86736598451223" lon="12.484531165148999"><ele>340.0</ele><time>2026-05-01T14:16:20.851Z</time></trkpt><trkpt lat="43.86745937786791" lon="12.484620386410116"><ele>339.8</ele><time>2026-05-01T14:16:21.851Z</time></trkpt><trkpt lat="43.867531198406816" lon="12.484696461496288"><ele>339.6</ele><time>2026-05-01T14:16:22.851Z</time></trkpt><trkpt lat="43.86761307580865" lon="12.484750697447279"><ele>339.4</ele><time>2026-05-01T14:16:23.851Z</time></trkpt><trkpt lat="43.86771771241953" lon="12.48475621252959"><ele>339.2</ele><time>2026-05-01T14:16:24.851Z</time></trkpt><trkpt lat="43.86784515112775" lon="12.484725793113356"><ele>339.0</ele><time>2026-05-01T14:16:25.851Z</time></trkpt><trkpt lat="43.8679813470055" lon="12.484673888509647"><ele>339.0</ele><time>2026-05-01T14:16:26.851Z</time></trkpt><trkpt lat="43.86810796183106" lon="12.484610548484735"><ele>339.0</ele><time>2026-05-01T14:16:27.851Z</time></trkpt><trkpt lat="43.86823073948311" lon="12.484562412010385"><ele>339.0</ele><time>2026-05-01T14:16:28.851Z</time></trkpt><trkpt lat="43.8683522472424" lon="12.484540593891364"><ele>339.0</ele><time>2026-05-01T14:16:29.851Z</time></trkpt><trkpt lat="43.86845066663195" lon="12.484588822264243"><ele>340.5</ele><time>2026-05-01T14:16:30.851Z</time></trkpt><trkpt lat="43.868545617701464" lon="12.484638203326583"><ele>342.0</ele><time>2026-05-01T14:16:31.851Z</time></trkpt><trkpt lat="43.86865648034091" lon="12.484761359608655"><ele>343.5</ele><time>2026-05-01T14:16:32.851Z</time></trkpt><trkpt lat="43.86876955743794" lon="12.484868119163462"><ele>345.0</ele><time>2026-05-01T14:16:33.851Z</time></trkpt><trkpt lat="43.86886967355555" lon="12.484924615152476"><ele>345.0</ele><time>2026-05-01T14:16:34.851Z</time></trkpt><trkpt lat="43.868947100812655" lon="12.484970952589618"><ele>345.0</ele><time>2026-05-01T14:16:35.851Z</time></trkpt><trkpt lat="43.86901160912096" lon="12.484980934861658"><ele>345.0</ele><time>2026-05-01T14:16:36.851Z</time></trkpt><trkpt lat="43.86907973489057" lon="12.484961660815683"><ele>345.0</ele><time>2026-05-01T14:16:37.851Z</time></trkpt><trkpt lat="43.86915751762999" lon="12.484914118058434"><ele>345.0</ele><time>2026-05-01T14:16:38.851Z</time></trkpt><trkpt lat="43.869213813967185" lon="12.484787212059569"><ele>345.0</ele><time>2026-05-01T14:16:39.851Z</time></trkpt><trkpt lat="43.869256118368234" lon="12.484672256328777"><ele>348.2</ele><time>2026-05-01T14:16:40.851Z</time></trkpt><trkpt lat="43.86925490752329" lon="12.48456170689248"><ele>351.4</ele><time>2026-05-01T14:16:41.851Z</time></trkpt><trkpt lat="43.86922956459707" lon="12.48447209513451"><ele>354.6</ele><time>2026-05-01T14:16:42.851Z</time></trkpt><trkpt lat="43.86917360556322" lon="12.48439505623928"><ele>357.8</ele><time>2026-05-01T14:16:43.851Z</time></trkpt><trkpt lat="43.86909646648015" lon="12.484337359744847"><ele>361.0</ele><time>2026-05-01T14:16:44.851Z</time></trkpt><trkpt lat="43.868949035175376" lon="12.48429653763978"><ele>361.0</ele><time>2026-05-01T14:16:45.851Z</time></trkpt><trkpt lat="43.86879822178055" lon="12.484216792934227"><ele>361.0</ele><time>2026-05-01T14:16:46.851Z</time></trkpt><trkpt lat="43.86867090442294" lon="12.484124998894792"><ele>361.0</ele><time>2026-05-01T14:16:47.851Z</time></trkpt><trkpt lat="43.868578831921056" lon="12.484058233977322"><ele>361.0</ele><time>2026-05-01T14:16:48.851Z</time></trkpt><trkpt lat="43.868534662344636" lon="12.483952900379546"><ele>361.0</ele><time>2026-05-01T14:16:49.851Z</time></trkpt><trkpt lat="43.86855892589099" lon="12.483823539781183"><ele>361.0</ele><time>2026-05-01T14:16:50.851Z</time></trkpt><trkpt lat="43.86862602006211" lon="12.483718083754578"><ele>361.0</ele><time>2026-05-01T14:16:51.851Z</time></trkpt><trkpt lat="43.868733222175806" lon="12.483645649220938"><ele>361.0</ele><time>2026-05-01T14:16:52.851Z</time></trkpt><trkpt lat="43.86884610534201" lon="12.483518244602275"><ele>366.3333333333333</ele><time>2026-05-01T14:16:53.851Z</time></trkpt><trkpt lat="43.86898475101934" lon="12.483367460593872"><ele>371.6666666666667</ele><time>2026-05-01T14:16:54.851Z</time></trkpt><trkpt lat="43.86911700890896" lon="12.483248058387208"><ele>377.0</ele><time>2026-05-01T14:16:55.851Z</time></trkpt><trkpt lat="43.86925523254332" lon="12.483147040131204"><ele>375.5</ele><time>2026-05-01T14:16:56.851Z</time></trkpt><trkpt lat="43.869358558571875" lon="12.483051486848378"><ele>374.0</ele><time>2026-05-01T14:16:57.851Z</time></trkpt><trkpt lat="43.869400513587536" lon="12.482938554625335"><ele>372.5</ele><time>2026-05-01T14:16:58.851Z</time></trkpt><trkpt lat="43.86943551354346" lon="12.482798766770268"><ele>371.0</ele><time>2026-05-01T14:16:59.851Z</time></trkpt><trkpt lat="43.86944500359672" lon="12.482618161193743"><ele>371.0</ele><time>2026-05-01T14:17:00.851Z</time></trkpt><trkpt lat="43.869446106137225" lon="12.482427925326112"><ele>371.0</ele><time>2026-05-01T14:17:01.851Z</time></trkpt><trkpt lat="43.869490275511716" lon="12.482275534045117"><ele>371.0</ele><time>2026-05-01T14:17:02.851Z</time></trkpt><trkpt lat="43.869554858769376" lon="12.482169811776217"><ele>371.0</ele><time>2026-05-01T14:17:03.851Z</time></trkpt><trkpt lat="43.86963674195599" lon="12.482076943985174"><ele>377.0</ele><time>2026-05-01T14:17:04.85Z</time></trkpt><trkpt lat="43.86976385340613" lon="12.481937695644662"><ele>383.0</ele><time>2026-05-01T14:17:05.851Z</time></trkpt><trkpt lat="43.86992490971446" lon="12.48176230035001"><ele>389.0</ele><time>2026-05-01T14:17:06.851Z</time></trkpt><trkpt lat="43.870050983682546" lon="12.48162254780115"><ele>389.4</ele><time>2026-05-01T14:17:07.85Z</time></trkpt><trkpt lat="43.87013980674451" lon="12.48149900156956"><ele>389.79999999999995</ele><time>2026-05-01T14:17:08.85Z</time></trkpt><trkpt lat="43.87021748328798" lon="12.48140533344817"><ele>390.20000000000005</ele><time>2026-05-01T14:17:09.85Z</time></trkpt><trkpt lat="43.870262649993656" lon="12.481278617889737"><ele>390.6</ele><time>2026-05-01T14:17:10.85Z</time></trkpt><trkpt lat="43.87029376903604" lon="12.481120546549995"><ele>391.0</ele><time>2026-05-01T14:17:11.85Z</time></trkpt><trkpt lat="43.87030492639287" lon="12.480936229774581"><ele>391.0</ele><time>2026-05-01T14:17:12.85Z</time></trkpt><trkpt lat="43.87030630893" lon="12.48073041616068"><ele>391.0</ele><time>2026-05-01T14:17:13.85Z</time></trkpt><trkpt lat="43.87032534381847" lon="12.480517528835787"><ele>391.0</ele><time>2026-05-01T14:17:14.85Z</time></trkpt><trkpt lat="43.87033128624593" lon="12.480313193692472"><ele>393.0</ele><time>2026-05-01T14:17:15.85Z</time></trkpt><trkpt lat="43.87035641471013" lon="12.480139762044464"><ele>395.0</ele><time>2026-05-01T14:17:16.85Z</time></trkpt><trkpt lat="43.87041609714998" lon="12.479988678432239"><ele>397.0</ele><time>2026-05-01T14:17:17.85Z</time></trkpt><trkpt lat="43.87050563987947" lon="12.479825544987285"><ele>399.0</ele><time>2026-05-01T14:17:18.849Z</time></trkpt><trkpt lat="43.870608429133185" lon="12.479637884480555"><ele>401.33333333333337</ele><time>2026-05-01T14:17:19.849Z</time></trkpt><trkpt lat="43.870706602532856" lon="12.47945588675051"><ele>403.6666666666667</ele><time>2026-05-01T14:17:20.849Z</time></trkpt><trkpt lat="43.87080131018757" lon="12.479311786276252"><ele>406.0</ele><time>2026-05-01T14:17:21.849Z</time></trkpt><trkpt lat="43.87089012983999" lon="12.479149255065106"><ele>406.5</ele><time>2026-05-01T14:17:22.849Z</time></trkpt><trkpt lat="43.87095475122168" lon="12.47898606440944"><ele>407.0</ele><time>2026-05-01T14:17:23.849Z</time></trkpt><trkpt lat="43.8709939599817" lon="12.478796331118827"><ele>407.5</ele><time>2026-05-01T14:17:24.849Z</time></trkpt><trkpt lat="43.871011096030664" lon="12.478596989389056"><ele>408.0</ele><time>2026-05-01T14:17:25.849Z</time></trkpt><trkpt lat="43.8710175560683" lon="12.47836895565051"><ele>408.0</ele><time>2026-05-01T14:17:26.849Z</time></trkpt><trkpt lat="43.87101503943485" lon="12.47813126719092"><ele>408.0</ele><time>2026-05-01T14:17:27.849Z</time></trkpt><trkpt lat="43.87102752086731" lon="12.47789585376985"><ele>408.0</ele><time>2026-05-01T14:17:28.849Z</time></trkpt><trkpt lat="43.871049172194084" lon="12.477684784784842"><ele>409.75</ele><time>2026-05-01T14:17:29.849Z</time></trkpt><trkpt lat="43.871062602222935" lon="12.477510575265798"><ele>411.5</ele><time>2026-05-01T14:17:30.849Z</time></trkpt><trkpt lat="43.87108434431821" lon="12.477343707992768"><ele>413.25</ele><time>2026-05-01T14:17:31.849Z</time></trkpt><trkpt lat="43.87114312739776" lon="12.477201331146748"><ele>415.0</ele><time>2026-05-01T14:17:32.849Z</time></trkpt><trkpt lat="43.871238042129065" lon="12.477092456073708"><ele>417.0</ele><time>2026-05-01T14:17:33.849Z</time></trkpt><trkpt lat="43.87135267058566" lon="12.477020454067361"><ele>419.0</ele><time>2026-05-01T14:17:34.849Z</time></trkpt><trkpt lat="43.871483240371255" lon="12.476976312769306"><ele>421.0</ele><time>2026-05-01T14:17:35.849Z</time></trkpt><trkpt lat="43.87164500816411" lon="12.476960818681055"><ele>423.0</ele><time>2026-05-01T14:17:36.849Z</time></trkpt><trkpt lat="43.871814055893864" lon="12.477005521270076"><ele>427.0</ele><time>2026-05-01T14:17:37.849Z</time></trkpt><trkpt lat="43.8720300961569" lon="12.477021924174473"><ele>431.0</ele><time>2026-05-01T14:17:38.849Z</time></trkpt><trkpt lat="43.8722652213785" lon="12.477075210688369"><ele>431.0</ele><time>2026-05-01T14:17:39.849Z</time></trkpt><trkpt lat="43.87245186672353" lon="12.477095495777402"><ele>431.0</ele><time>2026-05-01T14:17:40.849Z</time></trkpt><trkpt lat="43.87261108866034" lon="12.477112845035355"><ele>431.0</ele><time>2026-05-01T14:17:41.849Z</time></trkpt><trkpt lat="43.87275465740811" lon="12.477119891936768"><ele>429.8</ele><time>2026-05-01T14:17:42.849Z</time></trkpt><trkpt lat="43.872869809707105" lon="12.47711511164478"><ele>428.6</ele><time>2026-05-01T14:17:43.849Z</time></trkpt><trkpt lat="43.87295670947704" lon="12.47708525133303"><ele>427.4</ele><time>2026-05-01T14:17:44.849Z</time></trkpt><trkpt lat="43.87301708938699" lon="12.477000011549908"><ele>426.2</ele><time>2026-05-01T14:17:45.849Z</time></trkpt><trkpt lat="43.87306945385052" lon="12.47688025593877"><ele>425.0</ele><time>2026-05-01T14:17:46.849Z</time></trkpt><trkpt lat="43.8730855131586" lon="12.476727279588346"><ele>425.0</ele><time>2026-05-01T14:17:47.849Z</time></trkpt><trkpt lat="43.87307529856854" lon="12.476559582184306"><ele>425.0</ele><time>2026-05-01T14:17:48.849Z</time></trkpt><trkpt lat="43.87302473124748" lon="12.476402724072969"><ele>425.0</ele><time>2026-05-01T14:17:49.849Z</time></trkpt><trkpt lat="43.872940442687565" lon="12.476262040700478"><ele>425.0</ele><time>2026-05-01T14:17:50.849Z</time></trkpt><trkpt lat="43.87282628186893" lon="12.476116921224271"><ele>426.3333333333333</ele><time>2026-05-01T14:17:51.849Z</time></trkpt><trkpt lat="43.87271750629752" lon="12.475932739317846"><ele>427.66666666666663</ele><time>2026-05-01T14:17:52.849Z</time></trkpt><trkpt lat="43.87258475806726" lon="12.475726697150566"><ele>429.0</ele><time>2026-05-01T14:17:53.849Z</time></trkpt><trkpt lat="43.87242346077435" lon="12.475478930827359"><ele>435.0</ele><time>2026-05-01T14:17:54.849Z</time></trkpt><trkpt lat="43.87225943663613" lon="12.475233638947046"><ele>441.0</ele><time>2026-05-01T14:17:55.849Z</time></trkpt><trkpt lat="43.872089370446176" lon="12.474985234048145"><ele>441.0</ele><time>2026-05-01T14:17:56.849Z</time></trkpt><trkpt lat="43.87189807520773" lon="12.474725321431569"><ele>441.0</ele><time>2026-05-01T14:17:57.849Z</time></trkpt><trkpt lat="43.87171491774448" lon="12.474480381439706"><ele>446.33333333333337</ele><time>2026-05-01T14:17:58.849Z</time></trkpt><trkpt lat="43.87155651335161" lon="12.474269356606278"><ele>451.6666666666667</ele><time>2026-05-01T14:17:59.849Z</time></trkpt><trkpt lat="43.87139929659991" lon="12.474081408757618"><ele>457.0</ele><time>2026-05-01T14:18:00.849Z</time></trkpt><trkpt lat="43.87128722817286" lon="12.473897328382723"><ele>459.0</ele><time>2026-05-01T14:18:01.849Z</time></trkpt><trkpt lat="43.87116044558951" lon="12.473749500473879"><ele>461.0</ele><time>2026-05-01T14:18:02.849Z</time></trkpt><trkpt lat="43.87107949128452" lon="12.473585177881452"><ele>463.0</ele><time>2026-05-01T14:18:03.849Z</time></trkpt><trkpt lat="43.87101627991034" lon="12.473444296220523"><ele>465.0</ele><time>2026-05-01T14:18:04.849Z</time></trkpt><trkpt lat="43.87099259659069" lon="12.473313256876052"><ele>465.0</ele><time>2026-05-01T14:18:05.849Z</time></trkpt><trkpt lat="43.8710203491084" lon="12.47317220731572"><ele>465.0</ele><time>2026-05-01T14:18:06.849Z</time></trkpt><trkpt lat="43.87102824985908" lon="12.472984042290134"><ele>465.0</ele><time>2026-05-01T14:18:07.849Z</time></trkpt><trkpt lat="43.871009467035115" lon="12.47284320086073"><ele>465.0</ele><time>2026-05-01T14:18:08.849Z</time></trkpt><trkpt lat="43.87095120943865" lon="12.472721259586507"><ele>465.66666666666663</ele><time>2026-05-01T14:18:09.849Z</time></trkpt><trkpt lat="43.87084412381637" lon="12.472632675927814"><ele>466.3333333333333</ele><time>2026-05-01T14:18:10.849Z</time></trkpt><trkpt lat="43.87069313826779" lon="12.472567980655109"><ele>467.0</ele><time>2026-05-01T14:18:11.849Z</time></trkpt><trkpt lat="43.87051828175773" lon="12.472534243425663"><ele>467.0</ele><time>2026-05-01T14:18:12.849Z</time></trkpt><trkpt lat="43.87039706162524" lon="12.472442607021597"><ele>467.0</ele><time>2026-05-01T14:18:13.849Z</time></trkpt><trkpt lat="43.87029766862039" lon="12.472303992282896"><ele>467.0</ele><time>2026-05-01T14:18:14.849Z</time></trkpt><trkpt lat="43.87017295471637" lon="12.472157247590049"><ele>467.0</ele><time>2026-05-01T14:18:15.849Z</time></trkpt><trkpt lat="43.87004592631318" lon="12.47210848145907"><ele>466.75</ele><time>2026-05-01T14:18:16.849Z</time></trkpt><trkpt lat="43.869934555576606" lon="12.47213129629109"><ele>466.5</ele><time>2026-05-01T14:18:17.849Z</time></trkpt><trkpt lat="43.86980316424796" lon="12.472187862955453"><ele>466.25</ele><time>2026-05-01T14:18:18.849Z</time></trkpt><trkpt lat="43.86964263854287" lon="12.472226663396981"><ele>466.0</ele><time>2026-05-01T14:18:19.849Z</time></trkpt><trkpt lat="43.86948554073391" lon="12.472299521771907"><ele>466.0</ele><time>2026-05-01T14:18:20.849Z</time></trkpt><trkpt lat="43.8693175595416" lon="12.472260736283314"><ele>466.0</ele><time>2026-05-01T14:18:21.849Z</time></trkpt><trkpt lat="43.86914541851865" lon="12.472229691983085"><ele>466.0</ele><time>2026-05-01T14:18:22.849Z</time></trkpt><trkpt lat="43.868968727538274" lon="12.472182021895962"><ele>468.0</ele><time>2026-05-01T14:18:23.849Z</time></trkpt><trkpt lat="43.86882705437798" lon="12.472148572626207"><ele>470.0</ele><time>2026-05-01T14:18:24.849Z</time></trkpt><trkpt lat="43.86870557212784" lon="12.472146008698443"><ele>472.0</ele><time>2026-05-01T14:18:25.849Z</time></trkpt><trkpt lat="43.86858836091798" lon="12.472151446796525"><ele>474.0</ele><time>2026-05-01T14:18:26.849Z</time></trkpt><trkpt lat="43.86848372928996" lon="12.472200781602618"><ele>478.5</ele><time>2026-05-01T14:18:27.849Z</time></trkpt><trkpt lat="43.868390032237436" lon="12.472294154375776"><ele>483.0</ele><time>2026-05-01T14:18:28.849Z</time></trkpt><trkpt lat="43.86830439605976" lon="12.472431802745811"><ele>487.5</ele><time>2026-05-01T14:18:29.849Z</time></trkpt><trkpt lat="43.86823505992908" lon="12.472617343671347"><ele>492.0</ele><time>2026-05-01T14:18:30.849Z</time></trkpt><trkpt lat="43.868159404037954" lon="12.472815157768887"><ele>488.33333333333337</ele><time>2026-05-01T14:18:31.849Z</time></trkpt><trkpt lat="43.86808055983541" lon="12.473033171312892"><ele>484.6666666666667</ele><time>2026-05-01T14:18:32.849Z</time></trkpt><trkpt lat="43.868002308579435" lon="12.473225145804049"><ele>481.0</ele><time>2026-05-01T14:18:33.849Z</time></trkpt><trkpt lat="43.867924515708886" lon="12.473370715899959"><ele>481.0</ele><time>2026-05-01T14:18:34.849Z</time></trkpt><trkpt lat="43.867835583489615" lon="12.473458822166185"><ele>481.0</ele><time>2026-05-01T14:18:35.849Z</time></trkpt><trkpt lat="43.86775555630781" lon="12.473456444480842"><ele>481.0</ele><time>2026-05-01T14:18:36.849Z</time></trkpt><trkpt lat="43.86768514215976" lon="12.473414194803823"><ele>481.0</ele><time>2026-05-01T14:18:37.849Z</time></trkpt><trkpt lat="43.86759006296911" lon="12.473367483700585"><ele>481.0</ele><time>2026-05-01T14:18:38.849Z</time></trkpt><trkpt lat="43.86748614984657" lon="12.473279432244492"><ele>488.0</ele><time>2026-05-01T14:18:39.849Z</time></trkpt><trkpt lat="43.86735519905796" lon="12.473149858827314"><ele>495.0</ele><time>2026-05-01T14:18:40.849Z</time></trkpt><trkpt lat="43.86722890233369" lon="12.473002229213773"><ele>502.0</ele><time>2026-05-01T14:18:41.849Z</time></trkpt><trkpt lat="43.867119948013865" lon="12.47286822816397"><ele>502.6</ele><time>2026-05-01T14:18:42.849Z</time></trkpt><trkpt lat="43.8670333938456" lon="12.472742216512739"><ele>503.20000000000005</ele><time>2026-05-01T14:18:43.849Z</time></trkpt><trkpt lat="43.86696204522598" lon="12.47264237400602"><ele>503.8</ele><time>2026-05-01T14:18:44.849Z</time></trkpt><trkpt lat="43.86689308921737" lon="12.472551696189694"><ele>504.4</ele><time>2026-05-01T14:18:45.848Z</time></trkpt><trkpt lat="43.86682988478971" lon="12.47246796442926"><ele>505.0</ele><time>2026-05-01T14:18:46.848Z</time></trkpt><trkpt lat="43.86677114176236" lon="12.472389425183566"><ele>507.0</ele><time>2026-05-01T14:18:47.848Z</time></trkpt><trkpt lat="43.866721970802885" lon="12.472333622123665"><ele>509.0</ele><time>2026-05-01T14:18:48.848Z</time></trkpt><trkpt lat="43.8666574531644" lon="12.47223779754515"><ele>511.0</ele><time>2026-05-01T14:18:50.848Z</time></trkpt><trkpt lat="43.86660300913094" lon="12.472149290636512"><ele>513.0</ele><time>2026-05-01T14:18:53.848Z</time></trkpt><trkpt lat="43.86650562889334" lon="12.472276418414317"><ele>515.0</ele><time>2026-05-01T14:18:58.848Z</time></trkpt><trkpt lat="43.86646142642818" lon="12.472418567943079"><ele>515.0</ele><time>2026-05-01T14:19:00.848Z</time></trkpt><trkpt lat="43.8664675252508" lon="12.472526278731895"><ele>515.0</ele><time>2026-05-01T14:19:01.848Z</time></trkpt><trkpt lat="43.866481467702144" lon="12.472615151463712"><ele>515.0</ele><time>2026-05-01T14:19:02.848Z</time></trkpt><trkpt lat="43.86651038792911" lon="12.472767251649707"><ele>515.0</ele><time>2026-05-01T14:19:04.848Z</time></trkpt><trkpt lat="43.866536198101315" lon="12.472914492701642"><ele>515.0</ele><time>2026-05-01T14:19:06.848Z</time></trkpt><trkpt lat="43.866560693411905" lon="12.473008847523076"><ele>515.0</ele><time>2026-05-01T14:19:07.848Z</time></trkpt><trkpt lat="43.866580301778626" lon="12.473097202082588"><ele>515.8333333333333</ele><time>2026-05-01T14:19:08.848Z</time></trkpt><trkpt lat="43.86659910671865" lon="12.473188217822978"><ele>516.6666666666666</ele><time>2026-05-01T14:19:09.848Z</time></trkpt><trkpt lat="43.86661642919685" lon="12.473334702011476"><ele>517.5</ele><time>2026-05-01T14:19:11.849Z</time></trkpt><trkpt lat="43.86664837545914" lon="12.473468212750628"><ele>518.3333333333334</ele><time>2026-05-01T14:19:13.849Z</time></trkpt><trkpt lat="43.86661438696572" lon="12.473549671056045"><ele>519.1666666666667</ele><time>2026-05-01T14:19:16.849Z</time></trkpt><trkpt lat="43.866548022905214" lon="12.473593899763655"><ele>520.0</ele><time>2026-05-01T14:19:18.849Z</time></trkpt><trkpt lat="43.866472962440675" lon="12.473563884505856"><ele>520.0</ele><time>2026-05-01T14:19:21.848Z</time></trkpt><trkpt lat="43.866392479239074" lon="12.473493916940551"><ele>520.0</ele><time>2026-05-01T14:19:24.848Z</time></trkpt><trkpt lat="43.866288577025145" lon="12.473410387944071"><ele>520.0</ele><time>2026-05-01T14:19:26.848Z</time></trkpt><trkpt lat="43.86623544129297" lon="12.47334652809157"><ele>520.0</ele><time>2026-05-01T14:19:27.848Z</time></trkpt><trkpt lat="43.86615687581605" lon="12.473231480468266"><ele>520.0</ele><time>2026-05-01T14:19:29.848Z</time></trkpt><trkpt lat="43.866056968764504" lon="12.473132605938504"><ele>520.0</ele><time>2026-05-01T14:19:31.848Z</time></trkpt><trkpt lat="43.865994903600104" lon="12.473087977983356"><ele>520.0</ele><time>2026-05-01T14:19:32.848Z</time></trkpt><trkpt lat="43.8659289468992" lon="12.473056329798995"><ele>520.0</ele><time>2026-05-01T14:19:33.848Z</time></trkpt><trkpt lat="43.86586746072717" lon="12.473005760350441"><ele>520.0</ele><time>2026-05-01T14:19:34.848Z</time></trkpt><trkpt lat="43.865744747592" lon="12.473002099403269"><ele>520.0</ele><time>2026-05-01T14:19:36.848Z</time></trkpt><trkpt lat="43.865641453699006" lon="12.473018537452525"><ele>520.0</ele><time>2026-05-01T14:19:38.848Z</time></trkpt><trkpt lat="43.86558330280797" lon="12.47307299046381"><ele>520.0</ele><time>2026-05-01T14:19:40.848Z</time></trkpt><trkpt lat="43.865447273424415" lon="12.473123540675848"><ele>520.0</ele><time>2026-05-01T14:20:21.848Z</time></trkpt><trkpt lat="43.86536466021246" lon="12.4731643680283"><ele>520.0</ele><time>2026-05-01T14:21:16.844Z</time></trkpt><trkpt lat="43.86529388438177" lon="12.473171445313419"><ele>520.0</ele><time>2026-05-01T14:21:18.843Z</time></trkpt><trkpt lat="43.86523028357396" lon="12.473174006386127"><ele>520.0</ele><time>2026-05-01T14:21:20.844Z</time></trkpt><trkpt lat="43.86516414966729" lon="12.473182338447353"><ele>520.0</ele><time>2026-05-01T14:21:22.843Z</time></trkpt><trkpt lat="43.86509132177035" lon="12.4732167176173"><ele>520.0</ele><time>2026-05-01T14:21:24.843Z</time></trkpt><trkpt lat="43.86501462324807" lon="12.473267951552236"><ele>520.0</ele><time>2026-05-01T14:21:26.843Z</time></trkpt><trkpt lat="43.864933277513984" lon="12.473346564977778"><ele>520.0</ele><time>2026-05-01T14:21:28.843Z</time></trkpt><trkpt lat="43.86487964683199" lon="12.473467803728976"><ele>520.0</ele><time>2026-05-01T14:21:30.842Z</time></trkpt><trkpt lat="43.864861421158416" lon="12.473589033274783"><ele>520.0</ele><time>2026-05-01T14:21:32.842Z</time></trkpt><trkpt lat="43.86485614423958" lon="12.473710151526573"><ele>519.2</ele><time>2026-05-01T14:21:34.842Z</time></trkpt><trkpt lat="43.86485962638861" lon="12.473845260984655"><ele>518.4</ele><time>2026-05-01T14:21:36.842Z</time></trkpt><trkpt lat="43.864878681375664" lon="12.473981530980453"><ele>517.6</ele><time>2026-05-01T14:21:38.842Z</time></trkpt><trkpt lat="43.86491364673863" lon="12.474108226673934"><ele>516.8</ele><time>2026-05-01T14:21:40.842Z</time></trkpt><trkpt lat="43.864993660027814" lon="12.474197988479537"><ele>516.0</ele><time>2026-05-01T14:21:42.842Z</time></trkpt><trkpt lat="43.86509134873802" lon="12.474239617751556"><ele>518.0</ele><time>2026-05-01T14:21:44.842Z</time></trkpt><trkpt lat="43.8651791719828" lon="12.474251414692436"><ele>520.0</ele><time>2026-05-01T14:21:46.842Z</time></trkpt><trkpt lat="43.865247373171734" lon="12.474234357564692"><ele>522.0</ele><time>2026-05-01T14:21:47.842Z</time></trkpt><trkpt lat="43.86531276378446" lon="12.474224731484929"><ele>524.0</ele><time>2026-05-01T14:21:48.842Z</time></trkpt><trkpt lat="43.865436160344956" lon="12.47418376534085"><ele>526.0</ele><time>2026-05-01T14:21:50.842Z</time></trkpt><trkpt lat="43.865503188242535" lon="12.474179551302997"><ele>528.0</ele><time>2026-05-01T14:21:51.842Z</time></trkpt><trkpt lat="43.8655674155639" lon="12.474176835345368"><ele>528.0</ele><time>2026-05-01T14:21:52.842Z</time></trkpt><trkpt lat="43.86563131764308" lon="12.474170810208467"><ele>528.0</ele><time>2026-05-01T14:21:53.842Z</time></trkpt><trkpt lat="43.86575098124814" lon="12.474137979096067"><ele>528.0</ele><time>2026-05-01T14:21:55.842Z</time></trkpt><trkpt lat="43.86581285686336" lon="12.474115220233125"><ele>528.0</ele><time>2026-05-01T14:21:56.842Z</time></trkpt><trkpt lat="43.86587744530534" lon="12.474113939073217"><ele>528.0</ele><time>2026-05-01T14:21:57.842Z</time></trkpt><trkpt lat="43.86598571399279" lon="12.474064041283079"><ele>528.0</ele><time>2026-05-01T14:21:59.842Z</time></trkpt><trkpt lat="43.86607743719708" lon="12.474033460167586"><ele>528.3333333333334</ele><time>2026-05-01T14:22:01.842Z</time></trkpt><trkpt lat="43.86613730654132" lon="12.473941672960219"><ele>528.6666666666666</ele><time>2026-05-01T14:22:03.842Z</time></trkpt><trkpt lat="43.86614854316255" lon="12.473844140720258"><ele>529.0</ele><time>2026-05-01T14:22:05.842Z</time></trkpt><trkpt lat="43.86611576928398" lon="12.473738446727502"><ele>529.3333333333333</ele><time>2026-05-01T14:22:09.842Z</time></trkpt><trkpt lat="43.86605148335335" lon="12.473662961776503"><ele>529.6666666666666</ele><time>2026-05-01T14:22:11.842Z</time></trkpt><trkpt lat="43.86597977104019" lon="12.47357731440833"><ele>530.0</ele><time>2026-05-01T14:22:14.842Z</time></trkpt><trkpt lat="43.865875213847474" lon="12.47353067479336"><ele>530.0</ele><time>2026-05-01T14:22:17.842Z</time></trkpt><trkpt lat="43.86578272054469" lon="12.47346388550568"><ele>530.0</ele><time>2026-05-01T14:22:19.842Z</time></trkpt><trkpt lat="43.86573097533781" lon="12.473392150982333"><ele>530.0</ele><time>2026-05-01T14:22:21.842Z</time></trkpt><trkpt lat="43.86566747560245" lon="12.473344714097752"><ele>530.0</ele><time>2026-05-01T14:22:23.842Z</time></trkpt><trkpt lat="43.86561673401882" lon="12.473286670955293"><ele>530.0</ele><time>2026-05-01T14:22:26.842Z</time></trkpt><trkpt lat="43.865667072265495" lon="12.473199821236364"><ele>530.0</ele><time>2026-05-01T14:22:27.842Z</time></trkpt><trkpt lat="43.865741966846265" lon="12.473183226874722"><ele>530.0</ele><time>2026-05-01T14:22:30.842Z</time></trkpt><trkpt lat="43.86566550103516" lon="12.473348217593779"><ele>530.0</ele><time>2026-05-01T14:22:31.842Z</time></trkpt><trkpt lat="43.86575043682271" lon="12.473436456153413"><ele>530.0</ele><time>2026-05-01T14:22:33.842Z</time></trkpt><trkpt lat="43.865810558651866" lon="12.473487537401036"><ele>530.0</ele><time>2026-05-01T14:22:34.842Z</time></trkpt><trkpt lat="43.86588272117066" lon="12.473538539664368"><ele>530.0</ele><time>2026-05-01T14:22:35.842Z</time></trkpt><trkpt lat="43.865948610682196" lon="12.473578911649978"><ele>527.5</ele><time>2026-05-01T14:22:36.842Z</time></trkpt><trkpt lat="43.86605573849473" lon="12.47364931904649"><ele>525.0</ele><time>2026-05-01T14:22:38.842Z</time></trkpt><trkpt lat="43.866153157970516" lon="12.473723756613342"><ele>522.5</ele><time>2026-05-01T14:22:40.842Z</time></trkpt><trkpt lat="43.86620942952672" lon="12.47382204490257"><ele>520.0</ele><time>2026-05-01T14:22:42.842Z</time></trkpt><trkpt lat="43.86625181610372" lon="12.473592414508959"><ele>520.0</ele><time>2026-05-01T14:22:45.842Z</time></trkpt><trkpt lat="43.86619204640985" lon="12.473687822750769"><ele>520.0</ele><time>2026-05-01T14:22:51.841Z</time></trkpt><trkpt lat="43.86614858579919" lon="12.473616421157967"><ele>520.0</ele><time>2026-05-01T14:22:52.841Z</time></trkpt><trkpt lat="43.86657832804388" lon="12.473163245465734"><ele>520.0</ele><time>2026-05-01T14:22:53.841Z</time></trkpt><trkpt lat="43.866550377785536" lon="12.473065822515498"><ele>520.0</ele><time>2026-05-01T14:22:54.841Z</time></trkpt><trkpt lat="43.86652034239807" lon="12.472966623692287"><ele>520.0</ele><time>2026-05-01T14:22:55.841Z</time></trkpt><trkpt lat="43.866561202970836" lon="12.472849121477624"><ele>520.0</ele><time>2026-05-01T14:22:56.841Z</time></trkpt><trkpt lat="43.866542335630776" lon="12.47275425253805"><ele>520.0</ele><time>2026-05-01T14:22:57.841Z</time></trkpt><trkpt lat="43.86652434950726" lon="12.472663814789117"><ele>520.0</ele><time>2026-05-01T14:22:58.841Z</time></trkpt><trkpt lat="43.866507968515265" lon="12.47257072662599"><ele>519.0</ele><time>2026-05-01T14:22:59.841Z</time></trkpt><trkpt lat="43.86649470569757" lon="12.472420249664625"><ele>518.0</ele><time>2026-05-01T14:23:01.841Z</time></trkpt><trkpt lat="43.86655976254012" lon="12.472315894328439"><ele>517.0</ele><time>2026-05-01T14:23:03.841Z</time></trkpt><trkpt lat="43.86665983707186" lon="12.472342373521851"><ele>516.0</ele><time>2026-05-01T14:23:05.841Z</time></trkpt><trkpt lat="43.866717356966674" lon="12.472419219342452"><ele>515.0</ele><time>2026-05-01T14:23:06.841Z</time></trkpt><trkpt lat="43.86678279386796" lon="12.472506390828109"><ele>513.3333333333333</ele><time>2026-05-01T14:23:07.841Z</time></trkpt><trkpt lat="43.866842236266415" lon="12.472607006323686"><ele>511.66666666666663</ele><time>2026-05-01T14:23:08.841Z</time></trkpt><trkpt lat="43.86692546728497" lon="12.472669516074065"><ele>510.0</ele><time>2026-05-01T14:23:09.841Z</time></trkpt><trkpt lat="43.86699755106619" lon="12.472746923234341"><ele>508.33333333333337</ele><time>2026-05-01T14:23:10.841Z</time></trkpt><trkpt lat="43.867062291796486" lon="12.472824798752097"><ele>506.6666666666667</ele><time>2026-05-01T14:23:11.841Z</time></trkpt><trkpt lat="43.86710872944591" lon="12.47288684550977"><ele>505.0</ele><time>2026-05-01T14:23:12.841Z</time></trkpt><trkpt lat="43.8669228921875" lon="12.472633532185124"><ele>505.0</ele><time>2026-05-01T14:23:26.839Z</time></trkpt><trkpt lat="43.86685968129618" lon="12.472549921137112"><ele>505.0</ele><time>2026-05-01T14:23:27.839Z</time></trkpt><trkpt lat="43.86679852735123" lon="12.472467514297042"><ele>505.0</ele><time>2026-05-01T14:23:28.839Z</time></trkpt><trkpt lat="43.86673092857785" lon="12.472364814960345"><ele>505.0</ele><time>2026-05-01T14:23:30.839Z</time></trkpt><trkpt lat="43.866700654666225" lon="12.472261080454375"><ele>505.0</ele><time>2026-05-01T14:23:32.839Z</time></trkpt><trkpt lat="43.86671451706847" lon="12.472122558405731"><ele>505.8</ele><time>2026-05-01T14:23:34.839Z</time></trkpt><trkpt lat="43.86676618119132" lon="12.472024219361739"><ele>506.6</ele><time>2026-05-01T14:23:35.839Z</time></trkpt><trkpt lat="43.866827753445364" lon="12.471924464571355"><ele>507.4</ele><time>2026-05-01T14:23:36.839Z</time></trkpt><trkpt lat="43.86690171443609" lon="12.47182484472518"><ele>508.2</ele><time>2026-05-01T14:23:37.839Z</time></trkpt><trkpt lat="43.86697789364383" lon="12.471718874030872"><ele>509.0</ele><time>2026-05-01T14:23:38.839Z</time></trkpt><trkpt lat="43.867051676035544" lon="12.471616307886524"><ele>509.0</ele><time>2026-05-01T14:23:39.839Z</time></trkpt><trkpt lat="43.86711951668508" lon="12.471502907070965"><ele>509.0</ele><time>2026-05-01T14:23:40.839Z</time></trkpt><trkpt lat="43.86719237092324" lon="12.471394636129544"><ele>509.0</ele><time>2026-05-01T14:23:41.839Z</time></trkpt><trkpt lat="43.86726708575242" lon="12.471277553074177"><ele>509.0</ele><time>2026-05-01T14:23:42.839Z</time></trkpt><trkpt lat="43.86734557818987" lon="12.471184262196935"><ele>509.0</ele><time>2026-05-01T14:23:43.839Z</time></trkpt><trkpt lat="43.867400946519595" lon="12.471120546993752"><ele>509.3333333333333</ele><time>2026-05-01T14:23:44.839Z</time></trkpt><trkpt lat="43.86741805391587" lon="12.471022832528796"><ele>509.66666666666663</ele><time>2026-05-01T14:23:50.839Z</time></trkpt><trkpt lat="43.867353525840855" lon="12.47102214306022"><ele>510.0</ele><time>2026-05-01T14:23:55.839Z</time></trkpt><trkpt lat="43.86727053039445" lon="12.471070605603028"><ele>510.33333333333337</ele><time>2026-05-01T14:23:58.839Z</time></trkpt><trkpt lat="43.8671766353204" lon="12.471122805676636"><ele>510.6666666666667</ele><time>2026-05-01T14:24:00.839Z</time></trkpt><trkpt lat="43.86712907051698" lon="12.471062788390698"><ele>511.0</ele><time>2026-05-01T14:24:02.839Z</time></trkpt><trkpt lat="43.867035149963144" lon="12.470994034882226"><ele>511.0</ele><time>2026-05-01T14:24:04.839Z</time></trkpt><trkpt lat="43.8669540239512" lon="12.470904259784312"><ele>511.0</ele><time>2026-05-01T14:24:06.839Z</time></trkpt><trkpt lat="43.86689098180451" lon="12.470814721582888"><ele>511.0</ele><time>2026-05-01T14:24:08.839Z</time></trkpt><trkpt lat="43.86678811087832" lon="12.47071100217121"><ele>511.0</ele><time>2026-05-01T14:24:10.839Z</time></trkpt><trkpt lat="43.86674613376532" lon="12.470643371581593"><ele>511.0</ele><time>2026-05-01T14:24:11.839Z</time></trkpt><trkpt lat="43.866691172239875" lon="12.470577189538359"><ele>509.83333333333337</ele><time>2026-05-01T14:24:12.839Z</time></trkpt><trkpt lat="43.866640580260174" lon="12.470504196110223"><ele>508.6666666666667</ele><time>2026-05-01T14:24:13.839Z</time></trkpt><trkpt lat="43.866587121485345" lon="12.470413777727911"><ele>507.5</ele><time>2026-05-01T14:24:14.839Z</time></trkpt><trkpt lat="43.866529445020205" lon="12.470328825469366"><ele>506.33333333333337</ele><time>2026-05-01T14:24:15.839Z</time></trkpt><trkpt lat="43.866474096387925" lon="12.470250075910213"><ele>505.1666666666667</ele><time>2026-05-01T14:24:16.839Z</time></trkpt><trkpt lat="43.86641275375459" lon="12.47016139578535"><ele>504.0</ele><time>2026-05-01T14:24:17.839Z</time></trkpt><trkpt lat="43.866346856421764" lon="12.470082725671261"><ele>502.6</ele><time>2026-05-01T14:24:18.839Z</time></trkpt><trkpt lat="43.86630137571903" lon="12.469983102906816"><ele>501.2</ele><time>2026-05-01T14:24:19.839Z</time></trkpt><trkpt lat="43.86627276997449" lon="12.469871230982621"><ele>499.80000000000007</ele><time>2026-05-01T14:24:20.839Z</time></trkpt><trkpt lat="43.86624676208129" lon="12.469754519706264"><ele>498.40000000000003</ele><time>2026-05-01T14:24:21.839Z</time></trkpt><trkpt lat="43.866201210280046" lon="12.46961214556134"><ele>497.0</ele><time>2026-05-01T14:24:23.839Z</time></trkpt><trkpt lat="43.86610726964956" lon="12.469489188116972"><ele>496.8</ele><time>2026-05-01T14:24:25.839Z</time></trkpt><trkpt lat="43.8660511909625" lon="12.469389004990683"><ele>496.6</ele><time>2026-05-01T14:24:26.838Z</time></trkpt><trkpt lat="43.86598577942549" lon="12.469301103761163"><ele>496.40000000000003</ele><time>2026-05-01T14:24:27.838Z</time></trkpt><trkpt lat="43.8659214414414" lon="12.469217249027382"><ele>496.20000000000005</ele><time>2026-05-01T14:24:28.838Z</time></trkpt><trkpt lat="43.86585597854437" lon="12.469130110869191"><ele>496.0</ele><time>2026-05-01T14:24:29.838Z</time></trkpt><trkpt lat="43.86580057519454" lon="12.469029399538929"><ele>495.6666666666667</ele><time>2026-05-01T14:24:30.838Z</time></trkpt><trkpt lat="43.86575528667367" lon="12.468934028537234"><ele>495.33333333333337</ele><time>2026-05-01T14:24:31.838Z</time></trkpt><trkpt lat="43.865714297747516" lon="12.468844110281518"><ele>495.0</ele><time>2026-05-01T14:24:32.838Z</time></trkpt><trkpt lat="43.865668810684674" lon="12.468776518135046"><ele>494.66666666666663</ele><time>2026-05-01T14:24:33.838Z</time></trkpt><trkpt lat="43.86560041552131" lon="12.468697388660878"><ele>494.3333333333333</ele><time>2026-05-01T14:24:35.838Z</time></trkpt><trkpt lat="43.86552553244855" lon="12.468736441008053"><ele>494.0</ele><time>2026-05-01T14:24:37.838Z</time></trkpt><trkpt lat="43.865463988016955" lon="12.468890923811617"><ele>492.66666666666663</ele><time>2026-05-01T14:24:39.838Z</time></trkpt><trkpt lat="43.8654120339791" lon="12.469048641205267"><ele>491.3333333333333</ele><time>2026-05-01T14:24:41.838Z</time></trkpt><trkpt lat="43.86539417940891" lon="12.469135645725622"><ele>490.0</ele><time>2026-05-01T14:24:42.838Z</time></trkpt><trkpt lat="43.86538102946276" lon="12.469228180397227"><ele>488.66666666666663</ele><time>2026-05-01T14:24:43.838Z</time></trkpt><trkpt lat="43.86535833793478" lon="12.469317738162205"><ele>487.3333333333333</ele><time>2026-05-01T14:24:44.838Z</time></trkpt><trkpt lat="43.86531605308328" lon="12.469396658808126"><ele>486.0</ele><time>2026-05-01T14:24:45.838Z</time></trkpt><trkpt lat="43.865263889783634" lon="12.469463653549981"><ele>486.0</ele><time>2026-05-01T14:24:46.838Z</time></trkpt><trkpt lat="43.86521931078427" lon="12.469539051694552"><ele>486.0</ele><time>2026-05-01T14:24:47.838Z</time></trkpt><trkpt lat="43.865177326501325" lon="12.46962616171652"><ele>486.0</ele><time>2026-05-01T14:24:48.838Z</time></trkpt><trkpt lat="43.86513486549814" lon="12.469712091169963"><ele>486.0</ele><time>2026-05-01T14:24:49.838Z</time></trkpt><trkpt lat="43.865085322682205" lon="12.469790290977778"><ele>486.0</ele><time>2026-05-01T14:24:50.838Z</time></trkpt><trkpt lat="43.86502720491023" lon="12.46986182086115"><ele>486.0</ele><time>2026-05-01T14:24:51.838Z</time></trkpt><trkpt lat="43.86497089730275" lon="12.469923503571929"><ele>486.0</ele><time>2026-05-01T14:24:52.838Z</time></trkpt><trkpt lat="43.864910180092316" lon="12.469975421202365"><ele>483.1666666666667</ele><time>2026-05-01T14:24:53.838Z</time></trkpt><trkpt lat="43.86484039581384" lon="12.469979288464645"><ele>480.33333333333337</ele><time>2026-05-01T14:24:54.838Z</time></trkpt><trkpt lat="43.864765064073524" lon="12.469997029361082"><ele>477.5</ele><time>2026-05-01T14:24:55.838Z</time></trkpt><trkpt lat="43.86469026249717" lon="12.470035145958885"><ele>474.6666666666667</ele><time>2026-05-01T14:24:56.838Z</time></trkpt><trkpt lat="43.864615178340244" lon="12.470038069486852"><ele>471.83333333333337</ele><time>2026-05-01T14:24:57.838Z</time></trkpt><trkpt lat="43.86453790002068" lon="12.47004683420012"><ele>469.0</ele><time>2026-05-01T14:24:58.838Z</time></trkpt><trkpt lat="43.86445861912497" lon="12.470055532410141"><ele>469.0</ele><time>2026-05-01T14:24:59.838Z</time></trkpt><trkpt lat="43.864367185960354" lon="12.47008920544853"><ele>469.0</ele><time>2026-05-01T14:25:00.838Z</time></trkpt><trkpt lat="43.864282729203836" lon="12.470076387256087"><ele>469.0</ele><time>2026-05-01T14:25:01.838Z</time></trkpt><trkpt lat="43.86420851788998" lon="12.47003751828227"><ele>469.0</ele><time>2026-05-01T14:25:02.838Z</time></trkpt><trkpt lat="43.86412130445669" lon="12.469996555719511"><ele>469.0</ele><time>2026-05-01T14:25:03.838Z</time></trkpt><trkpt lat="43.86401711086304" lon="12.469942019557802"><ele>468.33333333333337</ele><time>2026-05-01T14:25:04.838Z</time></trkpt><trkpt lat="43.86394096806876" lon="12.469900645420754"><ele>467.6666666666667</ele><time>2026-05-01T14:25:05.838Z</time></trkpt><trkpt lat="43.86387456056791" lon="12.469865152944973"><ele>467.0</ele><time>2026-05-01T14:25:06.838Z</time></trkpt><trkpt lat="43.86380983881165" lon="12.469832547860534"><ele>466.33333333333337</ele><time>2026-05-01T14:25:07.838Z</time></trkpt><trkpt lat="43.86374521986939" lon="12.469811687404759"><ele>465.6666666666667</ele><time>2026-05-01T14:25:08.838Z</time></trkpt><trkpt lat="43.863661135074054" lon="12.469801368735727"><ele>465.0</ele><time>2026-05-01T14:25:09.838Z</time></trkpt><trkpt lat="43.86357573293713" lon="12.469797361379449"><ele>465.0</ele><time>2026-05-01T14:25:10.838Z</time></trkpt><trkpt lat="43.86348896730178" lon="12.469822061506413"><ele>465.0</ele><time>2026-05-01T14:25:11.838Z</time></trkpt><trkpt lat="43.863397443421995" lon="12.469865542762493"><ele>465.0</ele><time>2026-05-01T14:25:12.838Z</time></trkpt><trkpt lat="43.86330654876203" lon="12.469912433829752"><ele>465.0</ele><time>2026-05-01T14:25:13.838Z</time></trkpt><trkpt lat="43.86321781177996" lon="12.469944870273368"><ele>465.0</ele><time>2026-05-01T14:25:14.838Z</time></trkpt><trkpt lat="43.86314089618339" lon="12.46997248394052"><ele>464.6</ele><time>2026-05-01T14:25:15.838Z</time></trkpt><trkpt lat="43.86305981262028" lon="12.470000708953814"><ele>464.2</ele><time>2026-05-01T14:25:16.838Z</time></trkpt><trkpt lat="43.862984520896475" lon="12.470030532719043"><ele>463.79999999999995</ele><time>2026-05-01T14:25:17.838Z</time></trkpt><trkpt lat="43.86289557553282" lon="12.47003610826022"><ele>463.4</ele><time>2026-05-01T14:25:18.838Z</time></trkpt><trkpt lat="43.862793259203734" lon="12.470026730248588"><ele>463.0</ele><time>2026-05-01T14:25:19.838Z</time></trkpt><trkpt lat="43.862668018041454" lon="12.469990762773042"><ele>462.0</ele><time>2026-05-01T14:25:20.838Z</time></trkpt><trkpt lat="43.86253319838063" lon="12.46994960093704"><ele>461.0</ele><time>2026-05-01T14:25:21.838Z</time></trkpt><trkpt lat="43.862406957053885" lon="12.469918657501143"><ele>460.0</ele><time>2026-05-01T14:25:22.838Z</time></trkpt><trkpt lat="43.862296670259695" lon="12.469915692670773"><ele>459.0</ele><time>2026-05-01T14:25:23.838Z</time></trkpt><trkpt lat="43.86220803022255" lon="12.469909014458246"><ele>459.0</ele><time>2026-05-01T14:25:24.838Z</time></trkpt><trkpt lat="43.86211922056036" lon="12.469904456693675"><ele>459.0</ele><time>2026-05-01T14:25:25.838Z</time></trkpt><trkpt lat="43.86201833591755" lon="12.469874868329153"><ele>459.0</ele><time>2026-05-01T14:25:26.838Z</time></trkpt><trkpt lat="43.861939009911026" lon="12.469886391742767"><ele>459.0</ele><time>2026-05-01T14:25:27.838Z</time></trkpt><trkpt lat="43.861864188506246" lon="12.469905037650573"><ele>459.0</ele><time>2026-05-01T14:25:29.837Z</time></trkpt><trkpt lat="43.861774516472295" lon="12.469932066628955"><ele>459.0</ele><time>2026-05-01T14:25:34.836Z</time></trkpt><trkpt lat="43.861768450057106" lon="12.470147526056689"><ele>458.0</ele><time>2026-05-01T14:25:35.836Z</time></trkpt><trkpt lat="43.86173350614929" lon="12.470235406215698"><ele>457.0</ele><time>2026-05-01T14:25:36.836Z</time></trkpt><trkpt lat="43.86168968045668" lon="12.470299509363777"><ele>456.0</ele><time>2026-05-01T14:25:37.836Z</time></trkpt><trkpt lat="43.86161784016608" lon="12.470326136450826"><ele>455.0</ele><time>2026-05-01T14:25:38.836Z</time></trkpt><trkpt lat="43.861528530848155" lon="12.470380140467176"><ele>454.0</ele><time>2026-05-01T14:25:40.836Z</time></trkpt><trkpt lat="43.8614558716675" lon="12.470328536378267"><ele>453.0</ele><time>2026-05-01T14:25:42.836Z</time></trkpt><trkpt lat="43.86139354037537" lon="12.4702407397527"><ele>453.0</ele><time>2026-05-01T14:25:44.836Z</time></trkpt><trkpt lat="43.86134949675885" lon="12.470165856622137"><ele>453.0</ele><time>2026-05-01T14:25:46.836Z</time></trkpt><trkpt lat="43.86140071264452" lon="12.470221173735721"><ele>453.0</ele><time>2026-05-01T14:25:58.836Z</time></trkpt><trkpt lat="43.86146140664182" lon="12.470087240240936"><ele>453.0</ele><time>2026-05-01T14:26:00.836Z</time></trkpt><trkpt lat="43.861634946767865" lon="12.470379718090246"><ele>453.0</ele><time>2026-05-01T14:26:05.836Z</time></trkpt><trkpt lat="43.861695936155925" lon="12.470318985309884"><ele>452.99999999999994</ele><time>2026-05-01T14:26:07.836Z</time></trkpt><trkpt lat="43.86174035882789" lon="12.470250048685854"><ele>452.99999999999994</ele><time>2026-05-01T14:26:08.836Z</time></trkpt><trkpt lat="43.86174721255584" lon="12.470012325557029"><ele>453.0</ele><time>2026-05-01T14:26:09.836Z</time></trkpt><trkpt lat="43.86180956304347" lon="12.470121080265155"><ele>453.0</ele><time>2026-05-01T14:26:10.836Z</time></trkpt><trkpt lat="43.86187144814324" lon="12.469988767979963"><ele>454.2</ele><time>2026-05-01T14:26:12.836Z</time></trkpt><trkpt lat="43.861937555953844" lon="12.469937376454792"><ele>455.4</ele><time>2026-05-01T14:26:14.836Z</time></trkpt><trkpt lat="43.86207355679204" lon="12.469923866899085"><ele>456.59999999999997</ele><time>2026-05-01T14:26:16.836Z</time></trkpt><trkpt lat="43.86215845061763" lon="12.469918459592932"><ele>457.79999999999995</ele><time>2026-05-01T14:26:17.835Z</time></trkpt><trkpt lat="43.86224371140694" lon="12.46992525932832"><ele>459.0</ele><time>2026-05-01T14:26:18.835Z</time></trkpt><trkpt lat="43.86233012391938" lon="12.469930021478048"><ele>459.0</ele><time>2026-05-01T14:26:19.835Z</time></trkpt><trkpt lat="43.862430270690616" lon="12.469929694460667"><ele>459.0</ele><time>2026-05-01T14:26:20.835Z</time></trkpt><trkpt lat="43.86255778069004" lon="12.469958102786073"><ele>459.0</ele><time>2026-05-01T14:26:21.835Z</time></trkpt><trkpt lat="43.862663096237156" lon="12.46999594150682"><ele>459.0</ele><time>2026-05-01T14:26:22.835Z</time></trkpt><trkpt lat="43.86276032438787" lon="12.47003706034958"><ele>459.0</ele><time>2026-05-01T14:26:23.835Z</time></trkpt><trkpt lat="43.862851427288724" lon="12.470056900952665"><ele>459.6666666666667</ele><time>2026-05-01T14:26:24.835Z</time></trkpt><trkpt lat="43.86294009301371" lon="12.47006196369127"><ele>460.33333333333337</ele><time>2026-05-01T14:26:25.835Z</time></trkpt><trkpt lat="43.86302166093614" lon="12.470059107345573"><ele>461.0</ele><time>2026-05-01T14:26:26.835Z</time></trkpt><trkpt lat="43.86308534533651" lon="12.470035325045979"><ele>461.6666666666667</ele><time>2026-05-01T14:26:27.835Z</time></trkpt><trkpt lat="43.8631525562067" lon="12.469996487781229"><ele>462.33333333333337</ele><time>2026-05-01T14:26:28.835Z</time></trkpt><trkpt lat="43.86322674182959" lon="12.469958965966239"><ele>463.0</ele><time>2026-05-01T14:26:29.835Z</time></trkpt><trkpt lat="43.86331381339635" lon="12.469960800716686"><ele>463.00000000000006</ele><time>2026-05-01T14:26:30.835Z</time></trkpt><trkpt lat="43.86339561176702" lon="12.4699273721273"><ele>463.0</ele><time>2026-05-01T14:26:31.835Z</time></trkpt><trkpt lat="43.863471335499305" lon="12.469897943132356"><ele>463.0</ele><time>2026-05-01T14:26:32.835Z</time></trkpt><trkpt lat="43.8635503205378" lon="12.469869240083309"><ele>463.0</ele><time>2026-05-01T14:26:33.835Z</time></trkpt><trkpt lat="43.86362396480224" lon="12.46983865483426"><ele>463.00000000000006</ele><time>2026-05-01T14:26:34.835Z</time></trkpt><trkpt lat="43.86368718025013" lon="12.469878499023816"><ele>463.0</ele><time>2026-05-01T14:26:35.835Z</time></trkpt><trkpt lat="43.86375941895511" lon="12.469887828526604"><ele>463.33333333333337</ele><time>2026-05-01T14:26:36.835Z</time></trkpt><trkpt lat="43.86383021213913" lon="12.469916288777874"><ele>463.6666666666667</ele><time>2026-05-01T14:26:37.835Z</time></trkpt><trkpt lat="43.863901167338575" lon="12.469953196376588"><ele>464.0</ele><time>2026-05-01T14:26:38.835Z</time></trkpt><trkpt lat="43.86396598395546" lon="12.469988416254116"><ele>464.33333333333337</ele><time>2026-05-01T14:26:39.835Z</time></trkpt><trkpt lat="43.864036990077814" lon="12.470033348178244"><ele>464.6666666666667</ele><time>2026-05-01T14:26:40.835Z</time></trkpt><trkpt lat="43.864122112676725" lon="12.470062803366291"><ele>465.0</ele><time>2026-05-01T14:26:41.835Z</time></trkpt><trkpt lat="43.86420384469189" lon="12.470085389317681"><ele>465.0</ele><time>2026-05-01T14:26:42.835Z</time></trkpt><trkpt lat="43.86427701046965" lon="12.470089040184424"><ele>465.0</ele><time>2026-05-01T14:26:43.835Z</time></trkpt><trkpt lat="43.86434460332785" lon="12.470085557718587"><ele>465.0</ele><time>2026-05-01T14:26:44.835Z</time></trkpt><trkpt lat="43.864416537962455" lon="12.470069119913548"><ele>465.0</ele><time>2026-05-01T14:26:45.835Z</time></trkpt><trkpt lat="43.86450896278418" lon="12.470049837159275"><ele>465.0</ele><time>2026-05-01T14:26:46.835Z</time></trkpt><trkpt lat="43.86460496821863" lon="12.470029871113358"><ele>465.0</ele><time>2026-05-01T14:26:47.835Z</time></trkpt><trkpt lat="43.86470419503555" lon="12.470025292848126"><ele>465.6666666666667</ele><time>2026-05-01T14:26:48.835Z</time></trkpt><trkpt lat="43.86478591021811" lon="12.470015034080458"><ele>466.33333333333337</ele><time>2026-05-01T14:26:49.835Z</time></trkpt><trkpt lat="43.86486632421386" lon="12.46999181748944"><ele>467.0</ele><time>2026-05-01T14:26:50.835Z</time></trkpt><trkpt lat="43.86493930326793" lon="12.469955136093258"><ele>467.6666666666667</ele><time>2026-05-01T14:26:51.835Z</time></trkpt><trkpt lat="43.86500565713612" lon="12.469898132921035"><ele>468.33333333333337</ele><time>2026-05-01T14:26:52.835Z</time></trkpt><trkpt lat="43.865069076300244" lon="12.46980663474064"><ele>469.0</ele><time>2026-05-01T14:26:53.835Z</time></trkpt><trkpt lat="43.86513404052078" lon="12.469696702707687"><ele>472.4</ele><time>2026-05-01T14:26:54.835Z</time></trkpt><trkpt lat="43.86520717983054" lon="12.469568594728317"><ele>475.79999999999995</ele><time>2026-05-01T14:26:55.835Z</time></trkpt><trkpt lat="43.86528261944519" lon="12.469432910606669"><ele>479.20000000000005</ele><time>2026-05-01T14:26:56.835Z</time></trkpt><trkpt lat="43.86535071710487" lon="12.469309974854484"><ele>482.6</ele><time>2026-05-01T14:26:57.835Z</time></trkpt><trkpt lat="43.86540176918191" lon="12.469211838789409"><ele>486.0</ele><time>2026-05-01T14:26:58.835Z</time></trkpt><trkpt lat="43.86542642238219" lon="12.469110603414492"><ele>486.0</ele><time>2026-05-01T14:26:59.835Z</time></trkpt><trkpt lat="43.86544327547769" lon="12.46899401211767"><ele>486.0</ele><time>2026-05-01T14:27:00.835Z</time></trkpt><trkpt lat="43.86550527710754" lon="12.468905637824749"><ele>486.0</ele><time>2026-05-01T14:27:01.835Z</time></trkpt><trkpt lat="43.865543329061126" lon="12.46883103959573"><ele>486.0</ele><time>2026-05-01T14:27:02.835Z</time></trkpt><trkpt lat="43.865604022223934" lon="12.468757933291679"><ele>486.0</ele><time>2026-05-01T14:27:04.835Z</time></trkpt><trkpt lat="43.86567514059724" lon="12.46882512031185"><ele>486.0</ele><time>2026-05-01T14:27:07.835Z</time></trkpt><trkpt lat="43.865717121182065" lon="12.468957829798537"><ele>486.0</ele><time>2026-05-01T14:27:09.835Z</time></trkpt><trkpt lat="43.86575860284633" lon="12.469050289599194"><ele>486.0</ele><time>2026-05-01T14:27:10.835Z</time></trkpt><trkpt lat="43.86581281850675" lon="12.46914435305122"><ele>486.0</ele><time>2026-05-01T14:27:11.835Z</time></trkpt><trkpt lat="43.8658789141035" lon="12.46924008289175"><ele>486.0</ele><time>2026-05-01T14:27:12.835Z</time></trkpt><trkpt lat="43.86594714220369" lon="12.469327774380375"><ele>486.0</ele><time>2026-05-01T14:27:13.835Z</time></trkpt><trkpt lat="43.866026105738754" lon="12.469425155902748"><ele>488.0</ele><time>2026-05-01T14:27:14.835Z</time></trkpt><trkpt lat="43.86610724656011" lon="12.469527137644278"><ele>490.0</ele><time>2026-05-01T14:27:15.835Z</time></trkpt><trkpt lat="43.866181987491665" lon="12.469636449826869"><ele>492.0</ele><time>2026-05-01T14:27:16.835Z</time></trkpt><trkpt lat="43.86623984941364" lon="12.46976137883829"><ele>494.0</ele><time>2026-05-01T14:27:17.835Z</time></trkpt><trkpt lat="43.8662755759812" lon="12.469906240208651"><ele>496.0</ele><time>2026-05-01T14:27:18.835Z</time></trkpt><trkpt lat="43.866312743812756" lon="12.470044121043733"><ele>496.20000000000005</ele><time>2026-05-01T14:27:19.835Z</time></trkpt><trkpt lat="43.866364387061864" lon="12.470171596818789"><ele>496.40000000000003</ele><time>2026-05-01T14:27:20.835Z</time></trkpt><trkpt lat="43.86643517137926" lon="12.470289082049634"><ele>496.6</ele><time>2026-05-01T14:27:21.835Z</time></trkpt><trkpt lat="43.86651276103398" lon="12.470397954384689"><ele>496.8</ele><time>2026-05-01T14:27:22.835Z</time></trkpt><trkpt lat="43.86659157456149" lon="12.470495654125726"><ele>497.0</ele><time>2026-05-01T14:27:23.835Z</time></trkpt><trkpt lat="43.86667099192256" lon="12.470619526480837"><ele>498.40000000000003</ele><time>2026-05-01T14:27:24.835Z</time></trkpt><trkpt lat="43.86674800821226" lon="12.4707348891535"><ele>499.80000000000007</ele><time>2026-05-01T14:27:25.835Z</time></trkpt><trkpt lat="43.86682667816023" lon="12.470843985560172"><ele>501.2</ele><time>2026-05-01T14:27:26.835Z</time></trkpt><trkpt lat="43.86691437608401" lon="12.470938639072116"><ele>502.6</ele><time>2026-05-01T14:27:27.835Z</time></trkpt><trkpt lat="43.86700069125418" lon="12.471033240058622"><ele>504.0</ele><time>2026-05-01T14:27:28.835Z</time></trkpt><trkpt lat="43.86707645242043" lon="12.471115399541425"><ele>504.8333333333333</ele><time>2026-05-01T14:27:29.835Z</time></trkpt><trkpt lat="43.86713587890738" lon="12.471162824516705"><ele>505.66666666666663</ele><time>2026-05-01T14:27:30.835Z</time></trkpt><trkpt lat="43.867224886400635" lon="12.471193233759193"><ele>506.5</ele><time>2026-05-01T14:27:32.835Z</time></trkpt><trkpt lat="43.867279859341764" lon="12.471105718426287"><ele>507.3333333333333</ele><time>2026-05-01T14:27:34.834Z</time></trkpt><trkpt lat="43.86733615363636" lon="12.47105687012965"><ele>508.16666666666663</ele><time>2026-05-01T14:27:38.834Z</time></trkpt><trkpt lat="43.86727569117123" lon="12.471105854782014"><ele>509.0</ele><time>2026-05-01T14:27:41.834Z</time></trkpt><trkpt lat="43.867213511365435" lon="12.471309411078488"><ele>509.0</ele><time>2026-05-01T14:27:43.834Z</time></trkpt><trkpt lat="43.86711953315332" lon="12.471408695046689"><ele>509.0</ele><time>2026-05-01T14:27:44.834Z</time></trkpt><trkpt lat="43.86703390064429" lon="12.471534277332323"><ele>509.0</ele><time>2026-05-01T14:27:45.834Z</time></trkpt><trkpt lat="43.86694135250173" lon="12.471658024003158"><ele>509.0</ele><time>2026-05-01T14:27:46.834Z</time></trkpt><trkpt lat="43.866858919588815" lon="12.471770478536916"><ele>509.0</ele><time>2026-05-01T14:27:47.833Z</time></trkpt><trkpt lat="43.86677816309079" lon="12.471863882401871"><ele>509.0</ele><time>2026-05-01T14:27:48.833Z</time></trkpt><trkpt lat="43.86671451167499" lon="12.471947166506771"><ele>509.0</ele><time>2026-05-01T14:27:49.833Z</time></trkpt><trkpt lat="43.86666634059602" lon="12.47202886919228"><ele>509.0</ele><time>2026-05-01T14:27:50.833Z</time></trkpt><trkpt lat="43.86661222739295" lon="12.472114808824275"><ele>509.0</ele><time>2026-05-01T14:27:52.833Z</time></trkpt><trkpt lat="43.86670266964202" lon="12.472367693178837"><ele>508.0</ele><time>2026-05-01T14:27:56.833Z</time></trkpt><trkpt lat="43.86677955190299" lon="12.472470111617731"><ele>507.0</ele><time>2026-05-01T14:27:57.833Z</time></trkpt><trkpt lat="43.86688316436235" lon="12.472607843197384"><ele>506.0</ele><time>2026-05-01T14:27:58.833Z</time></trkpt><trkpt lat="43.86702164778076" lon="12.47276319328327"><ele>505.0</ele><time>2026-05-01T14:27:59.833Z</time></trkpt><trkpt lat="43.86712473303847" lon="12.472944151737229"><ele>504.25</ele><time>2026-05-01T14:28:00.833Z</time></trkpt><trkpt lat="43.867238987156355" lon="12.473095495204362"><ele>503.5</ele><time>2026-05-01T14:28:01.833Z</time></trkpt><trkpt lat="43.867346970149754" lon="12.473236535712793"><ele>502.75</ele><time>2026-05-01T14:28:02.833Z</time></trkpt><trkpt lat="43.86745984849545" lon="12.473349899072002"><ele>502.0</ele><time>2026-05-01T14:28:03.833Z</time></trkpt><trkpt lat="43.86757625891438" lon="12.473443151555983"><ele>497.8</ele><time>2026-05-01T14:28:04.833Z</time></trkpt><trkpt lat="43.86768426925269" lon="12.473496639672105"><ele>493.6</ele><time>2026-05-01T14:28:05.833Z</time></trkpt><trkpt lat="43.86779340780993" lon="12.473504004676004"><ele>489.40000000000003</ele><time>2026-05-01T14:28:06.833Z</time></trkpt><trkpt lat="43.86789617231721" lon="12.473468741717912"><ele>485.20000000000005</ele><time>2026-05-01T14:28:07.833Z</time></trkpt><trkpt lat="43.86798164263626" lon="12.473387215904815"><ele>481.0</ele><time>2026-05-01T14:28:08.833Z</time></trkpt><trkpt lat="43.8680580497701" lon="12.473268194803426"><ele>481.0</ele><time>2026-05-01T14:28:09.833Z</time></trkpt><trkpt lat="43.86812123929369" lon="12.4731073746917"><ele>481.0</ele><time>2026-05-01T14:28:10.833Z</time></trkpt><trkpt lat="43.868190562963306" lon="12.472902552713228"><ele>481.0</ele><time>2026-05-01T14:28:11.833Z</time></trkpt><trkpt lat="43.86825878571855" lon="12.472710703287918"><ele>481.0</ele><time>2026-05-01T14:28:12.833Z</time></trkpt><trkpt lat="43.86833017270736" lon="12.472542655613946"><ele>479.25</ele><time>2026-05-01T14:28:13.833Z</time></trkpt><trkpt lat="43.8684021487992" lon="12.472393859414074"><ele>477.5</ele><time>2026-05-01T14:28:14.833Z</time></trkpt><trkpt lat="43.86848802048997" lon="12.472269851564333"><ele>475.75</ele><time>2026-05-01T14:28:15.833Z</time></trkpt><trkpt lat="43.86858534396665" lon="12.472189604795963"><ele>474.0</ele><time>2026-05-01T14:28:16.833Z</time></trkpt><trkpt lat="43.86868898805879" lon="12.472177180699042"><ele>474.0</ele><time>2026-05-01T14:28:17.833Z</time></trkpt><trkpt lat="43.86879865881782" lon="12.472189134466891"><ele>474.0</ele><time>2026-05-01T14:28:18.833Z</time></trkpt><trkpt lat="43.868922968179795" lon="12.47221755419045"><ele>474.0</ele><time>2026-05-01T14:28:19.833Z</time></trkpt><trkpt lat="43.86907988929888" lon="12.472251866055387"><ele>474.0</ele><time>2026-05-01T14:28:20.833Z</time></trkpt><trkpt lat="43.869231929201554" lon="12.472305050193892"><ele>472.0</ele><time>2026-05-01T14:28:21.833Z</time></trkpt><trkpt lat="43.8693756452662" lon="12.472340694829914"><ele>470.0</ele><time>2026-05-01T14:28:22.833Z</time></trkpt><trkpt lat="43.869512031411865" lon="12.472344079771824"><ele>468.0</ele><time>2026-05-01T14:28:23.833Z</time></trkpt><trkpt lat="43.869647915388114" lon="12.47232916448877"><ele>466.0</ele><time>2026-05-01T14:28:24.833Z</time></trkpt><trkpt lat="43.86978652778345" lon="12.472298441185588"><ele>466.0</ele><time>2026-05-01T14:28:25.833Z</time></trkpt><trkpt lat="43.8699219594413" lon="12.472248798755"><ele>466.0</ele><time>2026-05-01T14:28:26.833Z</time></trkpt><trkpt lat="43.87005213425291" lon="12.472201042783919"><ele>466.0</ele><time>2026-05-01T14:28:27.833Z</time></trkpt><trkpt lat="43.8701697051559" lon="12.472183443643358"><ele>466.0</ele><time>2026-05-01T14:28:28.833Z</time></trkpt><trkpt lat="43.87026349129966" lon="12.472287745007728"><ele>466.33333333333337</ele><time>2026-05-01T14:28:29.833Z</time></trkpt><trkpt lat="43.870360654231504" lon="12.472427485404555"><ele>466.66666666666663</ele><time>2026-05-01T14:28:30.833Z</time></trkpt><trkpt lat="43.870551082283875" lon="12.472654290629944"><ele>467.0</ele><time>2026-05-01T14:28:32.833Z</time></trkpt><trkpt lat="43.87068584729773" lon="12.472670607057319"><ele>467.0</ele><time>2026-05-01T14:28:33.833Z</time></trkpt><trkpt lat="43.87080942643161" lon="12.47270004079276"><ele>467.00000000000006</ele><time>2026-05-01T14:28:34.833Z</time></trkpt><trkpt lat="43.8709109644143" lon="12.472734624246238"><ele>467.00000000000006</ele><time>2026-05-01T14:28:35.833Z</time></trkpt><trkpt lat="43.87096324791427" lon="12.472843764418725"><ele>467.0</ele><time>2026-05-01T14:28:36.833Z</time></trkpt><trkpt lat="43.8710165692193" lon="12.472944008723724"><ele>467.0</ele><time>2026-05-01T14:28:37.833Z</time></trkpt><trkpt lat="43.87101892329859" lon="12.473118641961912"><ele>466.6</ele><time>2026-05-01T14:28:38.833Z</time></trkpt><trkpt lat="43.87097816687137" lon="12.473265869788754"><ele>466.20000000000005</ele><time>2026-05-01T14:28:39.833Z</time></trkpt><trkpt lat="43.87098696821986" lon="12.473427411521548"><ele>465.8</ele><time>2026-05-01T14:28:40.833Z</time></trkpt><trkpt lat="43.87100145350551" lon="12.473565672938793"><ele>465.4</ele><time>2026-05-01T14:28:41.833Z</time></trkpt><trkpt lat="43.87106638392586" lon="12.47370169794852"><ele>465.0</ele><time>2026-05-01T14:28:42.833Z</time></trkpt><trkpt lat="43.871174838578675" lon="12.473833464938213"><ele>462.33333333333337</ele><time>2026-05-01T14:28:43.833Z</time></trkpt><trkpt lat="43.87130327584481" lon="12.473996035808497"><ele>459.6666666666667</ele><time>2026-05-01T14:28:44.833Z</time></trkpt><trkpt lat="43.87144793819179" lon="12.474188290880901"><ele>457.0</ele><time>2026-05-01T14:28:45.833Z</time></trkpt><trkpt lat="43.87159794502845" lon="12.474398412158843"><ele>457.0</ele><time>2026-05-01T14:28:46.833Z</time></trkpt><trkpt lat="43.87173722191021" lon="12.47459929022658"><ele>457.0</ele><time>2026-05-01T14:28:47.833Z</time></trkpt><trkpt lat="43.87188546378702" lon="12.474794565985636"><ele>457.0</ele><time>2026-05-01T14:28:48.833Z</time></trkpt><trkpt lat="43.872028806816886" lon="12.474990732259881"><ele>451.6666666666667</ele><time>2026-05-01T14:28:49.833Z</time></trkpt><trkpt lat="43.87216304509608" lon="12.475182005279867"><ele>446.33333333333337</ele><time>2026-05-01T14:28:50.833Z</time></trkpt><trkpt lat="43.87228837649877" lon="12.475385993345219"><ele>441.0</ele><time>2026-05-01T14:28:51.833Z</time></trkpt><trkpt lat="43.87241572080908" lon="12.475578241032808"><ele>439.66666666666663</ele><time>2026-05-01T14:28:52.833Z</time></trkpt><trkpt lat="43.87253711858542" lon="12.475755125184902"><ele>438.3333333333333</ele><time>2026-05-01T14:28:53.833Z</time></trkpt><trkpt lat="43.87265587170199" lon="12.475925131435982"><ele>437.0</ele><time>2026-05-01T14:28:54.833Z</time></trkpt><trkpt lat="43.87277787421672" lon="12.476090594477157"><ele>435.0</ele><time>2026-05-01T14:28:55.833Z</time></trkpt><trkpt lat="43.87288177995306" lon="12.476253711139208"><ele>433.0</ele><time>2026-05-01T14:28:56.833Z</time></trkpt><trkpt lat="43.87295954779903" lon="12.476381998683355"><ele>431.0</ele><time>2026-05-01T14:28:57.833Z</time></trkpt><trkpt lat="43.87302013183979" lon="12.476491219007166"><ele>429.0</ele><time>2026-05-01T14:28:58.833Z</time></trkpt><trkpt lat="43.873059792607656" lon="12.476615933116866"><ele>428.2</ele><time>2026-05-01T14:28:59.833Z</time></trkpt><trkpt lat="43.873054513434" lon="12.476761145134429"><ele>427.4</ele><time>2026-05-01T14:29:00.833Z</time></trkpt><trkpt lat="43.8730127326438" lon="12.476906360349199"><ele>426.6</ele><time>2026-05-01T14:29:01.833Z</time></trkpt><trkpt lat="43.872932625538894" lon="12.477025410583826"><ele>425.8</ele><time>2026-05-01T14:29:02.833Z</time></trkpt><trkpt lat="43.872831247829616" lon="12.47709172660041"><ele>425.0</ele><time>2026-05-01T14:29:03.833Z</time></trkpt><trkpt lat="43.872726482696535" lon="12.477061946140164"><ele>427.0</ele><time>2026-05-01T14:29:04.833Z</time></trkpt><trkpt lat="43.872603500507125" lon="12.477050694494968"><ele>429.0</ele><time>2026-05-01T14:29:05.833Z</time></trkpt><trkpt lat="43.87245040786717" lon="12.477032926205696"><ele>431.0</ele><time>2026-05-01T14:29:06.833Z</time></trkpt><trkpt lat="43.87226618894233" lon="12.477015949155513"><ele>431.0</ele><time>2026-05-01T14:29:07.833Z</time></trkpt><trkpt lat="43.872090629099134" lon="12.47699593421542"><ele>431.0</ele><time>2026-05-01T14:29:08.833Z</time></trkpt><trkpt lat="43.87193056027904" lon="12.47698361703806"><ele>431.0</ele><time>2026-05-01T14:29:09.833Z</time></trkpt><trkpt lat="43.87177469311596" lon="12.476969134079457"><ele>429.0</ele><time>2026-05-01T14:29:10.833Z</time></trkpt><trkpt lat="43.87162936100232" lon="12.476952068986872"><ele>427.0</ele><time>2026-05-01T14:29:11.833Z</time></trkpt><trkpt lat="43.87149282646476" lon="12.476949446425012"><ele>425.0</ele><time>2026-05-01T14:29:12.833Z</time></trkpt><trkpt lat="43.87136586464626" lon="12.476968414645695"><ele>423.0</ele><time>2026-05-01T14:29:13.832Z</time></trkpt><trkpt lat="43.87125683273036" lon="12.477032561834426"><ele>421.4</ele><time>2026-05-01T14:29:14.832Z</time></trkpt><trkpt lat="43.8711477549385" lon="12.477121598704697"><ele>419.79999999999995</ele><time>2026-05-01T14:29:15.832Z</time></trkpt><trkpt lat="43.87106147536247" lon="12.477228035692681"><ele>418.2</ele><time>2026-05-01T14:29:16.832Z</time></trkpt><trkpt lat="43.8710130307669" lon="12.477348579490387"><ele>416.6</ele><time>2026-05-01T14:29:17.832Z</time></trkpt><trkpt lat="43.87098662682762" lon="12.477475694688112"><ele>415.0</ele><time>2026-05-01T14:29:18.832Z</time></trkpt><trkpt lat="43.870984439075976" lon="12.477635781359792"><ele>415.0</ele><time>2026-05-01T14:29:19.832Z</time></trkpt><trkpt lat="43.87098310188408" lon="12.477826593846274"><ele>415.0</ele><time>2026-05-01T14:29:20.832Z</time></trkpt><trkpt lat="43.87097884517995" lon="12.478043884495557"><ele>415.0</ele><time>2026-05-01T14:29:21.832Z</time></trkpt><trkpt lat="43.870967933571066" lon="12.478280047531248"><ele>412.6666666666667</ele><time>2026-05-01T14:29:22.832Z</time></trkpt><trkpt lat="43.870950180552086" lon="12.478512373243127"><ele>410.33333333333337</ele><time>2026-05-01T14:29:23.832Z</time></trkpt><trkpt lat="43.87093802449383" lon="12.478725361145846"><ele>408.0</ele><time>2026-05-01T14:29:24.832Z</time></trkpt><trkpt lat="43.870917986817766" lon="12.478924012954122"><ele>407.5</ele><time>2026-05-01T14:29:25.832Z</time></trkpt><trkpt lat="43.87085333744449" lon="12.479102894680473"><ele>407.0</ele><time>2026-05-01T14:29:26.832Z</time></trkpt><trkpt lat="43.8707849463786" lon="12.479266309642577"><ele>406.5</ele><time>2026-05-01T14:29:27.832Z</time></trkpt><trkpt lat="43.870700691857124" lon="12.479422340679054"><ele>406.0</ele><time>2026-05-01T14:29:28.832Z</time></trkpt><trkpt lat="43.87061429900315" lon="12.479577563413558"><ele>404.25</ele><time>2026-05-01T14:29:29.832Z</time></trkpt><trkpt lat="43.870549854834216" lon="12.479732899125647"><ele>402.5</ele><time>2026-05-01T14:29:30.832Z</time></trkpt><trkpt lat="43.87044945747608" lon="12.479870032914503"><ele>400.75</ele><time>2026-05-01T14:29:31.832Z</time></trkpt><trkpt lat="43.87038267525637" lon="12.480004853513657"><ele>399.0</ele><time>2026-05-01T14:29:32.832Z</time></trkpt><trkpt lat="43.87033218506134" lon="12.480141996111715"><ele>399.0</ele><time>2026-05-01T14:29:33.832Z</time></trkpt><trkpt lat="43.87029639952636" lon="12.480306607133272"><ele>399.0</ele><time>2026-05-01T14:29:34.832Z</time></trkpt><trkpt lat="43.87027869889339" lon="12.480497454663709"><ele>399.0</ele><time>2026-05-01T14:29:35.832Z</time></trkpt><trkpt lat="43.870264745248676" lon="12.480705565813919"><ele>399.0</ele><time>2026-05-01T14:29:36.832Z</time></trkpt><trkpt lat="43.87025335017968" lon="12.48090390610763"><ele>397.0</ele><time>2026-05-01T14:29:37.832Z</time></trkpt><trkpt lat="43.87024004634232" lon="12.481089111370384"><ele>395.0</ele><time>2026-05-01T14:29:38.832Z</time></trkpt><trkpt lat="43.87022109846264" lon="12.481261743668886"><ele>393.0</ele><time>2026-05-01T14:29:39.832Z</time></trkpt><trkpt lat="43.87017313261231" lon="12.48138723222082"><ele>391.0</ele><time>2026-05-01T14:29:40.831Z</time></trkpt><trkpt lat="43.87011670389345" lon="12.48150019901835"><ele>390.5</ele><time>2026-05-01T14:29:41.831Z</time></trkpt><trkpt lat="43.87001610702018" lon="12.48160604063979"><ele>390.0</ele><time>2026-05-01T14:29:42.831Z</time></trkpt><trkpt lat="43.869889096207274" lon="12.481728565342006"><ele>389.5</ele><time>2026-05-01T14:29:43.831Z</time></trkpt><trkpt lat="43.86977837398025" lon="12.48185933458511"><ele>389.0</ele><time>2026-05-01T14:29:44.831Z</time></trkpt><trkpt lat="43.86966580174573" lon="12.48198689200823"><ele>384.5</ele><time>2026-05-01T14:29:45.831Z</time></trkpt><trkpt lat="43.869552125013946" lon="12.482107962133915"><ele>380.0</ele><time>2026-05-01T14:29:46.831Z</time></trkpt><trkpt lat="43.86946262037143" lon="12.482206539069429"><ele>375.5</ele><time>2026-05-01T14:29:47.831Z</time></trkpt><trkpt lat="43.86941153154067" lon="12.482332665327915"><ele>371.0</ele><time>2026-05-01T14:29:48.831Z</time></trkpt><trkpt lat="43.8693968051784" lon="12.48251356859112"><ele>371.0</ele><time>2026-05-01T14:29:49.831Z</time></trkpt><trkpt lat="43.86939272619992" lon="12.482687365874519"><ele>371.0</ele><time>2026-05-01T14:29:50.83Z</time></trkpt><trkpt lat="43.869377225210734" lon="12.482852369491553"><ele>371.0</ele><time>2026-05-01T14:29:51.83Z</time></trkpt><trkpt lat="43.86935392513717" lon="12.482992382037027"><ele>371.0</ele><time>2026-05-01T14:29:52.831Z</time></trkpt><trkpt lat="43.86931470270192" lon="12.483103162061587"><ele>371.0</ele><time>2026-05-01T14:29:53.83Z</time></trkpt><trkpt lat="43.86918272725563" lon="12.48315162445638"><ele>373.0</ele><time>2026-05-01T14:29:54.83Z</time></trkpt><trkpt lat="43.869038194222604" lon="12.483285824917917"><ele>375.0</ele><time>2026-05-01T14:29:55.83Z</time></trkpt><trkpt lat="43.868882687431196" lon="12.4834177529407"><ele>377.0</ele><time>2026-05-01T14:29:56.83Z</time></trkpt><trkpt lat="43.868775937764674" lon="12.48355226206876"><ele>377.0</ele><time>2026-05-01T14:29:57.83Z</time></trkpt><trkpt lat="43.868684936625314" lon="12.483661893389018"><ele>377.0</ele><time>2026-05-01T14:29:58.83Z</time></trkpt><trkpt lat="43.868603680812924" lon="12.483734920951589"><ele>377.0</ele><time>2026-05-01T14:29:59.83Z</time></trkpt><trkpt lat="43.86856600728621" lon="12.483819272265805"><ele>377.0</ele><time>2026-05-01T14:30:00.83Z</time></trkpt><trkpt lat="43.86853391286775" lon="12.483899082649316"><ele>377.0</ele><time>2026-05-01T14:30:01.83Z</time></trkpt><trkpt lat="43.86853665452664" lon="12.484024093406576"><ele>377.0</ele><time>2026-05-01T14:30:02.83Z</time></trkpt><trkpt lat="43.868602747721134" lon="12.48414035129895"><ele>373.8</ele><time>2026-05-01T14:30:03.83Z</time></trkpt><trkpt lat="43.86868599135185" lon="12.4842224133428"><ele>370.6</ele><time>2026-05-01T14:30:04.83Z</time></trkpt><trkpt lat="43.8688029063868" lon="12.484267847203808"><ele>367.40000000000003</ele><time>2026-05-01T14:30:05.83Z</time></trkpt><trkpt lat="43.8688971317263" lon="12.484340216066956"><ele>364.20000000000005</ele><time>2026-05-01T14:30:06.83Z</time></trkpt><trkpt lat="43.869006311624624" lon="12.484395375488806"><ele>361.0</ele><time>2026-05-01T14:30:07.83Z</time></trkpt><trkpt lat="43.86911157354916" lon="12.484443984651229"><ele>361.0</ele><time>2026-05-01T14:30:08.83Z</time></trkpt><trkpt lat="43.8691907728675" lon="12.484497110939936"><ele>361.0</ele><time>2026-05-01T14:30:09.83Z</time></trkpt><trkpt lat="43.86923441004474" lon="12.48458113830334"><ele>361.0</ele><time>2026-05-01T14:30:10.83Z</time></trkpt><trkpt lat="43.869230933958676" lon="12.484703387567242"><ele>361.0</ele><time>2026-05-01T14:30:11.83Z</time></trkpt><trkpt lat="43.86914749452017" lon="12.48479455912504"><ele>361.0</ele><time>2026-05-01T14:30:12.83Z</time></trkpt><trkpt lat="43.86908388551286" lon="12.484886010358908"><ele>361.0</ele><time>2026-05-01T14:30:13.83Z</time></trkpt><trkpt lat="43.869023229152056" lon="12.484969387998701"><ele>357.8</ele><time>2026-05-01T14:30:14.83Z</time></trkpt><trkpt lat="43.86893417016959" lon="12.484966504839504"><ele>354.6</ele><time>2026-05-01T14:30:15.83Z</time></trkpt><trkpt lat="43.86886531006286" lon="12.484915181502476"><ele>351.4</ele><time>2026-05-01T14:30:16.83Z</time></trkpt><trkpt lat="43.868796446228785" lon="12.484840435436874"><ele>348.2</ele><time>2026-05-01T14:30:17.83Z</time></trkpt><trkpt lat="43.86870410960152" lon="12.484750891250028"><ele>345.0</ele><time>2026-05-01T14:30:18.83Z</time></trkpt><trkpt lat="43.8685975715511" lon="12.484650952420433"><ele>347.2</ele><time>2026-05-01T14:30:19.83Z</time></trkpt><trkpt lat="43.86849625002109" lon="12.484568502498238"><ele>349.4</ele><time>2026-05-01T14:30:20.83Z</time></trkpt><trkpt lat="43.86838736733097" lon="12.484535774687004"><ele>351.6</ele><time>2026-05-01T14:30:21.83Z</time></trkpt><trkpt lat="43.868288305699515" lon="12.48449381624968"><ele>353.8</ele><time>2026-05-01T14:30:22.83Z</time></trkpt><trkpt lat="43.86817910294602" lon="12.484488347061054"><ele>356.0</ele><time>2026-05-01T14:30:23.83Z</time></trkpt><trkpt lat="43.86808555008277" lon="12.484554455662748"><ele>352.6</ele><time>2026-05-01T14:30:24.83Z</time></trkpt><trkpt lat="43.8679987228309" lon="12.484625496611752"><ele>349.20000000000005</ele><time>2026-05-01T14:30:25.83Z</time></trkpt><trkpt lat="43.86789855099169" lon="12.484655595344783"><ele>345.79999999999995</ele><time>2026-05-01T14:30:26.83Z</time></trkpt><trkpt lat="43.86778922872728" lon="12.484679513500064"><ele>342.4</ele><time>2026-05-01T14:30:27.83Z</time></trkpt><trkpt lat="43.8676868776767" lon="12.48469442121002"><ele>339.0</ele><time>2026-05-01T14:30:28.83Z</time></trkpt><trkpt lat="43.86759027805916" lon="12.48469598805267"><ele>339.2</ele><time>2026-05-01T14:30:29.83Z</time></trkpt><trkpt lat="43.86750414617602" lon="12.48463774090922"><ele>339.4</ele><time>2026-05-01T14:30:30.83Z</time></trkpt><trkpt lat="43.86743550650409" lon="12.484557602975537"><ele>339.6</ele><time>2026-05-01T14:30:31.83Z</time></trkpt><trkpt lat="43.86736148727352" lon="12.48446319818453"><ele>339.8</ele><time>2026-05-01T14:30:32.83Z</time></trkpt><trkpt lat="43.86727640618413" lon="12.48436651077875"><ele>340.0</ele><time>2026-05-01T14:30:33.83Z</time></trkpt><trkpt lat="43.86717769315464" lon="12.484279379146454"><ele>340.0</ele><time>2026-05-01T14:30:34.83Z</time></trkpt><trkpt lat="43.86710645133897" lon="12.484167980124862"><ele>340.0</ele><time>2026-05-01T14:30:35.83Z</time></trkpt><trkpt lat="43.867035847377615" lon="12.48407737876823"><ele>340.0</ele><time>2026-05-01T14:30:36.83Z</time></trkpt><trkpt lat="43.86697463922695" lon="12.483975477887466"><ele>340.0</ele><time>2026-05-01T14:30:37.83Z</time></trkpt><trkpt lat="43.86692965553106" lon="12.483863111278183"><ele>340.0</ele><time>2026-05-01T14:30:38.83Z</time></trkpt><trkpt lat="43.8668964006025" lon="12.483737299176699"><ele>340.2</ele><time>2026-05-01T14:30:39.83Z</time></trkpt><trkpt lat="43.8668630986267" lon="12.483604476061267"><ele>340.4</ele><time>2026-05-01T14:30:40.83Z</time></trkpt><trkpt lat="43.866834819084396" lon="12.483475199442667"><ele>340.6</ele><time>2026-05-01T14:30:41.83Z</time></trkpt><trkpt lat="43.866799849936264" lon="12.48334366483906"><ele>340.8</ele><time>2026-05-01T14:30:42.83Z</time></trkpt><trkpt lat="43.866755506488595" lon="12.483221136055759"><ele>341.0</ele><time>2026-05-01T14:30:43.83Z</time></trkpt><trkpt lat="43.86669875739752" lon="12.483112792008132"><ele>339.33333333333337</ele><time>2026-05-01T14:30:44.83Z</time></trkpt><trkpt lat="43.866623215784905" lon="12.48302958940397"><ele>337.6666666666667</ele><time>2026-05-01T14:30:45.83Z</time></trkpt><trkpt lat="43.866537206746216" lon="12.482968303876214"><ele>336.0</ele><time>2026-05-01T14:30:46.83Z</time></trkpt><trkpt lat="43.86645878325074" lon="12.482913986357278"><ele>334.3333333333333</ele><time>2026-05-01T14:30:47.83Z</time></trkpt><trkpt lat="43.866388812555996" lon="12.482851302453243"><ele>332.66666666666663</ele><time>2026-05-01T14:30:48.83Z</time></trkpt><trkpt lat="43.86632538430656" lon="12.482788950927587"><ele>331.0</ele><time>2026-05-01T14:30:49.83Z</time></trkpt><trkpt lat="43.866253581344786" lon="12.482746343457626"><ele>331.0</ele><time>2026-05-01T14:30:50.83Z</time></trkpt><trkpt lat="43.866180763524305" lon="12.482688849603168"><ele>331.0</ele><time>2026-05-01T14:30:51.83Z</time></trkpt><trkpt lat="43.86612080593193" lon="12.482641015402335"><ele>331.0</ele><time>2026-05-01T14:30:52.83Z</time></trkpt><trkpt lat="43.86606163995211" lon="12.48260448088313"><ele>331.0</ele><time>2026-05-01T14:30:54.83Z</time></trkpt><trkpt lat="43.86598443568044" lon="12.482808411609813"><ele>331.0</ele><time>2026-05-01T14:31:02.83Z</time></trkpt><trkpt lat="43.86596919896178" lon="12.482955312243021"><ele>330.25</ele><time>2026-05-01T14:31:03.829Z</time></trkpt><trkpt lat="43.86595415966277" lon="12.483137410006723"><ele>329.5</ele><time>2026-05-01T14:31:04.829Z</time></trkpt><trkpt lat="43.86594217456661" lon="12.483325609096237"><ele>328.75</ele><time>2026-05-01T14:31:05.829Z</time></trkpt><trkpt lat="43.86592569152765" lon="12.483506163165277"><ele>328.0</ele><time>2026-05-01T14:31:06.829Z</time></trkpt><trkpt lat="43.865921636080564" lon="12.483703900335675"><ele>326.66666666666663</ele><time>2026-05-01T14:31:07.829Z</time></trkpt><trkpt lat="43.86592669127678" lon="12.48391081811903"><ele>325.3333333333333</ele><time>2026-05-01T14:31:08.829Z</time></trkpt><trkpt lat="43.86594951607138" lon="12.484123877399021"><ele>324.0</ele><time>2026-05-01T14:31:09.829Z</time></trkpt><trkpt lat="43.86597078156703" lon="12.484328686216177"><ele>324.0</ele><time>2026-05-01T14:31:10.829Z</time></trkpt><trkpt lat="43.865988427740135" lon="12.484529038236994"><ele>324.0</ele><time>2026-05-01T14:31:11.829Z</time></trkpt><trkpt lat="43.86600273107195" lon="12.484718308657955"><ele>324.0</ele><time>2026-05-01T14:31:12.829Z</time></trkpt><trkpt lat="43.866024414770074" lon="12.484891552159652"><ele>324.0</ele><time>2026-05-01T14:31:13.829Z</time></trkpt><trkpt lat="43.866050218213864" lon="12.48504582750434"><ele>321.25</ele><time>2026-05-01T14:31:14.829Z</time></trkpt><trkpt lat="43.86609190026468" lon="12.48518770801712"><ele>318.5</ele><time>2026-05-01T14:31:15.829Z</time></trkpt><trkpt lat="43.866161072520306" lon="12.485306079618821"><ele>315.75</ele><time>2026-05-01T14:31:16.829Z</time></trkpt><trkpt lat="43.86625818978888" lon="12.485392444558338"><ele>313.0</ele><time>2026-05-01T14:31:17.829Z</time></trkpt><trkpt lat="43.86638920840956" lon="12.485460982069394"><ele>312.25</ele><time>2026-05-01T14:31:18.829Z</time></trkpt><trkpt lat="43.866531488829864" lon="12.485510725726556"><ele>311.5</ele><time>2026-05-01T14:31:19.829Z</time></trkpt><trkpt lat="43.866661040166456" lon="12.485564378123707"><ele>310.75</ele><time>2026-05-01T14:31:20.829Z</time></trkpt><trkpt lat="43.86677315453666" lon="12.485642387446264"><ele>310.0</ele><time>2026-05-01T14:31:21.829Z</time></trkpt><trkpt lat="43.86686570693141" lon="12.485762799104513"><ele>310.0</ele><time>2026-05-01T14:31:22.829Z</time></trkpt><trkpt lat="43.866951257300585" lon="12.48590042855178"><ele>310.0</ele><time>2026-05-01T14:31:23.829Z</time></trkpt><trkpt lat="43.86702549617744" lon="12.486031925138573"><ele>310.0</ele><time>2026-05-01T14:31:24.829Z</time></trkpt><trkpt lat="43.867098686355384" lon="12.486151701829852"><ele>310.0</ele><time>2026-05-01T14:31:25.829Z</time></trkpt><trkpt lat="43.86717982092982" lon="12.486266736651212"><ele>308.5</ele><time>2026-05-01T14:31:26.829Z</time></trkpt><trkpt lat="43.86727035613727" lon="12.48638081714352"><ele>307.0</ele><time>2026-05-01T14:31:27.829Z</time></trkpt><trkpt lat="43.86737944983471" lon="12.48648207036878"><ele>305.5</ele><time>2026-05-01T14:31:28.829Z</time></trkpt><trkpt lat="43.867502398700346" lon="12.486544650286046"><ele>304.0</ele><time>2026-05-01T14:31:29.829Z</time></trkpt><trkpt lat="43.867628515462194" lon="12.486574246256069"><ele>304.0</ele><time>2026-05-01T14:31:30.829Z</time></trkpt><trkpt lat="43.867750640035325" lon="12.486596673190808"><ele>304.0</ele><time>2026-05-01T14:31:31.829Z</time></trkpt><trkpt lat="43.86787148822708" lon="12.48661462972327"><ele>304.0</ele><time>2026-05-01T14:31:32.829Z</time></trkpt><trkpt lat="43.867987393541625" lon="12.486653873007526"><ele>304.0</ele><time>2026-05-01T14:31:33.829Z</time></trkpt><trkpt lat="43.868084796510296" lon="12.486732402829155"><ele>304.0</ele><time>2026-05-01T14:31:34.829Z</time></trkpt><trkpt lat="43.86817041813103" lon="12.48683775364521"><ele>304.0</ele><time>2026-05-01T14:31:35.829Z</time></trkpt><trkpt lat="43.86824853752123" lon="12.486962376100932"><ele>304.0</ele><time>2026-05-01T14:31:36.829Z</time></trkpt><trkpt lat="43.86831839187976" lon="12.487092731872236"><ele>304.0</ele><time>2026-05-01T14:31:37.829Z</time></trkpt><trkpt lat="43.86836198972958" lon="12.48724618020731"><ele>301.8</ele><time>2026-05-01T14:31:38.829Z</time></trkpt><trkpt lat="43.868405852711135" lon="12.48737045148173"><ele>299.59999999999997</ele><time>2026-05-01T14:31:39.829Z</time></trkpt><trkpt lat="43.86846920613573" lon="12.487482206665227"><ele>297.4</ele><time>2026-05-01T14:31:40.829Z</time></trkpt><trkpt lat="43.86854359744865" lon="12.48757335346294"><ele>295.2</ele><time>2026-05-01T14:31:41.829Z</time></trkpt><trkpt lat="43.86862847327907" lon="12.487635804890155"><ele>293.0</ele><time>2026-05-01T14:31:42.829Z</time></trkpt><trkpt lat="43.86872378946906" lon="12.487668380069724"><ele>293.0</ele><time>2026-05-01T14:31:43.829Z</time></trkpt><trkpt lat="43.86881831205059" lon="12.487703776897161"><ele>293.0</ele><time>2026-05-01T14:31:44.829Z</time></trkpt><trkpt lat="43.86891170965421" lon="12.487734294726517"><ele>293.0</ele><time>2026-05-01T14:31:45.829Z</time></trkpt><trkpt lat="43.86899462503625" lon="12.487786709123842"><ele>293.0</ele><time>2026-05-01T14:31:46.828Z</time></trkpt><trkpt lat="43.869064560815794" lon="12.487863771701361"><ele>293.0</ele><time>2026-05-01T14:31:47.827Z</time></trkpt><trkpt lat="43.86913041487166" lon="12.487964003876993"><ele>292.2</ele><time>2026-05-01T14:31:48.827Z</time></trkpt><trkpt lat="43.86918362805425" lon="12.488101538931547"><ele>291.4</ele><time>2026-05-01T14:31:49.828Z</time></trkpt><trkpt lat="43.86923533343819" lon="12.488231770606559"><ele>290.59999999999997</ele><time>2026-05-01T14:31:50.827Z</time></trkpt><trkpt lat="43.869284365782505" lon="12.488363339121765"><ele>289.8</ele><time>2026-05-01T14:31:51.827Z</time></trkpt><trkpt lat="43.86933215234864" lon="12.488504456788325"><ele>289.0</ele><time>2026-05-01T14:31:52.827Z</time></trkpt><trkpt lat="43.8693783308785" lon="12.488645863067967"><ele>289.66666666666663</ele><time>2026-05-01T14:31:53.828Z</time></trkpt><trkpt lat="43.869426330116745" lon="12.488778710260348"><ele>290.3333333333333</ele><time>2026-05-01T14:31:54.828Z</time></trkpt><trkpt lat="43.86947080874862" lon="12.488899479742106"><ele>291.0</ele><time>2026-05-01T14:31:55.827Z</time></trkpt><trkpt lat="43.86951424569736" lon="12.489007313834708"><ele>291.6666666666667</ele><time>2026-05-01T14:31:56.827Z</time></trkpt><trkpt lat="43.869557916411026" lon="12.48909129231416"><ele>292.33333333333337</ele><time>2026-05-01T14:31:57.827Z</time></trkpt><trkpt lat="43.86960045627408" lon="12.489179046831367"><ele>293.0</ele><time>2026-05-01T14:31:58.828Z</time></trkpt><trkpt lat="43.86966812718483" lon="12.489212695640095"><ele>293.0</ele><time>2026-05-01T14:31:59.827Z</time></trkpt><trkpt lat="43.86974820009857" lon="12.489210488534951"><ele>293.0</ele><time>2026-05-01T14:32:00.827Z</time></trkpt><trkpt lat="43.86983573225582" lon="12.489195079907203"><ele>293.0</ele><time>2026-05-01T14:32:01.827Z</time></trkpt><trkpt lat="43.86992176318668" lon="12.48915841916515"><ele>293.0</ele><time>2026-05-01T14:32:02.827Z</time></trkpt><trkpt lat="43.8699973501574" lon="12.489126409754556"><ele>293.0</ele><time>2026-05-01T14:32:03.827Z</time></trkpt><trkpt lat="43.87007605493181" lon="12.489137180029687"><ele>293.0</ele><time>2026-05-01T14:32:04.827Z</time></trkpt><trkpt lat="43.870151499361164" lon="12.489186934962083"><ele>295.2</ele><time>2026-05-01T14:32:05.827Z</time></trkpt><trkpt lat="43.87021370767877" lon="12.489268666345854"><ele>297.4</ele><time>2026-05-01T14:32:06.827Z</time></trkpt><trkpt lat="43.87025909898973" lon="12.489371112065148"><ele>299.59999999999997</ele><time>2026-05-01T14:32:07.827Z</time></trkpt><trkpt lat="43.87029022537651" lon="12.489485979381902"><ele>301.8</ele><time>2026-05-01T14:32:08.827Z</time></trkpt><trkpt lat="43.870318167568676" lon="12.48962016511476"><ele>304.0</ele><time>2026-05-01T14:32:09.827Z</time></trkpt><trkpt lat="43.87035394559568" lon="12.489789724433997"><ele>304.0</ele><time>2026-05-01T14:32:10.827Z</time></trkpt><trkpt lat="43.87042007653218" lon="12.48996819176759"><ele>304.0</ele><time>2026-05-01T14:32:11.827Z</time></trkpt><trkpt lat="43.870498409093535" lon="12.490187288344623"><ele>304.0</ele><time>2026-05-01T14:32:12.827Z</time></trkpt><trkpt lat="43.87059944972447" lon="12.490383526132076"><ele>301.75</ele><time>2026-05-01T14:32:13.827Z</time></trkpt><trkpt lat="43.8707003342574" lon="12.490559326780925"><ele>299.5</ele><time>2026-05-01T14:32:14.827Z</time></trkpt><trkpt lat="43.87078994475503" lon="12.490717456040846"><ele>297.25</ele><time>2026-05-01T14:32:15.827Z</time></trkpt><trkpt lat="43.87088122175447" lon="12.490867504353163"><ele>295.0</ele><time>2026-05-01T14:32:16.827Z</time></trkpt><trkpt lat="43.87095291195372" lon="12.491030272736014"><ele>296.75</ele><time>2026-05-01T14:32:17.827Z</time></trkpt><trkpt lat="43.871027700869" lon="12.491177868503494"><ele>298.5</ele><time>2026-05-01T14:32:18.827Z</time></trkpt><trkpt lat="43.871092826043736" lon="12.491330163233924"><ele>300.25</ele><time>2026-05-01T14:32:19.827Z</time></trkpt><trkpt lat="43.871149503825286" lon="12.491482334302509"><ele>302.0</ele><time>2026-05-01T14:32:20.827Z</time></trkpt><trkpt lat="43.871200241867044" lon="12.491636182611273"><ele>302.0</ele><time>2026-05-01T14:32:21.827Z</time></trkpt><trkpt lat="43.87126759063855" lon="12.491785637527899"><ele>302.0</ele><time>2026-05-01T14:32:22.827Z</time></trkpt><trkpt lat="43.87132803361464" lon="12.491944534621284"><ele>302.0</ele><time>2026-05-01T14:32:23.827Z</time></trkpt><trkpt lat="43.87139610763862" lon="12.492101641140655"><ele>302.0</ele><time>2026-05-01T14:32:24.827Z</time></trkpt><trkpt lat="43.871470234587946" lon="12.492237189207815"><ele>299.75</ele><time>2026-05-01T14:32:25.827Z</time></trkpt><trkpt lat="43.871563599382426" lon="12.492360943212061"><ele>297.5</ele><time>2026-05-01T14:32:26.827Z</time></trkpt><trkpt lat="43.87165671084694" lon="12.492482435852882"><ele>295.25</ele><time>2026-05-01T14:32:27.827Z</time></trkpt><trkpt lat="43.871756825401874" lon="12.492584639302494"><ele>293.0</ele><time>2026-05-01T14:32:28.827Z</time></trkpt><trkpt lat="43.87185738306544" lon="12.492685110917524"><ele>293.0</ele><time>2026-05-01T14:32:29.827Z</time></trkpt><trkpt lat="43.87195926426013" lon="12.492798959460197"><ele>293.0</ele><time>2026-05-01T14:32:30.827Z</time></trkpt><trkpt lat="43.87206548391218" lon="12.492915537810388"><ele>293.0</ele><time>2026-05-01T14:32:31.827Z</time></trkpt><trkpt lat="43.87217313372796" lon="12.493032787907188"><ele>293.0</ele><time>2026-05-01T14:32:32.827Z</time></trkpt><trkpt lat="43.87228924566659" lon="12.493168743459726"><ele>291.0</ele><time>2026-05-01T14:32:33.827Z</time></trkpt><trkpt lat="43.87241933580702" lon="12.493308510879723"><ele>289.0</ele><time>2026-05-01T14:32:34.827Z</time></trkpt><trkpt lat="43.872570339073775" lon="12.493471481622688"><ele>287.0</ele><time>2026-05-01T14:32:35.827Z</time></trkpt><trkpt lat="43.87273950765155" lon="12.493696996014782"><ele>286.0</ele><time>2026-05-01T14:32:36.827Z</time></trkpt><trkpt lat="43.87293700841957" lon="12.493907732296808"><ele>285.0</ele><time>2026-05-01T14:32:37.827Z</time></trkpt><trkpt lat="43.87310084390706" lon="12.49411499275954"><ele>285.0</ele><time>2026-05-01T14:32:38.827Z</time></trkpt><trkpt lat="43.873259396315405" lon="12.494297683889899"><ele>285.0</ele><time>2026-05-01T14:32:39.827Z</time></trkpt><trkpt lat="43.873404634623625" lon="12.494474773012575"><ele>285.0</ele><time>2026-05-01T14:32:40.827Z</time></trkpt><trkpt lat="43.873546666704854" lon="12.494631638471922"><ele>284.6666666666667</ele><time>2026-05-01T14:32:41.827Z</time></trkpt><trkpt lat="43.87368998781066" lon="12.494772059438342"><ele>284.33333333333337</ele><time>2026-05-01T14:32:42.827Z</time></trkpt><trkpt lat="43.873823807126605" lon="12.494923126054893"><ele>284.0</ele><time>2026-05-01T14:32:43.827Z</time></trkpt><trkpt lat="43.87395265658209" lon="12.495062578205859"><ele>284.0</ele><time>2026-05-01T14:32:44.827Z</time></trkpt><trkpt lat="43.87408127279364" lon="12.495179245106463"><ele>284.0</ele><time>2026-05-01T14:32:45.827Z</time></trkpt><trkpt lat="43.8742091439004" lon="12.495280348534608"><ele>284.0</ele><time>2026-05-01T14:32:46.826Z</time></trkpt><trkpt lat="43.874339939046614" lon="12.495352729637082"><ele>284.0</ele><time>2026-05-01T14:32:47.826Z</time></trkpt><trkpt lat="43.87445719805206" lon="12.495432150444154"><ele>282.4</ele><time>2026-05-01T14:32:48.826Z</time></trkpt><trkpt lat="43.87457219470971" lon="12.495507770843059"><ele>280.79999999999995</ele><time>2026-05-01T14:32:49.826Z</time></trkpt><trkpt lat="43.874690270189895" lon="12.495569502293502"><ele>279.20000000000005</ele><time>2026-05-01T14:32:50.826Z</time></trkpt><trkpt lat="43.87479312756772" lon="12.495632092113771"><ele>277.6</ele><time>2026-05-01T14:32:51.826Z</time></trkpt><trkpt lat="43.87485865140684" lon="12.495689958563688"><ele>276.0</ele><time>2026-05-01T14:32:52.826Z</time></trkpt><trkpt lat="43.87491322555749" lon="12.495846702967885"><ele>276.0</ele><time>2026-05-01T14:32:54.826Z</time></trkpt><trkpt lat="43.87492603226527" lon="12.495943424002634"><ele>276.0</ele><time>2026-05-01T14:32:55.826Z</time></trkpt><trkpt lat="43.87502918102562" lon="12.495981387530547"><ele>276.0</ele><time>2026-05-01T14:32:57.826Z</time></trkpt><trkpt lat="43.87510720250645" lon="12.49598428477958"><ele>276.0</ele><time>2026-05-01T14:32:58.826Z</time></trkpt><trkpt lat="43.87521160521663" lon="12.495966997449402"><ele>276.0</ele><time>2026-05-01T14:32:59.826Z</time></trkpt><trkpt lat="43.875302565488255" lon="12.496070879740541"><ele>276.5</ele><time>2026-05-01T14:33:00.826Z</time></trkpt><trkpt lat="43.87539822072529" lon="12.496189905919994"><ele>277.0</ele><time>2026-05-01T14:33:01.826Z</time></trkpt><trkpt lat="43.87548233726881" lon="12.496306810590923"><ele>277.5</ele><time>2026-05-01T14:33:02.826Z</time></trkpt><trkpt lat="43.875555710181104" lon="12.496409591595654"><ele>278.0</ele><time>2026-05-01T14:33:03.826Z</time></trkpt><trkpt lat="43.87562604637196" lon="12.496517241197438"><ele>276.5</ele><time>2026-05-01T14:33:04.826Z</time></trkpt><trkpt lat="43.87570138188087" lon="12.496631421259837"><ele>275.0</ele><time>2026-05-01T14:33:05.826Z</time></trkpt><trkpt lat="43.87577699416426" lon="12.496757132501228"><ele>273.5</ele><time>2026-05-01T14:33:06.826Z</time></trkpt><trkpt lat="43.87584823527557" lon="12.496897603479647"><ele>272.0</ele><time>2026-05-01T14:33:07.826Z</time></trkpt><trkpt lat="43.87592161529163" lon="12.497059656237683"><ele>275.33333333333337</ele><time>2026-05-01T14:33:08.826Z</time></trkpt><trkpt lat="43.87596644101821" lon="12.497249535843016"><ele>278.6666666666667</ele><time>2026-05-01T14:33:09.826Z</time></trkpt><trkpt lat="43.87599698436521" lon="12.49747996958139"><ele>282.0</ele><time>2026-05-01T14:33:10.826Z</time></trkpt><trkpt lat="43.87604041146106" lon="12.497706598745353"><ele>278.6666666666667</ele><time>2026-05-01T14:33:11.826Z</time></trkpt><trkpt lat="43.87608722992502" lon="12.497981336217368"><ele>275.33333333333337</ele><time>2026-05-01T14:33:12.826Z</time></trkpt><trkpt lat="43.876140161952286" lon="12.498279289041708"><ele>272.0</ele><time>2026-05-01T14:33:13.826Z</time></trkpt><trkpt lat="43.876196585934714" lon="12.49860173327016"><ele>269.5</ele><time>2026-05-01T14:33:14.826Z</time></trkpt><trkpt lat="43.876272360268864" lon="12.498913435423512"><ele>267.0</ele><time>2026-05-01T14:33:15.826Z</time></trkpt><trkpt lat="43.8763712975607" lon="12.499186904757302"><ele>267.0</ele><time>2026-05-01T14:33:16.826Z</time></trkpt><trkpt lat="43.87647288063796" lon="12.499475553708798"><ele>267.0</ele><time>2026-05-01T14:33:17.826Z</time></trkpt><trkpt lat="43.8765930428997" lon="12.49977106963581"><ele>265.5</ele><time>2026-05-01T14:33:18.826Z</time></trkpt><trkpt lat="43.876714192155724" lon="12.500082423686449"><ele>264.0</ele><time>2026-05-01T14:33:19.826Z</time></trkpt><trkpt lat="43.87683724369508" lon="12.500378730797005"><ele>265.5</ele><time>2026-05-01T14:33:20.826Z</time></trkpt><trkpt lat="43.87696248459172" lon="12.500675351329564"><ele>267.0</ele><time>2026-05-01T14:33:21.826Z</time></trkpt><trkpt lat="43.877088190462075" lon="12.500974519031084"><ele>264.5</ele><time>2026-05-01T14:33:22.826Z</time></trkpt><trkpt lat="43.87721424090483" lon="12.501275497952122"><ele>262.0</ele><time>2026-05-01T14:33:23.826Z</time></trkpt><trkpt lat="43.8773380484857" lon="12.501574474388013"><ele>262.0</ele><time>2026-05-01T14:33:24.826Z</time></trkpt><trkpt lat="43.87746213630196" lon="12.501873599317785"><ele>262.0</ele><time>2026-05-01T14:33:25.826Z</time></trkpt><trkpt lat="43.8775939300248" lon="12.50216312018788"><ele>266.0</ele><time>2026-05-01T14:33:26.826Z</time></trkpt><trkpt lat="43.87771846373426" lon="12.502461561996133"><ele>270.0</ele><time>2026-05-01T14:33:27.826Z</time></trkpt><trkpt lat="43.87783060407443" lon="12.502734609898926"><ele>268.0</ele><time>2026-05-01T14:33:28.826Z</time></trkpt><trkpt lat="43.87793390720084" lon="12.502989091140863"><ele>266.0</ele><time>2026-05-01T14:33:29.826Z</time></trkpt><trkpt lat="43.87803289606349" lon="12.503235049597345"><ele>264.0</ele><time>2026-05-01T14:33:30.826Z</time></trkpt><trkpt lat="43.87812971515427" lon="12.503471526549792"><ele>264.0</ele><time>2026-05-01T14:33:31.826Z</time></trkpt><trkpt lat="43.878234139001194" lon="12.503695573175985"><ele>264.0</ele><time>2026-05-01T14:33:32.826Z</time></trkpt><trkpt lat="43.87834564359051" lon="12.503917536867434"><ele>264.0</ele><time>2026-05-01T14:33:33.826Z</time></trkpt><trkpt lat="43.87846327600564" lon="12.504139274377867"><ele>264.6666666666667</ele><time>2026-05-01T14:33:34.826Z</time></trkpt><trkpt lat="43.878587691847564" lon="12.50437495489423"><ele>265.33333333333337</ele><time>2026-05-01T14:33:35.826Z</time></trkpt><trkpt lat="43.878722558167496" lon="12.504610321046957"><ele>266.0</ele><time>2026-05-01T14:33:36.826Z</time></trkpt><trkpt lat="43.878853218958255" lon="12.50485146902683"><ele>264.0</ele><time>2026-05-01T14:33:37.826Z</time></trkpt><trkpt lat="43.8789825273656" lon="12.505090904927883"><ele>262.0</ele><time>2026-05-01T14:33:38.826Z</time></trkpt><trkpt lat="43.87911080548286" lon="12.505333547540966"><ele>260.0</ele><time>2026-05-01T14:33:39.826Z</time></trkpt><trkpt lat="43.87923366141484" lon="12.505559105602002"><ele>261.0</ele><time>2026-05-01T14:33:40.826Z</time></trkpt><trkpt lat="43.87934062703624" lon="12.505784545914269"><ele>262.0</ele><time>2026-05-01T14:33:41.826Z</time></trkpt><trkpt lat="43.87941195011401" lon="12.506045020298584"><ele>263.0</ele><time>2026-05-01T14:33:42.826Z</time></trkpt><trkpt lat="43.87947680353637" lon="12.50633806128156"><ele>260.0</ele><time>2026-05-01T14:33:43.826Z</time></trkpt><trkpt lat="43.879544454659275" lon="12.506669074648743"><ele>257.0</ele><time>2026-05-01T14:33:44.826Z</time></trkpt><trkpt lat="43.87964336568607" lon="12.507015708729728"><ele>253.5</ele><time>2026-05-01T14:33:45.826Z</time></trkpt><trkpt lat="43.8797495890609" lon="12.507347314036162"><ele>250.0</ele><time>2026-05-01T14:33:46.826Z</time></trkpt><trkpt lat="43.87989208507488" lon="12.507686652454888"><ele>248.0</ele><time>2026-05-01T14:33:47.826Z</time></trkpt><trkpt lat="43.88003612995215" lon="12.508006336343247"><ele>246.0</ele><time>2026-05-01T14:33:48.826Z</time></trkpt><trkpt lat="43.880163486530606" lon="12.508293653551485"><ele>250.0</ele><time>2026-05-01T14:33:49.826Z</time></trkpt><trkpt lat="43.880284699295785" lon="12.5085686098405"><ele>254.0</ele><time>2026-05-01T14:33:50.826Z</time></trkpt><trkpt lat="43.88039661436223" lon="12.508830353132954"><ele>254.0</ele><time>2026-05-01T14:33:51.826Z</time></trkpt><trkpt lat="43.88050185239833" lon="12.509091744841669"><ele>254.0</ele><time>2026-05-01T14:33:52.825Z</time></trkpt><trkpt lat="43.88060431255006" lon="12.509350810700084"><ele>254.0</ele><time>2026-05-01T14:33:53.826Z</time></trkpt><trkpt lat="43.880713869857075" lon="12.509612332454742"><ele>256.33333333333337</ele><time>2026-05-01T14:33:54.826Z</time></trkpt><trkpt lat="43.8808110168558" lon="12.50986705716563"><ele>258.6666666666667</ele><time>2026-05-01T14:33:55.825Z</time></trkpt><trkpt lat="43.88090436389163" lon="12.51011934885193"><ele>261.0</ele><time>2026-05-01T14:33:56.825Z</time></trkpt><trkpt lat="43.88097384555488" lon="12.51040421779872"><ele>256.6666666666667</ele><time>2026-05-01T14:33:57.825Z</time></trkpt><trkpt lat="43.88106932648192" lon="12.51068255910599"><ele>252.33333333333334</ele><time>2026-05-01T14:33:58.826Z</time></trkpt><trkpt lat="43.8811439043577" lon="12.510956911414894"><ele>248.0</ele><time>2026-05-01T14:33:59.825Z</time></trkpt><trkpt lat="43.881217430864524" lon="12.511216866226059"><ele>246.0</ele><time>2026-05-01T14:34:00.825Z</time></trkpt><trkpt lat="43.88128561096494" lon="12.511488264586351"><ele>244.0</ele><time>2026-05-01T14:34:01.825Z</time></trkpt><trkpt lat="43.881351363616375" lon="12.511756864690707"><ele>242.0</ele><time>2026-05-01T14:34:02.826Z</time></trkpt><trkpt lat="43.88141963917326" lon="12.51202615025811"><ele>241.66666666666669</ele><time>2026-05-01T14:34:03.825Z</time></trkpt><trkpt lat="43.88148816119361" lon="12.51230156353947"><ele>241.33333333333331</ele><time>2026-05-01T14:34:04.825Z</time></trkpt><trkpt lat="43.881554862464235" lon="12.512580769206807"><ele>241.0</ele><time>2026-05-01T14:34:05.825Z</time></trkpt><trkpt lat="43.88160846702406" lon="12.512864111921052"><ele>240.66666666666666</ele><time>2026-05-01T14:34:06.825Z</time></trkpt><trkpt lat="43.88163458389276" lon="12.513142385538465"><ele>240.33333333333331</ele><time>2026-05-01T14:34:07.825Z</time></trkpt><trkpt lat="43.88165181714648" lon="12.513410784649372"><ele>240.0</ele><time>2026-05-01T14:34:08.825Z</time></trkpt><trkpt lat="43.88166390328221" lon="12.513666423621652"><ele>239.0</ele><time>2026-05-01T14:34:09.825Z</time></trkpt><trkpt lat="43.88167851842363" lon="12.513905361572965"><ele>238.0</ele><time>2026-05-01T14:34:10.825Z</time></trkpt><trkpt lat="43.88168799345225" lon="12.514139339339577"><ele>237.0</ele><time>2026-05-01T14:34:11.825Z</time></trkpt><trkpt lat="43.88169682332126" lon="12.514370025441702"><ele>236.0</ele><time>2026-05-01T14:34:12.825Z</time></trkpt><trkpt lat="43.88170588916636" lon="12.514608116196564"><ele>235.0</ele><time>2026-05-01T14:34:13.825Z</time></trkpt><trkpt lat="43.88172444248482" lon="12.514858055959081"><ele>234.0</ele><time>2026-05-01T14:34:14.825Z</time></trkpt><trkpt lat="43.8817447968886" lon="12.515116966477192"><ele>234.0</ele><time>2026-05-01T14:34:15.825Z</time></trkpt><trkpt lat="43.881763869141984" lon="12.515381222456163"><ele>234.0</ele><time>2026-05-01T14:34:16.825Z</time></trkpt><trkpt lat="43.88179977082628" lon="12.515658386763803"><ele>234.0</ele><time>2026-05-01T14:34:17.825Z</time></trkpt><trkpt lat="43.88184525522235" lon="12.515957893186503"><ele>238.0</ele><time>2026-05-01T14:34:18.825Z</time></trkpt><trkpt lat="43.88189251224678" lon="12.516297150864364"><ele>242.0</ele><time>2026-05-01T14:34:19.825Z</time></trkpt><trkpt lat="43.881940778814" lon="12.516654650922488"><ele>242.0</ele><time>2026-05-01T14:34:20.825Z</time></trkpt><trkpt lat="43.88197205616629" lon="12.5170298092886"><ele>242.0</ele><time>2026-05-01T14:34:21.825Z</time></trkpt><trkpt lat="43.88202550171298" lon="12.517408306433321"><ele>240.5</ele><time>2026-05-01T14:34:22.825Z</time></trkpt><trkpt lat="43.882080250814425" lon="12.517789216923285"><ele>239.0</ele><time>2026-05-01T14:34:23.825Z</time></trkpt><trkpt lat="43.88213235792472" lon="12.51817535573613"><ele>236.0</ele><time>2026-05-01T14:34:24.825Z</time></trkpt><trkpt lat="43.88218027337434" lon="12.518544431895455"><ele>233.0</ele><time>2026-05-01T14:34:25.825Z</time></trkpt><trkpt lat="43.88222295247253" lon="12.518880075252307"><ele>230.5</ele><time>2026-05-01T14:34:26.825Z</time></trkpt><trkpt lat="43.88226722082167" lon="12.519192499399246"><ele>228.0</ele><time>2026-05-01T14:34:27.825Z</time></trkpt><trkpt lat="43.88230473952281" lon="12.519497005089404"><ele>226.5</ele><time>2026-05-01T14:34:28.825Z</time></trkpt><trkpt lat="43.882337950898666" lon="12.519806203149177"><ele>225.0</ele><time>2026-05-01T14:34:29.825Z</time></trkpt><trkpt lat="43.88236200487184" lon="12.520123017466304"><ele>225.5</ele><time>2026-05-01T14:34:30.825Z</time></trkpt><trkpt lat="43.8823796491283" lon="12.520441943711681"><ele>226.0</ele><time>2026-05-01T14:34:31.825Z</time></trkpt><trkpt lat="43.88239908372029" lon="12.520758463632738"><ele>226.0</ele><time>2026-05-01T14:34:32.825Z</time></trkpt><trkpt lat="43.88241947977846" lon="12.52105546768569"><ele>226.0</ele><time>2026-05-01T14:34:33.825Z</time></trkpt><trkpt lat="43.88244270376995" lon="12.52133505886148"><ele>226.0</ele><time>2026-05-01T14:34:34.825Z</time></trkpt><trkpt lat="43.88245990821367" lon="12.521610176426211"><ele>226.66666666666666</ele><time>2026-05-01T14:34:35.825Z</time></trkpt><trkpt lat="43.88247400427416" lon="12.52187427387589"><ele>227.33333333333331</ele><time>2026-05-01T14:34:36.825Z</time></trkpt><trkpt lat="43.88249026169882" lon="12.522129338246366"><ele>228.0</ele><time>2026-05-01T14:34:37.825Z</time></trkpt><trkpt lat="43.88250502970113" lon="12.522373602273522"><ele>228.0</ele><time>2026-05-01T14:34:38.824Z</time></trkpt><trkpt lat="43.88251861270665" lon="12.522607916826088"><ele>228.0</ele><time>2026-05-01T14:34:39.823Z</time></trkpt><trkpt lat="43.88253498977847" lon="12.52283727695619"><ele>228.0</ele><time>2026-05-01T14:34:40.821Z</time></trkpt><trkpt lat="43.88255348762176" lon="12.52305424372892"><ele>228.66666666666669</ele><time>2026-05-01T14:34:41.82Z</time></trkpt><trkpt lat="43.882572522810236" lon="12.523264527354318"><ele>229.33333333333334</ele><time>2026-05-01T14:34:42.819Z</time></trkpt><trkpt lat="43.88260144203528" lon="12.523485505650685"><ele>230.0</ele><time>2026-05-01T14:34:43.818Z</time></trkpt><trkpt lat="43.88263866210581" lon="12.523706983328502"><ele>226.66666666666669</ele><time>2026-05-01T14:34:44.817Z</time></trkpt><trkpt lat="43.8826833069031" lon="12.523929920027465"><ele>223.33333333333331</ele><time>2026-05-01T14:34:45.816Z</time></trkpt><trkpt lat="43.88274062714184" lon="12.52414686424808"><ele>220.0</ele><time>2026-05-01T14:34:46.816Z</time></trkpt><trkpt lat="43.88281226989367" lon="12.524346913067237"><ele>220.0</ele><time>2026-05-01T14:34:47.815Z</time></trkpt><trkpt lat="43.88288789487578" lon="12.524529217179785"><ele>220.0</ele><time>2026-05-01T14:34:48.814Z</time></trkpt><trkpt lat="43.88296952617906" lon="12.524692245496981"><ele>220.0</ele><time>2026-05-01T14:34:49.813Z</time></trkpt><trkpt lat="43.88304968064433" lon="12.524850481085322"><ele>220.0</ele><time>2026-05-01T14:34:50.813Z</time></trkpt><trkpt lat="43.883134053457944" lon="12.525009681686425"><ele>219.0</ele><time>2026-05-01T14:34:51.812Z</time></trkpt><trkpt lat="43.88322857637" lon="12.525163471021898"><ele>218.0</ele><time>2026-05-01T14:34:52.812Z</time></trkpt><trkpt lat="43.88332005360053" lon="12.52530711252344"><ele>217.0</ele><time>2026-05-01T14:34:53.811Z</time></trkpt><trkpt lat="43.88341146191183" lon="12.525432228567375"><ele>216.0</ele><time>2026-05-01T14:34:54.811Z</time></trkpt><trkpt lat="43.883517307506246" lon="12.52553402627357"><ele>215.25</ele><time>2026-05-01T14:34:55.81Z</time></trkpt><trkpt lat="43.883611866359075" lon="12.525632992294248"><ele>214.5</ele><time>2026-05-01T14:34:56.81Z</time></trkpt><trkpt lat="43.88371021562064" lon="12.525719230248857"><ele>213.75</ele><time>2026-05-01T14:34:57.809Z</time></trkpt><trkpt lat="43.88380132192577" lon="12.52580571062549"><ele>213.0</ele><time>2026-05-01T14:34:58.809Z</time></trkpt><trkpt lat="43.88388754328933" lon="12.525893989244901"><ele>213.0</ele><time>2026-05-01T14:34:59.809Z</time></trkpt><trkpt lat="43.88397867288684" lon="12.525989474697296"><ele>213.0</ele><time>2026-05-01T14:35:00.808Z</time></trkpt><trkpt lat="43.88407076305812" lon="12.526083919773408"><ele>213.0</ele><time>2026-05-01T14:35:01.808Z</time></trkpt><trkpt lat="43.8841580393253" lon="12.526168596278223"><ele>213.0</ele><time>2026-05-01T14:35:02.808Z</time></trkpt><trkpt lat="43.88424203910266" lon="12.526243860495073"><ele>213.0</ele><time>2026-05-01T14:35:03.807Z</time></trkpt><trkpt lat="43.88431856381878" lon="12.526323092474914"><ele>212.8</ele><time>2026-05-01T14:35:04.807Z</time></trkpt><trkpt lat="43.88439713177221" lon="12.526392752477799"><ele>212.60000000000002</ele><time>2026-05-01T14:35:05.807Z</time></trkpt><trkpt lat="43.88447097172958" lon="12.52646056406759"><ele>212.39999999999998</ele><time>2026-05-01T14:35:06.807Z</time></trkpt><trkpt lat="43.88455546572525" lon="12.526538594242137"><ele>212.2</ele><time>2026-05-01T14:35:07.806Z</time></trkpt><trkpt lat="43.8846379299365" lon="12.526624221187157"><ele>212.0</ele><time>2026-05-01T14:35:08.806Z</time></trkpt><trkpt lat="43.884707836024056" lon="12.526715267092653"><ele>212.0</ele><time>2026-05-01T14:35:09.806Z</time></trkpt><trkpt lat="43.884761346313425" lon="12.526814082182343"><ele>212.0</ele><time>2026-05-01T14:35:10.806Z</time></trkpt><trkpt lat="43.88481744713758" lon="12.52690313969622"><ele>212.0</ele><time>2026-05-01T14:35:11.806Z</time></trkpt><trkpt lat="43.884922965171896" lon="12.526926128588602"><ele>212.0</ele><time>2026-05-01T14:35:12.806Z</time></trkpt><trkpt lat="43.88499594421369" lon="12.52701194660711"><ele>212.0</ele><time>2026-05-01T14:35:13.805Z</time></trkpt><trkpt lat="43.88508819978064" lon="12.52705710371306"><ele>212.0</ele><time>2026-05-01T14:35:14.805Z</time></trkpt><trkpt lat="43.88517546985498" lon="12.527145253014503"><ele>212.0</ele><time>2026-05-01T14:35:15.805Z</time></trkpt><trkpt lat="43.885267652485766" lon="12.527244001956712"><ele>212.0</ele><time>2026-05-01T14:35:16.805Z</time></trkpt><trkpt lat="43.88539249041209" lon="12.527356886047555"><ele>212.0</ele><time>2026-05-01T14:35:17.805Z</time></trkpt><trkpt lat="43.88554163282936" lon="12.527502882354588"><ele>212.0</ele><time>2026-05-01T14:35:18.805Z</time></trkpt><trkpt lat="43.88571449068014" lon="12.527724377573515"><ele>212.0</ele><time>2026-05-01T14:35:19.805Z</time></trkpt><trkpt lat="43.88590324913739" lon="12.527970610924717"><ele>214.5</ele><time>2026-05-01T14:35:20.804Z</time></trkpt><trkpt lat="43.886104951372204" lon="12.528234814464836"><ele>217.0</ele><time>2026-05-01T14:35:21.804Z</time></trkpt><trkpt lat="43.88629095912217" lon="12.528488412896785"><ele>217.0</ele><time>2026-05-01T14:35:22.804Z</time></trkpt><trkpt lat="43.88645368337927" lon="12.528721318992124"><ele>217.0</ele><time>2026-05-01T14:35:23.804Z</time></trkpt><trkpt lat="43.88661364748816" lon="12.528936488281339"><ele>218.0</ele><time>2026-05-01T14:35:24.804Z</time></trkpt><trkpt lat="43.886782244465245" lon="12.529158325353576"><ele>219.0</ele><time>2026-05-01T14:35:25.804Z</time></trkpt><trkpt lat="43.88695652377489" lon="12.529400272429633"><ele>214.5</ele><time>2026-05-01T14:35:26.804Z</time></trkpt><trkpt lat="43.88714120930102" lon="12.529659976809024"><ele>210.0</ele><time>2026-05-01T14:35:27.804Z</time></trkpt><trkpt lat="43.88735141767438" lon="12.529925379240094"><ele>210.0</ele><time>2026-05-01T14:35:28.804Z</time></trkpt><trkpt lat="43.88756364009558" lon="12.530213773267187"><ele>210.0</ele><time>2026-05-01T14:35:29.804Z</time></trkpt><trkpt lat="43.887763097028724" lon="12.530507918240414"><ele>209.5</ele><time>2026-05-01T14:35:30.804Z</time></trkpt><trkpt lat="43.88795795298907" lon="12.530791873810637"><ele>209.0</ele><time>2026-05-01T14:35:31.804Z</time></trkpt><trkpt lat="43.888145177026736" lon="12.531035317392943"><ele>211.0</ele><time>2026-05-01T14:35:32.804Z</time></trkpt><trkpt lat="43.88832506901456" lon="12.531265159790852"><ele>213.0</ele><time>2026-05-01T14:35:33.804Z</time></trkpt><trkpt lat="43.88849318101347" lon="12.531482720957701"><ele>213.0</ele><time>2026-05-01T14:35:34.803Z</time></trkpt><trkpt lat="43.88865535575422" lon="12.531692671201757"><ele>213.0</ele><time>2026-05-01T14:35:35.803Z</time></trkpt><trkpt lat="43.88882308273148" lon="12.531895206557882"><ele>213.0</ele><time>2026-05-01T14:35:36.803Z</time></trkpt><trkpt lat="43.88900185548947" lon="12.532077143786843"><ele>209.66666666666669</ele><time>2026-05-01T14:35:37.803Z</time></trkpt><trkpt lat="43.88917470906848" lon="12.532246345257152"><ele>206.33333333333334</ele><time>2026-05-01T14:35:38.803Z</time></trkpt><trkpt lat="43.889349004525656" lon="12.532401135946072"><ele>203.0</ele><time>2026-05-01T14:35:39.803Z</time></trkpt><trkpt lat="43.88953473748172" lon="12.532548320784716"><ele>203.0</ele><time>2026-05-01T14:35:40.803Z</time></trkpt><trkpt lat="43.889729629001984" lon="12.532698458233764"><ele>203.0</ele><time>2026-05-01T14:35:41.803Z</time></trkpt><trkpt lat="43.88993108914198" lon="12.532836941063353"><ele>203.0</ele><time>2026-05-01T14:35:42.803Z</time></trkpt><trkpt lat="43.89014755214551" lon="12.532977158459698"><ele>201.66666666666669</ele><time>2026-05-01T14:35:43.803Z</time></trkpt><trkpt lat="43.89035949700481" lon="12.533101049454515"><ele>200.33333333333331</ele><time>2026-05-01T14:35:44.803Z</time></trkpt><trkpt lat="43.89055395621559" lon="12.533203888770295"><ele>199.0</ele><time>2026-05-01T14:35:45.803Z</time></trkpt><trkpt lat="43.890747403495595" lon="12.533286181272144"><ele>198.0</ele><time>2026-05-01T14:35:46.803Z</time></trkpt><trkpt lat="43.89097349514281" lon="12.533365744824511"><ele>197.0</ele><time>2026-05-01T14:35:47.803Z</time></trkpt><trkpt lat="43.89122182317671" lon="12.533439527743008"><ele>197.0</ele><time>2026-05-01T14:35:48.803Z</time></trkpt><trkpt lat="43.891476131411984" lon="12.533487299444214"><ele>197.0</ele><time>2026-05-01T14:35:49.803Z</time></trkpt><trkpt lat="43.8917084850654" lon="12.533524501509909"><ele>196.66666666666669</ele><time>2026-05-01T14:35:50.803Z</time></trkpt><trkpt lat="43.891922477636236" lon="12.533560884627766"><ele>196.33333333333331</ele><time>2026-05-01T14:35:51.803Z</time></trkpt><trkpt lat="43.892126300060944" lon="12.533597790780789"><ele>196.0</ele><time>2026-05-01T14:35:52.803Z</time></trkpt><trkpt lat="43.892337016977095" lon="12.533625395910306"><ele>196.0</ele><time>2026-05-01T14:35:53.803Z</time></trkpt><trkpt lat="43.892555364395726" lon="12.533662772157008"><ele>196.0</ele><time>2026-05-01T14:35:54.803Z</time></trkpt><trkpt lat="43.89277422746546" lon="12.533694765408688"><ele>196.0</ele><time>2026-05-01T14:35:55.803Z</time></trkpt><trkpt lat="43.892989313760594" lon="12.533717453898467"><ele>195.66666666666666</ele><time>2026-05-01T14:35:56.803Z</time></trkpt><trkpt lat="43.89319285962969" lon="12.533721845292241"><ele>195.33333333333331</ele><time>2026-05-01T14:35:57.803Z</time></trkpt><trkpt lat="43.89338802005438" lon="12.533709237059218"><ele>195.0</ele><time>2026-05-01T14:35:58.803Z</time></trkpt><trkpt lat="43.893578532343724" lon="12.533697242236553"><ele>196.33333333333331</ele><time>2026-05-01T14:35:59.802Z</time></trkpt><trkpt lat="43.893750869769015" lon="12.53368297839771"><ele>197.66666666666666</ele><time>2026-05-01T14:36:00.802Z</time></trkpt><trkpt lat="43.893916639687156" lon="12.533665731198695"><ele>199.0</ele><time>2026-05-01T14:36:01.802Z</time></trkpt><trkpt lat="43.89407416531221" lon="12.533647384654374"><ele>199.0</ele><time>2026-05-01T14:36:02.802Z</time></trkpt><trkpt lat="43.89423089136379" lon="12.533626269244431"><ele>199.0</ele><time>2026-05-01T14:36:03.802Z</time></trkpt><trkpt lat="43.89438662409537" lon="12.533607499593897"><ele>199.0</ele><time>2026-05-01T14:36:04.802Z</time></trkpt><trkpt lat="43.8945439899331" lon="12.53358971616904"><ele>199.33333333333331</ele><time>2026-05-01T14:36:05.802Z</time></trkpt><trkpt lat="43.894700090903314" lon="12.533579258013612"><ele>199.66666666666669</ele><time>2026-05-01T14:36:06.802Z</time></trkpt><trkpt lat="43.894850294282406" lon="12.533568810233906"><ele>200.0</ele><time>2026-05-01T14:36:07.802Z</time></trkpt><trkpt lat="43.89499740790168" lon="12.533552206215038"><ele>199.75</ele><time>2026-05-01T14:36:08.801Z</time></trkpt><trkpt lat="43.89514372134872" lon="12.533535599439734"><ele>199.5</ele><time>2026-05-01T14:36:09.801Z</time></trkpt><trkpt lat="43.89528581686061" lon="12.533516448975481"><ele>199.25</ele><time>2026-05-01T14:36:10.802Z</time></trkpt><trkpt lat="43.895421130471775" lon="12.53349692544081"><ele>199.0</ele><time>2026-05-01T14:36:11.802Z</time></trkpt><trkpt lat="43.895557227123156" lon="12.533481453807704"><ele>199.0</ele><time>2026-05-01T14:36:12.802Z</time></trkpt><trkpt lat="43.895687813239185" lon="12.53346972465961"><ele>199.0</ele><time>2026-05-01T14:36:13.802Z</time></trkpt><trkpt lat="43.89581785549507" lon="12.53345934329958"><ele>199.0</ele><time>2026-05-01T14:36:14.802Z</time></trkpt><trkpt lat="43.89596732303002" lon="12.533449803268253"><ele>199.0</ele><time>2026-05-01T14:36:15.802Z</time></trkpt><trkpt lat="43.896132518882965" lon="12.533446175649106"><ele>199.0</ele><time>2026-05-01T14:36:16.802Z</time></trkpt><trkpt lat="43.89630726476473" lon="12.53344855226002"><ele>199.0</ele><time>2026-05-01T14:36:17.802Z</time></trkpt><trkpt lat="43.89646335136524" lon="12.533455826927854"><ele>199.0</ele><time>2026-05-01T14:36:18.802Z</time></trkpt><trkpt lat="43.896601055011324" lon="12.533477528233162"><ele>199.0</ele><time>2026-05-01T14:36:19.802Z</time></trkpt><trkpt lat="43.896726394572944" lon="12.533499119524636"><ele>199.0</ele><time>2026-05-01T14:36:20.802Z</time></trkpt><trkpt lat="43.89684085888137" lon="12.53352461580105"><ele>199.0</ele><time>2026-05-01T14:36:21.802Z</time></trkpt><trkpt lat="43.896950263067026" lon="12.533553130933317"><ele>199.0</ele><time>2026-05-01T14:36:22.802Z</time></trkpt><trkpt lat="43.89706396288593" lon="12.53357510915219"><ele>199.75</ele><time>2026-05-01T14:36:23.802Z</time></trkpt><trkpt lat="43.897184893277846" lon="12.533601336558188"><ele>200.5</ele><time>2026-05-01T14:36:24.801Z</time></trkpt><trkpt lat="43.89731174518808" lon="12.533628448922004"><ele>201.25</ele><time>2026-05-01T14:36:25.801Z</time></trkpt><trkpt lat="43.89744453047811" lon="12.533649918074852"><ele>202.0</ele><time>2026-05-01T14:36:26.801Z</time></trkpt><trkpt lat="43.89757566223049" lon="12.533666410139805"><ele>203.0</ele><time>2026-05-01T14:36:27.801Z</time></trkpt><trkpt lat="43.89771331083113" lon="12.53368786826411"><ele>204.0</ele><time>2026-05-01T14:36:28.801Z</time></trkpt><trkpt lat="43.89784086001099" lon="12.533705953454968"><ele>205.0</ele><time>2026-05-01T14:36:29.801Z</time></trkpt><trkpt lat="43.8979611376045" lon="12.53372692928467"><ele>206.0</ele><time>2026-05-01T14:36:30.801Z</time></trkpt><trkpt lat="43.89808010502565" lon="12.533749108500647"><ele>203.25</ele><time>2026-05-01T14:36:31.801Z</time></trkpt><trkpt lat="43.8981999939777" lon="12.533766715988383"><ele>200.5</ele><time>2026-05-01T14:36:32.801Z</time></trkpt><trkpt lat="43.8983220909925" lon="12.533787133506523"><ele>197.75</ele><time>2026-05-01T14:36:33.801Z</time></trkpt><trkpt lat="43.89845180259518" lon="12.53380936295911"><ele>195.0</ele><time>2026-05-01T14:36:34.801Z</time></trkpt><trkpt lat="43.89858869978907" lon="12.53383668829563"><ele>193.0</ele><time>2026-05-01T14:36:35.801Z</time></trkpt><trkpt lat="43.89872125674835" lon="12.533859946419902"><ele>191.0</ele><time>2026-05-01T14:36:36.801Z</time></trkpt><trkpt lat="43.8988563575119" lon="12.533878817290747"><ele>189.0</ele><time>2026-05-01T14:36:37.801Z</time></trkpt><trkpt lat="43.89904065238122" lon="12.5338974915396"><ele>189.0</ele><time>2026-05-01T14:36:38.801Z</time></trkpt><trkpt lat="43.89923958356181" lon="12.533924739155726"><ele>189.0</ele><time>2026-05-01T14:36:39.801Z</time></trkpt><trkpt lat="43.89946123594552" lon="12.533958055565611"><ele>189.0</ele><time>2026-05-01T14:36:40.801Z</time></trkpt><trkpt lat="43.899685302177645" lon="12.533991650691231"><ele>190.0</ele><time>2026-05-01T14:36:41.801Z</time></trkpt><trkpt lat="43.89991977781383" lon="12.534026639635787"><ele>191.0</ele><time>2026-05-01T14:36:42.801Z</time></trkpt><trkpt lat="43.90015065669598" lon="12.534058422643923"><ele>194.33333333333331</ele><time>2026-05-01T14:36:43.801Z</time></trkpt><trkpt lat="43.90036766754789" lon="12.53410857974747"><ele>197.66666666666666</ele><time>2026-05-01T14:36:44.801Z</time></trkpt><trkpt lat="43.90057075812935" lon="12.534178472148172"><ele>201.0</ele><time>2026-05-01T14:36:45.801Z</time></trkpt><trkpt lat="43.900750612548926" lon="12.534256174791027"><ele>201.33333333333331</ele><time>2026-05-01T14:36:46.801Z</time></trkpt><trkpt lat="43.90092298133405" lon="12.534340579337261"><ele>201.66666666666666</ele><time>2026-05-01T14:36:47.801Z</time></trkpt><trkpt lat="43.90108867031618" lon="12.534463871592777"><ele>202.0</ele><time>2026-05-01T14:36:48.801Z</time></trkpt><trkpt lat="43.901236347601206" lon="12.534586538940259"><ele>202.0</ele><time>2026-05-01T14:36:49.801Z</time></trkpt><trkpt lat="43.90135829773573" lon="12.53471482900619"><ele>202.0</ele><time>2026-05-01T14:36:50.801Z</time></trkpt><trkpt lat="43.901470317855285" lon="12.534828092522606"><ele>202.0</ele><time>2026-05-01T14:36:51.801Z</time></trkpt><trkpt lat="43.901571665064694" lon="12.534944527607317"><ele>202.0</ele><time>2026-05-01T14:36:52.801Z</time></trkpt><trkpt lat="43.901657115027874" lon="12.535056548171731"><ele>202.0</ele><time>2026-05-01T14:36:53.801Z</time></trkpt><trkpt lat="43.901728223087666" lon="12.535157127202009"><ele>202.0</ele><time>2026-05-01T14:36:54.801Z</time></trkpt><trkpt lat="43.90178949157511" lon="12.535227782870445"><ele>202.0</ele><time>2026-05-01T14:36:55.801Z</time></trkpt><trkpt lat="43.90189110267087" lon="12.535245881354784"><ele>202.0</ele><time>2026-05-01T14:36:57.801Z</time></trkpt><trkpt lat="43.90195142489654" lon="12.535128280786237"><ele>202.0</ele><time>2026-05-01T14:36:59.801Z</time></trkpt><trkpt lat="43.90197243478248" lon="12.535036919093296"><ele>202.0</ele><time>2026-05-01T14:37:00.801Z</time></trkpt><trkpt lat="43.902005149646214" lon="12.534918010851172"><ele>202.0</ele><time>2026-05-01T14:37:01.801Z</time></trkpt><trkpt lat="43.902049691305486" lon="12.534778499718227"><ele>202.0</ele><time>2026-05-01T14:37:02.801Z</time></trkpt><trkpt lat="43.90209896564585" lon="12.534627601071588"><ele>202.0</ele><time>2026-05-01T14:37:03.801Z</time></trkpt><trkpt lat="43.90215862076309" lon="12.534469120969305"><ele>202.6</ele><time>2026-05-01T14:37:04.801Z</time></trkpt><trkpt lat="43.90222426845064" lon="12.534333866626376"><ele>203.2</ele><time>2026-05-01T14:37:05.801Z</time></trkpt><trkpt lat="43.902271201999675" lon="12.534221288461628"><ele>203.8</ele><time>2026-05-01T14:37:06.801Z</time></trkpt><trkpt lat="43.902315074770726" lon="12.534121794237565"><ele>204.4</ele><time>2026-05-01T14:37:07.801Z</time></trkpt><trkpt lat="43.90234083947177" lon="12.534037097163539"><ele>205.0</ele><time>2026-05-01T14:37:08.801Z</time></trkpt><trkpt lat="43.90241145869161" lon="12.533929442094434"><ele>205.0</ele><time>2026-05-01T14:37:10.801Z</time></trkpt><trkpt lat="43.90247635501506" lon="12.533942350143922"><ele>205.0</ele><time>2026-05-01T14:37:12.801Z</time></trkpt><trkpt lat="43.90260093818735" lon="12.53402322991451"><ele>205.0</ele><time>2026-05-01T14:37:14.801Z</time></trkpt><trkpt lat="43.90268626849216" lon="12.534107253700185"><ele>205.0</ele><time>2026-05-01T14:37:15.801Z</time></trkpt><trkpt lat="43.9027786262056" lon="12.534197055179943"><ele>205.0</ele><time>2026-05-01T14:37:16.801Z</time></trkpt><trkpt lat="43.90287052033942" lon="12.534290530975756"><ele>205.0</ele><time>2026-05-01T14:37:17.801Z</time></trkpt><trkpt lat="43.90296161283336" lon="12.53438474308387"><ele>205.0</ele><time>2026-05-01T14:37:18.801Z</time></trkpt><trkpt lat="43.90307609393198" lon="12.53446415947738"><ele>205.0</ele><time>2026-05-01T14:37:19.801Z</time></trkpt><trkpt lat="43.90321598310693" lon="12.534533591513568"><ele>205.0</ele><time>2026-05-01T14:37:20.801Z</time></trkpt><trkpt lat="43.90339787392612" lon="12.534604116279954"><ele>204.33333333333331</ele><time>2026-05-01T14:37:21.801Z</time></trkpt><trkpt lat="43.90358284588966" lon="12.534658124772362"><ele>203.66666666666669</ele><time>2026-05-01T14:37:22.801Z</time></trkpt><trkpt lat="43.903778645346094" lon="12.534712189847212"><ele>203.0</ele><time>2026-05-01T14:37:23.801Z</time></trkpt><trkpt lat="43.903944862212434" lon="12.53475962706277"><ele>203.0</ele><time>2026-05-01T14:37:24.801Z</time></trkpt><trkpt lat="43.90409603358834" lon="12.534804530769241"><ele>203.0</ele><time>2026-05-01T14:37:25.801Z</time></trkpt><trkpt lat="43.90423174855081" lon="12.53485145748236"><ele>203.0</ele><time>2026-05-01T14:37:26.801Z</time></trkpt><trkpt lat="43.90435810850478" lon="12.53488000676694"><ele>203.0</ele><time>2026-05-01T14:37:27.8Z</time></trkpt><trkpt lat="43.904469169587884" lon="12.53491013364583"><ele>203.33333333333334</ele><time>2026-05-01T14:37:28.8Z</time></trkpt><trkpt lat="43.904570101344355" lon="12.53494268385319"><ele>203.66666666666669</ele><time>2026-05-01T14:37:29.8Z</time></trkpt><trkpt lat="43.904664844643605" lon="12.534973805425448"><ele>204.0</ele><time>2026-05-01T14:37:30.8Z</time></trkpt><trkpt lat="43.904759263919" lon="12.53500049533891"><ele>204.33333333333331</ele><time>2026-05-01T14:37:31.8Z</time></trkpt><trkpt lat="43.904835405092506" lon="12.535029604762538"><ele>204.66666666666666</ele><time>2026-05-01T14:37:32.8Z</time></trkpt><trkpt lat="43.90489371474221" lon="12.535086236459225"><ele>205.0</ele><time>2026-05-01T14:37:33.8Z</time></trkpt><trkpt lat="43.90496499510236" lon="12.535107855986029"><ele>204.99999999999997</ele><time>2026-05-01T14:37:34.8Z</time></trkpt><trkpt lat="43.90503043355432" lon="12.535146236605756"><ele>205.0</ele><time>2026-05-01T14:37:35.8Z</time></trkpt><trkpt lat="43.90510069215926" lon="12.535197656109261"><ele>205.0</ele><time>2026-05-01T14:37:36.8Z</time></trkpt><trkpt lat="43.90517621800502" lon="12.53525725639166"><ele>205.0</ele><time>2026-05-01T14:37:37.8Z</time></trkpt><trkpt lat="43.905253158665055" lon="12.53531247128826"><ele>204.99999999999997</ele><time>2026-05-01T14:37:38.8Z</time></trkpt><trkpt lat="43.905323750099484" lon="12.535372221814534"><ele>205.0</ele><time>2026-05-01T14:37:39.8Z</time></trkpt><trkpt lat="43.90540329082333" lon="12.535429271807129"><ele>203.83333333333331</ele><time>2026-05-01T14:37:40.8Z</time></trkpt><trkpt lat="43.90546663602184" lon="12.53551182193434"><ele>202.66666666666666</ele><time>2026-05-01T14:37:41.8Z</time></trkpt><trkpt lat="43.90553617608575" lon="12.535584939623426"><ele>201.5</ele><time>2026-05-01T14:37:42.8Z</time></trkpt><trkpt lat="43.90560665173489" lon="12.535649674019284"><ele>200.33333333333331</ele><time>2026-05-01T14:37:43.8Z</time></trkpt><trkpt lat="43.90568115371716" lon="12.535707014703418"><ele>199.16666666666666</ele><time>2026-05-01T14:37:44.8Z</time></trkpt><trkpt lat="43.905751446896126" lon="12.535760863498519"><ele>198.0</ele><time>2026-05-01T14:37:45.8Z</time></trkpt><trkpt lat="43.90581151687384" lon="12.535811200571896"><ele>198.0</ele><time>2026-05-01T14:37:46.8Z</time></trkpt><trkpt lat="43.905893331521646" lon="12.535937956692116"><ele>198.0</ele><time>2026-05-01T14:37:48.8Z</time></trkpt><trkpt lat="43.90594604651709" lon="12.536064151298158"><ele>198.0</ele><time>2026-05-01T14:37:50.8Z</time></trkpt><trkpt lat="43.90598298061487" lon="12.536183251659606"><ele>198.0</ele><time>2026-05-01T14:37:52.8Z</time></trkpt><trkpt lat="43.90602655465188" lon="12.536324897234927"><ele>198.0</ele><time>2026-05-01T14:37:54.8Z</time></trkpt><trkpt lat="43.9060468119372" lon="12.536423512739297"><ele>199.5</ele><time>2026-05-01T14:37:55.8Z</time></trkpt><trkpt lat="43.90607262773919" lon="12.536518132770848"><ele>201.0</ele><time>2026-05-01T14:37:56.8Z</time></trkpt><trkpt lat="43.906072683262146" lon="12.536611556423834"><ele>202.5</ele><time>2026-05-01T14:37:57.8Z</time></trkpt><trkpt lat="43.90607945478278" lon="12.536701332298579"><ele>204.0</ele><time>2026-05-01T14:37:58.8Z</time></trkpt><trkpt lat="43.9060869036695" lon="12.536801249920654"><ele>205.5</ele><time>2026-05-01T14:37:59.8Z</time></trkpt><trkpt lat="43.90607040267334" lon="12.536891049847597"><ele>207.0</ele><time>2026-05-01T14:38:00.8Z</time></trkpt><trkpt lat="43.90614813060393" lon="12.537014186790342"><ele>207.39999999999998</ele><time>2026-05-01T14:38:01.8Z</time></trkpt><trkpt lat="43.906165130534156" lon="12.537145108098603"><ele>207.79999999999998</ele><time>2026-05-01T14:38:02.8Z</time></trkpt><trkpt lat="43.90618835275538" lon="12.537278833379181"><ele>208.2</ele><time>2026-05-01T14:38:03.8Z</time></trkpt><trkpt lat="43.906211090746886" lon="12.537410234581312"><ele>208.6</ele><time>2026-05-01T14:38:04.8Z</time></trkpt><trkpt lat="43.90623556730423" lon="12.537551682818082"><ele>209.0</ele><time>2026-05-01T14:38:05.799Z</time></trkpt><trkpt lat="43.906261530603444" lon="12.537701722846524"><ele>209.0</ele><time>2026-05-01T14:38:06.799Z</time></trkpt><trkpt lat="43.906286100161324" lon="12.537841177734698"><ele>209.0</ele><time>2026-05-01T14:38:07.799Z</time></trkpt><trkpt lat="43.90630903899905" lon="12.537969160120632"><ele>209.0</ele><time>2026-05-01T14:38:08.799Z</time></trkpt><trkpt lat="43.906332764098295" lon="12.538101529272906"><ele>209.0</ele><time>2026-05-01T14:38:09.799Z</time></trkpt><trkpt lat="43.906376419511865" lon="12.538241393932223"><ele>209.0</ele><time>2026-05-01T14:38:10.799Z</time></trkpt><trkpt lat="43.90638936338086" lon="12.538392569411519"><ele>209.39999999999998</ele><time>2026-05-01T14:38:11.799Z</time></trkpt><trkpt lat="43.90644109062478" lon="12.538529341785168"><ele>209.8</ele><time>2026-05-01T14:38:12.799Z</time></trkpt><trkpt lat="43.906494549928745" lon="12.538661723403571"><ele>210.2</ele><time>2026-05-01T14:38:13.799Z</time></trkpt><trkpt lat="43.906567159676015" lon="12.538769244294139"><ele>210.60000000000002</ele><time>2026-05-01T14:38:14.799Z</time></trkpt><trkpt lat="43.90666842455133" lon="12.538852021257858"><ele>211.0</ele><time>2026-05-01T14:38:15.799Z</time></trkpt><trkpt lat="43.906773946087306" lon="12.538903299878122"><ele>213.5</ele><time>2026-05-01T14:38:16.799Z</time></trkpt><trkpt lat="43.906885555398254" lon="12.538941598584556"><ele>216.0</ele><time>2026-05-01T14:38:17.799Z</time></trkpt><trkpt lat="43.906998481814334" lon="12.53897173447779"><ele>218.5</ele><time>2026-05-01T14:38:18.799Z</time></trkpt><trkpt lat="43.90710714512388" lon="12.53900605610063"><ele>221.0</ele><time>2026-05-01T14:38:19.799Z</time></trkpt><trkpt lat="43.90721541481503" lon="12.539042508059232"><ele>221.0</ele><time>2026-05-01T14:38:20.799Z</time></trkpt><trkpt lat="43.90731544080787" lon="12.539093073970214"><ele>221.00000000000003</ele><time>2026-05-01T14:38:21.799Z</time></trkpt><trkpt lat="43.907411462412334" lon="12.539162234477898"><ele>221.00000000000003</ele><time>2026-05-01T14:38:22.799Z</time></trkpt><trkpt lat="43.90748901746758" lon="12.53926748227077"><ele>221.0</ele><time>2026-05-01T14:38:23.799Z</time></trkpt><trkpt lat="43.90756145709502" lon="12.539380300103375"><ele>221.0</ele><time>2026-05-01T14:38:24.799Z</time></trkpt><trkpt lat="43.90763699255325" lon="12.53951227278737"><ele>225.75</ele><time>2026-05-01T14:38:25.799Z</time></trkpt><trkpt lat="43.90771680675139" lon="12.539641998618123"><ele>230.5</ele><time>2026-05-01T14:38:26.799Z</time></trkpt><trkpt lat="43.907786556698696" lon="12.539794911758092"><ele>235.25</ele><time>2026-05-01T14:38:27.799Z</time></trkpt><trkpt lat="43.90786278207189" lon="12.539954716849932"><ele>240.0</ele><time>2026-05-01T14:38:28.799Z</time></trkpt><trkpt lat="43.9079443099953" lon="12.540154896062425"><ele>236.0</ele><time>2026-05-01T14:38:29.799Z</time></trkpt><trkpt lat="43.90801669087816" lon="12.540407325962757"><ele>232.0</ele><time>2026-05-01T14:38:30.799Z</time></trkpt><trkpt lat="43.90810496803666" lon="12.54066701022081"><ele>228.0</ele><time>2026-05-01T14:38:31.799Z</time></trkpt><trkpt lat="43.90820623030355" lon="12.540960382822567"><ele>225.66666666666669</ele><time>2026-05-01T14:38:32.799Z</time></trkpt><trkpt lat="43.90832342163653" lon="12.541242262322376"><ele>223.33333333333334</ele><time>2026-05-01T14:38:33.799Z</time></trkpt><trkpt lat="43.908455001784475" lon="12.541475771295477"><ele>221.0</ele><time>2026-05-01T14:38:34.799Z</time></trkpt><trkpt lat="43.90857367690859" lon="12.54166277320586"><ele>225.5</ele><time>2026-05-01T14:38:35.799Z</time></trkpt><trkpt lat="43.90869208099758" lon="12.541809031366745"><ele>230.0</ele><time>2026-05-01T14:38:36.799Z</time></trkpt><trkpt lat="43.90874460909464" lon="12.541981832382811"><ele>234.5</ele><time>2026-05-01T14:38:37.799Z</time></trkpt><trkpt lat="43.90876779022309" lon="12.542150367564398"><ele>239.0</ele><time>2026-05-01T14:38:38.799Z</time></trkpt><trkpt lat="43.90878311800791" lon="12.542359606227498"><ele>239.0</ele><time>2026-05-01T14:38:39.799Z</time></trkpt><trkpt lat="43.90881380795419" lon="12.54258579229211"><ele>239.0</ele><time>2026-05-01T14:38:40.799Z</time></trkpt><trkpt lat="43.908883837260326" lon="12.54277110124872"><ele>239.0</ele><time>2026-05-01T14:38:41.799Z</time></trkpt><trkpt lat="43.90899135534867" lon="12.542930160024282"><ele>236.75</ele><time>2026-05-01T14:38:42.799Z</time></trkpt><trkpt lat="43.90911643974584" lon="12.543049855598708"><ele>234.5</ele><time>2026-05-01T14:38:43.799Z</time></trkpt><trkpt lat="43.90923030721745" lon="12.543113617740634"><ele>232.25</ele><time>2026-05-01T14:38:44.799Z</time></trkpt><trkpt lat="43.90932255013664" lon="12.543123212920694"><ele>230.0</ele><time>2026-05-01T14:38:45.799Z</time></trkpt><trkpt lat="43.90939014645044" lon="12.543007605126405"><ele>229.5</ele><time>2026-05-01T14:38:46.799Z</time></trkpt><trkpt lat="43.90941899361519" lon="12.542889333222151"><ele>229.0</ele><time>2026-05-01T14:38:47.799Z</time></trkpt><trkpt lat="43.90939448142875" lon="12.542740322690765"><ele>228.5</ele><time>2026-05-01T14:38:48.799Z</time></trkpt><trkpt lat="43.909329658561454" lon="12.542583129035727"><ele>228.0</ele><time>2026-05-01T14:38:49.798Z</time></trkpt><trkpt lat="43.909249707634196" lon="12.542385124488804"><ele>231.66666666666669</ele><time>2026-05-01T14:38:50.798Z</time></trkpt><trkpt lat="43.909166927590654" lon="12.542149824773118"><ele>235.33333333333334</ele><time>2026-05-01T14:38:51.798Z</time></trkpt><trkpt lat="43.90908901574293" lon="12.541895457773151"><ele>239.0</ele><time>2026-05-01T14:38:52.798Z</time></trkpt><trkpt lat="43.9090039201153" lon="12.541583708024227"><ele>243.0</ele><time>2026-05-01T14:38:53.798Z</time></trkpt><trkpt lat="43.908911016046204" lon="12.54127489561982"><ele>247.0</ele><time>2026-05-01T14:38:54.798Z</time></trkpt><trkpt lat="43.908826498391306" lon="12.541000521195993"><ele>250.33333333333331</ele><time>2026-05-01T14:38:55.798Z</time></trkpt><trkpt lat="43.908751162057314" lon="12.540755917663992"><ele>253.66666666666669</ele><time>2026-05-01T14:38:56.798Z</time></trkpt><trkpt lat="43.908696616286264" lon="12.540529022543339"><ele>257.0</ele><time>2026-05-01T14:38:57.798Z</time></trkpt><trkpt lat="43.90867163101265" lon="12.540293505691723"><ele>262.6666666666667</ele><time>2026-05-01T14:38:58.798Z</time></trkpt><trkpt lat="43.9086722819261" lon="12.540065927797672"><ele>268.3333333333333</ele><time>2026-05-01T14:38:59.798Z</time></trkpt><trkpt lat="43.90867145375322" lon="12.539862801753452"><ele>274.0</ele><time>2026-05-01T14:39:00.798Z</time></trkpt><trkpt lat="43.90867418284872" lon="12.539669305840322"><ele>278.0</ele><time>2026-05-01T14:39:01.798Z</time></trkpt><trkpt lat="43.908656911984586" lon="12.539478528771548"><ele>282.0</ele><time>2026-05-01T14:39:02.798Z</time></trkpt><trkpt lat="43.90862007284779" lon="12.53931217164754"><ele>286.0</ele><time>2026-05-01T14:39:03.798Z</time></trkpt><trkpt lat="43.908572240349386" lon="12.539158304379399"><ele>290.0</ele><time>2026-05-01T14:39:04.798Z</time></trkpt><trkpt lat="43.90852267522882" lon="12.539013915564004"><ele>290.0</ele><time>2026-05-01T14:39:05.798Z</time></trkpt><trkpt lat="43.908493993025324" lon="12.538856048028224"><ele>290.0</ele><time>2026-05-01T14:39:06.798Z</time></trkpt><trkpt lat="43.90844841769103" lon="12.538702200775658"><ele>290.0</ele><time>2026-05-01T14:39:07.798Z</time></trkpt><trkpt lat="43.90839591739798" lon="12.538546715841445"><ele>290.0</ele><time>2026-05-01T14:39:08.798Z</time></trkpt><trkpt lat="43.90831936217242" lon="12.53840654728796"><ele>285.5</ele><time>2026-05-01T14:39:09.798Z</time></trkpt><trkpt lat="43.90825891445907" lon="12.538260062750533"><ele>281.0</ele><time>2026-05-01T14:39:10.798Z</time></trkpt><trkpt lat="43.90819936326376" lon="12.538113439153134"><ele>276.5</ele><time>2026-05-01T14:39:11.798Z</time></trkpt><trkpt lat="43.90814321049103" lon="12.537955127626104"><ele>272.0</ele><time>2026-05-01T14:39:12.798Z</time></trkpt><trkpt lat="43.90810258332122" lon="12.537783486191085"><ele>272.0</ele><time>2026-05-01T14:39:13.798Z</time></trkpt><trkpt lat="43.90808005092522" lon="12.537613600336456"><ele>272.0</ele><time>2026-05-01T14:39:14.798Z</time></trkpt><trkpt lat="43.90806567807357" lon="12.537456133964175"><ele>272.0</ele><time>2026-05-01T14:39:15.798Z</time></trkpt><trkpt lat="43.90807562611824" lon="12.537303581836895"><ele>272.0</ele><time>2026-05-01T14:39:16.798Z</time></trkpt><trkpt lat="43.90810748075509" lon="12.537155036310828"><ele>271.25</ele><time>2026-05-01T14:39:17.798Z</time></trkpt><trkpt lat="43.90814775552748" lon="12.53698944255735"><ele>270.5</ele><time>2026-05-01T14:39:18.798Z</time></trkpt><trkpt lat="43.90821477903322" lon="12.536823711990886"><ele>269.75</ele><time>2026-05-01T14:39:19.798Z</time></trkpt><trkpt lat="43.90829041387545" lon="12.536653017394897"><ele>269.0</ele><time>2026-05-01T14:39:20.798Z</time></trkpt><trkpt lat="43.90836835248967" lon="12.536464426236869"><ele>275.33333333333337</ele><time>2026-05-01T14:39:21.798Z</time></trkpt><trkpt lat="43.90846425293562" lon="12.536250900697068"><ele>281.6666666666667</ele><time>2026-05-01T14:39:22.798Z</time></trkpt><trkpt lat="43.90856905711641" lon="12.536042319656172"><ele>288.0</ele><time>2026-05-01T14:39:23.798Z</time></trkpt><trkpt lat="43.90866667387716" lon="12.535863120198291"><ele>288.0</ele><time>2026-05-01T14:39:24.798Z</time></trkpt><trkpt lat="43.908757704000635" lon="12.535714345019434"><ele>288.0</ele><time>2026-05-01T14:39:25.798Z</time></trkpt><trkpt lat="43.908860435578966" lon="12.535612589934702"><ele>288.0</ele><time>2026-05-01T14:39:26.798Z</time></trkpt><trkpt lat="43.9089406903017" lon="12.535490896264518"><ele>288.0</ele><time>2026-05-01T14:39:27.798Z</time></trkpt><trkpt lat="43.90903646994026" lon="12.535401415289794"><ele>287.6</ele><time>2026-05-01T14:39:28.798Z</time></trkpt><trkpt lat="43.90912401430436" lon="12.535298640671511"><ele>287.20000000000005</ele><time>2026-05-01T14:39:29.798Z</time></trkpt><trkpt lat="43.90920152537884" lon="12.535199047229376"><ele>286.8</ele><time>2026-05-01T14:39:30.798Z</time></trkpt><trkpt lat="43.90927253759286" lon="12.535110819210722"><ele>286.40000000000003</ele><time>2026-05-01T14:39:31.798Z</time></trkpt><trkpt lat="43.909328836240995" lon="12.535040407071099"><ele>286.0</ele><time>2026-05-01T14:39:32.798Z</time></trkpt><trkpt lat="43.909422700686214" lon="12.535013267192921"><ele>286.0</ele><time>2026-05-01T14:39:34.798Z</time></trkpt><trkpt lat="43.909458649931025" lon="12.535107256286354"><ele>286.0</ele><time>2026-05-01T14:39:36.798Z</time></trkpt><trkpt lat="43.90939980755432" lon="12.535210175594884"><ele>286.0</ele><time>2026-05-01T14:39:38.798Z</time></trkpt><trkpt lat="43.90934795158047" lon="12.53528323543538"><ele>286.0</ele><time>2026-05-01T14:39:39.798Z</time></trkpt><trkpt lat="43.90926536513721" lon="12.535373560515893"><ele>286.0</ele><time>2026-05-01T14:39:40.798Z</time></trkpt><trkpt lat="43.909136132450904" lon="12.535481562099939"><ele>286.66666666666663</ele><time>2026-05-01T14:39:41.798Z</time></trkpt><trkpt lat="43.90903034001767" lon="12.53562817683996"><ele>287.3333333333333</ele><time>2026-05-01T14:39:42.798Z</time></trkpt><trkpt lat="43.90893633743466" lon="12.53579764633921"><ele>288.0</ele><time>2026-05-01T14:39:43.798Z</time></trkpt><trkpt lat="43.9088698334604" lon="12.535992910857134"><ele>288.0</ele><time>2026-05-01T14:39:44.798Z</time></trkpt><trkpt lat="43.90880524979877" lon="12.53617494068009"><ele>288.0</ele><time>2026-05-01T14:39:45.798Z</time></trkpt><trkpt lat="43.908754168355976" lon="12.536362127266852"><ele>288.0</ele><time>2026-05-01T14:39:46.798Z</time></trkpt><trkpt lat="43.908719891645916" lon="12.536557726997996"><ele>288.0</ele><time>2026-05-01T14:39:47.798Z</time></trkpt><trkpt lat="43.90869355311666" lon="12.536739135558093"><ele>291.25</ele><time>2026-05-01T14:39:48.798Z</time></trkpt><trkpt lat="43.90867313857189" lon="12.536898186702969"><ele>294.5</ele><time>2026-05-01T14:39:49.798Z</time></trkpt><trkpt lat="43.90865683954557" lon="12.537054629816286"><ele>297.75</ele><time>2026-05-01T14:39:50.798Z</time></trkpt><trkpt lat="43.9086394760522" lon="12.537216117626224"><ele>301.0</ele><time>2026-05-01T14:39:51.798Z</time></trkpt><trkpt lat="43.908628762197765" lon="12.537362205427044"><ele>300.8</ele><time>2026-05-01T14:39:52.798Z</time></trkpt><trkpt lat="43.908621720023866" lon="12.53749097101357"><ele>300.6</ele><time>2026-05-01T14:39:53.798Z</time></trkpt><trkpt lat="43.90862406435799" lon="12.53762289738805"><ele>300.4</ele><time>2026-05-01T14:39:54.797Z</time></trkpt><trkpt lat="43.90865305924444" lon="12.537757730384826"><ele>300.2</ele><time>2026-05-01T14:39:55.797Z</time></trkpt><trkpt lat="43.90871082645417" lon="12.537895248955945"><ele>300.0</ele><time>2026-05-01T14:39:56.797Z</time></trkpt><trkpt lat="43.90878883906565" lon="12.538022060743936"><ele>300.0</ele><time>2026-05-01T14:39:57.797Z</time></trkpt><trkpt lat="43.908866991287226" lon="12.538150708619384"><ele>300.0</ele><time>2026-05-01T14:39:58.797Z</time></trkpt><trkpt lat="43.90894414874892" lon="12.53828263531079"><ele>300.0</ele><time>2026-05-01T14:39:59.797Z</time></trkpt><trkpt lat="43.90899407947371" lon="12.538442745868402"><ele>300.0</ele><time>2026-05-01T14:40:00.797Z</time></trkpt><trkpt lat="43.909042863239804" lon="12.538595940959679"><ele>297.5</ele><time>2026-05-01T14:40:01.797Z</time></trkpt><trkpt lat="43.90910650582403" lon="12.53874846924498"><ele>295.0</ele><time>2026-05-01T14:40:02.797Z</time></trkpt><trkpt lat="43.909147336148706" lon="12.538913442116591"><ele>292.5</ele><time>2026-05-01T14:40:03.797Z</time></trkpt><trkpt lat="43.90919178776806" lon="12.539052491127462"><ele>290.0</ele><time>2026-05-01T14:40:04.797Z</time></trkpt><trkpt lat="43.909245132538146" lon="12.539178534771006"><ele>294.0</ele><time>2026-05-01T14:40:05.797Z</time></trkpt><trkpt lat="43.909314542302226" lon="12.539274873710488"><ele>298.0</ele><time>2026-05-01T14:40:06.797Z</time></trkpt><trkpt lat="43.9094076527454" lon="12.539345116179458"><ele>302.0</ele><time>2026-05-01T14:40:07.797Z</time></trkpt><trkpt lat="43.90951750901004" lon="12.539395053642767"><ele>306.0</ele><time>2026-05-01T14:40:08.797Z</time></trkpt><trkpt lat="43.909641379467175" lon="12.539424721403652"><ele>310.0</ele><time>2026-05-01T14:40:09.797Z</time></trkpt><trkpt lat="43.90977375995107" lon="12.539432316274635"><ele>310.0</ele><time>2026-05-01T14:40:10.796Z</time></trkpt><trkpt lat="43.90991746594413" lon="12.539447797197973"><ele>310.0</ele><time>2026-05-01T14:40:11.796Z</time></trkpt><trkpt lat="43.91005455281234" lon="12.53948009589885"><ele>310.0</ele><time>2026-05-01T14:40:12.796Z</time></trkpt><trkpt lat="43.91018037540933" lon="12.539520376062004"><ele>310.0</ele><time>2026-05-01T14:40:13.795Z</time></trkpt><trkpt lat="43.910300667441085" lon="12.539584067256259"><ele>307.75</ele><time>2026-05-01T14:40:14.796Z</time></trkpt><trkpt lat="43.91041700078511" lon="12.539641898792006"><ele>305.5</ele><time>2026-05-01T14:40:15.796Z</time></trkpt><trkpt lat="43.91052962302283" lon="12.539714091926738"><ele>303.25</ele><time>2026-05-01T14:40:16.796Z</time></trkpt><trkpt lat="43.91064126821159" lon="12.539774872256928"><ele>301.0</ele><time>2026-05-01T14:40:17.795Z</time></trkpt><trkpt lat="43.910759297171424" lon="12.539831224075519"><ele>301.0</ele><time>2026-05-01T14:40:18.795Z</time></trkpt><trkpt lat="43.91088128252562" lon="12.539883172029864"><ele>301.0</ele><time>2026-05-01T14:40:19.796Z</time></trkpt><trkpt lat="43.91100641726194" lon="12.53991477486011"><ele>301.0</ele><time>2026-05-01T14:40:20.795Z</time></trkpt><trkpt lat="43.91114133556266" lon="12.539925158542312"><ele>301.0</ele><time>2026-05-01T14:40:21.795Z</time></trkpt><trkpt lat="43.9113095988615" lon="12.539885982434129"><ele>304.5</ele><time>2026-05-01T14:40:22.795Z</time></trkpt><trkpt lat="43.911521128638256" lon="12.53982298585985"><ele>308.0</ele><time>2026-05-01T14:40:23.795Z</time></trkpt><trkpt lat="43.91177286138074" lon="12.539752062400012"><ele>309.0</ele><time>2026-05-01T14:40:24.795Z</time></trkpt><trkpt lat="43.912047214667155" lon="12.539703229528161"><ele>310.0</ele><time>2026-05-01T14:40:25.795Z</time></trkpt><trkpt lat="43.91231150408081" lon="12.539657650833"><ele>310.0</ele><time>2026-05-01T14:40:26.795Z</time></trkpt><trkpt lat="43.91256542175327" lon="12.539587439904052"><ele>310.0</ele><time>2026-05-01T14:40:27.795Z</time></trkpt><trkpt lat="43.91279928342545" lon="12.539523372368532"><ele>317.3333333333333</ele><time>2026-05-01T14:40:28.795Z</time></trkpt><trkpt lat="43.91300694800631" lon="12.539446159007742"><ele>324.6666666666667</ele><time>2026-05-01T14:40:29.795Z</time></trkpt><trkpt lat="43.91317419162728" lon="12.539399788940822"><ele>332.0</ele><time>2026-05-01T14:40:30.795Z</time></trkpt><trkpt lat="43.913313458569476" lon="12.539397807669229"><ele>333.5</ele><time>2026-05-01T14:40:31.795Z</time></trkpt><trkpt lat="43.913431312073186" lon="12.539401876362886"><ele>335.0</ele><time>2026-05-01T14:40:32.795Z</time></trkpt><trkpt lat="43.91352391130442" lon="12.539505418387781"><ele>336.5</ele><time>2026-05-01T14:40:33.795Z</time></trkpt><trkpt lat="43.91358651208599" lon="12.53967494844823"><ele>338.0</ele><time>2026-05-01T14:40:34.795Z</time></trkpt><trkpt lat="43.913591926677164" lon="12.539866171355088"><ele>338.0</ele><time>2026-05-01T14:40:35.795Z</time></trkpt><trkpt lat="43.913592301584" lon="12.540064851299551"><ele>338.0</ele><time>2026-05-01T14:40:36.795Z</time></trkpt><trkpt lat="43.91360522055532" lon="12.540234537307159"><ele>338.0</ele><time>2026-05-01T14:40:37.795Z</time></trkpt><trkpt lat="43.9136097226429" lon="12.540396757008578"><ele>338.0</ele><time>2026-05-01T14:40:38.795Z</time></trkpt><trkpt lat="43.91369179106219" lon="12.540514393412945"><ele>332.6666666666667</ele><time>2026-05-01T14:40:39.795Z</time></trkpt><trkpt lat="43.913816586468734" lon="12.540570865281035"><ele>327.3333333333333</ele><time>2026-05-01T14:40:40.795Z</time></trkpt><trkpt lat="43.91397099219598" lon="12.540588205123065"><ele>322.0</ele><time>2026-05-01T14:40:41.795Z</time></trkpt><trkpt lat="43.914155032185135" lon="12.54054543417885"><ele>319.3333333333333</ele><time>2026-05-01T14:40:42.795Z</time></trkpt><trkpt lat="43.91434114232722" lon="12.540440350949659"><ele>316.6666666666667</ele><time>2026-05-01T14:40:43.795Z</time></trkpt><trkpt lat="43.914504417701835" lon="12.540323090692993"><ele>314.0</ele><time>2026-05-01T14:40:44.795Z</time></trkpt><trkpt lat="43.914642510454705" lon="12.540161393538783"><ele>322.0</ele><time>2026-05-01T14:40:45.795Z</time></trkpt><trkpt lat="43.91476551627857" lon="12.540000031800114"><ele>330.0</ele><time>2026-05-01T14:40:46.795Z</time></trkpt><trkpt lat="43.91486053532443" lon="12.53984593432296"><ele>338.0</ele><time>2026-05-01T14:40:47.795Z</time></trkpt><trkpt lat="43.91495218399225" lon="12.539704331094448"><ele>338.0</ele><time>2026-05-01T14:40:48.795Z</time></trkpt><trkpt lat="43.915033817014084" lon="12.539560755441977"><ele>338.0</ele><time>2026-05-01T14:40:49.795Z</time></trkpt><trkpt lat="43.915107710918086" lon="12.53942127435229"><ele>338.0</ele><time>2026-05-01T14:40:50.795Z</time></trkpt><trkpt lat="43.9151792405245" lon="12.539270019516271"><ele>338.0</ele><time>2026-05-01T14:40:51.795Z</time></trkpt><trkpt lat="43.91523616407786" lon="12.539112261794259"><ele>339.5</ele><time>2026-05-01T14:40:52.795Z</time></trkpt><trkpt lat="43.9153008713953" lon="12.538961078302234"><ele>341.0</ele><time>2026-05-01T14:40:53.795Z</time></trkpt><trkpt lat="43.915372796523734" lon="12.538818671050032"><ele>342.5</ele><time>2026-05-01T14:40:54.795Z</time></trkpt><trkpt lat="43.91547375328757" lon="12.53870135395505"><ele>344.0</ele><time>2026-05-01T14:40:55.795Z</time></trkpt><trkpt lat="43.91557701068063" lon="12.538586382630884"><ele>348.0</ele><time>2026-05-01T14:40:56.795Z</time></trkpt><trkpt lat="43.91569037398722" lon="12.538496385607692"><ele>352.0</ele><time>2026-05-01T14:40:57.795Z</time></trkpt><trkpt lat="43.91581568828384" lon="12.538463478050598"><ele>356.0</ele><time>2026-05-01T14:40:58.795Z</time></trkpt><trkpt lat="43.91593379940798" lon="12.538443809972586"><ele>360.0</ele><time>2026-05-01T14:40:59.795Z</time></trkpt><trkpt lat="43.91606781201497" lon="12.538483635426987"><ele>361.75</ele><time>2026-05-01T14:41:00.795Z</time></trkpt><trkpt lat="43.916200482338496" lon="12.538523554235596"><ele>363.5</ele><time>2026-05-01T14:41:01.795Z</time></trkpt><trkpt lat="43.91633456839413" lon="12.538565023036432"><ele>365.25</ele><time>2026-05-01T14:41:02.795Z</time></trkpt><trkpt lat="43.916466781481915" lon="12.538608759250305"><ele>367.0</ele><time>2026-05-01T14:41:03.795Z</time></trkpt><trkpt lat="43.91659983349414" lon="12.538640027048721"><ele>367.0</ele><time>2026-05-01T14:41:04.795Z</time></trkpt><trkpt lat="43.91672939300269" lon="12.538660749664325"><ele>367.0</ele><time>2026-05-01T14:41:05.795Z</time></trkpt><trkpt lat="43.916856097903064" lon="12.538660246117034"><ele>367.0</ele><time>2026-05-01T14:41:06.795Z</time></trkpt><trkpt lat="43.916986284306894" lon="12.53864105043852"><ele>367.0</ele><time>2026-05-01T14:41:07.795Z</time></trkpt><trkpt lat="43.91711915768763" lon="12.538591496140207"><ele>368.25</ele><time>2026-05-01T14:41:08.795Z</time></trkpt><trkpt lat="43.917255926304925" lon="12.538563491449402"><ele>369.5</ele><time>2026-05-01T14:41:09.795Z</time></trkpt><trkpt lat="43.9173845092588" lon="12.538574290062234"><ele>370.75</ele><time>2026-05-01T14:41:10.795Z</time></trkpt><trkpt lat="43.91750085523964" lon="12.538613726539603"><ele>372.0</ele><time>2026-05-01T14:41:11.795Z</time></trkpt><trkpt lat="43.91759942254788" lon="12.53873305159118"><ele>373.5</ele><time>2026-05-01T14:41:12.795Z</time></trkpt><trkpt lat="43.91769454100094" lon="12.538834202498498"><ele>375.0</ele><time>2026-05-01T14:41:13.795Z</time></trkpt><trkpt lat="43.91779910159007" lon="12.538942292918716"><ele>376.5</ele><time>2026-05-01T14:41:14.795Z</time></trkpt><trkpt lat="43.91790547765128" lon="12.539051166773154"><ele>378.0</ele><time>2026-05-01T14:41:15.795Z</time></trkpt><trkpt lat="43.91800845163216" lon="12.539164395071655"><ele>378.0</ele><time>2026-05-01T14:41:16.795Z</time></trkpt><trkpt lat="43.91810757449207" lon="12.539284836710197"><ele>378.0</ele><time>2026-05-01T14:41:17.795Z</time></trkpt><trkpt lat="43.918190198672384" lon="12.539415080222215"><ele>378.0</ele><time>2026-05-01T14:41:18.794Z</time></trkpt><trkpt lat="43.9182461674494" lon="12.539559235428928"><ele>378.0</ele><time>2026-05-01T14:41:19.794Z</time></trkpt><trkpt lat="43.9182895056288" lon="12.539714041304652"><ele>376.75</ele><time>2026-05-01T14:41:20.794Z</time></trkpt><trkpt lat="43.91830039311371" lon="12.539862563934268"><ele>375.5</ele><time>2026-05-01T14:41:21.794Z</time></trkpt><trkpt lat="43.918318069724094" lon="12.540049718588199"><ele>374.25</ele><time>2026-05-01T14:41:22.794Z</time></trkpt><trkpt lat="43.91833469065138" lon="12.54021585559817"><ele>373.0</ele><time>2026-05-01T14:41:23.794Z</time></trkpt><trkpt lat="43.91835765023262" lon="12.540338170638714"><ele>372.8333333333333</ele><time>2026-05-01T14:41:24.794Z</time></trkpt><trkpt lat="43.91839956555894" lon="12.540422823100258"><ele>372.66666666666663</ele><time>2026-05-01T14:41:25.794Z</time></trkpt><trkpt lat="43.91842494254284" lon="12.540512105757841"><ele>372.5</ele><time>2026-05-01T14:41:26.794Z</time></trkpt><trkpt lat="43.91844752362185" lon="12.540629160535786"><ele>372.3333333333333</ele><time>2026-05-01T14:41:27.794Z</time></trkpt><trkpt lat="43.918506432401834" lon="12.54074588147996"><ele>372.1666666666667</ele><time>2026-05-01T14:41:28.794Z</time></trkpt><trkpt lat="43.918591785219654" lon="12.54083555144462"><ele>372.0</ele><time>2026-05-01T14:41:29.794Z</time></trkpt><trkpt lat="43.918656678851534" lon="12.540940157463067"><ele>372.0</ele><time>2026-05-01T14:41:30.794Z</time></trkpt><trkpt lat="43.91872527720317" lon="12.541039864150976"><ele>372.0</ele><time>2026-05-01T14:41:31.794Z</time></trkpt><trkpt lat="43.91879311928852" lon="12.541137245846404"><ele>372.0</ele><time>2026-05-01T14:41:32.794Z</time></trkpt><trkpt lat="43.91886325422198" lon="12.541220673090296"><ele>372.0</ele><time>2026-05-01T14:41:33.794Z</time></trkpt><trkpt lat="43.91893420292609" lon="12.541314882458005"><ele>372.0</ele><time>2026-05-01T14:41:34.794Z</time></trkpt><trkpt lat="43.918992337613105" lon="12.54140538951701"><ele>371.6666666666667</ele><time>2026-05-01T14:41:35.794Z</time></trkpt><trkpt lat="43.91905694725545" lon="12.541489785502073"><ele>371.3333333333333</ele><time>2026-05-01T14:41:36.794Z</time></trkpt><trkpt lat="43.91911401496154" lon="12.541571076330072"><ele>371.0</ele><time>2026-05-01T14:41:37.794Z</time></trkpt><trkpt lat="43.919162684699714" lon="12.541657931311489"><ele>370.66666666666663</ele><time>2026-05-01T14:41:38.794Z</time></trkpt><trkpt lat="43.919209515385134" lon="12.541736003439196"><ele>370.3333333333333</ele><time>2026-05-01T14:41:39.794Z</time></trkpt><trkpt lat="43.919241330310484" lon="12.54181761318641"><ele>370.0</ele><time>2026-05-01T14:41:40.794Z</time></trkpt><trkpt lat="43.919255581390864" lon="12.541963647793098"><ele>370.16666666666663</ele><time>2026-05-01T14:41:41.794Z</time></trkpt><trkpt lat="43.91929293966608" lon="12.542101595187523"><ele>370.3333333333333</ele><time>2026-05-01T14:41:42.794Z</time></trkpt><trkpt lat="43.91931725829928" lon="12.542216202821956"><ele>370.5</ele><time>2026-05-01T14:41:43.794Z</time></trkpt><trkpt lat="43.91934161892858" lon="12.542323904860288"><ele>370.6666666666667</ele><time>2026-05-01T14:41:44.794Z</time></trkpt><trkpt lat="43.91936733920311" lon="12.542419446809523"><ele>370.83333333333337</ele><time>2026-05-01T14:41:45.794Z</time></trkpt><trkpt lat="43.91939713410109" lon="12.542506742747317"><ele>371.0</ele><time>2026-05-01T14:41:46.794Z</time></trkpt><trkpt lat="43.919425561134574" lon="12.5425877122862"><ele>371.0</ele><time>2026-05-01T14:41:47.794Z</time></trkpt><trkpt lat="43.91943078386444" lon="12.542675925203746"><ele>371.0</ele><time>2026-05-01T14:41:48.794Z</time></trkpt><trkpt lat="43.9194489448837" lon="12.542760850605982"><ele>371.0</ele><time>2026-05-01T14:41:49.794Z</time></trkpt><trkpt lat="43.91947088465389" lon="12.54286344611251"><ele>371.0</ele><time>2026-05-01T14:41:50.794Z</time></trkpt><trkpt lat="43.919480621296614" lon="12.542954779783782"><ele>371.0</ele><time>2026-05-01T14:41:51.794Z</time></trkpt><trkpt lat="43.91949696329716" lon="12.543079066647335"><ele>371.0</ele><time>2026-05-01T14:41:52.794Z</time></trkpt><trkpt lat="43.919509416036554" lon="12.543202218948018"><ele>371.8</ele><time>2026-05-01T14:41:53.794Z</time></trkpt><trkpt lat="43.91952334072652" lon="12.543343290437285"><ele>372.6</ele><time>2026-05-01T14:41:54.794Z</time></trkpt><trkpt lat="43.91953600938556" lon="12.543484756160609"><ele>373.4</ele><time>2026-05-01T14:41:55.794Z</time></trkpt><trkpt lat="43.91954832253189" lon="12.54362235113735"><ele>374.2</ele><time>2026-05-01T14:41:56.794Z</time></trkpt><trkpt lat="43.91956330620979" lon="12.543755180592523"><ele>375.0</ele><time>2026-05-01T14:41:57.794Z</time></trkpt><trkpt lat="43.91957609165855" lon="12.543868522832847"><ele>373.4</ele><time>2026-05-01T14:41:58.794Z</time></trkpt><trkpt lat="43.91958745156334" lon="12.543974576953767"><ele>371.8</ele><time>2026-05-01T14:41:59.794Z</time></trkpt><trkpt lat="43.91959663226002" lon="12.544063860120943"><ele>370.20000000000005</ele><time>2026-05-01T14:42:00.794Z</time></trkpt><trkpt lat="43.91961225595044" lon="12.544215801847796"><ele>368.6</ele><time>2026-05-01T14:42:02.794Z</time></trkpt><trkpt lat="43.91961022745799" lon="12.5443369525993"><ele>367.0</ele><time>2026-05-01T14:42:04.794Z</time></trkpt><trkpt lat="43.91959771565995" lon="12.544510421799925"><ele>366.16666666666663</ele><time>2026-05-01T14:42:06.794Z</time></trkpt><trkpt lat="43.91959043308382" lon="12.544648062536892"><ele>365.3333333333333</ele><time>2026-05-01T14:42:07.794Z</time></trkpt><trkpt lat="43.91958585090919" lon="12.544767635368864"><ele>364.5</ele><time>2026-05-01T14:42:08.794Z</time></trkpt><trkpt lat="43.91958806986691" lon="12.544871366166293"><ele>363.6666666666667</ele><time>2026-05-01T14:42:09.794Z</time></trkpt><trkpt lat="43.91961034981331" lon="12.54495476186351"><ele>362.83333333333337</ele><time>2026-05-01T14:42:10.794Z</time></trkpt><trkpt lat="43.919604983111576" lon="12.545052533470956"><ele>362.0</ele><time>2026-05-01T14:42:11.794Z</time></trkpt><trkpt lat="43.91961172638084" lon="12.54516184498867"><ele>362.0</ele><time>2026-05-01T14:42:13.794Z</time></trkpt><trkpt lat="43.919735462650806" lon="12.545153222628107"><ele>362.0</ele><time>2026-05-01T14:42:14.794Z</time></trkpt><trkpt lat="43.91979007412492" lon="12.545017674879022"><ele>362.0</ele><time>2026-05-01T14:42:16.792Z</time></trkpt><trkpt lat="43.91987678763445" lon="12.544862235901025"><ele>362.0</ele><time>2026-05-01T14:42:18.793Z</time></trkpt><trkpt lat="43.919944768844545" lon="12.544778263969746"><ele>362.0</ele><time>2026-05-01T14:42:19.793Z</time></trkpt><trkpt lat="43.9200248458875" lon="12.544677430028534"><ele>362.0</ele><time>2026-05-01T14:42:20.792Z</time></trkpt><trkpt lat="43.92011833989639" lon="12.544574476498038"><ele>362.0</ele><time>2026-05-01T14:42:21.792Z</time></trkpt><trkpt lat="43.92021591593731" lon="12.544462602409036"><ele>362.0</ele><time>2026-05-01T14:42:22.792Z</time></trkpt><trkpt lat="43.92030551314063" lon="12.544353705958489"><ele>360.0</ele><time>2026-05-01T14:42:23.792Z</time></trkpt><trkpt lat="43.92039349816787" lon="12.54425681373407"><ele>358.0</ele><time>2026-05-01T14:42:24.792Z</time></trkpt><trkpt lat="43.920481798547264" lon="12.544169032913715"><ele>356.0</ele><time>2026-05-01T14:42:25.793Z</time></trkpt><trkpt lat="43.92056476788537" lon="12.544079065015792"><ele>354.0</ele><time>2026-05-01T14:42:26.793Z</time></trkpt><trkpt lat="43.920641322128404" lon="12.54396990984709"><ele>352.0</ele><time>2026-05-01T14:42:27.793Z</time></trkpt><trkpt lat="43.92071177890697" lon="12.543853564144127"><ele>352.0</ele><time>2026-05-01T14:42:28.792Z</time></trkpt><trkpt lat="43.92075866416546" lon="12.543725211244285"><ele>352.0</ele><time>2026-05-01T14:42:29.793Z</time></trkpt><trkpt lat="43.92080059172965" lon="12.54358799961118"><ele>352.0</ele><time>2026-05-01T14:42:30.793Z</time></trkpt><trkpt lat="43.920845257882995" lon="12.543465257757163"><ele>352.0</ele><time>2026-05-01T14:42:31.793Z</time></trkpt><trkpt lat="43.920895468773814" lon="12.54335701249578"><ele>352.0</ele><time>2026-05-01T14:42:32.793Z</time></trkpt><trkpt lat="43.920942938737106" lon="12.543254417446946"><ele>351.0</ele><time>2026-05-01T14:42:33.793Z</time></trkpt><trkpt lat="43.92102492514118" lon="12.543182599570068"><ele>350.0</ele><time>2026-05-01T14:42:34.793Z</time></trkpt><trkpt lat="43.92111483046265" lon="12.543134702876996"><ele>349.0</ele><time>2026-05-01T14:42:35.793Z</time></trkpt><trkpt lat="43.921219859904504" lon="12.543137618089602"><ele>348.0</ele><time>2026-05-01T14:42:36.793Z</time></trkpt><trkpt lat="43.921357068916315" lon="12.543127623371873"><ele>347.0</ele><time>2026-05-01T14:42:37.793Z</time></trkpt><trkpt lat="43.921502754852426" lon="12.543138798409533"><ele>347.0</ele><time>2026-05-01T14:42:38.793Z</time></trkpt><trkpt lat="43.92166259145122" lon="12.543142738175545"><ele>347.0</ele><time>2026-05-01T14:42:39.793Z</time></trkpt><trkpt lat="43.921805244909194" lon="12.54315181377745"><ele>347.0</ele><time>2026-05-01T14:42:40.793Z</time></trkpt><trkpt lat="43.92194141598192" lon="12.543145917708777"><ele>347.0</ele><time>2026-05-01T14:42:41.793Z</time></trkpt><trkpt lat="43.922075201321405" lon="12.543143432152123"><ele>343.0</ele><time>2026-05-01T14:42:42.793Z</time></trkpt><trkpt lat="43.92221846429868" lon="12.543109420781779"><ele>339.0</ele><time>2026-05-01T14:42:43.793Z</time></trkpt><trkpt lat="43.92234729660343" lon="12.543024415856248"><ele>335.0</ele><time>2026-05-01T14:42:44.793Z</time></trkpt><trkpt lat="43.92246914321661" lon="12.5429135001476"><ele>331.0</ele><time>2026-05-01T14:42:45.793Z</time></trkpt><trkpt lat="43.92258140987312" lon="12.542769078727453"><ele>327.0</ele><time>2026-05-01T14:42:46.793Z</time></trkpt><trkpt lat="43.92269161604397" lon="12.542615599110906"><ele>323.0</ele><time>2026-05-01T14:42:47.793Z</time></trkpt><trkpt lat="43.92277048694849" lon="12.542451611181141"><ele>319.0</ele><time>2026-05-01T14:42:48.793Z</time></trkpt><trkpt lat="43.922858753636206" lon="12.542291851208107"><ele>315.0</ele><time>2026-05-01T14:42:49.793Z</time></trkpt><trkpt lat="43.92294517244478" lon="12.542143774092791"><ele>316.5</ele><time>2026-05-01T14:42:50.793Z</time></trkpt><trkpt lat="43.92299731788616" lon="12.54200168088312"><ele>318.0</ele><time>2026-05-01T14:42:51.793Z</time></trkpt><trkpt lat="43.923014065889625" lon="12.541841107899474"><ele>319.5</ele><time>2026-05-01T14:42:52.792Z</time></trkpt><trkpt lat="43.92299185197687" lon="12.541654729481431"><ele>321.0</ele><time>2026-05-01T14:42:53.792Z</time></trkpt><trkpt lat="43.922941518548384" lon="12.541483106479236"><ele>321.0</ele><time>2026-05-01T14:42:54.792Z</time></trkpt><trkpt lat="43.9228721520385" lon="12.54133544018891"><ele>321.0</ele><time>2026-05-01T14:42:55.792Z</time></trkpt><trkpt lat="43.922801951568324" lon="12.54119842570387"><ele>321.0</ele><time>2026-05-01T14:42:56.792Z</time></trkpt><trkpt lat="43.922703752436384" lon="12.541093904931326"><ele>321.0</ele><time>2026-05-01T14:42:57.792Z</time></trkpt><trkpt lat="43.92257991443379" lon="12.540987935423296"><ele>321.20000000000005</ele><time>2026-05-01T14:42:58.792Z</time></trkpt><trkpt lat="43.92249141162943" lon="12.540893695453454"><ele>321.40000000000003</ele><time>2026-05-01T14:42:59.792Z</time></trkpt><trkpt lat="43.92247629518625" lon="12.540775125119115"><ele>321.6</ele><time>2026-05-01T14:43:00.792Z</time></trkpt><trkpt lat="43.92247408058794" lon="12.54065217399087"><ele>321.8</ele><time>2026-05-01T14:43:01.792Z</time></trkpt><trkpt lat="43.92255734373637" lon="12.540514220287557"><ele>322.0</ele><time>2026-05-01T14:43:02.792Z</time></trkpt><trkpt lat="43.92265249077292" lon="12.540461276296407"><ele>319.75</ele><time>2026-05-01T14:43:03.792Z</time></trkpt><trkpt lat="43.922738827600135" lon="12.540466250852438"><ele>317.5</ele><time>2026-05-01T14:43:04.792Z</time></trkpt><trkpt lat="43.922827958673516" lon="12.540495691079164"><ele>315.25</ele><time>2026-05-01T14:43:05.792Z</time></trkpt><trkpt lat="43.92295146542692" lon="12.54067658829046"><ele>313.0</ele><time>2026-05-01T14:43:06.792Z</time></trkpt><trkpt lat="43.923117400329886" lon="12.540813546491952"><ele>313.0</ele><time>2026-05-01T14:43:07.792Z</time></trkpt><trkpt lat="43.923251458309224" lon="12.54094492465959"><ele>313.0</ele><time>2026-05-01T14:43:08.792Z</time></trkpt><trkpt lat="43.92337747004742" lon="12.541109056953713"><ele>313.0</ele><time>2026-05-01T14:43:09.792Z</time></trkpt><trkpt lat="43.923510550344204" lon="12.541286051567164"><ele>306.3333333333333</ele><time>2026-05-01T14:43:10.792Z</time></trkpt><trkpt lat="43.92364109081025" lon="12.541464137869157"><ele>299.6666666666667</ele><time>2026-05-01T14:43:11.792Z</time></trkpt><trkpt lat="43.923766134499935" lon="12.541634725385675"><ele>293.0</ele><time>2026-05-01T14:43:12.792Z</time></trkpt><trkpt lat="43.9238891657163" lon="12.541802681663889"><ele>293.0</ele><time>2026-05-01T14:43:13.792Z</time></trkpt><trkpt lat="43.924015577467074" lon="12.541947920006999"><ele>293.0</ele><time>2026-05-01T14:43:14.792Z</time></trkpt><trkpt lat="43.92412960381834" lon="12.542130242154906"><ele>293.0</ele><time>2026-05-01T14:43:15.792Z</time></trkpt><trkpt lat="43.92424844618985" lon="12.542289861903432"><ele>288.6666666666667</ele><time>2026-05-01T14:43:16.792Z</time></trkpt><trkpt lat="43.92438000241647" lon="12.542433297763969"><ele>284.3333333333333</ele><time>2026-05-01T14:43:17.792Z</time></trkpt><trkpt lat="43.92449438818401" lon="12.542600361615985"><ele>280.0</ele><time>2026-05-01T14:43:18.792Z</time></trkpt><trkpt lat="43.92461026319658" lon="12.542757921673996"><ele>280.3333333333333</ele><time>2026-05-01T14:43:19.792Z</time></trkpt><trkpt lat="43.924730986863494" lon="12.542908514514506"><ele>280.6666666666667</ele><time>2026-05-01T14:43:20.792Z</time></trkpt><trkpt lat="43.92485433245682" lon="12.543049668516938"><ele>281.0</ele><time>2026-05-01T14:43:21.792Z</time></trkpt><trkpt lat="43.924974663617036" lon="12.543187976666724"><ele>281.0</ele><time>2026-05-01T14:43:22.792Z</time></trkpt><trkpt lat="43.92509697329771" lon="12.543318849647411"><ele>281.0</ele><time>2026-05-01T14:43:23.792Z</time></trkpt><trkpt lat="43.925220743274096" lon="12.543427492355029"><ele>281.0</ele><time>2026-05-01T14:43:24.792Z</time></trkpt><trkpt lat="43.92536208184025" lon="12.543495205224483"><ele>281.0</ele><time>2026-05-01T14:43:25.792Z</time></trkpt><trkpt lat="43.92553057018199" lon="12.543522223109104"><ele>281.0</ele><time>2026-05-01T14:43:26.792Z</time></trkpt><trkpt lat="43.92573340092768" lon="12.543523786290468"><ele>281.0</ele><time>2026-05-01T14:43:27.792Z</time></trkpt><trkpt lat="43.92594915152344" lon="12.543509479816507"><ele>280.33333333333337</ele><time>2026-05-01T14:43:28.792Z</time></trkpt><trkpt lat="43.92616876073368" lon="12.543472619696718"><ele>279.6666666666667</ele><time>2026-05-01T14:43:29.792Z</time></trkpt><trkpt lat="43.92637316723427" lon="12.543433699333772"><ele>279.0</ele><time>2026-05-01T14:43:30.792Z</time></trkpt><trkpt lat="43.92655741268119" lon="12.543389323846021"><ele>279.0</ele><time>2026-05-01T14:43:31.792Z</time></trkpt><trkpt lat="43.92672285722773" lon="12.543315689986851"><ele>279.0</ele><time>2026-05-01T14:43:32.792Z</time></trkpt><trkpt lat="43.92686156158869" lon="12.543200662269934"><ele>279.0</ele><time>2026-05-01T14:43:33.792Z</time></trkpt><trkpt lat="43.92698739111829" lon="12.543074223075909"><ele>277.25</ele><time>2026-05-01T14:43:34.792Z</time></trkpt><trkpt lat="43.927103090167584" lon="12.542932975706593"><ele>275.5</ele><time>2026-05-01T14:43:35.792Z</time></trkpt><trkpt lat="43.92719711566097" lon="12.542783535420023"><ele>273.75</ele><time>2026-05-01T14:43:36.792Z</time></trkpt><trkpt lat="43.927287673502406" lon="12.542650954037718"><ele>272.0</ele><time>2026-05-01T14:43:37.792Z</time></trkpt><trkpt lat="43.92740057703994" lon="12.542526942350634"><ele>272.0</ele><time>2026-05-01T14:43:38.792Z</time></trkpt><trkpt lat="43.92754192747944" lon="12.54241953297122"><ele>272.0</ele><time>2026-05-01T14:43:39.792Z</time></trkpt><trkpt lat="43.92768454795866" lon="12.542319139028203"><ele>272.0</ele><time>2026-05-01T14:43:40.792Z</time></trkpt><trkpt lat="43.92784474385637" lon="12.542281671349649"><ele>267.33333333333337</ele><time>2026-05-01T14:43:41.792Z</time></trkpt><trkpt lat="43.928001627514675" lon="12.542227027097342"><ele>262.6666666666667</ele><time>2026-05-01T14:43:42.792Z</time></trkpt><trkpt lat="43.928156844598206" lon="12.542199105625068"><ele>258.0</ele><time>2026-05-01T14:43:43.792Z</time></trkpt><trkpt lat="43.92831008973762" lon="12.542167111774583"><ele>255.0</ele><time>2026-05-01T14:43:44.792Z</time></trkpt><trkpt lat="43.92846088705768" lon="12.542118286014285"><ele>252.0</ele><time>2026-05-01T14:43:45.792Z</time></trkpt><trkpt lat="43.92860716383924" lon="12.542046191382033"><ele>249.0</ele><time>2026-05-01T14:43:46.792Z</time></trkpt><trkpt lat="43.9287387816999" lon="12.541931002300327"><ele>249.0</ele><time>2026-05-01T14:43:47.792Z</time></trkpt><trkpt lat="43.92886160600877" lon="12.541793056962122"><ele>249.0</ele><time>2026-05-01T14:43:48.792Z</time></trkpt><trkpt lat="43.928966265662794" lon="12.541655288081708"><ele>249.0</ele><time>2026-05-01T14:43:49.792Z</time></trkpt><trkpt lat="43.929086399041836" lon="12.541540838512454"><ele>249.0</ele><time>2026-05-01T14:43:50.792Z</time></trkpt><trkpt lat="43.92921769994369" lon="12.541460833112017"><ele>249.75</ele><time>2026-05-01T14:43:51.792Z</time></trkpt><trkpt lat="43.92935274214747" lon="12.541416286309403"><ele>250.5</ele><time>2026-05-01T14:43:52.792Z</time></trkpt><trkpt lat="43.92948728394146" lon="12.541400217098355"><ele>251.25</ele><time>2026-05-01T14:43:53.792Z</time></trkpt><trkpt lat="43.92961530891096" lon="12.541383812451539"><ele>252.0</ele><time>2026-05-01T14:43:54.792Z</time></trkpt><trkpt lat="43.92973198691255" lon="12.541352433066082"><ele>252.0</ele><time>2026-05-01T14:43:55.792Z</time></trkpt><trkpt lat="43.929844792031716" lon="12.541313659076035"><ele>252.0</ele><time>2026-05-01T14:43:56.791Z</time></trkpt><trkpt lat="43.929955500600535" lon="12.541260670578339"><ele>252.0</ele><time>2026-05-01T14:43:57.791Z</time></trkpt><trkpt lat="43.93006856154364" lon="12.541218525673598"><ele>252.0</ele><time>2026-05-01T14:43:58.791Z</time></trkpt><trkpt lat="43.930184962907035" lon="12.54117634536393"><ele>249.75</ele><time>2026-05-01T14:43:59.791Z</time></trkpt><trkpt lat="43.9303157312392" lon="12.541170479990848"><ele>247.5</ele><time>2026-05-01T14:44:00.791Z</time></trkpt><trkpt lat="43.93044402547278" lon="12.541226188997276"><ele>245.25</ele><time>2026-05-01T14:44:01.791Z</time></trkpt><trkpt lat="43.93057586261371" lon="12.541299972602912"><ele>243.0</ele><time>2026-05-01T14:44:02.791Z</time></trkpt><trkpt lat="43.93068998512984" lon="12.541399460800331"><ele>243.0</ele><time>2026-05-01T14:44:03.791Z</time></trkpt><trkpt lat="43.930783702420264" lon="12.54151901494886"><ele>243.0</ele><time>2026-05-01T14:44:04.791Z</time></trkpt><trkpt lat="43.93088612380413" lon="12.541632465990054"><ele>243.0</ele><time>2026-05-01T14:44:05.791Z</time></trkpt><trkpt lat="43.930975046172634" lon="12.541772266742345"><ele>243.0</ele><time>2026-05-01T14:44:06.791Z</time></trkpt><trkpt lat="43.93107034917605" lon="12.541890939651847"><ele>241.75</ele><time>2026-05-01T14:44:07.791Z</time></trkpt><trkpt lat="43.9311720877466" lon="12.541978614926302"><ele>240.5</ele><time>2026-05-01T14:44:08.791Z</time></trkpt><trkpt lat="43.9312870402024" lon="12.542024075823067"><ele>239.25</ele><time>2026-05-01T14:44:09.791Z</time></trkpt><trkpt lat="43.93140169163061" lon="12.542044056611687"><ele>238.0</ele><time>2026-05-01T14:44:10.791Z</time></trkpt><trkpt lat="43.931530433799615" lon="12.541970375406951"><ele>238.0</ele><time>2026-05-01T14:44:11.791Z</time></trkpt><trkpt lat="43.93165519701589" lon="12.541889804011694"><ele>238.0</ele><time>2026-05-01T14:44:12.791Z</time></trkpt><trkpt lat="43.93178166812438" lon="12.541802651699227"><ele>238.0</ele><time>2026-05-01T14:44:13.791Z</time></trkpt><trkpt lat="43.9319126810548" lon="12.541729020946596"><ele>238.0</ele><time>2026-05-01T14:44:14.791Z</time></trkpt><trkpt lat="43.93204313773744" lon="12.541664515815961"><ele>239.0</ele><time>2026-05-01T14:44:15.791Z</time></trkpt><trkpt lat="43.932175364527545" lon="12.541613209267165"><ele>240.0</ele><time>2026-05-01T14:44:16.791Z</time></trkpt><trkpt lat="43.932313729572066" lon="12.5416172942024"><ele>241.0</ele><time>2026-05-01T14:44:17.791Z</time></trkpt><trkpt lat="43.93244314502416" lon="12.541627096575198"><ele>242.0</ele><time>2026-05-01T14:44:18.791Z</time></trkpt><trkpt lat="43.932572463301575" lon="12.54166559078617"><ele>242.5</ele><time>2026-05-01T14:44:19.791Z</time></trkpt><trkpt lat="43.93271600482361" lon="12.541720714375693"><ele>243.0</ele><time>2026-05-01T14:44:20.791Z</time></trkpt><trkpt lat="43.9328400776594" lon="12.541768760200888"><ele>243.5</ele><time>2026-05-01T14:44:21.791Z</time></trkpt><trkpt lat="43.932971338550395" lon="12.541811779155887"><ele>244.0</ele><time>2026-05-01T14:44:22.79Z</time></trkpt><trkpt lat="43.933091361462786" lon="12.541818596103285"><ele>244.0</ele><time>2026-05-01T14:44:23.79Z</time></trkpt><trkpt lat="43.93319405436235" lon="12.54184096819994"><ele>243.99999999999997</ele><time>2026-05-01T14:44:24.79Z</time></trkpt><trkpt lat="43.93329317222612" lon="12.541851361446874"><ele>243.99999999999997</ele><time>2026-05-01T14:44:25.79Z</time></trkpt><trkpt lat="43.93338900824546" lon="12.541872356885673"><ele>244.0</ele><time>2026-05-01T14:44:26.791Z</time></trkpt><trkpt lat="43.933484967034886" lon="12.541885305362776"><ele>244.0</ele><time>2026-05-01T14:44:27.791Z</time></trkpt><trkpt lat="43.93356966540389" lon="12.541920840291414"><ele>242.25</ele><time>2026-05-01T14:44:28.791Z</time></trkpt><trkpt lat="43.933680644118255" lon="12.541939226258252"><ele>240.5</ele><time>2026-05-01T14:44:29.79Z</time></trkpt><trkpt lat="43.93380726027991" lon="12.541940966628765"><ele>238.75</ele><time>2026-05-01T14:44:30.79Z</time></trkpt><trkpt lat="43.933928552235635" lon="12.541958705090693"><ele>237.0</ele><time>2026-05-01T14:44:31.79Z</time></trkpt><trkpt lat="43.93406472102839" lon="12.542003174972136"><ele>237.0</ele><time>2026-05-01T14:44:32.79Z</time></trkpt><trkpt lat="43.934191691578675" lon="12.542024668879844"><ele>237.0</ele><time>2026-05-01T14:44:33.79Z</time></trkpt><trkpt lat="43.93432872744695" lon="12.54204774075547"><ele>237.0</ele><time>2026-05-01T14:44:34.79Z</time></trkpt><trkpt lat="43.93446452518046" lon="12.542067535823435"><ele>237.0</ele><time>2026-05-01T14:44:35.79Z</time></trkpt><trkpt lat="43.93459799926575" lon="12.542074722349982"><ele>235.83333333333334</ele><time>2026-05-01T14:44:36.79Z</time></trkpt><trkpt lat="43.93470998886207" lon="12.542063761996111"><ele>234.66666666666669</ele><time>2026-05-01T14:44:37.79Z</time></trkpt><trkpt lat="43.93478986719926" lon="12.542063851661716"><ele>233.5</ele><time>2026-05-01T14:44:38.79Z</time></trkpt><trkpt lat="43.93486350802223" lon="12.542062587567212"><ele>232.33333333333334</ele><time>2026-05-01T14:44:39.79Z</time></trkpt><trkpt lat="43.934943173147296" lon="12.542059637277566"><ele>231.16666666666669</ele><time>2026-05-01T14:44:40.79Z</time></trkpt><trkpt lat="43.93502783233961" lon="12.542064578276067"><ele>230.0</ele><time>2026-05-01T14:44:41.79Z</time></trkpt><trkpt lat="43.93511364172525" lon="12.542073140526458"><ele>229.2</ele><time>2026-05-01T14:44:42.79Z</time></trkpt><trkpt lat="43.93519351806307" lon="12.54208383075518"><ele>228.4</ele><time>2026-05-01T14:44:43.79Z</time></trkpt><trkpt lat="43.93528374912575" lon="12.542094851063396"><ele>227.60000000000002</ele><time>2026-05-01T14:44:44.79Z</time></trkpt><trkpt lat="43.935377462035134" lon="12.542130238200606"><ele>226.8</ele><time>2026-05-01T14:44:45.79Z</time></trkpt><trkpt lat="43.935472776744895" lon="12.542172529217346"><ele>226.0</ele><time>2026-05-01T14:44:46.79Z</time></trkpt><trkpt lat="43.935568042664855" lon="12.542223022856131"><ele>226.0</ele><time>2026-05-01T14:44:47.79Z</time></trkpt><trkpt lat="43.935668488872" lon="12.54226548607765"><ele>226.00000000000003</ele><time>2026-05-01T14:44:48.79Z</time></trkpt><trkpt lat="43.93576267549138" lon="12.542309959846746"><ele>226.00000000000003</ele><time>2026-05-01T14:44:49.79Z</time></trkpt><trkpt lat="43.93585905933091" lon="12.542355437764982"><ele>226.0</ele><time>2026-05-01T14:44:50.79Z</time></trkpt><trkpt lat="43.93595396138798" lon="12.542396731267326"><ele>226.0</ele><time>2026-05-01T14:44:51.79Z</time></trkpt><trkpt lat="43.93604400122199" lon="12.542431133512316"><ele>225.49999999999997</ele><time>2026-05-01T14:44:52.79Z</time></trkpt><trkpt lat="43.93612963268771" lon="12.542465647509918"><ele>225.0</ele><time>2026-05-01T14:44:53.79Z</time></trkpt><trkpt lat="43.93621235985504" lon="12.542505811484306"><ele>224.5</ele><time>2026-05-01T14:44:54.789Z</time></trkpt><trkpt lat="43.9362945796392" lon="12.54255225601016"><ele>224.0</ele><time>2026-05-01T14:44:55.789Z</time></trkpt><trkpt lat="43.93637895777414" lon="12.542592796850409"><ele>223.49999999999997</ele><time>2026-05-01T14:44:56.789Z</time></trkpt><trkpt lat="43.936462051625725" lon="12.54261393566757"><ele>223.0</ele><time>2026-05-01T14:44:57.789Z</time></trkpt><trkpt lat="43.93655465007566" lon="12.542644276525722"><ele>223.0</ele><time>2026-05-01T14:44:58.789Z</time></trkpt><trkpt lat="43.93664849534409" lon="12.542687090446268"><ele>223.0</ele><time>2026-05-01T14:44:59.789Z</time></trkpt><trkpt lat="43.9367541401797" lon="12.542730991621543"><ele>223.0</ele><time>2026-05-01T14:45:00.789Z</time></trkpt><trkpt lat="43.93685967201118" lon="12.542784628900153"><ele>223.0</ele><time>2026-05-01T14:45:01.789Z</time></trkpt><trkpt lat="43.936959583043375" lon="12.542829000316722"><ele>223.0</ele><time>2026-05-01T14:45:02.789Z</time></trkpt><trkpt lat="43.93705877763256" lon="12.542869093298778"><ele>221.4</ele><time>2026-05-01T14:45:03.789Z</time></trkpt><trkpt lat="43.93715389261664" lon="12.542928404290386"><ele>219.8</ele><time>2026-05-01T14:45:04.789Z</time></trkpt><trkpt lat="43.93724862061724" lon="12.54298152545948"><ele>218.2</ele><time>2026-05-01T14:45:05.789Z</time></trkpt><trkpt lat="43.93734326395416" lon="12.54302677802972"><ele>216.6</ele><time>2026-05-01T14:45:06.789Z</time></trkpt><trkpt lat="43.93743173652567" lon="12.54307964232125"><ele>215.0</ele><time>2026-05-01T14:45:07.789Z</time></trkpt><trkpt lat="43.93751544666573" lon="12.543139432763352"><ele>214.66666666666669</ele><time>2026-05-01T14:45:08.789Z</time></trkpt><trkpt lat="43.93759456948716" lon="12.543206821596756"><ele>214.33333333333334</ele><time>2026-05-01T14:45:09.789Z</time></trkpt><trkpt lat="43.937663780466735" lon="12.543281935815724"><ele>214.0</ele><time>2026-05-01T14:45:10.789Z</time></trkpt><trkpt lat="43.937709591522065" lon="12.543366685952538"><ele>213.66666666666669</ele><time>2026-05-01T14:45:11.789Z</time></trkpt><trkpt lat="43.93774941369188" lon="12.543442173646108"><ele>213.33333333333334</ele><time>2026-05-01T14:45:12.789Z</time></trkpt><trkpt lat="43.93780543788238" lon="12.543483360694337"><ele>213.0</ele><time>2026-05-01T14:45:13.789Z</time></trkpt><trkpt lat="43.93790339984147" lon="12.543502893546485"><ele>213.0</ele><time>2026-05-01T14:45:14.789Z</time></trkpt><trkpt lat="43.938010273725524" lon="12.543559978975242"><ele>213.0</ele><time>2026-05-01T14:45:15.789Z</time></trkpt><trkpt lat="43.93813991410562" lon="12.543673506077798"><ele>213.0</ele><time>2026-05-01T14:45:16.789Z</time></trkpt><trkpt lat="43.93826550885428" lon="12.543817859173984"><ele>213.0</ele><time>2026-05-01T14:45:17.789Z</time></trkpt><trkpt lat="43.938365415178" lon="12.543938110116274"><ele>212.25</ele><time>2026-05-01T14:45:18.789Z</time></trkpt><trkpt lat="43.93846380793345" lon="12.544053209073287"><ele>211.5</ele><time>2026-05-01T14:45:19.789Z</time></trkpt><trkpt lat="43.938562594222326" lon="12.544173248469443"><ele>210.75</ele><time>2026-05-01T14:45:20.789Z</time></trkpt><trkpt lat="43.93865787642311" lon="12.544304494408287"><ele>210.0</ele><time>2026-05-01T14:45:21.789Z</time></trkpt><trkpt lat="43.93874516483304" lon="12.544474879090833"><ele>209.33333333333331</ele><time>2026-05-01T14:45:22.789Z</time></trkpt><trkpt lat="43.93883343224747" lon="12.544686201091878"><ele>208.66666666666666</ele><time>2026-05-01T14:45:23.789Z</time></trkpt><trkpt lat="43.938935548327784" lon="12.54492592202791"><ele>208.0</ele><time>2026-05-01T14:45:24.789Z</time></trkpt><trkpt lat="43.93903042442263" lon="12.545151711630668"><ele>208.0</ele><time>2026-05-01T14:45:25.789Z</time></trkpt><trkpt lat="43.93911635638369" lon="12.54534498337627"><ele>208.0</ele><time>2026-05-01T14:45:26.789Z</time></trkpt><trkpt lat="43.939197945266464" lon="12.545524342352447"><ele>208.0</ele><time>2026-05-01T14:45:27.789Z</time></trkpt><trkpt lat="43.93928327196755" lon="12.545693017654541"><ele>207.0</ele><time>2026-05-01T14:45:28.789Z</time></trkpt><trkpt lat="43.93937112366924" lon="12.545854278713653"><ele>206.0</ele><time>2026-05-01T14:45:29.789Z</time></trkpt><trkpt lat="43.93946307647194" lon="12.54602206468867"><ele>205.0</ele><time>2026-05-01T14:45:30.789Z</time></trkpt><trkpt lat="43.939555819952076" lon="12.546177240432714"><ele>204.0</ele><time>2026-05-01T14:45:31.789Z</time></trkpt><trkpt lat="43.93964944007951" lon="12.54632803323724"><ele>204.0</ele><time>2026-05-01T14:45:32.789Z</time></trkpt><trkpt lat="43.93974333320564" lon="12.546469831962082"><ele>204.0</ele><time>2026-05-01T14:45:33.789Z</time></trkpt><trkpt lat="43.93983754882368" lon="12.546611952037075"><ele>204.0</ele><time>2026-05-01T14:45:34.789Z</time></trkpt><trkpt lat="43.93993345002732" lon="12.546748208147338"><ele>204.0</ele><time>2026-05-01T14:45:35.789Z</time></trkpt><trkpt lat="43.94003699049052" lon="12.546876162089918"><ele>202.25</ele><time>2026-05-01T14:45:36.789Z</time></trkpt><trkpt lat="43.94014005000355" lon="12.547001713967923"><ele>200.5</ele><time>2026-05-01T14:45:37.789Z</time></trkpt><trkpt lat="43.94023953283686" lon="12.547124986687027"><ele>198.75</ele><time>2026-05-01T14:45:38.789Z</time></trkpt><trkpt lat="43.940339699830474" lon="12.547246780395948"><ele>197.0</ele><time>2026-05-01T14:45:39.789Z</time></trkpt><trkpt lat="43.94044528755425" lon="12.547366509816369"><ele>197.0</ele><time>2026-05-01T14:45:40.789Z</time></trkpt><trkpt lat="43.94054708122462" lon="12.547493710224987"><ele>197.0</ele><time>2026-05-01T14:45:41.789Z</time></trkpt><trkpt lat="43.94065102225797" lon="12.547608132216943"><ele>197.0</ele><time>2026-05-01T14:45:42.789Z</time></trkpt><trkpt lat="43.940752953049014" lon="12.547716668453502"><ele>197.0</ele><time>2026-05-01T14:45:43.789Z</time></trkpt><trkpt lat="43.940852409866665" lon="12.547821107272004"><ele>194.2</ele><time>2026-05-01T14:45:44.789Z</time></trkpt><trkpt lat="43.94094215182812" lon="12.547929376731153"><ele>191.39999999999998</ele><time>2026-05-01T14:45:45.789Z</time></trkpt><trkpt lat="43.94100710236204" lon="12.548049403693982"><ele>188.60000000000002</ele><time>2026-05-01T14:45:46.789Z</time></trkpt><trkpt lat="43.94104651027492" lon="12.548178564935416"><ele>185.8</ele><time>2026-05-01T14:45:47.789Z</time></trkpt><trkpt lat="43.941051521859904" lon="12.548323119349158"><ele>183.0</ele><time>2026-05-01T14:45:48.789Z</time></trkpt><trkpt lat="43.94099837159291" lon="12.548453453742724"><ele>183.0</ele><time>2026-05-01T14:45:49.789Z</time></trkpt><trkpt lat="43.94093201346847" lon="12.548533945953407"><ele>183.0</ele><time>2026-05-01T14:45:50.789Z</time></trkpt><trkpt lat="43.94085603321785" lon="12.548667732400865"><ele>183.0</ele><time>2026-05-01T14:45:51.789Z</time></trkpt><trkpt lat="43.94072367152016" lon="12.548739428368577"><ele>183.0</ele><time>2026-05-01T14:45:52.789Z</time></trkpt><trkpt lat="43.940636677751534" lon="12.54886744669781"><ele>183.8</ele><time>2026-05-01T14:45:53.789Z</time></trkpt><trkpt lat="43.94055898602208" lon="12.54898433833184"><ele>184.60000000000002</ele><time>2026-05-01T14:45:54.789Z</time></trkpt><trkpt lat="43.940499700523404" lon="12.549110066835405"><ele>185.39999999999998</ele><time>2026-05-01T14:45:55.789Z</time></trkpt><trkpt lat="43.94050502003421" lon="12.549267321549168"><ele>186.2</ele><time>2026-05-01T14:45:56.789Z</time></trkpt><trkpt lat="43.94053877330714" lon="12.54940793195923"><ele>187.0</ele><time>2026-05-01T14:45:57.789Z</time></trkpt><trkpt lat="43.94061262453734" lon="12.549510952195355"><ele>184.5</ele><time>2026-05-01T14:45:58.789Z</time></trkpt><trkpt lat="43.94071546596586" lon="12.549578211267482"><ele>182.0</ele><time>2026-05-01T14:45:59.788Z</time></trkpt><trkpt lat="43.94084095844394" lon="12.549623680848004"><ele>179.5</ele><time>2026-05-01T14:46:00.788Z</time></trkpt><trkpt lat="43.94098150460603" lon="12.549649300720278"><ele>177.0</ele><time>2026-05-01T14:46:01.788Z</time></trkpt><trkpt lat="43.941138319069864" lon="12.549680292862986"><ele>176.0</ele><time>2026-05-01T14:46:02.788Z</time></trkpt><trkpt lat="43.9413136634023" lon="12.54970007946499"><ele>175.0</ele><time>2026-05-01T14:46:03.788Z</time></trkpt><trkpt lat="43.94149213434672" lon="12.549715542024671"><ele>174.0</ele><time>2026-05-01T14:46:04.788Z</time></trkpt><trkpt lat="43.941660059347676" lon="12.549727616416401"><ele>171.33333333333334</ele><time>2026-05-01T14:46:05.788Z</time></trkpt><trkpt lat="43.94182173878679" lon="12.54974613017149"><ele>168.66666666666669</ele><time>2026-05-01T14:46:06.788Z</time></trkpt><trkpt lat="43.941974914027654" lon="12.549779044139687"><ele>166.0</ele><time>2026-05-01T14:46:07.788Z</time></trkpt><trkpt lat="43.94210099563018" lon="12.549838905809798"><ele>166.0</ele><time>2026-05-01T14:46:08.788Z</time></trkpt><trkpt lat="43.94222508547964" lon="12.549954486512787"><ele>166.0</ele><time>2026-05-01T14:46:09.788Z</time></trkpt><trkpt lat="43.942332572147784" lon="12.550106227821397"><ele>166.0</ele><time>2026-05-01T14:46:10.788Z</time></trkpt><trkpt lat="43.942431817227245" lon="12.55028561493229"><ele>166.0</ele><time>2026-05-01T14:46:11.788Z</time></trkpt><trkpt lat="43.9425237710389" lon="12.550461534870939"><ele>166.0</ele><time>2026-05-01T14:46:12.788Z</time></trkpt><trkpt lat="43.942610161986224" lon="12.55062782748476"><ele>166.0</ele><time>2026-05-01T14:46:13.788Z</time></trkpt><trkpt lat="43.94268697346975" lon="12.55079545621543"><ele>166.0</ele><time>2026-05-01T14:46:14.788Z</time></trkpt><trkpt lat="43.94274503312165" lon="12.550988429650065"><ele>163.0</ele><time>2026-05-01T14:46:15.788Z</time></trkpt><trkpt lat="43.94279401238687" lon="12.551207001874726"><ele>160.0</ele><time>2026-05-01T14:46:16.788Z</time></trkpt><trkpt lat="43.94286337808863" lon="12.551442119170352"><ele>157.0</ele><time>2026-05-01T14:46:17.788Z</time></trkpt><trkpt lat="43.942937225983435" lon="12.551698761461202"><ele>157.0</ele><time>2026-05-01T14:46:18.788Z</time></trkpt><trkpt lat="43.94301477550129" lon="12.551939714391189"><ele>157.0</ele><time>2026-05-01T14:46:19.788Z</time></trkpt><trkpt lat="43.94310017566626" lon="12.552153667036647"><ele>157.0</ele><time>2026-05-01T14:46:20.788Z</time></trkpt><trkpt lat="43.943188457392424" lon="12.55235559429143"><ele>156.66666666666669</ele><time>2026-05-01T14:46:21.788Z</time></trkpt><trkpt lat="43.943271539245636" lon="12.552555384603043"><ele>156.33333333333334</ele><time>2026-05-01T14:46:22.788Z</time></trkpt><trkpt lat="43.94335358903011" lon="12.552741231994895"><ele>156.0</ele><time>2026-05-01T14:46:23.788Z</time></trkpt><trkpt lat="43.9434312664122" lon="12.552929649641383"><ele>153.5</ele><time>2026-05-01T14:46:24.788Z</time></trkpt><trkpt lat="43.943513961230956" lon="12.553105446497012"><ele>151.0</ele><time>2026-05-01T14:46:25.788Z</time></trkpt><trkpt lat="43.943589564796746" lon="12.553277237084117"><ele>148.5</ele><time>2026-05-01T14:46:26.788Z</time></trkpt><trkpt lat="43.943666324518645" lon="12.553449134517807"><ele>146.0</ele><time>2026-05-01T14:46:27.788Z</time></trkpt><trkpt lat="43.943720892885466" lon="12.55367701496886"><ele>147.0</ele><time>2026-05-01T14:46:28.788Z</time></trkpt><trkpt lat="43.943787873124485" lon="12.553854480516328"><ele>148.0</ele><time>2026-05-01T14:46:29.788Z</time></trkpt><trkpt lat="43.94385946759488" lon="12.554010386516095"><ele>149.0</ele><time>2026-05-01T14:46:30.788Z</time></trkpt><trkpt lat="43.94393057447783" lon="12.554163104789925"><ele>150.0</ele><time>2026-05-01T14:46:31.788Z</time></trkpt><trkpt lat="43.943994094183005" lon="12.554311237767463"><ele>150.0</ele><time>2026-05-01T14:46:32.788Z</time></trkpt><trkpt lat="43.9440465351182" lon="12.554473569727516"><ele>150.0</ele><time>2026-05-01T14:46:33.788Z</time></trkpt><trkpt lat="43.944103057805926" lon="12.554637419823493"><ele>150.0</ele><time>2026-05-01T14:46:34.787Z</time></trkpt><trkpt lat="43.944155969821026" lon="12.55482204591884"><ele>150.0</ele><time>2026-05-01T14:46:35.788Z</time></trkpt><trkpt lat="43.944192172687536" lon="12.55502210862409"><ele>149.25</ele><time>2026-05-01T14:46:36.788Z</time></trkpt><trkpt lat="43.944227402721054" lon="12.555217144385557"><ele>148.5</ele><time>2026-05-01T14:46:37.788Z</time></trkpt><trkpt lat="43.94427540061441" lon="12.555413498068749"><ele>147.75</ele><time>2026-05-01T14:46:38.788Z</time></trkpt><trkpt lat="43.94432217406151" lon="12.555612755903566"><ele>147.0</ele><time>2026-05-01T14:46:39.788Z</time></trkpt><trkpt lat="43.944382136001984" lon="12.555828623631397"><ele>147.0</ele><time>2026-05-01T14:46:40.788Z</time></trkpt><trkpt lat="43.94443848185505" lon="12.556044358437374"><ele>147.0</ele><time>2026-05-01T14:46:41.787Z</time></trkpt><trkpt lat="43.94452252527722" lon="12.556237122069223"><ele>147.0</ele><time>2026-05-01T14:46:42.787Z</time></trkpt><trkpt lat="43.94463155983398" lon="12.55641148584415"><ele>149.25</ele><time>2026-05-01T14:46:43.787Z</time></trkpt><trkpt lat="43.94475459267645" lon="12.556552787163413"><ele>151.5</ele><time>2026-05-01T14:46:44.787Z</time></trkpt><trkpt lat="43.94486311140314" lon="12.556682605732874"><ele>153.75</ele><time>2026-05-01T14:46:45.787Z</time></trkpt><trkpt lat="43.94495032077142" lon="12.556822158049991"><ele>156.0</ele><time>2026-05-01T14:46:46.787Z</time></trkpt><trkpt lat="43.945019996801236" lon="12.556976378839732"><ele>154.25</ele><time>2026-05-01T14:46:47.787Z</time></trkpt><trkpt lat="43.945082095657966" lon="12.557118309748706"><ele>152.5</ele><time>2026-05-01T14:46:48.787Z</time></trkpt><trkpt lat="43.94514561734682" lon="12.557245978126934"><ele>150.75</ele><time>2026-05-01T14:46:49.787Z</time></trkpt><trkpt lat="43.94521777930581" lon="12.557371329656466"><ele>149.0</ele><time>2026-05-01T14:46:50.787Z</time></trkpt><trkpt lat="43.94528713476446" lon="12.557503949485412"><ele>149.0</ele><time>2026-05-01T14:46:51.787Z</time></trkpt><trkpt lat="43.9453554617168" lon="12.557646384421114"><ele>149.0</ele><time>2026-05-01T14:46:52.787Z</time></trkpt><trkpt lat="43.945425455777794" lon="12.557787209739942"><ele>149.0</ele><time>2026-05-01T14:46:53.787Z</time></trkpt><trkpt lat="43.945497062741495" lon="12.557924664460238"><ele>149.0</ele><time>2026-05-01T14:46:54.787Z</time></trkpt><trkpt lat="43.94556547921465" lon="12.558055940703177"><ele>149.8</ele><time>2026-05-01T14:46:55.787Z</time></trkpt><trkpt lat="43.9456281444603" lon="12.55818450948787"><ele>150.60000000000002</ele><time>2026-05-01T14:46:56.787Z</time></trkpt><trkpt lat="43.945697298004376" lon="12.558297442033727"><ele>151.4</ele><time>2026-05-01T14:46:57.787Z</time></trkpt><trkpt lat="43.94577478414756" lon="12.558402987348737"><ele>152.20000000000002</ele><time>2026-05-01T14:46:58.787Z</time></trkpt><trkpt lat="43.945851136071575" lon="12.55850340613213"><ele>153.0</ele><time>2026-05-01T14:46:59.787Z</time></trkpt><trkpt lat="43.945926156774476" lon="12.55860402886224"><ele>151.8</ele><time>2026-05-01T14:47:00.787Z</time></trkpt><trkpt lat="43.9460039014724" lon="12.558710460043761"><ele>150.60000000000002</ele><time>2026-05-01T14:47:01.787Z</time></trkpt><trkpt lat="43.946082718248526" lon="12.558816850968894"><ele>149.39999999999998</ele><time>2026-05-01T14:47:02.787Z</time></trkpt><trkpt lat="43.94616069936831" lon="12.558924744429918"><ele>148.2</ele><time>2026-05-01T14:47:03.787Z</time></trkpt><trkpt lat="43.94624015608969" lon="12.559032193417538"><ele>147.0</ele><time>2026-05-01T14:47:04.787Z</time></trkpt><trkpt lat="43.946322954000635" lon="12.559146018931129"><ele>147.0</ele><time>2026-05-01T14:47:05.787Z</time></trkpt><trkpt lat="43.946407505700186" lon="12.559261468021068"><ele>147.0</ele><time>2026-05-01T14:47:06.787Z</time></trkpt><trkpt lat="43.946483864351514" lon="12.559373255180118"><ele>147.0</ele><time>2026-05-01T14:47:07.787Z</time></trkpt><trkpt lat="43.94656373052043" lon="12.55948933045517"><ele>147.0</ele><time>2026-05-01T14:47:08.787Z</time></trkpt><trkpt lat="43.94665389967846" lon="12.559602122091038"><ele>142.75</ele><time>2026-05-01T14:47:09.787Z</time></trkpt><trkpt lat="43.94674986002911" lon="12.559731780524231"><ele>138.5</ele><time>2026-05-01T14:47:10.787Z</time></trkpt><trkpt lat="43.946847980652194" lon="12.55986996911291"><ele>134.25</ele><time>2026-05-01T14:47:11.787Z</time></trkpt><trkpt lat="43.946945627987816" lon="12.559997195302266"><ele>130.0</ele><time>2026-05-01T14:47:12.787Z</time></trkpt><trkpt lat="43.94703839797457" lon="12.560122220549395"><ele>130.0</ele><time>2026-05-01T14:47:13.787Z</time></trkpt><trkpt lat="43.947116117152326" lon="12.560248788128375"><ele>130.0</ele><time>2026-05-01T14:47:14.787Z</time></trkpt><trkpt lat="43.94720107046766" lon="12.56038235062545"><ele>130.0</ele><time>2026-05-01T14:47:15.787Z</time></trkpt><trkpt lat="43.94728418320695" lon="12.560512137416005"><ele>130.0</ele><time>2026-05-01T14:47:16.787Z</time></trkpt><trkpt lat="43.94736361766248" lon="12.560629896575854"><ele>131.25</ele><time>2026-05-01T14:47:17.787Z</time></trkpt><trkpt lat="43.94744146164" lon="12.560748321733497"><ele>132.5</ele><time>2026-05-01T14:47:18.787Z</time></trkpt><trkpt lat="43.94751814368913" lon="12.560864276824264"><ele>133.75</ele><time>2026-05-01T14:47:19.787Z</time></trkpt><trkpt lat="43.94759270462274" lon="12.560980526399772"><ele>135.0</ele><time>2026-05-01T14:47:20.787Z</time></trkpt><trkpt lat="43.9476664022181" lon="12.56110252937265"><ele>132.5</ele><time>2026-05-01T14:47:21.787Z</time></trkpt><trkpt lat="43.947744415560265" lon="12.561229024614398"><ele>130.0</ele><time>2026-05-01T14:47:22.787Z</time></trkpt><trkpt lat="43.94781989016266" lon="12.56135788221954"><ele>127.5</ele><time>2026-05-01T14:47:23.787Z</time></trkpt><trkpt lat="43.94789727455005" lon="12.561476102015577"><ele>125.0</ele><time>2026-05-01T14:47:24.787Z</time></trkpt><trkpt lat="43.947977931883194" lon="12.561594883784183"><ele>125.0</ele><time>2026-05-01T14:47:25.787Z</time></trkpt><trkpt lat="43.94805877539789" lon="12.561727267589387"><ele>125.0</ele><time>2026-05-01T14:47:26.786Z</time></trkpt><trkpt lat="43.94814114822369" lon="12.561851242049805"><ele>125.0</ele><time>2026-05-01T14:47:27.786Z</time></trkpt><trkpt lat="43.94822761274082" lon="12.561982485016918"><ele>125.0</ele><time>2026-05-01T14:47:28.786Z</time></trkpt><trkpt lat="43.94831553313707" lon="12.562120374344344"><ele>124.0</ele><time>2026-05-01T14:47:29.786Z</time></trkpt><trkpt lat="43.94840198493363" lon="12.562264829554396"><ele>123.0</ele><time>2026-05-01T14:47:30.786Z</time></trkpt><trkpt lat="43.94849715741899" lon="12.56240999726656"><ele>122.0</ele><time>2026-05-01T14:47:31.786Z</time></trkpt><trkpt lat="43.94859321312117" lon="12.562545525985996"><ele>121.0</ele><time>2026-05-01T14:47:32.786Z</time></trkpt><trkpt lat="43.94869330349451" lon="12.562678704247965"><ele>121.0</ele><time>2026-05-01T14:47:33.786Z</time></trkpt><trkpt lat="43.948801414474985" lon="12.56280442445266"><ele>121.0</ele><time>2026-05-01T14:47:34.786Z</time></trkpt><trkpt lat="43.948920052859" lon="12.562907757322817"><ele>121.0</ele><time>2026-05-01T14:47:35.786Z</time></trkpt><trkpt lat="43.949034700414224" lon="12.562989122951679"><ele>121.0</ele><time>2026-05-01T14:47:36.786Z</time></trkpt><trkpt lat="43.94914912321018" lon="12.563054804033749"><ele>120.5</ele><time>2026-05-01T14:47:37.786Z</time></trkpt><trkpt lat="43.94925806949385" lon="12.563129898237818"><ele>120.0</ele><time>2026-05-01T14:47:38.786Z</time></trkpt><trkpt lat="43.94935713573935" lon="12.563206032606242"><ele>119.5</ele><time>2026-05-01T14:47:39.786Z</time></trkpt><trkpt lat="43.9494593508638" lon="12.563286876353809"><ele>119.0</ele><time>2026-05-01T14:47:40.786Z</time></trkpt><trkpt lat="43.949565102949336" lon="12.56337057500282"><ele>119.0</ele><time>2026-05-01T14:47:41.786Z</time></trkpt><trkpt lat="43.949670288669104" lon="12.563461700851484"><ele>119.0</ele><time>2026-05-01T14:47:42.786Z</time></trkpt><trkpt lat="43.94977289565452" lon="12.563553590115216"><ele>119.0</ele><time>2026-05-01T14:47:43.786Z</time></trkpt><trkpt lat="43.9498734817636" lon="12.563641794144125"><ele>119.0</ele><time>2026-05-01T14:47:44.786Z</time></trkpt><trkpt lat="43.949976068521565" lon="12.56373428320352"><ele>118.25</ele><time>2026-05-01T14:47:45.786Z</time></trkpt><trkpt lat="43.95007540839226" lon="12.56383676111913"><ele>117.5</ele><time>2026-05-01T14:47:46.786Z</time></trkpt><trkpt lat="43.95017916478733" lon="12.563937987612976"><ele>116.75</ele><time>2026-05-01T14:47:47.786Z</time></trkpt><trkpt lat="43.950283057287926" lon="12.564045950586666"><ele>116.0</ele><time>2026-05-01T14:47:48.786Z</time></trkpt><trkpt lat="43.95039866731456" lon="12.564161226769327"><ele>116.0</ele><time>2026-05-01T14:47:49.786Z</time></trkpt><trkpt lat="43.95051845645815" lon="12.564282846350311"><ele>116.0</ele><time>2026-05-01T14:47:50.786Z</time></trkpt><trkpt lat="43.95064551291068" lon="12.56441516936138"><ele>116.0</ele><time>2026-05-01T14:47:51.786Z</time></trkpt><trkpt lat="43.9507666246366" lon="12.564550798112363"><ele>116.0</ele><time>2026-05-01T14:47:52.786Z</time></trkpt><trkpt lat="43.95088097107852" lon="12.564678422089328"><ele>116.0</ele><time>2026-05-01T14:47:53.786Z</time></trkpt><trkpt lat="43.95099885606663" lon="12.564797037870255"><ele>116.0</ele><time>2026-05-01T14:47:54.786Z</time></trkpt><trkpt lat="43.951124595750024" lon="12.564911067802953"><ele>116.0</ele><time>2026-05-01T14:47:55.786Z</time></trkpt><trkpt lat="43.95125810061127" lon="12.565012484790467"><ele>116.0</ele><time>2026-05-01T14:47:56.786Z</time></trkpt><trkpt lat="43.95139914514431" lon="12.565088878425666"><ele>116.0</ele><time>2026-05-01T14:47:57.786Z</time></trkpt><trkpt lat="43.95153944869995" lon="12.565162632737213"><ele>116.0</ele><time>2026-05-01T14:47:58.786Z</time></trkpt><trkpt lat="43.95167338248337" lon="12.565245116693507"><ele>116.0</ele><time>2026-05-01T14:47:59.786Z</time></trkpt><trkpt lat="43.95180475258831" lon="12.565334849350073"><ele>116.5</ele><time>2026-05-01T14:48:00.786Z</time></trkpt><trkpt lat="43.951927077210264" lon="12.565435997700513"><ele>117.0</ele><time>2026-05-01T14:48:01.786Z</time></trkpt><trkpt lat="43.952048829898764" lon="12.56555131338523"><ele>117.5</ele><time>2026-05-01T14:48:02.786Z</time></trkpt><trkpt lat="43.95215902564457" lon="12.565691692612846"><ele>118.0</ele><time>2026-05-01T14:48:03.786Z</time></trkpt><trkpt lat="43.952272552451056" lon="12.565860087336379"><ele>118.0</ele><time>2026-05-01T14:48:04.786Z</time></trkpt><trkpt lat="43.952386974772494" lon="12.566038466166674"><ele>118.0</ele><time>2026-05-01T14:48:05.786Z</time></trkpt><trkpt lat="43.952500950823506" lon="12.566248855312107"><ele>118.0</ele><time>2026-05-01T14:48:06.786Z</time></trkpt><trkpt lat="43.95260384022562" lon="12.566475838051673"><ele>118.0</ele><time>2026-05-01T14:48:07.786Z</time></trkpt><trkpt lat="43.9526799016315" lon="12.566692769819822"><ele>118.0</ele><time>2026-05-01T14:48:08.786Z</time></trkpt><trkpt lat="43.952759709535044" lon="12.566888941753431"><ele>118.0</ele><time>2026-05-01T14:48:09.786Z</time></trkpt><trkpt lat="43.952840102221444" lon="12.567079859669741"><ele>118.0</ele><time>2026-05-01T14:48:10.786Z</time></trkpt><trkpt lat="43.952935252677875" lon="12.567293815048702"><ele>118.0</ele><time>2026-05-01T14:48:11.786Z</time></trkpt><trkpt lat="43.9530275985884" lon="12.567518560994664"><ele>118.0</ele><time>2026-05-01T14:48:12.786Z</time></trkpt><trkpt lat="43.953111557080426" lon="12.567715104163817"><ele>117.5</ele><time>2026-05-01T14:48:13.786Z</time></trkpt><trkpt lat="43.95319680456389" lon="12.56789471394824"><ele>117.0</ele><time>2026-05-01T14:48:14.786Z</time></trkpt><trkpt lat="43.9532734831231" lon="12.568060287105874"><ele>116.5</ele><time>2026-05-01T14:48:15.786Z</time></trkpt><trkpt lat="43.953346971460775" lon="12.568224897051604"><ele>116.0</ele><time>2026-05-01T14:48:16.786Z</time></trkpt><trkpt lat="43.953418678078286" lon="12.5683949545698"><ele>116.0</ele><time>2026-05-01T14:48:17.786Z</time></trkpt><trkpt lat="43.953489433597056" lon="12.56856890382932"><ele>116.0</ele><time>2026-05-01T14:48:18.786Z</time></trkpt><trkpt lat="43.953569547794196" lon="12.568740305942892"><ele>116.0</ele><time>2026-05-01T14:48:19.786Z</time></trkpt><trkpt lat="43.95365455696291" lon="12.568920103685816"><ele>116.0</ele><time>2026-05-01T14:48:20.786Z</time></trkpt><trkpt lat="43.95374391075453" lon="12.569104737745215"><ele>118.0</ele><time>2026-05-01T14:48:21.786Z</time></trkpt><trkpt lat="43.95383994676506" lon="12.569283004765289"><ele>120.0</ele><time>2026-05-01T14:48:22.786Z</time></trkpt><trkpt lat="43.95396652236378" lon="12.56942531285346"><ele>122.0</ele><time>2026-05-01T14:48:23.786Z</time></trkpt><trkpt lat="43.95410272636868" lon="12.56954083645292"><ele>120.33333333333333</ele><time>2026-05-01T14:48:24.786Z</time></trkpt><trkpt lat="43.95425718179232" lon="12.569625899461467"><ele>118.66666666666666</ele><time>2026-05-01T14:48:25.786Z</time></trkpt><trkpt lat="43.954425423126736" lon="12.569704673987216"><ele>117.0</ele><time>2026-05-01T14:48:26.786Z</time></trkpt><trkpt lat="43.95458618679775" lon="12.569790228210383"><ele>117.0</ele><time>2026-05-01T14:48:27.786Z</time></trkpt><trkpt lat="43.95473684173981" lon="12.56986508066545"><ele>117.0</ele><time>2026-05-01T14:48:28.786Z</time></trkpt><trkpt lat="43.95488194576704" lon="12.56993834971561"><ele>117.0</ele><time>2026-05-01T14:48:29.786Z</time></trkpt><trkpt lat="43.955018176039495" lon="12.570008888919286"><ele>116.25</ele><time>2026-05-01T14:48:30.786Z</time></trkpt><trkpt lat="43.95515361710627" lon="12.570077734025652"><ele>115.5</ele><time>2026-05-01T14:48:31.785Z</time></trkpt><trkpt lat="43.95529386571666" lon="12.570153782219792"><ele>114.75</ele><time>2026-05-01T14:48:32.785Z</time></trkpt><trkpt lat="43.95543475873924" lon="12.5702285459141"><ele>114.0</ele><time>2026-05-01T14:48:33.785Z</time></trkpt><trkpt lat="43.9555762759665" lon="12.570294532613776"><ele>114.0</ele><time>2026-05-01T14:48:34.785Z</time></trkpt><trkpt lat="43.95571140060982" lon="12.570357309726372"><ele>114.0</ele><time>2026-05-01T14:48:35.785Z</time></trkpt><trkpt lat="43.9558399662979" lon="12.570415656697392"><ele>114.0</ele><time>2026-05-01T14:48:36.785Z</time></trkpt><trkpt lat="43.955968229913644" lon="12.570475690686282"><ele>114.0</ele><time>2026-05-01T14:48:37.785Z</time></trkpt><trkpt lat="43.95610228959855" lon="12.570529971219774"><ele>113.75</ele><time>2026-05-01T14:48:38.785Z</time></trkpt><trkpt lat="43.95623250805216" lon="12.57057990829694"><ele>113.5</ele><time>2026-05-01T14:48:39.785Z</time></trkpt><trkpt lat="43.95636348535566" lon="12.57063792221191"><ele>113.25</ele><time>2026-05-01T14:48:40.785Z</time></trkpt><trkpt lat="43.95650251007074" lon="12.570702466579615"><ele>113.0</ele><time>2026-05-01T14:48:41.785Z</time></trkpt><trkpt lat="43.95665037475695" lon="12.570808533682522"><ele>112.66666666666666</ele><time>2026-05-01T14:48:42.785Z</time></trkpt><trkpt lat="43.956790291232764" lon="12.570911462676024"><ele>112.33333333333334</ele><time>2026-05-01T14:48:43.785Z</time></trkpt><trkpt lat="43.95692521874357" lon="12.57101414631051"><ele>112.0</ele><time>2026-05-01T14:48:44.785Z</time></trkpt><trkpt lat="43.95705012071195" lon="12.571120311433061"><ele>110.25</ele><time>2026-05-01T14:48:45.785Z</time></trkpt><trkpt lat="43.957166766678476" lon="12.571229297434876"><ele>108.5</ele><time>2026-05-01T14:48:46.785Z</time></trkpt><trkpt lat="43.95727887500613" lon="12.571341433865381"><ele>106.75</ele><time>2026-05-01T14:48:47.785Z</time></trkpt><trkpt lat="43.9573871585669" lon="12.571447269992023"><ele>105.0</ele><time>2026-05-01T14:48:48.785Z</time></trkpt><trkpt lat="43.95749115536088" lon="12.571550245244733"><ele>105.0</ele><time>2026-05-01T14:48:49.785Z</time></trkpt><trkpt lat="43.957595345123075" lon="12.57164394468253"><ele>105.0</ele><time>2026-05-01T14:48:50.785Z</time></trkpt><trkpt lat="43.957699951099784" lon="12.571727994527778"><ele>105.0</ele><time>2026-05-01T14:48:51.785Z</time></trkpt><trkpt lat="43.95780484967609" lon="12.571805665572045"><ele>105.0</ele><time>2026-05-01T14:48:52.785Z</time></trkpt><trkpt lat="43.9579135912593" lon="12.57187665104954"><ele>105.0</ele><time>2026-05-01T14:48:53.785Z</time></trkpt><trkpt lat="43.95802754410438" lon="12.57193694276328"><ele>105.0</ele><time>2026-05-01T14:48:54.785Z</time></trkpt><trkpt lat="43.958141066404494" lon="12.571978013301758"><ele>105.0</ele><time>2026-05-01T14:48:55.785Z</time></trkpt><trkpt lat="43.958248958471366" lon="12.572018733272413"><ele>105.0</ele><time>2026-05-01T14:48:56.785Z</time></trkpt><trkpt lat="43.9583553605832" lon="12.572052954740057"><ele>102.8</ele><time>2026-05-01T14:48:57.785Z</time></trkpt><trkpt lat="43.958457960866305" lon="12.57208602117481"><ele>100.6</ele><time>2026-05-01T14:48:58.785Z</time></trkpt><trkpt lat="43.95855478089827" lon="12.572114709950233"><ele>98.4</ele><time>2026-05-01T14:48:59.785Z</time></trkpt><trkpt lat="43.95865880772311" lon="12.57214676233747"><ele>96.2</ele><time>2026-05-01T14:49:00.785Z</time></trkpt><trkpt lat="43.95877196232317" lon="12.572171826019424"><ele>94.0</ele><time>2026-05-01T14:49:01.785Z</time></trkpt><trkpt lat="43.958887380602924" lon="12.572184757275533"><ele>94.0</ele><time>2026-05-01T14:49:02.785Z</time></trkpt><trkpt lat="43.959003482962366" lon="12.572204446243168"><ele>94.0</ele><time>2026-05-01T14:49:03.785Z</time></trkpt><trkpt lat="43.9591198811369" lon="12.572216684524058"><ele>94.0</ele><time>2026-05-01T14:49:04.785Z</time></trkpt><trkpt lat="43.959235676838894" lon="12.572220580160677"><ele>94.0</ele><time>2026-05-01T14:49:05.785Z</time></trkpt><trkpt lat="43.95934945874224" lon="12.572210225078814"><ele>94.5</ele><time>2026-05-01T14:49:06.785Z</time></trkpt><trkpt lat="43.95945954079409" lon="12.572192258111864"><ele>95.0</ele><time>2026-05-01T14:49:07.785Z</time></trkpt><trkpt lat="43.95957120707146" lon="12.572179486703313"><ele>95.5</ele><time>2026-05-01T14:49:08.785Z</time></trkpt><trkpt lat="43.959692796268776" lon="12.572164145939528"><ele>96.0</ele><time>2026-05-01T14:49:09.785Z</time></trkpt><trkpt lat="43.959829496746735" lon="12.57215510010322"><ele>96.0</ele><time>2026-05-01T14:49:10.785Z</time></trkpt><trkpt lat="43.959982915697296" lon="12.572166783120927"><ele>96.0</ele><time>2026-05-01T14:49:11.785Z</time></trkpt><trkpt lat="43.960160995144925" lon="12.572223895985159"><ele>96.0</ele><time>2026-05-01T14:49:12.785Z</time></trkpt><trkpt lat="43.96034589623864" lon="12.572323385068787"><ele>97.66666666666666</ele><time>2026-05-01T14:49:13.785Z</time></trkpt><trkpt lat="43.96053835148172" lon="12.57245311940058"><ele>99.33333333333333</ele><time>2026-05-01T14:49:14.785Z</time></trkpt><trkpt lat="43.96073218623865" lon="12.572582740979367"><ele>101.0</ele><time>2026-05-01T14:49:15.785Z</time></trkpt><trkpt lat="43.9609368257863" lon="12.57273539301445"><ele>101.0</ele><time>2026-05-01T14:49:16.784Z</time></trkpt><trkpt lat="43.96114903454528" lon="12.572903820379105"><ele>101.0</ele><time>2026-05-01T14:49:17.784Z</time></trkpt><trkpt lat="43.96134640979197" lon="12.573073124140302"><ele>101.0</ele><time>2026-05-01T14:49:18.784Z</time></trkpt><trkpt lat="43.961541874473106" lon="12.573269991484219"><ele>101.0</ele><time>2026-05-01T14:49:19.784Z</time></trkpt><trkpt lat="43.96172434646856" lon="12.573483463322033"><ele>101.33333333333333</ele><time>2026-05-01T14:49:20.784Z</time></trkpt><trkpt lat="43.96188118295437" lon="12.573670947139224"><ele>101.66666666666666</ele><time>2026-05-01T14:49:21.784Z</time></trkpt><trkpt lat="43.96203027718734" lon="12.573825524659856"><ele>102.0</ele><time>2026-05-01T14:49:22.784Z</time></trkpt><trkpt lat="43.962176975740064" lon="12.573933490236959"><ele>102.0</ele><time>2026-05-01T14:49:23.784Z</time></trkpt><trkpt lat="43.962320047301645" lon="12.573997845675583"><ele>102.0</ele><time>2026-05-01T14:49:24.784Z</time></trkpt><trkpt lat="43.96245748127529" lon="12.574036296533608"><ele>102.0</ele><time>2026-05-01T14:49:25.784Z</time></trkpt><trkpt lat="43.96261269474395" lon="12.57404599416012"><ele>102.0</ele><time>2026-05-01T14:49:26.784Z</time></trkpt><trkpt lat="43.962794870803485" lon="12.574033328819121"><ele>101.33333333333334</ele><time>2026-05-01T14:49:27.784Z</time></trkpt><trkpt lat="43.96297773137903" lon="12.574005390089477"><ele>100.66666666666667</ele><time>2026-05-01T14:49:28.784Z</time></trkpt><trkpt lat="43.963146942569196" lon="12.57400034451992"><ele>100.0</ele><time>2026-05-01T14:49:29.784Z</time></trkpt><trkpt lat="43.96330370577887" lon="12.574023617347857"><ele>98.66666666666667</ele><time>2026-05-01T14:49:30.784Z</time></trkpt><trkpt lat="43.963454863407605" lon="12.574078115231432"><ele>97.33333333333334</ele><time>2026-05-01T14:49:31.784Z</time></trkpt><trkpt lat="43.963603036789095" lon="12.57417733373071"><ele>96.0</ele><time>2026-05-01T14:49:32.784Z</time></trkpt><trkpt lat="43.963760508225135" lon="12.574256246385186"><ele>96.0</ele><time>2026-05-01T14:49:33.784Z</time></trkpt><trkpt lat="43.963912151571854" lon="12.57436790076166"><ele>96.0</ele><time>2026-05-01T14:49:34.784Z</time></trkpt><trkpt lat="43.96406722857928" lon="12.574458098898273"><ele>96.0</ele><time>2026-05-01T14:49:35.784Z</time></trkpt><trkpt lat="43.96422051064909" lon="12.57454193075476"><ele>95.0</ele><time>2026-05-01T14:49:36.784Z</time></trkpt><trkpt lat="43.964370142689695" lon="12.574627364485142"><ele>94.0</ele><time>2026-05-01T14:49:37.784Z</time></trkpt><trkpt lat="43.964519767072105" lon="12.574714162746163"><ele>93.0</ele><time>2026-05-01T14:49:38.784Z</time></trkpt><trkpt lat="43.96467221357629" lon="12.57478852862516"><ele>93.0</ele><time>2026-05-01T14:49:39.784Z</time></trkpt><trkpt lat="43.96482185723858" lon="12.57485787536873"><ele>93.0</ele><time>2026-05-01T14:49:40.784Z</time></trkpt><trkpt lat="43.964968017562576" lon="12.574908058261784"><ele>93.0</ele><time>2026-05-01T14:49:41.784Z</time></trkpt><trkpt lat="43.965132437962396" lon="12.574938824407635"><ele>91.66666666666667</ele><time>2026-05-01T14:49:42.784Z</time></trkpt><trkpt lat="43.96530990743713" lon="12.574932003173199"><ele>90.33333333333334</ele><time>2026-05-01T14:49:43.784Z</time></trkpt><trkpt lat="43.965484389201784" lon="12.574885124277502"><ele>89.0</ele><time>2026-05-01T14:49:44.784Z</time></trkpt><trkpt lat="43.965638287021065" lon="12.574845552494077"><ele>89.0</ele><time>2026-05-01T14:49:45.784Z</time></trkpt><trkpt lat="43.965794124455115" lon="12.574831361155516"><ele>89.0</ele><time>2026-05-01T14:49:46.784Z</time></trkpt><trkpt lat="43.96593568861661" lon="12.574828784692253"><ele>89.0</ele><time>2026-05-01T14:49:47.784Z</time></trkpt><trkpt lat="43.96607099337454" lon="12.574828429488557"><ele>89.0</ele><time>2026-05-01T14:49:48.784Z</time></trkpt><trkpt lat="43.96620360188248" lon="12.574858371434528"><ele>85.33333333333334</ele><time>2026-05-01T14:49:49.784Z</time></trkpt><trkpt lat="43.9663426290872" lon="12.574923595432306"><ele>81.66666666666667</ele><time>2026-05-01T14:49:50.784Z</time></trkpt><trkpt lat="43.9664994647951" lon="12.574997565715526"><ele>78.0</ele><time>2026-05-01T14:49:51.784Z</time></trkpt><trkpt lat="43.96665109868234" lon="12.575073247401814"><ele>76.33333333333333</ele><time>2026-05-01T14:49:52.784Z</time></trkpt><trkpt lat="43.9668048918789" lon="12.575151395672913"><ele>74.66666666666666</ele><time>2026-05-01T14:49:53.784Z</time></trkpt><trkpt lat="43.96696230585743" lon="12.575230081587897"><ele>73.0</ele><time>2026-05-01T14:49:54.784Z</time></trkpt><trkpt lat="43.96714091577337" lon="12.575282288290584"><ele>73.0</ele><time>2026-05-01T14:49:55.784Z</time></trkpt><trkpt lat="43.96734676731602" lon="12.575304582606103"><ele>73.0</ele><time>2026-05-01T14:49:56.784Z</time></trkpt><trkpt lat="43.967547725421745" lon="12.575307407445981"><ele>73.0</ele><time>2026-05-01T14:49:57.784Z</time></trkpt><trkpt lat="43.96773668606174" lon="12.575291821320945"><ele>70.66666666666666</ele><time>2026-05-01T14:49:58.784Z</time></trkpt><trkpt lat="43.96791702083612" lon="12.575285466177768"><ele>68.33333333333333</ele><time>2026-05-01T14:49:59.784Z</time></trkpt><trkpt lat="43.968088447038554" lon="12.575283311250441"><ele>66.0</ele><time>2026-05-01T14:50:00.784Z</time></trkpt><trkpt lat="43.96825818655409" lon="12.575286865545282"><ele>64.25</ele><time>2026-05-01T14:50:01.784Z</time></trkpt><trkpt lat="43.96841723666954" lon="12.575294185281834"><ele>62.5</ele><time>2026-05-01T14:50:02.784Z</time></trkpt><trkpt lat="43.96856651323913" lon="12.575304879453153"><ele>60.75</ele><time>2026-05-01T14:50:03.784Z</time></trkpt><trkpt lat="43.96869185418824" lon="12.575313055658224"><ele>59.0</ele><time>2026-05-01T14:50:04.784Z</time></trkpt><trkpt lat="43.968830167287614" lon="12.575335543375578"><ele>59.66666666666667</ele><time>2026-05-01T14:50:05.784Z</time></trkpt><trkpt lat="43.96896996651348" lon="12.575383113071277"><ele>60.33333333333333</ele><time>2026-05-01T14:50:06.709Z</time></trkpt><trkpt lat="43.969111188928295" lon="12.575495418304609"><ele>61.0</ele><time>2026-05-01T14:50:07.709Z</time></trkpt><trkpt lat="43.9692352813822" lon="12.575605467524262"><ele>61.0</ele><time>2026-05-01T14:50:08.709Z</time></trkpt><trkpt lat="43.96935009832486" lon="12.57570082113711"><ele>61.0</ele><time>2026-05-01T14:50:09.709Z</time></trkpt><trkpt lat="43.969467301205434" lon="12.575763953145602"><ele>61.0</ele><time>2026-05-01T14:50:10.709Z</time></trkpt><trkpt lat="43.969587196418395" lon="12.575820060253433"><ele>61.0</ele><time>2026-05-01T14:50:11.709Z</time></trkpt><trkpt lat="43.96971077822265" lon="12.57587947523773"><ele>61.0</ele><time>2026-05-01T14:50:12.709Z</time></trkpt><trkpt lat="43.96983458921513" lon="12.575940513075512"><ele>61.0</ele><time>2026-05-01T14:50:13.709Z</time></trkpt><trkpt lat="43.969961805308074" lon="12.57599076412204"><ele>61.0</ele><time>2026-05-01T14:50:14.709Z</time></trkpt><trkpt lat="43.97008877024185" lon="12.576044710327563"><ele>61.0</ele><time>2026-05-01T14:50:15.709Z</time></trkpt><trkpt lat="43.97021443476498" lon="12.576096345829626"><ele>60.75</ele><time>2026-05-01T14:50:16.709Z</time></trkpt><trkpt lat="43.97034329456734" lon="12.57615294242108"><ele>60.5</ele><time>2026-05-01T14:50:17.709Z</time></trkpt><trkpt lat="43.970473068775675" lon="12.576206166702294"><ele>60.25</ele><time>2026-05-01T14:50:18.709Z</time></trkpt><trkpt lat="43.97060026431608" lon="12.57625189146412"><ele>60.0</ele><time>2026-05-01T14:50:19.709Z</time></trkpt><trkpt lat="43.970727439751485" lon="12.57629753988989"><ele>60.0</ele><time>2026-05-01T14:50:20.709Z</time></trkpt><trkpt lat="43.970852725965145" lon="12.576350744615102"><ele>60.0</ele><time>2026-05-01T14:50:21.709Z</time></trkpt><trkpt lat="43.97097213132416" lon="12.576396342111087"><ele>60.0</ele><time>2026-05-01T14:50:22.709Z</time></trkpt><trkpt lat="43.971083615360655" lon="12.57643906967593"><ele>60.0</ele><time>2026-05-01T14:50:23.709Z</time></trkpt><trkpt lat="43.97119522579155" lon="12.576490885780046"><ele>59.0</ele><time>2026-05-01T14:50:24.709Z</time></trkpt><trkpt lat="43.97131522859674" lon="12.57653445492855"><ele>58.0</ele><time>2026-05-01T14:50:25.709Z</time></trkpt><trkpt lat="43.971443203622364" lon="12.576585901889802"><ele>57.0</ele><time>2026-05-01T14:50:26.709Z</time></trkpt><trkpt lat="43.971579007517924" lon="12.576628027180046"><ele>56.0</ele><time>2026-05-01T14:50:27.709Z</time></trkpt><trkpt lat="43.971713477872385" lon="12.576666889885612"><ele>56.0</ele><time>2026-05-01T14:50:28.709Z</time></trkpt><trkpt lat="43.97185876263705" lon="12.576675573607146"><ele>56.0</ele><time>2026-05-01T14:50:29.708Z</time></trkpt><trkpt lat="43.97200063446184" lon="12.576673336098423"><ele>56.0</ele><time>2026-05-01T14:50:30.708Z</time></trkpt><trkpt lat="43.9721395991933" lon="12.576660242188506"><ele>56.0</ele><time>2026-05-01T14:50:31.708Z</time></trkpt><trkpt lat="43.97227358255133" lon="12.576650304019509"><ele>56.0</ele><time>2026-05-01T14:50:32.708Z</time></trkpt><trkpt lat="43.97240142099278" lon="12.576636682444436"><ele>56.0</ele><time>2026-05-01T14:50:33.708Z</time></trkpt><trkpt lat="43.972517412259656" lon="12.576619782690374"><ele>56.0</ele><time>2026-05-01T14:50:34.708Z</time></trkpt><trkpt lat="43.972641141362736" lon="12.576602414776227"><ele>56.0</ele><time>2026-05-01T14:50:35.708Z</time></trkpt><trkpt lat="43.972784795732345" lon="12.57656609578332"><ele>55.333333333333336</ele><time>2026-05-01T14:50:36.708Z</time></trkpt><trkpt lat="43.972948376232985" lon="12.576546966239428"><ele>54.66666666666667</ele><time>2026-05-01T14:50:37.708Z</time></trkpt><trkpt lat="43.973125488041255" lon="12.576542479897668"><ele>54.0</ele><time>2026-05-01T14:50:38.708Z</time></trkpt><trkpt lat="43.97328822953345" lon="12.576536808895783"><ele>54.25</ele><time>2026-05-01T14:50:39.708Z</time></trkpt><trkpt lat="43.973440044101736" lon="12.576524718655264"><ele>54.5</ele><time>2026-05-01T14:50:40.707Z</time></trkpt><trkpt lat="43.97358558727428" lon="12.57650299453403"><ele>54.75</ele><time>2026-05-01T14:50:41.707Z</time></trkpt><trkpt lat="43.97372814969672" lon="12.57647937323239"><ele>55.0</ele><time>2026-05-01T14:50:42.707Z</time></trkpt><trkpt lat="43.97387346403196" lon="12.576468229822785"><ele>55.0</ele><time>2026-05-01T14:50:43.707Z</time></trkpt><trkpt lat="43.974023532904724" lon="12.576444658114227"><ele>55.0</ele><time>2026-05-01T14:50:44.707Z</time></trkpt><trkpt lat="43.97416662650162" lon="12.576413066880576"><ele>55.0</ele><time>2026-05-01T14:50:45.707Z</time></trkpt><trkpt lat="43.974304593990716" lon="12.576383074142976"><ele>55.0</ele><time>2026-05-01T14:50:46.707Z</time></trkpt><trkpt lat="43.9744442570714" lon="12.5763580700254"><ele>54.666666666666664</ele><time>2026-05-01T14:50:47.707Z</time></trkpt><trkpt lat="43.97458323918973" lon="12.576329908654108"><ele>54.33333333333333</ele><time>2026-05-01T14:50:48.707Z</time></trkpt><trkpt lat="43.97472823409946" lon="12.576293657555714"><ele>54.0</ele><time>2026-05-01T14:50:49.706Z</time></trkpt><trkpt lat="43.97489384731803" lon="12.576238811617939"><ele>53.33333333333333</ele><time>2026-05-01T14:50:50.706Z</time></trkpt><trkpt lat="43.97508510273395" lon="12.57618056328903"><ele>52.666666666666664</ele><time>2026-05-01T14:50:51.706Z</time></trkpt><trkpt lat="43.97529811490425" lon="12.576114830892262"><ele>52.0</ele><time>2026-05-01T14:50:52.706Z</time></trkpt><trkpt lat="43.975522721175" lon="12.576053431546846"><ele>52.0</ele><time>2026-05-01T14:50:53.707Z</time></trkpt><trkpt lat="43.97573160933538" lon="12.576001743336395"><ele>52.0</ele><time>2026-05-01T14:50:54.707Z</time></trkpt><trkpt lat="43.97592975005688" lon="12.575946181458644"><ele>52.0</ele><time>2026-05-01T14:50:55.707Z</time></trkpt><trkpt lat="43.97611697312358" lon="12.575897897032863"><ele>51.666666666666664</ele><time>2026-05-01T14:50:56.707Z</time></trkpt><trkpt lat="43.976299202098645" lon="12.575854599555749"><ele>51.33333333333333</ele><time>2026-05-01T14:50:57.707Z</time></trkpt><trkpt lat="43.97647082292486" lon="12.575809978693554"><ele>51.0</ele><time>2026-05-01T14:50:58.706Z</time></trkpt><trkpt lat="43.97663480526364" lon="12.575763317729969"><ele>50.66666666666667</ele><time>2026-05-01T14:50:59.706Z</time></trkpt><trkpt lat="43.97679954952215" lon="12.575705348469794"><ele>50.333333333333336</ele><time>2026-05-01T14:51:00.706Z</time></trkpt><trkpt lat="43.976966982143736" lon="12.575634927306911"><ele>50.0</ele><time>2026-05-01T14:51:01.706Z</time></trkpt><trkpt lat="43.9771404452589" lon="12.575549408982734"><ele>50.0</ele><time>2026-05-01T14:51:02.706Z</time></trkpt><trkpt lat="43.9773102496229" lon="12.575453972587916"><ele>50.0</ele><time>2026-05-01T14:51:03.706Z</time></trkpt><trkpt lat="43.97746444379763" lon="12.57535000888788"><ele>50.0</ele><time>2026-05-01T14:51:04.706Z</time></trkpt><trkpt lat="43.97760697627206" lon="12.575246665283522"><ele>49.333333333333336</ele><time>2026-05-01T14:51:05.706Z</time></trkpt><trkpt lat="43.97773686022962" lon="12.57513251638374"><ele>48.66666666666667</ele><time>2026-05-01T14:51:06.706Z</time></trkpt><trkpt lat="43.97786494476411" lon="12.575021383230974"><ele>48.0</ele><time>2026-05-01T14:51:07.706Z</time></trkpt><trkpt lat="43.9779928049133" lon="12.574892192777504"><ele>48.0</ele><time>2026-05-01T14:51:08.706Z</time></trkpt><trkpt lat="43.97812320693819" lon="12.57474495367284"><ele>48.0</ele><time>2026-05-01T14:51:09.706Z</time></trkpt><trkpt lat="43.97825545407656" lon="12.57455085314395"><ele>48.0</ele><time>2026-05-01T14:51:10.706Z</time></trkpt><trkpt lat="43.978402166097936" lon="12.574348721052672"><ele>47.333333333333336</ele><time>2026-05-01T14:51:11.706Z</time></trkpt><trkpt lat="43.97854727138436" lon="12.574154148946212"><ele>46.66666666666667</ele><time>2026-05-01T14:51:12.706Z</time></trkpt><trkpt lat="43.97868687463739" lon="12.573975296834341"><ele>46.0</ele><time>2026-05-01T14:51:13.706Z</time></trkpt><trkpt lat="43.97881804074805" lon="12.573813010574028"><ele>46.0</ele><time>2026-05-01T14:51:14.706Z</time></trkpt><trkpt lat="43.978948072405615" lon="12.573657923745198"><ele>46.0</ele><time>2026-05-01T14:51:15.706Z</time></trkpt><trkpt lat="43.97906815228168" lon="12.57350688804461"><ele>46.0</ele><time>2026-05-01T14:51:16.706Z</time></trkpt><trkpt lat="43.97917924408038" lon="12.573358231746706"><ele>45.0</ele><time>2026-05-01T14:51:17.706Z</time></trkpt><trkpt lat="43.97927964184262" lon="12.573211924541265"><ele>44.0</ele><time>2026-05-01T14:51:18.706Z</time></trkpt><trkpt lat="43.97938578004167" lon="12.573071827740419"><ele>43.0</ele><time>2026-05-01T14:51:19.706Z</time></trkpt><trkpt lat="43.979490067046335" lon="12.572941940531297"><ele>42.0</ele><time>2026-05-01T14:51:20.706Z</time></trkpt><trkpt lat="43.97959346063581" lon="12.572817738911764"><ele>41.25</ele><time>2026-05-01T14:51:21.706Z</time></trkpt><trkpt lat="43.97969138246393" lon="12.572694963568102"><ele>40.5</ele><time>2026-05-01T14:51:22.706Z</time></trkpt><trkpt lat="43.97978681750247" lon="12.57257283997914"><ele>39.75</ele><time>2026-05-01T14:51:23.706Z</time></trkpt><trkpt lat="43.979880785384" lon="12.572454937948448"><ele>39.0</ele><time>2026-05-01T14:51:24.706Z</time></trkpt><trkpt lat="43.97997095691725" lon="12.572341974267188"><ele>38.25</ele><time>2026-05-01T14:51:25.706Z</time></trkpt><trkpt lat="43.98005659515141" lon="12.572232468100276"><ele>37.5</ele><time>2026-05-01T14:51:26.706Z</time></trkpt><trkpt lat="43.98013419877573" lon="12.572121260493242"><ele>36.75</ele><time>2026-05-01T14:51:27.706Z</time></trkpt><trkpt lat="43.9802260751255" lon="12.572026841474502"><ele>36.0</ele><time>2026-05-01T14:51:28.706Z</time></trkpt><trkpt lat="43.98031101304507" lon="12.571913068222692"><ele>36.0</ele><time>2026-05-01T14:51:29.706Z</time></trkpt><trkpt lat="43.9804025069754" lon="12.571790513238154"><ele>36.0</ele><time>2026-05-01T14:51:30.706Z</time></trkpt><trkpt lat="43.9804914975749" lon="12.571671444898024"><ele>36.0</ele><time>2026-05-01T14:51:31.706Z</time></trkpt><trkpt lat="43.98057339855127" lon="12.571561992901582"><ele>36.0</ele><time>2026-05-01T14:51:32.706Z</time></trkpt><trkpt lat="43.980656995263196" lon="12.571454257924547"><ele>36.0</ele><time>2026-05-01T14:51:33.705Z</time></trkpt><trkpt lat="43.98073430488561" lon="12.57135821339752"><ele>36.0</ele><time>2026-05-01T14:51:34.705Z</time></trkpt><trkpt lat="43.98080515426677" lon="12.571272385673206"><ele>36.0</ele><time>2026-05-01T14:51:35.705Z</time></trkpt><trkpt lat="43.98087491487232" lon="12.571194593789402"><ele>36.0</ele><time>2026-05-01T14:51:36.705Z</time></trkpt><trkpt lat="43.980943005897906" lon="12.571127226009741"><ele>36.0</ele><time>2026-05-01T14:51:37.705Z</time></trkpt><trkpt lat="43.98100098457442" lon="12.571076702000049"><ele>36.0</ele><time>2026-05-01T14:51:38.705Z</time></trkpt><trkpt lat="43.98111519820436" lon="12.570995392395826"><ele>36.166666666666664</ele><time>2026-05-01T14:51:40.705Z</time></trkpt><trkpt lat="43.981175623910566" lon="12.570959596182643"><ele>36.333333333333336</ele><time>2026-05-01T14:51:41.705Z</time></trkpt><trkpt lat="43.981267000979194" lon="12.570916950333668"><ele>36.5</ele><time>2026-05-01T14:51:43.705Z</time></trkpt><trkpt lat="43.98134576774879" lon="12.57088471318938"><ele>36.66666666666667</ele><time>2026-05-01T14:51:45.705Z</time></trkpt><trkpt lat="43.98147048470989" lon="12.57082257849964"><ele>36.833333333333336</ele><time>2026-05-01T14:51:47.705Z</time></trkpt><trkpt lat="43.981535966367126" lon="12.570793365535287"><ele>37.0</ele><time>2026-05-01T14:51:48.705Z</time></trkpt><trkpt lat="43.98160013696423" lon="12.57076865368391"><ele>37.0</ele><time>2026-05-01T14:51:49.705Z</time></trkpt><trkpt lat="43.981661892070036" lon="12.570742628007824"><ele>37.0</ele><time>2026-05-01T14:51:50.705Z</time></trkpt><trkpt lat="43.98172234417955" lon="12.570717450234161"><ele>37.0</ele><time>2026-05-01T14:51:51.705Z</time></trkpt><trkpt lat="43.98178921248417" lon="12.570685778662174"><ele>37.0</ele><time>2026-05-01T14:51:52.705Z</time></trkpt><trkpt lat="43.98186732027304" lon="12.570648134183937"><ele>37.0</ele><time>2026-05-01T14:51:53.705Z</time></trkpt><trkpt lat="43.98195477267477" lon="12.570606350825612"><ele>37.0</ele><time>2026-05-01T14:51:54.705Z</time></trkpt><trkpt lat="43.98204698515704" lon="12.570567724724869"><ele>37.8</ele><time>2026-05-01T14:51:55.705Z</time></trkpt><trkpt lat="43.982145126858825" lon="12.570530179184077"><ele>38.6</ele><time>2026-05-01T14:51:56.705Z</time></trkpt><trkpt lat="43.98225780206483" lon="12.570505118852545"><ele>39.4</ele><time>2026-05-01T14:51:57.705Z</time></trkpt><trkpt lat="43.98236667755605" lon="12.570493919645997"><ele>40.199999999999996</ele><time>2026-05-01T14:51:58.705Z</time></trkpt><trkpt lat="43.982465288441404" lon="12.570488383986335"><ele>41.0</ele><time>2026-05-01T14:51:59.705Z</time></trkpt><trkpt lat="43.98255815784172" lon="12.57048101395102"><ele>41.33333333333333</ele><time>2026-05-01T14:52:00.705Z</time></trkpt><trkpt lat="43.982644754323445" lon="12.570473386251129"><ele>41.666666666666664</ele><time>2026-05-01T14:52:01.705Z</time></trkpt><trkpt lat="43.982734028356916" lon="12.570457641917347"><ele>42.0</ele><time>2026-05-01T14:52:02.705Z</time></trkpt><trkpt lat="43.98281925975357" lon="12.570474867042243"><ele>42.333333333333336</ele><time>2026-05-01T14:52:03.705Z</time></trkpt><trkpt lat="43.98290031961965" lon="12.570449675644005"><ele>42.66666666666667</ele><time>2026-05-01T14:52:04.705Z</time></trkpt><trkpt lat="43.982981755964296" lon="12.570446522613835"><ele>43.0</ele><time>2026-05-01T14:52:05.705Z</time></trkpt><trkpt lat="43.983055945138865" lon="12.570456028337853"><ele>43.0</ele><time>2026-05-01T14:52:06.705Z</time></trkpt><trkpt lat="43.98311902547171" lon="12.570454596687728"><ele>43.0</ele><time>2026-05-01T14:52:07.705Z</time></trkpt><trkpt lat="43.98322266228318" lon="12.570440845334934"><ele>43.0</ele><time>2026-05-01T14:52:09.704Z</time></trkpt><trkpt lat="43.983319675346955" lon="12.57042366578265"><ele>43.0</ele><time>2026-05-01T14:52:11.704Z</time></trkpt><trkpt lat="43.98339045372779" lon="12.57039552935378"><ele>43.0</ele><time>2026-05-01T14:52:13.704Z</time></trkpt><trkpt lat="43.98346525441937" lon="12.570362584463846"><ele>43.0</ele><time>2026-05-01T14:52:16.704Z</time></trkpt><trkpt lat="43.98355177387339" lon="12.570325191943905"><ele>43.4</ele><time>2026-05-01T14:52:18.704Z</time></trkpt><trkpt lat="43.98363362773643" lon="12.570291149890915"><ele>43.8</ele><time>2026-05-01T14:52:20.704Z</time></trkpt><trkpt lat="43.98375431251528" lon="12.570260384032357"><ele>44.2</ele><time>2026-05-01T14:52:22.704Z</time></trkpt><trkpt lat="43.98384350032584" lon="12.570204612454678"><ele>44.6</ele><time>2026-05-01T14:52:23.704Z</time></trkpt><trkpt lat="43.98393086927383" lon="12.570159551763366"><ele>45.0</ele><time>2026-05-01T14:52:24.704Z</time></trkpt><trkpt lat="43.98401086435452" lon="12.570157752888546"><ele>45.0</ele><time>2026-05-01T14:52:25.704Z</time></trkpt><trkpt lat="43.98411322171879" lon="12.570179181909609"><ele>45.0</ele><time>2026-05-01T14:52:26.704Z</time></trkpt><trkpt lat="43.98422634591709" lon="12.57017011671408"><ele>45.0</ele><time>2026-05-01T14:52:27.704Z</time></trkpt><trkpt lat="43.98434936878915" lon="12.570167158505386"><ele>45.0</ele><time>2026-05-01T14:52:28.704Z</time></trkpt><trkpt lat="43.984459390131576" lon="12.570156694776108"><ele>45.2</ele><time>2026-05-01T14:52:29.704Z</time></trkpt><trkpt lat="43.984561649853454" lon="12.570155171978808"><ele>45.4</ele><time>2026-05-01T14:52:30.704Z</time></trkpt><trkpt lat="43.98466070895947" lon="12.570153584136248"><ele>45.599999999999994</ele><time>2026-05-01T14:52:31.704Z</time></trkpt><trkpt lat="43.98475565870084" lon="12.570145269797312"><ele>45.8</ele><time>2026-05-01T14:52:32.704Z</time></trkpt><trkpt lat="43.98484682209615" lon="12.570150327381796"><ele>46.0</ele><time>2026-05-01T14:52:33.704Z</time></trkpt><trkpt lat="43.98494272931047" lon="12.570162097293062"><ele>45.8</ele><time>2026-05-01T14:52:34.704Z</time></trkpt><trkpt lat="43.98504175904572" lon="12.570169330250494"><ele>45.599999999999994</ele><time>2026-05-01T14:52:35.704Z</time></trkpt><trkpt lat="43.98513691244756" lon="12.57017995789849"><ele>45.4</ele><time>2026-05-01T14:52:36.704Z</time></trkpt><trkpt lat="43.98523484821927" lon="12.570190965320245"><ele>45.2</ele><time>2026-05-01T14:52:37.704Z</time></trkpt><trkpt lat="43.98533939692926" lon="12.570212618982845"><ele>45.0</ele><time>2026-05-01T14:52:38.704Z</time></trkpt><trkpt lat="43.985447696540405" lon="12.570231647423304"><ele>45.0</ele><time>2026-05-01T14:52:39.704Z</time></trkpt><trkpt lat="43.98556861069216" lon="12.570255594590304"><ele>45.0</ele><time>2026-05-01T14:52:40.704Z</time></trkpt><trkpt lat="43.985692086889884" lon="12.570280147426383"><ele>45.0</ele><time>2026-05-01T14:52:41.704Z</time></trkpt><trkpt lat="43.98582053254715" lon="12.57031543489297"><ele>45.0</ele><time>2026-05-01T14:52:42.704Z</time></trkpt><trkpt lat="43.985958729293195" lon="12.570368835088226"><ele>44.75</ele><time>2026-05-01T14:52:43.703Z</time></trkpt><trkpt lat="43.98610214714323" lon="12.570419042828487"><ele>44.5</ele><time>2026-05-01T14:52:44.703Z</time></trkpt><trkpt lat="43.986238353932265" lon="12.570469365069044"><ele>44.25</ele><time>2026-05-01T14:52:45.703Z</time></trkpt><trkpt lat="43.98638065021031" lon="12.570533198966782"><ele>44.0</ele><time>2026-05-01T14:52:46.701Z</time></trkpt><trkpt lat="43.986518873328464" lon="12.570605906115127"><ele>44.0</ele><time>2026-05-01T14:52:47.701Z</time></trkpt><trkpt lat="43.98664801533932" lon="12.570676795707628"><ele>44.0</ele><time>2026-05-01T14:52:48.701Z</time></trkpt><trkpt lat="43.98676625903419" lon="12.57076284800734"><ele>44.0</ele><time>2026-05-01T14:52:49.701Z</time></trkpt><trkpt lat="43.986889702539976" lon="12.570859628254762"><ele>44.0</ele><time>2026-05-01T14:52:50.701Z</time></trkpt><trkpt lat="43.98701832983822" lon="12.570944345569956"><ele>43.75</ele><time>2026-05-01T14:52:51.701Z</time></trkpt><trkpt lat="43.987137384648214" lon="12.571034130230847"><ele>43.5</ele><time>2026-05-01T14:52:52.7Z</time></trkpt><trkpt lat="43.98725652724913" lon="12.571129954715786"><ele>43.25</ele><time>2026-05-01T14:52:53.7Z</time></trkpt><trkpt lat="43.987393068894185" lon="12.571242532362403"><ele>43.0</ele><time>2026-05-01T14:52:54.7Z</time></trkpt><trkpt lat="43.98753657801484" lon="12.571362908745112"><ele>42.5</ele><time>2026-05-01T14:52:55.7Z</time></trkpt><trkpt lat="43.98766631975972" lon="12.571494496163067"><ele>42.0</ele><time>2026-05-01T14:52:56.7Z</time></trkpt><trkpt lat="43.98778339196625" lon="12.571624025545576"><ele>41.5</ele><time>2026-05-01T14:52:57.7Z</time></trkpt><trkpt lat="43.987897659123014" lon="12.57173422091608"><ele>41.0</ele><time>2026-05-01T14:52:58.7Z</time></trkpt><trkpt lat="43.98800478406735" lon="12.571826634053254"><ele>41.0</ele><time>2026-05-01T14:52:59.7Z</time></trkpt><trkpt lat="43.98812020107023" lon="12.571902221607969"><ele>41.0</ele><time>2026-05-01T14:53:00.7Z</time></trkpt><trkpt lat="43.98826056379653" lon="12.571979444751868"><ele>41.0</ele><time>2026-05-01T14:53:01.7Z</time></trkpt><trkpt lat="43.988444213618" lon="12.57204574686966"><ele>41.0</ele><time>2026-05-01T14:53:02.7Z</time></trkpt><trkpt lat="43.98864485000735" lon="12.572097664847288"><ele>41.0</ele><time>2026-05-01T14:53:03.7Z</time></trkpt><trkpt lat="43.98883635699682" lon="12.572120818390665"><ele>41.0</ele><time>2026-05-01T14:53:04.7Z</time></trkpt><trkpt lat="43.989013826580006" lon="12.572139893831501"><ele>41.0</ele><time>2026-05-01T14:53:05.7Z</time></trkpt><trkpt lat="43.98918233375398" lon="12.572154764181525"><ele>41.0</ele><time>2026-05-01T14:53:06.7Z</time></trkpt><trkpt lat="43.98935771133509" lon="12.572162411708927"><ele>41.0</ele><time>2026-05-01T14:53:07.7Z</time></trkpt><trkpt lat="43.98953545241836" lon="12.57217302158398"><ele>41.0</ele><time>2026-05-01T14:53:08.7Z</time></trkpt><trkpt lat="43.98972506134571" lon="12.572168723504308"><ele>41.0</ele><time>2026-05-01T14:53:09.699Z</time></trkpt><trkpt lat="43.98991233094389" lon="12.572155838264393"><ele>41.0</ele><time>2026-05-01T14:53:10.699Z</time></trkpt><trkpt lat="43.990099715471366" lon="12.572143339725944"><ele>40.666666666666664</ele><time>2026-05-01T14:53:11.699Z</time></trkpt><trkpt lat="43.9902833516108" lon="12.572128368787558"><ele>40.333333333333336</ele><time>2026-05-01T14:53:12.699Z</time></trkpt><trkpt lat="43.990462044854354" lon="12.572110993902102"><ele>40.0</ele><time>2026-05-01T14:53:13.699Z</time></trkpt><trkpt lat="43.99063338626218" lon="12.572094472957476"><ele>40.0</ele><time>2026-05-01T14:53:14.699Z</time></trkpt><trkpt lat="43.99080033609145" lon="12.572078110739936"><ele>40.0</ele><time>2026-05-01T14:53:15.699Z</time></trkpt><trkpt lat="43.99096091431561" lon="12.572065244079822"><ele>40.0</ele><time>2026-05-01T14:53:16.699Z</time></trkpt><trkpt lat="43.99111498164871" lon="12.57205593288079"><ele>40.0</ele><time>2026-05-01T14:53:17.699Z</time></trkpt><trkpt lat="43.99126394790811" lon="12.57204221801724"><ele>40.0</ele><time>2026-05-01T14:53:18.699Z</time></trkpt><trkpt lat="43.99141336694877" lon="12.57203097463768"><ele>40.0</ele><time>2026-05-01T14:53:19.699Z</time></trkpt><trkpt lat="43.991567511679904" lon="12.572012232767582"><ele>39.66666666666667</ele><time>2026-05-01T14:53:20.699Z</time></trkpt><trkpt lat="43.99172551698401" lon="12.571992843615126"><ele>39.333333333333336</ele><time>2026-05-01T14:53:21.699Z</time></trkpt><trkpt lat="43.99189372444532" lon="12.571973232770478"><ele>39.0</ele><time>2026-05-01T14:53:22.699Z</time></trkpt><trkpt lat="43.992056748843915" lon="12.571962210375293"><ele>39.0</ele><time>2026-05-01T14:53:23.699Z</time></trkpt><trkpt lat="43.99221142412119" lon="12.571951794525265"><ele>39.0</ele><time>2026-05-01T14:53:24.699Z</time></trkpt><trkpt lat="43.99236749444277" lon="12.571933367606933"><ele>39.0</ele><time>2026-05-01T14:53:25.699Z</time></trkpt><trkpt lat="43.99252458825938" lon="12.571942366068958"><ele>38.333333333333336</ele><time>2026-05-01T14:53:26.699Z</time></trkpt><trkpt lat="43.99268220088608" lon="12.571905892956085"><ele>37.66666666666667</ele><time>2026-05-01T14:53:27.699Z</time></trkpt><trkpt lat="43.99284148824437" lon="12.571897076799285"><ele>37.0</ele><time>2026-05-01T14:53:28.699Z</time></trkpt><trkpt lat="43.992992978246555" lon="12.571892798857775"><ele>37.0</ele><time>2026-05-01T14:53:29.699Z</time></trkpt><trkpt lat="43.99313815115349" lon="12.571879753605446"><ele>37.0</ele><time>2026-05-01T14:53:30.699Z</time></trkpt><trkpt lat="43.99327264935852" lon="12.571866873847773"><ele>37.0</ele><time>2026-05-01T14:53:31.699Z</time></trkpt><trkpt lat="43.99340336682433" lon="12.571855578375875"><ele>37.0</ele><time>2026-05-01T14:53:32.699Z</time></trkpt><trkpt lat="43.99352817794489" lon="12.571839629248258"><ele>36.75</ele><time>2026-05-01T14:53:33.699Z</time></trkpt><trkpt lat="43.993658069671845" lon="12.571817200663945"><ele>36.5</ele><time>2026-05-01T14:53:34.699Z</time></trkpt><trkpt lat="43.99378554121088" lon="12.571815879568813"><ele>36.25</ele><time>2026-05-01T14:53:35.699Z</time></trkpt><trkpt lat="43.99391193234729" lon="12.571801898421281"><ele>36.0</ele><time>2026-05-01T14:53:36.699Z</time></trkpt><trkpt lat="43.9940364739806" lon="12.571778082563934"><ele>36.0</ele><time>2026-05-01T14:53:37.699Z</time></trkpt><trkpt lat="43.99416590348194" lon="12.57177280361408"><ele>36.0</ele><time>2026-05-01T14:53:38.699Z</time></trkpt><trkpt lat="43.994294193379325" lon="12.571752989820649"><ele>36.0</ele><time>2026-05-01T14:53:39.699Z</time></trkpt><trkpt lat="43.99441876904061" lon="12.571734759852704"><ele>36.0</ele><time>2026-05-01T14:53:40.699Z</time></trkpt><trkpt lat="43.99453600273181" lon="12.571715544133449"><ele>35.75</ele><time>2026-05-01T14:53:41.699Z</time></trkpt><trkpt lat="43.99465363963848" lon="12.571698812329322"><ele>35.5</ele><time>2026-05-01T14:53:42.699Z</time></trkpt><trkpt lat="43.99477677447849" lon="12.571717460842686"><ele>35.25</ele><time>2026-05-01T14:53:43.698Z</time></trkpt><trkpt lat="43.99489938256407" lon="12.571695017599527"><ele>35.0</ele><time>2026-05-01T14:53:44.698Z</time></trkpt><trkpt lat="43.995014848131554" lon="12.5717052136928"><ele>34.75</ele><time>2026-05-01T14:53:45.698Z</time></trkpt><trkpt lat="43.99512191333557" lon="12.571733252365789"><ele>34.5</ele><time>2026-05-01T14:53:46.698Z</time></trkpt><trkpt lat="43.9952314442374" lon="12.571768979943913"><ele>34.25</ele><time>2026-05-01T14:53:47.698Z</time></trkpt><trkpt lat="43.995347404433645" lon="12.571809425487642"><ele>34.0</ele><time>2026-05-01T14:53:48.698Z</time></trkpt><trkpt lat="43.9954637883159" lon="12.57186906041735"><ele>34.0</ele><time>2026-05-01T14:53:49.698Z</time></trkpt><trkpt lat="43.995583984819106" lon="12.571953512263404"><ele>34.0</ele><time>2026-05-01T14:53:50.698Z</time></trkpt><trkpt lat="43.99571022631136" lon="12.57204899883155"><ele>34.0</ele><time>2026-05-01T14:53:51.698Z</time></trkpt><trkpt lat="43.99583620855588" lon="12.572152194365335"><ele>34.0</ele><time>2026-05-01T14:53:52.698Z</time></trkpt><trkpt lat="43.995956214160856" lon="12.57225539567965"><ele>34.25</ele><time>2026-05-01T14:53:53.698Z</time></trkpt><trkpt lat="43.99607455752408" lon="12.572349289076705"><ele>34.5</ele><time>2026-05-01T14:53:54.698Z</time></trkpt><trkpt lat="43.996193410351985" lon="12.572439160018366"><ele>34.75</ele><time>2026-05-01T14:53:55.698Z</time></trkpt><trkpt lat="43.99630376609957" lon="12.572524236445222"><ele>35.0</ele><time>2026-05-01T14:53:56.698Z</time></trkpt><trkpt lat="43.9964133474329" lon="12.572611246320994"><ele>35.0</ele><time>2026-05-01T14:53:57.698Z</time></trkpt><trkpt lat="43.99652501693858" lon="12.57269473590884"><ele>35.0</ele><time>2026-05-01T14:53:58.698Z</time></trkpt><trkpt lat="43.99663920688876" lon="12.572764684240864"><ele>35.0</ele><time>2026-05-01T14:53:59.698Z</time></trkpt><trkpt lat="43.99675071993754" lon="12.572810166427406"><ele>35.0</ele><time>2026-05-01T14:54:00.698Z</time></trkpt><trkpt lat="43.996869493594644" lon="12.572837397936134"><ele>34.33333333333333</ele><time>2026-05-01T14:54:01.698Z</time></trkpt><trkpt lat="43.9969963493259" lon="12.572846745814141"><ele>33.666666666666664</ele><time>2026-05-01T14:54:02.698Z</time></trkpt><trkpt lat="43.99713715555805" lon="12.572836379557218"><ele>33.0</ele><time>2026-05-01T14:54:03.698Z</time></trkpt><trkpt lat="43.99732607379651" lon="12.572837316976505"><ele>33.5</ele><time>2026-05-01T14:54:04.698Z</time></trkpt><trkpt lat="43.997550739119575" lon="12.57282230099147"><ele>34.0</ele><time>2026-05-01T14:54:05.698Z</time></trkpt><trkpt lat="43.99781505898595" lon="12.572782370715968"><ele>34.0</ele><time>2026-05-01T14:54:06.698Z</time></trkpt><trkpt lat="43.99809906219109" lon="12.572766349274229"><ele>34.0</ele><time>2026-05-01T14:54:07.698Z</time></trkpt><trkpt lat="43.99835740057501" lon="12.572743927584392"><ele>33.5</ele><time>2026-05-01T14:54:08.698Z</time></trkpt><trkpt lat="43.99859364780923" lon="12.57270806400272"><ele>33.0</ele><time>2026-05-01T14:54:09.698Z</time></trkpt><trkpt lat="43.99884086095139" lon="12.57263602243198"><ele>33.0</ele><time>2026-05-01T14:54:10.698Z</time></trkpt><trkpt lat="43.99907407925362" lon="12.572540909901782"><ele>33.0</ele><time>2026-05-01T14:54:11.698Z</time></trkpt><trkpt lat="43.99928954795786" lon="12.572467693109159"><ele>33.0</ele><time>2026-05-01T14:54:12.698Z</time></trkpt><trkpt lat="43.99947870663056" lon="12.572402806727725"><ele>33.0</ele><time>2026-05-01T14:54:13.698Z</time></trkpt><trkpt lat="43.99966121924315" lon="12.572347714684984"><ele>33.0</ele><time>2026-05-01T14:54:14.698Z</time></trkpt><trkpt lat="43.99985905632022" lon="12.572295078082348"><ele>33.0</ele><time>2026-05-01T14:54:15.698Z</time></trkpt><trkpt lat="44.000098247547285" lon="12.572231571428619"><ele>33.0</ele><time>2026-05-01T14:54:16.698Z</time></trkpt><trkpt lat="44.00036553993831" lon="12.572194286786063"><ele>33.0</ele><time>2026-05-01T14:54:17.698Z</time></trkpt><trkpt lat="44.00063213461004" lon="12.572159201043242"><ele>33.0</ele><time>2026-05-01T14:54:18.697Z</time></trkpt><trkpt lat="44.00091810759534" lon="12.572104435340894"><ele>31.5</ele><time>2026-05-01T14:54:19.697Z</time></trkpt><trkpt lat="44.00122888416708" lon="12.572087545012783"><ele>30.0</ele><time>2026-05-01T14:54:20.697Z</time></trkpt><trkpt lat="44.00154886796926" lon="12.572048909831926"><ele>29.5</ele><time>2026-05-01T14:54:21.697Z</time></trkpt><trkpt lat="44.00185747930068" lon="12.572021897488659"><ele>29.0</ele><time>2026-05-01T14:54:22.697Z</time></trkpt><trkpt lat="44.00213492925073" lon="12.572035436783617"><ele>29.0</ele><time>2026-05-01T14:54:23.697Z</time></trkpt><trkpt lat="44.00240724924071" lon="12.5720539263541"><ele>29.0</ele><time>2026-05-01T14:54:24.697Z</time></trkpt><trkpt lat="44.00277702046628" lon="12.57207539569695"><ele>28.5</ele><time>2026-05-01T14:54:25.697Z</time></trkpt><trkpt lat="44.003055351262724" lon="12.57210003598569"><ele>28.0</ele><time>2026-05-01T14:54:26.697Z</time></trkpt><trkpt lat="44.003307662575736" lon="12.57211625262947"><ele>27.666666666666668</ele><time>2026-05-01T14:54:27.697Z</time></trkpt><trkpt lat="44.003542939414885" lon="12.572118592539278"><ele>27.333333333333336</ele><time>2026-05-01T14:54:28.697Z</time></trkpt><trkpt lat="44.00373415438364" lon="12.572085362975818"><ele>27.0</ele><time>2026-05-01T14:54:29.697Z</time></trkpt><trkpt lat="44.00391482461584" lon="12.572028039625955"><ele>27.333333333333336</ele><time>2026-05-01T14:54:30.697Z</time></trkpt><trkpt lat="44.00407323291231" lon="12.571949681278092"><ele>27.666666666666668</ele><time>2026-05-01T14:54:31.697Z</time></trkpt><trkpt lat="44.00421003936983" lon="12.571858301120717"><ele>28.0</ele><time>2026-05-01T14:54:32.697Z</time></trkpt><trkpt lat="44.004335992850145" lon="12.571773864152807"><ele>28.0</ele><time>2026-05-01T14:54:33.697Z</time></trkpt><trkpt lat="44.004441029512094" lon="12.571702018012248"><ele>27.999999999999996</ele><time>2026-05-01T14:54:34.697Z</time></trkpt><trkpt lat="44.004534988217046" lon="12.571644396462068"><ele>27.999999999999996</ele><time>2026-05-01T14:54:35.697Z</time></trkpt><trkpt lat="44.00461422229875" lon="12.571613842688421"><ele>28.0</ele><time>2026-05-01T14:54:36.697Z</time></trkpt><trkpt lat="44.00468784774494" lon="12.571457285167188"><ele>28.0</ele><time>2026-05-01T14:54:38.697Z</time></trkpt><trkpt lat="44.00472947103701" lon="12.57131658708451"><ele>28.0</ele><time>2026-05-01T14:54:39.697Z</time></trkpt><trkpt lat="44.00482311621191" lon="12.571204936718974"><ele>28.0</ele><time>2026-05-01T14:54:40.697Z</time></trkpt><trkpt lat="44.00492901271387" lon="12.571101421367167"><ele>28.0</ele><time>2026-05-01T14:54:41.697Z</time></trkpt><trkpt lat="44.00502252753638" lon="12.570991735052452"><ele>28.0</ele><time>2026-05-01T14:54:42.697Z</time></trkpt><trkpt lat="44.00511104796879" lon="12.57089547179685"><ele>28.2</ele><time>2026-05-01T14:54:43.697Z</time></trkpt><trkpt lat="44.005202695696944" lon="12.570797859611229"><ele>28.4</ele><time>2026-05-01T14:54:44.697Z</time></trkpt><trkpt lat="44.00530671374772" lon="12.570733028873436"><ele>28.599999999999998</ele><time>2026-05-01T14:54:45.697Z</time></trkpt><trkpt lat="44.00539395141773" lon="12.570676302655556"><ele>28.799999999999997</ele><time>2026-05-01T14:54:46.697Z</time></trkpt><trkpt lat="44.00549363982607" lon="12.57062304326804"><ele>29.0</ele><time>2026-05-01T14:54:47.697Z</time></trkpt><trkpt lat="44.00560351108706" lon="12.570608948559627"><ele>29.0</ele><time>2026-05-01T14:54:48.697Z</time></trkpt><trkpt lat="44.005722310782595" lon="12.570602122811229"><ele>29.0</ele><time>2026-05-01T14:54:49.697Z</time></trkpt><trkpt lat="44.00584931297203" lon="12.570584447291763"><ele>29.0</ele><time>2026-05-01T14:54:50.697Z</time></trkpt><trkpt lat="44.00598300819291" lon="12.570564569520155"><ele>29.0</ele><time>2026-05-01T14:54:51.697Z</time></trkpt><trkpt lat="44.00612293881292" lon="12.570542518582535"><ele>28.333333333333332</ele><time>2026-05-01T14:54:52.695Z</time></trkpt><trkpt lat="44.006281456571934" lon="12.570497367921197"><ele>27.666666666666664</ele><time>2026-05-01T14:54:53.695Z</time></trkpt><trkpt lat="44.00645563253536" lon="12.570474501154647"><ele>27.0</ele><time>2026-05-01T14:54:54.695Z</time></trkpt><trkpt lat="44.00662078560017" lon="12.570452423765593"><ele>27.0</ele><time>2026-05-01T14:54:55.695Z</time></trkpt><trkpt lat="44.006782144898494" lon="12.570423967809905"><ele>27.0</ele><time>2026-05-01T14:54:56.695Z</time></trkpt><trkpt lat="44.006950205493624" lon="12.570395807047822"><ele>27.0</ele><time>2026-05-01T14:54:57.695Z</time></trkpt><trkpt lat="44.007150156453015" lon="12.57036305315572"><ele>27.0</ele><time>2026-05-01T14:54:58.695Z</time></trkpt><trkpt lat="44.00737879104737" lon="12.570336746390115"><ele>27.0</ele><time>2026-05-01T14:54:59.695Z</time></trkpt><trkpt lat="44.00761216913749" lon="12.570320980611287"><ele>27.0</ele><time>2026-05-01T14:55:00.695Z</time></trkpt><trkpt lat="44.00783125967727" lon="12.57030523261316"><ele>27.0</ele><time>2026-05-01T14:55:01.695Z</time></trkpt><trkpt lat="44.0080423807789" lon="12.570283982404952"><ele>27.0</ele><time>2026-05-01T14:55:02.694Z</time></trkpt><trkpt lat="44.00825710928388" lon="12.57027208726037"><ele>26.5</ele><time>2026-05-01T14:55:03.694Z</time></trkpt><trkpt lat="44.00847440825834" lon="12.570252126335856"><ele>26.0</ele><time>2026-05-01T14:55:04.695Z</time></trkpt><trkpt lat="44.0087159665107" lon="12.570210422989794"><ele>26.0</ele><time>2026-05-01T14:55:05.695Z</time></trkpt><trkpt lat="44.00899039703322" lon="12.570180994399005"><ele>26.0</ele><time>2026-05-01T14:55:06.695Z</time></trkpt><trkpt lat="44.00929632734809" lon="12.570174252016795"><ele>25.5</ele><time>2026-05-01T14:55:07.695Z</time></trkpt><trkpt lat="44.009597412747965" lon="12.570173468152197"><ele>25.0</ele><time>2026-05-01T14:55:08.695Z</time></trkpt><trkpt lat="44.009867382361" lon="12.570160825058077"><ele>24.5</ele><time>2026-05-01T14:55:09.695Z</time></trkpt><trkpt lat="44.01011810845044" lon="12.570138415680624"><ele>24.0</ele><time>2026-05-01T14:55:10.695Z</time></trkpt><trkpt lat="44.01036055715171" lon="12.5701124232739"><ele>24.0</ele><time>2026-05-01T14:55:11.695Z</time></trkpt><trkpt lat="44.01059930217576" lon="12.570084641254223"><ele>24.0</ele><time>2026-05-01T14:55:12.695Z</time></trkpt><trkpt lat="44.01083682751459" lon="12.5700419946019"><ele>24.0</ele><time>2026-05-01T14:55:13.695Z</time></trkpt><trkpt lat="44.0110794750074" lon="12.570002880686507"><ele>24.0</ele><time>2026-05-01T14:55:14.695Z</time></trkpt><trkpt lat="44.01133516423232" lon="12.569962659330304"><ele>24.0</ele><time>2026-05-01T14:55:15.695Z</time></trkpt><trkpt lat="44.01158951122356" lon="12.569933687359184"><ele>24.0</ele><time>2026-05-01T14:55:16.695Z</time></trkpt><trkpt lat="44.01182826030496" lon="12.569906192379012"><ele>24.333333333333336</ele><time>2026-05-01T14:55:17.695Z</time></trkpt><trkpt lat="44.012053621876134" lon="12.569881015066331"><ele>24.666666666666668</ele><time>2026-05-01T14:55:18.695Z</time></trkpt><trkpt lat="44.01225751718687" lon="12.56986389159048"><ele>25.0</ele><time>2026-05-01T14:55:19.695Z</time></trkpt><trkpt lat="44.01245124154551" lon="12.56986196798263"><ele>24.666666666666668</ele><time>2026-05-01T14:55:20.695Z</time></trkpt><trkpt lat="44.01265196775533" lon="12.569869605619088"><ele>24.333333333333336</ele><time>2026-05-01T14:55:21.694Z</time></trkpt><trkpt lat="44.01284725332766" lon="12.569905410671524"><ele>24.0</ele><time>2026-05-01T14:55:22.694Z</time></trkpt><trkpt lat="44.013048975757364" lon="12.569952733909332"><ele>24.0</ele><time>2026-05-01T14:55:23.694Z</time></trkpt><trkpt lat="44.013263797038846" lon="12.570021487692982"><ele>24.0</ele><time>2026-05-01T14:55:24.694Z</time></trkpt><trkpt lat="44.01349607769933" lon="12.57008450433554"><ele>24.0</ele><time>2026-05-01T14:55:25.694Z</time></trkpt><trkpt lat="44.01372912821895" lon="12.570145667189166"><ele>24.0</ele><time>2026-05-01T14:55:26.694Z</time></trkpt><trkpt lat="44.01394279916548" lon="12.570198347552417"><ele>24.0</ele><time>2026-05-01T14:55:27.694Z</time></trkpt><trkpt lat="44.014135134629036" lon="12.570242673623731"><ele>24.0</ele><time>2026-05-01T14:55:28.694Z</time></trkpt><trkpt lat="44.01430881006617" lon="12.570269583975959"><ele>24.0</ele><time>2026-05-01T14:55:29.694Z</time></trkpt><trkpt lat="44.01447393764802" lon="12.570265609675573"><ele>24.666666666666664</ele><time>2026-05-01T14:55:30.694Z</time></trkpt><trkpt lat="44.01463969734401" lon="12.570229527295435"><ele>25.333333333333332</ele><time>2026-05-01T14:55:31.694Z</time></trkpt><trkpt lat="44.01481084457514" lon="12.570151391881875"><ele>26.0</ele><time>2026-05-01T14:55:32.694Z</time></trkpt><trkpt lat="44.01498652727285" lon="12.570036855252146"><ele>25.333333333333332</ele><time>2026-05-01T14:55:33.694Z</time></trkpt><trkpt lat="44.015151732253436" lon="12.569915675329542"><ele>24.666666666666664</ele><time>2026-05-01T14:55:34.694Z</time></trkpt><trkpt lat="44.01530808080804" lon="12.569800106664308"><ele>24.0</ele><time>2026-05-01T14:55:35.694Z</time></trkpt><trkpt lat="44.01546015168908" lon="12.569684342908415"><ele>24.0</ele><time>2026-05-01T14:55:36.694Z</time></trkpt><trkpt lat="44.01560639436652" lon="12.569583780916558"><ele>24.0</ele><time>2026-05-01T14:55:37.694Z</time></trkpt><trkpt lat="44.01575198818427" lon="12.569491524858844"><ele>24.0</ele><time>2026-05-01T14:55:38.694Z</time></trkpt><trkpt lat="44.015908273891995" lon="12.569417630151339"><ele>23.666666666666668</ele><time>2026-05-01T14:55:39.694Z</time></trkpt><trkpt lat="44.01607509210843" lon="12.569373529088425"><ele>23.333333333333336</ele><time>2026-05-01T14:55:40.694Z</time></trkpt><trkpt lat="44.0162397334089" lon="12.569350921928995"><ele>23.0</ele><time>2026-05-01T14:55:41.694Z</time></trkpt><trkpt lat="44.016408937889885" lon="12.569340302845456"><ele>23.0</ele><time>2026-05-01T14:55:42.694Z</time></trkpt><trkpt lat="44.01656806743542" lon="12.5693353844336"><ele>23.0</ele><time>2026-05-01T14:55:43.694Z</time></trkpt><trkpt lat="44.016712916944485" lon="12.569340624739585"><ele>23.0</ele><time>2026-05-01T14:55:44.694Z</time></trkpt><trkpt lat="44.016853660563584" lon="12.569344455981602"><ele>23.0</ele><time>2026-05-01T14:55:45.694Z</time></trkpt><trkpt lat="44.01700025787719" lon="12.569340350028584"><ele>23.0</ele><time>2026-05-01T14:55:46.694Z</time></trkpt><trkpt lat="44.01715739189176" lon="12.569334772364988"><ele>23.0</ele><time>2026-05-01T14:55:47.694Z</time></trkpt><trkpt lat="44.01731705508264" lon="12.569330324628442"><ele>23.0</ele><time>2026-05-01T14:55:48.694Z</time></trkpt><trkpt lat="44.017465938366755" lon="12.569326384727598"><ele>22.75</ele><time>2026-05-01T14:55:49.694Z</time></trkpt><trkpt lat="44.01760304544628" lon="12.569312273727542"><ele>22.5</ele><time>2026-05-01T14:55:50.694Z</time></trkpt><trkpt lat="44.01772206871176" lon="12.569308725434654"><ele>22.25</ele><time>2026-05-01T14:55:51.694Z</time></trkpt><trkpt lat="44.01784232501823" lon="12.569310768422664"><ele>22.0</ele><time>2026-05-01T14:55:52.694Z</time></trkpt><trkpt lat="44.017969741383446" lon="12.569309481655331"><ele>22.0</ele><time>2026-05-01T14:55:53.694Z</time></trkpt><trkpt lat="44.018104568560425" lon="12.569310678988376"><ele>22.0</ele><time>2026-05-01T14:55:54.694Z</time></trkpt><trkpt lat="44.01823833020732" lon="12.569302806158914"><ele>22.0</ele><time>2026-05-01T14:55:55.693Z</time></trkpt><trkpt lat="44.01837408154782" lon="12.569303192000227"><ele>22.0</ele><time>2026-05-01T14:55:56.693Z</time></trkpt><trkpt lat="44.018510637618554" lon="12.56930243618838"><ele>22.0</ele><time>2026-05-01T14:55:57.693Z</time></trkpt><trkpt lat="44.01865132779923" lon="12.569289610650696"><ele>22.0</ele><time>2026-05-01T14:55:58.693Z</time></trkpt><trkpt lat="44.0187955200199" lon="12.569271193981928"><ele>22.0</ele><time>2026-05-01T14:55:59.693Z</time></trkpt><trkpt lat="44.0189449004435" lon="12.56923113591029"><ele>22.0</ele><time>2026-05-01T14:56:00.693Z</time></trkpt><trkpt lat="44.01908953494693" lon="12.569150341844106"><ele>21.5</ele><time>2026-05-01T14:56:01.693Z</time></trkpt><trkpt lat="44.01921604625987" lon="12.569046332285412"><ele>21.0</ele><time>2026-05-01T14:56:02.693Z</time></trkpt><trkpt lat="44.019321117027644" lon="12.568924051775367"><ele>20.5</ele><time>2026-05-01T14:56:03.693Z</time></trkpt><trkpt lat="44.01941688051191" lon="12.56878827218632"><ele>20.0</ele><time>2026-05-01T14:56:04.693Z</time></trkpt><trkpt lat="44.019504739479295" lon="12.568636574651837"><ele>19.666666666666668</ele><time>2026-05-01T14:56:05.693Z</time></trkpt><trkpt lat="44.01959778673864" lon="12.568491478157544"><ele>19.333333333333332</ele><time>2026-05-01T14:56:06.693Z</time></trkpt><trkpt lat="44.019695121450816" lon="12.568318328613218"><ele>19.0</ele><time>2026-05-01T14:56:07.693Z</time></trkpt><trkpt lat="44.0198037425301" lon="12.568110582299486"><ele>19.0</ele><time>2026-05-01T14:56:08.693Z</time></trkpt><trkpt lat="44.01990866038203" lon="12.567915427257256"><ele>19.0</ele><time>2026-05-01T14:56:09.693Z</time></trkpt><trkpt lat="44.02001406886722" lon="12.567725100424092"><ele>19.0</ele><time>2026-05-01T14:56:10.693Z</time></trkpt><trkpt lat="44.020121613210016" lon="12.56752222724429"><ele>19.0</ele><time>2026-05-01T14:56:11.693Z</time></trkpt><trkpt lat="44.0202367380895" lon="12.567320991372725"><ele>19.0</ele><time>2026-05-01T14:56:12.693Z</time></trkpt><trkpt lat="44.02035293906904" lon="12.567120246099593"><ele>19.0</ele><time>2026-05-01T14:56:13.693Z</time></trkpt><trkpt lat="44.0204733897631" lon="12.566919779615148"><ele>18.666666666666664</ele><time>2026-05-01T14:56:14.693Z</time></trkpt><trkpt lat="44.02058955704825" lon="12.566721226910422"><ele>18.333333333333332</ele><time>2026-05-01T14:56:15.693Z</time></trkpt><trkpt lat="44.02071459863146" lon="12.566529214191231"><ele>18.0</ele><time>2026-05-01T14:56:16.693Z</time></trkpt><trkpt lat="44.020857547810735" lon="12.566355822670344"><ele>18.0</ele><time>2026-05-01T14:56:17.693Z</time></trkpt><trkpt lat="44.02101105548288" lon="12.5662064127806"><ele>18.0</ele><time>2026-05-01T14:56:18.693Z</time></trkpt><trkpt lat="44.02117171974089" lon="12.566088542584994"><ele>18.0</ele><time>2026-05-01T14:56:19.693Z</time></trkpt><trkpt lat="44.02132537561547" lon="12.565995950979238"><ele>18.0</ele><time>2026-05-01T14:56:20.693Z</time></trkpt><trkpt lat="44.0214737052374" lon="12.565924696716023"><ele>18.0</ele><time>2026-05-01T14:56:21.693Z</time></trkpt><trkpt lat="44.02160847190112" lon="12.565861866721052"><ele>18.0</ele><time>2026-05-01T14:56:22.693Z</time></trkpt><trkpt lat="44.02172071758499" lon="12.565819703223957"><ele>18.0</ele><time>2026-05-01T14:56:23.693Z</time></trkpt><trkpt lat="44.02181964998596" lon="12.565787196726005"><ele>18.0</ele><time>2026-05-01T14:56:24.693Z</time></trkpt><trkpt lat="44.02190204958915" lon="12.565760291649017"><ele>18.0</ele><time>2026-05-01T14:56:25.693Z</time></trkpt><trkpt lat="44.02195685636905" lon="12.5656519510927"><ele>18.0</ele><time>2026-05-01T14:56:27.693Z</time></trkpt><trkpt lat="44.02188470093336" lon="12.565509302947792"><ele>18.0</ele><time>2026-05-01T14:56:29.693Z</time></trkpt><trkpt lat="44.021846647565745" lon="12.56543773921534"><ele>18.0</ele><time>2026-05-01T14:56:30.692Z</time></trkpt><trkpt lat="44.02180799483464" lon="12.56535920313873"><ele>18.0</ele><time>2026-05-01T14:56:31.692Z</time></trkpt><trkpt lat="44.021755080261435" lon="12.565233751198107"><ele>18.0</ele><time>2026-05-01T14:56:33.692Z</time></trkpt><trkpt lat="44.02170177549816" lon="12.56516652503161"><ele>18.0</ele><time>2026-05-01T14:56:38.692Z</time></trkpt><trkpt lat="44.0216858521616" lon="12.565272881704306"><ele>18.0</ele><time>2026-05-01T14:56:43.692Z</time></trkpt><trkpt lat="44.02173012712257" lon="12.565360492767581"><ele>18.0</ele><time>2026-05-01T14:56:44.692Z</time></trkpt><trkpt lat="44.0217789461446" lon="12.56543261466787"><ele>18.0</ele><time>2026-05-01T14:56:45.692Z</time></trkpt><trkpt lat="44.02181671403816" lon="12.565503990834324"><ele>18.0</ele><time>2026-05-01T14:56:46.692Z</time></trkpt><trkpt lat="44.02187479654905" lon="12.56564262710709"><ele>18.0</ele><time>2026-05-01T14:56:48.692Z</time></trkpt><trkpt lat="44.02184773329442" lon="12.565734559713164"><ele>18.0</ele><time>2026-05-01T14:56:51.692Z</time></trkpt><trkpt lat="44.02172595697312" lon="12.565776559277856"><ele>18.0</ele><time>2026-05-01T14:56:53.692Z</time></trkpt><trkpt lat="44.02159357002569" lon="12.565831341868673"><ele>18.0</ele><time>2026-05-01T14:56:54.692Z</time></trkpt><trkpt lat="44.021452287149536" lon="12.565913070532558"><ele>18.0</ele><time>2026-05-01T14:56:55.692Z</time></trkpt><trkpt lat="44.02128647442753" lon="12.565990610657716"><ele>18.0</ele><time>2026-05-01T14:56:56.692Z</time></trkpt><trkpt lat="44.02110359071758" lon="12.566097698906178"><ele>18.0</ele><time>2026-05-01T14:56:57.692Z</time></trkpt><trkpt lat="44.020918319675005" lon="12.56623389296715"><ele>17.666666666666668</ele><time>2026-05-01T14:56:58.691Z</time></trkpt><trkpt lat="44.02074622991203" lon="12.56641285666078"><ele>17.333333333333336</ele><time>2026-05-01T14:56:59.691Z</time></trkpt><trkpt lat="44.02058853690225" lon="12.566627583264355"><ele>17.0</ele><time>2026-05-01T14:57:00.691Z</time></trkpt><trkpt lat="44.020452726992254" lon="12.566858573270785"><ele>17.666666666666668</ele><time>2026-05-01T14:57:01.691Z</time></trkpt><trkpt lat="44.020327909400294" lon="12.567080279886444"><ele>18.333333333333332</ele><time>2026-05-01T14:57:02.691Z</time></trkpt><trkpt lat="44.02022325843538" lon="12.56728145670039"><ele>19.0</ele><time>2026-05-01T14:57:03.691Z</time></trkpt><trkpt lat="44.02011625849229" lon="12.56747427270674"><ele>19.0</ele><time>2026-05-01T14:57:04.69Z</time></trkpt><trkpt lat="44.02001221490464" lon="12.567662145569267"><ele>19.0</ele><time>2026-05-01T14:57:05.691Z</time></trkpt><trkpt lat="44.01991061008355" lon="12.56783421309534"><ele>19.0</ele><time>2026-05-01T14:57:06.691Z</time></trkpt><trkpt lat="44.01981573635992" lon="12.56799130523831"><ele>19.0</ele><time>2026-05-01T14:57:07.69Z</time></trkpt><trkpt lat="44.01972430936003" lon="12.568155106092346"><ele>19.0</ele><time>2026-05-01T14:57:08.691Z</time></trkpt><trkpt lat="44.01962775785277" lon="12.568323699557801"><ele>19.0</ele><time>2026-05-01T14:57:09.691Z</time></trkpt><trkpt lat="44.01954106203012" lon="12.568480603837713"><ele>19.0</ele><time>2026-05-01T14:57:10.69Z</time></trkpt><trkpt lat="44.019457861419625" lon="12.56862625782979"><ele>19.25</ele><time>2026-05-01T14:57:11.691Z</time></trkpt><trkpt lat="44.01937715532917" lon="12.568763429876107"><ele>19.5</ele><time>2026-05-01T14:57:12.691Z</time></trkpt><trkpt lat="44.01929169274245" lon="12.568893406512496"><ele>19.75</ele><time>2026-05-01T14:57:13.691Z</time></trkpt><trkpt lat="44.01919922648038" lon="12.569009329951433"><ele>20.0</ele><time>2026-05-01T14:57:14.691Z</time></trkpt><trkpt lat="44.01908947489067" lon="12.569084423620744"><ele>20.5</ele><time>2026-05-01T14:57:15.691Z</time></trkpt><trkpt lat="44.01898147550737" lon="12.569151179052485"><ele>21.0</ele><time>2026-05-01T14:57:16.69Z</time></trkpt><trkpt lat="44.018860464107306" lon="12.569199992434804"><ele>21.5</ele><time>2026-05-01T14:57:17.69Z</time></trkpt><trkpt lat="44.018733460066784" lon="12.569231842422205"><ele>22.0</ele><time>2026-05-01T14:57:18.69Z</time></trkpt><trkpt lat="44.01860299939902" lon="12.569244993097032"><ele>22.0</ele><time>2026-05-01T14:57:19.69Z</time></trkpt><trkpt lat="44.018465667159255" lon="12.569250122638845"><ele>22.0</ele><time>2026-05-01T14:57:20.69Z</time></trkpt><trkpt lat="44.0183242602715" lon="12.56927243493856"><ele>22.0</ele><time>2026-05-01T14:57:21.69Z</time></trkpt><trkpt lat="44.01817621510916" lon="12.569275135583672"><ele>22.0</ele><time>2026-05-01T14:57:22.69Z</time></trkpt><trkpt lat="44.01801770304858" lon="12.569265363030912"><ele>22.0</ele><time>2026-05-01T14:57:23.69Z</time></trkpt><trkpt lat="44.01786435780701" lon="12.569288679171992"><ele>22.0</ele><time>2026-05-01T14:57:24.69Z</time></trkpt><trkpt lat="44.01771387515087" lon="12.569275699698546"><ele>22.0</ele><time>2026-05-01T14:57:25.69Z</time></trkpt><trkpt lat="44.01757384951024" lon="12.569299303872583"><ele>22.0</ele><time>2026-05-01T14:57:26.69Z</time></trkpt><trkpt lat="44.017427748070155" lon="12.569300109863129"><ele>22.25</ele><time>2026-05-01T14:57:27.69Z</time></trkpt><trkpt lat="44.01728745567645" lon="12.56930582957081"><ele>22.5</ele><time>2026-05-01T14:57:28.69Z</time></trkpt><trkpt lat="44.017152623791425" lon="12.569307380445853"><ele>22.75</ele><time>2026-05-01T14:57:29.69Z</time></trkpt><trkpt lat="44.01701625153754" lon="12.56931312405854"><ele>23.0</ele><time>2026-05-01T14:57:30.69Z</time></trkpt><trkpt lat="44.016874756205496" lon="12.569315442161544"><ele>23.0</ele><time>2026-05-01T14:57:31.69Z</time></trkpt><trkpt lat="44.01673999237161" lon="12.56931857839686"><ele>23.0</ele><time>2026-05-01T14:57:32.69Z</time></trkpt><trkpt lat="44.016600635031686" lon="12.56931987108116"><ele>23.0</ele><time>2026-05-01T14:57:33.69Z</time></trkpt><trkpt lat="44.01646430034387" lon="12.569316367665305"><ele>23.0</ele><time>2026-05-01T14:57:34.69Z</time></trkpt><trkpt lat="44.01632312358324" lon="12.56932002553906"><ele>23.0</ele><time>2026-05-01T14:57:35.69Z</time></trkpt><trkpt lat="44.01618450671057" lon="12.56932540683254"><ele>23.0</ele><time>2026-05-01T14:57:36.69Z</time></trkpt><trkpt lat="44.01605638146519" lon="12.56935264055986"><ele>23.0</ele><time>2026-05-01T14:57:37.69Z</time></trkpt><trkpt lat="44.015935359080935" lon="12.569383799678793"><ele>23.0</ele><time>2026-05-01T14:57:38.69Z</time></trkpt><trkpt lat="44.015809235740576" lon="12.569417968962943"><ele>23.25</ele><time>2026-05-01T14:57:39.69Z</time></trkpt><trkpt lat="44.01568061076442" lon="12.569488024553484"><ele>23.5</ele><time>2026-05-01T14:57:40.69Z</time></trkpt><trkpt lat="44.015534833990884" lon="12.569560799256232"><ele>23.75</ele><time>2026-05-01T14:57:41.69Z</time></trkpt><trkpt lat="44.01540186229945" lon="12.56965443372721"><ele>24.0</ele><time>2026-05-01T14:57:42.69Z</time></trkpt><trkpt lat="44.015283819995105" lon="12.569742501733288"><ele>24.0</ele><time>2026-05-01T14:57:43.69Z</time></trkpt><trkpt lat="44.01517590138023" lon="12.569820801466614"><ele>24.0</ele><time>2026-05-01T14:57:44.69Z</time></trkpt><trkpt lat="44.0150715411234" lon="12.569892961900159"><ele>24.0</ele><time>2026-05-01T14:57:45.69Z</time></trkpt><trkpt lat="44.014964652606004" lon="12.56997019270929"><ele>24.0</ele><time>2026-05-01T14:57:46.69Z</time></trkpt><trkpt lat="44.01485858204471" lon="12.570047668306657"><ele>24.4</ele><time>2026-05-01T14:57:47.69Z</time></trkpt><trkpt lat="44.01475790597804" lon="12.570115080802026"><ele>24.799999999999997</ele><time>2026-05-01T14:57:48.69Z</time></trkpt><trkpt lat="44.01466038287803" lon="12.57015526239767"><ele>25.200000000000003</ele><time>2026-05-01T14:57:49.69Z</time></trkpt><trkpt lat="44.014564394498976" lon="12.570190293050548"><ele>25.6</ele><time>2026-05-01T14:57:50.689Z</time></trkpt><trkpt lat="44.01447364685841" lon="12.570211231413671"><ele>26.0</ele><time>2026-05-01T14:57:51.689Z</time></trkpt><trkpt lat="44.01439855399675" lon="12.570223384780828"><ele>25.999999999999996</ele><time>2026-05-01T14:57:52.689Z</time></trkpt><trkpt lat="44.01430446694373" lon="12.570225001880688"><ele>26.0</ele><time>2026-05-01T14:57:54.689Z</time></trkpt><trkpt lat="44.01430936949681" lon="12.570325500054059"><ele>26.0</ele><time>2026-05-01T14:57:55.689Z</time></trkpt><trkpt lat="44.01429749310151" lon="12.570450200563494"><ele>26.0</ele><time>2026-05-01T14:57:57.689Z</time></trkpt><trkpt lat="44.014259652977316" lon="12.570529837736935"><ele>25.999999999999996</ele><time>2026-05-01T14:57:58.689Z</time></trkpt><trkpt lat="44.01422065847852" lon="12.570636617067338"><ele>26.0</ele><time>2026-05-01T14:57:59.689Z</time></trkpt><trkpt lat="44.014179192263654" lon="12.570770838156836"><ele>26.0</ele><time>2026-05-01T14:58:00.689Z</time></trkpt><trkpt lat="44.01415271934341" lon="12.570871203986249"><ele>26.0</ele><time>2026-05-01T14:58:01.689Z</time></trkpt><trkpt lat="44.014211049534566" lon="12.571059068439084"><ele>26.0</ele><time>2026-05-01T14:58:03.689Z</time></trkpt><trkpt lat="44.01431140695924" lon="12.571147791813772"><ele>26.0</ele><time>2026-05-01T14:58:04.689Z</time></trkpt><trkpt lat="44.01442052159453" lon="12.571278610273712"><ele>28.666666666666664</ele><time>2026-05-01T14:58:05.689Z</time></trkpt><trkpt lat="44.014547793550896" lon="12.571434228339022"><ele>31.333333333333336</ele><time>2026-05-01T14:58:06.689Z</time></trkpt><trkpt lat="44.01469340326502" lon="12.571612985135543"><ele>34.0</ele><time>2026-05-01T14:58:07.689Z</time></trkpt><trkpt lat="44.01485901045396" lon="12.571815761830106"><ele>37.5</ele><time>2026-05-01T14:58:08.689Z</time></trkpt><trkpt lat="44.015036408389086" lon="12.572031043659436"><ele>41.0</ele><time>2026-05-01T14:58:09.689Z</time></trkpt><trkpt lat="44.015220641475004" lon="12.572258954335632"><ele>41.0</ele><time>2026-05-01T14:58:10.689Z</time></trkpt><trkpt lat="44.01540895172489" lon="12.572485738234727"><ele>41.0</ele><time>2026-05-01T14:58:11.689Z</time></trkpt><trkpt lat="44.01557280506256" lon="12.572686698097717"><ele>40.0</ele><time>2026-05-01T14:58:12.689Z</time></trkpt><trkpt lat="44.01571859656804" lon="12.572868744100845"><ele>39.0</ele><time>2026-05-01T14:58:13.689Z</time></trkpt><trkpt lat="44.01584727115714" lon="12.573031435541946"><ele>38.0</ele><time>2026-05-01T14:58:14.689Z</time></trkpt><trkpt lat="44.01596211995696" lon="12.573177043291816"><ele>40.5</ele><time>2026-05-01T14:58:15.689Z</time></trkpt><trkpt lat="44.01606031940417" lon="12.573304904545308"><ele>43.0</ele><time>2026-05-01T14:58:16.689Z</time></trkpt><trkpt lat="44.016139050458236" lon="12.573421241168782"><ele>45.5</ele><time>2026-05-01T14:58:17.689Z</time></trkpt><trkpt lat="44.01621183949459" lon="12.573550113864624"><ele>48.0</ele><time>2026-05-01T14:58:18.689Z</time></trkpt><trkpt lat="44.016295562847354" lon="12.573651247032805"><ele>47.599999999999994</ele><time>2026-05-01T14:58:19.689Z</time></trkpt><trkpt lat="44.016371010707296" lon="12.573753099896209"><ele>47.199999999999996</ele><time>2026-05-01T14:58:20.689Z</time></trkpt><trkpt lat="44.01646322095151" lon="12.573827053532282"><ele>46.8</ele><time>2026-05-01T14:58:21.689Z</time></trkpt><trkpt lat="44.016539532480344" lon="12.573908222324237"><ele>46.4</ele><time>2026-05-01T14:58:22.689Z</time></trkpt><trkpt lat="44.01660514743207" lon="12.57397386020494"><ele>46.0</ele><time>2026-05-01T14:58:23.689Z</time></trkpt><trkpt lat="44.016698247377626" lon="12.574020324506074"><ele>46.0</ele><time>2026-05-01T14:58:24.689Z</time></trkpt><trkpt lat="44.01680908191449" lon="12.574043181397672"><ele>46.0</ele><time>2026-05-01T14:58:25.688Z</time></trkpt><trkpt lat="44.01692974406747" lon="12.574062857534605"><ele>46.0</ele><time>2026-05-01T14:58:26.688Z</time></trkpt><trkpt lat="44.01704959930594" lon="12.574094376776708"><ele>46.0</ele><time>2026-05-01T14:58:27.688Z</time></trkpt><trkpt lat="44.017166889701365" lon="12.574144696746561"><ele>46.0</ele><time>2026-05-01T14:58:28.688Z</time></trkpt><trkpt lat="44.017285882706304" lon="12.574203766271173"><ele>46.0</ele><time>2026-05-01T14:58:29.688Z</time></trkpt><trkpt lat="44.01741407524841" lon="12.57427748863379"><ele>46.0</ele><time>2026-05-01T14:58:30.688Z</time></trkpt><trkpt lat="44.01753849784923" lon="12.574353427552063"><ele>46.0</ele><time>2026-05-01T14:58:31.688Z</time></trkpt><trkpt lat="44.01765090401412" lon="12.574433568130528"><ele>45.599999999999994</ele><time>2026-05-01T14:58:32.688Z</time></trkpt><trkpt lat="44.017759212451416" lon="12.57450551496229"><ele>45.2</ele><time>2026-05-01T14:58:33.688Z</time></trkpt><trkpt lat="44.017850618868536" lon="12.574576248624561"><ele>44.8</ele><time>2026-05-01T14:58:34.688Z</time></trkpt><trkpt lat="44.01791042729497" lon="12.574674362427146"><ele>44.400000000000006</ele><time>2026-05-01T14:58:35.688Z</time></trkpt><trkpt lat="44.01794669106129" lon="12.574800653396476"><ele>44.0</ele><time>2026-05-01T14:58:36.688Z</time></trkpt><trkpt lat="44.01800775016472" lon="12.574950954980135"><ele>44.0</ele><time>2026-05-01T14:58:37.688Z</time></trkpt><trkpt lat="44.01809246170608" lon="12.57512728786616"><ele>44.0</ele><time>2026-05-01T14:58:38.688Z</time></trkpt><trkpt lat="44.01816452014069" lon="12.575313779092093"><ele>44.0</ele><time>2026-05-01T14:58:39.688Z</time></trkpt><trkpt lat="44.018228175548735" lon="12.575480979931296"><ele>44.0</ele><time>2026-05-01T14:58:40.688Z</time></trkpt><trkpt lat="44.018280200954855" lon="12.575628999663378"><ele>44.400000000000006</ele><time>2026-05-01T14:58:41.688Z</time></trkpt><trkpt lat="44.0183162241163" lon="12.57573248359205"><ele>44.8</ele><time>2026-05-01T14:58:42.688Z</time></trkpt><trkpt lat="44.0183057120097" lon="12.575830446323648"><ele>45.2</ele><time>2026-05-01T14:58:44.688Z</time></trkpt><trkpt lat="44.01821199593276" lon="12.57588297071069"><ele>45.599999999999994</ele><time>2026-05-01T14:58:46.688Z</time></trkpt><trkpt lat="44.018128943410936" lon="12.575916089796875"><ele>46.0</ele><time>2026-05-01T14:58:47.688Z</time></trkpt><trkpt lat="44.01802170822638" lon="12.575965383148441"><ele>46.0</ele><time>2026-05-01T14:58:48.688Z</time></trkpt><trkpt lat="44.01792456031099" lon="12.576019348692666"><ele>46.0</ele><time>2026-05-01T14:58:49.688Z</time></trkpt><trkpt lat="44.01784207656959" lon="12.576061673899225"><ele>46.0</ele><time>2026-05-01T14:58:50.688Z</time></trkpt><trkpt lat="44.01777656556745" lon="12.576098602756348"><ele>46.0</ele><time>2026-05-01T14:58:51.688Z</time></trkpt><trkpt lat="44.017715118288166" lon="12.576189993429253"><ele>46.0</ele><time>2026-05-01T14:58:53.688Z</time></trkpt><trkpt lat="44.017727387733835" lon="12.576284495893114"><ele>46.0</ele><time>2026-05-01T14:58:54.688Z</time></trkpt><trkpt lat="44.01773872547733" lon="12.57642086267834"><ele>46.0</ele><time>2026-05-01T14:58:55.688Z</time></trkpt><trkpt lat="44.01775202837288" lon="12.5766265019686"><ele>46.0</ele><time>2026-05-01T14:58:56.688Z</time></trkpt><trkpt lat="44.017779154702566" lon="12.576875789033615"><ele>46.0</ele><time>2026-05-01T14:58:57.688Z</time></trkpt><trkpt lat="44.01782591479687" lon="12.577155003971464"><ele>46.0</ele><time>2026-05-01T14:58:58.688Z</time></trkpt><trkpt lat="44.01784405373212" lon="12.57747264914552"><ele>46.0</ele><time>2026-05-01T14:58:59.688Z</time></trkpt><trkpt lat="44.01789422065163" lon="12.577803870347136"><ele>47.0</ele><time>2026-05-01T14:59:00.687Z</time></trkpt><trkpt lat="44.017927221646204" lon="12.578148080532866"><ele>48.0</ele><time>2026-05-01T14:59:01.687Z</time></trkpt><trkpt lat="44.01796466317972" lon="12.57849124762781"><ele>48.33333333333333</ele><time>2026-05-01T14:59:02.687Z</time></trkpt><trkpt lat="44.01799843720066" lon="12.578786287499437"><ele>48.666666666666664</ele><time>2026-05-01T14:59:03.687Z</time></trkpt><trkpt lat="44.01802062545674" lon="12.578989279774861"><ele>49.0</ele><time>2026-05-01T14:59:04.687Z</time></trkpt><trkpt lat="44.0180353296735" lon="12.579137286796893"><ele>48.99999999999999</ele><time>2026-05-01T14:59:05.687Z</time></trkpt><trkpt lat="44.018048658698405" lon="12.579255795931873"><ele>49.0</ele><time>2026-05-01T14:59:06.687Z</time></trkpt><trkpt lat="44.01806059152251" lon="12.579376633199992"><ele>49.0</ele><time>2026-05-01T14:59:07.687Z</time></trkpt><trkpt lat="44.01807644075678" lon="12.579505531869781"><ele>49.0</ele><time>2026-05-01T14:59:08.687Z</time></trkpt><trkpt lat="44.01808511968196" lon="12.57962803733095"><ele>48.99999999999999</ele><time>2026-05-01T14:59:09.687Z</time></trkpt><trkpt lat="44.01809728289079" lon="12.579733070195307"><ele>49.0</ele><time>2026-05-01T14:59:10.687Z</time></trkpt><trkpt lat="44.01810941110789" lon="12.579841274092136"><ele>49.83333333333333</ele><time>2026-05-01T14:59:11.687Z</time></trkpt><trkpt lat="44.01812288536673" lon="12.579952680608681"><ele>50.666666666666664</ele><time>2026-05-01T14:59:12.687Z</time></trkpt><trkpt lat="44.01813489926841" lon="12.58005529686564"><ele>51.5</ele><time>2026-05-01T14:59:13.686Z</time></trkpt><trkpt lat="44.01815143204855" lon="12.580168485609416"><ele>52.33333333333333</ele><time>2026-05-01T14:59:14.687Z</time></trkpt><trkpt lat="44.0181693834459" lon="12.58028081912209"><ele>53.166666666666664</ele><time>2026-05-01T14:59:15.687Z</time></trkpt><trkpt lat="44.01816807915713" lon="12.580404971687082"><ele>54.0</ele><time>2026-05-01T14:59:16.686Z</time></trkpt><trkpt lat="44.01818112051033" lon="12.580521619836166"><ele>54.166666666666664</ele><time>2026-05-01T14:59:17.686Z</time></trkpt><trkpt lat="44.018193713139446" lon="12.580634254360817"><ele>54.33333333333333</ele><time>2026-05-01T14:59:18.686Z</time></trkpt><trkpt lat="44.01820663762611" lon="12.580749489790293"><ele>54.5</ele><time>2026-05-01T14:59:19.686Z</time></trkpt><trkpt lat="44.01821925257674" lon="12.580861670239814"><ele>54.666666666666664</ele><time>2026-05-01T14:59:20.686Z</time></trkpt><trkpt lat="44.018232143489556" lon="12.580976304651402"><ele>54.83333333333333</ele><time>2026-05-01T14:59:21.686Z</time></trkpt><trkpt lat="44.018259233553536" lon="12.581073665145059"><ele>55.0</ele><time>2026-05-01T14:59:22.686Z</time></trkpt><trkpt lat="44.018256308143286" lon="12.581214160432229"><ele>55.2</ele><time>2026-05-01T14:59:24.686Z</time></trkpt><trkpt lat="44.018272265236696" lon="12.581299260075836"><ele>55.4</ele><time>2026-05-01T14:59:34.685Z</time></trkpt><trkpt lat="44.018403690260506" lon="12.581332351737876"><ele>55.599999999999994</ele><time>2026-05-01T14:59:37.685Z</time></trkpt><trkpt lat="44.01848743256775" lon="12.581313636061513"><ele>55.8</ele><time>2026-05-01T14:59:38.685Z</time></trkpt><trkpt lat="44.01861143508573" lon="12.581285407788437"><ele>56.0</ele><time>2026-05-01T14:59:39.685Z</time></trkpt><trkpt lat="44.01874675531144" lon="12.581275089721732"><ele>56.0</ele><time>2026-05-01T14:59:40.685Z</time></trkpt><trkpt lat="44.01887476281491" lon="12.581248206179788"><ele>55.99999999999999</ele><time>2026-05-01T14:59:41.685Z</time></trkpt><trkpt lat="44.01898668705244" lon="12.581202764871751"><ele>55.99999999999999</ele><time>2026-05-01T14:59:42.685Z</time></trkpt><trkpt lat="44.019080872892125" lon="12.581187574979138"><ele>56.0</ele><time>2026-05-01T14:59:43.685Z</time></trkpt><trkpt lat="44.01917459017513" lon="12.581186789260622"><ele>56.0</ele><time>2026-05-01T14:59:44.685Z</time></trkpt><trkpt lat="44.01926869996205" lon="12.581167463764702"><ele>57.8</ele><time>2026-05-01T14:59:45.685Z</time></trkpt><trkpt lat="44.01936311505137" lon="12.58113038991775"><ele>59.599999999999994</ele><time>2026-05-01T14:59:46.685Z</time></trkpt><trkpt lat="44.019463631583044" lon="12.581114186729856"><ele>61.4</ele><time>2026-05-01T14:59:47.685Z</time></trkpt><trkpt lat="44.0195647245486" lon="12.581080619746276"><ele>63.2</ele><time>2026-05-01T14:59:48.685Z</time></trkpt><trkpt lat="44.019674177613176" lon="12.581023794144903"><ele>65.0</ele><time>2026-05-01T14:59:49.685Z</time></trkpt><trkpt lat="44.019804742846524" lon="12.58094463875009"><ele>65.0</ele><time>2026-05-01T14:59:50.685Z</time></trkpt><trkpt lat="44.01996111151287" lon="12.580853377313966"><ele>65.0</ele><time>2026-05-01T14:59:51.685Z</time></trkpt><trkpt lat="44.02013358667622" lon="12.580754806194735"><ele>65.0</ele><time>2026-05-01T14:59:52.685Z</time></trkpt><trkpt lat="44.02029342679535" lon="12.580654379215531"><ele>63.0</ele><time>2026-05-01T14:59:53.685Z</time></trkpt><trkpt lat="44.02044459389049" lon="12.58056675929193"><ele>61.0</ele><time>2026-05-01T14:59:54.685Z</time></trkpt><trkpt lat="44.020583720055406" lon="12.580490142666324"><ele>59.0</ele><time>2026-05-01T14:59:55.685Z</time></trkpt><trkpt lat="44.0207299081737" lon="12.58040539474279"><ele>57.333333333333336</ele><time>2026-05-01T14:59:56.685Z</time></trkpt><trkpt lat="44.02088100654814" lon="12.580317809176696"><ele>55.66666666666667</ele><time>2026-05-01T14:59:57.685Z</time></trkpt><trkpt lat="44.02103737401705" lon="12.580228793640966"><ele>54.0</ele><time>2026-05-01T14:59:58.685Z</time></trkpt><trkpt lat="44.02121617832124" lon="12.580136919499347"><ele>54.0</ele><time>2026-05-01T14:59:59.685Z</time></trkpt><trkpt lat="44.02139717087562" lon="12.580039218701433"><ele>54.0</ele><time>2026-05-01T15:00:00.685Z</time></trkpt><trkpt lat="44.02155341122997" lon="12.579955593446144"><ele>54.0</ele><time>2026-05-01T15:00:01.685Z</time></trkpt><trkpt lat="44.021688020307145" lon="12.579877349034332"><ele>54.25</ele><time>2026-05-01T15:00:02.684Z</time></trkpt><trkpt lat="44.02181159952664" lon="12.57980325500721"><ele>54.5</ele><time>2026-05-01T15:00:03.684Z</time></trkpt><trkpt lat="44.02192526489036" lon="12.57974123853269"><ele>54.75</ele><time>2026-05-01T15:00:04.684Z</time></trkpt><trkpt lat="44.02202235865585" lon="12.579688573743177"><ele>55.0</ele><time>2026-05-01T15:00:05.684Z</time></trkpt><trkpt lat="44.02210944300713" lon="12.579628554057672"><ele>55.0</ele><time>2026-05-01T15:00:06.684Z</time></trkpt><trkpt lat="44.022181147177946" lon="12.57955096946959"><ele>55.0</ele><time>2026-05-01T15:00:07.684Z</time></trkpt><trkpt lat="44.02222421367481" lon="12.579439279161315"><ele>55.0</ele><time>2026-05-01T15:00:08.684Z</time></trkpt><trkpt lat="44.0222387155405" lon="12.579310262480123"><ele>55.0</ele><time>2026-05-01T15:00:09.684Z</time></trkpt><trkpt lat="44.022259189046956" lon="12.579179052302537"><ele>55.0</ele><time>2026-05-01T15:00:10.684Z</time></trkpt><trkpt lat="44.02225584793583" lon="12.579071937438469"><ele>54.8</ele><time>2026-05-01T15:00:11.684Z</time></trkpt><trkpt lat="44.02232277289977" lon="12.579064372476564"><ele>54.6</ele><time>2026-05-01T15:00:13.684Z</time></trkpt><trkpt lat="44.02239460200402" lon="12.579099923740705"><ele>54.400000000000006</ele><time>2026-05-01T15:00:14.684Z</time></trkpt><trkpt lat="44.02248572115511" lon="12.579124929438239"><ele>54.2</ele><time>2026-05-01T15:00:15.684Z</time></trkpt><trkpt lat="44.022604708935866" lon="12.579127040886451"><ele>54.0</ele><time>2026-05-01T15:00:16.684Z</time></trkpt><trkpt lat="44.02273007111502" lon="12.579165369442624"><ele>54.0</ele><time>2026-05-01T15:00:17.684Z</time></trkpt><trkpt lat="44.02285983029426" lon="12.579224232240875"><ele>54.0</ele><time>2026-05-01T15:00:18.684Z</time></trkpt><trkpt lat="44.02297773525003" lon="12.579264169016847"><ele>54.0</ele><time>2026-05-01T15:00:19.684Z</time></trkpt><trkpt lat="44.023086744551364" lon="12.579287325859072"><ele>54.0</ele><time>2026-05-01T15:00:20.684Z</time></trkpt><trkpt lat="44.02319736826459" lon="12.579291650525105"><ele>51.5</ele><time>2026-05-01T15:00:21.684Z</time></trkpt><trkpt lat="44.023325454680744" lon="12.579267266927618"><ele>49.0</ele><time>2026-05-01T15:00:22.684Z</time></trkpt><trkpt lat="44.02345620195048" lon="12.579239577533425"><ele>46.5</ele><time>2026-05-01T15:00:23.684Z</time></trkpt><trkpt lat="44.02358541586664" lon="12.579214110939342"><ele>44.0</ele><time>2026-05-01T15:00:24.684Z</time></trkpt><trkpt lat="44.02371090941446" lon="12.579198750095626"><ele>44.0</ele><time>2026-05-01T15:00:25.684Z</time></trkpt><trkpt lat="44.02383962347654" lon="12.579200634661637"><ele>44.0</ele><time>2026-05-01T15:00:26.684Z</time></trkpt><trkpt lat="44.023977178146936" lon="12.57918173336499"><ele>44.0</ele><time>2026-05-01T15:00:27.684Z</time></trkpt><trkpt lat="44.02410888187742" lon="12.579163636042507"><ele>44.0</ele><time>2026-05-01T15:00:28.684Z</time></trkpt><trkpt lat="44.02424055588181" lon="12.579147174616555"><ele>42.0</ele><time>2026-05-01T15:00:29.684Z</time></trkpt><trkpt lat="44.02437005232936" lon="12.579131137247927"><ele>40.0</ele><time>2026-05-01T15:00:30.684Z</time></trkpt><trkpt lat="44.02449402271095" lon="12.579098783576791"><ele>38.0</ele><time>2026-05-01T15:00:31.684Z</time></trkpt><trkpt lat="44.02461231525359" lon="12.579086479409556"><ele>36.0</ele><time>2026-05-01T15:00:32.684Z</time></trkpt><trkpt lat="44.024729866141016" lon="12.579061585398554"><ele>36.0</ele><time>2026-05-01T15:00:33.684Z</time></trkpt><trkpt lat="44.024844876847645" lon="12.579051128488697"><ele>36.0</ele><time>2026-05-01T15:00:34.684Z</time></trkpt><trkpt lat="44.024946165449535" lon="12.579084078573786"><ele>36.0</ele><time>2026-05-01T15:00:35.684Z</time></trkpt><trkpt lat="44.02502961271256" lon="12.57911621003335"><ele>36.0</ele><time>2026-05-01T15:00:36.683Z</time></trkpt><trkpt lat="44.02510008113497" lon="12.579190999149564"><ele>36.0</ele><time>2026-05-01T15:00:37.683Z</time></trkpt><trkpt lat="44.025123729426845" lon="12.579308883613592"><ele>32.75</ele><time>2026-05-01T15:00:38.683Z</time></trkpt><trkpt lat="44.02517211567941" lon="12.579459921652978"><ele>29.5</ele><time>2026-05-01T15:00:39.683Z</time></trkpt><trkpt lat="44.025238625016655" lon="12.579610590811509"><ele>26.25</ele><time>2026-05-01T15:00:40.683Z</time></trkpt><trkpt lat="44.025303771482044" lon="12.579779922675732"><ele>23.0</ele><time>2026-05-01T15:00:41.683Z</time></trkpt><trkpt lat="44.02537675079354" lon="12.579959076697879"><ele>23.0</ele><time>2026-05-01T15:00:42.683Z</time></trkpt><trkpt lat="44.02545995278013" lon="12.58011790465268"><ele>23.0</ele><time>2026-05-01T15:00:43.683Z</time></trkpt><trkpt lat="44.02554698012549" lon="12.580277012350775"><ele>23.0</ele><time>2026-05-01T15:00:44.683Z</time></trkpt><trkpt lat="44.02563288536913" lon="12.580431444361441"><ele>23.0</ele><time>2026-05-01T15:00:45.683Z</time></trkpt><trkpt lat="44.025708762809444" lon="12.580587418763576"><ele>22.25</ele><time>2026-05-01T15:00:46.683Z</time></trkpt><trkpt lat="44.02578815614405" lon="12.580746398772133"><ele>21.5</ele><time>2026-05-01T15:00:47.683Z</time></trkpt><trkpt lat="44.02586839558999" lon="12.580902674834974"><ele>20.75</ele><time>2026-05-01T15:00:48.683Z</time></trkpt><trkpt lat="44.02594801501232" lon="12.581059362479369"><ele>20.0</ele><time>2026-05-01T15:00:49.683Z</time></trkpt><trkpt lat="44.02602519593392" lon="12.581218080379507"><ele>18.25</ele><time>2026-05-01T15:00:50.683Z</time></trkpt><trkpt lat="44.02610687623869" lon="12.581341540451964"><ele>16.5</ele><time>2026-05-01T15:00:51.683Z</time></trkpt><trkpt lat="44.02617937232943" lon="12.58149076801471"><ele>14.75</ele><time>2026-05-01T15:00:52.683Z</time></trkpt><trkpt lat="44.02624474889499" lon="12.581628503740594"><ele>13.0</ele><time>2026-05-01T15:00:53.683Z</time></trkpt><trkpt lat="44.02630408181691" lon="12.581751805892798"><ele>13.0</ele><time>2026-05-01T15:00:54.683Z</time></trkpt><trkpt lat="44.02635518811306" lon="12.58185081620484"><ele>13.0</ele><time>2026-05-01T15:00:55.683Z</time></trkpt><trkpt lat="44.02639821623337" lon="12.581955160881646"><ele>13.0</ele><time>2026-05-01T15:00:57.683Z</time></trkpt><trkpt lat="44.02643458832784" lon="12.582055077714214"><ele>13.0</ele><time>2026-05-01T15:01:20.682Z</time></trkpt><trkpt lat="44.02656241062177" lon="12.582005653136216"><ele>13.0</ele><time>2026-05-01T15:01:23.682Z</time></trkpt><trkpt lat="44.026620861862995" lon="12.581939073217407"><ele>12.600000000000001</ele><time>2026-05-01T15:01:24.681Z</time></trkpt><trkpt lat="44.02669425156047" lon="12.581865647187266"><ele>12.200000000000001</ele><time>2026-05-01T15:01:25.681Z</time></trkpt><trkpt lat="44.0267737675513" lon="12.58177378355664"><ele>11.8</ele><time>2026-05-01T15:01:26.681Z</time></trkpt><trkpt lat="44.026873101079296" lon="12.581663583370194"><ele>11.4</ele><time>2026-05-01T15:01:27.681Z</time></trkpt><trkpt lat="44.026971923415225" lon="12.581553692803718"><ele>11.0</ele><time>2026-05-01T15:01:28.681Z</time></trkpt><trkpt lat="44.0270736525968" lon="12.58144160735161"><ele>11.0</ele><time>2026-05-01T15:01:29.681Z</time></trkpt><trkpt lat="44.02717629021658" lon="12.581328828486374"><ele>11.0</ele><time>2026-05-01T15:01:30.681Z</time></trkpt><trkpt lat="44.02727881528185" lon="12.581209472306133"><ele>11.0</ele><time>2026-05-01T15:01:31.681Z</time></trkpt><trkpt lat="44.027383606687515" lon="12.581096990200244"><ele>11.0</ele><time>2026-05-01T15:01:32.681Z</time></trkpt><trkpt lat="44.02748826617782" lon="12.580986599506312"><ele>11.0</ele><time>2026-05-01T15:01:33.681Z</time></trkpt><trkpt lat="44.02759531560493" lon="12.580877556665424"><ele>11.0</ele><time>2026-05-01T15:01:34.681Z</time></trkpt><trkpt lat="44.02770346529866" lon="12.580770173862499"><ele>11.0</ele><time>2026-05-01T15:01:35.681Z</time></trkpt><trkpt lat="44.02781604570339" lon="12.58065616952281"><ele>11.0</ele><time>2026-05-01T15:01:36.681Z</time></trkpt><trkpt lat="44.027931029776695" lon="12.580550979513774"><ele>11.0</ele><time>2026-05-01T15:01:37.681Z</time></trkpt><trkpt lat="44.02807471546131" lon="12.580430087628528"><ele>11.0</ele><time>2026-05-01T15:01:38.681Z</time></trkpt><trkpt lat="44.02824368276371" lon="12.580339431086482"><ele>11.0</ele><time>2026-05-01T15:01:39.681Z</time></trkpt><trkpt lat="44.0284124702026" lon="12.580294994310893"><ele>11.0</ele><time>2026-05-01T15:01:40.681Z</time></trkpt><trkpt lat="44.02856903958308" lon="12.580300309076112"><ele>11.0</ele><time>2026-05-01T15:01:41.681Z</time></trkpt><trkpt lat="44.02873967142849" lon="12.580362803946855"><ele>11.0</ele><time>2026-05-01T15:01:42.681Z</time></trkpt><trkpt lat="44.02891041481104" lon="12.580445062506998"><ele>11.0</ele><time>2026-05-01T15:01:43.681Z</time></trkpt><trkpt lat="44.029071919020666" lon="12.580531092732413"><ele>11.0</ele><time>2026-05-01T15:01:44.681Z</time></trkpt><trkpt lat="44.02922798894632" lon="12.58062682975783"><ele>11.0</ele><time>2026-05-01T15:01:45.681Z</time></trkpt><trkpt lat="44.029380915245696" lon="12.580731855069773"><ele>11.0</ele><time>2026-05-01T15:01:46.681Z</time></trkpt><trkpt lat="44.029529026227706" lon="12.580830177174201"><ele>11.0</ele><time>2026-05-01T15:01:47.681Z</time></trkpt><trkpt lat="44.029679977083475" lon="12.580920204268512"><ele>11.0</ele><time>2026-05-01T15:01:48.681Z</time></trkpt><trkpt lat="44.029831677727636" lon="12.58098597240609"><ele>11.666666666666666</ele><time>2026-05-01T15:01:49.681Z</time></trkpt><trkpt lat="44.02998316114188" lon="12.581016134531543"><ele>12.333333333333332</ele><time>2026-05-01T15:01:50.681Z</time></trkpt><trkpt lat="44.03013784679013" lon="12.58100041176117"><ele>13.0</ele><time>2026-05-01T15:01:51.681Z</time></trkpt><trkpt lat="44.03029881197361" lon="12.580946423725475"><ele>13.0</ele><time>2026-05-01T15:01:52.681Z</time></trkpt><trkpt lat="44.030445618769754" lon="12.580879731924181"><ele>13.0</ele><time>2026-05-01T15:01:53.681Z</time></trkpt><trkpt lat="44.03058118046925" lon="12.580826147585487"><ele>13.0</ele><time>2026-05-01T15:01:54.681Z</time></trkpt><trkpt lat="44.03071531628376" lon="12.580786670049227"><ele>13.0</ele><time>2026-05-01T15:01:55.681Z</time></trkpt><trkpt lat="44.03085184055011" lon="12.580775493974464"><ele>12.25</ele><time>2026-05-01T15:01:56.681Z</time></trkpt><trkpt lat="44.0309889301594" lon="12.58076826127585"><ele>11.5</ele><time>2026-05-01T15:01:57.681Z</time></trkpt><trkpt lat="44.031121536435435" lon="12.580774210178253"><ele>10.75</ele><time>2026-05-01T15:01:58.681Z</time></trkpt><trkpt lat="44.03125360044815" lon="12.580810892887046"><ele>10.0</ele><time>2026-05-01T15:01:59.68Z</time></trkpt><trkpt lat="44.03138598391493" lon="12.580854003493577"><ele>10.0</ele><time>2026-05-01T15:02:00.68Z</time></trkpt><trkpt lat="44.031524427651995" lon="12.580925616837167"><ele>10.0</ele><time>2026-05-01T15:02:01.68Z</time></trkpt><trkpt lat="44.03166705409664" lon="12.580955699614089"><ele>10.0</ele><time>2026-05-01T15:02:02.68Z</time></trkpt><trkpt lat="44.031804153525684" lon="12.58101317144874"><ele>10.0</ele><time>2026-05-01T15:02:03.68Z</time></trkpt><trkpt lat="44.03194852993212" lon="12.58107431680231"><ele>10.0</ele><time>2026-05-01T15:02:04.68Z</time></trkpt><trkpt lat="44.03208955275615" lon="12.581131323603364"><ele>10.0</ele><time>2026-05-01T15:02:05.68Z</time></trkpt><trkpt lat="44.03223287910769" lon="12.581181545332228"><ele>10.0</ele><time>2026-05-01T15:02:06.68Z</time></trkpt><trkpt lat="44.03237692075476" lon="12.581230392485303"><ele>10.0</ele><time>2026-05-01T15:02:07.68Z</time></trkpt><trkpt lat="44.03252363826179" lon="12.581276657262388"><ele>10.0</ele><time>2026-05-01T15:02:08.68Z</time></trkpt><trkpt lat="44.032666552079746" lon="12.581321498910778"><ele>10.0</ele><time>2026-05-01T15:02:09.68Z</time></trkpt><trkpt lat="44.032805796950775" lon="12.581361365632473"><ele>10.0</ele><time>2026-05-01T15:02:10.68Z</time></trkpt><trkpt lat="44.0329525386489" lon="12.581391852762184"><ele>10.0</ele><time>2026-05-01T15:02:11.68Z</time></trkpt><trkpt lat="44.03309521265494" lon="12.581396988616413"><ele>10.0</ele><time>2026-05-01T15:02:12.68Z</time></trkpt><trkpt lat="44.033243988911664" lon="12.581393606346982"><ele>10.0</ele><time>2026-05-01T15:02:13.68Z</time></trkpt><trkpt lat="44.033391074720065" lon="12.58137071908458"><ele>10.0</ele><time>2026-05-01T15:02:14.68Z</time></trkpt><trkpt lat="44.033541318251565" lon="12.58133848725404"><ele>10.0</ele><time>2026-05-01T15:02:15.68Z</time></trkpt><trkpt lat="44.033683353409955" lon="12.581306524193291"><ele>10.0</ele><time>2026-05-01T15:02:16.68Z</time></trkpt><trkpt lat="44.03381759236611" lon="12.581280849668753"><ele>10.0</ele><time>2026-05-01T15:02:17.68Z</time></trkpt><trkpt lat="44.03394641230815" lon="12.58126243185889"><ele>10.0</ele><time>2026-05-01T15:02:18.68Z</time></trkpt><trkpt lat="44.03407654388287" lon="12.581241530435978"><ele>10.0</ele><time>2026-05-01T15:02:19.68Z</time></trkpt><trkpt lat="44.03419963337367" lon="12.581209679705568"><ele>10.25</ele><time>2026-05-01T15:02:20.68Z</time></trkpt><trkpt lat="44.03431901759836" lon="12.581168313026657"><ele>10.5</ele><time>2026-05-01T15:02:21.68Z</time></trkpt><trkpt lat="44.03443498247267" lon="12.581118665399234"><ele>10.75</ele><time>2026-05-01T15:02:22.68Z</time></trkpt><trkpt lat="44.034550960501655" lon="12.581046576691692"><ele>11.0</ele><time>2026-05-01T15:02:23.68Z</time></trkpt><trkpt lat="44.03466710359747" lon="12.580961568917916"><ele>11.0</ele><time>2026-05-01T15:02:24.68Z</time></trkpt><trkpt lat="44.034786359658334" lon="12.580861514211266"><ele>11.0</ele><time>2026-05-01T15:02:25.68Z</time></trkpt><trkpt lat="44.03490725353968" lon="12.580754350676392"><ele>11.0</ele><time>2026-05-01T15:02:26.68Z</time></trkpt><trkpt lat="44.035028741120406" lon="12.580643123924443"><ele>11.0</ele><time>2026-05-01T15:02:27.68Z</time></trkpt><trkpt lat="44.03514580642944" lon="12.58053668577928"><ele>11.0</ele><time>2026-05-01T15:02:28.68Z</time></trkpt><trkpt lat="44.03525258367796" lon="12.580440971885855"><ele>11.0</ele><time>2026-05-01T15:02:29.68Z</time></trkpt><trkpt lat="44.03535191115123" lon="12.580349934742712"><ele>11.0</ele><time>2026-05-01T15:02:30.68Z</time></trkpt><trkpt lat="44.035445547959355" lon="12.580272613079012"><ele>11.0</ele><time>2026-05-01T15:02:31.68Z</time></trkpt><trkpt lat="44.03551893270099" lon="12.580202941279282"><ele>11.0</ele><time>2026-05-01T15:02:32.68Z</time></trkpt><trkpt lat="44.03561232603312" lon="12.580141559161705"><ele>11.0</ele><time>2026-05-01T15:02:34.679Z</time></trkpt><trkpt lat="44.03571173229994" lon="12.580150321548063"><ele>11.0</ele><time>2026-05-01T15:02:36.679Z</time></trkpt><trkpt lat="44.03578739453987" lon="12.5801541607142"><ele>11.0</ele><time>2026-05-01T15:02:37.679Z</time></trkpt><trkpt lat="44.035883113489625" lon="12.580147695602529"><ele>11.0</ele><time>2026-05-01T15:02:38.679Z</time></trkpt><trkpt lat="44.035968046296304" lon="12.580090517063958"><ele>11.0</ele><time>2026-05-01T15:02:39.679Z</time></trkpt><trkpt lat="44.036031331827154" lon="12.579989600173997"><ele>11.0</ele><time>2026-05-01T15:02:40.679Z</time></trkpt><trkpt lat="44.036091124696604" lon="12.57985826639519"><ele>11.0</ele><time>2026-05-01T15:02:41.679Z</time></trkpt><trkpt lat="44.036165359212056" lon="12.579737377805575"><ele>11.0</ele><time>2026-05-01T15:02:42.679Z</time></trkpt><trkpt lat="44.036255312567015" lon="12.579666938105516"><ele>11.0</ele><time>2026-05-01T15:02:43.679Z</time></trkpt><trkpt lat="44.036369981983675" lon="12.579621437100599"><ele>11.0</ele><time>2026-05-01T15:02:44.679Z</time></trkpt><trkpt lat="44.03649737348955" lon="12.57962702228299"><ele>11.0</ele><time>2026-05-01T15:02:45.679Z</time></trkpt><trkpt lat="44.036620601689144" lon="12.579625156476364"><ele>11.0</ele><time>2026-05-01T15:02:46.679Z</time></trkpt><trkpt lat="44.03675873897511" lon="12.579630231210185"><ele>11.0</ele><time>2026-05-01T15:02:47.679Z</time></trkpt><trkpt lat="44.03690375639322" lon="12.579634868629528"><ele>11.0</ele><time>2026-05-01T15:02:48.679Z</time></trkpt><trkpt lat="44.03705083098298" lon="12.579639552745098"><ele>11.0</ele><time>2026-05-01T15:02:49.679Z</time></trkpt><trkpt lat="44.03721782857279" lon="12.579644871378052"><ele>11.0</ele><time>2026-05-01T15:02:50.679Z</time></trkpt><trkpt lat="44.037419596369375" lon="12.579651297396303"><ele>11.0</ele><time>2026-05-01T15:02:51.679Z</time></trkpt><trkpt lat="44.0376194238" lon="12.579657661625902"><ele>10.333333333333332</ele><time>2026-05-01T15:02:52.679Z</time></trkpt><trkpt lat="44.037793704037064" lon="12.579647091105098"><ele>9.666666666666666</ele><time>2026-05-01T15:02:53.679Z</time></trkpt><trkpt lat="44.037955065715984" lon="12.579653622307555"><ele>9.0</ele><time>2026-05-01T15:02:54.679Z</time></trkpt><trkpt lat="44.038102137324685" lon="12.57966293968991"><ele>9.0</ele><time>2026-05-01T15:02:55.679Z</time></trkpt><trkpt lat="44.0382290833161" lon="12.579672554592202"><ele>9.0</ele><time>2026-05-01T15:02:56.679Z</time></trkpt><trkpt lat="44.03834296108964" lon="12.579675126811901"><ele>9.0</ele><time>2026-05-01T15:02:57.679Z</time></trkpt><trkpt lat="44.03845080070372" lon="12.579668370640196"><ele>9.0</ele><time>2026-05-01T15:02:58.679Z</time></trkpt><trkpt lat="44.03855455233858" lon="12.579663324172687"><ele>9.166666666666666</ele><time>2026-05-01T15:02:59.679Z</time></trkpt><trkpt lat="44.038652410784266" lon="12.579653043111609"><ele>9.333333333333334</ele><time>2026-05-01T15:03:00.679Z</time></trkpt><trkpt lat="44.03873627901435" lon="12.579640171127105"><ele>9.5</ele><time>2026-05-01T15:03:01.679Z</time></trkpt><trkpt lat="44.03881532756967" lon="12.579627027582143"><ele>9.666666666666668</ele><time>2026-05-01T15:03:02.679Z</time></trkpt><trkpt lat="44.038892030961826" lon="12.579615109629733"><ele>9.833333333333334</ele><time>2026-05-01T15:03:03.679Z</time></trkpt><trkpt lat="44.03897162928405" lon="12.579616720410398"><ele>10.0</ele><time>2026-05-01T15:03:04.679Z</time></trkpt><trkpt lat="44.03905650416871" lon="12.579658278231207"><ele>9.666666666666668</ele><time>2026-05-01T15:03:05.679Z</time></trkpt><trkpt lat="44.03913634026584" lon="12.579730612854053"><ele>9.333333333333334</ele><time>2026-05-01T15:03:06.679Z</time></trkpt><trkpt lat="44.039208372375604" lon="12.579822190907056"><ele>9.0</ele><time>2026-05-01T15:03:07.679Z</time></trkpt><trkpt lat="44.03926490242915" lon="12.579908685080905"><ele>8.666666666666666</ele><time>2026-05-01T15:03:08.678Z</time></trkpt><trkpt lat="44.0393251833471" lon="12.579961652328098"><ele>8.333333333333332</ele><time>2026-05-01T15:03:09.678Z</time></trkpt><trkpt lat="44.039390988059004" lon="12.579977461348133"><ele>8.0</ele><time>2026-05-01T15:03:10.678Z</time></trkpt><trkpt lat="44.03946022607406" lon="12.5799623845892"><ele>8.0</ele><time>2026-05-01T15:03:11.678Z</time></trkpt><trkpt lat="44.039538145165494" lon="12.57994451178325"><ele>8.0</ele><time>2026-05-01T15:03:12.678Z</time></trkpt><trkpt lat="44.03963100292501" lon="12.579930268127441"><ele>8.0</ele><time>2026-05-01T15:03:13.678Z</time></trkpt><trkpt lat="44.03973451671916" lon="12.57997438733422"><ele>8.0</ele><time>2026-05-01T15:03:14.678Z</time></trkpt><trkpt lat="44.03982574718163" lon="12.58005241655241"><ele>8.0</ele><time>2026-05-01T15:03:15.678Z</time></trkpt><trkpt lat="44.03992413218231" lon="12.580158523751567"><ele>8.0</ele><time>2026-05-01T15:03:16.677Z</time></trkpt><trkpt lat="44.04003561996405" lon="12.5802821295702"><ele>8.0</ele><time>2026-05-01T15:03:17.677Z</time></trkpt><trkpt lat="44.040183765859545" lon="12.580427353217338"><ele>8.0</ele><time>2026-05-01T15:03:18.677Z</time></trkpt><trkpt lat="44.040325181043194" lon="12.580585891687196"><ele>8.0</ele><time>2026-05-01T15:03:19.677Z</time></trkpt><trkpt lat="44.040449290456756" lon="12.580723904105927"><ele>8.0</ele><time>2026-05-01T15:03:20.677Z</time></trkpt><trkpt lat="44.040573223659145" lon="12.580846279746101"><ele>8.0</ele><time>2026-05-01T15:03:21.677Z</time></trkpt><trkpt lat="44.04069268812559" lon="12.580966402900719"><ele>8.0</ele><time>2026-05-01T15:03:22.677Z</time></trkpt><trkpt lat="44.040800791673" lon="12.581089735303092"><ele>8.0</ele><time>2026-05-01T15:03:23.677Z</time></trkpt><trkpt lat="44.0409179880963" lon="12.581219690021749"><ele>8.0</ele><time>2026-05-01T15:03:24.677Z</time></trkpt><trkpt lat="44.04106235218188" lon="12.58131702954095"><ele>7.0</ele><time>2026-05-01T15:03:25.677Z</time></trkpt><trkpt lat="44.04118469000119" lon="12.581436094884653"><ele>6.0</ele><time>2026-05-01T15:03:26.676Z</time></trkpt><trkpt lat="44.04124397698292" lon="12.5816458860838"><ele>5.0</ele><time>2026-05-01T15:03:27.676Z</time></trkpt><trkpt lat="44.041314981654864" lon="12.58181027646015"><ele>4.0</ele><time>2026-05-01T15:03:28.676Z</time></trkpt><trkpt lat="44.041370546327485" lon="12.58197229343973"><ele>4.25</ele><time>2026-05-01T15:03:29.677Z</time></trkpt><trkpt lat="44.04139787326108" lon="12.582127895542618"><ele>4.5</ele><time>2026-05-01T15:03:30.677Z</time></trkpt><trkpt lat="44.04139074967763" lon="12.582301552277142"><ele>4.75</ele><time>2026-05-01T15:03:31.676Z</time></trkpt><trkpt lat="44.04136527729737" lon="12.582523139794414"><ele>5.0</ele><time>2026-05-01T15:03:32.676Z</time></trkpt><trkpt lat="44.04134793900783" lon="12.582758425751575"><ele>5.25</ele><time>2026-05-01T15:03:33.676Z</time></trkpt><trkpt lat="44.04133448464303" lon="12.582963876709222"><ele>5.5</ele><time>2026-05-01T15:03:34.676Z</time></trkpt><trkpt lat="44.041329644575924" lon="12.58315730700564"><ele>5.75</ele><time>2026-05-01T15:03:35.676Z</time></trkpt><trkpt lat="44.0413149162718" lon="12.583344797068381"><ele>6.0</ele><time>2026-05-01T15:03:36.676Z</time></trkpt><trkpt lat="44.041305802283766" lon="12.583539766195118"><ele>5.25</ele><time>2026-05-01T15:03:37.676Z</time></trkpt><trkpt lat="44.04129288667557" lon="12.583744354796366"><ele>4.5</ele><time>2026-05-01T15:03:38.676Z</time></trkpt><trkpt lat="44.041282325600264" lon="12.583940780629382"><ele>3.75</ele><time>2026-05-01T15:03:39.676Z</time></trkpt><trkpt lat="44.04129117515674" lon="12.584154396490929"><ele>3.0</ele><time>2026-05-01T15:03:40.676Z</time></trkpt><trkpt lat="44.04130636442043" lon="12.584424359264668"><ele>3.333333333333333</ele><time>2026-05-01T15:03:41.676Z</time></trkpt><trkpt lat="44.04129071225271" lon="12.584720017234384"><ele>3.6666666666666665</ele><time>2026-05-01T15:03:42.676Z</time></trkpt><trkpt lat="44.041263374276866" lon="12.585035272450698"><ele>4.0</ele><time>2026-05-01T15:03:43.676Z</time></trkpt><trkpt lat="44.04126625380315" lon="12.585387926772098"><ele>4.0</ele><time>2026-05-01T15:03:44.676Z</time></trkpt><trkpt lat="44.04125474654216" lon="12.585763542304164"><ele>4.0</ele><time>2026-05-01T15:03:45.676Z</time></trkpt><trkpt lat="44.04122836604957" lon="12.586127136288994"><ele>4.0</ele><time>2026-05-01T15:03:46.676Z</time></trkpt><trkpt lat="44.04119524715414" lon="12.586462930560808"><ele>4.0</ele><time>2026-05-01T15:03:47.676Z</time></trkpt><trkpt lat="44.0411704915291" lon="12.586774245938962"><ele>4.333333333333333</ele><time>2026-05-01T15:03:48.676Z</time></trkpt><trkpt lat="44.04115745121357" lon="12.587065562200833"><ele>4.666666666666667</ele><time>2026-05-01T15:03:49.676Z</time></trkpt><trkpt lat="44.04114797996135" lon="12.587340587571388"><ele>5.0</ele><time>2026-05-01T15:03:50.676Z</time></trkpt><trkpt lat="44.04113718113262" lon="12.587641418605603"><ele>4.0</ele><time>2026-05-01T15:03:51.676Z</time></trkpt><trkpt lat="44.04113479945909" lon="12.587942120611162"><ele>3.0</ele><time>2026-05-01T15:03:52.676Z</time></trkpt><trkpt lat="44.04112484029858" lon="12.588224863614801"><ele>2.0</ele><time>2026-05-01T15:03:53.676Z</time></trkpt><trkpt lat="44.04111012326528" lon="12.58848037361374"><ele>2.333333333333333</ele><time>2026-05-01T15:03:54.676Z</time></trkpt><trkpt lat="44.04109314238675" lon="12.58872361406494"><ele>2.6666666666666665</ele><time>2026-05-01T15:03:55.676Z</time></trkpt><trkpt lat="44.041074001133445" lon="12.588952202250509"><ele>3.0</ele><time>2026-05-01T15:03:56.676Z</time></trkpt><trkpt lat="44.04105301808783" lon="12.589164083682459"><ele>3.0</ele><time>2026-05-01T15:03:57.676Z</time></trkpt><trkpt lat="44.04102339794265" lon="12.589360889208793"><ele>3.0</ele><time>2026-05-01T15:03:58.676Z</time></trkpt><trkpt lat="44.04098813661342" lon="12.589548133397479"><ele>3.0</ele><time>2026-05-01T15:03:59.676Z</time></trkpt><trkpt lat="44.040940702652435" lon="12.589720365192509"><ele>3.0</ele><time>2026-05-01T15:04:00.676Z</time></trkpt><trkpt lat="44.040878386947576" lon="12.58987773041809"><ele>3.0</ele><time>2026-05-01T15:04:01.676Z</time></trkpt><trkpt lat="44.040807443004375" lon="12.590001736870937"><ele>3.0</ele><time>2026-05-01T15:04:02.676Z</time></trkpt><trkpt lat="44.04073438141952" lon="12.590093535438559"><ele>3.0</ele><time>2026-05-01T15:04:03.676Z</time></trkpt><trkpt lat="44.04066443630146" lon="12.590154700337566"><ele>3.0</ele><time>2026-05-01T15:04:04.676Z</time></trkpt><trkpt lat="44.04059761931548" lon="12.590195433043984"><ele>3.0</ele><time>2026-05-01T15:04:06.675Z</time></trkpt><trkpt lat="44.040477828985274" lon="12.590285756471454"><ele>3.0</ele><time>2026-05-01T15:04:08.675Z</time></trkpt><trkpt lat="44.04036584192497" lon="12.590360780928153"><ele>3.0</ele><time>2026-05-01T15:04:09.675Z</time></trkpt><trkpt lat="44.040235318293476" lon="12.590460740242024"><ele>3.0</ele><time>2026-05-01T15:04:10.675Z</time></trkpt><trkpt lat="44.040144470686805" lon="12.590602946139308"><ele>3.0</ele><time>2026-05-01T15:04:11.675Z</time></trkpt><trkpt lat="44.04009104230862" lon="12.590778538451348"><ele>3.0</ele><time>2026-05-01T15:04:12.675Z</time></trkpt><trkpt lat="44.04008554293966" lon="12.590965537642646"><ele>3.0</ele><time>2026-05-01T15:04:13.675Z</time></trkpt><trkpt lat="44.040116037239564" lon="12.591154524391575"><ele>3.0</ele><time>2026-05-01T15:04:14.675Z</time></trkpt><trkpt lat="44.04018051642406" lon="12.591329692714291"><ele>3.0</ele><time>2026-05-01T15:04:15.675Z</time></trkpt><trkpt lat="44.040272118342195" lon="12.591478820851911"><ele>2.75</ele><time>2026-05-01T15:04:16.675Z</time></trkpt><trkpt lat="44.04038781197383" lon="12.59158764869828"><ele>2.5</ele><time>2026-05-01T15:04:17.675Z</time></trkpt><trkpt lat="44.040524572248934" lon="12.591644107088163"><ele>2.25</ele><time>2026-05-01T15:04:18.675Z</time></trkpt><trkpt lat="44.04065642759098" lon="12.591656442145673"><ele>2.0</ele><time>2026-05-01T15:04:19.675Z</time></trkpt><trkpt lat="44.0407842330567" lon="12.591627344453093"><ele>2.75</ele><time>2026-05-01T15:04:20.675Z</time></trkpt><trkpt lat="44.04088073892923" lon="12.591535225414217"><ele>3.5</ele><time>2026-05-01T15:04:21.675Z</time></trkpt><trkpt lat="44.04097923072228" lon="12.591414292941458"><ele>4.25</ele><time>2026-05-01T15:04:22.675Z</time></trkpt><trkpt lat="44.0410505515108" lon="12.591274581669689"><ele>5.0</ele><time>2026-05-01T15:04:23.675Z</time></trkpt><trkpt lat="44.04109898247714" lon="12.591099549797509"><ele>5.0</ele><time>2026-05-01T15:04:24.675Z</time></trkpt><trkpt lat="44.041202237005244" lon="12.590959768146096"><ele>5.0</ele><time>2026-05-01T15:04:25.675Z</time></trkpt><trkpt lat="44.041260867516336" lon="12.590810520647985"><ele>5.0</ele><time>2026-05-01T15:04:26.675Z</time></trkpt><trkpt lat="44.041374398034776" lon="12.59069140766371"><ele>5.0</ele><time>2026-05-01T15:04:27.675Z</time></trkpt><trkpt lat="44.041507179535834" lon="12.590599617121226"><ele>5.0</ele><time>2026-05-01T15:04:28.675Z</time></trkpt><trkpt lat="44.041592408274525" lon="12.590516575431769"><ele>5.0</ele><time>2026-05-01T15:04:29.675Z</time></trkpt><trkpt lat="44.041661364633235" lon="12.590473108896813"><ele>5.0</ele><time>2026-05-01T15:04:30.675Z</time></trkpt><trkpt lat="44.041723990493246" lon="12.590486431386655"><ele>5.0</ele><time>2026-05-01T15:04:31.675Z</time></trkpt><trkpt lat="44.041865964035686" lon="12.590635490744864"><ele>5.0</ele><time>2026-05-01T15:04:33.675Z</time></trkpt><trkpt lat="44.04193569407698" lon="12.590776705233933"><ele>5.5</ele><time>2026-05-01T15:04:34.675Z</time></trkpt><trkpt lat="44.04202270876877" lon="12.59091399255958"><ele>6.0</ele><time>2026-05-01T15:04:35.675Z</time></trkpt><trkpt lat="44.042122096139416" lon="12.59106032502886"><ele>6.5</ele><time>2026-05-01T15:04:36.675Z</time></trkpt><trkpt lat="44.042210667412895" lon="12.59119598808381"><ele>7.0</ele><time>2026-05-01T15:04:37.675Z</time></trkpt><trkpt lat="44.042295209938366" lon="12.59132349174858"><ele>7.0</ele><time>2026-05-01T15:04:38.675Z</time></trkpt><trkpt lat="44.042364107573896" lon="12.591428384339038"><ele>6.999999999999999</ele><time>2026-05-01T15:04:39.675Z</time></trkpt><trkpt lat="44.04243373034454" lon="12.591520479695888"><ele>6.999999999999999</ele><time>2026-05-01T15:04:40.674Z</time></trkpt><trkpt lat="44.042501634267104" lon="12.591597207839312"><ele>7.0</ele><time>2026-05-01T15:04:41.674Z</time></trkpt><trkpt lat="44.04255997402999" lon="12.591684815210172"><ele>7.0</ele><time>2026-05-01T15:04:42.674Z</time></trkpt><trkpt lat="44.04261859108529" lon="12.591767294977043"><ele>6.6</ele><time>2026-05-01T15:04:43.674Z</time></trkpt><trkpt lat="44.04268808034336" lon="12.59187212898748"><ele>6.199999999999999</ele><time>2026-05-01T15:04:44.674Z</time></trkpt><trkpt lat="44.04276961930284" lon="12.59197833342001"><ele>5.8</ele><time>2026-05-01T15:04:45.674Z</time></trkpt><trkpt lat="44.042850028864734" lon="12.592096226588136"><ele>5.4</ele><time>2026-05-01T15:04:46.674Z</time></trkpt><trkpt lat="44.042918122408096" lon="12.592212865470021"><ele>5.0</ele><time>2026-05-01T15:04:47.674Z</time></trkpt><trkpt lat="44.042989418467805" lon="12.592315713591912"><ele>5.0</ele><time>2026-05-01T15:04:48.674Z</time></trkpt><trkpt lat="44.043056739740386" lon="12.592411784500095"><ele>5.0</ele><time>2026-05-01T15:04:49.674Z</time></trkpt><trkpt lat="44.043116700965115" lon="12.592497352288513"><ele>5.0</ele><time>2026-05-01T15:04:50.674Z</time></trkpt><trkpt lat="44.043161602755546" lon="12.592561395771448"><ele>5.0</ele><time>2026-05-01T15:04:51.674Z</time></trkpt><trkpt lat="44.04322658804752" lon="12.592624720315028"><ele>5.0</ele><time>2026-05-01T15:05:00.674Z</time></trkpt><trkpt lat="44.04328751602231" lon="12.592692784154359"><ele>5.0</ele><time>2026-05-01T15:05:02.674Z</time></trkpt><trkpt lat="44.043349202357206" lon="12.592789602316836"><ele>4.833333333333334</ele><time>2026-05-01T15:05:04.674Z</time></trkpt><trkpt lat="44.043407910754595" lon="12.592905759762646"><ele>4.666666666666667</ele><time>2026-05-01T15:05:06.674Z</time></trkpt><trkpt lat="44.04345202382316" lon="12.59298305093694"><ele>4.5</ele><time>2026-05-01T15:05:07.674Z</time></trkpt><trkpt lat="44.04350184168551" lon="12.593064364722226"><ele>4.333333333333333</ele><time>2026-05-01T15:05:08.674Z</time></trkpt><trkpt lat="44.04356655934467" lon="12.593138721275864"><ele>4.166666666666666</ele><time>2026-05-01T15:05:09.674Z</time></trkpt><trkpt lat="44.04362944568509" lon="12.593228163563321"><ele>4.0</ele><time>2026-05-01T15:05:10.674Z</time></trkpt><trkpt lat="44.043712458937335" lon="12.593346232085423"><ele>4.0</ele><time>2026-05-01T15:05:11.674Z</time></trkpt><trkpt lat="44.04380421138929" lon="12.59347673021443"><ele>4.0</ele><time>2026-05-01T15:05:12.674Z</time></trkpt><trkpt lat="44.04388928665463" lon="12.5935977315011"><ele>4.0</ele><time>2026-05-01T15:05:13.674Z</time></trkpt><trkpt lat="44.043973864536426" lon="12.593719561934764"><ele>4.0</ele><time>2026-05-01T15:05:14.674Z</time></trkpt><trkpt lat="44.04405203252148" lon="12.593833877402608"><ele>3.833333333333333</ele><time>2026-05-01T15:05:15.673Z</time></trkpt><trkpt lat="44.044112256382604" lon="12.593945993180744"><ele>3.6666666666666665</ele><time>2026-05-01T15:05:16.673Z</time></trkpt><trkpt lat="44.0441719483358" lon="12.594034437047426"><ele>3.5</ele><time>2026-05-01T15:05:17.673Z</time></trkpt><trkpt lat="44.04422631534014" lon="12.594117603416327"><ele>3.333333333333333</ele><time>2026-05-01T15:05:18.673Z</time></trkpt><trkpt lat="44.04427296795837" lon="12.594192748216246"><ele>3.1666666666666665</ele><time>2026-05-01T15:05:19.673Z</time></trkpt><trkpt lat="44.04432177736573" lon="12.594279713264886"><ele>3.0</ele><time>2026-05-01T15:05:20.673Z</time></trkpt><trkpt lat="44.04437286745483" lon="12.594371534216306"><ele>3.0</ele><time>2026-05-01T15:05:21.673Z</time></trkpt><trkpt lat="44.044414235870015" lon="12.594465069770546"><ele>3.0</ele><time>2026-05-01T15:05:22.67Z</time></trkpt><trkpt lat="44.04445976815654" lon="12.594564818953064"><ele>3.0</ele><time>2026-05-01T15:05:23.669Z</time></trkpt><trkpt lat="44.04451255475911" lon="12.594674849164855"><ele>3.0</ele><time>2026-05-01T15:05:24.669Z</time></trkpt><trkpt lat="44.044554895788636" lon="12.594792805620079"><ele>3.0</ele><time>2026-05-01T15:05:25.669Z</time></trkpt><trkpt lat="44.044595508542216" lon="12.594908060601586"><ele>3.0</ele><time>2026-05-01T15:05:26.669Z</time></trkpt><trkpt lat="44.04463736679607" lon="12.594997186992808"><ele>3.0</ele><time>2026-05-01T15:05:27.669Z</time></trkpt><trkpt lat="44.04468100114878" lon="12.595085347554399"><ele>3.0</ele><time>2026-05-01T15:05:28.669Z</time></trkpt><trkpt lat="44.0447215331035" lon="12.595165246660859"><ele>3.0</ele><time>2026-05-01T15:05:29.67Z</time></trkpt><trkpt lat="44.04476277430285" lon="12.59525074289753"><ele>3.0</ele><time>2026-05-01T15:05:30.67Z</time></trkpt><trkpt lat="44.04480513111063" lon="12.595349252846155"><ele>3.0</ele><time>2026-05-01T15:05:31.669Z</time></trkpt><trkpt lat="44.04484022800498" lon="12.595446859196084"><ele>3.0</ele><time>2026-05-01T15:05:32.669Z</time></trkpt><trkpt lat="44.04488711016315" lon="12.595553725116103"><ele>3.0</ele><time>2026-05-01T15:05:33.669Z</time></trkpt><trkpt lat="44.0449148846968" lon="12.595642719750748"><ele>3.0</ele><time>2026-05-01T15:05:34.669Z</time></trkpt><trkpt lat="44.044936768889485" lon="12.595728920933553"><ele>3.0</ele><time>2026-05-01T15:05:36.669Z</time></trkpt><trkpt lat="44.04507710732507" lon="12.595579894492737"><ele>3.0</ele><time>2026-05-01T15:05:38.669Z</time></trkpt><trkpt lat="44.04516836393213" lon="12.595489786960856"><ele>3.0</ele><time>2026-05-01T15:05:39.669Z</time></trkpt><trkpt lat="44.045238220028864" lon="12.595401778594233"><ele>3.0</ele><time>2026-05-01T15:05:40.668Z</time></trkpt><trkpt lat="44.04529412907676" lon="12.595340722003863"><ele>3.0</ele><time>2026-05-01T15:05:41.668Z</time></trkpt><trkpt lat="44.04535393372728" lon="12.595297045415716"><ele>2.0</ele><time>2026-05-01T15:05:42.668Z</time></trkpt><trkpt lat="44.04540515472806" lon="12.595243865824532"><ele>2.0</ele><time>2026-05-01T15:05:43.667Z</time></trkpt><trkpt lat="44.045472772762835" lon="12.595173662206971"><ele>2.0</ele><time>2026-05-01T15:05:45.667Z</time></trkpt><trkpt lat="44.04551958316804" lon="12.59509950729724"><ele>2.0</ele><time>2026-05-01T15:05:53.665Z</time></trkpt></trkseg></trk></gpx>